<?xml version="1.0" encoding="UTF-8" standalone="no" ?>
<gpx xmlns="http://www.topografix.com/GPX/1/1" xmlns:xsi="http://www.w3.org/2001/XMLSchema-instance" xsi:schemaLocation="http://www.topografix.com/GPX/1/1 http://www.topografix.com/GPX/1/1/gpx.xsd" version="1.1" creator="VisuGPX - https://www.visugpx.com">
  <metadata>
    <name>Bruxelles-Kaliningrad 6: Luttelgeest -&amp;gt; Leeuwarden</name>
  </metadata>
  <trk>
    <name><![CDATA[Day 6: Luttelgeest -> Leeuwarden]]></name>
    <extensions>
      <line xmlns="http://www.topografix.com/GPX/gpx_style/0/2">
        <color>0000FF</color>
        <width>4</width>
      </line>
    </extensions>
    <trkseg>
      <trkpt lat="52.74542" lon="5.85288">
        <ele>36.329122</ele>
        <time>2024-07-07T06:36:52.935Z</time>
      </trkpt>
      <trkpt lat="52.74545" lon="5.85303">
        <ele>36.329122</ele>
        <time>2024-07-07T06:39:05.931Z</time>
      </trkpt>
      <trkpt lat="52.74551" lon="5.85316">
        <ele>36.329122</ele>
        <time>2024-07-07T06:39:10.943Z</time>
      </trkpt>
      <trkpt lat="52.74558" lon="5.85327">
        <ele>36.329122</ele>
        <time>2024-07-07T06:39:14.929Z</time>
      </trkpt>
      <trkpt lat="52.74568" lon="5.85336">
        <ele>36.329122</ele>
        <time>2024-07-07T06:39:18.921Z</time>
      </trkpt>
      <trkpt lat="52.74577" lon="5.85346">
        <ele>36.329122</ele>
        <time>2024-07-07T06:39:22.936Z</time>
      </trkpt>
      <trkpt lat="52.74587" lon="5.85357">
        <ele>36.329122</ele>
        <time>2024-07-07T06:39:26.937Z</time>
      </trkpt>
      <trkpt lat="52.74595" lon="5.85365">
        <ele>36.329122</ele>
        <time>2024-07-07T06:39:29.930Z</time>
      </trkpt>
      <trkpt lat="52.74604" lon="5.8537">
        <ele>36.329122</ele>
        <time>2024-07-07T06:39:32.932Z</time>
      </trkpt>
      <trkpt lat="52.74614" lon="5.85367">
        <ele>36.408521</ele>
        <time>2024-07-07T06:39:35.927Z</time>
      </trkpt>
      <trkpt lat="52.74625" lon="5.85367">
        <ele>36.727776</ele>
        <time>2024-07-07T06:39:38.929Z</time>
      </trkpt>
      <trkpt lat="52.74636" lon="5.85357">
        <ele>37.077907</ele>
        <time>2024-07-07T06:39:41.920Z</time>
      </trkpt>
      <trkpt lat="52.74644" lon="5.85342">
        <ele>37.427809</ele>
        <time>2024-07-07T06:39:44.921Z</time>
      </trkpt>
      <trkpt lat="52.74652" lon="5.85325">
        <ele>37.807926</ele>
        <time>2024-07-07T06:39:47.927Z</time>
      </trkpt>
      <trkpt lat="52.74662" lon="5.85311">
        <ele>38.183592</ele>
        <time>2024-07-07T06:39:50.924Z</time>
      </trkpt>
      <trkpt lat="52.7467" lon="5.85295">
        <ele>38.560138</ele>
        <time>2024-07-07T06:39:53.937Z</time>
      </trkpt>
      <trkpt lat="52.74679" lon="5.8528">
        <ele>38.936974</ele>
        <time>2024-07-07T06:39:56.939Z</time>
      </trkpt>
      <trkpt lat="52.74688" lon="5.85265">
        <ele>39.29401</ele>
        <time>2024-07-07T06:39:59.942Z</time>
      </trkpt>
      <trkpt lat="52.74697" lon="5.8525">
        <ele>39.66381</ele>
        <time>2024-07-07T06:40:02.933Z</time>
      </trkpt>
      <trkpt lat="52.74705" lon="5.85235">
        <ele>40.016704</ele>
        <time>2024-07-07T06:40:05.919Z</time>
      </trkpt>
      <trkpt lat="52.74713" lon="5.85223">
        <ele>40.326394</ele>
        <time>2024-07-07T06:40:09.930Z</time>
      </trkpt>
      <trkpt lat="52.7472" lon="5.8521">
        <ele>40.638103</ele>
        <time>2024-07-07T06:40:30.949Z</time>
      </trkpt>
      <trkpt lat="52.74729" lon="5.85196">
        <ele>40.992679</ele>
        <time>2024-07-07T06:40:34.937Z</time>
      </trkpt>
      <trkpt lat="52.74736" lon="5.85182">
        <ele>41.304842</ele>
        <time>2024-07-07T06:40:37.939Z</time>
      </trkpt>
      <trkpt lat="52.74743" lon="5.8517">
        <ele>41.564856</ele>
        <time>2024-07-07T06:40:40.940Z</time>
      </trkpt>
      <trkpt lat="52.74751" lon="5.85156">
        <ele>41.647178</ele>
        <time>2024-07-07T06:40:43.948Z</time>
      </trkpt>
      <trkpt lat="52.74759" lon="5.85143">
        <ele>41.729155</ele>
        <time>2024-07-07T06:40:46.929Z</time>
      </trkpt>
      <trkpt lat="52.74767" lon="5.85128">
        <ele>41.815721</ele>
        <time>2024-07-07T06:40:49.939Z</time>
      </trkpt>
      <trkpt lat="52.74775" lon="5.85113">
        <ele>41.906497</ele>
        <time>2024-07-07T06:40:52.951Z</time>
      </trkpt>
      <trkpt lat="52.74784" lon="5.85097">
        <ele>41.997245</ele>
        <time>2024-07-07T06:40:55.932Z</time>
      </trkpt>
      <trkpt lat="52.74793" lon="5.85083">
        <ele>42.09094</ele>
        <time>2024-07-07T06:40:58.925Z</time>
      </trkpt>
      <trkpt lat="52.74801" lon="5.85067">
        <ele>42.181556</ele>
        <time>2024-07-07T06:41:01.949Z</time>
      </trkpt>
      <trkpt lat="52.74807" lon="5.85056">
        <ele>42.247214</ele>
        <time>2024-07-07T06:41:03.943Z</time>
      </trkpt>
      <trkpt lat="52.74814" lon="5.85045">
        <ele>42.313638</ele>
        <time>2024-07-07T06:41:05.949Z</time>
      </trkpt>
      <trkpt lat="52.7482" lon="5.85034">
        <ele>42.380428</ele>
        <time>2024-07-07T06:41:07.943Z</time>
      </trkpt>
      <trkpt lat="52.74827" lon="5.85023">
        <ele>42.45018</ele>
        <time>2024-07-07T06:41:09.966Z</time>
      </trkpt>
      <trkpt lat="52.74834" lon="5.85011">
        <ele>42.523735</ele>
        <time>2024-07-07T06:41:11.950Z</time>
      </trkpt>
      <trkpt lat="52.74841" lon="5.85">
        <ele>42.59021</ele>
        <time>2024-07-07T06:41:13.956Z</time>
      </trkpt>
      <trkpt lat="52.74848" lon="5.84989">
        <ele>42.660473</ele>
        <time>2024-07-07T06:41:15.941Z</time>
      </trkpt>
      <trkpt lat="52.74855" lon="5.84978">
        <ele>42.732381</ele>
        <time>2024-07-07T06:41:17.954Z</time>
      </trkpt>
      <trkpt lat="52.74861" lon="5.84965">
        <ele>42.804939</ele>
        <time>2024-07-07T06:41:19.939Z</time>
      </trkpt>
      <trkpt lat="52.74868" lon="5.84953">
        <ele>42.887588</ele>
        <time>2024-07-07T06:41:21.941Z</time>
      </trkpt>
      <trkpt lat="52.74874" lon="5.84942">
        <ele>42.981345</ele>
        <time>2024-07-07T06:41:23.945Z</time>
      </trkpt>
      <trkpt lat="52.74883" lon="5.84926">
        <ele>43.119674</ele>
        <time>2024-07-07T06:41:26.954Z</time>
      </trkpt>
      <trkpt lat="52.74892" lon="5.8491">
        <ele>43.258458</ele>
        <time>2024-07-07T06:41:29.941Z</time>
      </trkpt>
      <trkpt lat="52.74899" lon="5.84899">
        <ele>43.356274</ele>
        <time>2024-07-07T06:41:31.940Z</time>
      </trkpt>
      <trkpt lat="52.74906" lon="5.84888">
        <ele>43.45146</ele>
        <time>2024-07-07T06:41:33.940Z</time>
      </trkpt>
      <trkpt lat="52.74912" lon="5.84877">
        <ele>43.548719</ele>
        <time>2024-07-07T06:41:35.927Z</time>
      </trkpt>
      <trkpt lat="52.74919" lon="5.84866">
        <ele>43.645219</ele>
        <time>2024-07-07T06:41:37.945Z</time>
      </trkpt>
      <trkpt lat="52.74926" lon="5.84855">
        <ele>43.745695</ele>
        <time>2024-07-07T06:41:39.939Z</time>
      </trkpt>
      <trkpt lat="52.74932" lon="5.84843">
        <ele>43.845009</ele>
        <time>2024-07-07T06:41:41.957Z</time>
      </trkpt>
      <trkpt lat="52.74939" lon="5.84831">
        <ele>43.949299</ele>
        <time>2024-07-07T06:41:43.940Z</time>
      </trkpt>
      <trkpt lat="52.74946" lon="5.8482">
        <ele>44.050255</ele>
        <time>2024-07-07T06:41:45.943Z</time>
      </trkpt>
      <trkpt lat="52.74953" lon="5.84809">
        <ele>44.151385</ele>
        <time>2024-07-07T06:41:47.940Z</time>
      </trkpt>
      <trkpt lat="52.7496" lon="5.84797">
        <ele>44.252092</ele>
        <time>2024-07-07T06:41:49.926Z</time>
      </trkpt>
      <trkpt lat="52.74967" lon="5.84786">
        <ele>44.355684</ele>
        <time>2024-07-07T06:41:51.943Z</time>
      </trkpt>
      <trkpt lat="52.74974" lon="5.84774">
        <ele>44.456186</ele>
        <time>2024-07-07T06:41:53.945Z</time>
      </trkpt>
      <trkpt lat="52.74981" lon="5.84763">
        <ele>44.554185</ele>
        <time>2024-07-07T06:41:55.946Z</time>
      </trkpt>
      <trkpt lat="52.74987" lon="5.84752">
        <ele>44.650991</ele>
        <time>2024-07-07T06:41:57.951Z</time>
      </trkpt>
      <trkpt lat="52.74994" lon="5.84741">
        <ele>44.706717</ele>
        <time>2024-07-07T06:41:59.943Z</time>
      </trkpt>
      <trkpt lat="52.75" lon="5.8473">
        <ele>44.69063</ele>
        <time>2024-07-07T06:42:01.947Z</time>
      </trkpt>
      <trkpt lat="52.75007" lon="5.84719">
        <ele>44.675001</ele>
        <time>2024-07-07T06:42:03.930Z</time>
      </trkpt>
      <trkpt lat="52.75013" lon="5.84707">
        <ele>44.658802</ele>
        <time>2024-07-07T06:42:05.941Z</time>
      </trkpt>
      <trkpt lat="52.75021" lon="5.8469">
        <ele>44.636423</ele>
        <time>2024-07-07T06:42:08.935Z</time>
      </trkpt>
      <trkpt lat="52.75028" lon="5.84679">
        <ele>44.620865</ele>
        <time>2024-07-07T06:42:10.947Z</time>
      </trkpt>
      <trkpt lat="52.75034" lon="5.84668">
        <ele>44.605387</ele>
        <time>2024-07-07T06:42:12.941Z</time>
      </trkpt>
      <trkpt lat="52.75039" lon="5.84655">
        <ele>44.589836</ele>
        <time>2024-07-07T06:42:14.936Z</time>
      </trkpt>
      <trkpt lat="52.75046" lon="5.84643">
        <ele>44.572954</ele>
        <time>2024-07-07T06:42:16.950Z</time>
      </trkpt>
      <trkpt lat="52.75053" lon="5.84632">
        <ele>44.556183</ele>
        <time>2024-07-07T06:42:18.918Z</time>
      </trkpt>
      <trkpt lat="52.7506" lon="5.8462">
        <ele>44.539979</ele>
        <time>2024-07-07T06:42:20.957Z</time>
      </trkpt>
      <trkpt lat="52.75067" lon="5.84609">
        <ele>44.524137</ele>
        <time>2024-07-07T06:42:22.946Z</time>
      </trkpt>
      <trkpt lat="52.75073" lon="5.84598">
        <ele>44.508018</ele>
        <time>2024-07-07T06:42:24.922Z</time>
      </trkpt>
      <trkpt lat="52.7508" lon="5.84587">
        <ele>44.491913</ele>
        <time>2024-07-07T06:42:26.945Z</time>
      </trkpt>
      <trkpt lat="52.75087" lon="5.84575">
        <ele>44.475899</ele>
        <time>2024-07-07T06:42:28.923Z</time>
      </trkpt>
      <trkpt lat="52.75093" lon="5.84564">
        <ele>44.459886</ele>
        <time>2024-07-07T06:42:30.943Z</time>
      </trkpt>
      <trkpt lat="52.751" lon="5.84552">
        <ele>44.443805</ele>
        <time>2024-07-07T06:42:32.938Z</time>
      </trkpt>
      <trkpt lat="52.75106" lon="5.84541">
        <ele>44.427421</ele>
        <time>2024-07-07T06:42:34.939Z</time>
      </trkpt>
      <trkpt lat="52.75113" lon="5.84529">
        <ele>44.411528</ele>
        <time>2024-07-07T06:42:36.949Z</time>
      </trkpt>
      <trkpt lat="52.75119" lon="5.84518">
        <ele>44.422818</ele>
        <time>2024-07-07T06:42:38.945Z</time>
      </trkpt>
      <trkpt lat="52.75126" lon="5.84506">
        <ele>44.439133</ele>
        <time>2024-07-07T06:42:40.944Z</time>
      </trkpt>
      <trkpt lat="52.75132" lon="5.84494">
        <ele>44.454932</ele>
        <time>2024-07-07T06:42:42.940Z</time>
      </trkpt>
      <trkpt lat="52.75139" lon="5.84483">
        <ele>44.470412</ele>
        <time>2024-07-07T06:42:44.949Z</time>
      </trkpt>
      <trkpt lat="52.75145" lon="5.84471">
        <ele>44.486359</ele>
        <time>2024-07-07T06:42:46.945Z</time>
      </trkpt>
      <trkpt lat="52.75151" lon="5.84459">
        <ele>44.50223</ele>
        <time>2024-07-07T06:42:48.937Z</time>
      </trkpt>
      <trkpt lat="52.75157" lon="5.84446">
        <ele>44.517896</ele>
        <time>2024-07-07T06:42:50.938Z</time>
      </trkpt>
      <trkpt lat="52.75164" lon="5.84434">
        <ele>44.533807</ele>
        <time>2024-07-07T06:42:52.953Z</time>
      </trkpt>
      <trkpt lat="52.75171" lon="5.84423">
        <ele>44.549706</ele>
        <time>2024-07-07T06:42:54.958Z</time>
      </trkpt>
      <trkpt lat="52.75177" lon="5.84412">
        <ele>44.564699</ele>
        <time>2024-07-07T06:42:56.950Z</time>
      </trkpt>
      <trkpt lat="52.75186" lon="5.84397">
        <ele>44.586067</ele>
        <time>2024-07-07T06:42:59.942Z</time>
      </trkpt>
      <trkpt lat="52.75192" lon="5.84386">
        <ele>44.601196</ele>
        <time>2024-07-07T06:43:01.931Z</time>
      </trkpt>
      <trkpt lat="52.752" lon="5.84372">
        <ele>44.619777</ele>
        <time>2024-07-07T06:43:04.936Z</time>
      </trkpt>
      <trkpt lat="52.75204" lon="5.84355">
        <ele>44.6379</ele>
        <time>2024-07-07T06:43:07.948Z</time>
      </trkpt>
      <trkpt lat="52.75209" lon="5.8434">
        <ele>44.655058</ele>
        <time>2024-07-07T06:43:10.936Z</time>
      </trkpt>
      <trkpt lat="52.75217" lon="5.84326">
        <ele>44.674357</ele>
        <time>2024-07-07T06:43:14.921Z</time>
      </trkpt>
      <trkpt lat="52.75227" lon="5.8432">
        <ele>44.691588</ele>
        <time>2024-07-07T06:43:17.924Z</time>
      </trkpt>
      <trkpt lat="52.75237" lon="5.8431">
        <ele>44.713618</ele>
        <time>2024-07-07T06:43:20.918Z</time>
      </trkpt>
      <trkpt lat="52.75246" lon="5.84294">
        <ele>44.743952</ele>
        <time>2024-07-07T06:43:23.926Z</time>
      </trkpt>
      <trkpt lat="52.75252" lon="5.84282">
        <ele>44.765192</ele>
        <time>2024-07-07T06:43:25.948Z</time>
      </trkpt>
      <trkpt lat="52.75261" lon="5.84266">
        <ele>44.795629</ele>
        <time>2024-07-07T06:43:28.936Z</time>
      </trkpt>
      <trkpt lat="52.7527" lon="5.8425">
        <ele>44.826494</ele>
        <time>2024-07-07T06:43:31.938Z</time>
      </trkpt>
      <trkpt lat="52.7528" lon="5.84234">
        <ele>44.85742</ele>
        <time>2024-07-07T06:43:34.941Z</time>
      </trkpt>
      <trkpt lat="52.75288" lon="5.84218">
        <ele>44.887243</ele>
        <time>2024-07-07T06:43:37.956Z</time>
      </trkpt>
      <trkpt lat="52.75298" lon="5.84203">
        <ele>44.917645</ele>
        <time>2024-07-07T06:43:40.950Z</time>
      </trkpt>
      <trkpt lat="52.75306" lon="5.84187">
        <ele>44.947462</ele>
        <time>2024-07-07T06:43:43.941Z</time>
      </trkpt>
      <trkpt lat="52.75313" lon="5.84177">
        <ele>44.96833</ele>
        <time>2024-07-07T06:43:45.940Z</time>
      </trkpt>
      <trkpt lat="52.75323" lon="5.84161">
        <ele>44.999977</ele>
        <time>2024-07-07T06:43:48.960Z</time>
      </trkpt>
      <trkpt lat="52.75329" lon="5.8415">
        <ele>45.020877</ele>
        <time>2024-07-07T06:43:50.943Z</time>
      </trkpt>
      <trkpt lat="52.75336" lon="5.8414">
        <ele>45.04172</ele>
        <time>2024-07-07T06:43:52.958Z</time>
      </trkpt>
      <trkpt lat="52.75346" lon="5.84127">
        <ele>45.071444</ele>
        <time>2024-07-07T06:43:55.958Z</time>
      </trkpt>
      <trkpt lat="52.75355" lon="5.84113">
        <ele>45.101083</ele>
        <time>2024-07-07T06:43:58.959Z</time>
      </trkpt>
      <trkpt lat="52.75364" lon="5.84097">
        <ele>45.074221</ele>
        <time>2024-07-07T06:44:01.939Z</time>
      </trkpt>
      <trkpt lat="52.75372" lon="5.84081">
        <ele>44.940476</ele>
        <time>2024-07-07T06:44:04.933Z</time>
      </trkpt>
      <trkpt lat="52.75381" lon="5.84066">
        <ele>44.812127</ele>
        <time>2024-07-07T06:44:07.925Z</time>
      </trkpt>
      <trkpt lat="52.75389" lon="5.8405">
        <ele>44.677576</ele>
        <time>2024-07-07T06:44:10.941Z</time>
      </trkpt>
      <trkpt lat="52.75398" lon="5.84034">
        <ele>44.544881</ele>
        <time>2024-07-07T06:44:13.940Z</time>
      </trkpt>
      <trkpt lat="52.75404" lon="5.84023">
        <ele>44.450604</ele>
        <time>2024-07-07T06:44:15.944Z</time>
      </trkpt>
      <trkpt lat="52.75413" lon="5.84005">
        <ele>44.310682</ele>
        <time>2024-07-07T06:44:18.932Z</time>
      </trkpt>
      <trkpt lat="52.75422" lon="5.83989">
        <ele>44.172395</ele>
        <time>2024-07-07T06:44:21.939Z</time>
      </trkpt>
      <trkpt lat="52.75432" lon="5.83974">
        <ele>44.034272</ele>
        <time>2024-07-07T06:44:24.924Z</time>
      </trkpt>
      <trkpt lat="52.75437" lon="5.83963">
        <ele>43.941129</ele>
        <time>2024-07-07T06:44:26.958Z</time>
      </trkpt>
      <trkpt lat="52.75443" lon="5.8395">
        <ele>43.845477</ele>
        <time>2024-07-07T06:44:28.931Z</time>
      </trkpt>
      <trkpt lat="52.75449" lon="5.83938">
        <ele>43.746921</ele>
        <time>2024-07-07T06:44:30.948Z</time>
      </trkpt>
      <trkpt lat="52.75456" lon="5.83926">
        <ele>43.64464</ele>
        <time>2024-07-07T06:44:32.948Z</time>
      </trkpt>
      <trkpt lat="52.75463" lon="5.83915">
        <ele>43.542968</ele>
        <time>2024-07-07T06:44:34.927Z</time>
      </trkpt>
      <trkpt lat="52.75469" lon="5.83903">
        <ele>43.446039</ele>
        <time>2024-07-07T06:44:36.919Z</time>
      </trkpt>
      <trkpt lat="52.75476" lon="5.83892">
        <ele>43.347037</ele>
        <time>2024-07-07T06:44:38.917Z</time>
      </trkpt>
      <trkpt lat="52.75482" lon="5.83881">
        <ele>43.276453</ele>
        <time>2024-07-07T06:44:40.936Z</time>
      </trkpt>
      <trkpt lat="52.75489" lon="5.8387">
        <ele>43.326734</ele>
        <time>2024-07-07T06:44:42.919Z</time>
      </trkpt>
      <trkpt lat="52.75498" lon="5.83854">
        <ele>43.402401</ele>
        <time>2024-07-07T06:44:45.948Z</time>
      </trkpt>
      <trkpt lat="52.75505" lon="5.83843">
        <ele>43.454244</ele>
        <time>2024-07-07T06:44:47.919Z</time>
      </trkpt>
      <trkpt lat="52.75511" lon="5.83832">
        <ele>43.506519</ele>
        <time>2024-07-07T06:44:49.935Z</time>
      </trkpt>
      <trkpt lat="52.75517" lon="5.8382">
        <ele>43.558167</ele>
        <time>2024-07-07T06:44:51.936Z</time>
      </trkpt>
      <trkpt lat="52.75523" lon="5.83809">
        <ele>43.60869</ele>
        <time>2024-07-07T06:44:53.938Z</time>
      </trkpt>
      <trkpt lat="52.7553" lon="5.83798">
        <ele>43.660475</ele>
        <time>2024-07-07T06:44:55.954Z</time>
      </trkpt>
      <trkpt lat="52.75536" lon="5.83787">
        <ele>43.71275</ele>
        <time>2024-07-07T06:44:57.947Z</time>
      </trkpt>
      <trkpt lat="52.75542" lon="5.83776">
        <ele>43.763905</ele>
        <time>2024-07-07T06:44:59.937Z</time>
      </trkpt>
      <trkpt lat="52.75549" lon="5.83766">
        <ele>43.816415</ele>
        <time>2024-07-07T06:45:01.955Z</time>
      </trkpt>
      <trkpt lat="52.75557" lon="5.83756">
        <ele>43.868924</ele>
        <time>2024-07-07T06:45:03.925Z</time>
      </trkpt>
      <trkpt lat="52.75563" lon="5.83746">
        <ele>43.918954</ele>
        <time>2024-07-07T06:45:05.947Z</time>
      </trkpt>
      <trkpt lat="52.75573" lon="5.8373">
        <ele>43.993072</ele>
        <time>2024-07-07T06:45:08.932Z</time>
      </trkpt>
      <trkpt lat="52.75582" lon="5.83715">
        <ele>44.067915</ele>
        <time>2024-07-07T06:45:11.928Z</time>
      </trkpt>
      <trkpt lat="52.75591" lon="5.837">
        <ele>44.138092</ele>
        <time>2024-07-07T06:45:14.940Z</time>
      </trkpt>
      <trkpt lat="52.75597" lon="5.83688">
        <ele>44.189701</ele>
        <time>2024-07-07T06:45:16.954Z</time>
      </trkpt>
      <trkpt lat="52.75603" lon="5.83677">
        <ele>44.240595</ele>
        <time>2024-07-07T06:45:18.935Z</time>
      </trkpt>
      <trkpt lat="52.75609" lon="5.83665">
        <ele>44.263862</ele>
        <time>2024-07-07T06:45:20.945Z</time>
      </trkpt>
      <trkpt lat="52.75615" lon="5.83653">
        <ele>44.245505</ele>
        <time>2024-07-07T06:45:22.942Z</time>
      </trkpt>
      <trkpt lat="52.75621" lon="5.83642">
        <ele>44.22747</ele>
        <time>2024-07-07T06:45:24.935Z</time>
      </trkpt>
      <trkpt lat="52.75627" lon="5.83631">
        <ele>44.209249</ele>
        <time>2024-07-07T06:45:26.938Z</time>
      </trkpt>
      <trkpt lat="52.75635" lon="5.83616">
        <ele>44.185861</ele>
        <time>2024-07-07T06:45:29.943Z</time>
      </trkpt>
      <trkpt lat="52.75645" lon="5.836">
        <ele>44.159704</ele>
        <time>2024-07-07T06:45:32.926Z</time>
      </trkpt>
      <trkpt lat="52.75654" lon="5.83584">
        <ele>44.133055</ele>
        <time>2024-07-07T06:45:35.936Z</time>
      </trkpt>
      <trkpt lat="52.7566" lon="5.83572">
        <ele>44.114539</ele>
        <time>2024-07-07T06:45:37.939Z</time>
      </trkpt>
      <trkpt lat="52.75667" lon="5.83562">
        <ele>44.096313</ele>
        <time>2024-07-07T06:45:39.939Z</time>
      </trkpt>
      <trkpt lat="52.75677" lon="5.83546">
        <ele>44.06997</ele>
        <time>2024-07-07T06:45:42.942Z</time>
      </trkpt>
      <trkpt lat="52.75686" lon="5.8353">
        <ele>44.043813</ele>
        <time>2024-07-07T06:45:45.939Z</time>
      </trkpt>
      <trkpt lat="52.75695" lon="5.83514">
        <ele>44.018145</ele>
        <time>2024-07-07T06:45:48.944Z</time>
      </trkpt>
      <trkpt lat="52.75701" lon="5.83503">
        <ele>43.999787</ele>
        <time>2024-07-07T06:45:50.949Z</time>
      </trkpt>
      <trkpt lat="52.75708" lon="5.83492">
        <ele>43.982231</ele>
        <time>2024-07-07T06:45:52.933Z</time>
      </trkpt>
      <trkpt lat="52.75714" lon="5.8348">
        <ele>43.963582</ele>
        <time>2024-07-07T06:45:54.940Z</time>
      </trkpt>
      <trkpt lat="52.7572" lon="5.83468">
        <ele>43.944583</ele>
        <time>2024-07-07T06:45:56.956Z</time>
      </trkpt>
      <trkpt lat="52.75727" lon="5.83457">
        <ele>43.926087</ele>
        <time>2024-07-07T06:45:58.938Z</time>
      </trkpt>
      <trkpt lat="52.75734" lon="5.83447">
        <ele>43.944811</ele>
        <time>2024-07-07T06:46:00.945Z</time>
      </trkpt>
      <trkpt lat="52.7574" lon="5.83436">
        <ele>43.986152</ele>
        <time>2024-07-07T06:46:02.958Z</time>
      </trkpt>
      <trkpt lat="52.75747" lon="5.83424">
        <ele>44.029788</ele>
        <time>2024-07-07T06:46:04.953Z</time>
      </trkpt>
      <trkpt lat="52.75753" lon="5.83412">
        <ele>44.072718</ele>
        <time>2024-07-07T06:46:06.945Z</time>
      </trkpt>
      <trkpt lat="52.7576" lon="5.83401">
        <ele>44.116679</ele>
        <time>2024-07-07T06:46:08.936Z</time>
      </trkpt>
      <trkpt lat="52.75766" lon="5.8339">
        <ele>44.158335</ele>
        <time>2024-07-07T06:46:10.936Z</time>
      </trkpt>
      <trkpt lat="52.75773" lon="5.83379">
        <ele>44.199871</ele>
        <time>2024-07-07T06:46:12.939Z</time>
      </trkpt>
      <trkpt lat="52.75779" lon="5.83368">
        <ele>44.240568</ele>
        <time>2024-07-07T06:46:14.960Z</time>
      </trkpt>
      <trkpt lat="52.75785" lon="5.83357">
        <ele>44.282591</ele>
        <time>2024-07-07T06:46:16.933Z</time>
      </trkpt>
      <trkpt lat="52.75792" lon="5.83346">
        <ele>44.325204</ele>
        <time>2024-07-07T06:46:18.923Z</time>
      </trkpt>
      <trkpt lat="52.75799" lon="5.83334">
        <ele>44.368346</ele>
        <time>2024-07-07T06:46:20.931Z</time>
      </trkpt>
      <trkpt lat="52.75805" lon="5.83323">
        <ele>44.409062</ele>
        <time>2024-07-07T06:46:22.936Z</time>
      </trkpt>
      <trkpt lat="52.75811" lon="5.83311">
        <ele>44.452698</ele>
        <time>2024-07-07T06:46:24.942Z</time>
      </trkpt>
      <trkpt lat="52.75818" lon="5.833">
        <ele>44.497051</ele>
        <time>2024-07-07T06:46:26.938Z</time>
      </trkpt>
      <trkpt lat="52.75825" lon="5.83288">
        <ele>44.540878</ele>
        <time>2024-07-07T06:46:28.926Z</time>
      </trkpt>
      <trkpt lat="52.75833" lon="5.83279">
        <ele>44.583195</ele>
        <time>2024-07-07T06:46:30.946Z</time>
      </trkpt>
      <trkpt lat="52.75842" lon="5.83264">
        <ele>44.641847</ele>
        <time>2024-07-07T06:46:33.946Z</time>
      </trkpt>
      <trkpt lat="52.75851" lon="5.83249">
        <ele>44.699107</ele>
        <time>2024-07-07T06:46:36.943Z</time>
      </trkpt>
      <trkpt lat="52.75859" lon="5.83234">
        <ele>44.733584</ele>
        <time>2024-07-07T06:46:39.919Z</time>
      </trkpt>
      <trkpt lat="52.75868" lon="5.8322">
        <ele>44.745459</ele>
        <time>2024-07-07T06:46:42.937Z</time>
      </trkpt>
      <trkpt lat="52.75878" lon="5.83205">
        <ele>44.758136</ele>
        <time>2024-07-07T06:46:45.945Z</time>
      </trkpt>
      <trkpt lat="52.75886" lon="5.8319">
        <ele>44.769983</ele>
        <time>2024-07-07T06:46:48.936Z</time>
      </trkpt>
      <trkpt lat="52.75894" lon="5.83172">
        <ele>44.782672</ele>
        <time>2024-07-07T06:46:51.936Z</time>
      </trkpt>
      <trkpt lat="52.75903" lon="5.83154">
        <ele>44.795718</ele>
        <time>2024-07-07T06:46:54.945Z</time>
      </trkpt>
      <trkpt lat="52.75909" lon="5.83143">
        <ele>44.804905</ele>
        <time>2024-07-07T06:46:56.948Z</time>
      </trkpt>
      <trkpt lat="52.75916" lon="5.83132">
        <ele>44.813785</ele>
        <time>2024-07-07T06:46:58.945Z</time>
      </trkpt>
      <trkpt lat="52.75925" lon="5.83115">
        <ele>44.826682</ele>
        <time>2024-07-07T06:47:01.940Z</time>
      </trkpt>
      <trkpt lat="52.75932" lon="5.83105">
        <ele>44.835341</ele>
        <time>2024-07-07T06:47:03.929Z</time>
      </trkpt>
      <trkpt lat="52.75941" lon="5.83089">
        <ele>44.848316</ele>
        <time>2024-07-07T06:47:06.925Z</time>
      </trkpt>
      <trkpt lat="52.75948" lon="5.83078">
        <ele>44.857089</ele>
        <time>2024-07-07T06:47:08.939Z</time>
      </trkpt>
      <trkpt lat="52.75954" lon="5.83067">
        <ele>44.866195</ele>
        <time>2024-07-07T06:47:10.946Z</time>
      </trkpt>
      <trkpt lat="52.75961" lon="5.83056">
        <ele>44.875052</ele>
        <time>2024-07-07T06:47:12.949Z</time>
      </trkpt>
      <trkpt lat="52.75967" lon="5.83044">
        <ele>44.883995</ele>
        <time>2024-07-07T06:47:14.937Z</time>
      </trkpt>
      <trkpt lat="52.75973" lon="5.83033">
        <ele>44.892745</ele>
        <time>2024-07-07T06:47:16.932Z</time>
      </trkpt>
      <trkpt lat="52.7598" lon="5.83022">
        <ele>44.888425</ele>
        <time>2024-07-07T06:47:18.929Z</time>
      </trkpt>
      <trkpt lat="52.75986" lon="5.83011">
        <ele>44.837269</ele>
        <time>2024-07-07T06:47:20.927Z</time>
      </trkpt>
      <trkpt lat="52.75993" lon="5.83">
        <ele>44.785361</ele>
        <time>2024-07-07T06:47:22.935Z</time>
      </trkpt>
      <trkpt lat="52.76" lon="5.8299">
        <ele>44.734156</ele>
        <time>2024-07-07T06:47:24.927Z</time>
      </trkpt>
      <trkpt lat="52.76007" lon="5.82979">
        <ele>44.683562</ele>
        <time>2024-07-07T06:47:26.933Z</time>
      </trkpt>
      <trkpt lat="52.76013" lon="5.82968">
        <ele>44.633582</ele>
        <time>2024-07-07T06:47:28.928Z</time>
      </trkpt>
      <trkpt lat="52.7602" lon="5.82957">
        <ele>44.582603</ele>
        <time>2024-07-07T06:47:30.939Z</time>
      </trkpt>
      <trkpt lat="52.76029" lon="5.82941">
        <ele>44.509902</ele>
        <time>2024-07-07T06:47:33.936Z</time>
      </trkpt>
      <trkpt lat="52.76035" lon="5.8293">
        <ele>44.460781</ele>
        <time>2024-07-07T06:47:35.938Z</time>
      </trkpt>
      <trkpt lat="52.76044" lon="5.82914">
        <ele>44.389958</ele>
        <time>2024-07-07T06:47:38.926Z</time>
      </trkpt>
      <trkpt lat="52.7605" lon="5.82902">
        <ele>44.339533</ele>
        <time>2024-07-07T06:47:40.934Z</time>
      </trkpt>
      <trkpt lat="52.76057" lon="5.82891">
        <ele>44.287625</ele>
        <time>2024-07-07T06:47:42.940Z</time>
      </trkpt>
      <trkpt lat="52.76064" lon="5.82881">
        <ele>44.237042</ele>
        <time>2024-07-07T06:47:44.939Z</time>
      </trkpt>
      <trkpt lat="52.7607" lon="5.8287">
        <ele>44.188373</ele>
        <time>2024-07-07T06:47:46.940Z</time>
      </trkpt>
      <trkpt lat="52.76076" lon="5.82858">
        <ele>44.137386</ele>
        <time>2024-07-07T06:47:48.940Z</time>
      </trkpt>
      <trkpt lat="52.76085" lon="5.82843">
        <ele>44.0686</ele>
        <time>2024-07-07T06:47:51.942Z</time>
      </trkpt>
      <trkpt lat="52.76094" lon="5.82828">
        <ele>43.998676</ele>
        <time>2024-07-07T06:47:54.958Z</time>
      </trkpt>
      <trkpt lat="52.76103" lon="5.82811">
        <ele>43.925122</ele>
        <time>2024-07-07T06:47:57.947Z</time>
      </trkpt>
      <trkpt lat="52.76112" lon="5.82795">
        <ele>43.933599</ele>
        <time>2024-07-07T06:48:00.952Z</time>
      </trkpt>
      <trkpt lat="52.76118" lon="5.82784">
        <ele>43.940275</ele>
        <time>2024-07-07T06:48:02.949Z</time>
      </trkpt>
      <trkpt lat="52.76125" lon="5.82773">
        <ele>43.947056</ele>
        <time>2024-07-07T06:48:04.923Z</time>
      </trkpt>
      <trkpt lat="52.76131" lon="5.82762">
        <ele>43.953508</ele>
        <time>2024-07-07T06:48:06.972Z</time>
      </trkpt>
      <trkpt lat="52.76138" lon="5.82751">
        <ele>43.960339</ele>
        <time>2024-07-07T06:48:08.939Z</time>
      </trkpt>
      <trkpt lat="52.76145" lon="5.82739">
        <ele>43.967327</ele>
        <time>2024-07-07T06:48:10.924Z</time>
      </trkpt>
      <trkpt lat="52.7615" lon="5.82727">
        <ele>43.974055</ele>
        <time>2024-07-07T06:48:12.937Z</time>
      </trkpt>
      <trkpt lat="52.76157" lon="5.82716">
        <ele>43.980579</ele>
        <time>2024-07-07T06:48:14.939Z</time>
      </trkpt>
      <trkpt lat="52.76162" lon="5.82704">
        <ele>43.987306</ele>
        <time>2024-07-07T06:48:16.947Z</time>
      </trkpt>
      <trkpt lat="52.76169" lon="5.82693">
        <ele>43.993814</ele>
        <time>2024-07-07T06:48:18.918Z</time>
      </trkpt>
      <trkpt lat="52.76174" lon="5.82679">
        <ele>44.000794</ele>
        <time>2024-07-07T06:48:20.925Z</time>
      </trkpt>
      <trkpt lat="52.7618" lon="5.82667">
        <ele>44.007338</ele>
        <time>2024-07-07T06:48:22.937Z</time>
      </trkpt>
      <trkpt lat="52.76185" lon="5.82654">
        <ele>44.014048</ele>
        <time>2024-07-07T06:48:24.921Z</time>
      </trkpt>
      <trkpt lat="52.76191" lon="5.82642">
        <ele>44.020937</ele>
        <time>2024-07-07T06:48:26.938Z</time>
      </trkpt>
      <trkpt lat="52.76196" lon="5.82628">
        <ele>44.027715</ele>
        <time>2024-07-07T06:48:28.933Z</time>
      </trkpt>
      <trkpt lat="52.762" lon="5.82615">
        <ele>44.034126</ele>
        <time>2024-07-07T06:48:30.940Z</time>
      </trkpt>
      <trkpt lat="52.76202" lon="5.82598">
        <ele>44.041911</ele>
        <time>2024-07-07T06:48:33.930Z</time>
      </trkpt>
      <trkpt lat="52.76199" lon="5.82582">
        <ele>44.049206</ele>
        <time>2024-07-07T06:48:37.938Z</time>
      </trkpt>
      <trkpt lat="52.76199" lon="5.82567">
        <ele>44.083186</ele>
        <time>2024-07-07T06:48:43.920Z</time>
      </trkpt>
      <trkpt lat="52.76204" lon="5.82553">
        <ele>44.159445</ele>
        <time>2024-07-07T06:48:48.918Z</time>
      </trkpt>
      <trkpt lat="52.76215" lon="5.82547">
        <ele>44.247044</ele>
        <time>2024-07-07T06:48:51.927Z</time>
      </trkpt>
      <trkpt lat="52.76226" lon="5.82547">
        <ele>44.336339</ele>
        <time>2024-07-07T06:48:54.929Z</time>
      </trkpt>
      <trkpt lat="52.76234" lon="5.82535">
        <ele>44.424112</ele>
        <time>2024-07-07T06:48:57.941Z</time>
      </trkpt>
      <trkpt lat="52.76242" lon="5.82518">
        <ele>44.523435</ele>
        <time>2024-07-07T06:49:00.920Z</time>
      </trkpt>
      <trkpt lat="52.76249" lon="5.825">
        <ele>44.624511</ele>
        <time>2024-07-07T06:49:03.941Z</time>
      </trkpt>
      <trkpt lat="52.76257" lon="5.82482">
        <ele>44.727053</ele>
        <time>2024-07-07T06:49:06.951Z</time>
      </trkpt>
      <trkpt lat="52.76264" lon="5.82465">
        <ele>44.829523</ele>
        <time>2024-07-07T06:49:09.943Z</time>
      </trkpt>
      <trkpt lat="52.76272" lon="5.82446">
        <ele>44.934964</ele>
        <time>2024-07-07T06:49:12.936Z</time>
      </trkpt>
      <trkpt lat="52.76279" lon="5.82429">
        <ele>45.033304</ele>
        <time>2024-07-07T06:49:15.936Z</time>
      </trkpt>
      <trkpt lat="52.76286" lon="5.82411">
        <ele>45.135561</ele>
        <time>2024-07-07T06:49:18.929Z</time>
      </trkpt>
      <trkpt lat="52.76293" lon="5.82394">
        <ele>45.23719</ele>
        <time>2024-07-07T06:49:21.940Z</time>
      </trkpt>
      <trkpt lat="52.763" lon="5.82376">
        <ele>45.335032</ele>
        <time>2024-07-07T06:49:24.935Z</time>
      </trkpt>
      <trkpt lat="52.76306" lon="5.82364">
        <ele>45.406919</ele>
        <time>2024-07-07T06:49:26.938Z</time>
      </trkpt>
      <trkpt lat="52.76311" lon="5.82351">
        <ele>45.432552</ele>
        <time>2024-07-07T06:49:28.944Z</time>
      </trkpt>
      <trkpt lat="52.76318" lon="5.82333">
        <ele>45.252135</ele>
        <time>2024-07-07T06:49:31.953Z</time>
      </trkpt>
      <trkpt lat="52.76326" lon="5.82315">
        <ele>45.075002</ele>
        <time>2024-07-07T06:49:34.937Z</time>
      </trkpt>
      <trkpt lat="52.76333" lon="5.82298">
        <ele>44.901488</ele>
        <time>2024-07-07T06:49:37.939Z</time>
      </trkpt>
      <trkpt lat="52.76341" lon="5.82281">
        <ele>44.72265</ele>
        <time>2024-07-07T06:49:40.931Z</time>
      </trkpt>
      <trkpt lat="52.76347" lon="5.82263">
        <ele>44.556192</ele>
        <time>2024-07-07T06:49:43.945Z</time>
      </trkpt>
      <trkpt lat="52.76354" lon="5.82248">
        <ele>44.403799</ele>
        <time>2024-07-07T06:49:46.942Z</time>
      </trkpt>
      <trkpt lat="52.7636" lon="5.82235">
        <ele>44.260884</ele>
        <time>2024-07-07T06:49:49.947Z</time>
      </trkpt>
      <trkpt lat="52.76369" lon="5.82227">
        <ele>44.12738</ele>
        <time>2024-07-07T06:49:52.924Z</time>
      </trkpt>
      <trkpt lat="52.76379" lon="5.82236">
        <ele>43.976863</ele>
        <time>2024-07-07T06:49:56.931Z</time>
      </trkpt>
      <trkpt lat="52.76384" lon="5.82222">
        <ele>43.839201</ele>
        <time>2024-07-07T06:49:59.928Z</time>
      </trkpt>
      <trkpt lat="52.76389" lon="5.82207">
        <ele>43.704802</ele>
        <time>2024-07-07T06:50:02.924Z</time>
      </trkpt>
      <trkpt lat="52.76396" lon="5.82194">
        <ele>43.555562</ele>
        <time>2024-07-07T06:50:05.940Z</time>
      </trkpt>
      <trkpt lat="52.76403" lon="5.82176">
        <ele>43.383407</ele>
        <time>2024-07-07T06:50:08.920Z</time>
      </trkpt>
      <trkpt lat="52.76409" lon="5.82157">
        <ele>43.208825</ele>
        <time>2024-07-07T06:50:11.955Z</time>
      </trkpt>
      <trkpt lat="52.76416" lon="5.82138">
        <ele>43.029023</ele>
        <time>2024-07-07T06:50:14.953Z</time>
      </trkpt>
      <trkpt lat="52.76423" lon="5.8212">
        <ele>42.886657</ele>
        <time>2024-07-07T06:50:17.940Z</time>
      </trkpt>
      <trkpt lat="52.76431" lon="5.82102">
        <ele>42.747166</ele>
        <time>2024-07-07T06:50:20.935Z</time>
      </trkpt>
      <trkpt lat="52.76439" lon="5.82085">
        <ele>42.608656</ele>
        <time>2024-07-07T06:50:23.956Z</time>
      </trkpt>
      <trkpt lat="52.76448" lon="5.8207">
        <ele>42.471589</ele>
        <time>2024-07-07T06:50:26.936Z</time>
      </trkpt>
      <trkpt lat="52.76455" lon="5.82051">
        <ele>42.329327</ele>
        <time>2024-07-07T06:50:29.979Z</time>
      </trkpt>
      <trkpt lat="52.76462" lon="5.82032">
        <ele>42.190923</ele>
        <time>2024-07-07T06:50:32.933Z</time>
      </trkpt>
      <trkpt lat="52.76469" lon="5.82013">
        <ele>42.046357</ele>
        <time>2024-07-07T06:50:35.945Z</time>
      </trkpt>
      <trkpt lat="52.76477" lon="5.81995">
        <ele>41.904362</ele>
        <time>2024-07-07T06:50:38.937Z</time>
      </trkpt>
      <trkpt lat="52.76483" lon="5.81983">
        <ele>41.803259</ele>
        <time>2024-07-07T06:50:40.945Z</time>
      </trkpt>
      <trkpt lat="52.76488" lon="5.81969">
        <ele>41.700703</ele>
        <time>2024-07-07T06:50:42.938Z</time>
      </trkpt>
      <trkpt lat="52.76494" lon="5.81956">
        <ele>41.598669</ele>
        <time>2024-07-07T06:50:44.942Z</time>
      </trkpt>
      <trkpt lat="52.76499" lon="5.81943">
        <ele>41.495264</ele>
        <time>2024-07-07T06:50:46.936Z</time>
      </trkpt>
      <trkpt lat="52.76504" lon="5.81929">
        <ele>41.393509</ele>
        <time>2024-07-07T06:50:48.951Z</time>
      </trkpt>
      <trkpt lat="52.76509" lon="5.81916">
        <ele>41.293212</ele>
        <time>2024-07-07T06:50:50.942Z</time>
      </trkpt>
      <trkpt lat="52.76514" lon="5.81903">
        <ele>41.196384</ele>
        <time>2024-07-07T06:50:52.933Z</time>
      </trkpt>
      <trkpt lat="52.76522" lon="5.81887">
        <ele>40.976633</ele>
        <time>2024-07-07T06:50:55.944Z</time>
      </trkpt>
      <trkpt lat="52.76529" lon="5.81868">
        <ele>40.629958</ele>
        <time>2024-07-07T06:50:58.936Z</time>
      </trkpt>
      <trkpt lat="52.76539" lon="5.81866">
        <ele>40.355945</ele>
        <time>2024-07-07T06:51:01.934Z</time>
      </trkpt>
      <trkpt lat="52.76549" lon="5.81878">
        <ele>40.027492</ele>
        <time>2024-07-07T06:51:04.923Z</time>
      </trkpt>
      <trkpt lat="52.76557" lon="5.81888">
        <ele>39.772047</ele>
        <time>2024-07-07T06:51:07.947Z</time>
      </trkpt>
      <trkpt lat="52.76564" lon="5.81897">
        <ele>39.518482</ele>
        <time>2024-07-07T06:51:11.936Z</time>
      </trkpt>
      <trkpt lat="52.76574" lon="5.81902">
        <ele>39.267131</ele>
        <time>2024-07-07T06:51:16.918Z</time>
      </trkpt>
      <trkpt lat="52.76584" lon="5.81909">
        <ele>38.977618</ele>
        <time>2024-07-07T06:51:20.922Z</time>
      </trkpt>
      <trkpt lat="52.76592" lon="5.81916">
        <ele>38.718448</ele>
        <time>2024-07-07T06:51:23.927Z</time>
      </trkpt>
      <trkpt lat="52.76601" lon="5.81927">
        <ele>38.43982</ele>
        <time>2024-07-07T06:51:26.944Z</time>
      </trkpt>
      <trkpt lat="52.76607" lon="5.81942">
        <ele>38.143422</ele>
        <time>2024-07-07T06:51:29.932Z</time>
      </trkpt>
      <trkpt lat="52.76615" lon="5.81958">
        <ele>37.816</ele>
        <time>2024-07-07T06:51:32.937Z</time>
      </trkpt>
      <trkpt lat="52.76624" lon="5.81974">
        <ele>37.477573</ele>
        <time>2024-07-07T06:51:35.930Z</time>
      </trkpt>
      <trkpt lat="52.76633" lon="5.81986">
        <ele>37.155248</ele>
        <time>2024-07-07T06:51:38.937Z</time>
      </trkpt>
      <trkpt lat="52.76645" lon="5.81998">
        <ele>36.802923</ele>
        <time>2024-07-07T06:51:41.942Z</time>
      </trkpt>
      <trkpt lat="52.76654" lon="5.82009">
        <ele>36.504493</ele>
        <time>2024-07-07T06:51:44.936Z</time>
      </trkpt>
      <trkpt lat="52.76664" lon="5.82019">
        <ele>36.358749</ele>
        <time>2024-07-07T06:51:47.942Z</time>
      </trkpt>
      <trkpt lat="52.76673" lon="5.8203">
        <ele>36.328968</ele>
        <time>2024-07-07T06:51:50.944Z</time>
      </trkpt>
      <trkpt lat="52.76681" lon="5.82041">
        <ele>36.299472</ele>
        <time>2024-07-07T06:51:53.929Z</time>
      </trkpt>
      <trkpt lat="52.76691" lon="5.82051">
        <ele>36.268467</ele>
        <time>2024-07-07T06:51:56.927Z</time>
      </trkpt>
      <trkpt lat="52.76701" lon="5.82061">
        <ele>36.235092</ele>
        <time>2024-07-07T06:51:59.925Z</time>
      </trkpt>
      <trkpt lat="52.7671" lon="5.82071">
        <ele>36.205463</ele>
        <time>2024-07-07T06:52:02.938Z</time>
      </trkpt>
      <trkpt lat="52.76718" lon="5.8208">
        <ele>36.179041</ele>
        <time>2024-07-07T06:52:05.939Z</time>
      </trkpt>
      <trkpt lat="52.76726" lon="5.8209">
        <ele>36.151968</ele>
        <time>2024-07-07T06:52:08.945Z</time>
      </trkpt>
      <trkpt lat="52.76734" lon="5.82103">
        <ele>36.120135</ele>
        <time>2024-07-07T06:52:11.912Z</time>
      </trkpt>
      <trkpt lat="52.76742" lon="5.82114">
        <ele>36.091265</ele>
        <time>2024-07-07T06:52:14.926Z</time>
      </trkpt>
      <trkpt lat="52.76752" lon="5.82115">
        <ele>36.064763</ele>
        <time>2024-07-07T06:52:20.926Z</time>
      </trkpt>
      <trkpt lat="52.76761" lon="5.82123">
        <ele>36.037839</ele>
        <time>2024-07-07T06:52:26.915Z</time>
      </trkpt>
      <trkpt lat="52.76769" lon="5.82133">
        <ele>36.008535</ele>
        <time>2024-07-07T06:52:30.938Z</time>
      </trkpt>
      <trkpt lat="52.76776" lon="5.82144">
        <ele>35.981402</ele>
        <time>2024-07-07T06:52:33.957Z</time>
      </trkpt>
      <trkpt lat="52.76785" lon="5.82157">
        <ele>35.950438</ele>
        <time>2024-07-07T06:52:37.924Z</time>
      </trkpt>
      <trkpt lat="52.76793" lon="5.82168">
        <ele>35.921781</ele>
        <time>2024-07-07T06:52:40.943Z</time>
      </trkpt>
      <trkpt lat="52.76801" lon="5.82182">
        <ele>35.888585</ele>
        <time>2024-07-07T06:52:43.936Z</time>
      </trkpt>
      <trkpt lat="52.7681" lon="5.82194">
        <ele>35.568699</ele>
        <time>2024-07-07T06:52:46.930Z</time>
      </trkpt>
      <trkpt lat="52.7682" lon="5.82206">
        <ele>35.20266</ele>
        <time>2024-07-07T06:52:49.924Z</time>
      </trkpt>
      <trkpt lat="52.76829" lon="5.82217">
        <ele>34.844646</ele>
        <time>2024-07-07T06:52:52.943Z</time>
      </trkpt>
      <trkpt lat="52.76838" lon="5.82227">
        <ele>34.508514</ele>
        <time>2024-07-07T06:52:55.929Z</time>
      </trkpt>
      <trkpt lat="52.76846" lon="5.82239">
        <ele>34.176313</ele>
        <time>2024-07-07T06:52:58.932Z</time>
      </trkpt>
      <trkpt lat="52.76854" lon="5.82249">
        <ele>33.861043</ele>
        <time>2024-07-07T06:53:01.924Z</time>
      </trkpt>
      <trkpt lat="52.76862" lon="5.8226">
        <ele>33.523957</ele>
        <time>2024-07-07T06:53:04.955Z</time>
      </trkpt>
      <trkpt lat="52.76871" lon="5.82271">
        <ele>33.167647</ele>
        <time>2024-07-07T06:53:07.945Z</time>
      </trkpt>
      <trkpt lat="52.76881" lon="5.82284">
        <ele>32.778791</ele>
        <time>2024-07-07T06:53:10.930Z</time>
      </trkpt>
      <trkpt lat="52.76887" lon="5.82296">
        <ele>32.490273</ele>
        <time>2024-07-07T06:53:12.936Z</time>
      </trkpt>
      <trkpt lat="52.76898" lon="5.8231">
        <ele>32.061504</ele>
        <time>2024-07-07T06:53:15.937Z</time>
      </trkpt>
      <trkpt lat="52.76909" lon="5.82322">
        <ele>31.640661</ele>
        <time>2024-07-07T06:53:18.920Z</time>
      </trkpt>
      <trkpt lat="52.7692" lon="5.82334">
        <ele>31.227144</ele>
        <time>2024-07-07T06:53:21.921Z</time>
      </trkpt>
      <trkpt lat="52.76931" lon="5.82344">
        <ele>30.817319</ele>
        <time>2024-07-07T06:53:24.930Z</time>
      </trkpt>
      <trkpt lat="52.76942" lon="5.82357">
        <ele>30.408224</ele>
        <time>2024-07-07T06:53:27.928Z</time>
      </trkpt>
      <trkpt lat="52.76952" lon="5.82368">
        <ele>30.318447</ele>
        <time>2024-07-07T06:53:30.936Z</time>
      </trkpt>
      <trkpt lat="52.76963" lon="5.8238">
        <ele>30.44522</ele>
        <time>2024-07-07T06:53:33.942Z</time>
      </trkpt>
      <trkpt lat="52.76971" lon="5.82388">
        <ele>30.536386</ele>
        <time>2024-07-07T06:53:35.936Z</time>
      </trkpt>
      <trkpt lat="52.76982" lon="5.82398">
        <ele>30.664246</ele>
        <time>2024-07-07T06:53:38.939Z</time>
      </trkpt>
      <trkpt lat="52.7699" lon="5.82407">
        <ele>30.760457</ele>
        <time>2024-07-07T06:53:40.935Z</time>
      </trkpt>
      <trkpt lat="52.76999" lon="5.82414">
        <ele>30.862621</ele>
        <time>2024-07-07T06:53:42.944Z</time>
      </trkpt>
      <trkpt lat="52.77009" lon="5.82426">
        <ele>30.985282</ele>
        <time>2024-07-07T06:53:45.952Z</time>
      </trkpt>
      <trkpt lat="52.7702" lon="5.82439">
        <ele>31.118902</ele>
        <time>2024-07-07T06:53:48.924Z</time>
      </trkpt>
      <trkpt lat="52.77031" lon="5.82451">
        <ele>31.244215</ele>
        <time>2024-07-07T06:53:51.948Z</time>
      </trkpt>
      <trkpt lat="52.77041" lon="5.82463">
        <ele>31.373566</ele>
        <time>2024-07-07T06:53:54.930Z</time>
      </trkpt>
      <trkpt lat="52.77053" lon="5.82474">
        <ele>31.501993</ele>
        <time>2024-07-07T06:53:57.937Z</time>
      </trkpt>
      <trkpt lat="52.77064" lon="5.82486">
        <ele>31.636037</ele>
        <time>2024-07-07T06:54:00.927Z</time>
      </trkpt>
      <trkpt lat="52.77074" lon="5.82498">
        <ele>31.761009</ele>
        <time>2024-07-07T06:54:03.932Z</time>
      </trkpt>
      <trkpt lat="52.77086" lon="5.82509">
        <ele>31.895016</ele>
        <time>2024-07-07T06:54:06.927Z</time>
      </trkpt>
      <trkpt lat="52.77097" lon="5.82522">
        <ele>32.023325</ele>
        <time>2024-07-07T06:54:09.940Z</time>
      </trkpt>
      <trkpt lat="52.77109" lon="5.82531">
        <ele>32.210983</ele>
        <time>2024-07-07T06:54:12.922Z</time>
      </trkpt>
      <trkpt lat="52.77119" lon="5.8253">
        <ele>32.366586</ele>
        <time>2024-07-07T06:54:15.941Z</time>
      </trkpt>
      <trkpt lat="52.77131" lon="5.82524">
        <ele>32.538565</ele>
        <time>2024-07-07T06:54:18.923Z</time>
      </trkpt>
      <trkpt lat="52.77142" lon="5.82516">
        <ele>32.720941</ele>
        <time>2024-07-07T06:54:21.916Z</time>
      </trkpt>
      <trkpt lat="52.77154" lon="5.82508">
        <ele>32.901975</ele>
        <time>2024-07-07T06:54:24.934Z</time>
      </trkpt>
      <trkpt lat="52.77163" lon="5.82502">
        <ele>33.043375</ele>
        <time>2024-07-07T06:54:26.923Z</time>
      </trkpt>
      <trkpt lat="52.77171" lon="5.82496">
        <ele>33.176718</ele>
        <time>2024-07-07T06:54:28.915Z</time>
      </trkpt>
      <trkpt lat="52.77183" lon="5.8249">
        <ele>33.354211</ele>
        <time>2024-07-07T06:54:31.934Z</time>
      </trkpt>
      <trkpt lat="52.77193" lon="5.82489">
        <ele>33.502578</ele>
        <time>2024-07-07T06:54:34.930Z</time>
      </trkpt>
      <trkpt lat="52.77204" lon="5.82489">
        <ele>33.658181</ele>
        <time>2024-07-07T06:54:37.941Z</time>
      </trkpt>
      <trkpt lat="52.77213" lon="5.82488">
        <ele>33.79049</ele>
        <time>2024-07-07T06:54:39.932Z</time>
      </trkpt>
      <trkpt lat="52.77223" lon="5.82491">
        <ele>33.934377</ele>
        <time>2024-07-07T06:54:41.935Z</time>
      </trkpt>
      <trkpt lat="52.77235" lon="5.82493">
        <ele>34.119827</ele>
        <time>2024-07-07T06:54:43.948Z</time>
      </trkpt>
      <trkpt lat="52.77248" lon="5.82494">
        <ele>34.301951</ele>
        <time>2024-07-07T06:54:45.921Z</time>
      </trkpt>
      <trkpt lat="52.77259" lon="5.82494">
        <ele>34.460409</ele>
        <time>2024-07-07T06:54:47.940Z</time>
      </trkpt>
      <trkpt lat="52.77269" lon="5.82499">
        <ele>34.611681</ele>
        <time>2024-07-07T06:54:50.925Z</time>
      </trkpt>
      <trkpt lat="52.77279" lon="5.82505">
        <ele>34.87546</ele>
        <time>2024-07-07T06:54:53.936Z</time>
      </trkpt>
      <trkpt lat="52.77289" lon="5.82511">
        <ele>35.169895</ele>
        <time>2024-07-07T06:54:56.936Z</time>
      </trkpt>
      <trkpt lat="52.773" lon="5.82517">
        <ele>35.483553</ele>
        <time>2024-07-07T06:54:59.942Z</time>
      </trkpt>
      <trkpt lat="52.77311" lon="5.82525">
        <ele>35.80366</ele>
        <time>2024-07-07T06:55:02.913Z</time>
      </trkpt>
      <trkpt lat="52.7732" lon="5.82531">
        <ele>36.069204</ele>
        <time>2024-07-07T06:55:04.949Z</time>
      </trkpt>
      <trkpt lat="52.77332" lon="5.82538">
        <ele>36.417459</ele>
        <time>2024-07-07T06:55:06.940Z</time>
      </trkpt>
      <trkpt lat="52.77343" lon="5.82537">
        <ele>36.708507</ele>
        <time>2024-07-07T06:55:09.922Z</time>
      </trkpt>
      <trkpt lat="52.77354" lon="5.82521">
        <ele>37.097989</ele>
        <time>2024-07-07T06:55:12.926Z</time>
      </trkpt>
      <trkpt lat="52.7736" lon="5.82509">
        <ele>37.373896</ele>
        <time>2024-07-07T06:55:14.927Z</time>
      </trkpt>
      <trkpt lat="52.77366" lon="5.82496">
        <ele>37.631015</ele>
        <time>2024-07-07T06:55:16.949Z</time>
      </trkpt>
      <trkpt lat="52.77373" lon="5.8248">
        <ele>37.962441</ele>
        <time>2024-07-07T06:55:19.924Z</time>
      </trkpt>
      <trkpt lat="52.77378" lon="5.82467">
        <ele>38.208531</ele>
        <time>2024-07-07T06:55:21.933Z</time>
      </trkpt>
      <trkpt lat="52.77386" lon="5.82451">
        <ele>38.553928</ele>
        <time>2024-07-07T06:55:24.919Z</time>
      </trkpt>
      <trkpt lat="52.77394" lon="5.82432">
        <ele>38.921435</ele>
        <time>2024-07-07T06:55:27.917Z</time>
      </trkpt>
      <trkpt lat="52.77401" lon="5.82414">
        <ele>39.280038</ele>
        <time>2024-07-07T06:55:30.944Z</time>
      </trkpt>
      <trkpt lat="52.77408" lon="5.82397">
        <ele>39.572239</ele>
        <time>2024-07-07T06:55:33.943Z</time>
      </trkpt>
      <trkpt lat="52.77414" lon="5.82384">
        <ele>39.674372</ele>
        <time>2024-07-07T06:55:35.931Z</time>
      </trkpt>
      <trkpt lat="52.7742" lon="5.82371">
        <ele>39.780763</ele>
        <time>2024-07-07T06:55:37.935Z</time>
      </trkpt>
      <trkpt lat="52.77425" lon="5.82358">
        <ele>39.879861</ele>
        <time>2024-07-07T06:55:39.934Z</time>
      </trkpt>
      <trkpt lat="52.7743" lon="5.82346">
        <ele>39.978893</ele>
        <time>2024-07-07T06:55:41.961Z</time>
      </trkpt>
      <trkpt lat="52.77438" lon="5.82327">
        <ele>40.126198</ele>
        <time>2024-07-07T06:55:44.933Z</time>
      </trkpt>
      <trkpt lat="52.77442" lon="5.82314">
        <ele>40.224648</ele>
        <time>2024-07-07T06:55:46.955Z</time>
      </trkpt>
      <trkpt lat="52.77449" lon="5.82295">
        <ele>40.369978</ele>
        <time>2024-07-07T06:55:49.938Z</time>
      </trkpt>
      <trkpt lat="52.77454" lon="5.82282">
        <ele>40.470155</ele>
        <time>2024-07-07T06:55:51.933Z</time>
      </trkpt>
      <trkpt lat="52.7746" lon="5.82269">
        <ele>40.573874</ele>
        <time>2024-07-07T06:55:53.953Z</time>
      </trkpt>
      <trkpt lat="52.77465" lon="5.82256">
        <ele>40.677365</ele>
        <time>2024-07-07T06:55:55.935Z</time>
      </trkpt>
      <trkpt lat="52.77471" lon="5.82243">
        <ele>40.782485</ele>
        <time>2024-07-07T06:55:57.936Z</time>
      </trkpt>
      <trkpt lat="52.77479" lon="5.82227">
        <ele>40.921975</ele>
        <time>2024-07-07T06:56:00.935Z</time>
      </trkpt>
      <trkpt lat="52.77487" lon="5.82209">
        <ele>41.064611</ele>
        <time>2024-07-07T06:56:03.919Z</time>
      </trkpt>
      <trkpt lat="52.77495" lon="5.82191">
        <ele>41.209544</ele>
        <time>2024-07-07T06:56:06.946Z</time>
      </trkpt>
      <trkpt lat="52.775" lon="5.82179">
        <ele>41.307241</ele>
        <time>2024-07-07T06:56:08.922Z</time>
      </trkpt>
      <trkpt lat="52.77507" lon="5.82161">
        <ele>41.445867</ele>
        <time>2024-07-07T06:56:11.914Z</time>
      </trkpt>
      <trkpt lat="52.77513" lon="5.82143">
        <ele>41.485639</ele>
        <time>2024-07-07T06:56:14.934Z</time>
      </trkpt>
      <trkpt lat="52.77521" lon="5.82125">
        <ele>41.501228</ele>
        <time>2024-07-07T06:56:17.937Z</time>
      </trkpt>
      <trkpt lat="52.77526" lon="5.82113">
        <ele>41.512328</ele>
        <time>2024-07-07T06:56:19.933Z</time>
      </trkpt>
      <trkpt lat="52.77531" lon="5.821">
        <ele>41.5233</ele>
        <time>2024-07-07T06:56:21.962Z</time>
      </trkpt>
      <trkpt lat="52.77538" lon="5.82082">
        <ele>41.539446</ele>
        <time>2024-07-07T06:56:24.931Z</time>
      </trkpt>
      <trkpt lat="52.77543" lon="5.82069">
        <ele>41.55063</ele>
        <time>2024-07-07T06:56:26.943Z</time>
      </trkpt>
      <trkpt lat="52.77549" lon="5.82057">
        <ele>41.561837</ele>
        <time>2024-07-07T06:56:28.926Z</time>
      </trkpt>
      <trkpt lat="52.77554" lon="5.82045">
        <ele>41.572869</ele>
        <time>2024-07-07T06:56:30.932Z</time>
      </trkpt>
      <trkpt lat="52.77562" lon="5.82027">
        <ele>41.588907</ele>
        <time>2024-07-07T06:56:33.910Z</time>
      </trkpt>
      <trkpt lat="52.77567" lon="5.82015">
        <ele>41.599961</ele>
        <time>2024-07-07T06:56:35.925Z</time>
      </trkpt>
      <trkpt lat="52.77574" lon="5.81997">
        <ele>41.616243</ele>
        <time>2024-07-07T06:56:38.921Z</time>
      </trkpt>
      <trkpt lat="52.77582" lon="5.81979">
        <ele>41.632532</ele>
        <time>2024-07-07T06:56:41.934Z</time>
      </trkpt>
      <trkpt lat="52.77588" lon="5.81967">
        <ele>41.643887</ele>
        <time>2024-07-07T06:56:43.934Z</time>
      </trkpt>
      <trkpt lat="52.77594" lon="5.81954">
        <ele>41.655642</ele>
        <time>2024-07-07T06:56:45.932Z</time>
      </trkpt>
      <trkpt lat="52.77599" lon="5.81941">
        <ele>41.667327</ele>
        <time>2024-07-07T06:56:47.934Z</time>
      </trkpt>
      <trkpt lat="52.77604" lon="5.81927">
        <ele>41.679618</ele>
        <time>2024-07-07T06:56:49.954Z</time>
      </trkpt>
      <trkpt lat="52.77609" lon="5.81912">
        <ele>41.69137</ele>
        <time>2024-07-07T06:56:51.931Z</time>
      </trkpt>
      <trkpt lat="52.77614" lon="5.81899">
        <ele>41.750568</ele>
        <time>2024-07-07T06:56:53.936Z</time>
      </trkpt>
      <trkpt lat="52.77619" lon="5.81886">
        <ele>41.813592</ele>
        <time>2024-07-07T06:56:55.936Z</time>
      </trkpt>
      <trkpt lat="52.77626" lon="5.81868">
        <ele>41.902809</ele>
        <time>2024-07-07T06:56:58.928Z</time>
      </trkpt>
      <trkpt lat="52.77631" lon="5.81855">
        <ele>41.964147</ele>
        <time>2024-07-07T06:57:00.956Z</time>
      </trkpt>
      <trkpt lat="52.77637" lon="5.81843">
        <ele>42.023871</ele>
        <time>2024-07-07T06:57:02.932Z</time>
      </trkpt>
      <trkpt lat="52.77641" lon="5.8183">
        <ele>42.08414</ele>
        <time>2024-07-07T06:57:04.934Z</time>
      </trkpt>
      <trkpt lat="52.77646" lon="5.81816">
        <ele>42.146163</ele>
        <time>2024-07-07T06:57:06.949Z</time>
      </trkpt>
      <trkpt lat="52.77651" lon="5.81804">
        <ele>42.20934</ele>
        <time>2024-07-07T06:57:08.940Z</time>
      </trkpt>
      <trkpt lat="52.77659" lon="5.81787">
        <ele>42.295689</ele>
        <time>2024-07-07T06:57:11.939Z</time>
      </trkpt>
      <trkpt lat="52.77665" lon="5.81775">
        <ele>42.35781</ele>
        <time>2024-07-07T06:57:13.959Z</time>
      </trkpt>
      <trkpt lat="52.77673" lon="5.81757">
        <ele>42.447039</ele>
        <time>2024-07-07T06:57:16.926Z</time>
      </trkpt>
      <trkpt lat="52.77681" lon="5.81738">
        <ele>42.538984</ele>
        <time>2024-07-07T06:57:19.933Z</time>
      </trkpt>
      <trkpt lat="52.77687" lon="5.81724">
        <ele>42.606867</ele>
        <time>2024-07-07T06:57:21.926Z</time>
      </trkpt>
      <trkpt lat="52.77693" lon="5.81711">
        <ele>42.673824</ele>
        <time>2024-07-07T06:57:23.949Z</time>
      </trkpt>
      <trkpt lat="52.77698" lon="5.81697">
        <ele>42.739938</ele>
        <time>2024-07-07T06:57:25.934Z</time>
      </trkpt>
      <trkpt lat="52.77703" lon="5.81685">
        <ele>42.80065</ele>
        <time>2024-07-07T06:57:27.944Z</time>
      </trkpt>
      <trkpt lat="52.7771" lon="5.81667">
        <ele>42.886416</ele>
        <time>2024-07-07T06:57:30.954Z</time>
      </trkpt>
      <trkpt lat="52.77715" lon="5.81654">
        <ele>42.839298</ele>
        <time>2024-07-07T06:57:32.957Z</time>
      </trkpt>
      <trkpt lat="52.77721" lon="5.81642">
        <ele>42.787502</ele>
        <time>2024-07-07T06:57:34.937Z</time>
      </trkpt>
      <trkpt lat="52.77726" lon="5.81629">
        <ele>42.735427</ele>
        <time>2024-07-07T06:57:36.945Z</time>
      </trkpt>
      <trkpt lat="52.77734" lon="5.81611">
        <ele>42.659466</ele>
        <time>2024-07-07T06:57:39.927Z</time>
      </trkpt>
      <trkpt lat="52.77741" lon="5.81593">
        <ele>42.584145</ele>
        <time>2024-07-07T06:57:42.931Z</time>
      </trkpt>
      <trkpt lat="52.7775" lon="5.81576">
        <ele>42.511849</ele>
        <time>2024-07-07T06:57:45.935Z</time>
      </trkpt>
      <trkpt lat="52.77758" lon="5.81559">
        <ele>42.437756</ele>
        <time>2024-07-07T06:57:48.951Z</time>
      </trkpt>
      <trkpt lat="52.77766" lon="5.81541">
        <ele>42.363056</ele>
        <time>2024-07-07T06:57:51.948Z</time>
      </trkpt>
      <trkpt lat="52.77775" lon="5.81525">
        <ele>42.286537</ele>
        <time>2024-07-07T06:57:54.937Z</time>
      </trkpt>
      <trkpt lat="52.77784" lon="5.8151">
        <ele>42.212673</ele>
        <time>2024-07-07T06:57:57.936Z</time>
      </trkpt>
      <trkpt lat="52.77794" lon="5.81495">
        <ele>42.136513</ele>
        <time>2024-07-07T06:58:00.926Z</time>
      </trkpt>
      <trkpt lat="52.77801" lon="5.81484">
        <ele>42.085008</ele>
        <time>2024-07-07T06:58:02.940Z</time>
      </trkpt>
      <trkpt lat="52.77808" lon="5.81475">
        <ele>42.033755</ele>
        <time>2024-07-07T06:58:04.929Z</time>
      </trkpt>
      <trkpt lat="52.77819" lon="5.81463">
        <ele>41.960456</ele>
        <time>2024-07-07T06:58:07.939Z</time>
      </trkpt>
      <trkpt lat="52.77828" lon="5.81455">
        <ele>41.905422</ele>
        <time>2024-07-07T06:58:09.939Z</time>
      </trkpt>
      <trkpt lat="52.77836" lon="5.81448">
        <ele>41.931955</ele>
        <time>2024-07-07T06:58:11.930Z</time>
      </trkpt>
      <trkpt lat="52.77844" lon="5.81441">
        <ele>42.03546</ele>
        <time>2024-07-07T06:58:13.912Z</time>
      </trkpt>
      <trkpt lat="52.77853" lon="5.81434">
        <ele>42.144507</ele>
        <time>2024-07-07T06:58:15.936Z</time>
      </trkpt>
      <trkpt lat="52.77862" lon="5.81427">
        <ele>42.249587</ele>
        <time>2024-07-07T06:58:17.930Z</time>
      </trkpt>
      <trkpt lat="52.77871" lon="5.81422">
        <ele>42.352711</ele>
        <time>2024-07-07T06:58:19.922Z</time>
      </trkpt>
      <trkpt lat="52.77881" lon="5.81417">
        <ele>42.465032</ele>
        <time>2024-07-07T06:58:21.926Z</time>
      </trkpt>
      <trkpt lat="52.7789" lon="5.81414">
        <ele>42.576889</ele>
        <time>2024-07-07T06:58:23.937Z</time>
      </trkpt>
      <trkpt lat="52.77901" lon="5.81411">
        <ele>42.69545</ele>
        <time>2024-07-07T06:58:25.923Z</time>
      </trkpt>
      <trkpt lat="52.77911" lon="5.81407">
        <ele>42.804076</ele>
        <time>2024-07-07T06:58:27.944Z</time>
      </trkpt>
      <trkpt lat="52.7792" lon="5.81406">
        <ele>42.911522</ele>
        <time>2024-07-07T06:58:29.941Z</time>
      </trkpt>
      <trkpt lat="52.7793" lon="5.81404">
        <ele>43.015943</ele>
        <time>2024-07-07T06:58:31.945Z</time>
      </trkpt>
      <trkpt lat="52.77943" lon="5.81402">
        <ele>43.163095</ele>
        <time>2024-07-07T06:58:34.931Z</time>
      </trkpt>
      <trkpt lat="52.77952" lon="5.81402">
        <ele>43.262412</ele>
        <time>2024-07-07T06:58:36.928Z</time>
      </trkpt>
      <trkpt lat="52.77964" lon="5.81401">
        <ele>43.393896</ele>
        <time>2024-07-07T06:58:39.941Z</time>
      </trkpt>
      <trkpt lat="52.77975" lon="5.81402">
        <ele>43.518619</ele>
        <time>2024-07-07T06:58:42.933Z</time>
      </trkpt>
      <trkpt lat="52.77988" lon="5.81402">
        <ele>43.659943</ele>
        <time>2024-07-07T06:58:45.937Z</time>
      </trkpt>
      <trkpt lat="52.78001" lon="5.81402">
        <ele>43.804506</ele>
        <time>2024-07-07T06:58:48.932Z</time>
      </trkpt>
      <trkpt lat="52.78014" lon="5.81403">
        <ele>43.884824</ele>
        <time>2024-07-07T06:58:51.933Z</time>
      </trkpt>
      <trkpt lat="52.78027" lon="5.81403">
        <ele>43.919038</ele>
        <time>2024-07-07T06:58:54.933Z</time>
      </trkpt>
      <trkpt lat="52.78041" lon="5.81403">
        <ele>43.954032</ele>
        <time>2024-07-07T06:58:57.937Z</time>
      </trkpt>
      <trkpt lat="52.7805" lon="5.81403">
        <ele>43.978769</ele>
        <time>2024-07-07T06:58:59.933Z</time>
      </trkpt>
      <trkpt lat="52.78059" lon="5.81404">
        <ele>44.003</ele>
        <time>2024-07-07T06:59:01.931Z</time>
      </trkpt>
      <trkpt lat="52.78069" lon="5.81404">
        <ele>44.028</ele>
        <time>2024-07-07T06:59:03.940Z</time>
      </trkpt>
      <trkpt lat="52.78078" lon="5.81404">
        <ele>44.053259</ele>
        <time>2024-07-07T06:59:05.920Z</time>
      </trkpt>
      <trkpt lat="52.78088" lon="5.81404">
        <ele>44.078</ele>
        <time>2024-07-07T06:59:07.944Z</time>
      </trkpt>
      <trkpt lat="52.78098" lon="5.81404">
        <ele>44.105364</ele>
        <time>2024-07-07T06:59:09.938Z</time>
      </trkpt>
      <trkpt lat="52.78108" lon="5.81405">
        <ele>44.130663</ele>
        <time>2024-07-07T06:59:11.942Z</time>
      </trkpt>
      <trkpt lat="52.78118" lon="5.81404">
        <ele>44.156728</ele>
        <time>2024-07-07T06:59:13.950Z</time>
      </trkpt>
      <trkpt lat="52.78127" lon="5.81405">
        <ele>44.18225</ele>
        <time>2024-07-07T06:59:15.936Z</time>
      </trkpt>
      <trkpt lat="52.78137" lon="5.81405">
        <ele>44.208563</ele>
        <time>2024-07-07T06:59:17.938Z</time>
      </trkpt>
      <trkpt lat="52.78147" lon="5.81405">
        <ele>44.234611</ele>
        <time>2024-07-07T06:59:19.929Z</time>
      </trkpt>
      <trkpt lat="52.78161" lon="5.81406">
        <ele>44.269627</ele>
        <time>2024-07-07T06:59:22.941Z</time>
      </trkpt>
      <trkpt lat="52.78174" lon="5.81406">
        <ele>44.304125</ele>
        <time>2024-07-07T06:59:25.945Z</time>
      </trkpt>
      <trkpt lat="52.78183" lon="5.81407">
        <ele>44.328072</ele>
        <time>2024-07-07T06:59:27.937Z</time>
      </trkpt>
      <trkpt lat="52.78192" lon="5.81407">
        <ele>44.312351</ele>
        <time>2024-07-07T06:59:29.957Z</time>
      </trkpt>
      <trkpt lat="52.78201" lon="5.81407">
        <ele>44.272597</ele>
        <time>2024-07-07T06:59:31.936Z</time>
      </trkpt>
      <trkpt lat="52.78211" lon="5.81407">
        <ele>44.231096</ele>
        <time>2024-07-07T06:59:33.939Z</time>
      </trkpt>
      <trkpt lat="52.7822" lon="5.81407">
        <ele>44.189145</ele>
        <time>2024-07-07T06:59:35.932Z</time>
      </trkpt>
      <trkpt lat="52.7823" lon="5.81408">
        <ele>44.147638</ele>
        <time>2024-07-07T06:59:37.949Z</time>
      </trkpt>
      <trkpt lat="52.7824" lon="5.81407">
        <ele>44.104806</ele>
        <time>2024-07-07T06:59:39.937Z</time>
      </trkpt>
      <trkpt lat="52.78249" lon="5.81406">
        <ele>44.063244</ele>
        <time>2024-07-07T06:59:41.943Z</time>
      </trkpt>
      <trkpt lat="52.78259" lon="5.81406">
        <ele>44.019564</ele>
        <time>2024-07-07T06:59:43.937Z</time>
      </trkpt>
      <trkpt lat="52.78269" lon="5.81406">
        <ele>43.97676</ele>
        <time>2024-07-07T06:59:45.942Z</time>
      </trkpt>
      <trkpt lat="52.78279" lon="5.81407">
        <ele>43.933506</ele>
        <time>2024-07-07T06:59:47.922Z</time>
      </trkpt>
      <trkpt lat="52.78289" lon="5.81407">
        <ele>43.889816</ele>
        <time>2024-07-07T06:59:49.927Z</time>
      </trkpt>
      <trkpt lat="52.78299" lon="5.81407">
        <ele>43.847446</ele>
        <time>2024-07-07T06:59:51.927Z</time>
      </trkpt>
      <trkpt lat="52.78308" lon="5.81408">
        <ele>43.805476</ele>
        <time>2024-07-07T06:59:53.936Z</time>
      </trkpt>
      <trkpt lat="52.78317" lon="5.81407">
        <ele>43.764848</ele>
        <time>2024-07-07T06:59:55.945Z</time>
      </trkpt>
      <trkpt lat="52.78328" lon="5.81407">
        <ele>43.720722</ele>
        <time>2024-07-07T06:59:57.947Z</time>
      </trkpt>
      <trkpt lat="52.78337" lon="5.81407">
        <ele>43.678791</ele>
        <time>2024-07-07T06:59:59.928Z</time>
      </trkpt>
      <trkpt lat="52.78347" lon="5.81406">
        <ele>43.637693</ele>
        <time>2024-07-07T07:00:01.959Z</time>
      </trkpt>
      <trkpt lat="52.78356" lon="5.81406">
        <ele>43.596196</ele>
        <time>2024-07-07T07:00:03.945Z</time>
      </trkpt>
      <trkpt lat="52.78369" lon="5.81407">
        <ele>43.480117</ele>
        <time>2024-07-07T07:00:06.929Z</time>
      </trkpt>
      <trkpt lat="52.78382" lon="5.81407">
        <ele>43.189017</ele>
        <time>2024-07-07T07:00:09.956Z</time>
      </trkpt>
      <trkpt lat="52.78395" lon="5.81406">
        <ele>42.89085</ele>
        <time>2024-07-07T07:00:12.943Z</time>
      </trkpt>
      <trkpt lat="52.78408" lon="5.81407">
        <ele>42.599779</ele>
        <time>2024-07-07T07:00:15.951Z</time>
      </trkpt>
      <trkpt lat="52.78421" lon="5.81407">
        <ele>42.324547</ele>
        <time>2024-07-07T07:00:18.929Z</time>
      </trkpt>
      <trkpt lat="52.78432" lon="5.81407">
        <ele>42.06482</ele>
        <time>2024-07-07T07:00:21.913Z</time>
      </trkpt>
      <trkpt lat="52.78442" lon="5.81401">
        <ele>41.826598</ele>
        <time>2024-07-07T07:00:24.934Z</time>
      </trkpt>
      <trkpt lat="52.78446" lon="5.81385">
        <ele>41.597129</ele>
        <time>2024-07-07T07:00:27.929Z</time>
      </trkpt>
      <trkpt lat="52.78452" lon="5.81373">
        <ele>41.385327</ele>
        <time>2024-07-07T07:00:31.940Z</time>
      </trkpt>
      <trkpt lat="52.78462" lon="5.8138">
        <ele>41.13191</ele>
        <time>2024-07-07T07:00:35.926Z</time>
      </trkpt>
      <trkpt lat="52.78468" lon="5.81393">
        <ele>40.910949</ele>
        <time>2024-07-07T07:00:38.931Z</time>
      </trkpt>
      <trkpt lat="52.78475" lon="5.81409">
        <ele>40.643012</ele>
        <time>2024-07-07T07:00:41.929Z</time>
      </trkpt>
      <trkpt lat="52.78482" lon="5.81425">
        <ele>40.368934</ele>
        <time>2024-07-07T07:00:44.934Z</time>
      </trkpt>
      <trkpt lat="52.78487" lon="5.8144">
        <ele>40.143266</ele>
        <time>2024-07-07T07:00:48.932Z</time>
      </trkpt>
      <trkpt lat="52.78492" lon="5.8146">
        <ele>39.840679</ele>
        <time>2024-07-07T07:01:44.922Z</time>
      </trkpt>
      <trkpt lat="52.78499" lon="5.81474">
        <ele>39.594514</ele>
        <time>2024-07-07T07:01:49.919Z</time>
      </trkpt>
      <trkpt lat="52.78506" lon="5.81484">
        <ele>39.589572</ele>
        <time>2024-07-07T07:01:52.948Z</time>
      </trkpt>
      <trkpt lat="52.78513" lon="5.81494">
        <ele>39.770936</ele>
        <time>2024-07-07T07:01:55.942Z</time>
      </trkpt>
      <trkpt lat="52.78523" lon="5.81506">
        <ele>40.009711</ele>
        <time>2024-07-07T07:01:59.931Z</time>
      </trkpt>
      <trkpt lat="52.7853" lon="5.81515">
        <ele>40.194776</ele>
        <time>2024-07-07T07:02:02.942Z</time>
      </trkpt>
      <trkpt lat="52.78539" lon="5.81526">
        <ele>40.415858</ele>
        <time>2024-07-07T07:02:06.929Z</time>
      </trkpt>
      <trkpt lat="52.78547" lon="5.81534">
        <ele>40.596135</ele>
        <time>2024-07-07T07:02:09.939Z</time>
      </trkpt>
      <trkpt lat="52.78556" lon="5.81546">
        <ele>40.827308</ele>
        <time>2024-07-07T07:02:13.929Z</time>
      </trkpt>
      <trkpt lat="52.78565" lon="5.81556">
        <ele>41.030173</ele>
        <time>2024-07-07T07:02:16.930Z</time>
      </trkpt>
      <trkpt lat="52.78575" lon="5.81565">
        <ele>41.259688</ele>
        <time>2024-07-07T07:02:20.916Z</time>
      </trkpt>
      <trkpt lat="52.78583" lon="5.81574">
        <ele>41.465639</ele>
        <time>2024-07-07T07:02:23.943Z</time>
      </trkpt>
      <trkpt lat="52.78591" lon="5.81584">
        <ele>41.653672</ele>
        <time>2024-07-07T07:02:26.940Z</time>
      </trkpt>
      <trkpt lat="52.78599" lon="5.81594">
        <ele>41.853534</ele>
        <time>2024-07-07T07:02:29.939Z</time>
      </trkpt>
      <trkpt lat="52.78607" lon="5.81604">
        <ele>42.050397</ele>
        <time>2024-07-07T07:02:32.935Z</time>
      </trkpt>
      <trkpt lat="52.78617" lon="5.81611">
        <ele>42.26175</ele>
        <time>2024-07-07T07:02:36.925Z</time>
      </trkpt>
      <trkpt lat="52.78626" lon="5.81618">
        <ele>42.461801</ele>
        <time>2024-07-07T07:02:40.946Z</time>
      </trkpt>
      <trkpt lat="52.78636" lon="5.81633">
        <ele>42.73611</ele>
        <time>2024-07-07T07:05:40.922Z</time>
      </trkpt>
      <trkpt lat="52.78644" lon="5.81643">
        <ele>42.924469</ele>
        <time>2024-07-07T07:05:46.921Z</time>
      </trkpt>
      <trkpt lat="52.78652" lon="5.81652">
        <ele>43.091932</ele>
        <time>2024-07-07T07:05:49.918Z</time>
      </trkpt>
      <trkpt lat="52.7866" lon="5.8166">
        <ele>43.209346</ele>
        <time>2024-07-07T07:05:52.937Z</time>
      </trkpt>
      <trkpt lat="52.78668" lon="5.81669">
        <ele>43.342062</ele>
        <time>2024-07-07T07:05:55.944Z</time>
      </trkpt>
      <trkpt lat="52.78677" lon="5.81678">
        <ele>43.475877</ele>
        <time>2024-07-07T07:05:58.929Z</time>
      </trkpt>
      <trkpt lat="52.78686" lon="5.81688">
        <ele>43.61159</ele>
        <time>2024-07-07T07:06:01.945Z</time>
      </trkpt>
      <trkpt lat="52.78693" lon="5.817">
        <ele>43.743185</ele>
        <time>2024-07-07T07:06:04.919Z</time>
      </trkpt>
      <trkpt lat="52.78702" lon="5.81712">
        <ele>43.888802</ele>
        <time>2024-07-07T07:06:07.924Z</time>
      </trkpt>
      <trkpt lat="52.7871" lon="5.81726">
        <ele>44.037786</ele>
        <time>2024-07-07T07:06:10.927Z</time>
      </trkpt>
      <trkpt lat="52.78718" lon="5.81741">
        <ele>44.194351</ele>
        <time>2024-07-07T07:06:13.940Z</time>
      </trkpt>
      <trkpt lat="52.78726" lon="5.81756">
        <ele>44.355434</ele>
        <time>2024-07-07T07:06:16.947Z</time>
      </trkpt>
      <trkpt lat="52.78735" lon="5.81772">
        <ele>44.515355</ele>
        <time>2024-07-07T07:06:19.957Z</time>
      </trkpt>
      <trkpt lat="52.78744" lon="5.81787">
        <ele>44.680868</ele>
        <time>2024-07-07T07:06:22.936Z</time>
      </trkpt>
      <trkpt lat="52.78752" lon="5.81802">
        <ele>44.843961</ele>
        <time>2024-07-07T07:06:25.932Z</time>
      </trkpt>
      <trkpt lat="52.78758" lon="5.81814">
        <ele>44.964414</ele>
        <time>2024-07-07T07:06:27.924Z</time>
      </trkpt>
      <trkpt lat="52.78768" lon="5.81831">
        <ele>45.139895</ele>
        <time>2024-07-07T07:06:30.932Z</time>
      </trkpt>
      <trkpt lat="52.78774" lon="5.81847">
        <ele>45.295895</ele>
        <time>2024-07-07T07:06:33.942Z</time>
      </trkpt>
      <trkpt lat="52.78781" lon="5.81865">
        <ele>45.421246</ele>
        <time>2024-07-07T07:06:36.955Z</time>
      </trkpt>
      <trkpt lat="52.78789" lon="5.81882">
        <ele>45.524552</ele>
        <time>2024-07-07T07:06:39.933Z</time>
      </trkpt>
      <trkpt lat="52.78796" lon="5.81898">
        <ele>45.626251</ele>
        <time>2024-07-07T07:06:42.936Z</time>
      </trkpt>
      <trkpt lat="52.78805" lon="5.81915">
        <ele>45.735461</ele>
        <time>2024-07-07T07:06:45.936Z</time>
      </trkpt>
      <trkpt lat="52.78813" lon="5.81931">
        <ele>45.836022</ele>
        <time>2024-07-07T07:06:48.944Z</time>
      </trkpt>
      <trkpt lat="52.7882" lon="5.81947">
        <ele>45.936879</ele>
        <time>2024-07-07T07:06:51.921Z</time>
      </trkpt>
      <trkpt lat="52.78821" lon="5.81966">
        <ele>46.028896</ele>
        <time>2024-07-07T07:06:54.925Z</time>
      </trkpt>
      <trkpt lat="52.7882" lon="5.81983">
        <ele>46.114313</ele>
        <time>2024-07-07T07:06:58.923Z</time>
      </trkpt>
      <trkpt lat="52.78831" lon="5.81982">
        <ele>46.203798</ele>
        <time>2024-07-07T07:07:02.921Z</time>
      </trkpt>
      <trkpt lat="52.78841" lon="5.81978">
        <ele>46.287812</ele>
        <time>2024-07-07T07:07:05.940Z</time>
      </trkpt>
      <trkpt lat="52.78852" lon="5.81978">
        <ele>46.379478</ele>
        <time>2024-07-07T07:07:08.927Z</time>
      </trkpt>
      <trkpt lat="52.78864" lon="5.81979">
        <ele>46.477743</ele>
        <time>2024-07-07T07:07:11.937Z</time>
      </trkpt>
      <trkpt lat="52.78877" lon="5.81978">
        <ele>46.582514</ele>
        <time>2024-07-07T07:07:14.925Z</time>
      </trkpt>
      <trkpt lat="52.78891" lon="5.81978">
        <ele>46.68958</ele>
        <time>2024-07-07T07:07:17.935Z</time>
      </trkpt>
      <trkpt lat="52.78904" lon="5.81979">
        <ele>46.7967</ele>
        <time>2024-07-07T07:07:20.932Z</time>
      </trkpt>
      <trkpt lat="52.78917" lon="5.81978">
        <ele>46.850305</ele>
        <time>2024-07-07T07:07:23.936Z</time>
      </trkpt>
      <trkpt lat="52.78926" lon="5.81979">
        <ele>46.875873</ele>
        <time>2024-07-07T07:07:25.956Z</time>
      </trkpt>
      <trkpt lat="52.78936" lon="5.8198">
        <ele>46.902611</ele>
        <time>2024-07-07T07:07:27.948Z</time>
      </trkpt>
      <trkpt lat="52.78945" lon="5.81981">
        <ele>46.929338</ele>
        <time>2024-07-07T07:07:29.915Z</time>
      </trkpt>
      <trkpt lat="52.78955" lon="5.81982">
        <ele>46.956915</ele>
        <time>2024-07-07T07:07:31.930Z</time>
      </trkpt>
      <trkpt lat="52.78964" lon="5.81983">
        <ele>46.983408</ele>
        <time>2024-07-07T07:07:33.935Z</time>
      </trkpt>
      <trkpt lat="52.78974" lon="5.81983">
        <ele>47.010661</ele>
        <time>2024-07-07T07:07:35.946Z</time>
      </trkpt>
      <trkpt lat="52.78983" lon="5.81984">
        <ele>47.037662</ele>
        <time>2024-07-07T07:07:37.946Z</time>
      </trkpt>
      <trkpt lat="52.78992" lon="5.81985">
        <ele>47.06354</ele>
        <time>2024-07-07T07:07:39.934Z</time>
      </trkpt>
      <trkpt lat="52.79002" lon="5.81986">
        <ele>47.090006</ele>
        <time>2024-07-07T07:07:41.942Z</time>
      </trkpt>
      <trkpt lat="52.79011" lon="5.81987">
        <ele>47.118133</ele>
        <time>2024-07-07T07:07:43.950Z</time>
      </trkpt>
      <trkpt lat="52.79021" lon="5.81987">
        <ele>47.145386</ele>
        <time>2024-07-07T07:07:45.937Z</time>
      </trkpt>
      <trkpt lat="52.7903" lon="5.81987">
        <ele>47.171503</ele>
        <time>2024-07-07T07:07:47.936Z</time>
      </trkpt>
      <trkpt lat="52.7904" lon="5.81986">
        <ele>47.198206</ele>
        <time>2024-07-07T07:07:49.950Z</time>
      </trkpt>
      <trkpt lat="52.79049" lon="5.81985">
        <ele>47.225227</ele>
        <time>2024-07-07T07:07:51.938Z</time>
      </trkpt>
      <trkpt lat="52.79059" lon="5.81983">
        <ele>47.253235</ele>
        <time>2024-07-07T07:07:53.948Z</time>
      </trkpt>
      <trkpt lat="52.79069" lon="5.81982">
        <ele>47.28089</ele>
        <time>2024-07-07T07:07:55.946Z</time>
      </trkpt>
      <trkpt lat="52.79078" lon="5.8198">
        <ele>47.308119</ele>
        <time>2024-07-07T07:07:57.964Z</time>
      </trkpt>
      <trkpt lat="52.79089" lon="5.81978">
        <ele>47.331101</ele>
        <time>2024-07-07T07:07:59.943Z</time>
      </trkpt>
      <trkpt lat="52.79099" lon="5.81976">
        <ele>47.332482</ele>
        <time>2024-07-07T07:08:01.939Z</time>
      </trkpt>
      <trkpt lat="52.79109" lon="5.81974">
        <ele>47.333824</ele>
        <time>2024-07-07T07:08:03.957Z</time>
      </trkpt>
      <trkpt lat="52.79119" lon="5.81973">
        <ele>47.335191</ele>
        <time>2024-07-07T07:08:05.956Z</time>
      </trkpt>
      <trkpt lat="52.79129" lon="5.81971">
        <ele>47.336544</ele>
        <time>2024-07-07T07:08:07.937Z</time>
      </trkpt>
      <trkpt lat="52.7914" lon="5.81969">
        <ele>47.337977</ele>
        <time>2024-07-07T07:08:09.940Z</time>
      </trkpt>
      <trkpt lat="52.79151" lon="5.81968">
        <ele>47.339434</ele>
        <time>2024-07-07T07:08:11.955Z</time>
      </trkpt>
      <trkpt lat="52.79162" lon="5.81966">
        <ele>47.340925</ele>
        <time>2024-07-07T07:08:13.935Z</time>
      </trkpt>
      <trkpt lat="52.79173" lon="5.81964">
        <ele>47.342372</ele>
        <time>2024-07-07T07:08:15.935Z</time>
      </trkpt>
      <trkpt lat="52.79183" lon="5.81963">
        <ele>47.343804</ele>
        <time>2024-07-07T07:08:17.955Z</time>
      </trkpt>
      <trkpt lat="52.79194" lon="5.8196">
        <ele>47.345221</ele>
        <time>2024-07-07T07:08:19.920Z</time>
      </trkpt>
      <trkpt lat="52.79204" lon="5.81957">
        <ele>47.346651</ele>
        <time>2024-07-07T07:08:21.940Z</time>
      </trkpt>
      <trkpt lat="52.79215" lon="5.81955">
        <ele>47.34808</ele>
        <time>2024-07-07T07:08:23.945Z</time>
      </trkpt>
      <trkpt lat="52.79225" lon="5.81954">
        <ele>47.349471</ele>
        <time>2024-07-07T07:08:25.942Z</time>
      </trkpt>
      <trkpt lat="52.79236" lon="5.81951">
        <ele>47.35083</ele>
        <time>2024-07-07T07:08:27.941Z</time>
      </trkpt>
      <trkpt lat="52.79246" lon="5.81949">
        <ele>47.352261</ele>
        <time>2024-07-07T07:08:29.953Z</time>
      </trkpt>
      <trkpt lat="52.79257" lon="5.81947">
        <ele>47.353735</ele>
        <time>2024-07-07T07:08:31.950Z</time>
      </trkpt>
      <trkpt lat="52.79268" lon="5.81945">
        <ele>47.350186</ele>
        <time>2024-07-07T07:08:33.949Z</time>
      </trkpt>
      <trkpt lat="52.79278" lon="5.81943">
        <ele>47.334132</ele>
        <time>2024-07-07T07:08:35.955Z</time>
      </trkpt>
      <trkpt lat="52.79288" lon="5.81942">
        <ele>47.318282</ele>
        <time>2024-07-07T07:08:37.937Z</time>
      </trkpt>
      <trkpt lat="52.79299" lon="5.8194">
        <ele>47.301932</ele>
        <time>2024-07-07T07:08:39.934Z</time>
      </trkpt>
      <trkpt lat="52.7931" lon="5.81938">
        <ele>47.285704</ele>
        <time>2024-07-07T07:08:41.933Z</time>
      </trkpt>
      <trkpt lat="52.7932" lon="5.81936">
        <ele>47.269769</ele>
        <time>2024-07-07T07:08:43.946Z</time>
      </trkpt>
      <trkpt lat="52.79331" lon="5.81934">
        <ele>47.253224</ele>
        <time>2024-07-07T07:08:45.923Z</time>
      </trkpt>
      <trkpt lat="52.79341" lon="5.81932">
        <ele>47.237159</ele>
        <time>2024-07-07T07:08:47.943Z</time>
      </trkpt>
      <trkpt lat="52.79351" lon="5.8193">
        <ele>47.221744</ele>
        <time>2024-07-07T07:08:49.935Z</time>
      </trkpt>
      <trkpt lat="52.79361" lon="5.81929">
        <ele>47.205887</ele>
        <time>2024-07-07T07:08:51.923Z</time>
      </trkpt>
      <trkpt lat="52.79371" lon="5.81926">
        <ele>47.190724</ele>
        <time>2024-07-07T07:08:53.937Z</time>
      </trkpt>
      <trkpt lat="52.79381" lon="5.81925">
        <ele>47.175333</ele>
        <time>2024-07-07T07:08:55.947Z</time>
      </trkpt>
      <trkpt lat="52.79391" lon="5.81923">
        <ele>47.160052</ele>
        <time>2024-07-07T07:08:57.935Z</time>
      </trkpt>
      <trkpt lat="52.79401" lon="5.81921">
        <ele>47.144877</ele>
        <time>2024-07-07T07:08:59.925Z</time>
      </trkpt>
      <trkpt lat="52.79411" lon="5.81919">
        <ele>47.129562</ele>
        <time>2024-07-07T07:09:01.948Z</time>
      </trkpt>
      <trkpt lat="52.7942" lon="5.81917">
        <ele>47.114586</ele>
        <time>2024-07-07T07:09:03.934Z</time>
      </trkpt>
      <trkpt lat="52.79431" lon="5.81915">
        <ele>47.09865</ele>
        <time>2024-07-07T07:09:05.926Z</time>
      </trkpt>
      <trkpt lat="52.79441" lon="5.81913">
        <ele>47.083358</ele>
        <time>2024-07-07T07:09:07.955Z</time>
      </trkpt>
      <trkpt lat="52.7945" lon="5.81912">
        <ele>47.059029</ele>
        <time>2024-07-07T07:09:09.942Z</time>
      </trkpt>
      <trkpt lat="52.79461" lon="5.81909">
        <ele>47.028682</ele>
        <time>2024-07-07T07:09:11.938Z</time>
      </trkpt>
      <trkpt lat="52.79471" lon="5.81908">
        <ele>46.999033</ele>
        <time>2024-07-07T07:09:13.945Z</time>
      </trkpt>
      <trkpt lat="52.79482" lon="5.81906">
        <ele>46.969383</ele>
        <time>2024-07-07T07:09:15.936Z</time>
      </trkpt>
      <trkpt lat="52.79492" lon="5.81904">
        <ele>46.939246</ele>
        <time>2024-07-07T07:09:17.940Z</time>
      </trkpt>
      <trkpt lat="52.79503" lon="5.81902">
        <ele>46.909243</ele>
        <time>2024-07-07T07:09:19.938Z</time>
      </trkpt>
      <trkpt lat="52.79514" lon="5.819">
        <ele>46.878148</ele>
        <time>2024-07-07T07:09:21.921Z</time>
      </trkpt>
      <trkpt lat="52.79524" lon="5.81898">
        <ele>46.847976</ele>
        <time>2024-07-07T07:09:23.942Z</time>
      </trkpt>
      <trkpt lat="52.79535" lon="5.81898">
        <ele>46.817004</ele>
        <time>2024-07-07T07:09:25.923Z</time>
      </trkpt>
      <trkpt lat="52.79546" lon="5.81896">
        <ele>46.786192</ele>
        <time>2024-07-07T07:09:27.935Z</time>
      </trkpt>
      <trkpt lat="52.79557" lon="5.81894">
        <ele>46.755097</ele>
        <time>2024-07-07T07:09:29.924Z</time>
      </trkpt>
      <trkpt lat="52.79568" lon="5.81892">
        <ele>46.724002</ele>
        <time>2024-07-07T07:09:31.923Z</time>
      </trkpt>
      <trkpt lat="52.79579" lon="5.8189">
        <ele>46.693415</ele>
        <time>2024-07-07T07:09:33.964Z</time>
      </trkpt>
      <trkpt lat="52.79589" lon="5.81888">
        <ele>46.662337</ele>
        <time>2024-07-07T07:09:35.936Z</time>
      </trkpt>
      <trkpt lat="52.796" lon="5.81886">
        <ele>46.631488</ele>
        <time>2024-07-07T07:09:37.933Z</time>
      </trkpt>
      <trkpt lat="52.79611" lon="5.81885">
        <ele>46.600692</ele>
        <time>2024-07-07T07:09:39.931Z</time>
      </trkpt>
      <trkpt lat="52.79622" lon="5.81883">
        <ele>46.570195</ele>
        <time>2024-07-07T07:09:41.939Z</time>
      </trkpt>
      <trkpt lat="52.79632" lon="5.81882">
        <ele>46.55605</ele>
        <time>2024-07-07T07:09:43.929Z</time>
      </trkpt>
      <trkpt lat="52.79643" lon="5.81881">
        <ele>46.543293</ele>
        <time>2024-07-07T07:09:45.951Z</time>
      </trkpt>
      <trkpt lat="52.79653" lon="5.81879">
        <ele>46.531123</ele>
        <time>2024-07-07T07:09:47.932Z</time>
      </trkpt>
      <trkpt lat="52.79663" lon="5.81877">
        <ele>46.518946</ele>
        <time>2024-07-07T07:09:49.939Z</time>
      </trkpt>
      <trkpt lat="52.79673" lon="5.81876">
        <ele>46.506557</ele>
        <time>2024-07-07T07:09:51.938Z</time>
      </trkpt>
      <trkpt lat="52.79683" lon="5.81875">
        <ele>46.494494</ele>
        <time>2024-07-07T07:09:53.953Z</time>
      </trkpt>
      <trkpt lat="52.79694" lon="5.81873">
        <ele>46.481692</ele>
        <time>2024-07-07T07:09:55.936Z</time>
      </trkpt>
      <trkpt lat="52.79704" lon="5.81871">
        <ele>46.469039</ele>
        <time>2024-07-07T07:09:57.947Z</time>
      </trkpt>
      <trkpt lat="52.79715" lon="5.8187">
        <ele>46.456011</ele>
        <time>2024-07-07T07:09:59.949Z</time>
      </trkpt>
      <trkpt lat="52.79725" lon="5.81868">
        <ele>46.443726</ele>
        <time>2024-07-07T07:10:01.926Z</time>
      </trkpt>
      <trkpt lat="52.79735" lon="5.81867">
        <ele>46.431315</ele>
        <time>2024-07-07T07:10:03.929Z</time>
      </trkpt>
      <trkpt lat="52.79745" lon="5.81865">
        <ele>46.418745</ele>
        <time>2024-07-07T07:10:05.935Z</time>
      </trkpt>
      <trkpt lat="52.79756" lon="5.81863">
        <ele>46.40571</ele>
        <time>2024-07-07T07:10:07.948Z</time>
      </trkpt>
      <trkpt lat="52.79767" lon="5.81861">
        <ele>46.392447</ele>
        <time>2024-07-07T07:10:09.948Z</time>
      </trkpt>
      <trkpt lat="52.79778" lon="5.8186">
        <ele>46.379432</ele>
        <time>2024-07-07T07:10:11.948Z</time>
      </trkpt>
      <trkpt lat="52.79788" lon="5.81858">
        <ele>46.366501</ele>
        <time>2024-07-07T07:10:13.940Z</time>
      </trkpt>
      <trkpt lat="52.79799" lon="5.81855">
        <ele>46.353784</ele>
        <time>2024-07-07T07:10:15.939Z</time>
      </trkpt>
      <trkpt lat="52.79809" lon="5.81853">
        <ele>46.362396</ele>
        <time>2024-07-07T07:10:17.937Z</time>
      </trkpt>
      <trkpt lat="52.79819" lon="5.81851">
        <ele>46.377913</ele>
        <time>2024-07-07T07:10:19.937Z</time>
      </trkpt>
      <trkpt lat="52.79828" lon="5.81848">
        <ele>46.393829</ele>
        <time>2024-07-07T07:10:21.939Z</time>
      </trkpt>
      <trkpt lat="52.79838" lon="5.81845">
        <ele>46.409552</ele>
        <time>2024-07-07T07:10:23.926Z</time>
      </trkpt>
      <trkpt lat="52.79847" lon="5.81841">
        <ele>46.424705</ele>
        <time>2024-07-07T07:10:25.939Z</time>
      </trkpt>
      <trkpt lat="52.79857" lon="5.81838">
        <ele>46.440033</ele>
        <time>2024-07-07T07:10:27.945Z</time>
      </trkpt>
      <trkpt lat="52.79867" lon="5.81835">
        <ele>46.456494</ele>
        <time>2024-07-07T07:10:29.947Z</time>
      </trkpt>
      <trkpt lat="52.79877" lon="5.81831">
        <ele>46.47276</ele>
        <time>2024-07-07T07:10:31.928Z</time>
      </trkpt>
      <trkpt lat="52.79887" lon="5.81829">
        <ele>46.489366</ele>
        <time>2024-07-07T07:10:33.941Z</time>
      </trkpt>
      <trkpt lat="52.79898" lon="5.81826">
        <ele>46.507077</ele>
        <time>2024-07-07T07:10:35.951Z</time>
      </trkpt>
      <trkpt lat="52.79909" lon="5.81825">
        <ele>46.524039</ele>
        <time>2024-07-07T07:10:37.947Z</time>
      </trkpt>
      <trkpt lat="52.7992" lon="5.81824">
        <ele>46.541306</ele>
        <time>2024-07-07T07:10:39.930Z</time>
      </trkpt>
      <trkpt lat="52.7993" lon="5.81822">
        <ele>46.55842</ele>
        <time>2024-07-07T07:10:41.938Z</time>
      </trkpt>
      <trkpt lat="52.79941" lon="5.8182">
        <ele>46.575913</ele>
        <time>2024-07-07T07:10:43.937Z</time>
      </trkpt>
      <trkpt lat="52.79952" lon="5.8182">
        <ele>46.593481</ele>
        <time>2024-07-07T07:10:45.939Z</time>
      </trkpt>
      <trkpt lat="52.79963" lon="5.81818">
        <ele>46.611225</ele>
        <time>2024-07-07T07:10:47.919Z</time>
      </trkpt>
      <trkpt lat="52.79974" lon="5.81817">
        <ele>46.628816</ele>
        <time>2024-07-07T07:10:49.946Z</time>
      </trkpt>
      <trkpt lat="52.79985" lon="5.81816">
        <ele>46.646888</ele>
        <time>2024-07-07T07:10:51.944Z</time>
      </trkpt>
      <trkpt lat="52.79996" lon="5.81814">
        <ele>46.665275</ele>
        <time>2024-07-07T07:10:53.957Z</time>
      </trkpt>
      <trkpt lat="52.80007" lon="5.81812">
        <ele>46.683697</ele>
        <time>2024-07-07T07:10:55.935Z</time>
      </trkpt>
      <trkpt lat="52.80018" lon="5.8181">
        <ele>46.701354</ele>
        <time>2024-07-07T07:10:57.938Z</time>
      </trkpt>
      <trkpt lat="52.80028" lon="5.8181">
        <ele>46.719151</ele>
        <time>2024-07-07T07:10:59.942Z</time>
      </trkpt>
      <trkpt lat="52.80038" lon="5.81809">
        <ele>46.736287</ele>
        <time>2024-07-07T07:11:01.935Z</time>
      </trkpt>
      <trkpt lat="52.80049" lon="5.81808">
        <ele>46.753283</ele>
        <time>2024-07-07T07:11:03.945Z</time>
      </trkpt>
      <trkpt lat="52.80059" lon="5.81807">
        <ele>46.77007</ele>
        <time>2024-07-07T07:11:05.942Z</time>
      </trkpt>
      <trkpt lat="52.80069" lon="5.81806">
        <ele>46.787218</ele>
        <time>2024-07-07T07:11:07.947Z</time>
      </trkpt>
      <trkpt lat="52.80079" lon="5.81804">
        <ele>46.80423</ele>
        <time>2024-07-07T07:11:09.956Z</time>
      </trkpt>
      <trkpt lat="52.80089" lon="5.81803">
        <ele>46.821037</ele>
        <time>2024-07-07T07:11:11.953Z</time>
      </trkpt>
      <trkpt lat="52.80099" lon="5.81803">
        <ele>46.83816</ele>
        <time>2024-07-07T07:11:13.949Z</time>
      </trkpt>
      <trkpt lat="52.8011" lon="5.81801">
        <ele>46.856714</ele>
        <time>2024-07-07T07:11:15.937Z</time>
      </trkpt>
      <trkpt lat="52.8012" lon="5.818">
        <ele>46.874191</ele>
        <time>2024-07-07T07:11:17.946Z</time>
      </trkpt>
      <trkpt lat="52.80131" lon="5.81799">
        <ele>46.89152</ele>
        <time>2024-07-07T07:11:19.942Z</time>
      </trkpt>
      <trkpt lat="52.80141" lon="5.81797">
        <ele>46.909003</ele>
        <time>2024-07-07T07:11:21.936Z</time>
      </trkpt>
      <trkpt lat="52.80152" lon="5.81796">
        <ele>46.92717</ele>
        <time>2024-07-07T07:11:23.951Z</time>
      </trkpt>
      <trkpt lat="52.80163" lon="5.81795">
        <ele>46.944011</ele>
        <time>2024-07-07T07:11:25.939Z</time>
      </trkpt>
      <trkpt lat="52.80174" lon="5.81794">
        <ele>46.958605</ele>
        <time>2024-07-07T07:11:27.940Z</time>
      </trkpt>
      <trkpt lat="52.80185" lon="5.81793">
        <ele>46.973481</ele>
        <time>2024-07-07T07:11:29.936Z</time>
      </trkpt>
      <trkpt lat="52.80196" lon="5.81792">
        <ele>46.988197</ele>
        <time>2024-07-07T07:11:31.918Z</time>
      </trkpt>
      <trkpt lat="52.80207" lon="5.81791">
        <ele>47.002801</ele>
        <time>2024-07-07T07:11:33.949Z</time>
      </trkpt>
      <trkpt lat="52.80218" lon="5.81789">
        <ele>47.017556</ele>
        <time>2024-07-07T07:11:35.940Z</time>
      </trkpt>
      <trkpt lat="52.80229" lon="5.81788">
        <ele>47.0322</ele>
        <time>2024-07-07T07:11:37.936Z</time>
      </trkpt>
      <trkpt lat="52.80239" lon="5.81786">
        <ele>47.046836</ele>
        <time>2024-07-07T07:11:39.953Z</time>
      </trkpt>
      <trkpt lat="52.80251" lon="5.81785">
        <ele>47.061979</ele>
        <time>2024-07-07T07:11:41.940Z</time>
      </trkpt>
      <trkpt lat="52.80261" lon="5.81783">
        <ele>47.075788</ele>
        <time>2024-07-07T07:11:43.947Z</time>
      </trkpt>
      <trkpt lat="52.80272" lon="5.81783">
        <ele>47.089964</ele>
        <time>2024-07-07T07:11:45.935Z</time>
      </trkpt>
      <trkpt lat="52.80282" lon="5.81782">
        <ele>47.104029</ele>
        <time>2024-07-07T07:11:47.933Z</time>
      </trkpt>
      <trkpt lat="52.80292" lon="5.81781">
        <ele>47.117534</ele>
        <time>2024-07-07T07:11:49.939Z</time>
      </trkpt>
      <trkpt lat="52.80303" lon="5.8178">
        <ele>47.131871</ele>
        <time>2024-07-07T07:11:51.930Z</time>
      </trkpt>
      <trkpt lat="52.80314" lon="5.81779">
        <ele>47.146064</ele>
        <time>2024-07-07T07:11:53.944Z</time>
      </trkpt>
      <trkpt lat="52.80324" lon="5.81778">
        <ele>47.160129</ele>
        <time>2024-07-07T07:11:55.938Z</time>
      </trkpt>
      <trkpt lat="52.80335" lon="5.81777">
        <ele>47.174185</ele>
        <time>2024-07-07T07:11:57.943Z</time>
      </trkpt>
      <trkpt lat="52.80345" lon="5.81776">
        <ele>47.178068</ele>
        <time>2024-07-07T07:11:59.947Z</time>
      </trkpt>
      <trkpt lat="52.80355" lon="5.81774">
        <ele>47.176147</ele>
        <time>2024-07-07T07:12:01.930Z</time>
      </trkpt>
      <trkpt lat="52.80366" lon="5.81773">
        <ele>47.17413</ele>
        <time>2024-07-07T07:12:03.936Z</time>
      </trkpt>
      <trkpt lat="52.80376" lon="5.81772">
        <ele>47.172082</ele>
        <time>2024-07-07T07:12:05.924Z</time>
      </trkpt>
      <trkpt lat="52.80387" lon="5.81771">
        <ele>47.170032</ele>
        <time>2024-07-07T07:12:07.937Z</time>
      </trkpt>
      <trkpt lat="52.80398" lon="5.81769">
        <ele>47.167907</ele>
        <time>2024-07-07T07:12:09.947Z</time>
      </trkpt>
      <trkpt lat="52.80409" lon="5.81769">
        <ele>47.165859</ele>
        <time>2024-07-07T07:12:11.937Z</time>
      </trkpt>
      <trkpt lat="52.8042" lon="5.81767">
        <ele>47.163769</ele>
        <time>2024-07-07T07:12:13.943Z</time>
      </trkpt>
      <trkpt lat="52.80431" lon="5.81766">
        <ele>47.161664</ele>
        <time>2024-07-07T07:12:15.938Z</time>
      </trkpt>
      <trkpt lat="52.80442" lon="5.81765">
        <ele>47.159558</ele>
        <time>2024-07-07T07:12:17.943Z</time>
      </trkpt>
      <trkpt lat="52.80454" lon="5.81765">
        <ele>47.157418</ele>
        <time>2024-07-07T07:12:19.941Z</time>
      </trkpt>
      <trkpt lat="52.80465" lon="5.81764">
        <ele>47.155294</ele>
        <time>2024-07-07T07:12:21.945Z</time>
      </trkpt>
      <trkpt lat="52.80476" lon="5.81763">
        <ele>47.15315</ele>
        <time>2024-07-07T07:12:23.938Z</time>
      </trkpt>
      <trkpt lat="52.80488" lon="5.81762">
        <ele>47.15099</ele>
        <time>2024-07-07T07:12:25.941Z</time>
      </trkpt>
      <trkpt lat="52.80499" lon="5.81762">
        <ele>47.148867</ele>
        <time>2024-07-07T07:12:27.940Z</time>
      </trkpt>
      <trkpt lat="52.8051" lon="5.81761">
        <ele>47.146744</ele>
        <time>2024-07-07T07:12:29.945Z</time>
      </trkpt>
      <trkpt lat="52.80521" lon="5.81761">
        <ele>47.144451</ele>
        <time>2024-07-07T07:12:31.951Z</time>
      </trkpt>
      <trkpt lat="52.80532" lon="5.8176">
        <ele>47.141576</ele>
        <time>2024-07-07T07:12:33.934Z</time>
      </trkpt>
      <trkpt lat="52.80543" lon="5.81758">
        <ele>47.138793</ele>
        <time>2024-07-07T07:12:35.935Z</time>
      </trkpt>
      <trkpt lat="52.80554" lon="5.81756">
        <ele>47.135876</ele>
        <time>2024-07-07T07:12:37.942Z</time>
      </trkpt>
      <trkpt lat="52.80566" lon="5.81754">
        <ele>47.13291</ele>
        <time>2024-07-07T07:12:39.936Z</time>
      </trkpt>
      <trkpt lat="52.80577" lon="5.81751">
        <ele>47.130004</ele>
        <time>2024-07-07T07:12:41.955Z</time>
      </trkpt>
      <trkpt lat="52.80588" lon="5.81749">
        <ele>47.127242</ele>
        <time>2024-07-07T07:12:43.950Z</time>
      </trkpt>
      <trkpt lat="52.80598" lon="5.81747">
        <ele>47.124505</ele>
        <time>2024-07-07T07:12:45.940Z</time>
      </trkpt>
      <trkpt lat="52.80609" lon="5.81746">
        <ele>47.12175</ele>
        <time>2024-07-07T07:12:47.935Z</time>
      </trkpt>
      <trkpt lat="52.8062" lon="5.81745">
        <ele>47.118951</ele>
        <time>2024-07-07T07:12:49.949Z</time>
      </trkpt>
      <trkpt lat="52.80631" lon="5.81744">
        <ele>47.116199</ele>
        <time>2024-07-07T07:12:51.940Z</time>
      </trkpt>
      <trkpt lat="52.80642" lon="5.81742">
        <ele>47.113372</ele>
        <time>2024-07-07T07:12:53.941Z</time>
      </trkpt>
      <trkpt lat="52.80653" lon="5.81741">
        <ele>47.11054</ele>
        <time>2024-07-07T07:12:55.931Z</time>
      </trkpt>
      <trkpt lat="52.80664" lon="5.8174">
        <ele>47.107715</ele>
        <time>2024-07-07T07:12:57.948Z</time>
      </trkpt>
      <trkpt lat="52.80675" lon="5.81739">
        <ele>47.104912</ele>
        <time>2024-07-07T07:12:59.943Z</time>
      </trkpt>
      <trkpt lat="52.80686" lon="5.81737">
        <ele>47.102032</ele>
        <time>2024-07-07T07:13:01.935Z</time>
      </trkpt>
      <trkpt lat="52.80696" lon="5.81736">
        <ele>47.099276</ele>
        <time>2024-07-07T07:13:03.942Z</time>
      </trkpt>
      <trkpt lat="52.80707" lon="5.81734">
        <ele>47.090129</ele>
        <time>2024-07-07T07:13:05.949Z</time>
      </trkpt>
      <trkpt lat="52.80718" lon="5.81732">
        <ele>47.080606</ele>
        <time>2024-07-07T07:13:07.948Z</time>
      </trkpt>
      <trkpt lat="52.80729" lon="5.81731">
        <ele>47.071261</ele>
        <time>2024-07-07T07:13:09.934Z</time>
      </trkpt>
      <trkpt lat="52.8074" lon="5.8173">
        <ele>47.061837</ele>
        <time>2024-07-07T07:13:11.917Z</time>
      </trkpt>
      <trkpt lat="52.8075" lon="5.81729">
        <ele>47.052518</ele>
        <time>2024-07-07T07:13:13.958Z</time>
      </trkpt>
      <trkpt lat="52.80761" lon="5.81728">
        <ele>47.042938</ele>
        <time>2024-07-07T07:13:15.952Z</time>
      </trkpt>
      <trkpt lat="52.80772" lon="5.81727">
        <ele>47.033521</ele>
        <time>2024-07-07T07:13:17.952Z</time>
      </trkpt>
      <trkpt lat="52.80783" lon="5.81726">
        <ele>47.023847</ele>
        <time>2024-07-07T07:13:19.953Z</time>
      </trkpt>
      <trkpt lat="52.80794" lon="5.81725">
        <ele>47.014702</ele>
        <time>2024-07-07T07:13:21.938Z</time>
      </trkpt>
      <trkpt lat="52.80804" lon="5.81724">
        <ele>47.005986</ele>
        <time>2024-07-07T07:13:23.934Z</time>
      </trkpt>
      <trkpt lat="52.80814" lon="5.81723">
        <ele>46.997151</ele>
        <time>2024-07-07T07:13:25.961Z</time>
      </trkpt>
      <trkpt lat="52.80824" lon="5.81719">
        <ele>46.988011</ele>
        <time>2024-07-07T07:13:27.942Z</time>
      </trkpt>
      <trkpt lat="52.80834" lon="5.81711">
        <ele>46.978344</ele>
        <time>2024-07-07T07:13:29.935Z</time>
      </trkpt>
      <trkpt lat="52.80842" lon="5.817">
        <ele>46.969123</ele>
        <time>2024-07-07T07:13:31.940Z</time>
      </trkpt>
      <trkpt lat="52.8085" lon="5.81687">
        <ele>46.959239</ele>
        <time>2024-07-07T07:13:33.954Z</time>
      </trkpt>
      <trkpt lat="52.80857" lon="5.81672">
        <ele>46.949501</ele>
        <time>2024-07-07T07:13:35.938Z</time>
      </trkpt>
      <trkpt lat="52.80863" lon="5.81658">
        <ele>46.946719</ele>
        <time>2024-07-07T07:13:37.938Z</time>
      </trkpt>
      <trkpt lat="52.80869" lon="5.81644">
        <ele>46.964608</ele>
        <time>2024-07-07T07:13:39.915Z</time>
      </trkpt>
      <trkpt lat="52.80875" lon="5.81631">
        <ele>46.981845</ele>
        <time>2024-07-07T07:13:41.945Z</time>
      </trkpt>
      <trkpt lat="52.80881" lon="5.81617">
        <ele>46.998595</ele>
        <time>2024-07-07T07:13:43.945Z</time>
      </trkpt>
      <trkpt lat="52.80887" lon="5.81604">
        <ele>47.015611</ele>
        <time>2024-07-07T07:13:45.953Z</time>
      </trkpt>
      <trkpt lat="52.80893" lon="5.81592">
        <ele>47.032257</ele>
        <time>2024-07-07T07:13:47.948Z</time>
      </trkpt>
      <trkpt lat="52.809" lon="5.81579">
        <ele>47.049495</ele>
        <time>2024-07-07T07:13:49.943Z</time>
      </trkpt>
      <trkpt lat="52.80905" lon="5.81566">
        <ele>47.065929</ele>
        <time>2024-07-07T07:13:51.926Z</time>
      </trkpt>
      <trkpt lat="52.80912" lon="5.81553">
        <ele>47.083434</ele>
        <time>2024-07-07T07:13:53.954Z</time>
      </trkpt>
      <trkpt lat="52.80917" lon="5.81539">
        <ele>47.100635</ele>
        <time>2024-07-07T07:13:55.935Z</time>
      </trkpt>
      <trkpt lat="52.80923" lon="5.81525">
        <ele>47.117904</ele>
        <time>2024-07-07T07:13:57.940Z</time>
      </trkpt>
      <trkpt lat="52.80929" lon="5.81513">
        <ele>47.134442</ele>
        <time>2024-07-07T07:13:59.937Z</time>
      </trkpt>
      <trkpt lat="52.80935" lon="5.815">
        <ele>47.15091</ele>
        <time>2024-07-07T07:14:01.915Z</time>
      </trkpt>
      <trkpt lat="52.80941" lon="5.81487">
        <ele>47.167765</ele>
        <time>2024-07-07T07:14:03.942Z</time>
      </trkpt>
      <trkpt lat="52.80946" lon="5.81474">
        <ele>47.183966</ele>
        <time>2024-07-07T07:14:05.949Z</time>
      </trkpt>
      <trkpt lat="52.80952" lon="5.81461">
        <ele>47.200197</ele>
        <time>2024-07-07T07:14:07.921Z</time>
      </trkpt>
      <trkpt lat="52.80958" lon="5.81449">
        <ele>47.216653</ele>
        <time>2024-07-07T07:14:09.956Z</time>
      </trkpt>
      <trkpt lat="52.80964" lon="5.81436">
        <ele>47.233502</ele>
        <time>2024-07-07T07:14:11.929Z</time>
      </trkpt>
      <trkpt lat="52.8097" lon="5.81422">
        <ele>47.249507</ele>
        <time>2024-07-07T07:14:13.947Z</time>
      </trkpt>
      <trkpt lat="52.80975" lon="5.81409">
        <ele>47.241942</ele>
        <time>2024-07-07T07:14:15.937Z</time>
      </trkpt>
      <trkpt lat="52.80981" lon="5.81396">
        <ele>47.23425</ele>
        <time>2024-07-07T07:14:17.938Z</time>
      </trkpt>
      <trkpt lat="52.80987" lon="5.81384">
        <ele>47.226918</ele>
        <time>2024-07-07T07:14:19.947Z</time>
      </trkpt>
      <trkpt lat="52.80993" lon="5.8137">
        <ele>47.219361</ele>
        <time>2024-07-07T07:14:21.958Z</time>
      </trkpt>
      <trkpt lat="52.80999" lon="5.81357">
        <ele>47.211545</ele>
        <time>2024-07-07T07:14:23.935Z</time>
      </trkpt>
      <trkpt lat="52.81005" lon="5.81345">
        <ele>47.204081</ele>
        <time>2024-07-07T07:14:25.937Z</time>
      </trkpt>
      <trkpt lat="52.81011" lon="5.81332">
        <ele>47.196459</ele>
        <time>2024-07-07T07:14:27.947Z</time>
      </trkpt>
      <trkpt lat="52.81017" lon="5.81319">
        <ele>47.189189</ele>
        <time>2024-07-07T07:14:29.941Z</time>
      </trkpt>
      <trkpt lat="52.81022" lon="5.81306">
        <ele>47.18169</ele>
        <time>2024-07-07T07:14:31.934Z</time>
      </trkpt>
      <trkpt lat="52.81028" lon="5.81292">
        <ele>47.17393</ele>
        <time>2024-07-07T07:14:33.945Z</time>
      </trkpt>
      <trkpt lat="52.81034" lon="5.81278">
        <ele>47.166043</ele>
        <time>2024-07-07T07:14:35.938Z</time>
      </trkpt>
      <trkpt lat="52.81039" lon="5.81265">
        <ele>47.158569</ele>
        <time>2024-07-07T07:14:37.931Z</time>
      </trkpt>
      <trkpt lat="52.81046" lon="5.81252">
        <ele>47.150924</ele>
        <time>2024-07-07T07:14:39.940Z</time>
      </trkpt>
      <trkpt lat="52.81051" lon="5.8124">
        <ele>47.143795</ele>
        <time>2024-07-07T07:14:41.960Z</time>
      </trkpt>
      <trkpt lat="52.81057" lon="5.81228">
        <ele>47.136879</ele>
        <time>2024-07-07T07:14:43.938Z</time>
      </trkpt>
      <trkpt lat="52.81062" lon="5.81216">
        <ele>47.12988</ele>
        <time>2024-07-07T07:14:45.943Z</time>
      </trkpt>
      <trkpt lat="52.81067" lon="5.81204">
        <ele>47.12291</ele>
        <time>2024-07-07T07:14:47.954Z</time>
      </trkpt>
      <trkpt lat="52.81076" lon="5.81187">
        <ele>47.112716</ele>
        <time>2024-07-07T07:14:50.917Z</time>
      </trkpt>
      <trkpt lat="52.81083" lon="5.81169">
        <ele>47.139502</ele>
        <time>2024-07-07T07:14:53.939Z</time>
      </trkpt>
      <trkpt lat="52.81091" lon="5.81152">
        <ele>47.171869</ele>
        <time>2024-07-07T07:14:56.963Z</time>
      </trkpt>
      <trkpt lat="52.81099" lon="5.81135">
        <ele>47.203965</ele>
        <time>2024-07-07T07:14:59.941Z</time>
      </trkpt>
      <trkpt lat="52.81107" lon="5.8112">
        <ele>47.234793</ele>
        <time>2024-07-07T07:15:02.944Z</time>
      </trkpt>
      <trkpt lat="52.81117" lon="5.81105">
        <ele>47.267061</ele>
        <time>2024-07-07T07:15:05.947Z</time>
      </trkpt>
      <trkpt lat="52.81126" lon="5.81089">
        <ele>47.300115</ele>
        <time>2024-07-07T07:15:08.924Z</time>
      </trkpt>
      <trkpt lat="52.81132" lon="5.81078">
        <ele>47.322717</ele>
        <time>2024-07-07T07:15:10.942Z</time>
      </trkpt>
      <trkpt lat="52.81142" lon="5.81062">
        <ele>47.355989</ele>
        <time>2024-07-07T07:15:13.938Z</time>
      </trkpt>
      <trkpt lat="52.81148" lon="5.81051">
        <ele>47.378414</ele>
        <time>2024-07-07T07:15:15.932Z</time>
      </trkpt>
      <trkpt lat="52.81155" lon="5.8104">
        <ele>47.401579</ele>
        <time>2024-07-07T07:15:17.929Z</time>
      </trkpt>
      <trkpt lat="52.81161" lon="5.81029">
        <ele>47.42454</ele>
        <time>2024-07-07T07:15:19.936Z</time>
      </trkpt>
      <trkpt lat="52.81168" lon="5.81018">
        <ele>47.447987</ele>
        <time>2024-07-07T07:15:21.931Z</time>
      </trkpt>
      <trkpt lat="52.81177" lon="5.81001">
        <ele>47.481865</ele>
        <time>2024-07-07T07:15:24.931Z</time>
      </trkpt>
      <trkpt lat="52.81186" lon="5.80985">
        <ele>47.515415</ele>
        <time>2024-07-07T07:15:27.948Z</time>
      </trkpt>
      <trkpt lat="52.81192" lon="5.80974">
        <ele>47.537704</ele>
        <time>2024-07-07T07:15:29.955Z</time>
      </trkpt>
      <trkpt lat="52.81201" lon="5.80958">
        <ele>47.597116</ele>
        <time>2024-07-07T07:15:32.935Z</time>
      </trkpt>
      <trkpt lat="52.8121" lon="5.80941">
        <ele>47.690117</ele>
        <time>2024-07-07T07:15:35.950Z</time>
      </trkpt>
      <trkpt lat="52.81219" lon="5.80924">
        <ele>47.783439</ele>
        <time>2024-07-07T07:15:38.920Z</time>
      </trkpt>
      <trkpt lat="52.81228" lon="5.80909">
        <ele>47.876901</ele>
        <time>2024-07-07T07:15:41.954Z</time>
      </trkpt>
      <trkpt lat="52.81237" lon="5.80893">
        <ele>47.969116</ele>
        <time>2024-07-07T07:15:44.933Z</time>
      </trkpt>
      <trkpt lat="52.81244" lon="5.80883">
        <ele>48.034051</ele>
        <time>2024-07-07T07:15:46.955Z</time>
      </trkpt>
      <trkpt lat="52.81253" lon="5.80867">
        <ele>48.126625</ele>
        <time>2024-07-07T07:15:49.928Z</time>
      </trkpt>
      <trkpt lat="52.81263" lon="5.80853">
        <ele>48.217642</ele>
        <time>2024-07-07T07:15:52.948Z</time>
      </trkpt>
      <trkpt lat="52.81272" lon="5.80838">
        <ele>48.308911</ele>
        <time>2024-07-07T07:15:55.940Z</time>
      </trkpt>
      <trkpt lat="52.81281" lon="5.80824">
        <ele>48.396011</ele>
        <time>2024-07-07T07:15:58.939Z</time>
      </trkpt>
      <trkpt lat="52.81289" lon="5.80811">
        <ele>48.475312</ele>
        <time>2024-07-07T07:16:01.937Z</time>
      </trkpt>
      <trkpt lat="52.81298" lon="5.80801">
        <ele>48.551025</ele>
        <time>2024-07-07T07:16:04.929Z</time>
      </trkpt>
      <trkpt lat="52.81309" lon="5.80803">
        <ele>48.624464</ele>
        <time>2024-07-07T07:16:07.937Z</time>
      </trkpt>
      <trkpt lat="52.81316" lon="5.80818">
        <ele>48.707598</ele>
        <time>2024-07-07T07:16:10.926Z</time>
      </trkpt>
      <trkpt lat="52.81325" lon="5.80833">
        <ele>48.793349</ele>
        <time>2024-07-07T07:16:13.960Z</time>
      </trkpt>
      <trkpt lat="52.81333" lon="5.80849">
        <ele>48.823776</ele>
        <time>2024-07-07T07:16:16.936Z</time>
      </trkpt>
      <trkpt lat="52.81342" lon="5.80864">
        <ele>48.828454</ele>
        <time>2024-07-07T07:16:19.944Z</time>
      </trkpt>
      <trkpt lat="52.81351" lon="5.80881">
        <ele>48.833204</ele>
        <time>2024-07-07T07:16:22.948Z</time>
      </trkpt>
      <trkpt lat="52.81358" lon="5.80896">
        <ele>48.83741</ele>
        <time>2024-07-07T07:16:25.935Z</time>
      </trkpt>
      <trkpt lat="52.81367" lon="5.80911">
        <ele>48.841991</ele>
        <time>2024-07-07T07:16:28.935Z</time>
      </trkpt>
      <trkpt lat="52.81375" lon="5.80927">
        <ele>48.84654</ele>
        <time>2024-07-07T07:16:31.940Z</time>
      </trkpt>
      <trkpt lat="52.81384" lon="5.80943">
        <ele>48.851234</ele>
        <time>2024-07-07T07:16:34.956Z</time>
      </trkpt>
      <trkpt lat="52.8139" lon="5.80955">
        <ele>48.854604</ele>
        <time>2024-07-07T07:16:36.937Z</time>
      </trkpt>
      <trkpt lat="52.81396" lon="5.80966">
        <ele>48.85791</ele>
        <time>2024-07-07T07:16:38.929Z</time>
      </trkpt>
      <trkpt lat="52.81402" lon="5.80978">
        <ele>48.861199</ele>
        <time>2024-07-07T07:16:40.942Z</time>
      </trkpt>
      <trkpt lat="52.81408" lon="5.8099">
        <ele>48.864544</ele>
        <time>2024-07-07T07:16:42.953Z</time>
      </trkpt>
      <trkpt lat="52.81414" lon="5.81003">
        <ele>48.868078</ele>
        <time>2024-07-07T07:16:44.930Z</time>
      </trkpt>
      <trkpt lat="52.81419" lon="5.81017">
        <ele>48.871545</ele>
        <time>2024-07-07T07:16:46.948Z</time>
      </trkpt>
      <trkpt lat="52.81424" lon="5.8103">
        <ele>48.875052</ele>
        <time>2024-07-07T07:16:48.937Z</time>
      </trkpt>
      <trkpt lat="52.8143" lon="5.81044">
        <ele>48.878544</ele>
        <time>2024-07-07T07:16:50.940Z</time>
      </trkpt>
      <trkpt lat="52.81435" lon="5.81058">
        <ele>48.882159</ele>
        <time>2024-07-07T07:16:52.932Z</time>
      </trkpt>
      <trkpt lat="52.81441" lon="5.81072">
        <ele>48.879375</ele>
        <time>2024-07-07T07:16:54.945Z</time>
      </trkpt>
      <trkpt lat="52.81446" lon="5.81086">
        <ele>48.847184</ele>
        <time>2024-07-07T07:16:56.944Z</time>
      </trkpt>
      <trkpt lat="52.81451" lon="5.81101">
        <ele>48.814336</ele>
        <time>2024-07-07T07:16:58.923Z</time>
      </trkpt>
      <trkpt lat="52.81457" lon="5.81115">
        <ele>48.780131</ele>
        <time>2024-07-07T07:17:00.949Z</time>
      </trkpt>
      <trkpt lat="52.81462" lon="5.8113">
        <ele>48.747117</ele>
        <time>2024-07-07T07:17:02.930Z</time>
      </trkpt>
      <trkpt lat="52.81468" lon="5.81144">
        <ele>48.71425</ele>
        <time>2024-07-07T07:17:04.937Z</time>
      </trkpt>
      <trkpt lat="52.81474" lon="5.81159">
        <ele>48.680239</ele>
        <time>2024-07-07T07:17:06.938Z</time>
      </trkpt>
      <trkpt lat="52.8148" lon="5.81174">
        <ele>48.645695</ele>
        <time>2024-07-07T07:17:08.932Z</time>
      </trkpt>
      <trkpt lat="52.81485" lon="5.81188">
        <ele>48.612349</ele>
        <time>2024-07-07T07:17:10.951Z</time>
      </trkpt>
      <trkpt lat="52.81491" lon="5.81203">
        <ele>48.57882</ele>
        <time>2024-07-07T07:17:12.925Z</time>
      </trkpt>
      <trkpt lat="52.81496" lon="5.81218">
        <ele>48.544809</ele>
        <time>2024-07-07T07:17:14.958Z</time>
      </trkpt>
      <trkpt lat="52.81502" lon="5.81232">
        <ele>48.510746</ele>
        <time>2024-07-07T07:17:16.937Z</time>
      </trkpt>
      <trkpt lat="52.81508" lon="5.81247">
        <ele>48.476565</ele>
        <time>2024-07-07T07:17:18.924Z</time>
      </trkpt>
      <trkpt lat="52.81513" lon="5.81261">
        <ele>48.444543</ele>
        <time>2024-07-07T07:17:20.938Z</time>
      </trkpt>
      <trkpt lat="52.81519" lon="5.81275">
        <ele>48.411662</ele>
        <time>2024-07-07T07:17:22.937Z</time>
      </trkpt>
      <trkpt lat="52.81524" lon="5.8129">
        <ele>48.378483</ele>
        <time>2024-07-07T07:17:24.920Z</time>
      </trkpt>
      <trkpt lat="52.8153" lon="5.81304">
        <ele>48.345779</ele>
        <time>2024-07-07T07:17:26.933Z</time>
      </trkpt>
      <trkpt lat="52.81535" lon="5.81318">
        <ele>48.312923</ele>
        <time>2024-07-07T07:17:28.932Z</time>
      </trkpt>
      <trkpt lat="52.81541" lon="5.81332">
        <ele>48.341518</ele>
        <time>2024-07-07T07:17:30.938Z</time>
      </trkpt>
      <trkpt lat="52.81546" lon="5.81347">
        <ele>48.382498</ele>
        <time>2024-07-07T07:17:32.944Z</time>
      </trkpt>
      <trkpt lat="52.81552" lon="5.81362">
        <ele>48.422088</ele>
        <time>2024-07-07T07:17:34.937Z</time>
      </trkpt>
      <trkpt lat="52.81557" lon="5.81376">
        <ele>48.459897</ele>
        <time>2024-07-07T07:17:36.939Z</time>
      </trkpt>
      <trkpt lat="52.81562" lon="5.8139">
        <ele>48.499294</ele>
        <time>2024-07-07T07:17:38.946Z</time>
      </trkpt>
      <trkpt lat="52.81568" lon="5.81405">
        <ele>48.540085</ele>
        <time>2024-07-07T07:17:40.938Z</time>
      </trkpt>
      <trkpt lat="52.81574" lon="5.8142">
        <ele>48.580868</ele>
        <time>2024-07-07T07:17:42.948Z</time>
      </trkpt>
      <trkpt lat="52.81579" lon="5.81434">
        <ele>48.620878</ele>
        <time>2024-07-07T07:17:44.946Z</time>
      </trkpt>
      <trkpt lat="52.81585" lon="5.81449">
        <ele>48.660668</ele>
        <time>2024-07-07T07:17:46.939Z</time>
      </trkpt>
      <trkpt lat="52.81591" lon="5.81463">
        <ele>48.700678</ele>
        <time>2024-07-07T07:17:48.928Z</time>
      </trkpt>
      <trkpt lat="52.81597" lon="5.81478">
        <ele>48.742081</ele>
        <time>2024-07-07T07:17:50.948Z</time>
      </trkpt>
      <trkpt lat="52.81602" lon="5.81492">
        <ele>48.782091</ele>
        <time>2024-07-07T07:17:52.957Z</time>
      </trkpt>
      <trkpt lat="52.81608" lon="5.81507">
        <ele>48.82212</ele>
        <time>2024-07-07T07:17:54.937Z</time>
      </trkpt>
      <trkpt lat="52.81614" lon="5.81521">
        <ele>48.862519</ele>
        <time>2024-07-07T07:17:56.948Z</time>
      </trkpt>
      <trkpt lat="52.81619" lon="5.81536">
        <ele>48.902304</ele>
        <time>2024-07-07T07:17:58.936Z</time>
      </trkpt>
      <trkpt lat="52.81625" lon="5.8155">
        <ele>48.942104</ele>
        <time>2024-07-07T07:18:00.915Z</time>
      </trkpt>
      <trkpt lat="52.8163" lon="5.81565">
        <ele>48.98192</ele>
        <time>2024-07-07T07:18:02.949Z</time>
      </trkpt>
      <trkpt lat="52.81636" lon="5.81579">
        <ele>49.029697</ele>
        <time>2024-07-07T07:18:04.938Z</time>
      </trkpt>
      <trkpt lat="52.81641" lon="5.81593">
        <ele>49.08331</ele>
        <time>2024-07-07T07:18:06.936Z</time>
      </trkpt>
      <trkpt lat="52.81647" lon="5.81608">
        <ele>49.139116</ele>
        <time>2024-07-07T07:18:08.930Z</time>
      </trkpt>
      <trkpt lat="52.81652" lon="5.81622">
        <ele>49.192128</ele>
        <time>2024-07-07T07:18:10.940Z</time>
      </trkpt>
      <trkpt lat="52.81658" lon="5.81636">
        <ele>49.245449</ele>
        <time>2024-07-07T07:18:12.930Z</time>
      </trkpt>
      <trkpt lat="52.81663" lon="5.8165">
        <ele>49.299578</ele>
        <time>2024-07-07T07:18:14.944Z</time>
      </trkpt>
      <trkpt lat="52.81669" lon="5.81663">
        <ele>49.351754</ele>
        <time>2024-07-07T07:18:16.934Z</time>
      </trkpt>
      <trkpt lat="52.81676" lon="5.81676">
        <ele>49.40624</ele>
        <time>2024-07-07T07:18:18.923Z</time>
      </trkpt>
      <trkpt lat="52.81683" lon="5.81688">
        <ele>49.46142</ele>
        <time>2024-07-07T07:18:20.920Z</time>
      </trkpt>
      <trkpt lat="52.81692" lon="5.81697">
        <ele>49.515182</ele>
        <time>2024-07-07T07:18:22.931Z</time>
      </trkpt>
      <trkpt lat="52.81701" lon="5.81705">
        <ele>49.568986</ele>
        <time>2024-07-07T07:18:24.927Z</time>
      </trkpt>
      <trkpt lat="52.8171" lon="5.81711">
        <ele>49.624475</ele>
        <time>2024-07-07T07:18:26.923Z</time>
      </trkpt>
      <trkpt lat="52.8172" lon="5.81715">
        <ele>49.676439</ele>
        <time>2024-07-07T07:18:28.921Z</time>
      </trkpt>
      <trkpt lat="52.81729" lon="5.81719">
        <ele>49.728932</ele>
        <time>2024-07-07T07:18:30.947Z</time>
      </trkpt>
      <trkpt lat="52.81738" lon="5.81723">
        <ele>49.776882</ele>
        <time>2024-07-07T07:18:32.935Z</time>
      </trkpt>
      <trkpt lat="52.8175" lon="5.81729">
        <ele>49.84531</ele>
        <time>2024-07-07T07:18:35.927Z</time>
      </trkpt>
      <trkpt lat="52.81762" lon="5.81733">
        <ele>49.90596</ele>
        <time>2024-07-07T07:18:38.926Z</time>
      </trkpt>
      <trkpt lat="52.81772" lon="5.8174">
        <ele>49.95769</ele>
        <time>2024-07-07T07:18:41.932Z</time>
      </trkpt>
      <trkpt lat="52.81778" lon="5.81755">
        <ele>49.971456</ele>
        <time>2024-07-07T07:18:44.933Z</time>
      </trkpt>
      <trkpt lat="52.81776" lon="5.81774">
        <ele>49.986888</ele>
        <time>2024-07-07T07:18:47.940Z</time>
      </trkpt>
      <trkpt lat="52.81775" lon="5.81795">
        <ele>50.003408</ele>
        <time>2024-07-07T07:18:50.943Z</time>
      </trkpt>
      <trkpt lat="52.81774" lon="5.81815">
        <ele>50.019135</ele>
        <time>2024-07-07T07:18:53.933Z</time>
      </trkpt>
      <trkpt lat="52.81774" lon="5.81836">
        <ele>50.035446</ele>
        <time>2024-07-07T07:18:56.944Z</time>
      </trkpt>
      <trkpt lat="52.81773" lon="5.81854">
        <ele>50.049484</ele>
        <time>2024-07-07T07:18:59.936Z</time>
      </trkpt>
      <trkpt lat="52.81773" lon="5.81872">
        <ele>50.063715</ele>
        <time>2024-07-07T07:19:02.951Z</time>
      </trkpt>
      <trkpt lat="52.81771" lon="5.81891">
        <ele>50.078719</ele>
        <time>2024-07-07T07:19:05.940Z</time>
      </trkpt>
      <trkpt lat="52.81771" lon="5.8191">
        <ele>50.09362</ele>
        <time>2024-07-07T07:19:08.936Z</time>
      </trkpt>
      <trkpt lat="52.8177" lon="5.81928">
        <ele>50.107437</ele>
        <time>2024-07-07T07:19:11.946Z</time>
      </trkpt>
      <trkpt lat="52.8177" lon="5.81947">
        <ele>50.122807</ele>
        <time>2024-07-07T07:19:14.940Z</time>
      </trkpt>
      <trkpt lat="52.81771" lon="5.81968">
        <ele>50.139493</ele>
        <time>2024-07-07T07:19:17.936Z</time>
      </trkpt>
      <trkpt lat="52.81773" lon="5.81984">
        <ele>50.15172</ele>
        <time>2024-07-07T07:19:19.955Z</time>
      </trkpt>
      <trkpt lat="52.81778" lon="5.81997">
        <ele>50.163804</ele>
        <time>2024-07-07T07:19:21.945Z</time>
      </trkpt>
      <trkpt lat="52.81784" lon="5.82009">
        <ele>50.176414</ele>
        <time>2024-07-07T07:19:23.930Z</time>
      </trkpt>
      <trkpt lat="52.81797" lon="5.82018">
        <ele>50.160983</ele>
        <time>2024-07-07T07:19:26.921Z</time>
      </trkpt>
      <trkpt lat="52.81806" lon="5.82012">
        <ele>50.093301</ele>
        <time>2024-07-07T07:19:28.951Z</time>
      </trkpt>
      <trkpt lat="52.81814" lon="5.82005">
        <ele>50.025632</ele>
        <time>2024-07-07T07:19:30.931Z</time>
      </trkpt>
      <trkpt lat="52.81824" lon="5.81999">
        <ele>49.954368</ele>
        <time>2024-07-07T07:19:32.940Z</time>
      </trkpt>
      <trkpt lat="52.81833" lon="5.81993">
        <ele>49.881749</ele>
        <time>2024-07-07T07:19:34.943Z</time>
      </trkpt>
      <trkpt lat="52.81844" lon="5.81988">
        <ele>49.806044</ele>
        <time>2024-07-07T07:19:36.935Z</time>
      </trkpt>
      <trkpt lat="52.81854" lon="5.81983">
        <ele>49.731321</ele>
        <time>2024-07-07T07:19:38.954Z</time>
      </trkpt>
      <trkpt lat="52.81864" lon="5.81977">
        <ele>49.659173</ele>
        <time>2024-07-07T07:19:40.948Z</time>
      </trkpt>
      <trkpt lat="52.81873" lon="5.81972">
        <ele>49.589874</ele>
        <time>2024-07-07T07:19:42.935Z</time>
      </trkpt>
      <trkpt lat="52.81883" lon="5.81967">
        <ele>49.520747</ele>
        <time>2024-07-07T07:19:44.942Z</time>
      </trkpt>
      <trkpt lat="52.81893" lon="5.81963">
        <ele>49.44726</ele>
        <time>2024-07-07T07:19:46.915Z</time>
      </trkpt>
      <trkpt lat="52.81902" lon="5.81958">
        <ele>49.378194</ele>
        <time>2024-07-07T07:19:48.924Z</time>
      </trkpt>
      <trkpt lat="52.81911" lon="5.81955">
        <ele>49.313948</ele>
        <time>2024-07-07T07:19:50.939Z</time>
      </trkpt>
      <trkpt lat="52.81923" lon="5.81947">
        <ele>49.222175</ele>
        <time>2024-07-07T07:19:53.935Z</time>
      </trkpt>
      <trkpt lat="52.81932" lon="5.81943">
        <ele>49.157936</ele>
        <time>2024-07-07T07:19:55.940Z</time>
      </trkpt>
      <trkpt lat="52.81942" lon="5.81939">
        <ele>49.089769</ele>
        <time>2024-07-07T07:19:57.935Z</time>
      </trkpt>
      <trkpt lat="52.81951" lon="5.81934">
        <ele>49.023967</ele>
        <time>2024-07-07T07:19:59.924Z</time>
      </trkpt>
      <trkpt lat="52.8196" lon="5.81929">
        <ele>48.957351</ele>
        <time>2024-07-07T07:20:01.936Z</time>
      </trkpt>
      <trkpt lat="52.81969" lon="5.81925">
        <ele>48.914923</ele>
        <time>2024-07-07T07:20:03.936Z</time>
      </trkpt>
      <trkpt lat="52.81977" lon="5.8192">
        <ele>48.889271</ele>
        <time>2024-07-07T07:20:05.955Z</time>
      </trkpt>
      <trkpt lat="52.8199" lon="5.81915">
        <ele>48.853183</ele>
        <time>2024-07-07T07:20:08.921Z</time>
      </trkpt>
      <trkpt lat="52.82002" lon="5.8191">
        <ele>48.819123</ele>
        <time>2024-07-07T07:20:11.956Z</time>
      </trkpt>
      <trkpt lat="52.82007" lon="5.8191">
        <ele>48.806201</ele>
        <time>2024-07-07T07:20:16.902Z</time>
      </trkpt>
      <trkpt lat="52.82027" lon="5.81902">
        <ele>48.749819</ele>
        <time>2024-07-07T07:20:55.919Z</time>
      </trkpt>
      <trkpt lat="52.82038" lon="5.81902">
        <ele>48.719065</ele>
        <time>2024-07-07T07:20:59.928Z</time>
      </trkpt>
      <trkpt lat="52.8205" lon="5.81904">
        <ele>48.687331</ele>
        <time>2024-07-07T07:21:03.926Z</time>
      </trkpt>
      <trkpt lat="52.82059" lon="5.81906">
        <ele>48.659858</ele>
        <time>2024-07-07T07:21:07.935Z</time>
      </trkpt>
      <trkpt lat="52.82071" lon="5.81909">
        <ele>48.627399</ele>
        <time>2024-07-07T07:21:11.950Z</time>
      </trkpt>
      <trkpt lat="52.82082" lon="5.8191">
        <ele>48.596571</ele>
        <time>2024-07-07T07:21:14.938Z</time>
      </trkpt>
      <trkpt lat="52.82095" lon="5.81913">
        <ele>48.562774</ele>
        <time>2024-07-07T07:21:17.918Z</time>
      </trkpt>
      <trkpt lat="52.82107" lon="5.81917">
        <ele>48.527124</ele>
        <time>2024-07-07T07:21:20.938Z</time>
      </trkpt>
      <trkpt lat="52.82116" lon="5.81919">
        <ele>48.502233</ele>
        <time>2024-07-07T07:21:22.919Z</time>
      </trkpt>
      <trkpt lat="52.8213" lon="5.81921">
        <ele>48.465242</ele>
        <time>2024-07-07T07:21:25.945Z</time>
      </trkpt>
      <trkpt lat="52.82139" lon="5.81922">
        <ele>48.440115</ele>
        <time>2024-07-07T07:21:27.915Z</time>
      </trkpt>
      <trkpt lat="52.82148" lon="5.81924">
        <ele>48.349418</ele>
        <time>2024-07-07T07:21:29.946Z</time>
      </trkpt>
      <trkpt lat="52.82157" lon="5.81926">
        <ele>48.242829</ele>
        <time>2024-07-07T07:21:31.933Z</time>
      </trkpt>
      <trkpt lat="52.82167" lon="5.81929">
        <ele>48.133754</ele>
        <time>2024-07-07T07:21:33.938Z</time>
      </trkpt>
      <trkpt lat="52.82177" lon="5.8193">
        <ele>48.020158</ele>
        <time>2024-07-07T07:21:35.943Z</time>
      </trkpt>
      <trkpt lat="52.82187" lon="5.81932">
        <ele>47.904999</ele>
        <time>2024-07-07T07:21:37.938Z</time>
      </trkpt>
      <trkpt lat="52.82196" lon="5.81934">
        <ele>47.792345</ele>
        <time>2024-07-07T07:21:39.944Z</time>
      </trkpt>
      <trkpt lat="52.82206" lon="5.81936">
        <ele>47.68431</ele>
        <time>2024-07-07T07:21:41.937Z</time>
      </trkpt>
      <trkpt lat="52.82216" lon="5.81938">
        <ele>47.5702</ele>
        <time>2024-07-07T07:21:43.939Z</time>
      </trkpt>
      <trkpt lat="52.82226" lon="5.8194">
        <ele>47.456335</ele>
        <time>2024-07-07T07:21:45.928Z</time>
      </trkpt>
      <trkpt lat="52.82236" lon="5.81941">
        <ele>47.340337</ele>
        <time>2024-07-07T07:21:47.937Z</time>
      </trkpt>
      <trkpt lat="52.82246" lon="5.81943">
        <ele>47.222125</ele>
        <time>2024-07-07T07:21:49.936Z</time>
      </trkpt>
      <trkpt lat="52.82257" lon="5.81945">
        <ele>47.099615</ele>
        <time>2024-07-07T07:21:51.947Z</time>
      </trkpt>
      <trkpt lat="52.82267" lon="5.81948">
        <ele>46.981828</ele>
        <time>2024-07-07T07:21:53.943Z</time>
      </trkpt>
      <trkpt lat="52.82277" lon="5.81952">
        <ele>46.860962</ele>
        <time>2024-07-07T07:21:55.921Z</time>
      </trkpt>
      <trkpt lat="52.82287" lon="5.81957">
        <ele>46.740436</ele>
        <time>2024-07-07T07:21:57.934Z</time>
      </trkpt>
      <trkpt lat="52.82297" lon="5.81963">
        <ele>46.622347</ele>
        <time>2024-07-07T07:21:59.941Z</time>
      </trkpt>
      <trkpt lat="52.82306" lon="5.81969">
        <ele>46.505082</ele>
        <time>2024-07-07T07:22:01.941Z</time>
      </trkpt>
      <trkpt lat="52.82315" lon="5.81978">
        <ele>46.38486</ele>
        <time>2024-07-07T07:22:03.930Z</time>
      </trkpt>
      <trkpt lat="52.82324" lon="5.81987">
        <ele>46.386111</ele>
        <time>2024-07-07T07:22:05.936Z</time>
      </trkpt>
      <trkpt lat="52.82332" lon="5.81998">
        <ele>46.393154</ele>
        <time>2024-07-07T07:22:07.923Z</time>
      </trkpt>
      <trkpt lat="52.82339" lon="5.82009">
        <ele>46.400728</ele>
        <time>2024-07-07T07:22:09.937Z</time>
      </trkpt>
      <trkpt lat="52.82347" lon="5.82021">
        <ele>46.407878</ele>
        <time>2024-07-07T07:22:11.933Z</time>
      </trkpt>
      <trkpt lat="52.82353" lon="5.82033">
        <ele>46.415242</ele>
        <time>2024-07-07T07:22:13.949Z</time>
      </trkpt>
      <trkpt lat="52.8236" lon="5.82047">
        <ele>46.422679</ele>
        <time>2024-07-07T07:22:15.947Z</time>
      </trkpt>
      <trkpt lat="52.82365" lon="5.82061">
        <ele>46.430067</ele>
        <time>2024-07-07T07:22:17.949Z</time>
      </trkpt>
      <trkpt lat="52.8237" lon="5.82075">
        <ele>46.437028</ele>
        <time>2024-07-07T07:22:19.946Z</time>
      </trkpt>
      <trkpt lat="52.82375" lon="5.8209">
        <ele>46.444521</ele>
        <time>2024-07-07T07:22:21.939Z</time>
      </trkpt>
      <trkpt lat="52.8238" lon="5.82106">
        <ele>46.452217</ele>
        <time>2024-07-07T07:22:23.943Z</time>
      </trkpt>
      <trkpt lat="52.82383" lon="5.82123">
        <ele>46.459816</ele>
        <time>2024-07-07T07:22:25.937Z</time>
      </trkpt>
      <trkpt lat="52.82387" lon="5.82139">
        <ele>46.467521</ele>
        <time>2024-07-07T07:22:27.937Z</time>
      </trkpt>
      <trkpt lat="52.82391" lon="5.82155">
        <ele>46.474939</ele>
        <time>2024-07-07T07:22:29.941Z</time>
      </trkpt>
      <trkpt lat="52.82395" lon="5.82171">
        <ele>46.482739</ele>
        <time>2024-07-07T07:22:31.935Z</time>
      </trkpt>
      <trkpt lat="52.82399" lon="5.82187">
        <ele>46.490336</ele>
        <time>2024-07-07T07:22:33.944Z</time>
      </trkpt>
      <trkpt lat="52.82403" lon="5.82204">
        <ele>46.49822</ele>
        <time>2024-07-07T07:22:35.941Z</time>
      </trkpt>
      <trkpt lat="52.82406" lon="5.82223">
        <ele>46.506631</ele>
        <time>2024-07-07T07:22:37.914Z</time>
      </trkpt>
      <trkpt lat="52.8241" lon="5.82241">
        <ele>46.555331</ele>
        <time>2024-07-07T07:22:39.946Z</time>
      </trkpt>
      <trkpt lat="52.82414" lon="5.82258">
        <ele>46.613703</ele>
        <time>2024-07-07T07:22:41.940Z</time>
      </trkpt>
      <trkpt lat="52.82417" lon="5.82275">
        <ele>46.670792</ele>
        <time>2024-07-07T07:22:43.936Z</time>
      </trkpt>
      <trkpt lat="52.8242" lon="5.82292">
        <ele>46.72835</ele>
        <time>2024-07-07T07:22:45.938Z</time>
      </trkpt>
      <trkpt lat="52.82424" lon="5.82308">
        <ele>46.785506</ele>
        <time>2024-07-07T07:22:47.936Z</time>
      </trkpt>
      <trkpt lat="52.82427" lon="5.82324">
        <ele>46.839816</ele>
        <time>2024-07-07T07:22:49.936Z</time>
      </trkpt>
      <trkpt lat="52.8243" lon="5.82341">
        <ele>46.895706</ele>
        <time>2024-07-07T07:22:51.935Z</time>
      </trkpt>
      <trkpt lat="52.82434" lon="5.82357">
        <ele>46.950255</ele>
        <time>2024-07-07T07:22:53.950Z</time>
      </trkpt>
      <trkpt lat="52.82438" lon="5.82373">
        <ele>47.006574</ele>
        <time>2024-07-07T07:22:55.931Z</time>
      </trkpt>
      <trkpt lat="52.82442" lon="5.82388">
        <ele>47.060697</ele>
        <time>2024-07-07T07:22:57.934Z</time>
      </trkpt>
      <trkpt lat="52.82447" lon="5.82402">
        <ele>47.113397</ele>
        <time>2024-07-07T07:22:59.940Z</time>
      </trkpt>
      <trkpt lat="52.82453" lon="5.82415">
        <ele>47.16869</ele>
        <time>2024-07-07T07:23:01.937Z</time>
      </trkpt>
      <trkpt lat="52.82459" lon="5.82429">
        <ele>47.223231</ele>
        <time>2024-07-07T07:23:03.937Z</time>
      </trkpt>
      <trkpt lat="52.82465" lon="5.82443">
        <ele>47.278782</ele>
        <time>2024-07-07T07:23:05.929Z</time>
      </trkpt>
      <trkpt lat="52.82471" lon="5.82456">
        <ele>47.332349</ele>
        <time>2024-07-07T07:23:07.950Z</time>
      </trkpt>
      <trkpt lat="52.82478" lon="5.82468">
        <ele>47.386347</ele>
        <time>2024-07-07T07:23:09.944Z</time>
      </trkpt>
      <trkpt lat="52.82486" lon="5.8248">
        <ele>47.441236</ele>
        <time>2024-07-07T07:23:11.938Z</time>
      </trkpt>
      <trkpt lat="52.82494" lon="5.82491">
        <ele>47.48234</ele>
        <time>2024-07-07T07:23:13.934Z</time>
      </trkpt>
      <trkpt lat="52.82502" lon="5.82501">
        <ele>47.509591</ele>
        <time>2024-07-07T07:23:15.935Z</time>
      </trkpt>
      <trkpt lat="52.82511" lon="5.8251">
        <ele>47.538214</ele>
        <time>2024-07-07T07:23:17.946Z</time>
      </trkpt>
      <trkpt lat="52.8252" lon="5.82521">
        <ele>47.566541</ele>
        <time>2024-07-07T07:23:19.931Z</time>
      </trkpt>
      <trkpt lat="52.82529" lon="5.8253">
        <ele>47.59561</ele>
        <time>2024-07-07T07:23:21.937Z</time>
      </trkpt>
      <trkpt lat="52.82538" lon="5.8254">
        <ele>47.624233</ele>
        <time>2024-07-07T07:23:23.949Z</time>
      </trkpt>
      <trkpt lat="52.82548" lon="5.8255">
        <ele>47.654638</ele>
        <time>2024-07-07T07:23:25.938Z</time>
      </trkpt>
      <trkpt lat="52.82558" lon="5.82558">
        <ele>47.682942</ele>
        <time>2024-07-07T07:23:27.933Z</time>
      </trkpt>
      <trkpt lat="52.82567" lon="5.82568">
        <ele>47.711613</ele>
        <time>2024-07-07T07:23:29.943Z</time>
      </trkpt>
      <trkpt lat="52.82575" lon="5.82578">
        <ele>47.738177</ele>
        <time>2024-07-07T07:23:31.939Z</time>
      </trkpt>
      <trkpt lat="52.82584" lon="5.82586">
        <ele>47.765861</ele>
        <time>2024-07-07T07:23:33.943Z</time>
      </trkpt>
      <trkpt lat="52.82593" lon="5.82596">
        <ele>47.793952</ele>
        <time>2024-07-07T07:23:35.930Z</time>
      </trkpt>
      <trkpt lat="52.82601" lon="5.82605">
        <ele>47.821202</ele>
        <time>2024-07-07T07:23:37.947Z</time>
      </trkpt>
      <trkpt lat="52.8261" lon="5.82615">
        <ele>47.848601</ele>
        <time>2024-07-07T07:23:39.936Z</time>
      </trkpt>
      <trkpt lat="52.82618" lon="5.82624">
        <ele>47.876118</ele>
        <time>2024-07-07T07:23:41.939Z</time>
      </trkpt>
      <trkpt lat="52.82627" lon="5.82634">
        <ele>47.904479</ele>
        <time>2024-07-07T07:23:43.939Z</time>
      </trkpt>
      <trkpt lat="52.82636" lon="5.82644">
        <ele>47.932311</ele>
        <time>2024-07-07T07:23:45.937Z</time>
      </trkpt>
      <trkpt lat="52.82644" lon="5.82655">
        <ele>47.966055</ele>
        <time>2024-07-07T07:23:47.917Z</time>
      </trkpt>
      <trkpt lat="52.82652" lon="5.82666">
        <ele>48.008409</ele>
        <time>2024-07-07T07:23:49.940Z</time>
      </trkpt>
      <trkpt lat="52.82659" lon="5.82679">
        <ele>48.049745</ele>
        <time>2024-07-07T07:23:51.933Z</time>
      </trkpt>
      <trkpt lat="52.82666" lon="5.82691">
        <ele>48.089404</ele>
        <time>2024-07-07T07:23:53.938Z</time>
      </trkpt>
      <trkpt lat="52.82672" lon="5.82704">
        <ele>48.130031</ele>
        <time>2024-07-07T07:23:55.950Z</time>
      </trkpt>
      <trkpt lat="52.82679" lon="5.82718">
        <ele>48.171115</ele>
        <time>2024-07-07T07:23:57.940Z</time>
      </trkpt>
      <trkpt lat="52.82684" lon="5.82732">
        <ele>48.210811</ele>
        <time>2024-07-07T07:23:59.949Z</time>
      </trkpt>
      <trkpt lat="52.8269" lon="5.82746">
        <ele>48.252087</ele>
        <time>2024-07-07T07:24:01.918Z</time>
      </trkpt>
      <trkpt lat="52.82697" lon="5.82759">
        <ele>48.293787</ele>
        <time>2024-07-07T07:24:03.929Z</time>
      </trkpt>
      <trkpt lat="52.82704" lon="5.82772">
        <ele>48.334539</ele>
        <time>2024-07-07T07:24:05.939Z</time>
      </trkpt>
      <trkpt lat="52.8271" lon="5.82786">
        <ele>48.376092</ele>
        <time>2024-07-07T07:24:07.941Z</time>
      </trkpt>
      <trkpt lat="52.82717" lon="5.82799">
        <ele>48.417096</ele>
        <time>2024-07-07T07:24:09.946Z</time>
      </trkpt>
      <trkpt lat="52.82723" lon="5.82812">
        <ele>48.457096</ele>
        <time>2024-07-07T07:24:11.942Z</time>
      </trkpt>
      <trkpt lat="52.82731" lon="5.82823">
        <ele>48.497945</ele>
        <time>2024-07-07T07:24:13.932Z</time>
      </trkpt>
      <trkpt lat="52.8274" lon="5.82832">
        <ele>48.539156</ele>
        <time>2024-07-07T07:24:15.926Z</time>
      </trkpt>
      <trkpt lat="52.82749" lon="5.82841">
        <ele>48.582202</ele>
        <time>2024-07-07T07:24:17.954Z</time>
      </trkpt>
      <trkpt lat="52.82759" lon="5.82849">
        <ele>48.624567</ele>
        <time>2024-07-07T07:24:19.944Z</time>
      </trkpt>
      <trkpt lat="52.82768" lon="5.82857">
        <ele>48.658808</ele>
        <time>2024-07-07T07:24:21.941Z</time>
      </trkpt>
      <trkpt lat="52.82778" lon="5.82863">
        <ele>48.666201</ele>
        <time>2024-07-07T07:24:23.936Z</time>
      </trkpt>
      <trkpt lat="52.82788" lon="5.82867">
        <ele>48.673593</ele>
        <time>2024-07-07T07:24:25.943Z</time>
      </trkpt>
      <trkpt lat="52.82798" lon="5.82872">
        <ele>48.681219</ele>
        <time>2024-07-07T07:24:27.945Z</time>
      </trkpt>
      <trkpt lat="52.82808" lon="5.82876">
        <ele>48.688625</ele>
        <time>2024-07-07T07:24:29.939Z</time>
      </trkpt>
      <trkpt lat="52.82818" lon="5.82878">
        <ele>48.69598</ele>
        <time>2024-07-07T07:24:31.937Z</time>
      </trkpt>
      <trkpt lat="52.82828" lon="5.8288">
        <ele>48.703008</ele>
        <time>2024-07-07T07:24:33.940Z</time>
      </trkpt>
      <trkpt lat="52.82837" lon="5.82881">
        <ele>48.709779</ele>
        <time>2024-07-07T07:24:35.942Z</time>
      </trkpt>
      <trkpt lat="52.82847" lon="5.82883">
        <ele>48.716926</ele>
        <time>2024-07-07T07:24:37.933Z</time>
      </trkpt>
      <trkpt lat="52.82857" lon="5.82885">
        <ele>48.724025</ele>
        <time>2024-07-07T07:24:39.935Z</time>
      </trkpt>
      <trkpt lat="52.82867" lon="5.82887">
        <ele>48.731289</ele>
        <time>2024-07-07T07:24:41.942Z</time>
      </trkpt>
      <trkpt lat="52.82877" lon="5.82891">
        <ele>48.738465</ele>
        <time>2024-07-07T07:24:43.940Z</time>
      </trkpt>
      <trkpt lat="52.82887" lon="5.82893">
        <ele>48.74597</ele>
        <time>2024-07-07T07:24:45.931Z</time>
      </trkpt>
      <trkpt lat="52.82897" lon="5.82895">
        <ele>48.75292</ele>
        <time>2024-07-07T07:24:47.948Z</time>
      </trkpt>
      <trkpt lat="52.82907" lon="5.82896">
        <ele>48.760009</ele>
        <time>2024-07-07T07:24:49.938Z</time>
      </trkpt>
      <trkpt lat="52.82917" lon="5.829">
        <ele>48.767568</ele>
        <time>2024-07-07T07:24:51.935Z</time>
      </trkpt>
      <trkpt lat="52.82927" lon="5.82902">
        <ele>48.774755</ele>
        <time>2024-07-07T07:24:53.936Z</time>
      </trkpt>
      <trkpt lat="52.82937" lon="5.82903">
        <ele>48.782031</ele>
        <time>2024-07-07T07:24:55.950Z</time>
      </trkpt>
      <trkpt lat="52.82946" lon="5.82906">
        <ele>48.779683</ele>
        <time>2024-07-07T07:24:57.938Z</time>
      </trkpt>
      <trkpt lat="52.82955" lon="5.82908">
        <ele>48.759687</ele>
        <time>2024-07-07T07:24:59.947Z</time>
      </trkpt>
      <trkpt lat="52.82965" lon="5.8291">
        <ele>48.739175</ele>
        <time>2024-07-07T07:25:01.930Z</time>
      </trkpt>
      <trkpt lat="52.82974" lon="5.82912">
        <ele>48.718913</ele>
        <time>2024-07-07T07:25:03.911Z</time>
      </trkpt>
      <trkpt lat="52.82984" lon="5.82913">
        <ele>48.698387</ele>
        <time>2024-07-07T07:25:05.934Z</time>
      </trkpt>
      <trkpt lat="52.82993" lon="5.82916">
        <ele>48.678977</ele>
        <time>2024-07-07T07:25:07.937Z</time>
      </trkpt>
      <trkpt lat="52.83002" lon="5.82918">
        <ele>48.659191</ele>
        <time>2024-07-07T07:25:09.913Z</time>
      </trkpt>
      <trkpt lat="52.83011" lon="5.8292">
        <ele>48.639735</ele>
        <time>2024-07-07T07:25:11.955Z</time>
      </trkpt>
      <trkpt lat="52.8302" lon="5.82922">
        <ele>48.620598</ele>
        <time>2024-07-07T07:25:13.940Z</time>
      </trkpt>
      <trkpt lat="52.8303" lon="5.82925">
        <ele>48.599952</ele>
        <time>2024-07-07T07:25:15.938Z</time>
      </trkpt>
      <trkpt lat="52.83039" lon="5.82927">
        <ele>48.579637</ele>
        <time>2024-07-07T07:25:17.940Z</time>
      </trkpt>
      <trkpt lat="52.83049" lon="5.82928">
        <ele>48.559744</ele>
        <time>2024-07-07T07:25:19.947Z</time>
      </trkpt>
      <trkpt lat="52.83058" lon="5.8293">
        <ele>48.539281</ele>
        <time>2024-07-07T07:25:21.941Z</time>
      </trkpt>
      <trkpt lat="52.83067" lon="5.82932">
        <ele>48.519934</ele>
        <time>2024-07-07T07:25:23.943Z</time>
      </trkpt>
      <trkpt lat="52.83077" lon="5.82934">
        <ele>48.49983</ele>
        <time>2024-07-07T07:25:25.938Z</time>
      </trkpt>
      <trkpt lat="52.83086" lon="5.82936">
        <ele>48.478784</ele>
        <time>2024-07-07T07:25:27.934Z</time>
      </trkpt>
      <trkpt lat="52.83095" lon="5.82938">
        <ele>48.459508</ele>
        <time>2024-07-07T07:25:29.939Z</time>
      </trkpt>
      <trkpt lat="52.83105" lon="5.8294">
        <ele>48.439868</ele>
        <time>2024-07-07T07:25:31.940Z</time>
      </trkpt>
      <trkpt lat="52.83114" lon="5.82942">
        <ele>48.419599</ele>
        <time>2024-07-07T07:25:33.940Z</time>
      </trkpt>
      <trkpt lat="52.83123" lon="5.82944">
        <ele>48.406225</ele>
        <time>2024-07-07T07:25:35.943Z</time>
      </trkpt>
      <trkpt lat="52.83133" lon="5.82946">
        <ele>48.415477</ele>
        <time>2024-07-07T07:25:37.941Z</time>
      </trkpt>
      <trkpt lat="52.83144" lon="5.82949">
        <ele>48.42494</ele>
        <time>2024-07-07T07:25:39.955Z</time>
      </trkpt>
      <trkpt lat="52.83154" lon="5.82951">
        <ele>48.434172</ele>
        <time>2024-07-07T07:25:41.931Z</time>
      </trkpt>
      <trkpt lat="52.83164" lon="5.82953">
        <ele>48.443424</ele>
        <time>2024-07-07T07:25:43.940Z</time>
      </trkpt>
      <trkpt lat="52.83174" lon="5.82955">
        <ele>48.452331</ele>
        <time>2024-07-07T07:25:45.941Z</time>
      </trkpt>
      <trkpt lat="52.83183" lon="5.82957">
        <ele>48.460856</ele>
        <time>2024-07-07T07:25:47.951Z</time>
      </trkpt>
      <trkpt lat="52.83192" lon="5.8296">
        <ele>48.469396</ele>
        <time>2024-07-07T07:25:49.933Z</time>
      </trkpt>
      <trkpt lat="52.83202" lon="5.82962">
        <ele>48.478004</ele>
        <time>2024-07-07T07:25:51.925Z</time>
      </trkpt>
      <trkpt lat="52.83211" lon="5.82963">
        <ele>48.486928</ele>
        <time>2024-07-07T07:25:53.941Z</time>
      </trkpt>
      <trkpt lat="52.83221" lon="5.82965">
        <ele>48.495828</ele>
        <time>2024-07-07T07:25:55.956Z</time>
      </trkpt>
      <trkpt lat="52.83231" lon="5.82967">
        <ele>48.505054</ele>
        <time>2024-07-07T07:25:57.939Z</time>
      </trkpt>
      <trkpt lat="52.83241" lon="5.82969">
        <ele>48.514274</ele>
        <time>2024-07-07T07:25:59.947Z</time>
      </trkpt>
      <trkpt lat="52.83252" lon="5.82971">
        <ele>48.523597</ele>
        <time>2024-07-07T07:26:01.947Z</time>
      </trkpt>
      <trkpt lat="52.83261" lon="5.82973">
        <ele>48.532243</ele>
        <time>2024-07-07T07:26:03.947Z</time>
      </trkpt>
      <trkpt lat="52.83274" lon="5.82976">
        <ele>48.544368</ele>
        <time>2024-07-07T07:26:06.942Z</time>
      </trkpt>
      <trkpt lat="52.83287" lon="5.8298">
        <ele>48.55616</ele>
        <time>2024-07-07T07:26:09.957Z</time>
      </trkpt>
      <trkpt lat="52.83296" lon="5.82984">
        <ele>48.564988</ele>
        <time>2024-07-07T07:26:11.938Z</time>
      </trkpt>
      <trkpt lat="52.83307" lon="5.82988">
        <ele>48.57776</ele>
        <time>2024-07-07T07:26:13.937Z</time>
      </trkpt>
      <trkpt lat="52.83315" lon="5.82992">
        <ele>48.589945</ele>
        <time>2024-07-07T07:26:15.943Z</time>
      </trkpt>
      <trkpt lat="52.83324" lon="5.82999">
        <ele>48.603093</ele>
        <time>2024-07-07T07:26:17.941Z</time>
      </trkpt>
      <trkpt lat="52.83333" lon="5.83006">
        <ele>48.616348</ele>
        <time>2024-07-07T07:26:19.945Z</time>
      </trkpt>
      <trkpt lat="52.83342" lon="5.83015">
        <ele>48.62973</ele>
        <time>2024-07-07T07:26:21.955Z</time>
      </trkpt>
      <trkpt lat="52.8335" lon="5.83024">
        <ele>48.643267</ele>
        <time>2024-07-07T07:26:23.937Z</time>
      </trkpt>
      <trkpt lat="52.83359" lon="5.83033">
        <ele>48.657282</ele>
        <time>2024-07-07T07:26:25.951Z</time>
      </trkpt>
      <trkpt lat="52.83367" lon="5.83043">
        <ele>48.670384</ele>
        <time>2024-07-07T07:26:27.941Z</time>
      </trkpt>
      <trkpt lat="52.83375" lon="5.83053">
        <ele>48.684008</ele>
        <time>2024-07-07T07:26:29.943Z</time>
      </trkpt>
      <trkpt lat="52.83383" lon="5.83063">
        <ele>48.697409</ele>
        <time>2024-07-07T07:26:31.939Z</time>
      </trkpt>
      <trkpt lat="52.83392" lon="5.83073">
        <ele>48.711346</ele>
        <time>2024-07-07T07:26:33.942Z</time>
      </trkpt>
      <trkpt lat="52.83401" lon="5.83084">
        <ele>48.726151</ele>
        <time>2024-07-07T07:26:35.939Z</time>
      </trkpt>
      <trkpt lat="52.83409" lon="5.83094">
        <ele>48.740253</ele>
        <time>2024-07-07T07:26:37.947Z</time>
      </trkpt>
      <trkpt lat="52.83418" lon="5.83104">
        <ele>48.753658</ele>
        <time>2024-07-07T07:26:39.942Z</time>
      </trkpt>
      <trkpt lat="52.83426" lon="5.83114">
        <ele>48.767342</ele>
        <time>2024-07-07T07:26:41.946Z</time>
      </trkpt>
      <trkpt lat="52.83433" lon="5.83123">
        <ele>48.779785</ele>
        <time>2024-07-07T07:26:43.947Z</time>
      </trkpt>
      <trkpt lat="52.83444" lon="5.83136">
        <ele>48.796798</ele>
        <time>2024-07-07T07:26:46.937Z</time>
      </trkpt>
      <trkpt lat="52.83455" lon="5.83147">
        <ele>48.800321</ele>
        <time>2024-07-07T07:26:49.950Z</time>
      </trkpt>
      <trkpt lat="52.83462" lon="5.83156">
        <ele>48.787783</ele>
        <time>2024-07-07T07:26:51.950Z</time>
      </trkpt>
      <trkpt lat="52.8347" lon="5.83164">
        <ele>48.775035</ele>
        <time>2024-07-07T07:26:53.927Z</time>
      </trkpt>
      <trkpt lat="52.83477" lon="5.83174">
        <ele>48.761807</ele>
        <time>2024-07-07T07:26:55.934Z</time>
      </trkpt>
      <trkpt lat="52.83484" lon="5.83183">
        <ele>48.749106</ele>
        <time>2024-07-07T07:26:57.932Z</time>
      </trkpt>
      <trkpt lat="52.83492" lon="5.83192">
        <ele>48.736182</ele>
        <time>2024-07-07T07:26:59.952Z</time>
      </trkpt>
      <trkpt lat="52.83499" lon="5.83201">
        <ele>48.72337</ele>
        <time>2024-07-07T07:27:01.939Z</time>
      </trkpt>
      <trkpt lat="52.83507" lon="5.8321">
        <ele>48.71001</ele>
        <time>2024-07-07T07:27:03.935Z</time>
      </trkpt>
      <trkpt lat="52.83515" lon="5.83221">
        <ele>48.696359</ele>
        <time>2024-07-07T07:27:05.950Z</time>
      </trkpt>
      <trkpt lat="52.83523" lon="5.8323">
        <ele>48.683096</ele>
        <time>2024-07-07T07:27:07.935Z</time>
      </trkpt>
      <trkpt lat="52.83531" lon="5.83239">
        <ele>48.669605</ele>
        <time>2024-07-07T07:27:09.939Z</time>
      </trkpt>
      <trkpt lat="52.83538" lon="5.83248">
        <ele>48.65642</ele>
        <time>2024-07-07T07:27:11.942Z</time>
      </trkpt>
      <trkpt lat="52.83546" lon="5.83258">
        <ele>48.642657</ele>
        <time>2024-07-07T07:27:13.932Z</time>
      </trkpt>
      <trkpt lat="52.83554" lon="5.83268">
        <ele>48.628874</ele>
        <time>2024-07-07T07:27:15.936Z</time>
      </trkpt>
      <trkpt lat="52.83562" lon="5.83278">
        <ele>48.615001</ele>
        <time>2024-07-07T07:27:17.944Z</time>
      </trkpt>
      <trkpt lat="52.83569" lon="5.83287">
        <ele>48.602028</ele>
        <time>2024-07-07T07:27:19.941Z</time>
      </trkpt>
      <trkpt lat="52.83578" lon="5.83297">
        <ele>48.588213</ele>
        <time>2024-07-07T07:27:21.936Z</time>
      </trkpt>
      <trkpt lat="52.83585" lon="5.83306">
        <ele>48.574691</ele>
        <time>2024-07-07T07:27:23.939Z</time>
      </trkpt>
      <trkpt lat="52.83594" lon="5.83315">
        <ele>48.560297</ele>
        <time>2024-07-07T07:27:25.935Z</time>
      </trkpt>
      <trkpt lat="52.83603" lon="5.83325">
        <ele>48.560059</ele>
        <time>2024-07-07T07:27:27.952Z</time>
      </trkpt>
      <trkpt lat="52.8361" lon="5.83335">
        <ele>48.563263</ele>
        <time>2024-07-07T07:27:29.940Z</time>
      </trkpt>
      <trkpt lat="52.83618" lon="5.83344">
        <ele>48.566415</ele>
        <time>2024-07-07T07:27:31.936Z</time>
      </trkpt>
      <trkpt lat="52.83626" lon="5.83354">
        <ele>48.569574</ele>
        <time>2024-07-07T07:27:33.932Z</time>
      </trkpt>
      <trkpt lat="52.83634" lon="5.83363">
        <ele>48.572862</ele>
        <time>2024-07-07T07:27:35.937Z</time>
      </trkpt>
      <trkpt lat="52.83643" lon="5.83371">
        <ele>48.576207</ele>
        <time>2024-07-07T07:27:37.938Z</time>
      </trkpt>
      <trkpt lat="52.83652" lon="5.8338">
        <ele>48.579511</ele>
        <time>2024-07-07T07:27:39.934Z</time>
      </trkpt>
      <trkpt lat="52.83661" lon="5.83388">
        <ele>48.582828</ele>
        <time>2024-07-07T07:27:41.943Z</time>
      </trkpt>
      <trkpt lat="52.8367" lon="5.83395">
        <ele>48.586093</ele>
        <time>2024-07-07T07:27:43.929Z</time>
      </trkpt>
      <trkpt lat="52.83678" lon="5.83402">
        <ele>48.58924</ele>
        <time>2024-07-07T07:27:45.956Z</time>
      </trkpt>
      <trkpt lat="52.83687" lon="5.83409">
        <ele>48.592387</ele>
        <time>2024-07-07T07:27:47.939Z</time>
      </trkpt>
      <trkpt lat="52.83696" lon="5.83415">
        <ele>48.595595</ele>
        <time>2024-07-07T07:27:49.940Z</time>
      </trkpt>
      <trkpt lat="52.83705" lon="5.8342">
        <ele>48.598809</ele>
        <time>2024-07-07T07:27:51.952Z</time>
      </trkpt>
      <trkpt lat="52.83714" lon="5.83427">
        <ele>48.602077</ele>
        <time>2024-07-07T07:27:53.934Z</time>
      </trkpt>
      <trkpt lat="52.83724" lon="5.83433">
        <ele>48.605308</ele>
        <time>2024-07-07T07:27:55.940Z</time>
      </trkpt>
      <trkpt lat="52.83733" lon="5.83438">
        <ele>48.608392</ele>
        <time>2024-07-07T07:27:57.933Z</time>
      </trkpt>
      <trkpt lat="52.83742" lon="5.83443">
        <ele>48.611579</ele>
        <time>2024-07-07T07:27:59.947Z</time>
      </trkpt>
      <trkpt lat="52.83751" lon="5.83448">
        <ele>48.614725</ele>
        <time>2024-07-07T07:28:01.946Z</time>
      </trkpt>
      <trkpt lat="52.8376" lon="5.83454">
        <ele>48.627873</ele>
        <time>2024-07-07T07:28:03.935Z</time>
      </trkpt>
      <trkpt lat="52.83769" lon="5.8346">
        <ele>48.650465</ele>
        <time>2024-07-07T07:28:05.940Z</time>
      </trkpt>
      <trkpt lat="52.83778" lon="5.83466">
        <ele>48.673157</ele>
        <time>2024-07-07T07:28:07.947Z</time>
      </trkpt>
      <trkpt lat="52.83787" lon="5.83473">
        <ele>48.696013</ele>
        <time>2024-07-07T07:28:09.951Z</time>
      </trkpt>
      <trkpt lat="52.83796" lon="5.8348">
        <ele>48.718892</ele>
        <time>2024-07-07T07:28:11.945Z</time>
      </trkpt>
      <trkpt lat="52.83805" lon="5.83487">
        <ele>48.741748</ele>
        <time>2024-07-07T07:28:13.935Z</time>
      </trkpt>
      <trkpt lat="52.83814" lon="5.83496">
        <ele>48.764442</ele>
        <time>2024-07-07T07:28:15.932Z</time>
      </trkpt>
      <trkpt lat="52.83822" lon="5.83506">
        <ele>48.788324</ele>
        <time>2024-07-07T07:28:17.935Z</time>
      </trkpt>
      <trkpt lat="52.8383" lon="5.83517">
        <ele>48.811664</ele>
        <time>2024-07-07T07:28:19.946Z</time>
      </trkpt>
      <trkpt lat="52.83837" lon="5.8353">
        <ele>48.835966</ele>
        <time>2024-07-07T07:28:21.940Z</time>
      </trkpt>
      <trkpt lat="52.83845" lon="5.83541">
        <ele>48.860463</ele>
        <time>2024-07-07T07:28:23.936Z</time>
      </trkpt>
      <trkpt lat="52.83853" lon="5.83554">
        <ele>48.885212</ele>
        <time>2024-07-07T07:28:25.949Z</time>
      </trkpt>
      <trkpt lat="52.8386" lon="5.83567">
        <ele>48.909921</ele>
        <time>2024-07-07T07:28:27.943Z</time>
      </trkpt>
      <trkpt lat="52.83867" lon="5.8358">
        <ele>48.934683</ele>
        <time>2024-07-07T07:28:29.934Z</time>
      </trkpt>
      <trkpt lat="52.83875" lon="5.83593">
        <ele>48.95939</ele>
        <time>2024-07-07T07:28:31.951Z</time>
      </trkpt>
      <trkpt lat="52.83883" lon="5.83606">
        <ele>48.984207</ele>
        <time>2024-07-07T07:28:33.949Z</time>
      </trkpt>
      <trkpt lat="52.8389" lon="5.83619">
        <ele>49.009581</ele>
        <time>2024-07-07T07:28:35.937Z</time>
      </trkpt>
      <trkpt lat="52.83897" lon="5.83632">
        <ele>49.044864</ele>
        <time>2024-07-07T07:28:37.939Z</time>
      </trkpt>
      <trkpt lat="52.83905" lon="5.83644">
        <ele>49.117531</ele>
        <time>2024-07-07T07:28:39.942Z</time>
      </trkpt>
      <trkpt lat="52.83912" lon="5.83657">
        <ele>49.193578</ele>
        <time>2024-07-07T07:28:41.949Z</time>
      </trkpt>
      <trkpt lat="52.83919" lon="5.83671">
        <ele>49.269898</ele>
        <time>2024-07-07T07:28:43.941Z</time>
      </trkpt>
      <trkpt lat="52.83927" lon="5.83684">
        <ele>49.348117</ele>
        <time>2024-07-07T07:28:45.944Z</time>
      </trkpt>
      <trkpt lat="52.83935" lon="5.83696">
        <ele>49.423622</ele>
        <time>2024-07-07T07:28:47.941Z</time>
      </trkpt>
      <trkpt lat="52.83942" lon="5.83709">
        <ele>49.498719</ele>
        <time>2024-07-07T07:28:49.933Z</time>
      </trkpt>
      <trkpt lat="52.83949" lon="5.83722">
        <ele>49.57383</ele>
        <time>2024-07-07T07:28:51.942Z</time>
      </trkpt>
      <trkpt lat="52.83956" lon="5.83734">
        <ele>49.64608</ele>
        <time>2024-07-07T07:28:53.951Z</time>
      </trkpt>
      <trkpt lat="52.83963" lon="5.83746">
        <ele>49.718185</ele>
        <time>2024-07-07T07:28:55.952Z</time>
      </trkpt>
      <trkpt lat="52.8397" lon="5.83759">
        <ele>49.789209</ele>
        <time>2024-07-07T07:28:57.939Z</time>
      </trkpt>
      <trkpt lat="52.83976" lon="5.83771">
        <ele>49.8588</ele>
        <time>2024-07-07T07:28:59.952Z</time>
      </trkpt>
      <trkpt lat="52.83982" lon="5.83784">
        <ele>49.92958</ele>
        <time>2024-07-07T07:29:01.946Z</time>
      </trkpt>
      <trkpt lat="52.8399" lon="5.83797">
        <ele>50.004564</ele>
        <time>2024-07-07T07:29:03.940Z</time>
      </trkpt>
      <trkpt lat="52.83996" lon="5.83809">
        <ele>50.074768</ele>
        <time>2024-07-07T07:29:05.940Z</time>
      </trkpt>
      <trkpt lat="52.84004" lon="5.83821">
        <ele>50.146935</ele>
        <time>2024-07-07T07:29:07.939Z</time>
      </trkpt>
      <trkpt lat="52.84011" lon="5.83833">
        <ele>50.220631</ele>
        <time>2024-07-07T07:29:09.935Z</time>
      </trkpt>
      <trkpt lat="52.84018" lon="5.83847">
        <ele>50.297975</ele>
        <time>2024-07-07T07:29:11.941Z</time>
      </trkpt>
      <trkpt lat="52.84025" lon="5.8386">
        <ele>50.324442</ele>
        <time>2024-07-07T07:29:13.939Z</time>
      </trkpt>
      <trkpt lat="52.84033" lon="5.83872">
        <ele>50.348836</ele>
        <time>2024-07-07T07:29:15.935Z</time>
      </trkpt>
      <trkpt lat="52.8404" lon="5.83885">
        <ele>50.374578</ele>
        <time>2024-07-07T07:29:17.945Z</time>
      </trkpt>
      <trkpt lat="52.84048" lon="5.83897">
        <ele>50.399453</ele>
        <time>2024-07-07T07:29:19.949Z</time>
      </trkpt>
      <trkpt lat="52.84055" lon="5.8391">
        <ele>50.424329</ele>
        <time>2024-07-07T07:29:21.930Z</time>
      </trkpt>
      <trkpt lat="52.84062" lon="5.83923">
        <ele>50.450158</ele>
        <time>2024-07-07T07:29:23.950Z</time>
      </trkpt>
      <trkpt lat="52.84069" lon="5.83936">
        <ele>50.474662</ele>
        <time>2024-07-07T07:29:25.932Z</time>
      </trkpt>
      <trkpt lat="52.84076" lon="5.83948">
        <ele>50.498527</ele>
        <time>2024-07-07T07:29:27.927Z</time>
      </trkpt>
      <trkpt lat="52.84083" lon="5.8396">
        <ele>50.523155</ele>
        <time>2024-07-07T07:29:29.945Z</time>
      </trkpt>
      <trkpt lat="52.8409" lon="5.83972">
        <ele>50.547335</ele>
        <time>2024-07-07T07:29:31.936Z</time>
      </trkpt>
      <trkpt lat="52.84097" lon="5.83985">
        <ele>50.571515</ele>
        <time>2024-07-07T07:29:33.947Z</time>
      </trkpt>
      <trkpt lat="52.84104" lon="5.83996">
        <ele>50.595369</ele>
        <time>2024-07-07T07:29:35.947Z</time>
      </trkpt>
      <trkpt lat="52.84112" lon="5.84008">
        <ele>50.620133</ele>
        <time>2024-07-07T07:29:37.941Z</time>
      </trkpt>
      <trkpt lat="52.84118" lon="5.84021">
        <ele>50.644424</ele>
        <time>2024-07-07T07:29:39.943Z</time>
      </trkpt>
      <trkpt lat="52.84126" lon="5.84033">
        <ele>50.668886</ele>
        <time>2024-07-07T07:29:41.946Z</time>
      </trkpt>
      <trkpt lat="52.84132" lon="5.84046">
        <ele>50.692268</ele>
        <time>2024-07-07T07:29:43.936Z</time>
      </trkpt>
      <trkpt lat="52.8414" lon="5.84057">
        <ele>50.716193</ele>
        <time>2024-07-07T07:29:45.951Z</time>
      </trkpt>
      <trkpt lat="52.84146" lon="5.84068">
        <ele>50.69498</ele>
        <time>2024-07-07T07:29:47.935Z</time>
      </trkpt>
      <trkpt lat="52.84153" lon="5.84081">
        <ele>50.63278</ele>
        <time>2024-07-07T07:29:49.934Z</time>
      </trkpt>
      <trkpt lat="52.8416" lon="5.84092">
        <ele>50.573645</ele>
        <time>2024-07-07T07:29:51.942Z</time>
      </trkpt>
      <trkpt lat="52.84167" lon="5.84103">
        <ele>50.514755</ele>
        <time>2024-07-07T07:29:53.944Z</time>
      </trkpt>
      <trkpt lat="52.84175" lon="5.84114">
        <ele>50.453865</ele>
        <time>2024-07-07T07:29:55.943Z</time>
      </trkpt>
      <trkpt lat="52.84182" lon="5.84125">
        <ele>50.391694</ele>
        <time>2024-07-07T07:29:57.941Z</time>
      </trkpt>
      <trkpt lat="52.8419" lon="5.84135">
        <ele>50.332314</ele>
        <time>2024-07-07T07:29:59.944Z</time>
      </trkpt>
      <trkpt lat="52.84199" lon="5.84143">
        <ele>50.271398</ele>
        <time>2024-07-07T07:30:01.922Z</time>
      </trkpt>
      <trkpt lat="52.84208" lon="5.84151">
        <ele>50.210296</ele>
        <time>2024-07-07T07:30:03.931Z</time>
      </trkpt>
      <trkpt lat="52.84218" lon="5.84157">
        <ele>50.145632</ele>
        <time>2024-07-07T07:30:05.949Z</time>
      </trkpt>
      <trkpt lat="52.84228" lon="5.84162">
        <ele>50.080606</ele>
        <time>2024-07-07T07:30:07.942Z</time>
      </trkpt>
      <trkpt lat="52.84238" lon="5.84167">
        <ele>50.02081</ele>
        <time>2024-07-07T07:30:09.930Z</time>
      </trkpt>
      <trkpt lat="52.84248" lon="5.84172">
        <ele>49.957932</ele>
        <time>2024-07-07T07:30:11.940Z</time>
      </trkpt>
      <trkpt lat="52.84257" lon="5.84174">
        <ele>49.897973</ele>
        <time>2024-07-07T07:30:13.943Z</time>
      </trkpt>
      <trkpt lat="52.84267" lon="5.84175">
        <ele>49.838748</ele>
        <time>2024-07-07T07:30:15.940Z</time>
      </trkpt>
      <trkpt lat="52.84281" lon="5.84177">
        <ele>49.75611</ele>
        <time>2024-07-07T07:30:18.934Z</time>
      </trkpt>
      <trkpt lat="52.84291" lon="5.84177">
        <ele>49.693587</ele>
        <time>2024-07-07T07:30:20.934Z</time>
      </trkpt>
      <trkpt lat="52.843" lon="5.84175">
        <ele>49.635568</ele>
        <time>2024-07-07T07:30:22.942Z</time>
      </trkpt>
      <trkpt lat="52.8431" lon="5.84175">
        <ele>49.581297</ele>
        <time>2024-07-07T07:30:24.932Z</time>
      </trkpt>
      <trkpt lat="52.8432" lon="5.84172">
        <ele>49.528049</ele>
        <time>2024-07-07T07:30:26.932Z</time>
      </trkpt>
      <trkpt lat="52.84329" lon="5.84169">
        <ele>49.472853</ele>
        <time>2024-07-07T07:30:28.916Z</time>
      </trkpt>
      <trkpt lat="52.84339" lon="5.84166">
        <ele>49.418139</ele>
        <time>2024-07-07T07:30:30.931Z</time>
      </trkpt>
      <trkpt lat="52.84348" lon="5.84162">
        <ele>49.365357</ele>
        <time>2024-07-07T07:30:32.940Z</time>
      </trkpt>
      <trkpt lat="52.84357" lon="5.84158">
        <ele>49.313292</ele>
        <time>2024-07-07T07:30:34.939Z</time>
      </trkpt>
      <trkpt lat="52.84366" lon="5.84153">
        <ele>49.258526</ele>
        <time>2024-07-07T07:30:36.934Z</time>
      </trkpt>
      <trkpt lat="52.84376" lon="5.8415">
        <ele>49.206201</ele>
        <time>2024-07-07T07:30:38.931Z</time>
      </trkpt>
      <trkpt lat="52.84385" lon="5.84148">
        <ele>49.1508</ele>
        <time>2024-07-07T07:30:40.953Z</time>
      </trkpt>
      <trkpt lat="52.84395" lon="5.84144">
        <ele>49.094486</ele>
        <time>2024-07-07T07:30:42.938Z</time>
      </trkpt>
      <trkpt lat="52.84404" lon="5.8414">
        <ele>49.04296</ele>
        <time>2024-07-07T07:30:44.937Z</time>
      </trkpt>
      <trkpt lat="52.84413" lon="5.84135">
        <ele>48.98964</ele>
        <time>2024-07-07T07:30:46.949Z</time>
      </trkpt>
      <trkpt lat="52.84423" lon="5.84131">
        <ele>48.933706</ele>
        <time>2024-07-07T07:30:48.927Z</time>
      </trkpt>
      <trkpt lat="52.84432" lon="5.84128">
        <ele>48.879799</ele>
        <time>2024-07-07T07:30:50.934Z</time>
      </trkpt>
      <trkpt lat="52.84442" lon="5.84123">
        <ele>48.824497</ele>
        <time>2024-07-07T07:30:52.932Z</time>
      </trkpt>
      <trkpt lat="52.84451" lon="5.8412">
        <ele>48.77252</ele>
        <time>2024-07-07T07:30:54.938Z</time>
      </trkpt>
      <trkpt lat="52.8446" lon="5.84116">
        <ele>48.71908</ele>
        <time>2024-07-07T07:30:56.947Z</time>
      </trkpt>
      <trkpt lat="52.8447" lon="5.84112">
        <ele>48.664853</ele>
        <time>2024-07-07T07:30:58.926Z</time>
      </trkpt>
      <trkpt lat="52.84479" lon="5.84108">
        <ele>48.624998</ele>
        <time>2024-07-07T07:31:00.939Z</time>
      </trkpt>
      <trkpt lat="52.84489" lon="5.84104">
        <ele>48.608088</ele>
        <time>2024-07-07T07:31:02.946Z</time>
      </trkpt>
      <trkpt lat="52.84498" lon="5.841">
        <ele>48.592184</ele>
        <time>2024-07-07T07:31:04.940Z</time>
      </trkpt>
      <trkpt lat="52.84507" lon="5.84097">
        <ele>48.576857</ele>
        <time>2024-07-07T07:31:06.936Z</time>
      </trkpt>
      <trkpt lat="52.84516" lon="5.84093">
        <ele>48.5616</ele>
        <time>2024-07-07T07:31:08.924Z</time>
      </trkpt>
      <trkpt lat="52.84525" lon="5.84088">
        <ele>48.545968</ele>
        <time>2024-07-07T07:31:10.944Z</time>
      </trkpt>
      <trkpt lat="52.84534" lon="5.84084">
        <ele>48.530287</ele>
        <time>2024-07-07T07:31:12.959Z</time>
      </trkpt>
      <trkpt lat="52.84543" lon="5.8408">
        <ele>48.514149</ele>
        <time>2024-07-07T07:31:14.942Z</time>
      </trkpt>
      <trkpt lat="52.84553" lon="5.84077">
        <ele>48.497337</ele>
        <time>2024-07-07T07:31:16.943Z</time>
      </trkpt>
      <trkpt lat="52.84562" lon="5.84074">
        <ele>48.481818</ele>
        <time>2024-07-07T07:31:18.934Z</time>
      </trkpt>
      <trkpt lat="52.84572" lon="5.8407">
        <ele>48.465568</ele>
        <time>2024-07-07T07:31:20.944Z</time>
      </trkpt>
      <trkpt lat="52.84581" lon="5.84068">
        <ele>48.449753</ele>
        <time>2024-07-07T07:31:22.943Z</time>
      </trkpt>
      <trkpt lat="52.8459" lon="5.84065">
        <ele>48.43407</ele>
        <time>2024-07-07T07:31:24.921Z</time>
      </trkpt>
      <trkpt lat="52.846" lon="5.84064">
        <ele>48.418586</ele>
        <time>2024-07-07T07:31:26.934Z</time>
      </trkpt>
      <trkpt lat="52.84609" lon="5.84065">
        <ele>48.40311</ele>
        <time>2024-07-07T07:31:28.924Z</time>
      </trkpt>
      <trkpt lat="52.84619" lon="5.84065">
        <ele>48.386815</ele>
        <time>2024-07-07T07:31:30.944Z</time>
      </trkpt>
      <trkpt lat="52.84632" lon="5.8407">
        <ele>48.36469</ele>
        <time>2024-07-07T07:31:33.938Z</time>
      </trkpt>
      <trkpt lat="52.84645" lon="5.84076">
        <ele>48.342428</ele>
        <time>2024-07-07T07:31:36.945Z</time>
      </trkpt>
      <trkpt lat="52.84654" lon="5.84082">
        <ele>48.342024</ele>
        <time>2024-07-07T07:31:38.928Z</time>
      </trkpt>
      <trkpt lat="52.84662" lon="5.84087">
        <ele>48.376221</ele>
        <time>2024-07-07T07:31:40.941Z</time>
      </trkpt>
      <trkpt lat="52.84671" lon="5.84091">
        <ele>48.411406</ele>
        <time>2024-07-07T07:31:42.943Z</time>
      </trkpt>
      <trkpt lat="52.8468" lon="5.84096">
        <ele>48.445295</ele>
        <time>2024-07-07T07:31:44.940Z</time>
      </trkpt>
      <trkpt lat="52.84688" lon="5.84102">
        <ele>48.478987</ele>
        <time>2024-07-07T07:31:46.931Z</time>
      </trkpt>
      <trkpt lat="52.84697" lon="5.84107">
        <ele>48.514153</ele>
        <time>2024-07-07T07:31:48.932Z</time>
      </trkpt>
      <trkpt lat="52.84706" lon="5.84113">
        <ele>48.549714</ele>
        <time>2024-07-07T07:31:50.941Z</time>
      </trkpt>
      <trkpt lat="52.84715" lon="5.84117">
        <ele>48.584024</ele>
        <time>2024-07-07T07:31:52.930Z</time>
      </trkpt>
      <trkpt lat="52.84723" lon="5.84123">
        <ele>48.617697</ele>
        <time>2024-07-07T07:31:54.950Z</time>
      </trkpt>
      <trkpt lat="52.84732" lon="5.84129">
        <ele>48.652242</ele>
        <time>2024-07-07T07:31:56.932Z</time>
      </trkpt>
      <trkpt lat="52.84741" lon="5.84133">
        <ele>48.686267</ele>
        <time>2024-07-07T07:31:58.933Z</time>
      </trkpt>
      <trkpt lat="52.84749" lon="5.84139">
        <ele>48.72002</ele>
        <time>2024-07-07T07:32:00.943Z</time>
      </trkpt>
      <trkpt lat="52.84758" lon="5.84144">
        <ele>48.75426</ele>
        <time>2024-07-07T07:32:02.989Z</time>
      </trkpt>
      <trkpt lat="52.84767" lon="5.84149">
        <ele>48.789701</ele>
        <time>2024-07-07T07:32:04.943Z</time>
      </trkpt>
      <trkpt lat="52.84776" lon="5.84155">
        <ele>48.826223</ele>
        <time>2024-07-07T07:32:06.939Z</time>
      </trkpt>
      <trkpt lat="52.84785" lon="5.8416">
        <ele>48.859761</ele>
        <time>2024-07-07T07:32:08.927Z</time>
      </trkpt>
      <trkpt lat="52.84794" lon="5.84166">
        <ele>48.895751</ele>
        <time>2024-07-07T07:32:10.934Z</time>
      </trkpt>
      <trkpt lat="52.84803" lon="5.84171">
        <ele>48.931419</ele>
        <time>2024-07-07T07:32:12.941Z</time>
      </trkpt>
      <trkpt lat="52.84812" lon="5.84177">
        <ele>48.967491</ele>
        <time>2024-07-07T07:32:14.942Z</time>
      </trkpt>
      <trkpt lat="52.84821" lon="5.84182">
        <ele>49.001111</ele>
        <time>2024-07-07T07:32:16.932Z</time>
      </trkpt>
      <trkpt lat="52.8483" lon="5.84188">
        <ele>49.013304</ele>
        <time>2024-07-07T07:32:18.932Z</time>
      </trkpt>
      <trkpt lat="52.84839" lon="5.84194">
        <ele>49.025792</ele>
        <time>2024-07-07T07:32:20.931Z</time>
      </trkpt>
      <trkpt lat="52.84849" lon="5.84199">
        <ele>49.03839</ele>
        <time>2024-07-07T07:32:22.933Z</time>
      </trkpt>
      <trkpt lat="52.84858" lon="5.84205">
        <ele>49.050734</ele>
        <time>2024-07-07T07:32:24.936Z</time>
      </trkpt>
      <trkpt lat="52.84868" lon="5.8421">
        <ele>49.063048</ele>
        <time>2024-07-07T07:32:26.945Z</time>
      </trkpt>
      <trkpt lat="52.84877" lon="5.84215">
        <ele>49.075504</ele>
        <time>2024-07-07T07:32:28.926Z</time>
      </trkpt>
      <trkpt lat="52.84886" lon="5.84222">
        <ele>49.088156</ele>
        <time>2024-07-07T07:32:30.944Z</time>
      </trkpt>
      <trkpt lat="52.84896" lon="5.84227">
        <ele>49.100612</ele>
        <time>2024-07-07T07:32:32.949Z</time>
      </trkpt>
      <trkpt lat="52.84906" lon="5.84233">
        <ele>49.113593</ele>
        <time>2024-07-07T07:32:34.945Z</time>
      </trkpt>
      <trkpt lat="52.84915" lon="5.84239">
        <ele>49.12642</ele>
        <time>2024-07-07T07:32:36.935Z</time>
      </trkpt>
      <trkpt lat="52.84925" lon="5.84245">
        <ele>49.139303</ele>
        <time>2024-07-07T07:32:38.940Z</time>
      </trkpt>
      <trkpt lat="52.84935" lon="5.84251">
        <ele>49.152025</ele>
        <time>2024-07-07T07:32:40.940Z</time>
      </trkpt>
      <trkpt lat="52.84944" lon="5.84257">
        <ele>49.164915</ele>
        <time>2024-07-07T07:32:42.932Z</time>
      </trkpt>
      <trkpt lat="52.84954" lon="5.84263">
        <ele>49.177403</ele>
        <time>2024-07-07T07:32:44.938Z</time>
      </trkpt>
      <trkpt lat="52.84964" lon="5.84269">
        <ele>49.190638</ele>
        <time>2024-07-07T07:32:46.950Z</time>
      </trkpt>
      <trkpt lat="52.84973" lon="5.84273">
        <ele>49.203122</ele>
        <time>2024-07-07T07:32:48.936Z</time>
      </trkpt>
      <trkpt lat="52.84982" lon="5.8428">
        <ele>49.215437</ele>
        <time>2024-07-07T07:32:50.934Z</time>
      </trkpt>
      <trkpt lat="52.84992" lon="5.84286">
        <ele>49.237018</ele>
        <time>2024-07-07T07:32:52.934Z</time>
      </trkpt>
      <trkpt lat="52.85002" lon="5.84292">
        <ele>49.275756</ele>
        <time>2024-07-07T07:32:54.914Z</time>
      </trkpt>
      <trkpt lat="52.85012" lon="5.84298">
        <ele>49.313404</ele>
        <time>2024-07-07T07:32:56.933Z</time>
      </trkpt>
      <trkpt lat="52.85021" lon="5.84303">
        <ele>49.350639</ele>
        <time>2024-07-07T07:32:58.936Z</time>
      </trkpt>
      <trkpt lat="52.85031" lon="5.8431">
        <ele>49.388595</ele>
        <time>2024-07-07T07:33:00.943Z</time>
      </trkpt>
      <trkpt lat="52.8504" lon="5.84316">
        <ele>49.425956</ele>
        <time>2024-07-07T07:33:02.935Z</time>
      </trkpt>
      <trkpt lat="52.85049" lon="5.84323">
        <ele>49.464084</ele>
        <time>2024-07-07T07:33:04.943Z</time>
      </trkpt>
      <trkpt lat="52.85059" lon="5.84329">
        <ele>49.501955</ele>
        <time>2024-07-07T07:33:06.951Z</time>
      </trkpt>
      <trkpt lat="52.85068" lon="5.84337">
        <ele>49.540293</ele>
        <time>2024-07-07T07:33:08.929Z</time>
      </trkpt>
      <trkpt lat="52.85078" lon="5.84344">
        <ele>49.579636</ele>
        <time>2024-07-07T07:33:10.933Z</time>
      </trkpt>
      <trkpt lat="52.85087" lon="5.84352">
        <ele>49.619403</ele>
        <time>2024-07-07T07:33:12.939Z</time>
      </trkpt>
      <trkpt lat="52.85097" lon="5.84361">
        <ele>49.660807</ele>
        <time>2024-07-07T07:33:14.941Z</time>
      </trkpt>
      <trkpt lat="52.85107" lon="5.84369">
        <ele>49.699708</ele>
        <time>2024-07-07T07:33:16.949Z</time>
      </trkpt>
      <trkpt lat="52.85117" lon="5.84377">
        <ele>49.740096</ele>
        <time>2024-07-07T07:33:18.940Z</time>
      </trkpt>
      <trkpt lat="52.85126" lon="5.84385">
        <ele>49.779213</ele>
        <time>2024-07-07T07:33:20.919Z</time>
      </trkpt>
      <trkpt lat="52.85135" lon="5.84393">
        <ele>49.816416</ele>
        <time>2024-07-07T07:33:22.934Z</time>
      </trkpt>
      <trkpt lat="52.85144" lon="5.84401">
        <ele>49.85481</ele>
        <time>2024-07-07T07:33:24.936Z</time>
      </trkpt>
      <trkpt lat="52.85153" lon="5.84409">
        <ele>49.886562</ele>
        <time>2024-07-07T07:33:26.918Z</time>
      </trkpt>
      <trkpt lat="52.85162" lon="5.84417">
        <ele>49.87433</ele>
        <time>2024-07-07T07:33:28.934Z</time>
      </trkpt>
      <trkpt lat="52.85171" lon="5.84425">
        <ele>49.86265</ele>
        <time>2024-07-07T07:33:30.937Z</time>
      </trkpt>
      <trkpt lat="52.8518" lon="5.84433">
        <ele>49.850761</ele>
        <time>2024-07-07T07:33:32.940Z</time>
      </trkpt>
      <trkpt lat="52.85189" lon="5.8444">
        <ele>49.838895</ele>
        <time>2024-07-07T07:33:34.938Z</time>
      </trkpt>
      <trkpt lat="52.85198" lon="5.84448">
        <ele>49.826973</ele>
        <time>2024-07-07T07:33:36.933Z</time>
      </trkpt>
      <trkpt lat="52.85206" lon="5.84455">
        <ele>49.815189</ele>
        <time>2024-07-07T07:33:38.929Z</time>
      </trkpt>
      <trkpt lat="52.85216" lon="5.84463">
        <ele>49.803003</ele>
        <time>2024-07-07T07:33:40.948Z</time>
      </trkpt>
      <trkpt lat="52.85225" lon="5.84471">
        <ele>49.790633</ele>
        <time>2024-07-07T07:33:42.938Z</time>
      </trkpt>
      <trkpt lat="52.85234" lon="5.84479">
        <ele>49.778159</ele>
        <time>2024-07-07T07:33:44.941Z</time>
      </trkpt>
      <trkpt lat="52.85244" lon="5.84487">
        <ele>49.765742</ele>
        <time>2024-07-07T07:33:46.939Z</time>
      </trkpt>
      <trkpt lat="52.85253" lon="5.84494">
        <ele>49.753509</ele>
        <time>2024-07-07T07:33:48.931Z</time>
      </trkpt>
      <trkpt lat="52.85262" lon="5.84502">
        <ele>49.741035</ele>
        <time>2024-07-07T07:33:50.943Z</time>
      </trkpt>
      <trkpt lat="52.85271" lon="5.8451">
        <ele>49.729</ele>
        <time>2024-07-07T07:33:52.943Z</time>
      </trkpt>
      <trkpt lat="52.85281" lon="5.84517">
        <ele>49.716637</ele>
        <time>2024-07-07T07:33:54.937Z</time>
      </trkpt>
      <trkpt lat="52.8529" lon="5.84523">
        <ele>49.704904</ele>
        <time>2024-07-07T07:33:56.935Z</time>
      </trkpt>
      <trkpt lat="52.853" lon="5.84529">
        <ele>49.692891</ele>
        <time>2024-07-07T07:33:58.932Z</time>
      </trkpt>
      <trkpt lat="52.85309" lon="5.84535">
        <ele>49.681099</ele>
        <time>2024-07-07T07:34:00.936Z</time>
      </trkpt>
      <trkpt lat="52.85319" lon="5.8454">
        <ele>49.672322</ele>
        <time>2024-07-07T07:34:02.945Z</time>
      </trkpt>
      <trkpt lat="52.85328" lon="5.84546">
        <ele>49.666736</ele>
        <time>2024-07-07T07:34:04.937Z</time>
      </trkpt>
      <trkpt lat="52.85338" lon="5.84551">
        <ele>49.661001</ele>
        <time>2024-07-07T07:34:06.925Z</time>
      </trkpt>
      <trkpt lat="52.85348" lon="5.84556">
        <ele>49.655323</ele>
        <time>2024-07-07T07:34:08.929Z</time>
      </trkpt>
      <trkpt lat="52.85359" lon="5.8456">
        <ele>49.649638</ele>
        <time>2024-07-07T07:34:10.938Z</time>
      </trkpt>
      <trkpt lat="52.85369" lon="5.84566">
        <ele>49.643868</ele>
        <time>2024-07-07T07:34:12.948Z</time>
      </trkpt>
      <trkpt lat="52.85378" lon="5.84571">
        <ele>49.638376</ele>
        <time>2024-07-07T07:34:14.932Z</time>
      </trkpt>
      <trkpt lat="52.85389" lon="5.84576">
        <ele>49.632571</ele>
        <time>2024-07-07T07:34:16.943Z</time>
      </trkpt>
      <trkpt lat="52.85399" lon="5.8458">
        <ele>49.626696</ele>
        <time>2024-07-07T07:34:18.936Z</time>
      </trkpt>
      <trkpt lat="52.85409" lon="5.84585">
        <ele>49.621055</ele>
        <time>2024-07-07T07:34:20.941Z</time>
      </trkpt>
      <trkpt lat="52.85419" lon="5.84589">
        <ele>49.615607</ele>
        <time>2024-07-07T07:34:22.937Z</time>
      </trkpt>
      <trkpt lat="52.85429" lon="5.84594">
        <ele>49.610135</ele>
        <time>2024-07-07T07:34:24.923Z</time>
      </trkpt>
      <trkpt lat="52.85438" lon="5.846">
        <ele>49.604458</ele>
        <time>2024-07-07T07:34:26.938Z</time>
      </trkpt>
      <trkpt lat="52.85448" lon="5.84605">
        <ele>49.598913</ele>
        <time>2024-07-07T07:34:28.927Z</time>
      </trkpt>
      <trkpt lat="52.85458" lon="5.8461">
        <ele>49.593534</ele>
        <time>2024-07-07T07:34:30.972Z</time>
      </trkpt>
      <trkpt lat="52.85467" lon="5.84616">
        <ele>49.588203</ele>
        <time>2024-07-07T07:34:32.940Z</time>
      </trkpt>
      <trkpt lat="52.85476" lon="5.84623">
        <ele>49.582785</ele>
        <time>2024-07-07T07:34:34.933Z</time>
      </trkpt>
      <trkpt lat="52.85485" lon="5.8463">
        <ele>49.576751</ele>
        <time>2024-07-07T07:34:36.936Z</time>
      </trkpt>
      <trkpt lat="52.85493" lon="5.84638">
        <ele>49.546585</ele>
        <time>2024-07-07T07:34:38.930Z</time>
      </trkpt>
      <trkpt lat="52.85502" lon="5.84646">
        <ele>49.516211</ele>
        <time>2024-07-07T07:34:40.943Z</time>
      </trkpt>
      <trkpt lat="52.8551" lon="5.84656">
        <ele>49.48529</ele>
        <time>2024-07-07T07:34:42.936Z</time>
      </trkpt>
      <trkpt lat="52.85518" lon="5.84665">
        <ele>49.455089</ele>
        <time>2024-07-07T07:34:44.938Z</time>
      </trkpt>
      <trkpt lat="52.85526" lon="5.84675">
        <ele>49.424665</ele>
        <time>2024-07-07T07:34:46.937Z</time>
      </trkpt>
      <trkpt lat="52.85533" lon="5.84685">
        <ele>49.394941</ele>
        <time>2024-07-07T07:34:48.935Z</time>
      </trkpt>
      <trkpt lat="52.8554" lon="5.84697">
        <ele>49.365699</ele>
        <time>2024-07-07T07:34:50.942Z</time>
      </trkpt>
      <trkpt lat="52.85546" lon="5.84708">
        <ele>49.337598</ele>
        <time>2024-07-07T07:34:52.939Z</time>
      </trkpt>
      <trkpt lat="52.85552" lon="5.84718">
        <ele>49.309801</ele>
        <time>2024-07-07T07:34:54.940Z</time>
      </trkpt>
      <trkpt lat="52.85559" lon="5.84729">
        <ele>49.280993</ele>
        <time>2024-07-07T07:34:56.930Z</time>
      </trkpt>
      <trkpt lat="52.85565" lon="5.84741">
        <ele>49.251835</ele>
        <time>2024-07-07T07:34:58.926Z</time>
      </trkpt>
      <trkpt lat="52.85572" lon="5.84753">
        <ele>49.221456</ele>
        <time>2024-07-07T07:35:00.931Z</time>
      </trkpt>
      <trkpt lat="52.85579" lon="5.84764">
        <ele>49.192346</ele>
        <time>2024-07-07T07:35:02.922Z</time>
      </trkpt>
      <trkpt lat="52.85585" lon="5.84775">
        <ele>49.163055</ele>
        <time>2024-07-07T07:35:04.945Z</time>
      </trkpt>
      <trkpt lat="52.85592" lon="5.84786">
        <ele>49.132412</ele>
        <time>2024-07-07T07:35:06.945Z</time>
      </trkpt>
      <trkpt lat="52.85599" lon="5.84797">
        <ele>49.103726</ele>
        <time>2024-07-07T07:35:08.921Z</time>
      </trkpt>
      <trkpt lat="52.85608" lon="5.84814">
        <ele>49.062007</ele>
        <time>2024-07-07T07:35:11.939Z</time>
      </trkpt>
      <trkpt lat="52.85614" lon="5.84826">
        <ele>49.033948</ele>
        <time>2024-07-07T07:35:13.958Z</time>
      </trkpt>
      <trkpt lat="52.8562" lon="5.84837">
        <ele>49.029187</ele>
        <time>2024-07-07T07:35:15.955Z</time>
      </trkpt>
      <trkpt lat="52.85627" lon="5.84848">
        <ele>49.040115</ele>
        <time>2024-07-07T07:35:17.936Z</time>
      </trkpt>
      <trkpt lat="52.85634" lon="5.8486">
        <ele>49.051341</ele>
        <time>2024-07-07T07:35:19.940Z</time>
      </trkpt>
      <trkpt lat="52.8564" lon="5.84873">
        <ele>49.06277</ele>
        <time>2024-07-07T07:35:21.945Z</time>
      </trkpt>
      <trkpt lat="52.85647" lon="5.84884">
        <ele>49.073718</ele>
        <time>2024-07-07T07:35:23.938Z</time>
      </trkpt>
      <trkpt lat="52.85653" lon="5.84896">
        <ele>49.084488</ele>
        <time>2024-07-07T07:35:25.944Z</time>
      </trkpt>
      <trkpt lat="52.8566" lon="5.84908">
        <ele>49.095525</ele>
        <time>2024-07-07T07:35:27.937Z</time>
      </trkpt>
      <trkpt lat="52.85667" lon="5.84919">
        <ele>49.106524</ele>
        <time>2024-07-07T07:35:29.937Z</time>
      </trkpt>
      <trkpt lat="52.85673" lon="5.84931">
        <ele>49.117445</ele>
        <time>2024-07-07T07:35:31.940Z</time>
      </trkpt>
      <trkpt lat="52.8568" lon="5.84943">
        <ele>49.1285</ele>
        <time>2024-07-07T07:35:33.945Z</time>
      </trkpt>
      <trkpt lat="52.85686" lon="5.84954">
        <ele>49.139245</ele>
        <time>2024-07-07T07:35:35.943Z</time>
      </trkpt>
      <trkpt lat="52.85696" lon="5.8497">
        <ele>49.154637</ele>
        <time>2024-07-07T07:35:38.925Z</time>
      </trkpt>
      <trkpt lat="52.85703" lon="5.84982">
        <ele>49.165989</ele>
        <time>2024-07-07T07:35:40.944Z</time>
      </trkpt>
      <trkpt lat="52.85711" lon="5.84991">
        <ele>49.176731</ele>
        <time>2024-07-07T07:35:42.937Z</time>
      </trkpt>
      <trkpt lat="52.85719" lon="5.85001">
        <ele>49.187604</ele>
        <time>2024-07-07T07:35:44.950Z</time>
      </trkpt>
      <trkpt lat="52.85727" lon="5.85009">
        <ele>49.198584</ele>
        <time>2024-07-07T07:35:46.941Z</time>
      </trkpt>
      <trkpt lat="52.85736" lon="5.85016">
        <ele>49.209699</ele>
        <time>2024-07-07T07:35:48.926Z</time>
      </trkpt>
      <trkpt lat="52.85745" lon="5.85023">
        <ele>49.221281</ele>
        <time>2024-07-07T07:35:50.936Z</time>
      </trkpt>
      <trkpt lat="52.85754" lon="5.8503">
        <ele>49.212293</ele>
        <time>2024-07-07T07:35:52.935Z</time>
      </trkpt>
      <trkpt lat="52.85764" lon="5.85037">
        <ele>49.186296</ele>
        <time>2024-07-07T07:35:54.935Z</time>
      </trkpt>
      <trkpt lat="52.85774" lon="5.85043">
        <ele>49.160422</ele>
        <time>2024-07-07T07:35:56.940Z</time>
      </trkpt>
      <trkpt lat="52.85783" lon="5.85049">
        <ele>49.135279</ele>
        <time>2024-07-07T07:35:58.931Z</time>
      </trkpt>
      <trkpt lat="52.85793" lon="5.85055">
        <ele>49.110492</ele>
        <time>2024-07-07T07:36:00.936Z</time>
      </trkpt>
      <trkpt lat="52.85802" lon="5.85061">
        <ele>49.086383</ele>
        <time>2024-07-07T07:36:02.936Z</time>
      </trkpt>
      <trkpt lat="52.85811" lon="5.85067">
        <ele>49.062285</ele>
        <time>2024-07-07T07:36:04.938Z</time>
      </trkpt>
      <trkpt lat="52.8582" lon="5.85072">
        <ele>49.037944</ele>
        <time>2024-07-07T07:36:06.942Z</time>
      </trkpt>
      <trkpt lat="52.85829" lon="5.85078">
        <ele>49.012854</ele>
        <time>2024-07-07T07:36:08.921Z</time>
      </trkpt>
      <trkpt lat="52.85839" lon="5.85084">
        <ele>48.987605</ele>
        <time>2024-07-07T07:36:10.934Z</time>
      </trkpt>
      <trkpt lat="52.85848" lon="5.8509">
        <ele>48.963619</ele>
        <time>2024-07-07T07:36:12.940Z</time>
      </trkpt>
      <trkpt lat="52.85857" lon="5.85095">
        <ele>48.939295</ele>
        <time>2024-07-07T07:36:14.935Z</time>
      </trkpt>
      <trkpt lat="52.85867" lon="5.85101">
        <ele>48.913466</ele>
        <time>2024-07-07T07:36:16.933Z</time>
      </trkpt>
      <trkpt lat="52.85876" lon="5.85107">
        <ele>48.88971</ele>
        <time>2024-07-07T07:36:18.928Z</time>
      </trkpt>
      <trkpt lat="52.85885" lon="5.85113">
        <ele>48.865263</ele>
        <time>2024-07-07T07:36:20.949Z</time>
      </trkpt>
      <trkpt lat="52.85894" lon="5.85118">
        <ele>48.842133</ele>
        <time>2024-07-07T07:36:22.947Z</time>
      </trkpt>
      <trkpt lat="52.85903" lon="5.85125">
        <ele>48.817861</ele>
        <time>2024-07-07T07:36:24.939Z</time>
      </trkpt>
      <trkpt lat="52.85912" lon="5.8513">
        <ele>48.794141</ele>
        <time>2024-07-07T07:36:26.945Z</time>
      </trkpt>
      <trkpt lat="52.85921" lon="5.85136">
        <ele>48.826798</ele>
        <time>2024-07-07T07:36:28.928Z</time>
      </trkpt>
      <trkpt lat="52.8593" lon="5.85143">
        <ele>48.934824</ele>
        <time>2024-07-07T07:36:30.934Z</time>
      </trkpt>
      <trkpt lat="52.85938" lon="5.85149">
        <ele>49.034297</ele>
        <time>2024-07-07T07:36:32.938Z</time>
      </trkpt>
      <trkpt lat="52.85947" lon="5.85154">
        <ele>49.134015</ele>
        <time>2024-07-07T07:36:34.948Z</time>
      </trkpt>
      <trkpt lat="52.85959" lon="5.85164">
        <ele>49.277379</ele>
        <time>2024-07-07T07:36:37.955Z</time>
      </trkpt>
      <trkpt lat="52.8597" lon="5.85173">
        <ele>49.417935</ele>
        <time>2024-07-07T07:36:40.946Z</time>
      </trkpt>
      <trkpt lat="52.85982" lon="5.85183">
        <ele>49.562743</ele>
        <time>2024-07-07T07:36:43.919Z</time>
      </trkpt>
      <trkpt lat="52.85991" lon="5.8519">
        <ele>49.665677</ele>
        <time>2024-07-07T07:36:45.939Z</time>
      </trkpt>
      <trkpt lat="52.86002" lon="5.85196">
        <ele>49.798424</ele>
        <time>2024-07-07T07:36:48.939Z</time>
      </trkpt>
      <trkpt lat="52.86015" lon="5.85192">
        <ele>49.940676</ele>
        <time>2024-07-07T07:36:51.932Z</time>
      </trkpt>
      <trkpt lat="52.86027" lon="5.85183">
        <ele>50.08101</ele>
        <time>2024-07-07T07:36:54.936Z</time>
      </trkpt>
      <trkpt lat="52.86035" lon="5.85169">
        <ele>50.206921</ele>
        <time>2024-07-07T07:36:57.928Z</time>
      </trkpt>
      <trkpt lat="52.86042" lon="5.85155">
        <ele>50.324205</ele>
        <time>2024-07-07T07:37:00.944Z</time>
      </trkpt>
      <trkpt lat="52.86048" lon="5.85142">
        <ele>50.435718</ele>
        <time>2024-07-07T07:37:03.920Z</time>
      </trkpt>
      <trkpt lat="52.86052" lon="5.85125">
        <ele>50.555294</ele>
        <time>2024-07-07T07:37:06.920Z</time>
      </trkpt>
      <trkpt lat="52.86056" lon="5.85107">
        <ele>50.677647</ele>
        <time>2024-07-07T07:37:09.935Z</time>
      </trkpt>
      <trkpt lat="52.8606" lon="5.8509">
        <ele>50.72612</ele>
        <time>2024-07-07T07:37:12.931Z</time>
      </trkpt>
      <trkpt lat="52.86065" lon="5.85075">
        <ele>50.707731</ele>
        <time>2024-07-07T07:37:15.936Z</time>
      </trkpt>
      <trkpt lat="52.8607" lon="5.8506">
        <ele>50.689437</ele>
        <time>2024-07-07T07:37:18.926Z</time>
      </trkpt>
      <trkpt lat="52.86074" lon="5.85043">
        <ele>50.669542</ele>
        <time>2024-07-07T07:37:21.937Z</time>
      </trkpt>
      <trkpt lat="52.86079" lon="5.85028">
        <ele>50.650972</ele>
        <time>2024-07-07T07:37:24.938Z</time>
      </trkpt>
      <trkpt lat="52.86083" lon="5.85015">
        <ele>50.634579</ele>
        <time>2024-07-07T07:37:27.943Z</time>
      </trkpt>
      <trkpt lat="52.86088" lon="5.84999">
        <ele>50.615095</ele>
        <time>2024-07-07T07:37:32.944Z</time>
      </trkpt>
      <trkpt lat="52.86085" lon="5.84996">
        <ele>50.608547</ele>
        <time>2024-07-07T07:37:48.411Z</time>
      </trkpt>
      <trkpt lat="52.86094" lon="5.84987">
        <ele>50.589504</ele>
        <time>2024-07-07T07:38:43.932Z</time>
      </trkpt>
      <trkpt lat="52.86099" lon="5.84971">
        <ele>50.570918</ele>
        <time>2024-07-07T07:38:47.957Z</time>
      </trkpt>
      <trkpt lat="52.86103" lon="5.84957">
        <ele>50.553185</ele>
        <time>2024-07-07T07:38:50.948Z</time>
      </trkpt>
      <trkpt lat="52.86109" lon="5.8494">
        <ele>50.532078</ele>
        <time>2024-07-07T07:38:53.977Z</time>
      </trkpt>
      <trkpt lat="52.86113" lon="5.8492">
        <ele>50.508906</ele>
        <time>2024-07-07T07:38:56.944Z</time>
      </trkpt>
      <trkpt lat="52.86119" lon="5.849">
        <ele>50.485457</ele>
        <time>2024-07-07T07:38:59.949Z</time>
      </trkpt>
      <trkpt lat="52.86123" lon="5.84886">
        <ele>50.468611</ele>
        <time>2024-07-07T07:39:01.945Z</time>
      </trkpt>
      <trkpt lat="52.86127" lon="5.84872">
        <ele>50.450954</ele>
        <time>2024-07-07T07:39:03.947Z</time>
      </trkpt>
      <trkpt lat="52.86132" lon="5.84857">
        <ele>50.433202</ele>
        <time>2024-07-07T07:39:05.953Z</time>
      </trkpt>
      <trkpt lat="52.86136" lon="5.84842">
        <ele>50.41503</ele>
        <time>2024-07-07T07:39:07.951Z</time>
      </trkpt>
      <trkpt lat="52.86141" lon="5.84826">
        <ele>50.353363</ele>
        <time>2024-07-07T07:39:09.951Z</time>
      </trkpt>
      <trkpt lat="52.86146" lon="5.8481">
        <ele>50.288009</ele>
        <time>2024-07-07T07:39:11.950Z</time>
      </trkpt>
      <trkpt lat="52.86151" lon="5.84795">
        <ele>50.223846</ele>
        <time>2024-07-07T07:39:13.941Z</time>
      </trkpt>
      <trkpt lat="52.86155" lon="5.84778">
        <ele>50.158868</ele>
        <time>2024-07-07T07:39:15.953Z</time>
      </trkpt>
      <trkpt lat="52.8616" lon="5.84764">
        <ele>50.099937</ele>
        <time>2024-07-07T07:39:17.921Z</time>
      </trkpt>
      <trkpt lat="52.86167" lon="5.84751">
        <ele>50.033544</ele>
        <time>2024-07-07T07:39:19.928Z</time>
      </trkpt>
      <trkpt lat="52.86173" lon="5.84736">
        <ele>49.969001</ele>
        <time>2024-07-07T07:39:21.954Z</time>
      </trkpt>
      <trkpt lat="52.86178" lon="5.84719">
        <ele>49.901167</ele>
        <time>2024-07-07T07:39:23.924Z</time>
      </trkpt>
      <trkpt lat="52.86183" lon="5.84703">
        <ele>49.835693</ele>
        <time>2024-07-07T07:39:25.944Z</time>
      </trkpt>
      <trkpt lat="52.86187" lon="5.84687">
        <ele>49.770526</ele>
        <time>2024-07-07T07:39:27.949Z</time>
      </trkpt>
      <trkpt lat="52.86191" lon="5.84671">
        <ele>49.705996</ele>
        <time>2024-07-07T07:39:29.936Z</time>
      </trkpt>
      <trkpt lat="52.86196" lon="5.84656">
        <ele>49.64306</ele>
        <time>2024-07-07T07:39:31.940Z</time>
      </trkpt>
      <trkpt lat="52.86201" lon="5.8464">
        <ele>49.580271</ele>
        <time>2024-07-07T07:39:33.936Z</time>
      </trkpt>
      <trkpt lat="52.86205" lon="5.84625">
        <ele>49.518597</ele>
        <time>2024-07-07T07:39:35.948Z</time>
      </trkpt>
      <trkpt lat="52.86209" lon="5.8461">
        <ele>49.45925</ele>
        <time>2024-07-07T07:39:37.947Z</time>
      </trkpt>
      <trkpt lat="52.86213" lon="5.84596">
        <ele>49.403236</ele>
        <time>2024-07-07T07:39:39.953Z</time>
      </trkpt>
      <trkpt lat="52.86217" lon="5.84582">
        <ele>49.345642</ele>
        <time>2024-07-07T07:39:41.955Z</time>
      </trkpt>
      <trkpt lat="52.86221" lon="5.84568">
        <ele>49.314589</ele>
        <time>2024-07-07T07:39:43.939Z</time>
      </trkpt>
      <trkpt lat="52.86225" lon="5.84554">
        <ele>49.297618</ele>
        <time>2024-07-07T07:39:45.944Z</time>
      </trkpt>
      <trkpt lat="52.86229" lon="5.8454">
        <ele>49.280231</ele>
        <time>2024-07-07T07:39:47.943Z</time>
      </trkpt>
      <trkpt lat="52.86233" lon="5.84526">
        <ele>49.263554</ele>
        <time>2024-07-07T07:39:49.943Z</time>
      </trkpt>
      <trkpt lat="52.86237" lon="5.84513">
        <ele>49.247134</ele>
        <time>2024-07-07T07:39:51.923Z</time>
      </trkpt>
      <trkpt lat="52.86241" lon="5.84498">
        <ele>49.23002</ele>
        <time>2024-07-07T07:39:53.943Z</time>
      </trkpt>
      <trkpt lat="52.86245" lon="5.84484">
        <ele>49.213324</ele>
        <time>2024-07-07T07:39:55.945Z</time>
      </trkpt>
      <trkpt lat="52.86249" lon="5.8447">
        <ele>49.196508</ele>
        <time>2024-07-07T07:39:57.947Z</time>
      </trkpt>
      <trkpt lat="52.86253" lon="5.84457">
        <ele>49.179734</ele>
        <time>2024-07-07T07:39:59.955Z</time>
      </trkpt>
      <trkpt lat="52.86257" lon="5.84443">
        <ele>49.163214</ele>
        <time>2024-07-07T07:40:01.947Z</time>
      </trkpt>
      <trkpt lat="52.86261" lon="5.84429">
        <ele>49.146174</ele>
        <time>2024-07-07T07:40:03.941Z</time>
      </trkpt>
      <trkpt lat="52.86265" lon="5.84415">
        <ele>49.129478</ele>
        <time>2024-07-07T07:40:05.955Z</time>
      </trkpt>
      <trkpt lat="52.8627" lon="5.84395">
        <ele>49.105882</ele>
        <time>2024-07-07T07:40:08.951Z</time>
      </trkpt>
      <trkpt lat="52.86276" lon="5.84375">
        <ele>49.081615</ele>
        <time>2024-07-07T07:40:11.939Z</time>
      </trkpt>
      <trkpt lat="52.86281" lon="5.84355">
        <ele>49.057494</ele>
        <time>2024-07-07T07:40:14.939Z</time>
      </trkpt>
      <trkpt lat="52.86287" lon="5.84336">
        <ele>49.03414</ele>
        <time>2024-07-07T07:40:17.931Z</time>
      </trkpt>
      <trkpt lat="52.86293" lon="5.84316">
        <ele>49.010314</ele>
        <time>2024-07-07T07:40:20.916Z</time>
      </trkpt>
      <trkpt lat="52.86298" lon="5.84296">
        <ele>49.011416</ele>
        <time>2024-07-07T07:40:23.942Z</time>
      </trkpt>
      <trkpt lat="52.86304" lon="5.84277">
        <ele>49.031744</ele>
        <time>2024-07-07T07:40:26.939Z</time>
      </trkpt>
      <trkpt lat="52.86309" lon="5.84257">
        <ele>49.052365</ele>
        <time>2024-07-07T07:40:29.939Z</time>
      </trkpt>
      <trkpt lat="52.86313" lon="5.84244">
        <ele>49.066903</ele>
        <time>2024-07-07T07:40:31.938Z</time>
      </trkpt>
      <trkpt lat="52.86317" lon="5.8423">
        <ele>49.081405</ele>
        <time>2024-07-07T07:40:33.941Z</time>
      </trkpt>
      <trkpt lat="52.86323" lon="5.8421">
        <ele>49.101854</ele>
        <time>2024-07-07T07:40:36.948Z</time>
      </trkpt>
      <trkpt lat="52.86329" lon="5.8419">
        <ele>49.122762</ele>
        <time>2024-07-07T07:40:39.934Z</time>
      </trkpt>
      <trkpt lat="52.86335" lon="5.84171">
        <ele>49.143506</ele>
        <time>2024-07-07T07:40:42.936Z</time>
      </trkpt>
      <trkpt lat="52.86342" lon="5.84152">
        <ele>49.164492</ele>
        <time>2024-07-07T07:40:45.943Z</time>
      </trkpt>
      <trkpt lat="52.86347" lon="5.84139">
        <ele>49.179334</ele>
        <time>2024-07-07T07:40:47.937Z</time>
      </trkpt>
      <trkpt lat="52.86352" lon="5.84126">
        <ele>49.194009</ele>
        <time>2024-07-07T07:40:49.943Z</time>
      </trkpt>
      <trkpt lat="52.86358" lon="5.84112">
        <ele>49.210133</ele>
        <time>2024-07-07T07:40:51.940Z</time>
      </trkpt>
      <trkpt lat="52.86364" lon="5.84099">
        <ele>49.225901</ele>
        <time>2024-07-07T07:40:53.959Z</time>
      </trkpt>
      <trkpt lat="52.86371" lon="5.84085">
        <ele>49.242252</ele>
        <time>2024-07-07T07:40:55.936Z</time>
      </trkpt>
      <trkpt lat="52.86376" lon="5.84071">
        <ele>49.257479</ele>
        <time>2024-07-07T07:40:57.959Z</time>
      </trkpt>
      <trkpt lat="52.86381" lon="5.84058">
        <ele>49.273066</ele>
        <time>2024-07-07T07:40:59.942Z</time>
      </trkpt>
      <trkpt lat="52.86387" lon="5.84044">
        <ele>49.264857</ele>
        <time>2024-07-07T07:41:01.943Z</time>
      </trkpt>
      <trkpt lat="52.86393" lon="5.84031">
        <ele>49.226617</ele>
        <time>2024-07-07T07:41:03.941Z</time>
      </trkpt>
      <trkpt lat="52.86399" lon="5.84018">
        <ele>49.189748</ele>
        <time>2024-07-07T07:41:05.954Z</time>
      </trkpt>
      <trkpt lat="52.86406" lon="5.84005">
        <ele>49.151798</ele>
        <time>2024-07-07T07:41:07.940Z</time>
      </trkpt>
      <trkpt lat="52.86411" lon="5.83992">
        <ele>49.114225</ele>
        <time>2024-07-07T07:41:09.947Z</time>
      </trkpt>
      <trkpt lat="52.86419" lon="5.83981">
        <ele>49.076314</ele>
        <time>2024-07-07T07:41:11.937Z</time>
      </trkpt>
      <trkpt lat="52.86426" lon="5.83969">
        <ele>49.038466</ele>
        <time>2024-07-07T07:41:13.937Z</time>
      </trkpt>
      <trkpt lat="52.86432" lon="5.83956">
        <ele>48.999503</ele>
        <time>2024-07-07T07:41:15.936Z</time>
      </trkpt>
      <trkpt lat="52.86438" lon="5.83943">
        <ele>48.96114</ele>
        <time>2024-07-07T07:41:17.952Z</time>
      </trkpt>
      <trkpt lat="52.86444" lon="5.8393">
        <ele>48.923833</ele>
        <time>2024-07-07T07:41:19.949Z</time>
      </trkpt>
      <trkpt lat="52.8645" lon="5.83917">
        <ele>48.887163</ele>
        <time>2024-07-07T07:41:21.939Z</time>
      </trkpt>
      <trkpt lat="52.86456" lon="5.83904">
        <ele>48.849714</ele>
        <time>2024-07-07T07:41:23.947Z</time>
      </trkpt>
      <trkpt lat="52.86462" lon="5.8389">
        <ele>48.811893</ele>
        <time>2024-07-07T07:41:25.959Z</time>
      </trkpt>
      <trkpt lat="52.86467" lon="5.83877">
        <ele>48.774479</ele>
        <time>2024-07-07T07:41:27.939Z</time>
      </trkpt>
      <trkpt lat="52.86473" lon="5.83864">
        <ele>48.736348</ele>
        <time>2024-07-07T07:41:29.942Z</time>
      </trkpt>
      <trkpt lat="52.86479" lon="5.8385">
        <ele>48.697668</ele>
        <time>2024-07-07T07:41:31.954Z</time>
      </trkpt>
      <trkpt lat="52.86485" lon="5.83837">
        <ele>48.660588</ele>
        <time>2024-07-07T07:41:33.965Z</time>
      </trkpt>
      <trkpt lat="52.86491" lon="5.83825">
        <ele>48.625144</ele>
        <time>2024-07-07T07:41:35.951Z</time>
      </trkpt>
      <trkpt lat="52.86496" lon="5.83812">
        <ele>48.593089</ele>
        <time>2024-07-07T07:41:37.936Z</time>
      </trkpt>
      <trkpt lat="52.86502" lon="5.838">
        <ele>48.569705</ele>
        <time>2024-07-07T07:41:39.949Z</time>
      </trkpt>
      <trkpt lat="52.86507" lon="5.83787">
        <ele>48.545931</ele>
        <time>2024-07-07T07:41:41.938Z</time>
      </trkpt>
      <trkpt lat="52.86513" lon="5.83774">
        <ele>48.521306</ele>
        <time>2024-07-07T07:41:43.931Z</time>
      </trkpt>
      <trkpt lat="52.86519" lon="5.8376">
        <ele>48.496803</ele>
        <time>2024-07-07T07:41:45.946Z</time>
      </trkpt>
      <trkpt lat="52.86525" lon="5.83749">
        <ele>48.473465</ele>
        <time>2024-07-07T07:41:47.960Z</time>
      </trkpt>
      <trkpt lat="52.86532" lon="5.83733">
        <ele>48.443234</ele>
        <time>2024-07-07T07:41:50.939Z</time>
      </trkpt>
      <trkpt lat="52.8654" lon="5.83715">
        <ele>48.411279</ele>
        <time>2024-07-07T07:41:53.941Z</time>
      </trkpt>
      <trkpt lat="52.86547" lon="5.83697">
        <ele>48.37777</ele>
        <time>2024-07-07T07:41:56.936Z</time>
      </trkpt>
      <trkpt lat="52.86555" lon="5.8368">
        <ele>48.345628</ele>
        <time>2024-07-07T07:41:59.945Z</time>
      </trkpt>
      <trkpt lat="52.8656" lon="5.83667">
        <ele>48.322169</ele>
        <time>2024-07-07T07:42:01.936Z</time>
      </trkpt>
      <trkpt lat="52.86566" lon="5.83654">
        <ele>48.298867</ele>
        <time>2024-07-07T07:42:03.946Z</time>
      </trkpt>
      <trkpt lat="52.86571" lon="5.8364">
        <ele>48.273901</ele>
        <time>2024-07-07T07:42:05.934Z</time>
      </trkpt>
      <trkpt lat="52.86577" lon="5.83627">
        <ele>48.249013</ele>
        <time>2024-07-07T07:42:07.932Z</time>
      </trkpt>
      <trkpt lat="52.86583" lon="5.83614">
        <ele>48.224406</ele>
        <time>2024-07-07T07:42:09.945Z</time>
      </trkpt>
      <trkpt lat="52.86589" lon="5.83601">
        <ele>48.200415</ele>
        <time>2024-07-07T07:42:11.938Z</time>
      </trkpt>
      <trkpt lat="52.86594" lon="5.83588">
        <ele>48.17589</ele>
        <time>2024-07-07T07:42:13.926Z</time>
      </trkpt>
      <trkpt lat="52.866" lon="5.83574">
        <ele>48.151217</ele>
        <time>2024-07-07T07:42:15.933Z</time>
      </trkpt>
      <trkpt lat="52.86606" lon="5.83562">
        <ele>48.195854</ele>
        <time>2024-07-07T07:42:17.940Z</time>
      </trkpt>
      <trkpt lat="52.86612" lon="5.8355">
        <ele>48.239083</ele>
        <time>2024-07-07T07:42:19.960Z</time>
      </trkpt>
      <trkpt lat="52.86618" lon="5.83538">
        <ele>48.284314</ele>
        <time>2024-07-07T07:42:21.937Z</time>
      </trkpt>
      <trkpt lat="52.86625" lon="5.83526">
        <ele>48.330049</ele>
        <time>2024-07-07T07:42:23.942Z</time>
      </trkpt>
      <trkpt lat="52.86631" lon="5.83514">
        <ele>48.376216</ele>
        <time>2024-07-07T07:42:25.945Z</time>
      </trkpt>
      <trkpt lat="52.86638" lon="5.83503">
        <ele>48.422959</ele>
        <time>2024-07-07T07:42:27.946Z</time>
      </trkpt>
      <trkpt lat="52.86646" lon="5.83491">
        <ele>48.47169</ele>
        <time>2024-07-07T07:42:29.943Z</time>
      </trkpt>
      <trkpt lat="52.86653" lon="5.83481">
        <ele>48.515923</ele>
        <time>2024-07-07T07:42:31.940Z</time>
      </trkpt>
      <trkpt lat="52.86664" lon="5.83466">
        <ele>48.580275</ele>
        <time>2024-07-07T07:42:34.934Z</time>
      </trkpt>
      <trkpt lat="52.86671" lon="5.83456">
        <ele>48.625186</ele>
        <time>2024-07-07T07:42:36.937Z</time>
      </trkpt>
      <trkpt lat="52.86678" lon="5.83446">
        <ele>48.671184</ele>
        <time>2024-07-07T07:42:38.916Z</time>
      </trkpt>
      <trkpt lat="52.86685" lon="5.83435">
        <ele>48.716282</ele>
        <time>2024-07-07T07:42:40.940Z</time>
      </trkpt>
      <trkpt lat="52.86696" lon="5.83421">
        <ele>48.780638</ele>
        <time>2024-07-07T07:42:43.938Z</time>
      </trkpt>
      <trkpt lat="52.86702" lon="5.8341">
        <ele>48.824235</ele>
        <time>2024-07-07T07:42:45.944Z</time>
      </trkpt>
      <trkpt lat="52.86709" lon="5.83399">
        <ele>48.869577</ele>
        <time>2024-07-07T07:42:47.936Z</time>
      </trkpt>
      <trkpt lat="52.86716" lon="5.83386">
        <ele>48.916899</ele>
        <time>2024-07-07T07:42:49.948Z</time>
      </trkpt>
      <trkpt lat="52.86722" lon="5.83374">
        <ele>48.962746</ele>
        <time>2024-07-07T07:42:51.940Z</time>
      </trkpt>
      <trkpt lat="52.86728" lon="5.83361">
        <ele>48.984171</ele>
        <time>2024-07-07T07:42:53.918Z</time>
      </trkpt>
      <trkpt lat="52.86734" lon="5.83348">
        <ele>48.907882</ele>
        <time>2024-07-07T07:42:55.944Z</time>
      </trkpt>
      <trkpt lat="52.86739" lon="5.83334">
        <ele>48.833657</ele>
        <time>2024-07-07T07:42:57.936Z</time>
      </trkpt>
      <trkpt lat="52.86744" lon="5.83321">
        <ele>48.761062</ele>
        <time>2024-07-07T07:42:59.956Z</time>
      </trkpt>
      <trkpt lat="52.86749" lon="5.83308">
        <ele>48.69006</ele>
        <time>2024-07-07T07:43:01.937Z</time>
      </trkpt>
      <trkpt lat="52.86754" lon="5.83295">
        <ele>48.619852</ele>
        <time>2024-07-07T07:43:03.934Z</time>
      </trkpt>
      <trkpt lat="52.86758" lon="5.83281">
        <ele>48.545955</ele>
        <time>2024-07-07T07:43:05.942Z</time>
      </trkpt>
      <trkpt lat="52.86762" lon="5.83266">
        <ele>48.471307</ele>
        <time>2024-07-07T07:43:07.933Z</time>
      </trkpt>
      <trkpt lat="52.86766" lon="5.83252">
        <ele>48.399447</ele>
        <time>2024-07-07T07:43:09.940Z</time>
      </trkpt>
      <trkpt lat="52.8677" lon="5.83236">
        <ele>48.321643</ele>
        <time>2024-07-07T07:43:11.938Z</time>
      </trkpt>
      <trkpt lat="52.86773" lon="5.83221">
        <ele>48.246802</ele>
        <time>2024-07-07T07:43:13.940Z</time>
      </trkpt>
      <trkpt lat="52.86777" lon="5.83207">
        <ele>48.173437</ele>
        <time>2024-07-07T07:43:15.958Z</time>
      </trkpt>
      <trkpt lat="52.8678" lon="5.83192">
        <ele>48.100855</ele>
        <time>2024-07-07T07:43:17.942Z</time>
      </trkpt>
      <trkpt lat="52.86783" lon="5.83177">
        <ele>48.029215</ele>
        <time>2024-07-07T07:43:19.939Z</time>
      </trkpt>
      <trkpt lat="52.86787" lon="5.83163">
        <ele>47.957851</ele>
        <time>2024-07-07T07:43:21.959Z</time>
      </trkpt>
      <trkpt lat="52.86791" lon="5.83149">
        <ele>47.884302</ele>
        <time>2024-07-07T07:43:23.943Z</time>
      </trkpt>
      <trkpt lat="52.86795" lon="5.83134">
        <ele>47.807692</ele>
        <time>2024-07-07T07:43:25.951Z</time>
      </trkpt>
      <trkpt lat="52.86799" lon="5.83119">
        <ele>47.733296</ele>
        <time>2024-07-07T07:43:27.976Z</time>
      </trkpt>
      <trkpt lat="52.86803" lon="5.83105">
        <ele>47.658221</ele>
        <time>2024-07-07T07:43:29.940Z</time>
      </trkpt>
      <trkpt lat="52.86808" lon="5.8309">
        <ele>47.589184</ele>
        <time>2024-07-07T07:43:31.940Z</time>
      </trkpt>
      <trkpt lat="52.86812" lon="5.83077">
        <ele>47.526511</ele>
        <time>2024-07-07T07:43:33.935Z</time>
      </trkpt>
      <trkpt lat="52.86817" lon="5.83063">
        <ele>47.461557</ele>
        <time>2024-07-07T07:43:35.946Z</time>
      </trkpt>
      <trkpt lat="52.86822" lon="5.83049">
        <ele>47.398609</ele>
        <time>2024-07-07T07:43:37.942Z</time>
      </trkpt>
      <trkpt lat="52.86827" lon="5.83035">
        <ele>47.333655</ele>
        <time>2024-07-07T07:43:39.942Z</time>
      </trkpt>
      <trkpt lat="52.86832" lon="5.83021">
        <ele>47.268012</ele>
        <time>2024-07-07T07:43:41.946Z</time>
      </trkpt>
      <trkpt lat="52.86836" lon="5.83006">
        <ele>47.204276</ele>
        <time>2024-07-07T07:43:43.933Z</time>
      </trkpt>
      <trkpt lat="52.86841" lon="5.82992">
        <ele>47.141909</ele>
        <time>2024-07-07T07:43:45.937Z</time>
      </trkpt>
      <trkpt lat="52.86846" lon="5.82979">
        <ele>47.077963</ele>
        <time>2024-07-07T07:43:47.933Z</time>
      </trkpt>
      <trkpt lat="52.8685" lon="5.82965">
        <ele>47.013923</ele>
        <time>2024-07-07T07:43:49.931Z</time>
      </trkpt>
      <trkpt lat="52.86854" lon="5.8295">
        <ele>46.949986</ele>
        <time>2024-07-07T07:43:51.931Z</time>
      </trkpt>
      <trkpt lat="52.86859" lon="5.82935">
        <ele>46.881507</ele>
        <time>2024-07-07T07:43:53.954Z</time>
      </trkpt>
      <trkpt lat="52.86862" lon="5.82919">
        <ele>46.815879</ele>
        <time>2024-07-07T07:43:55.950Z</time>
      </trkpt>
      <trkpt lat="52.86865" lon="5.82904">
        <ele>46.753759</ele>
        <time>2024-07-07T07:43:57.937Z</time>
      </trkpt>
      <trkpt lat="52.86867" lon="5.82889">
        <ele>46.689725</ele>
        <time>2024-07-07T07:43:59.943Z</time>
      </trkpt>
      <trkpt lat="52.8687" lon="5.82873">
        <ele>46.626378</ele>
        <time>2024-07-07T07:44:01.944Z</time>
      </trkpt>
      <trkpt lat="52.86871" lon="5.82858">
        <ele>46.564651</ele>
        <time>2024-07-07T07:44:03.955Z</time>
      </trkpt>
      <trkpt lat="52.86873" lon="5.82837">
        <ele>46.478472</ele>
        <time>2024-07-07T07:44:06.960Z</time>
      </trkpt>
      <trkpt lat="52.86877" lon="5.82815">
        <ele>46.426624</ele>
        <time>2024-07-07T07:44:09.961Z</time>
      </trkpt>
      <trkpt lat="52.86879" lon="5.82801">
        <ele>46.421784</ele>
        <time>2024-07-07T07:44:11.948Z</time>
      </trkpt>
      <trkpt lat="52.86882" lon="5.82786">
        <ele>46.416915</ele>
        <time>2024-07-07T07:44:13.951Z</time>
      </trkpt>
      <trkpt lat="52.86885" lon="5.8277">
        <ele>46.411777</ele>
        <time>2024-07-07T07:44:15.961Z</time>
      </trkpt>
      <trkpt lat="52.86888" lon="5.82754">
        <ele>46.406519</ele>
        <time>2024-07-07T07:44:17.940Z</time>
      </trkpt>
      <trkpt lat="52.86891" lon="5.8274">
        <ele>46.401742</ele>
        <time>2024-07-07T07:44:19.939Z</time>
      </trkpt>
      <trkpt lat="52.86895" lon="5.82725">
        <ele>46.396846</ele>
        <time>2024-07-07T07:44:21.927Z</time>
      </trkpt>
      <trkpt lat="52.86899" lon="5.82711">
        <ele>46.391957</ele>
        <time>2024-07-07T07:44:23.944Z</time>
      </trkpt>
      <trkpt lat="52.86903" lon="5.82697">
        <ele>46.387195</ele>
        <time>2024-07-07T07:44:25.943Z</time>
      </trkpt>
      <trkpt lat="52.86907" lon="5.82683">
        <ele>46.382121</ele>
        <time>2024-07-07T07:44:27.943Z</time>
      </trkpt>
      <trkpt lat="52.86911" lon="5.82668">
        <ele>46.377196</ele>
        <time>2024-07-07T07:44:29.972Z</time>
      </trkpt>
      <trkpt lat="52.86915" lon="5.82655">
        <ele>46.37243</ele>
        <time>2024-07-07T07:44:31.951Z</time>
      </trkpt>
      <trkpt lat="52.8692" lon="5.8264">
        <ele>46.367282</ele>
        <time>2024-07-07T07:44:33.937Z</time>
      </trkpt>
      <trkpt lat="52.86923" lon="5.82625">
        <ele>46.362255</ele>
        <time>2024-07-07T07:44:35.951Z</time>
      </trkpt>
      <trkpt lat="52.86928" lon="5.82611">
        <ele>46.357349</ele>
        <time>2024-07-07T07:44:37.951Z</time>
      </trkpt>
      <trkpt lat="52.86931" lon="5.82596">
        <ele>46.352494</ele>
        <time>2024-07-07T07:44:39.950Z</time>
      </trkpt>
      <trkpt lat="52.86935" lon="5.82582">
        <ele>46.347533</ele>
        <time>2024-07-07T07:44:41.956Z</time>
      </trkpt>
      <trkpt lat="52.8694" lon="5.82561">
        <ele>46.340643</ele>
        <time>2024-07-07T07:44:44.942Z</time>
      </trkpt>
      <trkpt lat="52.86944" lon="5.82547">
        <ele>46.342754</ele>
        <time>2024-07-07T07:44:46.932Z</time>
      </trkpt>
      <trkpt lat="52.86949" lon="5.82527">
        <ele>46.389086</ele>
        <time>2024-07-07T07:44:49.945Z</time>
      </trkpt>
      <trkpt lat="52.86953" lon="5.82512">
        <ele>46.420446</ele>
        <time>2024-07-07T07:44:51.928Z</time>
      </trkpt>
      <trkpt lat="52.86956" lon="5.82498">
        <ele>46.452505</ele>
        <time>2024-07-07T07:44:53.936Z</time>
      </trkpt>
      <trkpt lat="52.8696" lon="5.82484">
        <ele>46.483847</ele>
        <time>2024-07-07T07:44:55.940Z</time>
      </trkpt>
      <trkpt lat="52.86964" lon="5.8247">
        <ele>46.515338</ele>
        <time>2024-07-07T07:44:57.931Z</time>
      </trkpt>
      <trkpt lat="52.86967" lon="5.82456">
        <ele>46.546252</ele>
        <time>2024-07-07T07:44:59.942Z</time>
      </trkpt>
      <trkpt lat="52.86971" lon="5.82442">
        <ele>46.578444</ele>
        <time>2024-07-07T07:45:01.934Z</time>
      </trkpt>
      <trkpt lat="52.86975" lon="5.82427">
        <ele>46.61077</ele>
        <time>2024-07-07T07:45:03.931Z</time>
      </trkpt>
      <trkpt lat="52.86978" lon="5.82414">
        <ele>46.641882</ele>
        <time>2024-07-07T07:45:05.930Z</time>
      </trkpt>
      <trkpt lat="52.86984" lon="5.82393">
        <ele>46.6877</ele>
        <time>2024-07-07T07:45:08.925Z</time>
      </trkpt>
      <trkpt lat="52.86987" lon="5.82379">
        <ele>46.71919</ele>
        <time>2024-07-07T07:45:10.928Z</time>
      </trkpt>
      <trkpt lat="52.86991" lon="5.82359">
        <ele>46.762941</ele>
        <time>2024-07-07T07:45:13.932Z</time>
      </trkpt>
      <trkpt lat="52.86992" lon="5.82339">
        <ele>46.803225</ele>
        <time>2024-07-07T07:45:16.925Z</time>
      </trkpt>
      <trkpt lat="52.86994" lon="5.82322">
        <ele>46.840127</ele>
        <time>2024-07-07T07:45:19.943Z</time>
      </trkpt>
      <trkpt lat="52.86998" lon="5.82305">
        <ele>46.877073</ele>
        <time>2024-07-07T07:45:22.941Z</time>
      </trkpt>
      <trkpt lat="52.87002" lon="5.82286">
        <ele>46.918499</ele>
        <time>2024-07-07T07:45:25.943Z</time>
      </trkpt>
      <trkpt lat="52.87007" lon="5.82268">
        <ele>46.990689</ele>
        <time>2024-07-07T07:45:28.950Z</time>
      </trkpt>
      <trkpt lat="52.87012" lon="5.82249">
        <ele>47.174032</ele>
        <time>2024-07-07T07:45:31.945Z</time>
      </trkpt>
      <trkpt lat="52.87019" lon="5.82233">
        <ele>47.355849</ele>
        <time>2024-07-07T07:45:34.932Z</time>
      </trkpt>
      <trkpt lat="52.8703" lon="5.82223">
        <ele>47.538938</ele>
        <time>2024-07-07T07:45:37.927Z</time>
      </trkpt>
      <trkpt lat="52.87043" lon="5.82223">
        <ele>47.735628</ele>
        <time>2024-07-07T07:45:40.925Z</time>
      </trkpt>
      <trkpt lat="52.87052" lon="5.82226">
        <ele>47.871594</ele>
        <time>2024-07-07T07:45:42.927Z</time>
      </trkpt>
      <trkpt lat="52.87061" lon="5.82228">
        <ele>48.00918</ele>
        <time>2024-07-07T07:45:44.941Z</time>
      </trkpt>
      <trkpt lat="52.87071" lon="5.82231">
        <ele>48.150346</ele>
        <time>2024-07-07T07:45:46.941Z</time>
      </trkpt>
      <trkpt lat="52.87084" lon="5.82235">
        <ele>48.347187</ele>
        <time>2024-07-07T07:45:49.950Z</time>
      </trkpt>
      <trkpt lat="52.87093" lon="5.82237">
        <ele>48.486914</ele>
        <time>2024-07-07T07:45:51.945Z</time>
      </trkpt>
      <trkpt lat="52.87102" lon="5.82239">
        <ele>48.623357</ele>
        <time>2024-07-07T07:45:53.941Z</time>
      </trkpt>
      <trkpt lat="52.87115" lon="5.82243">
        <ele>48.819961</ele>
        <time>2024-07-07T07:45:56.948Z</time>
      </trkpt>
      <trkpt lat="52.87127" lon="5.82246">
        <ele>49.009495</ele>
        <time>2024-07-07T07:45:59.958Z</time>
      </trkpt>
      <trkpt lat="52.87137" lon="5.82248">
        <ele>49.151598</ele>
        <time>2024-07-07T07:46:01.940Z</time>
      </trkpt>
      <trkpt lat="52.87146" lon="5.8225">
        <ele>49.287144</ele>
        <time>2024-07-07T07:46:03.946Z</time>
      </trkpt>
      <trkpt lat="52.87155" lon="5.82254">
        <ele>49.429091</ele>
        <time>2024-07-07T07:46:05.946Z</time>
      </trkpt>
      <trkpt lat="52.87165" lon="5.82258">
        <ele>49.576306</ele>
        <time>2024-07-07T07:46:07.948Z</time>
      </trkpt>
      <trkpt lat="52.87174" lon="5.8226">
        <ele>49.614221</ele>
        <time>2024-07-07T07:46:09.940Z</time>
      </trkpt>
      <trkpt lat="52.87184" lon="5.82262">
        <ele>49.588598</ele>
        <time>2024-07-07T07:46:11.948Z</time>
      </trkpt>
      <trkpt lat="52.87193" lon="5.82264">
        <ele>49.564206</ele>
        <time>2024-07-07T07:46:13.945Z</time>
      </trkpt>
      <trkpt lat="52.87202" lon="5.82267">
        <ele>49.540153</ele>
        <time>2024-07-07T07:46:15.939Z</time>
      </trkpt>
      <trkpt lat="52.87212" lon="5.82268">
        <ele>49.515597</ele>
        <time>2024-07-07T07:46:17.937Z</time>
      </trkpt>
      <trkpt lat="52.87221" lon="5.82269">
        <ele>49.491151</ele>
        <time>2024-07-07T07:46:19.941Z</time>
      </trkpt>
      <trkpt lat="52.8723" lon="5.82271">
        <ele>49.467179</ele>
        <time>2024-07-07T07:46:21.927Z</time>
      </trkpt>
      <trkpt lat="52.87239" lon="5.82274">
        <ele>49.442695</ele>
        <time>2024-07-07T07:46:23.943Z</time>
      </trkpt>
      <trkpt lat="52.87249" lon="5.82277">
        <ele>49.418552</ele>
        <time>2024-07-07T07:46:25.944Z</time>
      </trkpt>
      <trkpt lat="52.87258" lon="5.8228">
        <ele>49.393247</ele>
        <time>2024-07-07T07:46:27.932Z</time>
      </trkpt>
      <trkpt lat="52.87271" lon="5.82282">
        <ele>49.359029</ele>
        <time>2024-07-07T07:46:30.944Z</time>
      </trkpt>
      <trkpt lat="52.8728" lon="5.82285">
        <ele>49.334947</ele>
        <time>2024-07-07T07:46:32.932Z</time>
      </trkpt>
      <trkpt lat="52.87292" lon="5.82287">
        <ele>49.303794</ele>
        <time>2024-07-07T07:46:35.939Z</time>
      </trkpt>
      <trkpt lat="52.87303" lon="5.82293">
        <ele>49.275031</ele>
        <time>2024-07-07T07:46:38.948Z</time>
      </trkpt>
      <trkpt lat="52.87314" lon="5.82301">
        <ele>49.243579</ele>
        <time>2024-07-07T07:46:41.964Z</time>
      </trkpt>
      <trkpt lat="52.87324" lon="5.82307">
        <ele>49.215503</ele>
        <time>2024-07-07T07:46:44.955Z</time>
      </trkpt>
      <trkpt lat="52.87333" lon="5.82313">
        <ele>49.190504</ele>
        <time>2024-07-07T07:46:47.935Z</time>
      </trkpt>
      <trkpt lat="52.87342" lon="5.82319">
        <ele>49.166133</ele>
        <time>2024-07-07T07:46:50.924Z</time>
      </trkpt>
      <trkpt lat="52.8735" lon="5.82329">
        <ele>49.136595</ele>
        <time>2024-07-07T07:46:53.964Z</time>
      </trkpt>
      <trkpt lat="52.87359" lon="5.82339">
        <ele>49.104512</ele>
        <time>2024-07-07T07:46:56.936Z</time>
      </trkpt>
      <trkpt lat="52.87367" lon="5.82349">
        <ele>49.073062</ele>
        <time>2024-07-07T07:46:59.941Z</time>
      </trkpt>
      <trkpt lat="52.87376" lon="5.82361">
        <ele>49.039511</ele>
        <time>2024-07-07T07:47:02.929Z</time>
      </trkpt>
      <trkpt lat="52.87385" lon="5.82373">
        <ele>49.003979</ele>
        <time>2024-07-07T07:47:05.945Z</time>
      </trkpt>
      <trkpt lat="52.87392" lon="5.82382">
        <ele>48.977208</ele>
        <time>2024-07-07T07:47:07.943Z</time>
      </trkpt>
      <trkpt lat="52.874" lon="5.82392">
        <ele>48.949063</ele>
        <time>2024-07-07T07:47:09.956Z</time>
      </trkpt>
      <trkpt lat="52.87407" lon="5.82402">
        <ele>48.921492</ele>
        <time>2024-07-07T07:47:11.947Z</time>
      </trkpt>
      <trkpt lat="52.87417" lon="5.82416">
        <ele>48.881399</ele>
        <time>2024-07-07T07:47:14.936Z</time>
      </trkpt>
      <trkpt lat="52.87425" lon="5.82426">
        <ele>48.851929</ele>
        <time>2024-07-07T07:47:16.939Z</time>
      </trkpt>
      <trkpt lat="52.87432" lon="5.82436">
        <ele>48.824243</ele>
        <time>2024-07-07T07:47:18.933Z</time>
      </trkpt>
      <trkpt lat="52.87439" lon="5.82446">
        <ele>48.796667</ele>
        <time>2024-07-07T07:47:20.969Z</time>
      </trkpt>
      <trkpt lat="52.87446" lon="5.82456">
        <ele>48.767931</ele>
        <time>2024-07-07T07:47:22.934Z</time>
      </trkpt>
      <trkpt lat="52.87454" lon="5.82467">
        <ele>48.738752</ele>
        <time>2024-07-07T07:47:24.926Z</time>
      </trkpt>
      <trkpt lat="52.87461" lon="5.82476">
        <ele>48.710239</ele>
        <time>2024-07-07T07:47:26.930Z</time>
      </trkpt>
      <trkpt lat="52.87468" lon="5.82487">
        <ele>48.683155</ele>
        <time>2024-07-07T07:47:28.932Z</time>
      </trkpt>
      <trkpt lat="52.87475" lon="5.82496">
        <ele>48.655917</ele>
        <time>2024-07-07T07:47:30.949Z</time>
      </trkpt>
      <trkpt lat="52.87482" lon="5.82506">
        <ele>48.627772</ele>
        <time>2024-07-07T07:47:32.941Z</time>
      </trkpt>
      <trkpt lat="52.8749" lon="5.82516">
        <ele>48.614748</ele>
        <time>2024-07-07T07:47:34.939Z</time>
      </trkpt>
      <trkpt lat="52.87498" lon="5.82526">
        <ele>48.603355</ele>
        <time>2024-07-07T07:47:36.944Z</time>
      </trkpt>
      <trkpt lat="52.87506" lon="5.82536">
        <ele>48.592017</ele>
        <time>2024-07-07T07:47:38.947Z</time>
      </trkpt>
      <trkpt lat="52.87513" lon="5.82547">
        <ele>48.58068</ele>
        <time>2024-07-07T07:47:40.948Z</time>
      </trkpt>
      <trkpt lat="52.87521" lon="5.82556">
        <ele>48.569827</ele>
        <time>2024-07-07T07:47:42.942Z</time>
      </trkpt>
      <trkpt lat="52.87528" lon="5.82566">
        <ele>48.558579</ele>
        <time>2024-07-07T07:47:44.948Z</time>
      </trkpt>
      <trkpt lat="52.87535" lon="5.82576">
        <ele>48.54769</ele>
        <time>2024-07-07T07:47:46.933Z</time>
      </trkpt>
      <trkpt lat="52.87542" lon="5.82586">
        <ele>48.537014</ele>
        <time>2024-07-07T07:47:48.932Z</time>
      </trkpt>
      <trkpt lat="52.87549" lon="5.82596">
        <ele>48.526348</ele>
        <time>2024-07-07T07:47:50.929Z</time>
      </trkpt>
      <trkpt lat="52.87556" lon="5.82605">
        <ele>48.515809</ele>
        <time>2024-07-07T07:47:52.946Z</time>
      </trkpt>
      <trkpt lat="52.87564" lon="5.82614">
        <ele>48.505083</ele>
        <time>2024-07-07T07:47:54.944Z</time>
      </trkpt>
      <trkpt lat="52.87571" lon="5.82624">
        <ele>48.494104</ele>
        <time>2024-07-07T07:47:56.950Z</time>
      </trkpt>
      <trkpt lat="52.87578" lon="5.82634">
        <ele>48.48317</ele>
        <time>2024-07-07T07:47:58.927Z</time>
      </trkpt>
      <trkpt lat="52.87585" lon="5.82643">
        <ele>48.472549</ele>
        <time>2024-07-07T07:48:00.940Z</time>
      </trkpt>
      <trkpt lat="52.87592" lon="5.82654">
        <ele>48.461512</ele>
        <time>2024-07-07T07:48:02.958Z</time>
      </trkpt>
      <trkpt lat="52.87599" lon="5.82664">
        <ele>48.450621</ele>
        <time>2024-07-07T07:48:04.943Z</time>
      </trkpt>
      <trkpt lat="52.87606" lon="5.82674">
        <ele>48.439909</ele>
        <time>2024-07-07T07:48:06.959Z</time>
      </trkpt>
      <trkpt lat="52.87613" lon="5.82684">
        <ele>48.42924</ele>
        <time>2024-07-07T07:48:08.954Z</time>
      </trkpt>
      <trkpt lat="52.87621" lon="5.82693">
        <ele>48.418345</ele>
        <time>2024-07-07T07:48:10.925Z</time>
      </trkpt>
      <trkpt lat="52.87628" lon="5.82703">
        <ele>48.408657</ele>
        <time>2024-07-07T07:48:12.939Z</time>
      </trkpt>
      <trkpt lat="52.87636" lon="5.82713">
        <ele>48.399001</ele>
        <time>2024-07-07T07:48:14.934Z</time>
      </trkpt>
      <trkpt lat="52.87643" lon="5.82723">
        <ele>48.389346</ele>
        <time>2024-07-07T07:48:16.941Z</time>
      </trkpt>
      <trkpt lat="52.87651" lon="5.82732">
        <ele>48.380024</ele>
        <time>2024-07-07T07:48:18.928Z</time>
      </trkpt>
      <trkpt lat="52.87658" lon="5.82743">
        <ele>48.370482</ele>
        <time>2024-07-07T07:48:20.940Z</time>
      </trkpt>
      <trkpt lat="52.87666" lon="5.82753">
        <ele>48.360672</ele>
        <time>2024-07-07T07:48:22.947Z</time>
      </trkpt>
      <trkpt lat="52.87674" lon="5.82762">
        <ele>48.350834</ele>
        <time>2024-07-07T07:48:24.938Z</time>
      </trkpt>
      <trkpt lat="52.87681" lon="5.82773">
        <ele>48.341095</ele>
        <time>2024-07-07T07:48:26.937Z</time>
      </trkpt>
      <trkpt lat="52.87685" lon="5.82788">
        <ele>48.331269</ele>
        <time>2024-07-07T07:48:28.930Z</time>
      </trkpt>
      <trkpt lat="52.87691" lon="5.82802">
        <ele>48.321293</ele>
        <time>2024-07-07T07:48:30.941Z</time>
      </trkpt>
      <trkpt lat="52.87699" lon="5.8281">
        <ele>48.311333</ele>
        <time>2024-07-07T07:48:32.939Z</time>
      </trkpt>
      <trkpt lat="52.87708" lon="5.82818">
        <ele>48.301286</ele>
        <time>2024-07-07T07:48:34.917Z</time>
      </trkpt>
      <trkpt lat="52.87716" lon="5.82827">
        <ele>48.291547</ele>
        <time>2024-07-07T07:48:36.941Z</time>
      </trkpt>
      <trkpt lat="52.87725" lon="5.82835">
        <ele>48.281825</ele>
        <time>2024-07-07T07:48:38.949Z</time>
      </trkpt>
      <trkpt lat="52.87732" lon="5.82844">
        <ele>48.272448</ele>
        <time>2024-07-07T07:48:40.940Z</time>
      </trkpt>
      <trkpt lat="52.8774" lon="5.82854">
        <ele>48.26301</ele>
        <time>2024-07-07T07:48:42.932Z</time>
      </trkpt>
      <trkpt lat="52.87748" lon="5.82862">
        <ele>48.253765</ele>
        <time>2024-07-07T07:48:44.935Z</time>
      </trkpt>
      <trkpt lat="52.87755" lon="5.82872">
        <ele>48.244103</ele>
        <time>2024-07-07T07:48:46.955Z</time>
      </trkpt>
      <trkpt lat="52.87763" lon="5.8288">
        <ele>48.220841</ele>
        <time>2024-07-07T07:48:48.942Z</time>
      </trkpt>
      <trkpt lat="52.87771" lon="5.82889">
        <ele>48.154332</ele>
        <time>2024-07-07T07:48:50.936Z</time>
      </trkpt>
      <trkpt lat="52.87779" lon="5.82899">
        <ele>48.089036</ele>
        <time>2024-07-07T07:48:52.947Z</time>
      </trkpt>
      <trkpt lat="52.87786" lon="5.82908">
        <ele>48.024152</ele>
        <time>2024-07-07T07:48:54.940Z</time>
      </trkpt>
      <trkpt lat="52.87793" lon="5.8292">
        <ele>47.954205</ele>
        <time>2024-07-07T07:48:56.946Z</time>
      </trkpt>
      <trkpt lat="52.87801" lon="5.82932">
        <ele>47.883132</ele>
        <time>2024-07-07T07:48:58.951Z</time>
      </trkpt>
      <trkpt lat="52.87808" lon="5.82943">
        <ele>47.816275</ele>
        <time>2024-07-07T07:49:00.952Z</time>
      </trkpt>
      <trkpt lat="52.87816" lon="5.82953">
        <ele>47.749196</ele>
        <time>2024-07-07T07:49:02.943Z</time>
      </trkpt>
      <trkpt lat="52.87823" lon="5.82962">
        <ele>47.685012</ele>
        <time>2024-07-07T07:49:04.927Z</time>
      </trkpt>
      <trkpt lat="52.87831" lon="5.82971">
        <ele>47.620107</ele>
        <time>2024-07-07T07:49:06.943Z</time>
      </trkpt>
      <trkpt lat="52.87839" lon="5.82979">
        <ele>47.556925</ele>
        <time>2024-07-07T07:49:08.939Z</time>
      </trkpt>
      <trkpt lat="52.87847" lon="5.82988">
        <ele>47.490747</ele>
        <time>2024-07-07T07:49:10.940Z</time>
      </trkpt>
      <trkpt lat="52.87854" lon="5.82997">
        <ele>47.426066</ele>
        <time>2024-07-07T07:49:12.949Z</time>
      </trkpt>
      <trkpt lat="52.87861" lon="5.83007">
        <ele>47.363287</ele>
        <time>2024-07-07T07:49:14.933Z</time>
      </trkpt>
      <trkpt lat="52.87869" lon="5.83016">
        <ele>47.298474</ele>
        <time>2024-07-07T07:49:16.944Z</time>
      </trkpt>
      <trkpt lat="52.87876" lon="5.83027">
        <ele>47.230832</ele>
        <time>2024-07-07T07:49:18.940Z</time>
      </trkpt>
      <trkpt lat="52.87883" lon="5.83038">
        <ele>47.164342</ele>
        <time>2024-07-07T07:49:20.948Z</time>
      </trkpt>
      <trkpt lat="52.8789" lon="5.83049">
        <ele>47.097124</ele>
        <time>2024-07-07T07:49:22.962Z</time>
      </trkpt>
      <trkpt lat="52.87898" lon="5.83061">
        <ele>47.027908</ele>
        <time>2024-07-07T07:49:24.934Z</time>
      </trkpt>
      <trkpt lat="52.87905" lon="5.83071">
        <ele>47.007177</ele>
        <time>2024-07-07T07:49:26.955Z</time>
      </trkpt>
      <trkpt lat="52.87911" lon="5.83082">
        <ele>47.019997</ele>
        <time>2024-07-07T07:49:28.937Z</time>
      </trkpt>
      <trkpt lat="52.87919" lon="5.83094">
        <ele>47.033142</ele>
        <time>2024-07-07T07:49:30.951Z</time>
      </trkpt>
      <trkpt lat="52.87926" lon="5.83105">
        <ele>47.046288</ele>
        <time>2024-07-07T07:49:32.948Z</time>
      </trkpt>
      <trkpt lat="52.87933" lon="5.83116">
        <ele>47.059393</ele>
        <time>2024-07-07T07:49:34.952Z</time>
      </trkpt>
      <trkpt lat="52.8794" lon="5.83127">
        <ele>47.072346</ele>
        <time>2024-07-07T07:49:36.947Z</time>
      </trkpt>
      <trkpt lat="52.87947" lon="5.83138">
        <ele>47.085227</ele>
        <time>2024-07-07T07:49:38.933Z</time>
      </trkpt>
      <trkpt lat="52.87954" lon="5.83149">
        <ele>47.098276</ele>
        <time>2024-07-07T07:49:40.945Z</time>
      </trkpt>
      <trkpt lat="52.87961" lon="5.83161">
        <ele>47.111825</ele>
        <time>2024-07-07T07:49:42.950Z</time>
      </trkpt>
      <trkpt lat="52.87968" lon="5.83172">
        <ele>47.124987</ele>
        <time>2024-07-07T07:49:44.939Z</time>
      </trkpt>
      <trkpt lat="52.87975" lon="5.83184">
        <ele>47.138205</ele>
        <time>2024-07-07T07:49:46.941Z</time>
      </trkpt>
      <trkpt lat="52.87982" lon="5.83195">
        <ele>47.151908</ele>
        <time>2024-07-07T07:49:48.945Z</time>
      </trkpt>
      <trkpt lat="52.8799" lon="5.83207">
        <ele>47.165222</ele>
        <time>2024-07-07T07:49:50.960Z</time>
      </trkpt>
      <trkpt lat="52.87996" lon="5.83217">
        <ele>47.177741</ele>
        <time>2024-07-07T07:49:52.939Z</time>
      </trkpt>
      <trkpt lat="52.88006" lon="5.83232">
        <ele>47.195668</ele>
        <time>2024-07-07T07:49:55.943Z</time>
      </trkpt>
      <trkpt lat="52.88015" lon="5.83246">
        <ele>47.211987</ele>
        <time>2024-07-07T07:49:58.935Z</time>
      </trkpt>
      <trkpt lat="52.88023" lon="5.8326">
        <ele>47.227229</ele>
        <time>2024-07-07T07:50:01.944Z</time>
      </trkpt>
      <trkpt lat="52.88031" lon="5.83272">
        <ele>47.241596</ele>
        <time>2024-07-07T07:50:04.945Z</time>
      </trkpt>
      <trkpt lat="52.88041" lon="5.83287">
        <ele>47.247287</ele>
        <time>2024-07-07T07:50:07.944Z</time>
      </trkpt>
      <trkpt lat="52.8805" lon="5.83302">
        <ele>47.253035</ele>
        <time>2024-07-07T07:50:10.942Z</time>
      </trkpt>
      <trkpt lat="52.88057" lon="5.83312">
        <ele>47.257084</ele>
        <time>2024-07-07T07:50:12.946Z</time>
      </trkpt>
      <trkpt lat="52.88063" lon="5.83323">
        <ele>47.261055</ele>
        <time>2024-07-07T07:50:14.938Z</time>
      </trkpt>
      <trkpt lat="52.8807" lon="5.83334">
        <ele>47.265227</ele>
        <time>2024-07-07T07:50:16.955Z</time>
      </trkpt>
      <trkpt lat="52.88077" lon="5.83345">
        <ele>47.269441</ele>
        <time>2024-07-07T07:50:18.937Z</time>
      </trkpt>
      <trkpt lat="52.88084" lon="5.83356">
        <ele>47.273904</ele>
        <time>2024-07-07T07:50:20.943Z</time>
      </trkpt>
      <trkpt lat="52.88092" lon="5.83367">
        <ele>47.278176</ele>
        <time>2024-07-07T07:50:22.956Z</time>
      </trkpt>
      <trkpt lat="52.88099" lon="5.83379">
        <ele>47.282617</ele>
        <time>2024-07-07T07:50:24.932Z</time>
      </trkpt>
      <trkpt lat="52.88106" lon="5.8339">
        <ele>47.286744</ele>
        <time>2024-07-07T07:50:26.932Z</time>
      </trkpt>
      <trkpt lat="52.88112" lon="5.83402">
        <ele>47.291031</ele>
        <time>2024-07-07T07:50:28.946Z</time>
      </trkpt>
      <trkpt lat="52.88119" lon="5.83413">
        <ele>47.29527</ele>
        <time>2024-07-07T07:50:30.942Z</time>
      </trkpt>
      <trkpt lat="52.88126" lon="5.83424">
        <ele>47.299453</ele>
        <time>2024-07-07T07:50:32.940Z</time>
      </trkpt>
      <trkpt lat="52.88133" lon="5.83434">
        <ele>47.303666</ele>
        <time>2024-07-07T07:50:34.950Z</time>
      </trkpt>
      <trkpt lat="52.88141" lon="5.83445">
        <ele>47.308003</ele>
        <time>2024-07-07T07:50:36.960Z</time>
      </trkpt>
      <trkpt lat="52.88148" lon="5.83456">
        <ele>47.312161</ele>
        <time>2024-07-07T07:50:38.924Z</time>
      </trkpt>
      <trkpt lat="52.88154" lon="5.83466">
        <ele>47.316246</ele>
        <time>2024-07-07T07:50:40.958Z</time>
      </trkpt>
      <trkpt lat="52.88161" lon="5.83477">
        <ele>47.320955</ele>
        <time>2024-07-07T07:50:42.961Z</time>
      </trkpt>
      <trkpt lat="52.88168" lon="5.83488">
        <ele>47.333233</ele>
        <time>2024-07-07T07:50:44.944Z</time>
      </trkpt>
      <trkpt lat="52.88176" lon="5.83498">
        <ele>47.345557</ele>
        <time>2024-07-07T07:50:46.946Z</time>
      </trkpt>
      <trkpt lat="52.88183" lon="5.83508">
        <ele>47.357684</ele>
        <time>2024-07-07T07:50:48.926Z</time>
      </trkpt>
      <trkpt lat="52.8819" lon="5.83519">
        <ele>47.369866</ele>
        <time>2024-07-07T07:50:50.951Z</time>
      </trkpt>
      <trkpt lat="52.88197" lon="5.83529">
        <ele>47.381893</ele>
        <time>2024-07-07T07:50:52.961Z</time>
      </trkpt>
      <trkpt lat="52.88205" lon="5.83539">
        <ele>47.394363</ele>
        <time>2024-07-07T07:50:54.942Z</time>
      </trkpt>
      <trkpt lat="52.88213" lon="5.83549">
        <ele>47.406787</ele>
        <time>2024-07-07T07:50:56.938Z</time>
      </trkpt>
      <trkpt lat="52.8822" lon="5.83559">
        <ele>47.418863</ele>
        <time>2024-07-07T07:50:58.933Z</time>
      </trkpt>
      <trkpt lat="52.88228" lon="5.83569">
        <ele>47.432124</ele>
        <time>2024-07-07T07:51:00.946Z</time>
      </trkpt>
      <trkpt lat="52.88236" lon="5.8358">
        <ele>47.444793</ele>
        <time>2024-07-07T07:51:02.940Z</time>
      </trkpt>
      <trkpt lat="52.88243" lon="5.83589">
        <ele>47.457074</ele>
        <time>2024-07-07T07:51:04.961Z</time>
      </trkpt>
      <trkpt lat="52.8825" lon="5.836">
        <ele>47.469318</ele>
        <time>2024-07-07T07:51:06.944Z</time>
      </trkpt>
      <trkpt lat="52.88258" lon="5.8361">
        <ele>47.481741</ele>
        <time>2024-07-07T07:51:08.941Z</time>
      </trkpt>
      <trkpt lat="52.88265" lon="5.8362">
        <ele>47.493965</ele>
        <time>2024-07-07T07:51:10.940Z</time>
      </trkpt>
      <trkpt lat="52.88273" lon="5.83631">
        <ele>47.506734</ele>
        <time>2024-07-07T07:51:12.942Z</time>
      </trkpt>
      <trkpt lat="52.88281" lon="5.83641">
        <ele>47.519507</ele>
        <time>2024-07-07T07:51:14.938Z</time>
      </trkpt>
      <trkpt lat="52.88289" lon="5.83651">
        <ele>47.53252</ele>
        <time>2024-07-07T07:51:16.957Z</time>
      </trkpt>
      <trkpt lat="52.88296" lon="5.83662">
        <ele>47.54524</ele>
        <time>2024-07-07T07:51:18.946Z</time>
      </trkpt>
      <trkpt lat="52.88303" lon="5.83673">
        <ele>47.576947</ele>
        <time>2024-07-07T07:51:20.959Z</time>
      </trkpt>
      <trkpt lat="52.88311" lon="5.83684">
        <ele>47.62237</ele>
        <time>2024-07-07T07:51:22.931Z</time>
      </trkpt>
      <trkpt lat="52.88318" lon="5.83696">
        <ele>47.66795</ele>
        <time>2024-07-07T07:51:24.936Z</time>
      </trkpt>
      <trkpt lat="52.88325" lon="5.83707">
        <ele>47.713906</ele>
        <time>2024-07-07T07:51:26.938Z</time>
      </trkpt>
      <trkpt lat="52.88332" lon="5.83718">
        <ele>47.759619</ele>
        <time>2024-07-07T07:51:28.946Z</time>
      </trkpt>
      <trkpt lat="52.88339" lon="5.8373">
        <ele>47.805478</ele>
        <time>2024-07-07T07:51:30.928Z</time>
      </trkpt>
      <trkpt lat="52.88345" lon="5.83741">
        <ele>47.849407</ele>
        <time>2024-07-07T07:51:32.958Z</time>
      </trkpt>
      <trkpt lat="52.88353" lon="5.83752">
        <ele>47.896431</ele>
        <time>2024-07-07T07:51:34.939Z</time>
      </trkpt>
      <trkpt lat="52.88359" lon="5.83764">
        <ele>47.941136</ele>
        <time>2024-07-07T07:51:36.957Z</time>
      </trkpt>
      <trkpt lat="52.88366" lon="5.83777">
        <ele>47.988074</ele>
        <time>2024-07-07T07:51:38.944Z</time>
      </trkpt>
      <trkpt lat="52.88373" lon="5.83789">
        <ele>48.035966</ele>
        <time>2024-07-07T07:51:40.953Z</time>
      </trkpt>
      <trkpt lat="52.8838" lon="5.83801">
        <ele>48.083993</ele>
        <time>2024-07-07T07:51:42.950Z</time>
      </trkpt>
      <trkpt lat="52.88387" lon="5.83814">
        <ele>48.132654</ele>
        <time>2024-07-07T07:51:44.965Z</time>
      </trkpt>
      <trkpt lat="52.88394" lon="5.83827">
        <ele>48.179591</ele>
        <time>2024-07-07T07:51:46.926Z</time>
      </trkpt>
      <trkpt lat="52.884" lon="5.83839">
        <ele>48.226699</ele>
        <time>2024-07-07T07:51:48.949Z</time>
      </trkpt>
      <trkpt lat="52.88407" lon="5.83852">
        <ele>48.2739</ele>
        <time>2024-07-07T07:51:50.953Z</time>
      </trkpt>
      <trkpt lat="52.88413" lon="5.83865">
        <ele>48.320032</ele>
        <time>2024-07-07T07:51:52.938Z</time>
      </trkpt>
      <trkpt lat="52.88419" lon="5.83877">
        <ele>48.36478</ele>
        <time>2024-07-07T07:51:54.927Z</time>
      </trkpt>
      <trkpt lat="52.88426" lon="5.8389">
        <ele>48.374541</ele>
        <time>2024-07-07T07:51:56.928Z</time>
      </trkpt>
      <trkpt lat="52.88432" lon="5.83903">
        <ele>48.346415</ele>
        <time>2024-07-07T07:51:58.945Z</time>
      </trkpt>
      <trkpt lat="52.88438" lon="5.83916">
        <ele>48.317212</ele>
        <time>2024-07-07T07:52:00.938Z</time>
      </trkpt>
      <trkpt lat="52.88444" lon="5.83929">
        <ele>48.289616</ele>
        <time>2024-07-07T07:52:02.953Z</time>
      </trkpt>
      <trkpt lat="52.88451" lon="5.83942">
        <ele>48.260669</ele>
        <time>2024-07-07T07:52:04.939Z</time>
      </trkpt>
      <trkpt lat="52.88457" lon="5.83954">
        <ele>48.23323</ele>
        <time>2024-07-07T07:52:06.948Z</time>
      </trkpt>
      <trkpt lat="52.88464" lon="5.83966">
        <ele>48.205765</ele>
        <time>2024-07-07T07:52:08.944Z</time>
      </trkpt>
      <trkpt lat="52.8847" lon="5.83979">
        <ele>48.17814</ele>
        <time>2024-07-07T07:52:10.957Z</time>
      </trkpt>
      <trkpt lat="52.88476" lon="5.83992">
        <ele>48.150257</ele>
        <time>2024-07-07T07:52:12.927Z</time>
      </trkpt>
      <trkpt lat="52.88482" lon="5.84005">
        <ele>48.122705</ele>
        <time>2024-07-07T07:52:14.936Z</time>
      </trkpt>
      <trkpt lat="52.88489" lon="5.84018">
        <ele>48.093787</ele>
        <time>2024-07-07T07:52:16.946Z</time>
      </trkpt>
      <trkpt lat="52.88495" lon="5.84031">
        <ele>48.064768</ele>
        <time>2024-07-07T07:52:18.938Z</time>
      </trkpt>
      <trkpt lat="52.88502" lon="5.84044">
        <ele>48.035049</ele>
        <time>2024-07-07T07:52:20.944Z</time>
      </trkpt>
      <trkpt lat="52.88509" lon="5.84058">
        <ele>48.005201</ele>
        <time>2024-07-07T07:52:22.928Z</time>
      </trkpt>
      <trkpt lat="52.88516" lon="5.84071">
        <ele>47.975972</ele>
        <time>2024-07-07T07:52:24.928Z</time>
      </trkpt>
      <trkpt lat="52.88522" lon="5.84084">
        <ele>47.947523</ele>
        <time>2024-07-07T07:52:26.943Z</time>
      </trkpt>
      <trkpt lat="52.88529" lon="5.84097">
        <ele>47.918736</ele>
        <time>2024-07-07T07:52:28.943Z</time>
      </trkpt>
      <trkpt lat="52.88535" lon="5.84109">
        <ele>47.890103</ele>
        <time>2024-07-07T07:52:30.964Z</time>
      </trkpt>
      <trkpt lat="52.88542" lon="5.84123">
        <ele>47.883707</ele>
        <time>2024-07-07T07:52:32.959Z</time>
      </trkpt>
      <trkpt lat="52.88549" lon="5.84137">
        <ele>47.885502</ele>
        <time>2024-07-07T07:52:34.952Z</time>
      </trkpt>
      <trkpt lat="52.88555" lon="5.84151">
        <ele>47.887279</ele>
        <time>2024-07-07T07:52:36.945Z</time>
      </trkpt>
      <trkpt lat="52.88562" lon="5.84165">
        <ele>47.889122</ele>
        <time>2024-07-07T07:52:38.933Z</time>
      </trkpt>
      <trkpt lat="52.88568" lon="5.84179">
        <ele>47.890929</ele>
        <time>2024-07-07T07:52:40.959Z</time>
      </trkpt>
      <trkpt lat="52.88575" lon="5.84193">
        <ele>47.892729</ele>
        <time>2024-07-07T07:52:42.940Z</time>
      </trkpt>
      <trkpt lat="52.88581" lon="5.84207">
        <ele>47.894531</ele>
        <time>2024-07-07T07:52:44.938Z</time>
      </trkpt>
      <trkpt lat="52.88588" lon="5.8422">
        <ele>47.896318</ele>
        <time>2024-07-07T07:52:46.942Z</time>
      </trkpt>
      <trkpt lat="52.88595" lon="5.84233">
        <ele>47.898085</ele>
        <time>2024-07-07T07:52:48.945Z</time>
      </trkpt>
      <trkpt lat="52.88602" lon="5.84246">
        <ele>47.899849</ele>
        <time>2024-07-07T07:52:50.923Z</time>
      </trkpt>
      <trkpt lat="52.88608" lon="5.84259">
        <ele>47.901572</ele>
        <time>2024-07-07T07:52:52.923Z</time>
      </trkpt>
      <trkpt lat="52.88615" lon="5.84272">
        <ele>47.903332</ele>
        <time>2024-07-07T07:52:54.954Z</time>
      </trkpt>
      <trkpt lat="52.88621" lon="5.84286">
        <ele>47.905153</ele>
        <time>2024-07-07T07:52:56.941Z</time>
      </trkpt>
      <trkpt lat="52.88628" lon="5.843">
        <ele>47.907028</ele>
        <time>2024-07-07T07:52:58.949Z</time>
      </trkpt>
      <trkpt lat="52.88636" lon="5.84315">
        <ele>47.908953</ele>
        <time>2024-07-07T07:53:00.952Z</time>
      </trkpt>
      <trkpt lat="52.88643" lon="5.84329">
        <ele>47.910867</ele>
        <time>2024-07-07T07:53:02.940Z</time>
      </trkpt>
      <trkpt lat="52.8865" lon="5.84345">
        <ele>47.912819</ele>
        <time>2024-07-07T07:53:04.956Z</time>
      </trkpt>
      <trkpt lat="52.88657" lon="5.8436">
        <ele>47.913155</ele>
        <time>2024-07-07T07:53:06.947Z</time>
      </trkpt>
      <trkpt lat="52.88664" lon="5.84375">
        <ele>47.913441</ele>
        <time>2024-07-07T07:53:08.933Z</time>
      </trkpt>
      <trkpt lat="52.8867" lon="5.8439">
        <ele>47.91373</ele>
        <time>2024-07-07T07:53:10.952Z</time>
      </trkpt>
      <trkpt lat="52.88677" lon="5.84405">
        <ele>47.914017</ele>
        <time>2024-07-07T07:53:12.960Z</time>
      </trkpt>
      <trkpt lat="52.88685" lon="5.8442">
        <ele>47.914304</ele>
        <time>2024-07-07T07:53:14.943Z</time>
      </trkpt>
      <trkpt lat="52.88692" lon="5.84435">
        <ele>47.914596</ele>
        <time>2024-07-07T07:53:16.946Z</time>
      </trkpt>
      <trkpt lat="52.88699" lon="5.8445">
        <ele>47.914877</ele>
        <time>2024-07-07T07:53:18.932Z</time>
      </trkpt>
      <trkpt lat="52.88706" lon="5.84465">
        <ele>47.915163</ele>
        <time>2024-07-07T07:53:20.951Z</time>
      </trkpt>
      <trkpt lat="52.88713" lon="5.8448">
        <ele>47.915446</ele>
        <time>2024-07-07T07:53:22.954Z</time>
      </trkpt>
      <trkpt lat="52.8872" lon="5.84495">
        <ele>47.915729</ele>
        <time>2024-07-07T07:53:24.922Z</time>
      </trkpt>
      <trkpt lat="52.88727" lon="5.8451">
        <ele>47.916015</ele>
        <time>2024-07-07T07:53:26.930Z</time>
      </trkpt>
      <trkpt lat="52.88733" lon="5.84525">
        <ele>47.916294</ele>
        <time>2024-07-07T07:53:28.929Z</time>
      </trkpt>
      <trkpt lat="52.88741" lon="5.84539">
        <ele>47.916576</ele>
        <time>2024-07-07T07:53:30.941Z</time>
      </trkpt>
      <trkpt lat="52.88748" lon="5.84554">
        <ele>47.916853</ele>
        <time>2024-07-07T07:53:32.941Z</time>
      </trkpt>
      <trkpt lat="52.88755" lon="5.84568">
        <ele>47.917136</ele>
        <time>2024-07-07T07:53:34.946Z</time>
      </trkpt>
      <trkpt lat="52.88761" lon="5.84582">
        <ele>47.922669</ele>
        <time>2024-07-07T07:53:36.948Z</time>
      </trkpt>
      <trkpt lat="52.88768" lon="5.84596">
        <ele>47.958047</ele>
        <time>2024-07-07T07:53:38.938Z</time>
      </trkpt>
      <trkpt lat="52.88775" lon="5.84609">
        <ele>47.992008</ele>
        <time>2024-07-07T07:53:40.960Z</time>
      </trkpt>
      <trkpt lat="52.88782" lon="5.84621">
        <ele>48.026892</ele>
        <time>2024-07-07T07:53:42.945Z</time>
      </trkpt>
      <trkpt lat="52.88788" lon="5.84635">
        <ele>48.059848</ele>
        <time>2024-07-07T07:53:44.940Z</time>
      </trkpt>
      <trkpt lat="52.88794" lon="5.84649">
        <ele>48.093742</ele>
        <time>2024-07-07T07:53:46.940Z</time>
      </trkpt>
      <trkpt lat="52.888" lon="5.84662">
        <ele>48.126478</ele>
        <time>2024-07-07T07:53:48.950Z</time>
      </trkpt>
      <trkpt lat="52.88806" lon="5.84674">
        <ele>48.158964</ele>
        <time>2024-07-07T07:53:50.963Z</time>
      </trkpt>
      <trkpt lat="52.88812" lon="5.84686">
        <ele>48.190462</ele>
        <time>2024-07-07T07:53:52.937Z</time>
      </trkpt>
      <trkpt lat="52.8882" lon="5.84705">
        <ele>48.235535</ele>
        <time>2024-07-07T07:53:55.963Z</time>
      </trkpt>
      <trkpt lat="52.88826" lon="5.84717">
        <ele>48.266194</ele>
        <time>2024-07-07T07:53:57.940Z</time>
      </trkpt>
      <trkpt lat="52.88831" lon="5.84729">
        <ele>48.297334</ele>
        <time>2024-07-07T07:53:59.940Z</time>
      </trkpt>
      <trkpt lat="52.88837" lon="5.84742">
        <ele>48.329604</ele>
        <time>2024-07-07T07:54:01.942Z</time>
      </trkpt>
      <trkpt lat="52.88843" lon="5.84755">
        <ele>48.363107</ele>
        <time>2024-07-07T07:54:03.960Z</time>
      </trkpt>
      <trkpt lat="52.8885" lon="5.84768">
        <ele>48.396263</ele>
        <time>2024-07-07T07:54:05.951Z</time>
      </trkpt>
      <trkpt lat="52.88856" lon="5.8478">
        <ele>48.42873</ele>
        <time>2024-07-07T07:54:07.949Z</time>
      </trkpt>
      <trkpt lat="52.88862" lon="5.84793">
        <ele>48.46021</ele>
        <time>2024-07-07T07:54:09.942Z</time>
      </trkpt>
      <trkpt lat="52.88868" lon="5.84806">
        <ele>48.492709</ele>
        <time>2024-07-07T07:54:11.953Z</time>
      </trkpt>
      <trkpt lat="52.88874" lon="5.84818">
        <ele>48.523211</ele>
        <time>2024-07-07T07:54:13.945Z</time>
      </trkpt>
      <trkpt lat="52.8888" lon="5.84831">
        <ele>48.549107</ele>
        <time>2024-07-07T07:54:15.940Z</time>
      </trkpt>
      <trkpt lat="52.88886" lon="5.84843">
        <ele>48.575185</ele>
        <time>2024-07-07T07:54:17.951Z</time>
      </trkpt>
      <trkpt lat="52.88892" lon="5.84855">
        <ele>48.600785</ele>
        <time>2024-07-07T07:54:19.947Z</time>
      </trkpt>
      <trkpt lat="52.88898" lon="5.84868">
        <ele>48.627314</ele>
        <time>2024-07-07T07:54:21.958Z</time>
      </trkpt>
      <trkpt lat="52.88906" lon="5.84879">
        <ele>48.65533</ele>
        <time>2024-07-07T07:54:23.938Z</time>
      </trkpt>
      <trkpt lat="52.88915" lon="5.84888">
        <ele>48.682875</ele>
        <time>2024-07-07T07:54:25.954Z</time>
      </trkpt>
      <trkpt lat="52.88924" lon="5.84894">
        <ele>48.710115</ele>
        <time>2024-07-07T07:54:27.941Z</time>
      </trkpt>
      <trkpt lat="52.88933" lon="5.84899">
        <ele>48.736042</ele>
        <time>2024-07-07T07:54:29.964Z</time>
      </trkpt>
      <trkpt lat="52.88943" lon="5.84903">
        <ele>48.762717</ele>
        <time>2024-07-07T07:54:31.944Z</time>
      </trkpt>
      <trkpt lat="52.88953" lon="5.84907">
        <ele>48.791626</ele>
        <time>2024-07-07T07:54:33.939Z</time>
      </trkpt>
      <trkpt lat="52.88963" lon="5.84911">
        <ele>48.817912</ele>
        <time>2024-07-07T07:54:35.954Z</time>
      </trkpt>
      <trkpt lat="52.88972" lon="5.84915">
        <ele>48.844419</ele>
        <time>2024-07-07T07:54:37.937Z</time>
      </trkpt>
      <trkpt lat="52.88982" lon="5.84919">
        <ele>48.871463</ele>
        <time>2024-07-07T07:54:39.948Z</time>
      </trkpt>
      <trkpt lat="52.88992" lon="5.84923">
        <ele>48.898719</ele>
        <time>2024-07-07T07:54:41.941Z</time>
      </trkpt>
      <trkpt lat="52.89001" lon="5.84926">
        <ele>48.924583</ele>
        <time>2024-07-07T07:54:43.951Z</time>
      </trkpt>
      <trkpt lat="52.89011" lon="5.84929">
        <ele>48.951238</ele>
        <time>2024-07-07T07:54:45.924Z</time>
      </trkpt>
      <trkpt lat="52.8902" lon="5.84932">
        <ele>48.978131</ele>
        <time>2024-07-07T07:54:47.944Z</time>
      </trkpt>
      <trkpt lat="52.8903" lon="5.84936">
        <ele>48.995562</ele>
        <time>2024-07-07T07:54:49.947Z</time>
      </trkpt>
      <trkpt lat="52.89039" lon="5.84939">
        <ele>48.971673</ele>
        <time>2024-07-07T07:54:51.950Z</time>
      </trkpt>
      <trkpt lat="52.89049" lon="5.84942">
        <ele>48.94709</ele>
        <time>2024-07-07T07:54:53.951Z</time>
      </trkpt>
      <trkpt lat="52.89059" lon="5.84945">
        <ele>48.922152</ele>
        <time>2024-07-07T07:54:55.973Z</time>
      </trkpt>
      <trkpt lat="52.89069" lon="5.84949">
        <ele>48.896082</ele>
        <time>2024-07-07T07:54:57.946Z</time>
      </trkpt>
      <trkpt lat="52.89079" lon="5.84952">
        <ele>48.869321</ele>
        <time>2024-07-07T07:54:59.942Z</time>
      </trkpt>
      <trkpt lat="52.8909" lon="5.84955">
        <ele>48.841783</ele>
        <time>2024-07-07T07:55:01.951Z</time>
      </trkpt>
      <trkpt lat="52.891" lon="5.84957">
        <ele>48.815475</ele>
        <time>2024-07-07T07:55:03.958Z</time>
      </trkpt>
      <trkpt lat="52.89111" lon="5.84959">
        <ele>48.788813</ele>
        <time>2024-07-07T07:55:05.955Z</time>
      </trkpt>
      <trkpt lat="52.89121" lon="5.8496">
        <ele>48.761458</ele>
        <time>2024-07-07T07:55:07.943Z</time>
      </trkpt>
      <trkpt lat="52.89133" lon="5.84962">
        <ele>48.732821</ele>
        <time>2024-07-07T07:55:09.956Z</time>
      </trkpt>
      <trkpt lat="52.89144" lon="5.84963">
        <ele>48.704719</ele>
        <time>2024-07-07T07:55:11.953Z</time>
      </trkpt>
      <trkpt lat="52.89155" lon="5.84964">
        <ele>48.676373</ele>
        <time>2024-07-07T07:55:13.958Z</time>
      </trkpt>
      <trkpt lat="52.89166" lon="5.84964">
        <ele>48.647296</ele>
        <time>2024-07-07T07:55:15.959Z</time>
      </trkpt>
      <trkpt lat="52.89178" lon="5.84964">
        <ele>48.618981</ele>
        <time>2024-07-07T07:55:17.967Z</time>
      </trkpt>
      <trkpt lat="52.89188" lon="5.84963">
        <ele>48.591671</ele>
        <time>2024-07-07T07:55:19.940Z</time>
      </trkpt>
      <trkpt lat="52.89199" lon="5.84963">
        <ele>48.565135</ele>
        <time>2024-07-07T07:55:21.963Z</time>
      </trkpt>
      <trkpt lat="52.8921" lon="5.84963">
        <ele>48.517933</ele>
        <time>2024-07-07T07:55:23.944Z</time>
      </trkpt>
      <trkpt lat="52.89221" lon="5.84962">
        <ele>48.409237</ele>
        <time>2024-07-07T07:55:25.945Z</time>
      </trkpt>
      <trkpt lat="52.89231" lon="5.84963">
        <ele>48.306426</ele>
        <time>2024-07-07T07:55:27.937Z</time>
      </trkpt>
      <trkpt lat="52.89242" lon="5.84963">
        <ele>48.203568</ele>
        <time>2024-07-07T07:55:29.973Z</time>
      </trkpt>
      <trkpt lat="52.89253" lon="5.84962">
        <ele>48.096693</ele>
        <time>2024-07-07T07:55:31.944Z</time>
      </trkpt>
      <trkpt lat="52.89263" lon="5.84961">
        <ele>47.993463</ele>
        <time>2024-07-07T07:55:33.958Z</time>
      </trkpt>
      <trkpt lat="52.89273" lon="5.84957">
        <ele>47.897357</ele>
        <time>2024-07-07T07:55:35.944Z</time>
      </trkpt>
      <trkpt lat="52.89282" lon="5.84952">
        <ele>47.804772</ele>
        <time>2024-07-07T07:55:37.947Z</time>
      </trkpt>
      <trkpt lat="52.8929" lon="5.84945">
        <ele>47.71246</ele>
        <time>2024-07-07T07:55:39.950Z</time>
      </trkpt>
      <trkpt lat="52.89298" lon="5.84936">
        <ele>47.616632</ele>
        <time>2024-07-07T07:55:41.957Z</time>
      </trkpt>
      <trkpt lat="52.89306" lon="5.84926">
        <ele>47.521229</ele>
        <time>2024-07-07T07:55:43.937Z</time>
      </trkpt>
      <trkpt lat="52.89314" lon="5.84916">
        <ele>47.422702</ele>
        <time>2024-07-07T07:55:45.955Z</time>
      </trkpt>
      <trkpt lat="52.89322" lon="5.84906">
        <ele>47.323316</ele>
        <time>2024-07-07T07:55:47.958Z</time>
      </trkpt>
      <trkpt lat="52.89331" lon="5.84899">
        <ele>47.22636</ele>
        <time>2024-07-07T07:55:49.944Z</time>
      </trkpt>
      <trkpt lat="52.89341" lon="5.84892">
        <ele>47.121321</ele>
        <time>2024-07-07T07:55:51.933Z</time>
      </trkpt>
      <trkpt lat="52.89351" lon="5.84884">
        <ele>47.015145</ele>
        <time>2024-07-07T07:55:53.941Z</time>
      </trkpt>
      <trkpt lat="52.89361" lon="5.84876">
        <ele>46.904034</ele>
        <time>2024-07-07T07:55:55.961Z</time>
      </trkpt>
      <trkpt lat="52.8937" lon="5.84867">
        <ele>46.797491</ele>
        <time>2024-07-07T07:55:57.949Z</time>
      </trkpt>
      <trkpt lat="52.8938" lon="5.84858">
        <ele>46.850078</ele>
        <time>2024-07-07T07:55:59.941Z</time>
      </trkpt>
      <trkpt lat="52.89389" lon="5.8485">
        <ele>46.918772</ele>
        <time>2024-07-07T07:56:01.943Z</time>
      </trkpt>
      <trkpt lat="52.89397" lon="5.84843">
        <ele>46.984147</ele>
        <time>2024-07-07T07:56:03.957Z</time>
      </trkpt>
      <trkpt lat="52.89406" lon="5.84836">
        <ele>47.047577</ele>
        <time>2024-07-07T07:56:05.940Z</time>
      </trkpt>
      <trkpt lat="52.89413" lon="5.84829">
        <ele>47.109093</ele>
        <time>2024-07-07T07:56:07.946Z</time>
      </trkpt>
      <trkpt lat="52.89422" lon="5.84823">
        <ele>47.174178</ele>
        <time>2024-07-07T07:56:09.944Z</time>
      </trkpt>
      <trkpt lat="52.89432" lon="5.84817">
        <ele>47.243059</ele>
        <time>2024-07-07T07:56:11.942Z</time>
      </trkpt>
      <trkpt lat="52.89441" lon="5.8481">
        <ele>47.311461</ele>
        <time>2024-07-07T07:56:13.937Z</time>
      </trkpt>
      <trkpt lat="52.89451" lon="5.84804">
        <ele>47.383008</ele>
        <time>2024-07-07T07:56:15.939Z</time>
      </trkpt>
      <trkpt lat="52.8946" lon="5.84797">
        <ele>47.453135</ele>
        <time>2024-07-07T07:56:17.949Z</time>
      </trkpt>
      <trkpt lat="52.8947" lon="5.84791">
        <ele>47.5277</ele>
        <time>2024-07-07T07:56:19.939Z</time>
      </trkpt>
      <trkpt lat="52.8948" lon="5.84785">
        <ele>47.598491</ele>
        <time>2024-07-07T07:56:21.946Z</time>
      </trkpt>
      <trkpt lat="52.8949" lon="5.84779">
        <ele>47.670276</ele>
        <time>2024-07-07T07:56:23.942Z</time>
      </trkpt>
      <trkpt lat="52.895" lon="5.84773">
        <ele>47.741391</ele>
        <time>2024-07-07T07:56:25.955Z</time>
      </trkpt>
      <trkpt lat="52.8951" lon="5.84767">
        <ele>47.817447</ele>
        <time>2024-07-07T07:56:27.948Z</time>
      </trkpt>
      <trkpt lat="52.8952" lon="5.84761">
        <ele>47.890796</ele>
        <time>2024-07-07T07:56:29.935Z</time>
      </trkpt>
      <trkpt lat="52.89531" lon="5.84755">
        <ele>47.965709</ele>
        <time>2024-07-07T07:56:31.943Z</time>
      </trkpt>
      <trkpt lat="52.89541" lon="5.84749">
        <ele>48.035609</ele>
        <time>2024-07-07T07:56:33.941Z</time>
      </trkpt>
      <trkpt lat="52.89552" lon="5.84743">
        <ele>48.096309</ele>
        <time>2024-07-07T07:56:35.933Z</time>
      </trkpt>
      <trkpt lat="52.89562" lon="5.84737">
        <ele>48.157954</ele>
        <time>2024-07-07T07:56:37.953Z</time>
      </trkpt>
      <trkpt lat="52.89573" lon="5.84731">
        <ele>48.219491</ele>
        <time>2024-07-07T07:56:39.955Z</time>
      </trkpt>
      <trkpt lat="52.89584" lon="5.84726">
        <ele>48.281537</ele>
        <time>2024-07-07T07:56:41.961Z</time>
      </trkpt>
      <trkpt lat="52.89595" lon="5.84721">
        <ele>48.344379</ele>
        <time>2024-07-07T07:56:43.949Z</time>
      </trkpt>
      <trkpt lat="52.89605" lon="5.84714">
        <ele>48.406433</ele>
        <time>2024-07-07T07:56:45.940Z</time>
      </trkpt>
      <trkpt lat="52.89616" lon="5.84708">
        <ele>48.467669</ele>
        <time>2024-07-07T07:56:47.944Z</time>
      </trkpt>
      <trkpt lat="52.89626" lon="5.84702">
        <ele>48.530052</ele>
        <time>2024-07-07T07:56:49.942Z</time>
      </trkpt>
      <trkpt lat="52.89637" lon="5.84696">
        <ele>48.59023</ele>
        <time>2024-07-07T07:56:51.948Z</time>
      </trkpt>
      <trkpt lat="52.89647" lon="5.8469">
        <ele>48.650101</ele>
        <time>2024-07-07T07:56:53.943Z</time>
      </trkpt>
      <trkpt lat="52.89657" lon="5.84682">
        <ele>48.707852</ele>
        <time>2024-07-07T07:56:55.962Z</time>
      </trkpt>
      <trkpt lat="52.89666" lon="5.84676">
        <ele>48.76495</ele>
        <time>2024-07-07T07:56:57.954Z</time>
      </trkpt>
      <trkpt lat="52.89676" lon="5.84671">
        <ele>48.820644</ele>
        <time>2024-07-07T07:56:59.953Z</time>
      </trkpt>
      <trkpt lat="52.89685" lon="5.84665">
        <ele>48.875839</ele>
        <time>2024-07-07T07:57:01.933Z</time>
      </trkpt>
      <trkpt lat="52.89695" lon="5.84659">
        <ele>48.931861</ele>
        <time>2024-07-07T07:57:03.925Z</time>
      </trkpt>
      <trkpt lat="52.89704" lon="5.84654">
        <ele>48.987145</ele>
        <time>2024-07-07T07:57:05.945Z</time>
      </trkpt>
      <trkpt lat="52.89714" lon="5.84649">
        <ele>49.011663</ele>
        <time>2024-07-07T07:57:07.937Z</time>
      </trkpt>
      <trkpt lat="52.89724" lon="5.84643">
        <ele>49.026646</ele>
        <time>2024-07-07T07:57:09.957Z</time>
      </trkpt>
      <trkpt lat="52.89733" lon="5.84638">
        <ele>49.0418</ele>
        <time>2024-07-07T07:57:11.956Z</time>
      </trkpt>
      <trkpt lat="52.89743" lon="5.84633">
        <ele>49.057152</ele>
        <time>2024-07-07T07:57:13.949Z</time>
      </trkpt>
      <trkpt lat="52.89752" lon="5.84626">
        <ele>49.072485</ele>
        <time>2024-07-07T07:57:15.938Z</time>
      </trkpt>
      <trkpt lat="52.89762" lon="5.8462">
        <ele>49.08798</ele>
        <time>2024-07-07T07:57:17.962Z</time>
      </trkpt>
      <trkpt lat="52.89772" lon="5.84615">
        <ele>49.103505</ele>
        <time>2024-07-07T07:57:19.931Z</time>
      </trkpt>
      <trkpt lat="52.89782" lon="5.84609">
        <ele>49.119394</ele>
        <time>2024-07-07T07:57:21.939Z</time>
      </trkpt>
      <trkpt lat="52.89792" lon="5.84604">
        <ele>49.134943</ele>
        <time>2024-07-07T07:57:23.951Z</time>
      </trkpt>
      <trkpt lat="52.89802" lon="5.84598">
        <ele>49.15025</ele>
        <time>2024-07-07T07:57:25.943Z</time>
      </trkpt>
      <trkpt lat="52.89811" lon="5.84592">
        <ele>49.165574</ele>
        <time>2024-07-07T07:57:27.946Z</time>
      </trkpt>
      <trkpt lat="52.89821" lon="5.84586">
        <ele>49.181521</ele>
        <time>2024-07-07T07:57:29.951Z</time>
      </trkpt>
      <trkpt lat="52.89831" lon="5.8458">
        <ele>49.197108</ele>
        <time>2024-07-07T07:57:31.962Z</time>
      </trkpt>
      <trkpt lat="52.89841" lon="5.84575">
        <ele>49.212462</ele>
        <time>2024-07-07T07:57:33.958Z</time>
      </trkpt>
      <trkpt lat="52.89851" lon="5.84569">
        <ele>49.227813</ele>
        <time>2024-07-07T07:57:35.945Z</time>
      </trkpt>
      <trkpt lat="52.89861" lon="5.84564">
        <ele>49.243731</ele>
        <time>2024-07-07T07:57:37.960Z</time>
      </trkpt>
      <trkpt lat="52.89871" lon="5.84558">
        <ele>49.259427</ele>
        <time>2024-07-07T07:57:39.958Z</time>
      </trkpt>
      <trkpt lat="52.8988" lon="5.84552">
        <ele>49.268105</ele>
        <time>2024-07-07T07:57:41.941Z</time>
      </trkpt>
      <trkpt lat="52.89891" lon="5.84546">
        <ele>49.267499</ele>
        <time>2024-07-07T07:57:43.938Z</time>
      </trkpt>
      <trkpt lat="52.89901" lon="5.8454">
        <ele>49.266892</ele>
        <time>2024-07-07T07:57:45.948Z</time>
      </trkpt>
      <trkpt lat="52.89911" lon="5.84534">
        <ele>49.266284</ele>
        <time>2024-07-07T07:57:47.940Z</time>
      </trkpt>
      <trkpt lat="52.89921" lon="5.84528">
        <ele>49.265699</ele>
        <time>2024-07-07T07:57:49.940Z</time>
      </trkpt>
      <trkpt lat="52.8993" lon="5.84523">
        <ele>49.26512</ele>
        <time>2024-07-07T07:57:51.941Z</time>
      </trkpt>
      <trkpt lat="52.8994" lon="5.84517">
        <ele>49.264547</ele>
        <time>2024-07-07T07:57:53.957Z</time>
      </trkpt>
      <trkpt lat="52.8995" lon="5.84511">
        <ele>49.263951</ele>
        <time>2024-07-07T07:57:55.942Z</time>
      </trkpt>
      <trkpt lat="52.8996" lon="5.84506">
        <ele>49.263375</ele>
        <time>2024-07-07T07:57:57.942Z</time>
      </trkpt>
      <trkpt lat="52.89969" lon="5.84501">
        <ele>49.262816</ele>
        <time>2024-07-07T07:57:59.941Z</time>
      </trkpt>
      <trkpt lat="52.89978" lon="5.84496">
        <ele>49.262258</ele>
        <time>2024-07-07T07:58:01.940Z</time>
      </trkpt>
      <trkpt lat="52.89988" lon="5.8449">
        <ele>49.261696</ele>
        <time>2024-07-07T07:58:03.925Z</time>
      </trkpt>
      <trkpt lat="52.89997" lon="5.84484">
        <ele>49.261123</ele>
        <time>2024-07-07T07:58:05.962Z</time>
      </trkpt>
      <trkpt lat="52.90007" lon="5.84479">
        <ele>49.260539</ele>
        <time>2024-07-07T07:58:07.950Z</time>
      </trkpt>
      <trkpt lat="52.90017" lon="5.84473">
        <ele>49.259963</ele>
        <time>2024-07-07T07:58:09.927Z</time>
      </trkpt>
      <trkpt lat="52.90027" lon="5.84468">
        <ele>49.259356</ele>
        <time>2024-07-07T07:58:11.949Z</time>
      </trkpt>
      <trkpt lat="52.90037" lon="5.84463">
        <ele>49.258759</ele>
        <time>2024-07-07T07:58:13.945Z</time>
      </trkpt>
      <trkpt lat="52.90047" lon="5.84458">
        <ele>49.262059</ele>
        <time>2024-07-07T07:58:15.941Z</time>
      </trkpt>
      <trkpt lat="52.90057" lon="5.84453">
        <ele>49.365595</ele>
        <time>2024-07-07T07:58:17.943Z</time>
      </trkpt>
      <trkpt lat="52.90067" lon="5.84449">
        <ele>49.472606</ele>
        <time>2024-07-07T07:58:19.958Z</time>
      </trkpt>
      <trkpt lat="52.90077" lon="5.84444">
        <ele>49.581416</ele>
        <time>2024-07-07T07:58:21.948Z</time>
      </trkpt>
      <trkpt lat="52.90087" lon="5.8444">
        <ele>49.687751</ele>
        <time>2024-07-07T07:58:23.963Z</time>
      </trkpt>
      <trkpt lat="52.90097" lon="5.84437">
        <ele>49.79103</ele>
        <time>2024-07-07T07:58:25.956Z</time>
      </trkpt>
      <trkpt lat="52.90107" lon="5.84434">
        <ele>49.896221</ele>
        <time>2024-07-07T07:58:27.946Z</time>
      </trkpt>
      <trkpt lat="52.90117" lon="5.84433">
        <ele>50.002103</ele>
        <time>2024-07-07T07:58:29.954Z</time>
      </trkpt>
      <trkpt lat="52.90127" lon="5.84432">
        <ele>50.101769</ele>
        <time>2024-07-07T07:58:31.945Z</time>
      </trkpt>
      <trkpt lat="52.90137" lon="5.84432">
        <ele>50.200318</ele>
        <time>2024-07-07T07:58:33.961Z</time>
      </trkpt>
      <trkpt lat="52.90146" lon="5.84432">
        <ele>50.298835</ele>
        <time>2024-07-07T07:58:35.945Z</time>
      </trkpt>
      <trkpt lat="52.90155" lon="5.84432">
        <ele>50.392239</ele>
        <time>2024-07-07T07:58:37.952Z</time>
      </trkpt>
      <trkpt lat="52.90169" lon="5.84433">
        <ele>50.528777</ele>
        <time>2024-07-07T07:58:40.952Z</time>
      </trkpt>
      <trkpt lat="52.90181" lon="5.84434">
        <ele>50.658508</ele>
        <time>2024-07-07T07:58:43.947Z</time>
      </trkpt>
      <trkpt lat="52.90193" lon="5.84436">
        <ele>50.785279</ele>
        <time>2024-07-07T07:58:46.943Z</time>
      </trkpt>
      <trkpt lat="52.90205" lon="5.84438">
        <ele>50.907907</ele>
        <time>2024-07-07T07:58:49.943Z</time>
      </trkpt>
      <trkpt lat="52.90217" lon="5.84441">
        <ele>51.03143</ele>
        <time>2024-07-07T07:58:52.955Z</time>
      </trkpt>
      <trkpt lat="52.90229" lon="5.84443">
        <ele>51.074065</ele>
        <time>2024-07-07T07:58:55.948Z</time>
      </trkpt>
      <trkpt lat="52.90241" lon="5.84446">
        <ele>50.98968</ele>
        <time>2024-07-07T07:58:58.937Z</time>
      </trkpt>
      <trkpt lat="52.90254" lon="5.84449">
        <ele>50.907543</ele>
        <time>2024-07-07T07:59:01.940Z</time>
      </trkpt>
      <trkpt lat="52.90263" lon="5.84451">
        <ele>50.844954</ele>
        <time>2024-07-07T07:59:03.951Z</time>
      </trkpt>
      <trkpt lat="52.90273" lon="5.84455">
        <ele>50.776906</ele>
        <time>2024-07-07T07:59:05.942Z</time>
      </trkpt>
      <trkpt lat="52.90284" lon="5.84458">
        <ele>50.699809</ele>
        <time>2024-07-07T07:59:07.948Z</time>
      </trkpt>
      <trkpt lat="52.90296" lon="5.84462">
        <ele>50.621021</ele>
        <time>2024-07-07T07:59:09.947Z</time>
      </trkpt>
      <trkpt lat="52.90307" lon="5.84465">
        <ele>50.543727</ele>
        <time>2024-07-07T07:59:11.938Z</time>
      </trkpt>
      <trkpt lat="52.90319" lon="5.84467">
        <ele>50.465425</ele>
        <time>2024-07-07T07:59:13.943Z</time>
      </trkpt>
      <trkpt lat="52.90331" lon="5.8447">
        <ele>50.387531</ele>
        <time>2024-07-07T07:59:15.939Z</time>
      </trkpt>
      <trkpt lat="52.90342" lon="5.84473">
        <ele>50.310403</ele>
        <time>2024-07-07T07:59:17.949Z</time>
      </trkpt>
      <trkpt lat="52.90354" lon="5.84475">
        <ele>50.232007</ele>
        <time>2024-07-07T07:59:19.941Z</time>
      </trkpt>
      <trkpt lat="52.90365" lon="5.84478">
        <ele>50.155371</ele>
        <time>2024-07-07T07:59:21.955Z</time>
      </trkpt>
      <trkpt lat="52.90377" lon="5.8448">
        <ele>50.078191</ele>
        <time>2024-07-07T07:59:23.937Z</time>
      </trkpt>
      <trkpt lat="52.90388" lon="5.84483">
        <ele>50.00055</ele>
        <time>2024-07-07T07:59:25.941Z</time>
      </trkpt>
      <trkpt lat="52.904" lon="5.84485">
        <ele>49.920926</ele>
        <time>2024-07-07T07:59:27.960Z</time>
      </trkpt>
      <trkpt lat="52.90412" lon="5.84487">
        <ele>49.840117</ele>
        <time>2024-07-07T07:59:29.945Z</time>
      </trkpt>
      <trkpt lat="52.90423" lon="5.84489">
        <ele>49.758118</ele>
        <time>2024-07-07T07:59:31.939Z</time>
      </trkpt>
      <trkpt lat="52.90434" lon="5.84492">
        <ele>49.675953</ele>
        <time>2024-07-07T07:59:33.952Z</time>
      </trkpt>
      <trkpt lat="52.90446" lon="5.84494">
        <ele>49.595848</ele>
        <time>2024-07-07T07:59:35.943Z</time>
      </trkpt>
      <trkpt lat="52.90457" lon="5.84497">
        <ele>49.512975</ele>
        <time>2024-07-07T07:59:37.949Z</time>
      </trkpt>
      <trkpt lat="52.90469" lon="5.84498">
        <ele>49.42705</ele>
        <time>2024-07-07T07:59:39.938Z</time>
      </trkpt>
      <trkpt lat="52.90481" lon="5.845">
        <ele>49.341017</ele>
        <time>2024-07-07T07:59:41.963Z</time>
      </trkpt>
      <trkpt lat="52.90492" lon="5.84502">
        <ele>49.259164</ele>
        <time>2024-07-07T07:59:43.941Z</time>
      </trkpt>
      <trkpt lat="52.90504" lon="5.84504">
        <ele>49.175303</ele>
        <time>2024-07-07T07:59:45.939Z</time>
      </trkpt>
      <trkpt lat="52.90516" lon="5.84505">
        <ele>49.089378</ele>
        <time>2024-07-07T07:59:47.951Z</time>
      </trkpt>
      <trkpt lat="52.90528" lon="5.84505">
        <ele>49.00298</ele>
        <time>2024-07-07T07:59:49.946Z</time>
      </trkpt>
      <trkpt lat="52.90541" lon="5.84506">
        <ele>48.91507</ele>
        <time>2024-07-07T07:59:51.947Z</time>
      </trkpt>
      <trkpt lat="52.90553" lon="5.84507">
        <ele>48.827921</ele>
        <time>2024-07-07T07:59:53.945Z</time>
      </trkpt>
      <trkpt lat="52.90564" lon="5.84507">
        <ele>48.74434</ele>
        <time>2024-07-07T07:59:55.941Z</time>
      </trkpt>
      <trkpt lat="52.90577" lon="5.84508">
        <ele>48.657939</ele>
        <time>2024-07-07T07:59:57.942Z</time>
      </trkpt>
      <trkpt lat="52.90589" lon="5.84508">
        <ele>48.636121</ele>
        <time>2024-07-07T07:59:59.948Z</time>
      </trkpt>
      <trkpt lat="52.906" lon="5.84508">
        <ele>48.656687</ele>
        <time>2024-07-07T08:00:01.945Z</time>
      </trkpt>
      <trkpt lat="52.90612" lon="5.84508">
        <ele>48.677254</ele>
        <time>2024-07-07T08:00:03.947Z</time>
      </trkpt>
      <trkpt lat="52.90623" lon="5.84508">
        <ele>48.69644</ele>
        <time>2024-07-07T08:00:05.940Z</time>
      </trkpt>
      <trkpt lat="52.90633" lon="5.84502">
        <ele>48.713648</ele>
        <time>2024-07-07T08:00:08.951Z</time>
      </trkpt>
      <trkpt lat="52.90634" lon="5.84484">
        <ele>48.732359</ele>
        <time>2024-07-07T08:00:12.943Z</time>
      </trkpt>
      <trkpt lat="52.90642" lon="5.84471">
        <ele>48.751864</ele>
        <time>2024-07-07T08:00:15.928Z</time>
      </trkpt>
      <trkpt lat="52.90653" lon="5.84461">
        <ele>48.774001</ele>
        <time>2024-07-07T08:00:18.942Z</time>
      </trkpt>
      <trkpt lat="52.90663" lon="5.84458">
        <ele>48.790982</ele>
        <time>2024-07-07T08:00:20.923Z</time>
      </trkpt>
      <trkpt lat="52.90673" lon="5.84459">
        <ele>48.807922</ele>
        <time>2024-07-07T08:00:22.933Z</time>
      </trkpt>
      <trkpt lat="52.90682" lon="5.84463">
        <ele>48.825026</ele>
        <time>2024-07-07T08:00:24.941Z</time>
      </trkpt>
      <trkpt lat="52.90692" lon="5.84468">
        <ele>48.841791</ele>
        <time>2024-07-07T08:00:26.922Z</time>
      </trkpt>
      <trkpt lat="52.90701" lon="5.84471">
        <ele>48.858655</ele>
        <time>2024-07-07T08:00:28.935Z</time>
      </trkpt>
      <trkpt lat="52.90711" lon="5.84474">
        <ele>48.875961</ele>
        <time>2024-07-07T08:00:30.940Z</time>
      </trkpt>
      <trkpt lat="52.90721" lon="5.84477">
        <ele>48.893148</ele>
        <time>2024-07-07T08:00:32.943Z</time>
      </trkpt>
      <trkpt lat="52.90731" lon="5.8448">
        <ele>48.910201</ele>
        <time>2024-07-07T08:00:34.952Z</time>
      </trkpt>
      <trkpt lat="52.90741" lon="5.84481">
        <ele>48.927424</ele>
        <time>2024-07-07T08:00:36.956Z</time>
      </trkpt>
      <trkpt lat="52.90751" lon="5.84484">
        <ele>48.908486</ele>
        <time>2024-07-07T08:00:38.940Z</time>
      </trkpt>
      <trkpt lat="52.90761" lon="5.84487">
        <ele>48.866959</ele>
        <time>2024-07-07T08:00:40.937Z</time>
      </trkpt>
      <trkpt lat="52.90771" lon="5.84489">
        <ele>48.825555</ele>
        <time>2024-07-07T08:00:42.948Z</time>
      </trkpt>
      <trkpt lat="52.90781" lon="5.84492">
        <ele>48.781586</ele>
        <time>2024-07-07T08:00:44.938Z</time>
      </trkpt>
      <trkpt lat="52.90791" lon="5.84496">
        <ele>48.738658</ele>
        <time>2024-07-07T08:00:46.937Z</time>
      </trkpt>
      <trkpt lat="52.90802" lon="5.84499">
        <ele>48.695581</ele>
        <time>2024-07-07T08:00:48.936Z</time>
      </trkpt>
      <trkpt lat="52.90812" lon="5.84501">
        <ele>48.653183</ele>
        <time>2024-07-07T08:00:50.932Z</time>
      </trkpt>
      <trkpt lat="52.90822" lon="5.84503">
        <ele>48.610495</ele>
        <time>2024-07-07T08:00:52.949Z</time>
      </trkpt>
      <trkpt lat="52.90832" lon="5.84506">
        <ele>48.567297</ele>
        <time>2024-07-07T08:00:54.946Z</time>
      </trkpt>
      <trkpt lat="52.90843" lon="5.84509">
        <ele>48.5241</ele>
        <time>2024-07-07T08:00:56.942Z</time>
      </trkpt>
      <trkpt lat="52.90852" lon="5.84512">
        <ele>48.482583</ele>
        <time>2024-07-07T08:00:58.948Z</time>
      </trkpt>
      <trkpt lat="52.90863" lon="5.84515">
        <ele>48.440028</ele>
        <time>2024-07-07T08:01:00.943Z</time>
      </trkpt>
      <trkpt lat="52.90872" lon="5.84519">
        <ele>48.400336</ele>
        <time>2024-07-07T08:01:02.944Z</time>
      </trkpt>
      <trkpt lat="52.90882" lon="5.84523">
        <ele>48.35761</ele>
        <time>2024-07-07T08:01:04.947Z</time>
      </trkpt>
      <trkpt lat="52.90892" lon="5.84526">
        <ele>48.31364</ele>
        <time>2024-07-07T08:01:06.964Z</time>
      </trkpt>
      <trkpt lat="52.90903" lon="5.8453">
        <ele>48.269138</ele>
        <time>2024-07-07T08:01:08.925Z</time>
      </trkpt>
      <trkpt lat="52.90913" lon="5.84534">
        <ele>48.227264</ele>
        <time>2024-07-07T08:01:10.936Z</time>
      </trkpt>
      <trkpt lat="52.90923" lon="5.84538">
        <ele>48.191044</ele>
        <time>2024-07-07T08:01:12.949Z</time>
      </trkpt>
      <trkpt lat="52.90932" lon="5.84543">
        <ele>48.187477</ele>
        <time>2024-07-07T08:01:14.944Z</time>
      </trkpt>
      <trkpt lat="52.90941" lon="5.84548">
        <ele>48.18414</ele>
        <time>2024-07-07T08:01:16.939Z</time>
      </trkpt>
      <trkpt lat="52.9095" lon="5.84554">
        <ele>48.180618</ele>
        <time>2024-07-07T08:01:18.953Z</time>
      </trkpt>
      <trkpt lat="52.9096" lon="5.84561">
        <ele>48.176901</ele>
        <time>2024-07-07T08:01:20.955Z</time>
      </trkpt>
      <trkpt lat="52.9097" lon="5.84568">
        <ele>48.173021</ele>
        <time>2024-07-07T08:01:22.938Z</time>
      </trkpt>
      <trkpt lat="52.9098" lon="5.84574">
        <ele>48.169377</ele>
        <time>2024-07-07T08:01:24.921Z</time>
      </trkpt>
      <trkpt lat="52.9099" lon="5.8458">
        <ele>48.165659</ele>
        <time>2024-07-07T08:01:26.941Z</time>
      </trkpt>
      <trkpt lat="52.91" lon="5.84585">
        <ele>48.16196</ele>
        <time>2024-07-07T08:01:28.929Z</time>
      </trkpt>
      <trkpt lat="52.9101" lon="5.8459">
        <ele>48.158093</ele>
        <time>2024-07-07T08:01:30.928Z</time>
      </trkpt>
      <trkpt lat="52.91021" lon="5.84595">
        <ele>48.154277</ele>
        <time>2024-07-07T08:01:32.941Z</time>
      </trkpt>
      <trkpt lat="52.91031" lon="5.846">
        <ele>48.150393</ele>
        <time>2024-07-07T08:01:34.943Z</time>
      </trkpt>
      <trkpt lat="52.91042" lon="5.84604">
        <ele>48.146616</ele>
        <time>2024-07-07T08:01:36.942Z</time>
      </trkpt>
      <trkpt lat="52.91053" lon="5.84607">
        <ele>48.142793</ele>
        <time>2024-07-07T08:01:38.942Z</time>
      </trkpt>
      <trkpt lat="52.91063" lon="5.84612">
        <ele>48.139106</ele>
        <time>2024-07-07T08:01:40.961Z</time>
      </trkpt>
      <trkpt lat="52.91072" lon="5.84617">
        <ele>48.135635</ele>
        <time>2024-07-07T08:01:42.947Z</time>
      </trkpt>
      <trkpt lat="52.91082" lon="5.84621">
        <ele>48.132078</ele>
        <time>2024-07-07T08:01:44.959Z</time>
      </trkpt>
      <trkpt lat="52.91092" lon="5.84625">
        <ele>48.128379</ele>
        <time>2024-07-07T08:01:46.960Z</time>
      </trkpt>
      <trkpt lat="52.91103" lon="5.8463">
        <ele>48.099968</ele>
        <time>2024-07-07T08:01:48.956Z</time>
      </trkpt>
      <trkpt lat="52.91112" lon="5.84636">
        <ele>48.071368</ele>
        <time>2024-07-07T08:01:50.942Z</time>
      </trkpt>
      <trkpt lat="52.91122" lon="5.84641">
        <ele>48.042362</ele>
        <time>2024-07-07T08:01:52.941Z</time>
      </trkpt>
      <trkpt lat="52.91132" lon="5.84648">
        <ele>48.014031</ele>
        <time>2024-07-07T08:01:54.956Z</time>
      </trkpt>
      <trkpt lat="52.91141" lon="5.84654">
        <ele>47.986523</ele>
        <time>2024-07-07T08:01:56.927Z</time>
      </trkpt>
      <trkpt lat="52.9115" lon="5.8466">
        <ele>47.958698</ele>
        <time>2024-07-07T08:01:58.953Z</time>
      </trkpt>
      <trkpt lat="52.91159" lon="5.84667">
        <ele>47.930595</ele>
        <time>2024-07-07T08:02:00.943Z</time>
      </trkpt>
      <trkpt lat="52.91168" lon="5.84675">
        <ele>47.903674</ele>
        <time>2024-07-07T08:02:02.959Z</time>
      </trkpt>
      <trkpt lat="52.91177" lon="5.84681">
        <ele>47.877448</ele>
        <time>2024-07-07T08:02:04.952Z</time>
      </trkpt>
      <trkpt lat="52.91185" lon="5.84688">
        <ele>47.85197</ele>
        <time>2024-07-07T08:02:06.941Z</time>
      </trkpt>
      <trkpt lat="52.91193" lon="5.84696">
        <ele>47.825133</ele>
        <time>2024-07-07T08:02:08.945Z</time>
      </trkpt>
      <trkpt lat="52.91202" lon="5.84702">
        <ele>47.799167</ele>
        <time>2024-07-07T08:02:10.944Z</time>
      </trkpt>
      <trkpt lat="52.91211" lon="5.84708">
        <ele>47.773201</ele>
        <time>2024-07-07T08:02:12.935Z</time>
      </trkpt>
      <trkpt lat="52.91219" lon="5.84715">
        <ele>47.74749</ele>
        <time>2024-07-07T08:02:14.963Z</time>
      </trkpt>
      <trkpt lat="52.91228" lon="5.84723">
        <ele>47.719835</ele>
        <time>2024-07-07T08:02:16.941Z</time>
      </trkpt>
      <trkpt lat="52.91237" lon="5.8473">
        <ele>47.691339</ele>
        <time>2024-07-07T08:02:18.939Z</time>
      </trkpt>
      <trkpt lat="52.91246" lon="5.84738">
        <ele>47.663363</ele>
        <time>2024-07-07T08:02:20.942Z</time>
      </trkpt>
      <trkpt lat="52.91255" lon="5.84745">
        <ele>47.636995</ele>
        <time>2024-07-07T08:02:22.958Z</time>
      </trkpt>
      <trkpt lat="52.91267" lon="5.84754">
        <ele>47.623258</ele>
        <time>2024-07-07T08:02:25.951Z</time>
      </trkpt>
      <trkpt lat="52.91277" lon="5.84763">
        <ele>47.615652</ele>
        <time>2024-07-07T08:02:28.946Z</time>
      </trkpt>
      <trkpt lat="52.91284" lon="5.84774">
        <ele>47.608858</ele>
        <time>2024-07-07T08:02:33.942Z</time>
      </trkpt>
      <trkpt lat="52.91279" lon="5.8478">
        <ele>47.604676</ele>
        <time>2024-07-07T08:02:58.049Z</time>
      </trkpt>
      <trkpt lat="52.91286" lon="5.84791">
        <ele>47.598223</ele>
        <time>2024-07-07T08:26:56.931Z</time>
      </trkpt>
      <trkpt lat="52.91292" lon="5.84806">
        <ele>47.590609</ele>
        <time>2024-07-07T08:27:00.938Z</time>
      </trkpt>
      <trkpt lat="52.91301" lon="5.84815">
        <ele>47.583668</ele>
        <time>2024-07-07T08:27:03.949Z</time>
      </trkpt>
      <trkpt lat="52.9131" lon="5.84824">
        <ele>47.575841</ele>
        <time>2024-07-07T08:27:06.921Z</time>
      </trkpt>
      <trkpt lat="52.91321" lon="5.84832">
        <ele>47.567627</ele>
        <time>2024-07-07T08:27:09.946Z</time>
      </trkpt>
      <trkpt lat="52.91332" lon="5.84838">
        <ele>47.559672</ele>
        <time>2024-07-07T08:27:12.931Z</time>
      </trkpt>
      <trkpt lat="52.91343" lon="5.84845">
        <ele>47.551672</ele>
        <time>2024-07-07T08:27:15.947Z</time>
      </trkpt>
      <trkpt lat="52.91354" lon="5.84853">
        <ele>47.543142</ele>
        <time>2024-07-07T08:27:18.923Z</time>
      </trkpt>
      <trkpt lat="52.91363" lon="5.84857">
        <ele>47.536827</ele>
        <time>2024-07-07T08:27:20.943Z</time>
      </trkpt>
      <trkpt lat="52.91376" lon="5.84864">
        <ele>47.527769</ele>
        <time>2024-07-07T08:27:23.952Z</time>
      </trkpt>
      <trkpt lat="52.91389" lon="5.8487">
        <ele>47.518403</ele>
        <time>2024-07-07T08:27:26.944Z</time>
      </trkpt>
      <trkpt lat="52.91397" lon="5.84875">
        <ele>47.512167</ele>
        <time>2024-07-07T08:27:28.947Z</time>
      </trkpt>
      <trkpt lat="52.9141" lon="5.84881">
        <ele>47.506358</ele>
        <time>2024-07-07T08:27:31.943Z</time>
      </trkpt>
      <trkpt lat="52.91418" lon="5.84886">
        <ele>47.505599</ele>
        <time>2024-07-07T08:27:33.950Z</time>
      </trkpt>
      <trkpt lat="52.91431" lon="5.84893">
        <ele>47.504463</ele>
        <time>2024-07-07T08:27:36.944Z</time>
      </trkpt>
      <trkpt lat="52.9144" lon="5.84897">
        <ele>47.503681</ele>
        <time>2024-07-07T08:27:38.943Z</time>
      </trkpt>
      <trkpt lat="52.91449" lon="5.84902">
        <ele>47.502909</ele>
        <time>2024-07-07T08:27:40.947Z</time>
      </trkpt>
      <trkpt lat="52.91458" lon="5.84907">
        <ele>47.502096</ele>
        <time>2024-07-07T08:27:42.951Z</time>
      </trkpt>
      <trkpt lat="52.91467" lon="5.84911">
        <ele>47.501315</ele>
        <time>2024-07-07T08:27:44.939Z</time>
      </trkpt>
      <trkpt lat="52.91476" lon="5.84916">
        <ele>47.500469</ele>
        <time>2024-07-07T08:27:46.950Z</time>
      </trkpt>
      <trkpt lat="52.91485" lon="5.84921">
        <ele>47.499661</ele>
        <time>2024-07-07T08:27:48.938Z</time>
      </trkpt>
      <trkpt lat="52.91495" lon="5.84925">
        <ele>47.498859</ele>
        <time>2024-07-07T08:27:50.937Z</time>
      </trkpt>
      <trkpt lat="52.91504" lon="5.8493">
        <ele>47.498056</ele>
        <time>2024-07-07T08:27:52.939Z</time>
      </trkpt>
      <trkpt lat="52.91513" lon="5.84934">
        <ele>47.497225</ele>
        <time>2024-07-07T08:27:54.959Z</time>
      </trkpt>
      <trkpt lat="52.91522" lon="5.84939">
        <ele>47.496439</ele>
        <time>2024-07-07T08:27:56.950Z</time>
      </trkpt>
      <trkpt lat="52.91535" lon="5.84946">
        <ele>47.495313</ele>
        <time>2024-07-07T08:27:59.947Z</time>
      </trkpt>
      <trkpt lat="52.91544" lon="5.84951">
        <ele>47.494535</ele>
        <time>2024-07-07T08:28:01.958Z</time>
      </trkpt>
      <trkpt lat="52.91556" lon="5.84957">
        <ele>47.493427</ele>
        <time>2024-07-07T08:28:04.950Z</time>
      </trkpt>
      <trkpt lat="52.91569" lon="5.84963">
        <ele>47.492301</ele>
        <time>2024-07-07T08:28:07.955Z</time>
      </trkpt>
      <trkpt lat="52.91578" lon="5.84968">
        <ele>47.493345</ele>
        <time>2024-07-07T08:28:09.943Z</time>
      </trkpt>
      <trkpt lat="52.91591" lon="5.84974">
        <ele>47.505195</ele>
        <time>2024-07-07T08:28:12.956Z</time>
      </trkpt>
      <trkpt lat="52.916" lon="5.84979">
        <ele>47.513363</ele>
        <time>2024-07-07T08:28:14.955Z</time>
      </trkpt>
      <trkpt lat="52.91609" lon="5.84983">
        <ele>47.521621</ele>
        <time>2024-07-07T08:28:16.944Z</time>
      </trkpt>
      <trkpt lat="52.91618" lon="5.84987">
        <ele>47.529557</ele>
        <time>2024-07-07T08:28:18.949Z</time>
      </trkpt>
      <trkpt lat="52.91627" lon="5.84991">
        <ele>47.537773</ele>
        <time>2024-07-07T08:28:20.946Z</time>
      </trkpt>
      <trkpt lat="52.91636" lon="5.84994">
        <ele>47.546082</ele>
        <time>2024-07-07T08:28:22.915Z</time>
      </trkpt>
      <trkpt lat="52.91646" lon="5.84997">
        <ele>47.554512</ele>
        <time>2024-07-07T08:28:24.939Z</time>
      </trkpt>
      <trkpt lat="52.91656" lon="5.85">
        <ele>47.5632</ele>
        <time>2024-07-07T08:28:26.947Z</time>
      </trkpt>
      <trkpt lat="52.91665" lon="5.85003">
        <ele>47.571949</ele>
        <time>2024-07-07T08:28:28.956Z</time>
      </trkpt>
      <trkpt lat="52.91675" lon="5.85006">
        <ele>47.580619</ele>
        <time>2024-07-07T08:28:30.932Z</time>
      </trkpt>
      <trkpt lat="52.91685" lon="5.85007">
        <ele>47.589121</ele>
        <time>2024-07-07T08:28:32.953Z</time>
      </trkpt>
      <trkpt lat="52.91695" lon="5.85009">
        <ele>47.597559</ele>
        <time>2024-07-07T08:28:34.943Z</time>
      </trkpt>
      <trkpt lat="52.91704" lon="5.85011">
        <ele>47.605844</ele>
        <time>2024-07-07T08:28:36.959Z</time>
      </trkpt>
      <trkpt lat="52.91713" lon="5.85013">
        <ele>47.614167</ele>
        <time>2024-07-07T08:28:38.936Z</time>
      </trkpt>
      <trkpt lat="52.91723" lon="5.85015">
        <ele>47.622235</ele>
        <time>2024-07-07T08:28:40.943Z</time>
      </trkpt>
      <trkpt lat="52.91732" lon="5.85019">
        <ele>47.630777</ele>
        <time>2024-07-07T08:28:42.942Z</time>
      </trkpt>
      <trkpt lat="52.91745" lon="5.85025">
        <ele>47.642553</ele>
        <time>2024-07-07T08:28:45.964Z</time>
      </trkpt>
      <trkpt lat="52.91757" lon="5.8503">
        <ele>47.660437</ele>
        <time>2024-07-07T08:28:48.951Z</time>
      </trkpt>
      <trkpt lat="52.9177" lon="5.85035">
        <ele>47.687611</ele>
        <time>2024-07-07T08:28:51.945Z</time>
      </trkpt>
      <trkpt lat="52.91783" lon="5.8504">
        <ele>47.714159</ele>
        <time>2024-07-07T08:28:54.941Z</time>
      </trkpt>
      <trkpt lat="52.91795" lon="5.85048">
        <ele>47.739308</ele>
        <time>2024-07-07T08:28:57.939Z</time>
      </trkpt>
      <trkpt lat="52.91807" lon="5.85056">
        <ele>47.766003</ele>
        <time>2024-07-07T08:29:00.942Z</time>
      </trkpt>
      <trkpt lat="52.91819" lon="5.85066">
        <ele>47.793837</ele>
        <time>2024-07-07T08:29:03.936Z</time>
      </trkpt>
      <trkpt lat="52.91826" lon="5.85074">
        <ele>47.812354</ele>
        <time>2024-07-07T08:29:05.933Z</time>
      </trkpt>
      <trkpt lat="52.91838" lon="5.85085">
        <ele>47.83869</ele>
        <time>2024-07-07T08:29:08.930Z</time>
      </trkpt>
      <trkpt lat="52.91849" lon="5.85086">
        <ele>47.863039</ele>
        <time>2024-07-07T08:29:11.944Z</time>
      </trkpt>
      <trkpt lat="52.9186" lon="5.85097">
        <ele>47.888099</ele>
        <time>2024-07-07T08:29:14.938Z</time>
      </trkpt>
      <trkpt lat="52.91869" lon="5.85112">
        <ele>47.913464</ele>
        <time>2024-07-07T08:29:17.968Z</time>
      </trkpt>
      <trkpt lat="52.91878" lon="5.85126">
        <ele>47.939787</ele>
        <time>2024-07-07T08:29:20.945Z</time>
      </trkpt>
      <trkpt lat="52.91886" lon="5.85142">
        <ele>47.965406</ele>
        <time>2024-07-07T08:29:23.942Z</time>
      </trkpt>
      <trkpt lat="52.91895" lon="5.85156">
        <ele>47.990482</ele>
        <time>2024-07-07T08:29:26.951Z</time>
      </trkpt>
      <trkpt lat="52.91904" lon="5.85169">
        <ele>48.01448</ele>
        <time>2024-07-07T08:29:29.955Z</time>
      </trkpt>
      <trkpt lat="52.91912" lon="5.85184">
        <ele>47.932957</ele>
        <time>2024-07-07T08:29:32.937Z</time>
      </trkpt>
      <trkpt lat="52.91919" lon="5.85201">
        <ele>47.840697</ele>
        <time>2024-07-07T08:29:35.969Z</time>
      </trkpt>
      <trkpt lat="52.91927" lon="5.85219">
        <ele>47.741493</ele>
        <time>2024-07-07T08:29:38.929Z</time>
      </trkpt>
      <trkpt lat="52.91934" lon="5.85238">
        <ele>47.64066</ele>
        <time>2024-07-07T08:29:41.951Z</time>
      </trkpt>
      <trkpt lat="52.9194" lon="5.85251">
        <ele>47.570023</ele>
        <time>2024-07-07T08:29:43.932Z</time>
      </trkpt>
      <trkpt lat="52.91945" lon="5.85263">
        <ele>47.502978</ele>
        <time>2024-07-07T08:29:45.936Z</time>
      </trkpt>
      <trkpt lat="52.91951" lon="5.85275">
        <ele>47.435484</ele>
        <time>2024-07-07T08:29:47.946Z</time>
      </trkpt>
      <trkpt lat="52.91956" lon="5.85287">
        <ele>47.367614</ele>
        <time>2024-07-07T08:29:49.943Z</time>
      </trkpt>
      <trkpt lat="52.91962" lon="5.853">
        <ele>47.299502</ele>
        <time>2024-07-07T08:29:51.945Z</time>
      </trkpt>
      <trkpt lat="52.91965" lon="5.85314">
        <ele>47.232783</ele>
        <time>2024-07-07T08:29:53.947Z</time>
      </trkpt>
      <trkpt lat="52.91969" lon="5.85328">
        <ele>47.162072</ele>
        <time>2024-07-07T08:29:55.937Z</time>
      </trkpt>
      <trkpt lat="52.91972" lon="5.85344">
        <ele>47.08854</ele>
        <time>2024-07-07T08:29:57.948Z</time>
      </trkpt>
      <trkpt lat="52.91976" lon="5.85358">
        <ele>47.018014</ele>
        <time>2024-07-07T08:29:59.972Z</time>
      </trkpt>
      <trkpt lat="52.91982" lon="5.85371">
        <ele>46.947594</ele>
        <time>2024-07-07T08:30:01.937Z</time>
      </trkpt>
      <trkpt lat="52.91987" lon="5.85384">
        <ele>46.878575</ele>
        <time>2024-07-07T08:30:03.946Z</time>
      </trkpt>
      <trkpt lat="52.91994" lon="5.85401">
        <ele>46.783647</ele>
        <time>2024-07-07T08:30:06.930Z</time>
      </trkpt>
      <trkpt lat="52.92002" lon="5.85419">
        <ele>46.689415</ele>
        <time>2024-07-07T08:30:09.949Z</time>
      </trkpt>
      <trkpt lat="52.92009" lon="5.85437">
        <ele>46.711839</ele>
        <time>2024-07-07T08:30:12.945Z</time>
      </trkpt>
      <trkpt lat="52.92016" lon="5.85454">
        <ele>46.734028</ele>
        <time>2024-07-07T08:30:15.933Z</time>
      </trkpt>
      <trkpt lat="52.92023" lon="5.85473">
        <ele>46.756525</ele>
        <time>2024-07-07T08:30:18.935Z</time>
      </trkpt>
      <trkpt lat="52.9203" lon="5.85491">
        <ele>46.779195</ele>
        <time>2024-07-07T08:30:21.949Z</time>
      </trkpt>
      <trkpt lat="52.92038" lon="5.85509">
        <ele>46.80147</ele>
        <time>2024-07-07T08:30:24.923Z</time>
      </trkpt>
      <trkpt lat="52.92045" lon="5.85527">
        <ele>46.824627</ele>
        <time>2024-07-07T08:30:27.950Z</time>
      </trkpt>
      <trkpt lat="52.92051" lon="5.85539">
        <ele>46.840382</ele>
        <time>2024-07-07T08:30:29.960Z</time>
      </trkpt>
      <trkpt lat="52.92056" lon="5.85552">
        <ele>46.856492</ele>
        <time>2024-07-07T08:30:31.954Z</time>
      </trkpt>
      <trkpt lat="52.92062" lon="5.85565">
        <ele>46.873074</ele>
        <time>2024-07-07T08:30:33.937Z</time>
      </trkpt>
      <trkpt lat="52.92068" lon="5.85578">
        <ele>46.890782</ele>
        <time>2024-07-07T08:30:35.947Z</time>
      </trkpt>
      <trkpt lat="52.92074" lon="5.85591">
        <ele>46.90826</ele>
        <time>2024-07-07T08:30:37.951Z</time>
      </trkpt>
      <trkpt lat="52.9208" lon="5.85605">
        <ele>46.926298</ele>
        <time>2024-07-07T08:30:39.956Z</time>
      </trkpt>
      <trkpt lat="52.92086" lon="5.85619">
        <ele>46.944013</ele>
        <time>2024-07-07T08:30:41.959Z</time>
      </trkpt>
      <trkpt lat="52.92092" lon="5.85633">
        <ele>46.961828</ele>
        <time>2024-07-07T08:30:43.945Z</time>
      </trkpt>
      <trkpt lat="52.92099" lon="5.85647">
        <ele>46.97995</ele>
        <time>2024-07-07T08:30:45.946Z</time>
      </trkpt>
      <trkpt lat="52.92105" lon="5.85661">
        <ele>46.998684</ele>
        <time>2024-07-07T08:30:47.943Z</time>
      </trkpt>
      <trkpt lat="52.92112" lon="5.85675">
        <ele>46.987432</ele>
        <time>2024-07-07T08:30:49.950Z</time>
      </trkpt>
      <trkpt lat="52.92119" lon="5.8569">
        <ele>46.973668</ele>
        <time>2024-07-07T08:30:51.959Z</time>
      </trkpt>
      <trkpt lat="52.92126" lon="5.85704">
        <ele>46.960153</ele>
        <time>2024-07-07T08:30:53.950Z</time>
      </trkpt>
      <trkpt lat="52.92133" lon="5.85719">
        <ele>46.94633</ele>
        <time>2024-07-07T08:30:55.941Z</time>
      </trkpt>
      <trkpt lat="52.9214" lon="5.85733">
        <ele>46.933158</ele>
        <time>2024-07-07T08:30:57.924Z</time>
      </trkpt>
      <trkpt lat="52.92147" lon="5.85747">
        <ele>46.919892</ele>
        <time>2024-07-07T08:30:59.934Z</time>
      </trkpt>
      <trkpt lat="52.92154" lon="5.85761">
        <ele>46.906492</ele>
        <time>2024-07-07T08:31:01.938Z</time>
      </trkpt>
      <trkpt lat="52.9216" lon="5.85775">
        <ele>46.893527</ele>
        <time>2024-07-07T08:31:03.944Z</time>
      </trkpt>
      <trkpt lat="52.92167" lon="5.85789">
        <ele>46.880012</ele>
        <time>2024-07-07T08:31:05.937Z</time>
      </trkpt>
      <trkpt lat="52.92173" lon="5.85803">
        <ele>46.867415</ele>
        <time>2024-07-07T08:31:07.935Z</time>
      </trkpt>
      <trkpt lat="52.9218" lon="5.85817">
        <ele>46.85436</ele>
        <time>2024-07-07T08:31:09.953Z</time>
      </trkpt>
      <trkpt lat="52.92186" lon="5.8583">
        <ele>46.841553</ele>
        <time>2024-07-07T08:31:11.952Z</time>
      </trkpt>
      <trkpt lat="52.92193" lon="5.85843">
        <ele>46.829013</ele>
        <time>2024-07-07T08:31:13.955Z</time>
      </trkpt>
      <trkpt lat="52.92199" lon="5.85857">
        <ele>46.81666</ele>
        <time>2024-07-07T08:31:15.943Z</time>
      </trkpt>
      <trkpt lat="52.92205" lon="5.8587">
        <ele>46.804713</ele>
        <time>2024-07-07T08:31:17.951Z</time>
      </trkpt>
      <trkpt lat="52.9221" lon="5.85883">
        <ele>46.793124</ele>
        <time>2024-07-07T08:31:19.955Z</time>
      </trkpt>
      <trkpt lat="52.92216" lon="5.85895">
        <ele>46.781514</ele>
        <time>2024-07-07T08:31:21.952Z</time>
      </trkpt>
      <trkpt lat="52.92221" lon="5.85908">
        <ele>46.767422</ele>
        <time>2024-07-07T08:31:23.946Z</time>
      </trkpt>
      <trkpt lat="52.92227" lon="5.85922">
        <ele>46.752514</ele>
        <time>2024-07-07T08:31:25.941Z</time>
      </trkpt>
      <trkpt lat="52.92233" lon="5.85936">
        <ele>46.736984</ele>
        <time>2024-07-07T08:31:27.946Z</time>
      </trkpt>
      <trkpt lat="52.92239" lon="5.85949">
        <ele>46.72183</ele>
        <time>2024-07-07T08:31:29.958Z</time>
      </trkpt>
      <trkpt lat="52.92245" lon="5.85963">
        <ele>46.706535</ele>
        <time>2024-07-07T08:31:31.921Z</time>
      </trkpt>
      <trkpt lat="52.92251" lon="5.85977">
        <ele>46.69122</ele>
        <time>2024-07-07T08:31:33.943Z</time>
      </trkpt>
      <trkpt lat="52.92257" lon="5.8599">
        <ele>46.676226</ele>
        <time>2024-07-07T08:31:35.946Z</time>
      </trkpt>
      <trkpt lat="52.92263" lon="5.86004">
        <ele>46.660946</ele>
        <time>2024-07-07T08:31:37.915Z</time>
      </trkpt>
      <trkpt lat="52.92269" lon="5.86019">
        <ele>46.64505</ele>
        <time>2024-07-07T08:31:39.945Z</time>
      </trkpt>
      <trkpt lat="52.92275" lon="5.86033">
        <ele>46.629109</ele>
        <time>2024-07-07T08:31:41.948Z</time>
      </trkpt>
      <trkpt lat="52.92282" lon="5.86047">
        <ele>46.613253</ele>
        <time>2024-07-07T08:31:43.957Z</time>
      </trkpt>
      <trkpt lat="52.92288" lon="5.86062">
        <ele>46.59686</ele>
        <time>2024-07-07T08:31:45.939Z</time>
      </trkpt>
      <trkpt lat="52.92295" lon="5.86075">
        <ele>46.581402</ele>
        <time>2024-07-07T08:31:47.951Z</time>
      </trkpt>
      <trkpt lat="52.92301" lon="5.86089">
        <ele>46.565264</ele>
        <time>2024-07-07T08:31:49.943Z</time>
      </trkpt>
      <trkpt lat="52.92308" lon="5.86104">
        <ele>46.549177</ele>
        <time>2024-07-07T08:31:51.953Z</time>
      </trkpt>
      <trkpt lat="52.92314" lon="5.86118">
        <ele>46.532876</ele>
        <time>2024-07-07T08:31:53.954Z</time>
      </trkpt>
      <trkpt lat="52.92321" lon="5.86132">
        <ele>46.516341</ele>
        <time>2024-07-07T08:31:55.943Z</time>
      </trkpt>
      <trkpt lat="52.92328" lon="5.86147">
        <ele>46.512695</ele>
        <time>2024-07-07T08:31:57.939Z</time>
      </trkpt>
      <trkpt lat="52.92334" lon="5.86161">
        <ele>46.514675</ele>
        <time>2024-07-07T08:31:59.961Z</time>
      </trkpt>
      <trkpt lat="52.92341" lon="5.86176">
        <ele>46.51667</ele>
        <time>2024-07-07T08:32:01.945Z</time>
      </trkpt>
      <trkpt lat="52.92347" lon="5.8619">
        <ele>46.518651</ele>
        <time>2024-07-07T08:32:03.956Z</time>
      </trkpt>
      <trkpt lat="52.92353" lon="5.86205">
        <ele>46.52063</ele>
        <time>2024-07-07T08:32:05.914Z</time>
      </trkpt>
      <trkpt lat="52.92359" lon="5.8622">
        <ele>46.522628</ele>
        <time>2024-07-07T08:32:07.952Z</time>
      </trkpt>
      <trkpt lat="52.92366" lon="5.86235">
        <ele>46.524656</ele>
        <time>2024-07-07T08:32:09.948Z</time>
      </trkpt>
      <trkpt lat="52.92372" lon="5.86249">
        <ele>46.526631</ele>
        <time>2024-07-07T08:32:11.952Z</time>
      </trkpt>
      <trkpt lat="52.92379" lon="5.86263">
        <ele>46.528554</ele>
        <time>2024-07-07T08:32:13.926Z</time>
      </trkpt>
      <trkpt lat="52.92385" lon="5.86276">
        <ele>46.530425</ele>
        <time>2024-07-07T08:32:15.954Z</time>
      </trkpt>
      <trkpt lat="52.9239" lon="5.86291">
        <ele>46.532346</ele>
        <time>2024-07-07T08:32:17.952Z</time>
      </trkpt>
      <trkpt lat="52.92397" lon="5.86305">
        <ele>46.534299</ele>
        <time>2024-07-07T08:32:19.946Z</time>
      </trkpt>
      <trkpt lat="52.92403" lon="5.8632">
        <ele>46.536294</ele>
        <time>2024-07-07T08:32:21.959Z</time>
      </trkpt>
      <trkpt lat="52.92409" lon="5.86334">
        <ele>46.538177</ele>
        <time>2024-07-07T08:32:23.943Z</time>
      </trkpt>
      <trkpt lat="52.92415" lon="5.86347">
        <ele>46.540048</ele>
        <time>2024-07-07T08:32:25.958Z</time>
      </trkpt>
      <trkpt lat="52.92421" lon="5.86361">
        <ele>46.541918</ele>
        <time>2024-07-07T08:32:27.959Z</time>
      </trkpt>
      <trkpt lat="52.92429" lon="5.86372">
        <ele>46.54376</ele>
        <time>2024-07-07T08:32:29.938Z</time>
      </trkpt>
      <trkpt lat="52.92436" lon="5.86386">
        <ele>46.550429</ele>
        <time>2024-07-07T08:32:31.937Z</time>
      </trkpt>
      <trkpt lat="52.92442" lon="5.864">
        <ele>46.558107</ele>
        <time>2024-07-07T08:32:33.942Z</time>
      </trkpt>
      <trkpt lat="52.92446" lon="5.86415">
        <ele>46.565835</ele>
        <time>2024-07-07T08:32:35.934Z</time>
      </trkpt>
      <trkpt lat="52.92451" lon="5.8643">
        <ele>46.573345</ele>
        <time>2024-07-07T08:32:37.929Z</time>
      </trkpt>
      <trkpt lat="52.92457" lon="5.86444">
        <ele>46.581172</ele>
        <time>2024-07-07T08:32:39.943Z</time>
      </trkpt>
      <trkpt lat="52.92463" lon="5.86458">
        <ele>46.589042</ele>
        <time>2024-07-07T08:32:41.932Z</time>
      </trkpt>
      <trkpt lat="52.92469" lon="5.86472">
        <ele>46.596858</ele>
        <time>2024-07-07T08:32:43.951Z</time>
      </trkpt>
      <trkpt lat="52.92475" lon="5.86486">
        <ele>46.604776</ele>
        <time>2024-07-07T08:32:45.937Z</time>
      </trkpt>
      <trkpt lat="52.92482" lon="5.86499">
        <ele>46.612932</ele>
        <time>2024-07-07T08:32:47.930Z</time>
      </trkpt>
      <trkpt lat="52.92489" lon="5.86513">
        <ele>46.620875</ele>
        <time>2024-07-07T08:32:49.952Z</time>
      </trkpt>
      <trkpt lat="52.92494" lon="5.86528">
        <ele>46.628702</ele>
        <time>2024-07-07T08:32:51.952Z</time>
      </trkpt>
      <trkpt lat="52.925" lon="5.86542">
        <ele>46.63654</ele>
        <time>2024-07-07T08:32:53.957Z</time>
      </trkpt>
      <trkpt lat="52.92507" lon="5.86556">
        <ele>46.644584</ele>
        <time>2024-07-07T08:32:55.946Z</time>
      </trkpt>
      <trkpt lat="52.92513" lon="5.8657">
        <ele>46.652481</ele>
        <time>2024-07-07T08:32:57.944Z</time>
      </trkpt>
      <trkpt lat="52.92519" lon="5.86585">
        <ele>46.660506</ele>
        <time>2024-07-07T08:32:59.952Z</time>
      </trkpt>
      <trkpt lat="52.92525" lon="5.86599">
        <ele>46.668499</ele>
        <time>2024-07-07T08:33:01.942Z</time>
      </trkpt>
      <trkpt lat="52.92531" lon="5.86614">
        <ele>46.67669</ele>
        <time>2024-07-07T08:33:03.952Z</time>
      </trkpt>
      <trkpt lat="52.92538" lon="5.86628">
        <ele>46.656619</ele>
        <time>2024-07-07T08:33:05.941Z</time>
      </trkpt>
      <trkpt lat="52.92544" lon="5.86643">
        <ele>46.619068</ele>
        <time>2024-07-07T08:33:07.944Z</time>
      </trkpt>
      <trkpt lat="52.9255" lon="5.86658">
        <ele>46.582212</ele>
        <time>2024-07-07T08:33:09.949Z</time>
      </trkpt>
      <trkpt lat="52.92555" lon="5.86673">
        <ele>46.546809</ele>
        <time>2024-07-07T08:33:11.939Z</time>
      </trkpt>
      <trkpt lat="52.92561" lon="5.86687">
        <ele>46.510513</ele>
        <time>2024-07-07T08:33:13.936Z</time>
      </trkpt>
      <trkpt lat="52.92566" lon="5.86703">
        <ele>46.473156</ele>
        <time>2024-07-07T08:33:15.945Z</time>
      </trkpt>
      <trkpt lat="52.92571" lon="5.86718">
        <ele>46.437753</ele>
        <time>2024-07-07T08:33:17.952Z</time>
      </trkpt>
      <trkpt lat="52.92577" lon="5.86732">
        <ele>46.402882</ele>
        <time>2024-07-07T08:33:19.927Z</time>
      </trkpt>
      <trkpt lat="52.92582" lon="5.86747">
        <ele>46.366762</ele>
        <time>2024-07-07T08:33:21.943Z</time>
      </trkpt>
      <trkpt lat="52.92588" lon="5.86762">
        <ele>46.329396</ele>
        <time>2024-07-07T08:33:23.954Z</time>
      </trkpt>
      <trkpt lat="52.92593" lon="5.86777">
        <ele>46.292916</ele>
        <time>2024-07-07T08:33:25.942Z</time>
      </trkpt>
      <trkpt lat="52.92598" lon="5.86793">
        <ele>46.256721</ele>
        <time>2024-07-07T08:33:27.931Z</time>
      </trkpt>
      <trkpt lat="52.92603" lon="5.86808">
        <ele>46.22071</ele>
        <time>2024-07-07T08:33:29.941Z</time>
      </trkpt>
      <trkpt lat="52.92608" lon="5.86823">
        <ele>46.184776</ele>
        <time>2024-07-07T08:33:31.950Z</time>
      </trkpt>
      <trkpt lat="52.92613" lon="5.86838">
        <ele>46.149366</ele>
        <time>2024-07-07T08:33:33.947Z</time>
      </trkpt>
      <trkpt lat="52.92619" lon="5.86853">
        <ele>46.112339</ele>
        <time>2024-07-07T08:33:35.956Z</time>
      </trkpt>
      <trkpt lat="52.92624" lon="5.86868">
        <ele>46.076402</ele>
        <time>2024-07-07T08:33:37.952Z</time>
      </trkpt>
      <trkpt lat="52.9263" lon="5.86883">
        <ele>46.061677</ele>
        <time>2024-07-07T08:33:39.944Z</time>
      </trkpt>
      <trkpt lat="52.92635" lon="5.86897">
        <ele>46.064512</ele>
        <time>2024-07-07T08:33:41.946Z</time>
      </trkpt>
      <trkpt lat="52.9264" lon="5.86912">
        <ele>46.067456</ele>
        <time>2024-07-07T08:33:43.933Z</time>
      </trkpt>
      <trkpt lat="52.92645" lon="5.86927">
        <ele>46.070394</ele>
        <time>2024-07-07T08:33:45.943Z</time>
      </trkpt>
      <trkpt lat="52.9265" lon="5.86942">
        <ele>46.073274</ele>
        <time>2024-07-07T08:33:47.937Z</time>
      </trkpt>
      <trkpt lat="52.92655" lon="5.86958">
        <ele>46.0762</ele>
        <time>2024-07-07T08:33:49.954Z</time>
      </trkpt>
      <trkpt lat="52.9266" lon="5.86972">
        <ele>46.079034</ele>
        <time>2024-07-07T08:33:51.959Z</time>
      </trkpt>
      <trkpt lat="52.92666" lon="5.86986">
        <ele>46.081972</ele>
        <time>2024-07-07T08:33:53.948Z</time>
      </trkpt>
      <trkpt lat="52.9267" lon="5.87001">
        <ele>46.084837</ele>
        <time>2024-07-07T08:33:55.953Z</time>
      </trkpt>
      <trkpt lat="52.92676" lon="5.87015">
        <ele>46.087628</ele>
        <time>2024-07-07T08:33:57.923Z</time>
      </trkpt>
      <trkpt lat="52.9268" lon="5.8703">
        <ele>46.090437</ele>
        <time>2024-07-07T08:33:59.943Z</time>
      </trkpt>
      <trkpt lat="52.92686" lon="5.87045">
        <ele>46.093461</ele>
        <time>2024-07-07T08:34:01.937Z</time>
      </trkpt>
      <trkpt lat="52.92691" lon="5.8706">
        <ele>46.096339</ele>
        <time>2024-07-07T08:34:03.942Z</time>
      </trkpt>
      <trkpt lat="52.92696" lon="5.87075">
        <ele>46.099261</ele>
        <time>2024-07-07T08:34:05.954Z</time>
      </trkpt>
      <trkpt lat="52.92701" lon="5.87089">
        <ele>46.102024</ele>
        <time>2024-07-07T08:34:07.949Z</time>
      </trkpt>
      <trkpt lat="52.92706" lon="5.87104">
        <ele>46.104916</ele>
        <time>2024-07-07T08:34:09.951Z</time>
      </trkpt>
      <trkpt lat="52.92711" lon="5.87119">
        <ele>46.107868</ele>
        <time>2024-07-07T08:34:11.945Z</time>
      </trkpt>
      <trkpt lat="52.92716" lon="5.87133">
        <ele>46.110601</ele>
        <time>2024-07-07T08:34:13.955Z</time>
      </trkpt>
      <trkpt lat="52.92721" lon="5.87148">
        <ele>46.104569</ele>
        <time>2024-07-07T08:34:15.959Z</time>
      </trkpt>
      <trkpt lat="52.92726" lon="5.87162">
        <ele>46.098435</ele>
        <time>2024-07-07T08:34:17.946Z</time>
      </trkpt>
      <trkpt lat="52.92731" lon="5.87176">
        <ele>46.092524</ele>
        <time>2024-07-07T08:34:19.948Z</time>
      </trkpt>
      <trkpt lat="52.92736" lon="5.87189">
        <ele>46.086615</ele>
        <time>2024-07-07T08:34:21.949Z</time>
      </trkpt>
      <trkpt lat="52.92741" lon="5.87204">
        <ele>46.080385</ele>
        <time>2024-07-07T08:34:23.935Z</time>
      </trkpt>
      <trkpt lat="52.92746" lon="5.87218">
        <ele>46.07433</ele>
        <time>2024-07-07T08:34:25.952Z</time>
      </trkpt>
      <trkpt lat="52.9275" lon="5.87233">
        <ele>46.06819</ele>
        <time>2024-07-07T08:34:27.956Z</time>
      </trkpt>
      <trkpt lat="52.92755" lon="5.87246">
        <ele>46.062312</ele>
        <time>2024-07-07T08:34:29.897Z</time>
      </trkpt>
      <trkpt lat="52.9276" lon="5.87261">
        <ele>46.056241</ele>
        <time>2024-07-07T08:34:31.944Z</time>
      </trkpt>
      <trkpt lat="52.92765" lon="5.87274">
        <ele>46.050486</ele>
        <time>2024-07-07T08:34:33.936Z</time>
      </trkpt>
      <trkpt lat="52.9277" lon="5.87288">
        <ele>46.044354</ele>
        <time>2024-07-07T08:34:35.922Z</time>
      </trkpt>
      <trkpt lat="52.92775" lon="5.87302">
        <ele>46.038284</ele>
        <time>2024-07-07T08:34:37.924Z</time>
      </trkpt>
      <trkpt lat="52.9278" lon="5.87317">
        <ele>46.032082</ele>
        <time>2024-07-07T08:34:39.927Z</time>
      </trkpt>
      <trkpt lat="52.92785" lon="5.87331">
        <ele>46.025918</ele>
        <time>2024-07-07T08:34:41.935Z</time>
      </trkpt>
      <trkpt lat="52.9279" lon="5.87345">
        <ele>46.019818</ele>
        <time>2024-07-07T08:34:43.944Z</time>
      </trkpt>
      <trkpt lat="52.92795" lon="5.87359">
        <ele>46.013843</ele>
        <time>2024-07-07T08:34:45.933Z</time>
      </trkpt>
      <trkpt lat="52.928" lon="5.87373">
        <ele>46.007648</ele>
        <time>2024-07-07T08:34:47.954Z</time>
      </trkpt>
      <trkpt lat="52.92804" lon="5.87387">
        <ele>46.001824</ele>
        <time>2024-07-07T08:34:49.945Z</time>
      </trkpt>
      <trkpt lat="52.92809" lon="5.87402">
        <ele>45.995562</ele>
        <time>2024-07-07T08:34:51.959Z</time>
      </trkpt>
      <trkpt lat="52.92815" lon="5.87417">
        <ele>45.989192</ele>
        <time>2024-07-07T08:34:53.927Z</time>
      </trkpt>
      <trkpt lat="52.9282" lon="5.8743">
        <ele>45.983077</ele>
        <time>2024-07-07T08:34:55.942Z</time>
      </trkpt>
      <trkpt lat="52.92825" lon="5.87445">
        <ele>45.976643</ele>
        <time>2024-07-07T08:34:57.963Z</time>
      </trkpt>
      <trkpt lat="52.9283" lon="5.8746">
        <ele>45.970397</ele>
        <time>2024-07-07T08:34:59.941Z</time>
      </trkpt>
      <trkpt lat="52.92836" lon="5.87474">
        <ele>45.964218</ele>
        <time>2024-07-07T08:35:01.942Z</time>
      </trkpt>
      <trkpt lat="52.9284" lon="5.87489">
        <ele>45.957866</ele>
        <time>2024-07-07T08:35:03.943Z</time>
      </trkpt>
      <trkpt lat="52.92845" lon="5.87503">
        <ele>45.951623</ele>
        <time>2024-07-07T08:35:05.932Z</time>
      </trkpt>
      <trkpt lat="52.92851" lon="5.87518">
        <ele>45.945092</ele>
        <time>2024-07-07T08:35:07.955Z</time>
      </trkpt>
      <trkpt lat="52.92856" lon="5.87533">
        <ele>45.938818</ele>
        <time>2024-07-07T08:35:09.946Z</time>
      </trkpt>
      <trkpt lat="52.92861" lon="5.87547">
        <ele>45.932511</ele>
        <time>2024-07-07T08:35:11.945Z</time>
      </trkpt>
      <trkpt lat="52.92866" lon="5.87561">
        <ele>45.926365</ele>
        <time>2024-07-07T08:35:13.950Z</time>
      </trkpt>
      <trkpt lat="52.92871" lon="5.87576">
        <ele>45.919929</ele>
        <time>2024-07-07T08:35:15.953Z</time>
      </trkpt>
      <trkpt lat="52.92876" lon="5.87591">
        <ele>45.913524</ele>
        <time>2024-07-07T08:35:17.937Z</time>
      </trkpt>
      <trkpt lat="52.92881" lon="5.87605">
        <ele>45.907347</ele>
        <time>2024-07-07T08:35:19.950Z</time>
      </trkpt>
      <trkpt lat="52.92886" lon="5.8762">
        <ele>45.901321</ele>
        <time>2024-07-07T08:35:21.955Z</time>
      </trkpt>
      <trkpt lat="52.92891" lon="5.87634">
        <ele>45.895131</ele>
        <time>2024-07-07T08:35:23.939Z</time>
      </trkpt>
      <trkpt lat="52.92896" lon="5.87649">
        <ele>45.888952</ele>
        <time>2024-07-07T08:35:25.943Z</time>
      </trkpt>
      <trkpt lat="52.92901" lon="5.87663">
        <ele>45.888976</ele>
        <time>2024-07-07T08:35:27.955Z</time>
      </trkpt>
      <trkpt lat="52.92906" lon="5.87677">
        <ele>45.88952</ele>
        <time>2024-07-07T08:35:29.931Z</time>
      </trkpt>
      <trkpt lat="52.92911" lon="5.87692">
        <ele>45.890083</ele>
        <time>2024-07-07T08:35:31.927Z</time>
      </trkpt>
      <trkpt lat="52.92917" lon="5.87706">
        <ele>45.890626</ele>
        <time>2024-07-07T08:35:33.944Z</time>
      </trkpt>
      <trkpt lat="52.92921" lon="5.8772">
        <ele>45.891149</ele>
        <time>2024-07-07T08:35:35.919Z</time>
      </trkpt>
      <trkpt lat="52.92927" lon="5.87735">
        <ele>45.891703</ele>
        <time>2024-07-07T08:35:37.925Z</time>
      </trkpt>
      <trkpt lat="52.92932" lon="5.87749">
        <ele>45.892241</ele>
        <time>2024-07-07T08:35:39.943Z</time>
      </trkpt>
      <trkpt lat="52.92937" lon="5.87763">
        <ele>45.892776</ele>
        <time>2024-07-07T08:35:41.951Z</time>
      </trkpt>
      <trkpt lat="52.92942" lon="5.87778">
        <ele>45.893332</ele>
        <time>2024-07-07T08:35:43.927Z</time>
      </trkpt>
      <trkpt lat="52.92947" lon="5.87792">
        <ele>45.89387</ele>
        <time>2024-07-07T08:35:45.927Z</time>
      </trkpt>
      <trkpt lat="52.92952" lon="5.87806">
        <ele>45.894409</ele>
        <time>2024-07-07T08:35:47.970Z</time>
      </trkpt>
      <trkpt lat="52.92957" lon="5.8782">
        <ele>45.89493</ele>
        <time>2024-07-07T08:35:49.943Z</time>
      </trkpt>
      <trkpt lat="52.92962" lon="5.87834">
        <ele>45.895443</ele>
        <time>2024-07-07T08:35:51.955Z</time>
      </trkpt>
      <trkpt lat="52.92967" lon="5.87847">
        <ele>45.895962</ele>
        <time>2024-07-07T08:35:53.954Z</time>
      </trkpt>
      <trkpt lat="52.92972" lon="5.87861">
        <ele>45.89648</ele>
        <time>2024-07-07T08:35:55.938Z</time>
      </trkpt>
      <trkpt lat="52.92977" lon="5.87875">
        <ele>45.896999</ele>
        <time>2024-07-07T08:35:57.951Z</time>
      </trkpt>
      <trkpt lat="52.92981" lon="5.8789">
        <ele>45.89753</ele>
        <time>2024-07-07T08:35:59.945Z</time>
      </trkpt>
      <trkpt lat="52.92985" lon="5.87905">
        <ele>45.898075</ele>
        <time>2024-07-07T08:36:01.939Z</time>
      </trkpt>
      <trkpt lat="52.9299" lon="5.87919">
        <ele>45.914435</ele>
        <time>2024-07-07T08:36:03.942Z</time>
      </trkpt>
      <trkpt lat="52.92995" lon="5.87933">
        <ele>45.936088</ele>
        <time>2024-07-07T08:36:05.943Z</time>
      </trkpt>
      <trkpt lat="52.93001" lon="5.87948">
        <ele>45.957198</ele>
        <time>2024-07-07T08:36:07.941Z</time>
      </trkpt>
      <trkpt lat="52.93006" lon="5.87962">
        <ele>45.977985</ele>
        <time>2024-07-07T08:36:09.939Z</time>
      </trkpt>
      <trkpt lat="52.93011" lon="5.87975">
        <ele>45.998269</ele>
        <time>2024-07-07T08:36:11.947Z</time>
      </trkpt>
      <trkpt lat="52.93016" lon="5.87988">
        <ele>46.017982</ele>
        <time>2024-07-07T08:36:13.944Z</time>
      </trkpt>
      <trkpt lat="52.93022" lon="5.88002">
        <ele>46.038234</ele>
        <time>2024-07-07T08:36:15.949Z</time>
      </trkpt>
      <trkpt lat="52.93025" lon="5.88016">
        <ele>46.058525</ele>
        <time>2024-07-07T08:36:17.948Z</time>
      </trkpt>
      <trkpt lat="52.9303" lon="5.8803">
        <ele>46.078341</ele>
        <time>2024-07-07T08:36:19.947Z</time>
      </trkpt>
      <trkpt lat="52.93035" lon="5.88043">
        <ele>46.098267</ele>
        <time>2024-07-07T08:36:21.956Z</time>
      </trkpt>
      <trkpt lat="52.9304" lon="5.88057">
        <ele>46.118946</ele>
        <time>2024-07-07T08:36:23.959Z</time>
      </trkpt>
      <trkpt lat="52.93045" lon="5.88071">
        <ele>46.139624</ele>
        <time>2024-07-07T08:36:25.958Z</time>
      </trkpt>
      <trkpt lat="52.93051" lon="5.88085">
        <ele>46.160459</ele>
        <time>2024-07-07T08:36:27.927Z</time>
      </trkpt>
      <trkpt lat="52.93057" lon="5.88099">
        <ele>46.182677</ele>
        <time>2024-07-07T08:36:29.932Z</time>
      </trkpt>
      <trkpt lat="52.93062" lon="5.88114">
        <ele>46.20368</ele>
        <time>2024-07-07T08:36:31.939Z</time>
      </trkpt>
      <trkpt lat="52.93067" lon="5.88128">
        <ele>46.22404</ele>
        <time>2024-07-07T08:36:33.942Z</time>
      </trkpt>
      <trkpt lat="52.93072" lon="5.88142">
        <ele>46.24537</ele>
        <time>2024-07-07T08:36:35.947Z</time>
      </trkpt>
      <trkpt lat="52.93077" lon="5.88155">
        <ele>46.264972</ele>
        <time>2024-07-07T08:36:37.945Z</time>
      </trkpt>
      <trkpt lat="52.93082" lon="5.88169">
        <ele>46.298982</ele>
        <time>2024-07-07T08:36:39.946Z</time>
      </trkpt>
      <trkpt lat="52.93087" lon="5.88184">
        <ele>46.351395</ele>
        <time>2024-07-07T08:36:41.949Z</time>
      </trkpt>
      <trkpt lat="52.93092" lon="5.88198">
        <ele>46.40173</ele>
        <time>2024-07-07T08:36:43.947Z</time>
      </trkpt>
      <trkpt lat="52.93097" lon="5.88212">
        <ele>46.450787</ele>
        <time>2024-07-07T08:36:45.939Z</time>
      </trkpt>
      <trkpt lat="52.93102" lon="5.88226">
        <ele>46.500347</ele>
        <time>2024-07-07T08:36:47.938Z</time>
      </trkpt>
      <trkpt lat="52.93107" lon="5.8824">
        <ele>46.54809</ele>
        <time>2024-07-07T08:36:49.939Z</time>
      </trkpt>
      <trkpt lat="52.93112" lon="5.88253">
        <ele>46.594796</ele>
        <time>2024-07-07T08:36:51.940Z</time>
      </trkpt>
      <trkpt lat="52.93117" lon="5.88266">
        <ele>46.64254</ele>
        <time>2024-07-07T08:36:53.943Z</time>
      </trkpt>
      <trkpt lat="52.93122" lon="5.88279">
        <ele>46.688476</ele>
        <time>2024-07-07T08:36:55.950Z</time>
      </trkpt>
      <trkpt lat="52.93127" lon="5.88293">
        <ele>46.737515</ele>
        <time>2024-07-07T08:36:57.949Z</time>
      </trkpt>
      <trkpt lat="52.93135" lon="5.88311">
        <ele>46.80434</ele>
        <time>2024-07-07T08:37:00.942Z</time>
      </trkpt>
      <trkpt lat="52.93143" lon="5.88328">
        <ele>46.870537</ele>
        <time>2024-07-07T08:37:03.945Z</time>
      </trkpt>
      <trkpt lat="52.9315" lon="5.88346">
        <ele>46.936722</ele>
        <time>2024-07-07T08:37:06.954Z</time>
      </trkpt>
      <trkpt lat="52.93158" lon="5.88365">
        <ele>47.005452</ele>
        <time>2024-07-07T08:37:09.947Z</time>
      </trkpt>
      <trkpt lat="52.93164" lon="5.88377">
        <ele>47.052149</ele>
        <time>2024-07-07T08:37:11.946Z</time>
      </trkpt>
      <trkpt lat="52.93169" lon="5.8839">
        <ele>47.098659</ele>
        <time>2024-07-07T08:37:13.945Z</time>
      </trkpt>
      <trkpt lat="52.93174" lon="5.88402">
        <ele>47.144634</ele>
        <time>2024-07-07T08:37:15.937Z</time>
      </trkpt>
      <trkpt lat="52.93183" lon="5.88419">
        <ele>47.199223</ele>
        <time>2024-07-07T08:37:18.928Z</time>
      </trkpt>
      <trkpt lat="52.93188" lon="5.88432">
        <ele>47.226897</ele>
        <time>2024-07-07T08:37:20.941Z</time>
      </trkpt>
      <trkpt lat="52.93194" lon="5.88444">
        <ele>47.253803</ele>
        <time>2024-07-07T08:37:22.935Z</time>
      </trkpt>
      <trkpt lat="52.932" lon="5.88456">
        <ele>47.281175</ele>
        <time>2024-07-07T08:37:24.936Z</time>
      </trkpt>
      <trkpt lat="52.93206" lon="5.88467">
        <ele>47.308424</ele>
        <time>2024-07-07T08:37:26.949Z</time>
      </trkpt>
      <trkpt lat="52.93211" lon="5.8848">
        <ele>47.336647</ele>
        <time>2024-07-07T08:37:28.940Z</time>
      </trkpt>
      <trkpt lat="52.93218" lon="5.88492">
        <ele>47.364888</ele>
        <time>2024-07-07T08:37:30.933Z</time>
      </trkpt>
      <trkpt lat="52.93224" lon="5.88504">
        <ele>47.394079</ele>
        <time>2024-07-07T08:37:32.929Z</time>
      </trkpt>
      <trkpt lat="52.9323" lon="5.88516">
        <ele>47.421962</ele>
        <time>2024-07-07T08:37:34.936Z</time>
      </trkpt>
      <trkpt lat="52.93236" lon="5.88528">
        <ele>47.450277</ele>
        <time>2024-07-07T08:37:36.955Z</time>
      </trkpt>
      <trkpt lat="52.93243" lon="5.88541">
        <ele>47.480583</ele>
        <time>2024-07-07T08:37:38.951Z</time>
      </trkpt>
      <trkpt lat="52.9325" lon="5.88552">
        <ele>47.510165</ele>
        <time>2024-07-07T08:37:40.928Z</time>
      </trkpt>
      <trkpt lat="52.93257" lon="5.88562">
        <ele>47.537532</ele>
        <time>2024-07-07T08:37:42.945Z</time>
      </trkpt>
      <trkpt lat="52.93263" lon="5.88573">
        <ele>47.564793</ele>
        <time>2024-07-07T08:37:44.935Z</time>
      </trkpt>
      <trkpt lat="52.93273" lon="5.88589">
        <ele>47.604822</ele>
        <time>2024-07-07T08:37:47.949Z</time>
      </trkpt>
      <trkpt lat="52.9328" lon="5.88601">
        <ele>47.635462</ele>
        <time>2024-07-07T08:37:50.932Z</time>
      </trkpt>
      <trkpt lat="52.9329" lon="5.88598">
        <ele>47.664057</ele>
        <time>2024-07-07T08:37:53.934Z</time>
      </trkpt>
      <trkpt lat="52.93298" lon="5.88583">
        <ele>47.700476</ele>
        <time>2024-07-07T08:37:56.919Z</time>
      </trkpt>
      <trkpt lat="52.93301" lon="5.88564">
        <ele>47.761714</ele>
        <time>2024-07-07T08:37:59.938Z</time>
      </trkpt>
      <trkpt lat="52.93304" lon="5.88544">
        <ele>47.843693</ele>
        <time>2024-07-07T08:38:02.921Z</time>
      </trkpt>
      <trkpt lat="52.93307" lon="5.88524">
        <ele>47.928444</ele>
        <time>2024-07-07T08:38:05.946Z</time>
      </trkpt>
      <trkpt lat="52.93311" lon="5.8851">
        <ele>47.988617</ele>
        <time>2024-07-07T08:38:07.935Z</time>
      </trkpt>
      <trkpt lat="52.93318" lon="5.885">
        <ele>48.050397</ele>
        <time>2024-07-07T08:38:09.936Z</time>
      </trkpt>
      <trkpt lat="52.93327" lon="5.88493">
        <ele>48.113459</ele>
        <time>2024-07-07T08:38:11.923Z</time>
      </trkpt>
      <trkpt lat="52.93335" lon="5.88487">
        <ele>48.17555</ele>
        <time>2024-07-07T08:38:13.929Z</time>
      </trkpt>
      <trkpt lat="52.93344" lon="5.8848">
        <ele>48.238331</ele>
        <time>2024-07-07T08:38:15.947Z</time>
      </trkpt>
      <trkpt lat="52.93355" lon="5.8847">
        <ele>48.325925</ele>
        <time>2024-07-07T08:38:18.938Z</time>
      </trkpt>
      <trkpt lat="52.93364" lon="5.88463">
        <ele>48.388553</ele>
        <time>2024-07-07T08:38:20.946Z</time>
      </trkpt>
      <trkpt lat="52.93372" lon="5.88456">
        <ele>48.452104</ele>
        <time>2024-07-07T08:38:22.929Z</time>
      </trkpt>
      <trkpt lat="52.93381" lon="5.88449">
        <ele>48.514914</ele>
        <time>2024-07-07T08:38:24.925Z</time>
      </trkpt>
      <trkpt lat="52.93389" lon="5.88442">
        <ele>48.576177</ele>
        <time>2024-07-07T08:38:26.924Z</time>
      </trkpt>
      <trkpt lat="52.93401" lon="5.8843">
        <ele>48.666519</ele>
        <time>2024-07-07T08:38:29.937Z</time>
      </trkpt>
      <trkpt lat="52.93409" lon="5.88422">
        <ele>48.733189</ele>
        <time>2024-07-07T08:38:31.943Z</time>
      </trkpt>
      <trkpt lat="52.93418" lon="5.88415">
        <ele>48.797956</ele>
        <time>2024-07-07T08:38:33.924Z</time>
      </trkpt>
      <trkpt lat="52.93427" lon="5.88408">
        <ele>48.860301</ele>
        <time>2024-07-07T08:38:35.958Z</time>
      </trkpt>
      <trkpt lat="52.93435" lon="5.88401">
        <ele>48.906611</ele>
        <time>2024-07-07T08:38:37.945Z</time>
      </trkpt>
      <trkpt lat="52.93443" lon="5.88393">
        <ele>48.895894</ele>
        <time>2024-07-07T08:38:39.956Z</time>
      </trkpt>
      <trkpt lat="52.93452" lon="5.88386">
        <ele>48.88494</ele>
        <time>2024-07-07T08:38:41.945Z</time>
      </trkpt>
      <trkpt lat="52.93461" lon="5.88379">
        <ele>48.873844</ele>
        <time>2024-07-07T08:38:43.943Z</time>
      </trkpt>
      <trkpt lat="52.9347" lon="5.88371">
        <ele>48.862611</ele>
        <time>2024-07-07T08:38:45.933Z</time>
      </trkpt>
      <trkpt lat="52.9348" lon="5.88363">
        <ele>48.850993</ele>
        <time>2024-07-07T08:38:47.929Z</time>
      </trkpt>
      <trkpt lat="52.93488" lon="5.88355">
        <ele>48.840079</ele>
        <time>2024-07-07T08:38:49.949Z</time>
      </trkpt>
      <trkpt lat="52.93497" lon="5.88347">
        <ele>48.828746</ele>
        <time>2024-07-07T08:38:51.938Z</time>
      </trkpt>
      <trkpt lat="52.93506" lon="5.8834">
        <ele>48.817834</ele>
        <time>2024-07-07T08:38:53.932Z</time>
      </trkpt>
      <trkpt lat="52.93515" lon="5.88333">
        <ele>48.806746</ele>
        <time>2024-07-07T08:38:55.930Z</time>
      </trkpt>
      <trkpt lat="52.93524" lon="5.88326">
        <ele>48.795446</ele>
        <time>2024-07-07T08:38:57.960Z</time>
      </trkpt>
      <trkpt lat="52.93534" lon="5.88317">
        <ele>48.783958</ele>
        <time>2024-07-07T08:38:59.939Z</time>
      </trkpt>
      <trkpt lat="52.93542" lon="5.8831">
        <ele>48.772983</ele>
        <time>2024-07-07T08:39:01.933Z</time>
      </trkpt>
      <trkpt lat="52.93551" lon="5.88303">
        <ele>48.762287</ele>
        <time>2024-07-07T08:39:03.937Z</time>
      </trkpt>
      <trkpt lat="52.93559" lon="5.88295">
        <ele>48.751734</ele>
        <time>2024-07-07T08:39:05.937Z</time>
      </trkpt>
      <trkpt lat="52.93568" lon="5.88287">
        <ele>48.741278</ele>
        <time>2024-07-07T08:39:07.948Z</time>
      </trkpt>
      <trkpt lat="52.93579" lon="5.88284">
        <ele>48.727963</ele>
        <time>2024-07-07T08:39:10.923Z</time>
      </trkpt>
      <trkpt lat="52.93588" lon="5.88278">
        <ele>48.717681</ele>
        <time>2024-07-07T08:39:12.936Z</time>
      </trkpt>
      <trkpt lat="52.93596" lon="5.8827">
        <ele>48.71527</ele>
        <time>2024-07-07T08:39:14.944Z</time>
      </trkpt>
      <trkpt lat="52.93608" lon="5.88259">
        <ele>48.749313</ele>
        <time>2024-07-07T08:39:17.948Z</time>
      </trkpt>
      <trkpt lat="52.93616" lon="5.88252">
        <ele>48.77309</ele>
        <time>2024-07-07T08:39:19.935Z</time>
      </trkpt>
      <trkpt lat="52.93624" lon="5.88244">
        <ele>48.797476</ele>
        <time>2024-07-07T08:39:21.945Z</time>
      </trkpt>
      <trkpt lat="52.93633" lon="5.88237">
        <ele>48.821636</ele>
        <time>2024-07-07T08:39:23.935Z</time>
      </trkpt>
      <trkpt lat="52.93641" lon="5.88231">
        <ele>48.84533</ele>
        <time>2024-07-07T08:39:25.945Z</time>
      </trkpt>
      <trkpt lat="52.9365" lon="5.88224">
        <ele>48.868696</ele>
        <time>2024-07-07T08:39:27.941Z</time>
      </trkpt>
      <trkpt lat="52.93658" lon="5.88217">
        <ele>48.892996</ele>
        <time>2024-07-07T08:39:29.931Z</time>
      </trkpt>
      <trkpt lat="52.93667" lon="5.88209">
        <ele>48.91744</ele>
        <time>2024-07-07T08:39:31.939Z</time>
      </trkpt>
      <trkpt lat="52.93676" lon="5.88202">
        <ele>48.941995</ele>
        <time>2024-07-07T08:39:33.938Z</time>
      </trkpt>
      <trkpt lat="52.93684" lon="5.88194">
        <ele>48.966955</ele>
        <time>2024-07-07T08:39:35.963Z</time>
      </trkpt>
      <trkpt lat="52.93693" lon="5.88187">
        <ele>48.991471</ele>
        <time>2024-07-07T08:39:37.952Z</time>
      </trkpt>
      <trkpt lat="52.93701" lon="5.8818">
        <ele>49.016111</ele>
        <time>2024-07-07T08:39:39.956Z</time>
      </trkpt>
      <trkpt lat="52.9371" lon="5.88172">
        <ele>49.040777</ele>
        <time>2024-07-07T08:39:41.951Z</time>
      </trkpt>
      <trkpt lat="52.93719" lon="5.88165">
        <ele>49.064937</ele>
        <time>2024-07-07T08:39:43.947Z</time>
      </trkpt>
      <trkpt lat="52.93727" lon="5.88158">
        <ele>49.088439</ele>
        <time>2024-07-07T08:39:45.940Z</time>
      </trkpt>
      <trkpt lat="52.93735" lon="5.8815">
        <ele>49.11252</ele>
        <time>2024-07-07T08:39:47.931Z</time>
      </trkpt>
      <trkpt lat="52.93744" lon="5.88143">
        <ele>49.138042</ele>
        <time>2024-07-07T08:39:49.954Z</time>
      </trkpt>
      <trkpt lat="52.93752" lon="5.88136">
        <ele>49.161528</ele>
        <time>2024-07-07T08:39:51.942Z</time>
      </trkpt>
      <trkpt lat="52.93761" lon="5.88129">
        <ele>49.161595</ele>
        <time>2024-07-07T08:39:53.948Z</time>
      </trkpt>
      <trkpt lat="52.93769" lon="5.88121">
        <ele>49.157284</ele>
        <time>2024-07-07T08:39:55.959Z</time>
      </trkpt>
      <trkpt lat="52.93778" lon="5.88114">
        <ele>49.152854</ele>
        <time>2024-07-07T08:39:57.936Z</time>
      </trkpt>
      <trkpt lat="52.93787" lon="5.88106">
        <ele>49.14815</ele>
        <time>2024-07-07T08:39:59.958Z</time>
      </trkpt>
      <trkpt lat="52.93796" lon="5.88098">
        <ele>49.143657</ele>
        <time>2024-07-07T08:40:01.946Z</time>
      </trkpt>
      <trkpt lat="52.93805" lon="5.8809">
        <ele>49.139269</ele>
        <time>2024-07-07T08:40:03.947Z</time>
      </trkpt>
      <trkpt lat="52.93814" lon="5.88083">
        <ele>49.134811</ele>
        <time>2024-07-07T08:40:05.937Z</time>
      </trkpt>
      <trkpt lat="52.93822" lon="5.88076">
        <ele>49.130538</ele>
        <time>2024-07-07T08:40:07.938Z</time>
      </trkpt>
      <trkpt lat="52.93831" lon="5.8807">
        <ele>49.126286</ele>
        <time>2024-07-07T08:40:09.936Z</time>
      </trkpt>
      <trkpt lat="52.93839" lon="5.88063">
        <ele>49.122049</ele>
        <time>2024-07-07T08:40:11.946Z</time>
      </trkpt>
      <trkpt lat="52.93848" lon="5.88055">
        <ele>49.117739</ele>
        <time>2024-07-07T08:40:13.951Z</time>
      </trkpt>
      <trkpt lat="52.93857" lon="5.88047">
        <ele>49.113217</ele>
        <time>2024-07-07T08:40:15.935Z</time>
      </trkpt>
      <trkpt lat="52.93864" lon="5.8804">
        <ele>49.109168</ele>
        <time>2024-07-07T08:40:17.970Z</time>
      </trkpt>
      <trkpt lat="52.93873" lon="5.88033">
        <ele>49.10478</ele>
        <time>2024-07-07T08:40:19.949Z</time>
      </trkpt>
      <trkpt lat="52.93881" lon="5.88025">
        <ele>49.100567</ele>
        <time>2024-07-07T08:40:21.951Z</time>
      </trkpt>
      <trkpt lat="52.93889" lon="5.88016">
        <ele>49.096421</ele>
        <time>2024-07-07T08:40:23.944Z</time>
      </trkpt>
      <trkpt lat="52.93899" lon="5.88004">
        <ele>49.090763</ele>
        <time>2024-07-07T08:40:26.938Z</time>
      </trkpt>
      <trkpt lat="52.93906" lon="5.87991">
        <ele>49.086262</ele>
        <time>2024-07-07T08:40:29.932Z</time>
      </trkpt>
      <trkpt lat="52.93916" lon="5.87982">
        <ele>49.04611</ele>
        <time>2024-07-07T08:40:32.913Z</time>
      </trkpt>
      <trkpt lat="52.93926" lon="5.87971">
        <ele>48.988727</ele>
        <time>2024-07-07T08:40:35.949Z</time>
      </trkpt>
      <trkpt lat="52.93934" lon="5.87962">
        <ele>48.940228</ele>
        <time>2024-07-07T08:40:38.934Z</time>
      </trkpt>
      <trkpt lat="52.93937" lon="5.87947">
        <ele>48.891552</ele>
        <time>2024-07-07T08:40:45.934Z</time>
      </trkpt>
      <trkpt lat="52.93944" lon="5.87938">
        <ele>48.847084</ele>
        <time>2024-07-07T08:40:49.938Z</time>
      </trkpt>
      <trkpt lat="52.93951" lon="5.87926">
        <ele>48.800302</ele>
        <time>2024-07-07T08:40:52.924Z</time>
      </trkpt>
      <trkpt lat="52.93959" lon="5.87916">
        <ele>48.747807</ele>
        <time>2024-07-07T08:40:55.943Z</time>
      </trkpt>
      <trkpt lat="52.93968" lon="5.87905">
        <ele>48.696106</ele>
        <time>2024-07-07T08:40:58.940Z</time>
      </trkpt>
      <trkpt lat="52.93977" lon="5.87895">
        <ele>48.638316</ele>
        <time>2024-07-07T08:41:01.939Z</time>
      </trkpt>
      <trkpt lat="52.93988" lon="5.87884">
        <ele>48.575724</ele>
        <time>2024-07-07T08:41:04.933Z</time>
      </trkpt>
      <trkpt lat="52.93999" lon="5.87876">
        <ele>48.515039</ele>
        <time>2024-07-07T08:41:07.938Z</time>
      </trkpt>
      <trkpt lat="52.94009" lon="5.87867">
        <ele>48.462789</ele>
        <time>2024-07-07T08:41:11.919Z</time>
      </trkpt>
      <trkpt lat="52.94019" lon="5.87859">
        <ele>48.407387</ele>
        <time>2024-07-07T08:41:15.934Z</time>
      </trkpt>
      <trkpt lat="52.94028" lon="5.8785">
        <ele>48.354721</ele>
        <time>2024-07-07T08:41:18.944Z</time>
      </trkpt>
      <trkpt lat="52.94038" lon="5.87841">
        <ele>48.298282</ele>
        <time>2024-07-07T08:41:21.944Z</time>
      </trkpt>
      <trkpt lat="52.94048" lon="5.87832">
        <ele>48.241445</ele>
        <time>2024-07-07T08:41:24.928Z</time>
      </trkpt>
      <trkpt lat="52.94059" lon="5.87823">
        <ele>48.210563</ele>
        <time>2024-07-07T08:41:27.943Z</time>
      </trkpt>
      <trkpt lat="52.94071" lon="5.87812">
        <ele>48.264377</ele>
        <time>2024-07-07T08:41:30.945Z</time>
      </trkpt>
      <trkpt lat="52.94078" lon="5.87805">
        <ele>48.301794</ele>
        <time>2024-07-07T08:41:32.919Z</time>
      </trkpt>
      <trkpt lat="52.94087" lon="5.87797">
        <ele>48.341272</ele>
        <time>2024-07-07T08:41:34.952Z</time>
      </trkpt>
      <trkpt lat="52.94095" lon="5.8779">
        <ele>48.379159</ele>
        <time>2024-07-07T08:41:36.931Z</time>
      </trkpt>
      <trkpt lat="52.94104" lon="5.87783">
        <ele>48.420082</ele>
        <time>2024-07-07T08:41:38.938Z</time>
      </trkpt>
      <trkpt lat="52.94112" lon="5.87775">
        <ele>48.460041</ele>
        <time>2024-07-07T08:41:40.934Z</time>
      </trkpt>
      <trkpt lat="52.94121" lon="5.87767">
        <ele>48.500256</ele>
        <time>2024-07-07T08:41:42.943Z</time>
      </trkpt>
      <trkpt lat="52.94129" lon="5.87759">
        <ele>48.542009</ele>
        <time>2024-07-07T08:41:44.963Z</time>
      </trkpt>
      <trkpt lat="52.94139" lon="5.87752">
        <ele>48.5835</ele>
        <time>2024-07-07T08:41:46.940Z</time>
      </trkpt>
      <trkpt lat="52.94148" lon="5.87744">
        <ele>48.626581</ele>
        <time>2024-07-07T08:41:48.946Z</time>
      </trkpt>
      <trkpt lat="52.94157" lon="5.87736">
        <ele>48.668242</ele>
        <time>2024-07-07T08:41:50.942Z</time>
      </trkpt>
      <trkpt lat="52.94165" lon="5.87728">
        <ele>48.709386</ele>
        <time>2024-07-07T08:41:52.936Z</time>
      </trkpt>
      <trkpt lat="52.94174" lon="5.87721">
        <ele>48.749692</ele>
        <time>2024-07-07T08:41:54.947Z</time>
      </trkpt>
      <trkpt lat="52.94183" lon="5.87713">
        <ele>48.790362</ele>
        <time>2024-07-07T08:41:56.928Z</time>
      </trkpt>
      <trkpt lat="52.94191" lon="5.87706">
        <ele>48.829953</ele>
        <time>2024-07-07T08:41:58.916Z</time>
      </trkpt>
      <trkpt lat="52.942" lon="5.87699">
        <ele>48.869096</ele>
        <time>2024-07-07T08:42:00.934Z</time>
      </trkpt>
      <trkpt lat="52.94209" lon="5.87691">
        <ele>48.912533</ele>
        <time>2024-07-07T08:42:02.941Z</time>
      </trkpt>
      <trkpt lat="52.94218" lon="5.87682">
        <ele>48.932852</ele>
        <time>2024-07-07T08:42:04.934Z</time>
      </trkpt>
      <trkpt lat="52.94226" lon="5.87675">
        <ele>48.908681</ele>
        <time>2024-07-07T08:42:06.950Z</time>
      </trkpt>
      <trkpt lat="52.94236" lon="5.87667">
        <ele>48.883129</ele>
        <time>2024-07-07T08:42:08.934Z</time>
      </trkpt>
      <trkpt lat="52.94245" lon="5.8766">
        <ele>48.8584</ele>
        <time>2024-07-07T08:42:10.933Z</time>
      </trkpt>
      <trkpt lat="52.94253" lon="5.87652">
        <ele>48.834158</ele>
        <time>2024-07-07T08:42:12.946Z</time>
      </trkpt>
      <trkpt lat="52.94262" lon="5.87644">
        <ele>48.809697</ele>
        <time>2024-07-07T08:42:14.949Z</time>
      </trkpt>
      <trkpt lat="52.94271" lon="5.87637">
        <ele>48.78464</ele>
        <time>2024-07-07T08:42:16.933Z</time>
      </trkpt>
      <trkpt lat="52.94279" lon="5.87629">
        <ele>48.760026</ele>
        <time>2024-07-07T08:42:18.931Z</time>
      </trkpt>
      <trkpt lat="52.94288" lon="5.87622">
        <ele>48.736484</ele>
        <time>2024-07-07T08:42:20.951Z</time>
      </trkpt>
      <trkpt lat="52.94296" lon="5.87615">
        <ele>48.712846</ele>
        <time>2024-07-07T08:42:22.939Z</time>
      </trkpt>
      <trkpt lat="52.94306" lon="5.87609">
        <ele>48.687797</ele>
        <time>2024-07-07T08:42:24.936Z</time>
      </trkpt>
      <trkpt lat="52.94315" lon="5.87601">
        <ele>48.662826</ele>
        <time>2024-07-07T08:42:26.933Z</time>
      </trkpt>
      <trkpt lat="52.94324" lon="5.87594">
        <ele>48.637968</ele>
        <time>2024-07-07T08:42:28.940Z</time>
      </trkpt>
      <trkpt lat="52.94332" lon="5.87585">
        <ele>48.612986</ele>
        <time>2024-07-07T08:42:30.939Z</time>
      </trkpt>
      <trkpt lat="52.94342" lon="5.87578">
        <ele>48.587101</ele>
        <time>2024-07-07T08:42:32.936Z</time>
      </trkpt>
      <trkpt lat="52.94351" lon="5.8757">
        <ele>48.561533</ele>
        <time>2024-07-07T08:42:34.945Z</time>
      </trkpt>
      <trkpt lat="52.9436" lon="5.87562">
        <ele>48.536275</ele>
        <time>2024-07-07T08:42:36.932Z</time>
      </trkpt>
      <trkpt lat="52.94369" lon="5.87553">
        <ele>48.509787</ele>
        <time>2024-07-07T08:42:38.947Z</time>
      </trkpt>
      <trkpt lat="52.94378" lon="5.87544">
        <ele>48.480408</ele>
        <time>2024-07-07T08:42:40.944Z</time>
      </trkpt>
      <trkpt lat="52.94387" lon="5.87536">
        <ele>48.448527</ele>
        <time>2024-07-07T08:42:42.942Z</time>
      </trkpt>
      <trkpt lat="52.94396" lon="5.87529">
        <ele>48.415867</ele>
        <time>2024-07-07T08:42:44.956Z</time>
      </trkpt>
      <trkpt lat="52.94405" lon="5.87521">
        <ele>48.38445</ele>
        <time>2024-07-07T08:42:46.949Z</time>
      </trkpt>
      <trkpt lat="52.94414" lon="5.87512">
        <ele>48.353104</ele>
        <time>2024-07-07T08:42:48.937Z</time>
      </trkpt>
      <trkpt lat="52.94422" lon="5.87504">
        <ele>48.322495</ele>
        <time>2024-07-07T08:42:50.939Z</time>
      </trkpt>
      <trkpt lat="52.9443" lon="5.87497">
        <ele>48.292437</ele>
        <time>2024-07-07T08:42:52.928Z</time>
      </trkpt>
      <trkpt lat="52.94442" lon="5.87488">
        <ele>48.251578</ele>
        <time>2024-07-07T08:42:55.940Z</time>
      </trkpt>
      <trkpt lat="52.94454" lon="5.87479">
        <ele>48.210558</ele>
        <time>2024-07-07T08:42:58.940Z</time>
      </trkpt>
      <trkpt lat="52.94464" lon="5.87468">
        <ele>48.171639</ele>
        <time>2024-07-07T08:43:01.918Z</time>
      </trkpt>
      <trkpt lat="52.94475" lon="5.87458">
        <ele>48.132572</ele>
        <time>2024-07-07T08:43:04.924Z</time>
      </trkpt>
      <trkpt lat="52.94487" lon="5.8745">
        <ele>48.091508</ele>
        <time>2024-07-07T08:43:07.939Z</time>
      </trkpt>
      <trkpt lat="52.94499" lon="5.87444">
        <ele>48.053185</ele>
        <time>2024-07-07T08:43:10.934Z</time>
      </trkpt>
      <trkpt lat="52.9451" lon="5.87434">
        <ele>48.012824</ele>
        <time>2024-07-07T08:43:13.950Z</time>
      </trkpt>
      <trkpt lat="52.94521" lon="5.87425">
        <ele>47.973266</ele>
        <time>2024-07-07T08:43:16.923Z</time>
      </trkpt>
      <trkpt lat="52.94533" lon="5.87414">
        <ele>47.930505</ele>
        <time>2024-07-07T08:43:19.949Z</time>
      </trkpt>
      <trkpt lat="52.94545" lon="5.87404">
        <ele>47.928635</ele>
        <time>2024-07-07T08:43:22.949Z</time>
      </trkpt>
      <trkpt lat="52.94557" lon="5.87395">
        <ele>47.931994</ele>
        <time>2024-07-07T08:43:25.950Z</time>
      </trkpt>
      <trkpt lat="52.94566" lon="5.87387">
        <ele>47.934917</ele>
        <time>2024-07-07T08:43:28.935Z</time>
      </trkpt>
      <trkpt lat="52.94578" lon="5.87378">
        <ele>47.938216</ele>
        <time>2024-07-07T08:43:31.945Z</time>
      </trkpt>
      <trkpt lat="52.94588" lon="5.87369">
        <ele>47.941246</ele>
        <time>2024-07-07T08:43:34.933Z</time>
      </trkpt>
      <trkpt lat="52.94597" lon="5.87361">
        <ele>47.943929</ele>
        <time>2024-07-07T08:43:37.934Z</time>
      </trkpt>
      <trkpt lat="52.94605" lon="5.87354">
        <ele>47.946476</ele>
        <time>2024-07-07T08:43:40.930Z</time>
      </trkpt>
      <trkpt lat="52.94614" lon="5.87347">
        <ele>47.949055</ele>
        <time>2024-07-07T08:43:43.935Z</time>
      </trkpt>
      <trkpt lat="52.94623" lon="5.87339">
        <ele>47.951799</ele>
        <time>2024-07-07T08:43:46.949Z</time>
      </trkpt>
      <trkpt lat="52.94634" lon="5.87335">
        <ele>47.954676</ele>
        <time>2024-07-07T08:43:49.935Z</time>
      </trkpt>
      <trkpt lat="52.94645" lon="5.8733">
        <ele>47.957788</ele>
        <time>2024-07-07T08:43:52.939Z</time>
      </trkpt>
      <trkpt lat="52.94657" lon="5.87325">
        <ele>47.961003</ele>
        <time>2024-07-07T08:43:55.935Z</time>
      </trkpt>
      <trkpt lat="52.94669" lon="5.87319">
        <ele>47.96429</ele>
        <time>2024-07-07T08:43:58.931Z</time>
      </trkpt>
      <trkpt lat="52.94681" lon="5.87315">
        <ele>47.967523</ele>
        <time>2024-07-07T08:44:01.927Z</time>
      </trkpt>
      <trkpt lat="52.94694" lon="5.87313">
        <ele>47.970841</ele>
        <time>2024-07-07T08:44:04.947Z</time>
      </trkpt>
      <trkpt lat="52.94706" lon="5.87311">
        <ele>47.982913</ele>
        <time>2024-07-07T08:44:07.946Z</time>
      </trkpt>
      <trkpt lat="52.94715" lon="5.87309">
        <ele>48.003371</ele>
        <time>2024-07-07T08:44:09.951Z</time>
      </trkpt>
      <trkpt lat="52.94728" lon="5.87308">
        <ele>48.033331</ele>
        <time>2024-07-07T08:44:12.938Z</time>
      </trkpt>
      <trkpt lat="52.94742" lon="5.87306">
        <ele>48.063896</ele>
        <time>2024-07-07T08:44:15.945Z</time>
      </trkpt>
      <trkpt lat="52.94755" lon="5.87304">
        <ele>48.093699</ele>
        <time>2024-07-07T08:44:18.945Z</time>
      </trkpt>
      <trkpt lat="52.94768" lon="5.87302">
        <ele>48.122895</ele>
        <time>2024-07-07T08:44:21.943Z</time>
      </trkpt>
      <trkpt lat="52.9478" lon="5.873">
        <ele>48.151783</ele>
        <time>2024-07-07T08:44:24.931Z</time>
      </trkpt>
      <trkpt lat="52.94793" lon="5.87298">
        <ele>48.181009</ele>
        <time>2024-07-07T08:44:27.943Z</time>
      </trkpt>
      <trkpt lat="52.94806" lon="5.87297">
        <ele>48.210293</ele>
        <time>2024-07-07T08:44:30.952Z</time>
      </trkpt>
      <trkpt lat="52.94819" lon="5.87295">
        <ele>48.239476</ele>
        <time>2024-07-07T08:44:33.944Z</time>
      </trkpt>
      <trkpt lat="52.94831" lon="5.87294">
        <ele>48.267685</ele>
        <time>2024-07-07T08:44:36.944Z</time>
      </trkpt>
      <trkpt lat="52.94845" lon="5.87291">
        <ele>48.298295</ele>
        <time>2024-07-07T08:44:39.932Z</time>
      </trkpt>
      <trkpt lat="52.94858" lon="5.87288">
        <ele>48.328378</ele>
        <time>2024-07-07T08:44:42.940Z</time>
      </trkpt>
      <trkpt lat="52.94871" lon="5.87285">
        <ele>48.358732</ele>
        <time>2024-07-07T08:44:45.950Z</time>
      </trkpt>
      <trkpt lat="52.94882" lon="5.87284">
        <ele>48.372186</ele>
        <time>2024-07-07T08:44:48.951Z</time>
      </trkpt>
      <trkpt lat="52.94891" lon="5.87282">
        <ele>48.306788</ele>
        <time>2024-07-07T08:44:51.948Z</time>
      </trkpt>
      <trkpt lat="52.949" lon="5.87282">
        <ele>48.241102</ele>
        <time>2024-07-07T08:44:54.927Z</time>
      </trkpt>
      <trkpt lat="52.94906" lon="5.87295">
        <ele>48.171138</ele>
        <time>2024-07-07T08:44:58.927Z</time>
      </trkpt>
      <trkpt lat="52.94915" lon="5.87302">
        <ele>48.102832</ele>
        <time>2024-07-07T08:45:01.923Z</time>
      </trkpt>
      <trkpt lat="52.94926" lon="5.873">
        <ele>48.024526</ele>
        <time>2024-07-07T08:45:04.925Z</time>
      </trkpt>
      <trkpt lat="52.94938" lon="5.87297">
        <ele>47.933078</ele>
        <time>2024-07-07T08:45:07.947Z</time>
      </trkpt>
      <trkpt lat="52.94947" lon="5.87296">
        <ele>47.867147</ele>
        <time>2024-07-07T08:45:09.938Z</time>
      </trkpt>
      <trkpt lat="52.94956" lon="5.87294">
        <ele>47.80074</ele>
        <time>2024-07-07T08:45:11.930Z</time>
      </trkpt>
      <trkpt lat="52.94965" lon="5.87291">
        <ele>47.735308</ele>
        <time>2024-07-07T08:45:13.941Z</time>
      </trkpt>
      <trkpt lat="52.94976" lon="5.8729">
        <ele>47.661506</ele>
        <time>2024-07-07T08:45:15.929Z</time>
      </trkpt>
      <trkpt lat="52.94986" lon="5.87288">
        <ele>47.586114</ele>
        <time>2024-07-07T08:45:17.941Z</time>
      </trkpt>
      <trkpt lat="52.94996" lon="5.87286">
        <ele>47.511853</ele>
        <time>2024-07-07T08:45:19.947Z</time>
      </trkpt>
      <trkpt lat="52.95007" lon="5.87284">
        <ele>47.436371</ele>
        <time>2024-07-07T08:45:21.942Z</time>
      </trkpt>
      <trkpt lat="52.95017" lon="5.87281">
        <ele>47.360431</ele>
        <time>2024-07-07T08:45:23.943Z</time>
      </trkpt>
      <trkpt lat="52.95027" lon="5.87279">
        <ele>47.285617</ele>
        <time>2024-07-07T08:45:25.942Z</time>
      </trkpt>
      <trkpt lat="52.95038" lon="5.87276">
        <ele>47.209742</ele>
        <time>2024-07-07T08:45:27.933Z</time>
      </trkpt>
      <trkpt lat="52.95048" lon="5.87273">
        <ele>47.131382</ele>
        <time>2024-07-07T08:45:29.938Z</time>
      </trkpt>
      <trkpt lat="52.95058" lon="5.87271">
        <ele>47.068181</ele>
        <time>2024-07-07T08:45:31.940Z</time>
      </trkpt>
      <trkpt lat="52.95069" lon="5.87268">
        <ele>47.022392</ele>
        <time>2024-07-07T08:45:33.953Z</time>
      </trkpt>
      <trkpt lat="52.95078" lon="5.87265">
        <ele>46.977956</ele>
        <time>2024-07-07T08:45:35.945Z</time>
      </trkpt>
      <trkpt lat="52.95088" lon="5.87262">
        <ele>46.934536</ele>
        <time>2024-07-07T08:45:37.953Z</time>
      </trkpt>
      <trkpt lat="52.95098" lon="5.8726">
        <ele>46.890261</ele>
        <time>2024-07-07T08:45:39.936Z</time>
      </trkpt>
      <trkpt lat="52.95108" lon="5.87257">
        <ele>46.845471</ele>
        <time>2024-07-07T08:45:41.935Z</time>
      </trkpt>
      <trkpt lat="52.95118" lon="5.87255">
        <ele>46.801995</ele>
        <time>2024-07-07T08:45:43.919Z</time>
      </trkpt>
      <trkpt lat="52.95127" lon="5.87256">
        <ele>46.758967</ele>
        <time>2024-07-07T08:45:45.933Z</time>
      </trkpt>
      <trkpt lat="52.95138" lon="5.87259">
        <ele>46.711685</ele>
        <time>2024-07-07T08:45:47.921Z</time>
      </trkpt>
      <trkpt lat="52.95147" lon="5.87255">
        <ele>46.668706</ele>
        <time>2024-07-07T08:45:49.919Z</time>
      </trkpt>
      <trkpt lat="52.9516" lon="5.87251">
        <ele>46.611453</ele>
        <time>2024-07-07T08:45:52.945Z</time>
      </trkpt>
      <trkpt lat="52.95173" lon="5.87247">
        <ele>46.551056</ele>
        <time>2024-07-07T08:45:55.940Z</time>
      </trkpt>
      <trkpt lat="52.95183" lon="5.87245">
        <ele>46.507731</ele>
        <time>2024-07-07T08:45:57.949Z</time>
      </trkpt>
      <trkpt lat="52.95193" lon="5.87241">
        <ele>46.463388</ele>
        <time>2024-07-07T08:45:59.934Z</time>
      </trkpt>
      <trkpt lat="52.95202" lon="5.87238">
        <ele>46.420123</ele>
        <time>2024-07-07T08:46:01.937Z</time>
      </trkpt>
      <trkpt lat="52.95213" lon="5.87236">
        <ele>46.373282</ele>
        <time>2024-07-07T08:46:03.931Z</time>
      </trkpt>
      <trkpt lat="52.95222" lon="5.87235">
        <ele>46.331923</ele>
        <time>2024-07-07T08:46:05.930Z</time>
      </trkpt>
      <trkpt lat="52.95233" lon="5.87226">
        <ele>46.303765</ele>
        <time>2024-07-07T08:46:08.937Z</time>
      </trkpt>
      <trkpt lat="52.95239" lon="5.87212">
        <ele>46.387349</ele>
        <time>2024-07-07T08:46:11.932Z</time>
      </trkpt>
      <trkpt lat="52.95248" lon="5.87205">
        <ele>46.463606</ele>
        <time>2024-07-07T08:46:14.933Z</time>
      </trkpt>
      <trkpt lat="52.95258" lon="5.872">
        <ele>46.55501</ele>
        <time>2024-07-07T08:46:17.939Z</time>
      </trkpt>
      <trkpt lat="52.9527" lon="5.87195">
        <ele>46.649149</ele>
        <time>2024-07-07T08:46:20.923Z</time>
      </trkpt>
      <trkpt lat="52.9528" lon="5.87188">
        <ele>46.742752</ele>
        <time>2024-07-07T08:46:23.943Z</time>
      </trkpt>
      <trkpt lat="52.95292" lon="5.87182">
        <ele>46.841505</ele>
        <time>2024-07-07T08:46:26.928Z</time>
      </trkpt>
      <trkpt lat="52.95304" lon="5.87174">
        <ele>46.945957</ele>
        <time>2024-07-07T08:46:29.945Z</time>
      </trkpt>
      <trkpt lat="52.95316" lon="5.87167">
        <ele>47.051025</ele>
        <time>2024-07-07T08:46:32.945Z</time>
      </trkpt>
      <trkpt lat="52.95325" lon="5.87163">
        <ele>47.124334</ele>
        <time>2024-07-07T08:46:34.935Z</time>
      </trkpt>
      <trkpt lat="52.95338" lon="5.87158">
        <ele>47.230655</ele>
        <time>2024-07-07T08:46:37.949Z</time>
      </trkpt>
      <trkpt lat="52.9535" lon="5.87154">
        <ele>47.331885</ele>
        <time>2024-07-07T08:46:40.952Z</time>
      </trkpt>
      <trkpt lat="52.95359" lon="5.87152">
        <ele>47.406035</ele>
        <time>2024-07-07T08:46:42.960Z</time>
      </trkpt>
      <trkpt lat="52.95369" lon="5.8715">
        <ele>47.483295</ele>
        <time>2024-07-07T08:46:44.929Z</time>
      </trkpt>
      <trkpt lat="52.95378" lon="5.87149">
        <ele>47.557286</ele>
        <time>2024-07-07T08:46:46.948Z</time>
      </trkpt>
      <trkpt lat="52.95391" lon="5.87147">
        <ele>47.663871</ele>
        <time>2024-07-07T08:46:49.937Z</time>
      </trkpt>
      <trkpt lat="52.95404" lon="5.87145">
        <ele>47.756221</ele>
        <time>2024-07-07T08:46:52.940Z</time>
      </trkpt>
      <trkpt lat="52.95417" lon="5.8714">
        <ele>47.803957</ele>
        <time>2024-07-07T08:46:55.939Z</time>
      </trkpt>
      <trkpt lat="52.9543" lon="5.87137">
        <ele>47.853116</ele>
        <time>2024-07-07T08:46:58.942Z</time>
      </trkpt>
      <trkpt lat="52.95439" lon="5.87136">
        <ele>47.887761</ele>
        <time>2024-07-07T08:47:00.948Z</time>
      </trkpt>
      <trkpt lat="52.95449" lon="5.87135">
        <ele>47.922915</ele>
        <time>2024-07-07T08:47:02.948Z</time>
      </trkpt>
      <trkpt lat="52.95458" lon="5.87133">
        <ele>47.956475</ele>
        <time>2024-07-07T08:47:04.931Z</time>
      </trkpt>
      <trkpt lat="52.9547" lon="5.8713">
        <ele>48.002413</ele>
        <time>2024-07-07T08:47:07.917Z</time>
      </trkpt>
      <trkpt lat="52.95479" lon="5.87128">
        <ele>48.036946</ele>
        <time>2024-07-07T08:47:09.929Z</time>
      </trkpt>
      <trkpt lat="52.95493" lon="5.87125">
        <ele>48.086153</ele>
        <time>2024-07-07T08:47:12.948Z</time>
      </trkpt>
      <trkpt lat="52.95502" lon="5.87123">
        <ele>48.120013</ele>
        <time>2024-07-07T08:47:14.932Z</time>
      </trkpt>
      <trkpt lat="52.95515" lon="5.8712">
        <ele>48.168914</ele>
        <time>2024-07-07T08:47:17.923Z</time>
      </trkpt>
      <trkpt lat="52.95524" lon="5.87118">
        <ele>48.202575</ele>
        <time>2024-07-07T08:47:19.948Z</time>
      </trkpt>
      <trkpt lat="52.95536" lon="5.87118">
        <ele>48.249197</ele>
        <time>2024-07-07T08:47:22.918Z</time>
      </trkpt>
      <trkpt lat="52.95549" lon="5.87113">
        <ele>48.298524</ele>
        <time>2024-07-07T08:47:25.932Z</time>
      </trkpt>
      <trkpt lat="52.95562" lon="5.8711">
        <ele>48.346753</ele>
        <time>2024-07-07T08:47:28.946Z</time>
      </trkpt>
      <trkpt lat="52.95575" lon="5.87107">
        <ele>48.395685</ele>
        <time>2024-07-07T08:47:31.952Z</time>
      </trkpt>
      <trkpt lat="52.95588" lon="5.87104">
        <ele>48.358446</ele>
        <time>2024-07-07T08:47:34.946Z</time>
      </trkpt>
      <trkpt lat="52.95601" lon="5.871">
        <ele>48.29585</ele>
        <time>2024-07-07T08:47:37.909Z</time>
      </trkpt>
      <trkpt lat="52.95613" lon="5.87097">
        <ele>48.23344</ele>
        <time>2024-07-07T08:47:40.945Z</time>
      </trkpt>
      <trkpt lat="52.95626" lon="5.87093">
        <ele>48.17015</ele>
        <time>2024-07-07T08:47:43.944Z</time>
      </trkpt>
      <trkpt lat="52.95638" lon="5.87092">
        <ele>48.112776</ele>
        <time>2024-07-07T08:47:46.931Z</time>
      </trkpt>
      <trkpt lat="52.95649" lon="5.87094">
        <ele>48.056201</ele>
        <time>2024-07-07T08:47:49.932Z</time>
      </trkpt>
      <trkpt lat="52.95661" lon="5.8709">
        <ele>47.997548</ele>
        <time>2024-07-07T08:47:52.932Z</time>
      </trkpt>
      <trkpt lat="52.95673" lon="5.87087">
        <ele>47.938459</ele>
        <time>2024-07-07T08:47:55.945Z</time>
      </trkpt>
      <trkpt lat="52.95684" lon="5.87084">
        <ele>47.883551</ele>
        <time>2024-07-07T08:47:58.933Z</time>
      </trkpt>
      <trkpt lat="52.95693" lon="5.87082">
        <ele>47.834229</ele>
        <time>2024-07-07T08:48:01.930Z</time>
      </trkpt>
      <trkpt lat="52.95704" lon="5.87081">
        <ele>47.783775</ele>
        <time>2024-07-07T08:48:04.919Z</time>
      </trkpt>
      <trkpt lat="52.95715" lon="5.87079">
        <ele>47.728084</ele>
        <time>2024-07-07T08:48:07.927Z</time>
      </trkpt>
      <trkpt lat="52.95725" lon="5.87087">
        <ele>47.670337</ele>
        <time>2024-07-07T08:48:10.921Z</time>
      </trkpt>
      <trkpt lat="52.95729" lon="5.87105">
        <ele>47.613435</ele>
        <time>2024-07-07T08:48:13.934Z</time>
      </trkpt>
      <trkpt lat="52.95732" lon="5.87124">
        <ele>47.555476</ele>
        <time>2024-07-07T08:48:16.933Z</time>
      </trkpt>
      <trkpt lat="52.95733" lon="5.87143">
        <ele>47.494316</ele>
        <time>2024-07-07T08:48:19.939Z</time>
      </trkpt>
      <trkpt lat="52.95735" lon="5.87163">
        <ele>47.42124</ele>
        <time>2024-07-07T08:48:22.939Z</time>
      </trkpt>
      <trkpt lat="52.95736" lon="5.87184">
        <ele>47.346061</ele>
        <time>2024-07-07T08:48:25.938Z</time>
      </trkpt>
      <trkpt lat="52.95738" lon="5.87205">
        <ele>47.266772</ele>
        <time>2024-07-07T08:48:28.937Z</time>
      </trkpt>
      <trkpt lat="52.9574" lon="5.87226">
        <ele>47.190196</ele>
        <time>2024-07-07T08:48:31.933Z</time>
      </trkpt>
      <trkpt lat="52.95742" lon="5.87246">
        <ele>47.117156</ele>
        <time>2024-07-07T08:48:34.939Z</time>
      </trkpt>
      <trkpt lat="52.95744" lon="5.87266">
        <ele>47.042556</ele>
        <time>2024-07-07T08:48:37.937Z</time>
      </trkpt>
      <trkpt lat="52.9575" lon="5.87283">
        <ele>46.968635</ele>
        <time>2024-07-07T08:48:40.929Z</time>
      </trkpt>
      <trkpt lat="52.95761" lon="5.87289">
        <ele>46.901656</ele>
        <time>2024-07-07T08:48:43.934Z</time>
      </trkpt>
      <trkpt lat="52.95773" lon="5.87284">
        <ele>46.823379</ele>
        <time>2024-07-07T08:48:46.905Z</time>
      </trkpt>
      <trkpt lat="52.95783" lon="5.87281">
        <ele>46.764215</ele>
        <time>2024-07-07T08:48:48.925Z</time>
      </trkpt>
      <trkpt lat="52.95792" lon="5.87278">
        <ele>46.708602</ele>
        <time>2024-07-07T08:48:50.941Z</time>
      </trkpt>
      <trkpt lat="52.95801" lon="5.87275">
        <ele>46.652214</ele>
        <time>2024-07-07T08:48:52.954Z</time>
      </trkpt>
      <trkpt lat="52.9581" lon="5.87273">
        <ele>46.597995</ele>
        <time>2024-07-07T08:48:54.941Z</time>
      </trkpt>
      <trkpt lat="52.9582" lon="5.8727">
        <ele>46.536658</ele>
        <time>2024-07-07T08:48:56.947Z</time>
      </trkpt>
      <trkpt lat="52.9583" lon="5.87267">
        <ele>46.472681</ele>
        <time>2024-07-07T08:48:58.921Z</time>
      </trkpt>
      <trkpt lat="52.95841" lon="5.87264">
        <ele>46.42479</ele>
        <time>2024-07-07T08:49:00.919Z</time>
      </trkpt>
      <trkpt lat="52.95851" lon="5.87259">
        <ele>46.401361</ele>
        <time>2024-07-07T08:49:02.943Z</time>
      </trkpt>
      <trkpt lat="52.95862" lon="5.87255">
        <ele>46.377912</ele>
        <time>2024-07-07T08:49:04.928Z</time>
      </trkpt>
      <trkpt lat="52.95873" lon="5.8725">
        <ele>46.354309</ele>
        <time>2024-07-07T08:49:06.927Z</time>
      </trkpt>
      <trkpt lat="52.95883" lon="5.87242">
        <ele>46.330219</ele>
        <time>2024-07-07T08:49:08.947Z</time>
      </trkpt>
      <trkpt lat="52.95893" lon="5.87235">
        <ele>46.306579</ele>
        <time>2024-07-07T08:49:10.928Z</time>
      </trkpt>
      <trkpt lat="52.95903" lon="5.87231">
        <ele>46.284314</ele>
        <time>2024-07-07T08:49:12.909Z</time>
      </trkpt>
      <trkpt lat="52.95913" lon="5.87225">
        <ele>46.261567</ele>
        <time>2024-07-07T08:49:14.919Z</time>
      </trkpt>
      <trkpt lat="52.95923" lon="5.87221">
        <ele>46.239301</ele>
        <time>2024-07-07T08:49:16.941Z</time>
      </trkpt>
      <trkpt lat="52.95934" lon="5.87217">
        <ele>46.216765</ele>
        <time>2024-07-07T08:49:18.938Z</time>
      </trkpt>
      <trkpt lat="52.95944" lon="5.87213">
        <ele>46.194574</ele>
        <time>2024-07-07T08:49:20.941Z</time>
      </trkpt>
      <trkpt lat="52.95953" lon="5.8721">
        <ele>46.174182</ele>
        <time>2024-07-07T08:49:22.944Z</time>
      </trkpt>
      <trkpt lat="52.95966" lon="5.87204">
        <ele>46.14598</ele>
        <time>2024-07-07T08:49:25.943Z</time>
      </trkpt>
      <trkpt lat="52.95977" lon="5.87195">
        <ele>46.11981</ele>
        <time>2024-07-07T08:49:28.923Z</time>
      </trkpt>
      <trkpt lat="52.95985" lon="5.87187">
        <ele>46.099251</ele>
        <time>2024-07-07T08:49:30.945Z</time>
      </trkpt>
      <trkpt lat="52.95997" lon="5.87181">
        <ele>46.072656</ele>
        <time>2024-07-07T08:49:33.948Z</time>
      </trkpt>
      <trkpt lat="52.96009" lon="5.87179">
        <ele>46.044524</ele>
        <time>2024-07-07T08:49:36.942Z</time>
      </trkpt>
      <trkpt lat="52.96021" lon="5.87182">
        <ele>45.979329</ele>
        <time>2024-07-07T08:49:39.920Z</time>
      </trkpt>
      <trkpt lat="52.9603" lon="5.87184">
        <ele>45.926695</ele>
        <time>2024-07-07T08:49:41.924Z</time>
      </trkpt>
      <trkpt lat="52.96043" lon="5.87185">
        <ele>45.85895</ele>
        <time>2024-07-07T08:49:44.937Z</time>
      </trkpt>
      <trkpt lat="52.96056" lon="5.87182">
        <ele>45.789323</ele>
        <time>2024-07-07T08:49:47.947Z</time>
      </trkpt>
      <trkpt lat="52.96069" lon="5.87177">
        <ele>45.717497</ele>
        <time>2024-07-07T08:49:50.943Z</time>
      </trkpt>
      <trkpt lat="52.96081" lon="5.87172">
        <ele>45.647756</ele>
        <time>2024-07-07T08:49:53.938Z</time>
      </trkpt>
      <trkpt lat="52.9609" lon="5.8717">
        <ele>45.597795</ele>
        <time>2024-07-07T08:49:55.937Z</time>
      </trkpt>
      <trkpt lat="52.96103" lon="5.87166">
        <ele>45.529186</ele>
        <time>2024-07-07T08:49:58.931Z</time>
      </trkpt>
      <trkpt lat="52.96116" lon="5.87162">
        <ele>45.45845</ele>
        <time>2024-07-07T08:50:01.945Z</time>
      </trkpt>
      <trkpt lat="52.96124" lon="5.87157">
        <ele>45.409891</ele>
        <time>2024-07-07T08:50:03.920Z</time>
      </trkpt>
      <trkpt lat="52.96136" lon="5.87148">
        <ele>45.340089</ele>
        <time>2024-07-07T08:50:06.909Z</time>
      </trkpt>
      <trkpt lat="52.96148" lon="5.87142">
        <ele>45.271919</ele>
        <time>2024-07-07T08:50:09.943Z</time>
      </trkpt>
      <trkpt lat="52.96159" lon="5.87138">
        <ele>45.207406</ele>
        <time>2024-07-07T08:50:12.921Z</time>
      </trkpt>
      <trkpt lat="52.9617" lon="5.87134">
        <ele>45.147014</ele>
        <time>2024-07-07T08:50:15.940Z</time>
      </trkpt>
      <trkpt lat="52.9618" lon="5.8713">
        <ele>45.091902</ele>
        <time>2024-07-07T08:50:18.918Z</time>
      </trkpt>
      <trkpt lat="52.9619" lon="5.87125">
        <ele>45.194275</ele>
        <time>2024-07-07T08:50:21.924Z</time>
      </trkpt>
      <trkpt lat="52.962" lon="5.87124">
        <ele>45.36806</ele>
        <time>2024-07-07T08:50:24.941Z</time>
      </trkpt>
      <trkpt lat="52.96208" lon="5.87136">
        <ele>45.553483</ele>
        <time>2024-07-07T08:50:27.925Z</time>
      </trkpt>
      <trkpt lat="52.96213" lon="5.87148">
        <ele>45.712238</ele>
        <time>2024-07-07T08:50:30.911Z</time>
      </trkpt>
      <trkpt lat="52.96224" lon="5.87157">
        <ele>45.9286</ele>
        <time>2024-07-07T08:50:32.934Z</time>
      </trkpt>
      <trkpt lat="52.96232" lon="5.87167">
        <ele>46.103162</ele>
        <time>2024-07-07T08:50:34.950Z</time>
      </trkpt>
      <trkpt lat="52.9624" lon="5.87185">
        <ele>46.334361</ele>
        <time>2024-07-07T08:50:37.923Z</time>
      </trkpt>
      <trkpt lat="52.9625" lon="5.87197">
        <ele>46.545471</ele>
        <time>2024-07-07T08:50:40.932Z</time>
      </trkpt>
      <trkpt lat="52.96261" lon="5.87199">
        <ele>46.745002</ele>
        <time>2024-07-07T08:50:43.956Z</time>
      </trkpt>
      <trkpt lat="52.96272" lon="5.87194">
        <ele>46.947592</ele>
        <time>2024-07-07T08:50:46.922Z</time>
      </trkpt>
      <trkpt lat="52.96281" lon="5.87183">
        <ele>47.135824</ele>
        <time>2024-07-07T08:50:49.946Z</time>
      </trkpt>
      <trkpt lat="52.96288" lon="5.8717">
        <ele>47.326193</ele>
        <time>2024-07-07T08:50:52.930Z</time>
      </trkpt>
      <trkpt lat="52.96296" lon="5.8716">
        <ele>47.503621</ele>
        <time>2024-07-07T08:50:55.940Z</time>
      </trkpt>
      <trkpt lat="52.96303" lon="5.87149">
        <ele>47.665727</ele>
        <time>2024-07-07T08:50:58.927Z</time>
      </trkpt>
      <trkpt lat="52.96309" lon="5.87138">
        <ele>47.830766</ele>
        <time>2024-07-07T08:51:01.941Z</time>
      </trkpt>
      <trkpt lat="52.96318" lon="5.87127">
        <ele>48.026687</ele>
        <time>2024-07-07T08:51:05.941Z</time>
      </trkpt>
      <trkpt lat="52.96328" lon="5.87116">
        <ele>48.227738</ele>
        <time>2024-07-07T08:51:09.953Z</time>
      </trkpt>
      <trkpt lat="52.96338" lon="5.87106">
        <ele>48.276611</ele>
        <time>2024-07-07T08:51:13.954Z</time>
      </trkpt>
      <trkpt lat="52.96349" lon="5.87097">
        <ele>48.325255</ele>
        <time>2024-07-07T08:51:17.944Z</time>
      </trkpt>
      <trkpt lat="52.96359" lon="5.87089">
        <ele>48.372703</ele>
        <time>2024-07-07T08:51:21.944Z</time>
      </trkpt>
      <trkpt lat="52.9637" lon="5.87083">
        <ele>48.421083</ele>
        <time>2024-07-07T08:51:25.933Z</time>
      </trkpt>
      <trkpt lat="52.96378" lon="5.8708">
        <ele>48.459144</ele>
        <time>2024-07-07T08:51:28.935Z</time>
      </trkpt>
      <trkpt lat="52.9639" lon="5.87076">
        <ele>48.507383</ele>
        <time>2024-07-07T08:51:32.941Z</time>
      </trkpt>
      <trkpt lat="52.96401" lon="5.8707">
        <ele>48.557448</ele>
        <time>2024-07-07T08:51:36.956Z</time>
      </trkpt>
      <trkpt lat="52.9641" lon="5.87067">
        <ele>48.595568</ele>
        <time>2024-07-07T08:51:39.957Z</time>
      </trkpt>
      <trkpt lat="52.96419" lon="5.87063">
        <ele>48.634151</ele>
        <time>2024-07-07T08:51:42.963Z</time>
      </trkpt>
      <trkpt lat="52.96429" lon="5.87057">
        <ele>48.680861</ele>
        <time>2024-07-07T08:51:46.950Z</time>
      </trkpt>
      <trkpt lat="52.9644" lon="5.87056">
        <ele>48.726752</ele>
        <time>2024-07-07T08:51:50.929Z</time>
      </trkpt>
      <trkpt lat="52.96449" lon="5.87052">
        <ele>48.765533</ele>
        <time>2024-07-07T08:51:53.921Z</time>
      </trkpt>
      <trkpt lat="52.96458" lon="5.87048">
        <ele>48.804854</ele>
        <time>2024-07-07T08:51:56.936Z</time>
      </trkpt>
      <trkpt lat="52.96468" lon="5.87045">
        <ele>48.847016</ele>
        <time>2024-07-07T08:51:59.941Z</time>
      </trkpt>
      <trkpt lat="52.9648" lon="5.87041">
        <ele>48.898591</ele>
        <time>2024-07-07T08:52:02.934Z</time>
      </trkpt>
      <trkpt lat="52.96493" lon="5.87037">
        <ele>48.953982</ele>
        <time>2024-07-07T08:52:05.937Z</time>
      </trkpt>
      <trkpt lat="52.965" lon="5.87033">
        <ele>48.965785</ele>
        <time>2024-07-07T08:52:13.671Z</time>
      </trkpt>
      <trkpt lat="52.96509" lon="5.8703">
        <ele>48.757565</ele>
        <time>2024-07-07T08:53:15.952Z</time>
      </trkpt>
      <trkpt lat="52.96519" lon="5.87027">
        <ele>48.549613</ele>
        <time>2024-07-07T08:53:19.930Z</time>
      </trkpt>
      <trkpt lat="52.9653" lon="5.87023">
        <ele>48.308418</ele>
        <time>2024-07-07T08:53:22.958Z</time>
      </trkpt>
      <trkpt lat="52.96542" lon="5.87018">
        <ele>48.029324</ele>
        <time>2024-07-07T08:53:25.957Z</time>
      </trkpt>
      <trkpt lat="52.96552" lon="5.87014">
        <ele>47.817726</ele>
        <time>2024-07-07T08:53:27.919Z</time>
      </trkpt>
      <trkpt lat="52.96563" lon="5.8701">
        <ele>47.581009</ele>
        <time>2024-07-07T08:53:29.944Z</time>
      </trkpt>
      <trkpt lat="52.96574" lon="5.87005">
        <ele>47.333749</ele>
        <time>2024-07-07T08:53:31.956Z</time>
      </trkpt>
      <trkpt lat="52.96585" lon="5.87002">
        <ele>47.077244</ele>
        <time>2024-07-07T08:53:33.942Z</time>
      </trkpt>
      <trkpt lat="52.96597" lon="5.86997">
        <ele>46.811761</ele>
        <time>2024-07-07T08:53:35.930Z</time>
      </trkpt>
      <trkpt lat="52.9661" lon="5.86993">
        <ele>46.524397</ele>
        <time>2024-07-07T08:53:37.952Z</time>
      </trkpt>
      <trkpt lat="52.96624" lon="5.86988">
        <ele>46.225656</ele>
        <time>2024-07-07T08:53:39.948Z</time>
      </trkpt>
      <trkpt lat="52.96638" lon="5.86983">
        <ele>45.92452</ele>
        <time>2024-07-07T08:53:41.948Z</time>
      </trkpt>
      <trkpt lat="52.96651" lon="5.86978">
        <ele>45.626083</ele>
        <time>2024-07-07T08:53:43.939Z</time>
      </trkpt>
      <trkpt lat="52.96665" lon="5.86974">
        <ele>45.321757</ele>
        <time>2024-07-07T08:53:45.957Z</time>
      </trkpt>
      <trkpt lat="52.96678" lon="5.8697">
        <ele>45.088491</ele>
        <time>2024-07-07T08:53:47.939Z</time>
      </trkpt>
      <trkpt lat="52.96691" lon="5.86967">
        <ele>45.014794</ele>
        <time>2024-07-07T08:53:49.955Z</time>
      </trkpt>
      <trkpt lat="52.96705" lon="5.86964">
        <ele>44.938188</ele>
        <time>2024-07-07T08:53:51.948Z</time>
      </trkpt>
      <trkpt lat="52.96718" lon="5.8696">
        <ele>44.863624</ele>
        <time>2024-07-07T08:53:53.948Z</time>
      </trkpt>
      <trkpt lat="52.96732" lon="5.86955">
        <ele>44.788686</ele>
        <time>2024-07-07T08:53:55.939Z</time>
      </trkpt>
      <trkpt lat="52.96745" lon="5.86953">
        <ele>44.714256</ele>
        <time>2024-07-07T08:53:57.958Z</time>
      </trkpt>
      <trkpt lat="52.96759" lon="5.86949">
        <ele>44.638241</ele>
        <time>2024-07-07T08:53:59.938Z</time>
      </trkpt>
      <trkpt lat="52.96772" lon="5.86946">
        <ele>44.565521</ele>
        <time>2024-07-07T08:54:01.961Z</time>
      </trkpt>
      <trkpt lat="52.96785" lon="5.86943">
        <ele>44.493099</ele>
        <time>2024-07-07T08:54:03.951Z</time>
      </trkpt>
      <trkpt lat="52.96798" lon="5.8694">
        <ele>44.422553</ele>
        <time>2024-07-07T08:54:05.935Z</time>
      </trkpt>
      <trkpt lat="52.96811" lon="5.86939">
        <ele>44.350134</ele>
        <time>2024-07-07T08:54:07.944Z</time>
      </trkpt>
      <trkpt lat="52.96824" lon="5.86935">
        <ele>44.279035</ele>
        <time>2024-07-07T08:54:09.939Z</time>
      </trkpt>
      <trkpt lat="52.96837" lon="5.86932">
        <ele>44.207503</ele>
        <time>2024-07-07T08:54:11.957Z</time>
      </trkpt>
      <trkpt lat="52.9685" lon="5.86929">
        <ele>44.137423</ele>
        <time>2024-07-07T08:54:13.960Z</time>
      </trkpt>
      <trkpt lat="52.96863" lon="5.86928">
        <ele>44.107502</ele>
        <time>2024-07-07T08:54:15.953Z</time>
      </trkpt>
      <trkpt lat="52.96876" lon="5.86926">
        <ele>44.09318</ele>
        <time>2024-07-07T08:54:17.944Z</time>
      </trkpt>
      <trkpt lat="52.96889" lon="5.86922">
        <ele>44.07813</ele>
        <time>2024-07-07T08:54:19.953Z</time>
      </trkpt>
      <trkpt lat="52.96902" lon="5.86919">
        <ele>44.063503</ele>
        <time>2024-07-07T08:54:21.942Z</time>
      </trkpt>
      <trkpt lat="52.96915" lon="5.86917">
        <ele>44.048605</ele>
        <time>2024-07-07T08:54:23.972Z</time>
      </trkpt>
      <trkpt lat="52.96927" lon="5.86914">
        <ele>44.034515</ele>
        <time>2024-07-07T08:54:25.955Z</time>
      </trkpt>
      <trkpt lat="52.96939" lon="5.86911">
        <ele>44.020817</ele>
        <time>2024-07-07T08:54:27.942Z</time>
      </trkpt>
      <trkpt lat="52.96952" lon="5.86909">
        <ele>44.006869</ele>
        <time>2024-07-07T08:54:29.956Z</time>
      </trkpt>
      <trkpt lat="52.96963" lon="5.86906">
        <ele>43.993322</ele>
        <time>2024-07-07T08:54:31.940Z</time>
      </trkpt>
      <trkpt lat="52.96975" lon="5.86903">
        <ele>43.979634</ele>
        <time>2024-07-07T08:54:33.946Z</time>
      </trkpt>
      <trkpt lat="52.96987" lon="5.86901">
        <ele>43.966533</ele>
        <time>2024-07-07T08:54:35.957Z</time>
      </trkpt>
      <trkpt lat="52.96998" lon="5.86899">
        <ele>43.953981</ele>
        <time>2024-07-07T08:54:37.948Z</time>
      </trkpt>
      <trkpt lat="52.97009" lon="5.86897">
        <ele>43.941036</ele>
        <time>2024-07-07T08:54:39.960Z</time>
      </trkpt>
      <trkpt lat="52.9702" lon="5.86894">
        <ele>43.928503</ele>
        <time>2024-07-07T08:54:41.947Z</time>
      </trkpt>
      <trkpt lat="52.97031" lon="5.86892">
        <ele>43.916221</ele>
        <time>2024-07-07T08:54:43.956Z</time>
      </trkpt>
      <trkpt lat="52.97042" lon="5.8689">
        <ele>43.965294</ele>
        <time>2024-07-07T08:54:45.944Z</time>
      </trkpt>
      <trkpt lat="52.97052" lon="5.86887">
        <ele>44.01048</ele>
        <time>2024-07-07T08:54:47.939Z</time>
      </trkpt>
      <trkpt lat="52.97063" lon="5.86885">
        <ele>44.058099</ele>
        <time>2024-07-07T08:54:49.951Z</time>
      </trkpt>
      <trkpt lat="52.97072" lon="5.86882">
        <ele>44.101353</ele>
        <time>2024-07-07T08:54:51.952Z</time>
      </trkpt>
      <trkpt lat="52.97083" lon="5.8688">
        <ele>44.148532</ele>
        <time>2024-07-07T08:54:53.958Z</time>
      </trkpt>
      <trkpt lat="52.97093" lon="5.86879">
        <ele>44.194492</ele>
        <time>2024-07-07T08:54:55.940Z</time>
      </trkpt>
      <trkpt lat="52.97103" lon="5.86876">
        <ele>44.238227</ele>
        <time>2024-07-07T08:54:57.956Z</time>
      </trkpt>
      <trkpt lat="52.97113" lon="5.86875">
        <ele>44.284228</ele>
        <time>2024-07-07T08:54:59.948Z</time>
      </trkpt>
      <trkpt lat="52.97124" lon="5.86873">
        <ele>44.331714</ele>
        <time>2024-07-07T08:55:01.953Z</time>
      </trkpt>
      <trkpt lat="52.97134" lon="5.8687">
        <ele>44.377609</ele>
        <time>2024-07-07T08:55:03.939Z</time>
      </trkpt>
      <trkpt lat="52.97144" lon="5.86869">
        <ele>44.423632</ele>
        <time>2024-07-07T08:55:05.957Z</time>
      </trkpt>
      <trkpt lat="52.97155" lon="5.86866">
        <ele>44.471288</ele>
        <time>2024-07-07T08:55:07.962Z</time>
      </trkpt>
      <trkpt lat="52.97165" lon="5.86864">
        <ele>44.518364</ele>
        <time>2024-07-07T08:55:09.949Z</time>
      </trkpt>
      <trkpt lat="52.97177" lon="5.86862">
        <ele>44.568092</ele>
        <time>2024-07-07T08:55:11.940Z</time>
      </trkpt>
      <trkpt lat="52.97187" lon="5.8686">
        <ele>44.616117</ele>
        <time>2024-07-07T08:55:13.948Z</time>
      </trkpt>
      <trkpt lat="52.97198" lon="5.86857">
        <ele>44.664177</ele>
        <time>2024-07-07T08:55:15.945Z</time>
      </trkpt>
      <trkpt lat="52.97209" lon="5.86855">
        <ele>44.711872</ele>
        <time>2024-07-07T08:55:17.948Z</time>
      </trkpt>
      <trkpt lat="52.97219" lon="5.86853">
        <ele>44.800583</ele>
        <time>2024-07-07T08:55:19.942Z</time>
      </trkpt>
      <trkpt lat="52.9723" lon="5.86851">
        <ele>44.89392</ele>
        <time>2024-07-07T08:55:21.944Z</time>
      </trkpt>
      <trkpt lat="52.9724" lon="5.86848">
        <ele>44.986974</ele>
        <time>2024-07-07T08:55:23.936Z</time>
      </trkpt>
      <trkpt lat="52.9725" lon="5.86846">
        <ele>45.07677</ele>
        <time>2024-07-07T08:55:25.945Z</time>
      </trkpt>
      <trkpt lat="52.97261" lon="5.86845">
        <ele>45.17169</ele>
        <time>2024-07-07T08:55:27.951Z</time>
      </trkpt>
      <trkpt lat="52.97272" lon="5.86843">
        <ele>45.26344</ele>
        <time>2024-07-07T08:55:29.942Z</time>
      </trkpt>
      <trkpt lat="52.97282" lon="5.86842">
        <ele>45.352317</ele>
        <time>2024-07-07T08:55:31.954Z</time>
      </trkpt>
      <trkpt lat="52.97292" lon="5.86841">
        <ele>45.441863</ele>
        <time>2024-07-07T08:55:33.944Z</time>
      </trkpt>
      <trkpt lat="52.97302" lon="5.86841">
        <ele>45.528693</ele>
        <time>2024-07-07T08:55:35.939Z</time>
      </trkpt>
      <trkpt lat="52.97311" lon="5.86839">
        <ele>45.610129</ele>
        <time>2024-07-07T08:55:37.942Z</time>
      </trkpt>
      <trkpt lat="52.9732" lon="5.86837">
        <ele>45.690224</ele>
        <time>2024-07-07T08:55:39.943Z</time>
      </trkpt>
      <trkpt lat="52.97329" lon="5.86836">
        <ele>45.772214</ele>
        <time>2024-07-07T08:55:41.957Z</time>
      </trkpt>
      <trkpt lat="52.97342" lon="5.86833">
        <ele>45.886369</ele>
        <time>2024-07-07T08:55:44.971Z</time>
      </trkpt>
      <trkpt lat="52.97355" lon="5.86832">
        <ele>45.998825</ele>
        <time>2024-07-07T08:55:47.957Z</time>
      </trkpt>
      <trkpt lat="52.97367" lon="5.86831">
        <ele>46.105915</ele>
        <time>2024-07-07T08:55:50.956Z</time>
      </trkpt>
      <trkpt lat="52.97379" lon="5.86825">
        <ele>46.213957</ele>
        <time>2024-07-07T08:55:53.926Z</time>
      </trkpt>
      <trkpt lat="52.9739" lon="5.86822">
        <ele>46.294627</ele>
        <time>2024-07-07T08:55:56.942Z</time>
      </trkpt>
      <trkpt lat="52.97401" lon="5.8682">
        <ele>46.29757</ele>
        <time>2024-07-07T08:55:59.948Z</time>
      </trkpt>
      <trkpt lat="52.97413" lon="5.86818">
        <ele>46.300545</ele>
        <time>2024-07-07T08:56:02.940Z</time>
      </trkpt>
      <trkpt lat="52.97424" lon="5.86816">
        <ele>46.303577</ele>
        <time>2024-07-07T08:56:05.942Z</time>
      </trkpt>
      <trkpt lat="52.97436" lon="5.86813">
        <ele>46.306617</ele>
        <time>2024-07-07T08:56:08.940Z</time>
      </trkpt>
      <trkpt lat="52.97448" lon="5.8681">
        <ele>46.309755</ele>
        <time>2024-07-07T08:56:11.939Z</time>
      </trkpt>
      <trkpt lat="52.9746" lon="5.86808">
        <ele>46.31305</ele>
        <time>2024-07-07T08:56:14.943Z</time>
      </trkpt>
      <trkpt lat="52.97473" lon="5.86805">
        <ele>46.31644</ele>
        <time>2024-07-07T08:56:17.938Z</time>
      </trkpt>
      <trkpt lat="52.97486" lon="5.86802">
        <ele>46.319785</ele>
        <time>2024-07-07T08:56:20.942Z</time>
      </trkpt>
      <trkpt lat="52.97499" lon="5.86799">
        <ele>46.32337</ele>
        <time>2024-07-07T08:56:23.938Z</time>
      </trkpt>
      <trkpt lat="52.97508" lon="5.86797">
        <ele>46.325738</ele>
        <time>2024-07-07T08:56:25.943Z</time>
      </trkpt>
      <trkpt lat="52.97521" lon="5.86795">
        <ele>46.32918</ele>
        <time>2024-07-07T08:56:28.928Z</time>
      </trkpt>
      <trkpt lat="52.97534" lon="5.86792">
        <ele>46.332599</ele>
        <time>2024-07-07T08:56:31.956Z</time>
      </trkpt>
      <trkpt lat="52.97547" lon="5.8679">
        <ele>46.336</ele>
        <time>2024-07-07T08:56:34.939Z</time>
      </trkpt>
      <trkpt lat="52.97559" lon="5.86786">
        <ele>46.339231</ele>
        <time>2024-07-07T08:56:37.961Z</time>
      </trkpt>
      <trkpt lat="52.97572" lon="5.86782">
        <ele>46.354006</ele>
        <time>2024-07-07T08:56:40.939Z</time>
      </trkpt>
      <trkpt lat="52.97585" lon="5.8678">
        <ele>46.383895</ele>
        <time>2024-07-07T08:56:43.939Z</time>
      </trkpt>
      <trkpt lat="52.97598" lon="5.86778">
        <ele>46.41502</ele>
        <time>2024-07-07T08:56:46.959Z</time>
      </trkpt>
      <trkpt lat="52.97611" lon="5.86775">
        <ele>46.44402</ele>
        <time>2024-07-07T08:56:49.941Z</time>
      </trkpt>
      <trkpt lat="52.97624" lon="5.86771">
        <ele>46.474003</ele>
        <time>2024-07-07T08:56:52.957Z</time>
      </trkpt>
      <trkpt lat="52.97636" lon="5.86768">
        <ele>46.502802</ele>
        <time>2024-07-07T08:56:55.942Z</time>
      </trkpt>
      <trkpt lat="52.9765" lon="5.86765">
        <ele>46.534648</ele>
        <time>2024-07-07T08:56:58.941Z</time>
      </trkpt>
      <trkpt lat="52.97659" lon="5.86763">
        <ele>46.556681</ele>
        <time>2024-07-07T08:57:00.919Z</time>
      </trkpt>
      <trkpt lat="52.97668" lon="5.86762">
        <ele>46.577742</ele>
        <time>2024-07-07T08:57:02.941Z</time>
      </trkpt>
      <trkpt lat="52.97677" lon="5.8676">
        <ele>46.599423</ele>
        <time>2024-07-07T08:57:04.960Z</time>
      </trkpt>
      <trkpt lat="52.97687" lon="5.86758">
        <ele>46.621241</ele>
        <time>2024-07-07T08:57:06.943Z</time>
      </trkpt>
      <trkpt lat="52.977" lon="5.86753">
        <ele>46.652116</ele>
        <time>2024-07-07T08:57:09.945Z</time>
      </trkpt>
      <trkpt lat="52.97712" lon="5.86748">
        <ele>46.680902</ele>
        <time>2024-07-07T08:57:12.940Z</time>
      </trkpt>
      <trkpt lat="52.97723" lon="5.86748">
        <ele>46.706267</ele>
        <time>2024-07-07T08:57:15.934Z</time>
      </trkpt>
      <trkpt lat="52.97731" lon="5.86735">
        <ele>46.731846</ele>
        <time>2024-07-07T08:57:20.935Z</time>
      </trkpt>
      <trkpt lat="52.97741" lon="5.8673">
        <ele>46.754308</ele>
        <time>2024-07-07T08:57:25.940Z</time>
      </trkpt>
      <trkpt lat="52.97752" lon="5.8673">
        <ele>46.731765</ele>
        <time>2024-07-07T08:57:29.941Z</time>
      </trkpt>
      <trkpt lat="52.97761" lon="5.86732">
        <ele>46.71182</ele>
        <time>2024-07-07T08:57:32.938Z</time>
      </trkpt>
      <trkpt lat="52.9777" lon="5.8673">
        <ele>46.690381</ele>
        <time>2024-07-07T08:57:35.943Z</time>
      </trkpt>
      <trkpt lat="52.9778" lon="5.86728">
        <ele>46.669592</ele>
        <time>2024-07-07T08:57:38.951Z</time>
      </trkpt>
      <trkpt lat="52.97791" lon="5.86726">
        <ele>46.645551</ele>
        <time>2024-07-07T08:57:42.943Z</time>
      </trkpt>
      <trkpt lat="52.97801" lon="5.86723">
        <ele>46.622178</ele>
        <time>2024-07-07T08:57:46.944Z</time>
      </trkpt>
      <trkpt lat="52.97811" lon="5.86721">
        <ele>46.600739</ele>
        <time>2024-07-07T08:57:50.943Z</time>
      </trkpt>
      <trkpt lat="52.9782" lon="5.86719">
        <ele>46.580853</ele>
        <time>2024-07-07T08:57:54.955Z</time>
      </trkpt>
      <trkpt lat="52.97831" lon="5.86717">
        <ele>46.555959</ele>
        <time>2024-07-07T08:57:58.948Z</time>
      </trkpt>
      <trkpt lat="52.97841" lon="5.86714">
        <ele>46.53387</ele>
        <time>2024-07-07T08:58:01.943Z</time>
      </trkpt>
      <trkpt lat="52.97852" lon="5.86712">
        <ele>46.510426</ele>
        <time>2024-07-07T08:58:04.940Z</time>
      </trkpt>
      <trkpt lat="52.97863" lon="5.8671">
        <ele>46.487125</ele>
        <time>2024-07-07T08:58:07.943Z</time>
      </trkpt>
      <trkpt lat="52.97873" lon="5.86708">
        <ele>46.46445</ele>
        <time>2024-07-07T08:58:10.951Z</time>
      </trkpt>
      <trkpt lat="52.97884" lon="5.86705">
        <ele>46.440728</ele>
        <time>2024-07-07T08:58:13.945Z</time>
      </trkpt>
      <trkpt lat="52.97895" lon="5.86703">
        <ele>46.416436</ele>
        <time>2024-07-07T08:58:16.958Z</time>
      </trkpt>
      <trkpt lat="52.97906" lon="5.86701">
        <ele>46.390508</ele>
        <time>2024-07-07T08:58:19.944Z</time>
      </trkpt>
      <trkpt lat="52.97918" lon="5.86698">
        <ele>46.364192</ele>
        <time>2024-07-07T08:58:22.946Z</time>
      </trkpt>
      <trkpt lat="52.97929" lon="5.86695">
        <ele>46.299768</ele>
        <time>2024-07-07T08:58:25.944Z</time>
      </trkpt>
      <trkpt lat="52.9794" lon="5.86693">
        <ele>46.234147</ele>
        <time>2024-07-07T08:58:28.941Z</time>
      </trkpt>
      <trkpt lat="52.97953" lon="5.86691">
        <ele>46.159893</ele>
        <time>2024-07-07T08:58:31.955Z</time>
      </trkpt>
      <trkpt lat="52.97965" lon="5.86688">
        <ele>46.084568</ele>
        <time>2024-07-07T08:58:34.956Z</time>
      </trkpt>
      <trkpt lat="52.97977" lon="5.86685">
        <ele>46.014663</ele>
        <time>2024-07-07T08:58:37.945Z</time>
      </trkpt>
      <trkpt lat="52.97989" lon="5.86683">
        <ele>45.939052</ele>
        <time>2024-07-07T08:58:40.958Z</time>
      </trkpt>
      <trkpt lat="52.98002" lon="5.8668">
        <ele>45.864751</ele>
        <time>2024-07-07T08:58:43.951Z</time>
      </trkpt>
      <trkpt lat="52.98014" lon="5.86676">
        <ele>45.790214</ele>
        <time>2024-07-07T08:58:46.959Z</time>
      </trkpt>
      <trkpt lat="52.98023" lon="5.86675">
        <ele>45.734336</ele>
        <time>2024-07-07T08:58:48.934Z</time>
      </trkpt>
      <trkpt lat="52.98033" lon="5.86673">
        <ele>45.67905</ele>
        <time>2024-07-07T08:58:50.960Z</time>
      </trkpt>
      <trkpt lat="52.98042" lon="5.86672">
        <ele>45.625136</ele>
        <time>2024-07-07T08:58:52.943Z</time>
      </trkpt>
      <trkpt lat="52.98051" lon="5.86669">
        <ele>45.569714</ele>
        <time>2024-07-07T08:58:54.945Z</time>
      </trkpt>
      <trkpt lat="52.9806" lon="5.86667">
        <ele>45.512956</ele>
        <time>2024-07-07T08:58:56.946Z</time>
      </trkpt>
      <trkpt lat="52.9807" lon="5.86665">
        <ele>45.4553</ele>
        <time>2024-07-07T08:58:58.946Z</time>
      </trkpt>
      <trkpt lat="52.9808" lon="5.86663">
        <ele>45.396416</ele>
        <time>2024-07-07T08:59:00.941Z</time>
      </trkpt>
      <trkpt lat="52.9809" lon="5.86661">
        <ele>45.335474</ele>
        <time>2024-07-07T08:59:02.937Z</time>
      </trkpt>
      <trkpt lat="52.981" lon="5.86659">
        <ele>45.297409</ele>
        <time>2024-07-07T08:59:04.943Z</time>
      </trkpt>
      <trkpt lat="52.9811" lon="5.86657">
        <ele>45.331637</ele>
        <time>2024-07-07T08:59:06.943Z</time>
      </trkpt>
      <trkpt lat="52.9812" lon="5.86655">
        <ele>45.363834</ele>
        <time>2024-07-07T08:59:08.934Z</time>
      </trkpt>
      <trkpt lat="52.98129" lon="5.86652">
        <ele>45.395067</ele>
        <time>2024-07-07T08:59:10.955Z</time>
      </trkpt>
      <trkpt lat="52.98139" lon="5.86651">
        <ele>45.428209</ele>
        <time>2024-07-07T08:59:12.940Z</time>
      </trkpt>
      <trkpt lat="52.98149" lon="5.86648">
        <ele>45.461924</ele>
        <time>2024-07-07T08:59:14.960Z</time>
      </trkpt>
      <trkpt lat="52.98159" lon="5.86645">
        <ele>45.495085</ele>
        <time>2024-07-07T08:59:16.941Z</time>
      </trkpt>
      <trkpt lat="52.98169" lon="5.86642">
        <ele>45.530055</ele>
        <time>2024-07-07T08:59:18.929Z</time>
      </trkpt>
      <trkpt lat="52.98179" lon="5.8664">
        <ele>45.56398</ele>
        <time>2024-07-07T08:59:20.959Z</time>
      </trkpt>
      <trkpt lat="52.98189" lon="5.86638">
        <ele>45.597144</ele>
        <time>2024-07-07T08:59:22.948Z</time>
      </trkpt>
      <trkpt lat="52.982" lon="5.86636">
        <ele>45.63194</ele>
        <time>2024-07-07T08:59:24.951Z</time>
      </trkpt>
      <trkpt lat="52.9821" lon="5.86635">
        <ele>45.666406</ele>
        <time>2024-07-07T08:59:26.943Z</time>
      </trkpt>
      <trkpt lat="52.9822" lon="5.86632">
        <ele>45.700449</ele>
        <time>2024-07-07T08:59:28.924Z</time>
      </trkpt>
      <trkpt lat="52.9823" lon="5.8663">
        <ele>45.734017</ele>
        <time>2024-07-07T08:59:30.943Z</time>
      </trkpt>
      <trkpt lat="52.9824" lon="5.86628">
        <ele>45.768756</ele>
        <time>2024-07-07T08:59:32.939Z</time>
      </trkpt>
      <trkpt lat="52.9825" lon="5.86626">
        <ele>45.801721</ele>
        <time>2024-07-07T08:59:34.942Z</time>
      </trkpt>
      <trkpt lat="52.9826" lon="5.86624">
        <ele>45.834657</ele>
        <time>2024-07-07T08:59:36.936Z</time>
      </trkpt>
      <trkpt lat="52.9827" lon="5.86621">
        <ele>45.867951</ele>
        <time>2024-07-07T08:59:38.940Z</time>
      </trkpt>
      <trkpt lat="52.9828" lon="5.86619">
        <ele>45.898347</ele>
        <time>2024-07-07T08:59:40.938Z</time>
      </trkpt>
      <trkpt lat="52.9829" lon="5.86616">
        <ele>45.922551</ele>
        <time>2024-07-07T08:59:42.956Z</time>
      </trkpt>
      <trkpt lat="52.983" lon="5.86614">
        <ele>45.946734</ele>
        <time>2024-07-07T08:59:44.938Z</time>
      </trkpt>
      <trkpt lat="52.9831" lon="5.86612">
        <ele>45.971223</ele>
        <time>2024-07-07T08:59:46.950Z</time>
      </trkpt>
      <trkpt lat="52.9832" lon="5.8661">
        <ele>45.995805</ele>
        <time>2024-07-07T08:59:48.960Z</time>
      </trkpt>
      <trkpt lat="52.98329" lon="5.86607">
        <ele>46.019186</ele>
        <time>2024-07-07T08:59:50.953Z</time>
      </trkpt>
      <trkpt lat="52.98338" lon="5.86605">
        <ele>46.041895</ele>
        <time>2024-07-07T08:59:52.939Z</time>
      </trkpt>
      <trkpt lat="52.98347" lon="5.86602">
        <ele>46.064528</ele>
        <time>2024-07-07T08:59:54.961Z</time>
      </trkpt>
      <trkpt lat="52.98356" lon="5.86598">
        <ele>46.087676</ele>
        <time>2024-07-07T08:59:56.935Z</time>
      </trkpt>
      <trkpt lat="52.98366" lon="5.86594">
        <ele>46.111133</ele>
        <time>2024-07-07T08:59:58.943Z</time>
      </trkpt>
      <trkpt lat="52.98379" lon="5.86589">
        <ele>46.145196</ele>
        <time>2024-07-07T09:00:01.947Z</time>
      </trkpt>
      <trkpt lat="52.98389" lon="5.86585">
        <ele>46.168884</ele>
        <time>2024-07-07T09:00:03.951Z</time>
      </trkpt>
      <trkpt lat="52.98398" lon="5.86582">
        <ele>46.192265</ele>
        <time>2024-07-07T09:00:05.947Z</time>
      </trkpt>
      <trkpt lat="52.98407" lon="5.86579">
        <ele>46.214364</ele>
        <time>2024-07-07T09:00:07.940Z</time>
      </trkpt>
      <trkpt lat="52.98416" lon="5.86577">
        <ele>46.237264</ele>
        <time>2024-07-07T09:00:09.957Z</time>
      </trkpt>
      <trkpt lat="52.98426" lon="5.86574">
        <ele>46.260458</ele>
        <time>2024-07-07T09:00:11.962Z</time>
      </trkpt>
      <trkpt lat="52.98435" lon="5.86572">
        <ele>46.28438</ele>
        <time>2024-07-07T09:00:13.942Z</time>
      </trkpt>
      <trkpt lat="52.98444" lon="5.8657">
        <ele>46.307012</ele>
        <time>2024-07-07T09:00:15.939Z</time>
      </trkpt>
      <trkpt lat="52.98454" lon="5.86568">
        <ele>46.323683</ele>
        <time>2024-07-07T09:00:17.971Z</time>
      </trkpt>
      <trkpt lat="52.98463" lon="5.86566">
        <ele>46.293695</ele>
        <time>2024-07-07T09:00:19.963Z</time>
      </trkpt>
      <trkpt lat="52.98473" lon="5.86564">
        <ele>46.264631</ele>
        <time>2024-07-07T09:00:21.945Z</time>
      </trkpt>
      <trkpt lat="52.98482" lon="5.86562">
        <ele>46.235567</ele>
        <time>2024-07-07T09:00:23.943Z</time>
      </trkpt>
      <trkpt lat="52.98492" lon="5.8656">
        <ele>46.204325</ele>
        <time>2024-07-07T09:00:25.954Z</time>
      </trkpt>
      <trkpt lat="52.98501" lon="5.86557">
        <ele>46.174295</ele>
        <time>2024-07-07T09:00:27.960Z</time>
      </trkpt>
      <trkpt lat="52.98511" lon="5.86556">
        <ele>46.143801</ele>
        <time>2024-07-07T09:00:29.946Z</time>
      </trkpt>
      <trkpt lat="52.98521" lon="5.86554">
        <ele>46.112794</ele>
        <time>2024-07-07T09:00:31.939Z</time>
      </trkpt>
      <trkpt lat="52.98531" lon="5.86552">
        <ele>46.081529</ele>
        <time>2024-07-07T09:00:33.943Z</time>
      </trkpt>
      <trkpt lat="52.98541" lon="5.8655">
        <ele>46.05033</ele>
        <time>2024-07-07T09:00:35.940Z</time>
      </trkpt>
      <trkpt lat="52.98551" lon="5.86548">
        <ele>46.019631</ele>
        <time>2024-07-07T09:00:37.948Z</time>
      </trkpt>
      <trkpt lat="52.98561" lon="5.86547">
        <ele>45.989485</ele>
        <time>2024-07-07T09:00:39.947Z</time>
      </trkpt>
      <trkpt lat="52.98571" lon="5.86544">
        <ele>45.95766</ele>
        <time>2024-07-07T09:00:41.962Z</time>
      </trkpt>
      <trkpt lat="52.9858" lon="5.86542">
        <ele>45.928061</ele>
        <time>2024-07-07T09:00:43.944Z</time>
      </trkpt>
      <trkpt lat="52.9859" lon="5.8654">
        <ele>45.896819</ele>
        <time>2024-07-07T09:00:45.954Z</time>
      </trkpt>
      <trkpt lat="52.986" lon="5.86538">
        <ele>45.865269</ele>
        <time>2024-07-07T09:00:47.952Z</time>
      </trkpt>
      <trkpt lat="52.9861" lon="5.86536">
        <ele>45.83407</ele>
        <time>2024-07-07T09:00:49.951Z</time>
      </trkpt>
      <trkpt lat="52.9862" lon="5.86535">
        <ele>45.802908</ele>
        <time>2024-07-07T09:00:51.943Z</time>
      </trkpt>
      <trkpt lat="52.9863" lon="5.86533">
        <ele>45.772089</ele>
        <time>2024-07-07T09:00:53.946Z</time>
      </trkpt>
      <trkpt lat="52.9864" lon="5.86531">
        <ele>45.746672</ele>
        <time>2024-07-07T09:00:55.942Z</time>
      </trkpt>
      <trkpt lat="52.9865" lon="5.86529">
        <ele>45.72238</ele>
        <time>2024-07-07T09:00:57.925Z</time>
      </trkpt>
      <trkpt lat="52.9866" lon="5.86527">
        <ele>45.699386</ele>
        <time>2024-07-07T09:00:59.946Z</time>
      </trkpt>
      <trkpt lat="52.9867" lon="5.86525">
        <ele>45.675313</ele>
        <time>2024-07-07T09:01:01.945Z</time>
      </trkpt>
      <trkpt lat="52.9868" lon="5.86522">
        <ele>45.651604</ele>
        <time>2024-07-07T09:01:03.942Z</time>
      </trkpt>
      <trkpt lat="52.9869" lon="5.8652">
        <ele>45.626375</ele>
        <time>2024-07-07T09:01:05.947Z</time>
      </trkpt>
      <trkpt lat="52.987" lon="5.86517">
        <ele>45.601546</ele>
        <time>2024-07-07T09:01:07.946Z</time>
      </trkpt>
      <trkpt lat="52.98711" lon="5.86515">
        <ele>45.576111</ele>
        <time>2024-07-07T09:01:09.942Z</time>
      </trkpt>
      <trkpt lat="52.98721" lon="5.86513">
        <ele>45.550625</ele>
        <time>2024-07-07T09:01:11.953Z</time>
      </trkpt>
      <trkpt lat="52.98731" lon="5.86511">
        <ele>45.525652</ele>
        <time>2024-07-07T09:01:13.954Z</time>
      </trkpt>
      <trkpt lat="52.98742" lon="5.86509">
        <ele>45.500644</ele>
        <time>2024-07-07T09:01:15.941Z</time>
      </trkpt>
      <trkpt lat="52.98752" lon="5.86507">
        <ele>45.474643</ele>
        <time>2024-07-07T09:01:17.956Z</time>
      </trkpt>
      <trkpt lat="52.98763" lon="5.86504">
        <ele>45.448602</ele>
        <time>2024-07-07T09:01:19.940Z</time>
      </trkpt>
      <trkpt lat="52.98774" lon="5.86502">
        <ele>45.422224</ele>
        <time>2024-07-07T09:01:21.953Z</time>
      </trkpt>
      <trkpt lat="52.98785" lon="5.865">
        <ele>45.395047</ele>
        <time>2024-07-07T09:01:23.943Z</time>
      </trkpt>
      <trkpt lat="52.98796" lon="5.86498">
        <ele>45.369642</ele>
        <time>2024-07-07T09:01:25.948Z</time>
      </trkpt>
      <trkpt lat="52.98806" lon="5.86495">
        <ele>45.34351</ele>
        <time>2024-07-07T09:01:27.940Z</time>
      </trkpt>
      <trkpt lat="52.98817" lon="5.86493">
        <ele>45.354937</ele>
        <time>2024-07-07T09:01:29.942Z</time>
      </trkpt>
      <trkpt lat="52.98828" lon="5.86491">
        <ele>45.38036</ele>
        <time>2024-07-07T09:01:31.947Z</time>
      </trkpt>
      <trkpt lat="52.98839" lon="5.8649">
        <ele>45.407382</ele>
        <time>2024-07-07T09:01:33.934Z</time>
      </trkpt>
      <trkpt lat="52.9885" lon="5.86487">
        <ele>45.433525</ele>
        <time>2024-07-07T09:01:35.943Z</time>
      </trkpt>
      <trkpt lat="52.98861" lon="5.86486">
        <ele>45.459358</ele>
        <time>2024-07-07T09:01:37.943Z</time>
      </trkpt>
      <trkpt lat="52.98872" lon="5.86483">
        <ele>45.484583</ele>
        <time>2024-07-07T09:01:39.951Z</time>
      </trkpt>
      <trkpt lat="52.98883" lon="5.86481">
        <ele>45.51123</ele>
        <time>2024-07-07T09:01:41.936Z</time>
      </trkpt>
      <trkpt lat="52.98894" lon="5.86478">
        <ele>45.536259</ele>
        <time>2024-07-07T09:01:43.947Z</time>
      </trkpt>
      <trkpt lat="52.98904" lon="5.86476">
        <ele>45.561917</ele>
        <time>2024-07-07T09:01:45.951Z</time>
      </trkpt>
      <trkpt lat="52.98915" lon="5.86474">
        <ele>45.586946</ele>
        <time>2024-07-07T09:01:47.951Z</time>
      </trkpt>
      <trkpt lat="52.98926" lon="5.86472">
        <ele>45.612338</ele>
        <time>2024-07-07T09:01:49.946Z</time>
      </trkpt>
      <trkpt lat="52.98936" lon="5.8647">
        <ele>45.637563</ele>
        <time>2024-07-07T09:01:51.948Z</time>
      </trkpt>
      <trkpt lat="52.98947" lon="5.86468">
        <ele>45.663439</ele>
        <time>2024-07-07T09:01:53.943Z</time>
      </trkpt>
      <trkpt lat="52.98958" lon="5.86466">
        <ele>45.68977</ele>
        <time>2024-07-07T09:01:55.956Z</time>
      </trkpt>
      <trkpt lat="52.98969" lon="5.86463">
        <ele>45.716241</ele>
        <time>2024-07-07T09:01:57.935Z</time>
      </trkpt>
      <trkpt lat="52.98979" lon="5.86461">
        <ele>45.740316</ele>
        <time>2024-07-07T09:01:59.945Z</time>
      </trkpt>
      <trkpt lat="52.98991" lon="5.86458">
        <ele>45.772069</ele>
        <time>2024-07-07T09:02:01.941Z</time>
      </trkpt>
      <trkpt lat="52.99002" lon="5.86456">
        <ele>45.821177</ele>
        <time>2024-07-07T09:02:03.946Z</time>
      </trkpt>
      <trkpt lat="52.99012" lon="5.86454">
        <ele>45.867176</ele>
        <time>2024-07-07T09:02:05.949Z</time>
      </trkpt>
      <trkpt lat="52.99022" lon="5.86451">
        <ele>45.914527</ele>
        <time>2024-07-07T09:02:07.944Z</time>
      </trkpt>
      <trkpt lat="52.99033" lon="5.86449">
        <ele>45.961811</ele>
        <time>2024-07-07T09:02:09.943Z</time>
      </trkpt>
      <trkpt lat="52.99044" lon="5.86448">
        <ele>46.01033</ele>
        <time>2024-07-07T09:02:11.947Z</time>
      </trkpt>
      <trkpt lat="52.99055" lon="5.86445">
        <ele>46.06035</ele>
        <time>2024-07-07T09:02:13.937Z</time>
      </trkpt>
      <trkpt lat="52.99066" lon="5.86443">
        <ele>46.10825</ele>
        <time>2024-07-07T09:02:15.940Z</time>
      </trkpt>
      <trkpt lat="52.99076" lon="5.8644">
        <ele>46.1556</ele>
        <time>2024-07-07T09:02:17.939Z</time>
      </trkpt>
      <trkpt lat="52.99087" lon="5.86438">
        <ele>46.202797</ele>
        <time>2024-07-07T09:02:19.943Z</time>
      </trkpt>
      <trkpt lat="52.99098" lon="5.86436">
        <ele>46.250587</ele>
        <time>2024-07-07T09:02:21.944Z</time>
      </trkpt>
      <trkpt lat="52.99108" lon="5.86434">
        <ele>46.298343</ele>
        <time>2024-07-07T09:02:23.948Z</time>
      </trkpt>
      <trkpt lat="52.99119" lon="5.86432">
        <ele>46.346539</ele>
        <time>2024-07-07T09:02:25.952Z</time>
      </trkpt>
      <trkpt lat="52.9913" lon="5.86429">
        <ele>46.394998</ele>
        <time>2024-07-07T09:02:27.956Z</time>
      </trkpt>
      <trkpt lat="52.9914" lon="5.86427">
        <ele>46.441436</ele>
        <time>2024-07-07T09:02:29.948Z</time>
      </trkpt>
      <trkpt lat="52.99151" lon="5.86425">
        <ele>46.48913</ele>
        <time>2024-07-07T09:02:31.941Z</time>
      </trkpt>
      <trkpt lat="52.99161" lon="5.86423">
        <ele>46.534184</ele>
        <time>2024-07-07T09:02:33.960Z</time>
      </trkpt>
      <trkpt lat="52.99172" lon="5.86421">
        <ele>46.549959</ele>
        <time>2024-07-07T09:02:35.954Z</time>
      </trkpt>
      <trkpt lat="52.99182" lon="5.86418">
        <ele>46.53518</ele>
        <time>2024-07-07T09:02:37.934Z</time>
      </trkpt>
      <trkpt lat="52.99193" lon="5.86416">
        <ele>46.520506</ele>
        <time>2024-07-07T09:02:39.935Z</time>
      </trkpt>
      <trkpt lat="52.99203" lon="5.86414">
        <ele>46.505851</ele>
        <time>2024-07-07T09:02:41.943Z</time>
      </trkpt>
      <trkpt lat="52.99214" lon="5.86412">
        <ele>46.491727</ele>
        <time>2024-07-07T09:02:43.938Z</time>
      </trkpt>
      <trkpt lat="52.99224" lon="5.8641">
        <ele>46.477245</ele>
        <time>2024-07-07T09:02:45.939Z</time>
      </trkpt>
      <trkpt lat="52.99235" lon="5.86408">
        <ele>46.462685</ele>
        <time>2024-07-07T09:02:47.942Z</time>
      </trkpt>
      <trkpt lat="52.99245" lon="5.86405">
        <ele>46.44803</ele>
        <time>2024-07-07T09:02:49.943Z</time>
      </trkpt>
      <trkpt lat="52.99255" lon="5.86403">
        <ele>46.434504</ele>
        <time>2024-07-07T09:02:51.952Z</time>
      </trkpt>
      <trkpt lat="52.99265" lon="5.86402">
        <ele>46.420419</ele>
        <time>2024-07-07T09:02:53.959Z</time>
      </trkpt>
      <trkpt lat="52.99275" lon="5.86401">
        <ele>46.406577</ele>
        <time>2024-07-07T09:02:55.943Z</time>
      </trkpt>
      <trkpt lat="52.99285" lon="5.86398">
        <ele>46.391969</ele>
        <time>2024-07-07T09:02:57.942Z</time>
      </trkpt>
      <trkpt lat="52.99295" lon="5.86398">
        <ele>46.37816</ele>
        <time>2024-07-07T09:02:59.952Z</time>
      </trkpt>
      <trkpt lat="52.99306" lon="5.86396">
        <ele>46.36414</ele>
        <time>2024-07-07T09:03:01.938Z</time>
      </trkpt>
      <trkpt lat="52.99316" lon="5.86393">
        <ele>46.349532</ele>
        <time>2024-07-07T09:03:03.956Z</time>
      </trkpt>
      <trkpt lat="52.99326" lon="5.86392">
        <ele>46.335256</ele>
        <time>2024-07-07T09:03:05.956Z</time>
      </trkpt>
      <trkpt lat="52.99337" lon="5.8639">
        <ele>46.320864</ele>
        <time>2024-07-07T09:03:07.952Z</time>
      </trkpt>
      <trkpt lat="52.99347" lon="5.86388">
        <ele>46.305443</ele>
        <time>2024-07-07T09:03:09.950Z</time>
      </trkpt>
      <trkpt lat="52.99358" lon="5.86387">
        <ele>46.280813</ele>
        <time>2024-07-07T09:03:11.942Z</time>
      </trkpt>
      <trkpt lat="52.99368" lon="5.86385">
        <ele>46.257077</ele>
        <time>2024-07-07T09:03:13.942Z</time>
      </trkpt>
      <trkpt lat="52.99379" lon="5.86384">
        <ele>46.232241</ele>
        <time>2024-07-07T09:03:15.932Z</time>
      </trkpt>
      <trkpt lat="52.99389" lon="5.86382">
        <ele>46.20941</ele>
        <time>2024-07-07T09:03:17.953Z</time>
      </trkpt>
      <trkpt lat="52.994" lon="5.86381">
        <ele>46.185018</ele>
        <time>2024-07-07T09:03:19.942Z</time>
      </trkpt>
      <trkpt lat="52.9941" lon="5.86379">
        <ele>46.160636</ele>
        <time>2024-07-07T09:03:21.951Z</time>
      </trkpt>
      <trkpt lat="52.99421" lon="5.86378">
        <ele>46.135315</ele>
        <time>2024-07-07T09:03:23.938Z</time>
      </trkpt>
      <trkpt lat="52.99432" lon="5.86376">
        <ele>46.111578</ele>
        <time>2024-07-07T09:03:25.937Z</time>
      </trkpt>
      <trkpt lat="52.99443" lon="5.86375">
        <ele>46.086506</ele>
        <time>2024-07-07T09:03:27.958Z</time>
      </trkpt>
      <trkpt lat="52.99453" lon="5.86373">
        <ele>46.062103</ele>
        <time>2024-07-07T09:03:29.950Z</time>
      </trkpt>
      <trkpt lat="52.99464" lon="5.86372">
        <ele>46.03773</ele>
        <time>2024-07-07T09:03:31.937Z</time>
      </trkpt>
      <trkpt lat="52.99475" lon="5.86371">
        <ele>46.013553</ele>
        <time>2024-07-07T09:03:33.945Z</time>
      </trkpt>
      <trkpt lat="52.99486" lon="5.8637">
        <ele>45.988744</ele>
        <time>2024-07-07T09:03:35.955Z</time>
      </trkpt>
      <trkpt lat="52.99497" lon="5.86368">
        <ele>45.963184</ele>
        <time>2024-07-07T09:03:37.942Z</time>
      </trkpt>
      <trkpt lat="52.99508" lon="5.86367">
        <ele>45.938602</ele>
        <time>2024-07-07T09:03:39.939Z</time>
      </trkpt>
      <trkpt lat="52.99518" lon="5.86366">
        <ele>45.914254</ele>
        <time>2024-07-07T09:03:41.952Z</time>
      </trkpt>
      <trkpt lat="52.99529" lon="5.86364">
        <ele>45.946336</ele>
        <time>2024-07-07T09:03:43.945Z</time>
      </trkpt>
      <trkpt lat="52.9954" lon="5.86362">
        <ele>46.047618</ele>
        <time>2024-07-07T09:03:45.954Z</time>
      </trkpt>
      <trkpt lat="52.99551" lon="5.86361">
        <ele>46.145976</ele>
        <time>2024-07-07T09:03:47.942Z</time>
      </trkpt>
      <trkpt lat="52.99561" lon="5.8636">
        <ele>46.238028</ele>
        <time>2024-07-07T09:03:49.956Z</time>
      </trkpt>
      <trkpt lat="52.99571" lon="5.86358">
        <ele>46.329219</ele>
        <time>2024-07-07T09:03:51.937Z</time>
      </trkpt>
      <trkpt lat="52.99581" lon="5.86357">
        <ele>46.421178</ele>
        <time>2024-07-07T09:03:53.940Z</time>
      </trkpt>
      <trkpt lat="52.99591" lon="5.86356">
        <ele>46.510168</ele>
        <time>2024-07-07T09:03:55.938Z</time>
      </trkpt>
      <trkpt lat="52.996" lon="5.86353">
        <ele>46.598528</ele>
        <time>2024-07-07T09:03:57.939Z</time>
      </trkpt>
      <trkpt lat="52.9961" lon="5.86353">
        <ele>46.686602</ele>
        <time>2024-07-07T09:03:59.949Z</time>
      </trkpt>
      <trkpt lat="52.99619" lon="5.86353">
        <ele>46.773699</ele>
        <time>2024-07-07T09:04:01.983Z</time>
      </trkpt>
      <trkpt lat="52.99629" lon="5.86352">
        <ele>46.865512</ele>
        <time>2024-07-07T09:04:03.946Z</time>
      </trkpt>
      <trkpt lat="52.99639" lon="5.8635">
        <ele>46.95944</ele>
        <time>2024-07-07T09:04:05.943Z</time>
      </trkpt>
      <trkpt lat="52.99649" lon="5.86348">
        <ele>47.051329</ele>
        <time>2024-07-07T09:04:07.931Z</time>
      </trkpt>
      <trkpt lat="52.99659" lon="5.86347">
        <ele>47.13582</ele>
        <time>2024-07-07T09:04:09.938Z</time>
      </trkpt>
      <trkpt lat="52.99668" lon="5.86345">
        <ele>47.22691</ele>
        <time>2024-07-07T09:04:11.940Z</time>
      </trkpt>
      <trkpt lat="52.99679" lon="5.86344">
        <ele>47.320698</ele>
        <time>2024-07-07T09:04:13.940Z</time>
      </trkpt>
      <trkpt lat="52.99689" lon="5.86344">
        <ele>47.411486</ele>
        <time>2024-07-07T09:04:15.942Z</time>
      </trkpt>
      <trkpt lat="52.99698" lon="5.86344">
        <ele>47.498581</ele>
        <time>2024-07-07T09:04:17.970Z</time>
      </trkpt>
      <trkpt lat="52.99708" lon="5.86342">
        <ele>47.546336</ele>
        <time>2024-07-07T09:04:19.937Z</time>
      </trkpt>
      <trkpt lat="52.99717" lon="5.8634">
        <ele>47.539377</ele>
        <time>2024-07-07T09:04:21.942Z</time>
      </trkpt>
      <trkpt lat="52.99727" lon="5.8634">
        <ele>47.532363</ele>
        <time>2024-07-07T09:04:23.949Z</time>
      </trkpt>
      <trkpt lat="52.99737" lon="5.86339">
        <ele>47.5252</ele>
        <time>2024-07-07T09:04:25.956Z</time>
      </trkpt>
      <trkpt lat="52.99747" lon="5.86339">
        <ele>47.517968</ele>
        <time>2024-07-07T09:04:27.952Z</time>
      </trkpt>
      <trkpt lat="52.99756" lon="5.86339">
        <ele>47.510811</ele>
        <time>2024-07-07T09:04:29.945Z</time>
      </trkpt>
      <trkpt lat="52.99766" lon="5.86339">
        <ele>47.503503</ele>
        <time>2024-07-07T09:04:31.950Z</time>
      </trkpt>
      <trkpt lat="52.99776" lon="5.86338">
        <ele>47.496271</ele>
        <time>2024-07-07T09:04:33.942Z</time>
      </trkpt>
      <trkpt lat="52.99786" lon="5.86339">
        <ele>47.489031</ele>
        <time>2024-07-07T09:04:35.951Z</time>
      </trkpt>
      <trkpt lat="52.99795" lon="5.8634">
        <ele>47.482237</ele>
        <time>2024-07-07T09:04:37.948Z</time>
      </trkpt>
      <trkpt lat="52.99805" lon="5.8634">
        <ele>47.475516</ele>
        <time>2024-07-07T09:04:39.945Z</time>
      </trkpt>
      <trkpt lat="52.99815" lon="5.8634">
        <ele>47.468285</ele>
        <time>2024-07-07T09:04:41.962Z</time>
      </trkpt>
      <trkpt lat="52.99825" lon="5.86339">
        <ele>47.460906</ele>
        <time>2024-07-07T09:04:43.959Z</time>
      </trkpt>
      <trkpt lat="52.99834" lon="5.86339">
        <ele>47.453969</ele>
        <time>2024-07-07T09:04:45.940Z</time>
      </trkpt>
      <trkpt lat="52.99844" lon="5.86339">
        <ele>47.446958</ele>
        <time>2024-07-07T09:04:47.920Z</time>
      </trkpt>
      <trkpt lat="52.99853" lon="5.8634">
        <ele>47.439945</ele>
        <time>2024-07-07T09:04:49.950Z</time>
      </trkpt>
      <trkpt lat="52.99863" lon="5.86339">
        <ele>47.432928</ele>
        <time>2024-07-07T09:04:51.944Z</time>
      </trkpt>
      <trkpt lat="52.99876" lon="5.86341">
        <ele>47.423332</ele>
        <time>2024-07-07T09:04:54.938Z</time>
      </trkpt>
      <trkpt lat="52.99885" lon="5.86346">
        <ele>47.407704</ele>
        <time>2024-07-07T09:04:56.938Z</time>
      </trkpt>
      <trkpt lat="52.99894" lon="5.86352">
        <ele>47.357995</ele>
        <time>2024-07-07T09:04:58.930Z</time>
      </trkpt>
      <trkpt lat="52.99903" lon="5.86359">
        <ele>47.310175</ele>
        <time>2024-07-07T09:05:00.944Z</time>
      </trkpt>
      <trkpt lat="52.99912" lon="5.86367">
        <ele>47.260808</ele>
        <time>2024-07-07T09:05:02.940Z</time>
      </trkpt>
      <trkpt lat="52.9992" lon="5.86373">
        <ele>47.213393</ele>
        <time>2024-07-07T09:05:04.926Z</time>
      </trkpt>
      <trkpt lat="52.99929" lon="5.86378">
        <ele>47.166495</ele>
        <time>2024-07-07T09:05:06.952Z</time>
      </trkpt>
      <trkpt lat="52.99939" lon="5.86385">
        <ele>47.115065</ele>
        <time>2024-07-07T09:05:08.937Z</time>
      </trkpt>
      <trkpt lat="52.99947" lon="5.86392">
        <ele>47.067738</ele>
        <time>2024-07-07T09:05:10.939Z</time>
      </trkpt>
      <trkpt lat="52.99956" lon="5.86399">
        <ele>47.020234</ele>
        <time>2024-07-07T09:05:12.935Z</time>
      </trkpt>
      <trkpt lat="52.99968" lon="5.86409">
        <ele>46.953775</ele>
        <time>2024-07-07T09:05:15.944Z</time>
      </trkpt>
      <trkpt lat="52.99977" lon="5.86413">
        <ele>46.907302</ele>
        <time>2024-07-07T09:05:17.942Z</time>
      </trkpt>
      <trkpt lat="52.99987" lon="5.86413">
        <ele>46.856704</ele>
        <time>2024-07-07T09:05:19.929Z</time>
      </trkpt>
      <trkpt lat="52.99997" lon="5.8641">
        <ele>46.808406</ele>
        <time>2024-07-07T09:05:21.934Z</time>
      </trkpt>
      <trkpt lat="53.00006" lon="5.86403">
        <ele>46.755947</ele>
        <time>2024-07-07T09:05:23.929Z</time>
      </trkpt>
      <trkpt lat="53.00015" lon="5.86393">
        <ele>46.703879</ele>
        <time>2024-07-07T09:05:25.942Z</time>
      </trkpt>
      <trkpt lat="53.00023" lon="5.86383">
        <ele>46.653247</ele>
        <time>2024-07-07T09:05:27.940Z</time>
      </trkpt>
      <trkpt lat="53.00032" lon="5.86371">
        <ele>46.596776</ele>
        <time>2024-07-07T09:05:29.941Z</time>
      </trkpt>
      <trkpt lat="53.0004" lon="5.86361">
        <ele>46.548114</ele>
        <time>2024-07-07T09:05:31.954Z</time>
      </trkpt>
      <trkpt lat="53.00047" lon="5.8635">
        <ele>46.49703</ele>
        <time>2024-07-07T09:05:33.923Z</time>
      </trkpt>
      <trkpt lat="53.00055" lon="5.86339">
        <ele>46.438496</ele>
        <time>2024-07-07T09:05:35.943Z</time>
      </trkpt>
      <trkpt lat="53.00062" lon="5.86328">
        <ele>46.385728</ele>
        <time>2024-07-07T09:05:37.940Z</time>
      </trkpt>
      <trkpt lat="53.00071" lon="5.86313">
        <ele>46.310679</ele>
        <time>2024-07-07T09:05:40.940Z</time>
      </trkpt>
      <trkpt lat="53.0008" lon="5.86297">
        <ele>46.239503</ele>
        <time>2024-07-07T09:05:43.943Z</time>
      </trkpt>
      <trkpt lat="53.00088" lon="5.8628">
        <ele>46.162953</ele>
        <time>2024-07-07T09:05:46.941Z</time>
      </trkpt>
      <trkpt lat="53.00094" lon="5.86266">
        <ele>46.106946</ele>
        <time>2024-07-07T09:05:48.939Z</time>
      </trkpt>
      <trkpt lat="53.00099" lon="5.86253">
        <ele>46.053951</ele>
        <time>2024-07-07T09:05:50.941Z</time>
      </trkpt>
      <trkpt lat="53.00106" lon="5.86234">
        <ele>45.978374</ele>
        <time>2024-07-07T09:05:53.952Z</time>
      </trkpt>
      <trkpt lat="53.0011" lon="5.8622">
        <ele>45.927875</ele>
        <time>2024-07-07T09:05:55.953Z</time>
      </trkpt>
      <trkpt lat="53.00114" lon="5.86206">
        <ele>45.875893</ele>
        <time>2024-07-07T09:05:57.961Z</time>
      </trkpt>
      <trkpt lat="53.00117" lon="5.86192">
        <ele>45.824767</ele>
        <time>2024-07-07T09:05:59.936Z</time>
      </trkpt>
      <trkpt lat="53.0012" lon="5.8617">
        <ele>45.749266</ele>
        <time>2024-07-07T09:06:02.943Z</time>
      </trkpt>
      <trkpt lat="53.00122" lon="5.86155">
        <ele>45.696915</ele>
        <time>2024-07-07T09:06:04.949Z</time>
      </trkpt>
      <trkpt lat="53.00125" lon="5.86134">
        <ele>45.625338</ele>
        <time>2024-07-07T09:06:07.950Z</time>
      </trkpt>
      <trkpt lat="53.00127" lon="5.86115">
        <ele>45.556731</ele>
        <time>2024-07-07T09:06:10.939Z</time>
      </trkpt>
      <trkpt lat="53.00129" lon="5.86094">
        <ele>45.517504</ele>
        <time>2024-07-07T09:06:13.948Z</time>
      </trkpt>
      <trkpt lat="53.00132" lon="5.86074">
        <ele>45.521558</ele>
        <time>2024-07-07T09:06:16.936Z</time>
      </trkpt>
      <trkpt lat="53.00136" lon="5.86054">
        <ele>45.525629</ele>
        <time>2024-07-07T09:06:19.946Z</time>
      </trkpt>
      <trkpt lat="53.00142" lon="5.86036">
        <ele>45.529705</ele>
        <time>2024-07-07T09:06:22.943Z</time>
      </trkpt>
      <trkpt lat="53.0015" lon="5.8602">
        <ele>45.53359</ele>
        <time>2024-07-07T09:06:25.941Z</time>
      </trkpt>
      <trkpt lat="53.00156" lon="5.86003">
        <ele>45.537568</ele>
        <time>2024-07-07T09:06:28.937Z</time>
      </trkpt>
      <trkpt lat="53.00164" lon="5.85985">
        <ele>45.541778</ele>
        <time>2024-07-07T09:06:31.943Z</time>
      </trkpt>
      <trkpt lat="53.00171" lon="5.85967">
        <ele>45.54599</ele>
        <time>2024-07-07T09:06:34.934Z</time>
      </trkpt>
      <trkpt lat="53.00179" lon="5.8595">
        <ele>45.550182</ele>
        <time>2024-07-07T09:06:37.943Z</time>
      </trkpt>
      <trkpt lat="53.00186" lon="5.85932">
        <ele>45.554458</ele>
        <time>2024-07-07T09:06:40.936Z</time>
      </trkpt>
      <trkpt lat="53.00194" lon="5.85914">
        <ele>45.55866</ele>
        <time>2024-07-07T09:06:43.951Z</time>
      </trkpt>
      <trkpt lat="53.00201" lon="5.85897">
        <ele>45.562729</ele>
        <time>2024-07-07T09:06:46.915Z</time>
      </trkpt>
      <trkpt lat="53.00208" lon="5.85878">
        <ele>45.56702</ele>
        <time>2024-07-07T09:06:49.924Z</time>
      </trkpt>
      <trkpt lat="53.00216" lon="5.85861">
        <ele>45.571227</ele>
        <time>2024-07-07T09:06:52.938Z</time>
      </trkpt>
      <trkpt lat="53.00224" lon="5.85843">
        <ele>45.584017</ele>
        <time>2024-07-07T09:06:55.918Z</time>
      </trkpt>
      <trkpt lat="53.00231" lon="5.85825">
        <ele>45.611187</ele>
        <time>2024-07-07T09:06:58.934Z</time>
      </trkpt>
      <trkpt lat="53.00238" lon="5.85807">
        <ele>45.637389</ele>
        <time>2024-07-07T09:07:01.942Z</time>
      </trkpt>
      <trkpt lat="53.00245" lon="5.85791">
        <ele>45.662461</ele>
        <time>2024-07-07T09:07:04.960Z</time>
      </trkpt>
      <trkpt lat="53.00252" lon="5.85773">
        <ele>45.68909</ele>
        <time>2024-07-07T09:07:07.943Z</time>
      </trkpt>
      <trkpt lat="53.0026" lon="5.85755">
        <ele>45.716508</ele>
        <time>2024-07-07T09:07:10.952Z</time>
      </trkpt>
      <trkpt lat="53.00267" lon="5.85737">
        <ele>45.743876</ele>
        <time>2024-07-07T09:07:13.953Z</time>
      </trkpt>
      <trkpt lat="53.00274" lon="5.85719">
        <ele>45.769964</ele>
        <time>2024-07-07T09:07:16.952Z</time>
      </trkpt>
      <trkpt lat="53.00281" lon="5.85703">
        <ele>45.794288</ele>
        <time>2024-07-07T09:07:19.948Z</time>
      </trkpt>
      <trkpt lat="53.00288" lon="5.85689">
        <ele>45.81809</ele>
        <time>2024-07-07T09:07:22.938Z</time>
      </trkpt>
      <trkpt lat="53.00295" lon="5.85673">
        <ele>45.84238</ele>
        <time>2024-07-07T09:07:25.962Z</time>
      </trkpt>
      <trkpt lat="53.00301" lon="5.85657">
        <ele>45.866649</ele>
        <time>2024-07-07T09:07:28.937Z</time>
      </trkpt>
      <trkpt lat="53.00309" lon="5.8564">
        <ele>45.89328</ele>
        <time>2024-07-07T09:07:31.944Z</time>
      </trkpt>
      <trkpt lat="53.00316" lon="5.85623">
        <ele>45.918942</ele>
        <time>2024-07-07T09:07:34.926Z</time>
      </trkpt>
      <trkpt lat="53.00323" lon="5.85606">
        <ele>45.943855</ele>
        <time>2024-07-07T09:07:37.923Z</time>
      </trkpt>
      <trkpt lat="53.0033" lon="5.85589">
        <ele>45.949977</ele>
        <time>2024-07-07T09:07:40.953Z</time>
      </trkpt>
      <trkpt lat="53.00338" lon="5.85573">
        <ele>45.953658</ele>
        <time>2024-07-07T09:07:43.939Z</time>
      </trkpt>
      <trkpt lat="53.00345" lon="5.85555">
        <ele>45.957418</ele>
        <time>2024-07-07T09:07:46.930Z</time>
      </trkpt>
      <trkpt lat="53.00352" lon="5.85538">
        <ele>45.96117</ele>
        <time>2024-07-07T09:07:49.944Z</time>
      </trkpt>
      <trkpt lat="53.00358" lon="5.85521">
        <ele>45.964679</ele>
        <time>2024-07-07T09:07:52.925Z</time>
      </trkpt>
      <trkpt lat="53.00365" lon="5.85504">
        <ele>45.968279</ele>
        <time>2024-07-07T09:07:55.949Z</time>
      </trkpt>
      <trkpt lat="53.00371" lon="5.85487">
        <ele>45.971926</ele>
        <time>2024-07-07T09:07:58.938Z</time>
      </trkpt>
      <trkpt lat="53.00378" lon="5.85472">
        <ele>45.975256</ele>
        <time>2024-07-07T09:08:01.945Z</time>
      </trkpt>
      <trkpt lat="53.00384" lon="5.85456">
        <ele>45.978704</ele>
        <time>2024-07-07T09:08:04.925Z</time>
      </trkpt>
      <trkpt lat="53.00391" lon="5.85439">
        <ele>45.98231</ele>
        <time>2024-07-07T09:08:07.945Z</time>
      </trkpt>
      <trkpt lat="53.00397" lon="5.85422">
        <ele>45.985893</ele>
        <time>2024-07-07T09:08:10.943Z</time>
      </trkpt>
      <trkpt lat="53.00405" lon="5.85405">
        <ele>45.989621</ele>
        <time>2024-07-07T09:08:13.939Z</time>
      </trkpt>
      <trkpt lat="53.00412" lon="5.85388">
        <ele>45.993363</ele>
        <time>2024-07-07T09:08:16.950Z</time>
      </trkpt>
      <trkpt lat="53.00419" lon="5.8537">
        <ele>45.997222</ele>
        <time>2024-07-07T09:08:19.939Z</time>
      </trkpt>
      <trkpt lat="53.00427" lon="5.85353">
        <ele>45.995693</ele>
        <time>2024-07-07T09:08:22.947Z</time>
      </trkpt>
      <trkpt lat="53.00434" lon="5.85335">
        <ele>45.980158</ele>
        <time>2024-07-07T09:08:25.945Z</time>
      </trkpt>
      <trkpt lat="53.0044" lon="5.85317">
        <ele>45.964755</ele>
        <time>2024-07-07T09:08:28.929Z</time>
      </trkpt>
      <trkpt lat="53.00448" lon="5.853">
        <ele>45.949517</ele>
        <time>2024-07-07T09:08:31.935Z</time>
      </trkpt>
      <trkpt lat="53.00455" lon="5.85281">
        <ele>45.933152</ele>
        <time>2024-07-07T09:08:34.939Z</time>
      </trkpt>
      <trkpt lat="53.00463" lon="5.85264">
        <ele>45.917314</ele>
        <time>2024-07-07T09:08:37.946Z</time>
      </trkpt>
      <trkpt lat="53.00469" lon="5.85247">
        <ele>45.90285</ele>
        <time>2024-07-07T09:08:40.942Z</time>
      </trkpt>
      <trkpt lat="53.00477" lon="5.8523">
        <ele>45.887699</ele>
        <time>2024-07-07T09:08:43.950Z</time>
      </trkpt>
      <trkpt lat="53.00484" lon="5.85213">
        <ele>45.872347</ele>
        <time>2024-07-07T09:08:46.941Z</time>
      </trkpt>
      <trkpt lat="53.00491" lon="5.85195">
        <ele>45.857062</ele>
        <time>2024-07-07T09:08:49.951Z</time>
      </trkpt>
      <trkpt lat="53.00497" lon="5.85178">
        <ele>45.842282</ele>
        <time>2024-07-07T09:08:52.952Z</time>
      </trkpt>
      <trkpt lat="53.00504" lon="5.85161">
        <ele>45.827375</ele>
        <time>2024-07-07T09:08:55.947Z</time>
      </trkpt>
      <trkpt lat="53.00511" lon="5.85145">
        <ele>45.812366</ele>
        <time>2024-07-07T09:08:58.943Z</time>
      </trkpt>
      <trkpt lat="53.00518" lon="5.85128">
        <ele>45.797378</ele>
        <time>2024-07-07T09:09:01.948Z</time>
      </trkpt>
      <trkpt lat="53.00525" lon="5.8511">
        <ele>45.781603</ele>
        <time>2024-07-07T09:09:04.938Z</time>
      </trkpt>
      <trkpt lat="53.00532" lon="5.85091">
        <ele>45.769223</ele>
        <time>2024-07-07T09:09:07.953Z</time>
      </trkpt>
      <trkpt lat="53.0054" lon="5.85074">
        <ele>45.757358</ele>
        <time>2024-07-07T09:09:10.936Z</time>
      </trkpt>
      <trkpt lat="53.00545" lon="5.8506">
        <ele>45.748319</ele>
        <time>2024-07-07T09:09:13.947Z</time>
      </trkpt>
      <trkpt lat="53.00551" lon="5.85047">
        <ele>45.739037</ele>
        <time>2024-07-07T09:09:17.936Z</time>
      </trkpt>
      <trkpt lat="53.00557" lon="5.85033">
        <ele>45.729709</ele>
        <time>2024-07-07T09:09:21.953Z</time>
      </trkpt>
      <trkpt lat="53.00562" lon="5.8502">
        <ele>45.721064</ele>
        <time>2024-07-07T09:09:24.936Z</time>
      </trkpt>
      <trkpt lat="53.00568" lon="5.85007">
        <ele>45.711959</ele>
        <time>2024-07-07T09:09:27.952Z</time>
      </trkpt>
      <trkpt lat="53.00574" lon="5.84992">
        <ele>45.702106</ele>
        <time>2024-07-07T09:09:30.936Z</time>
      </trkpt>
      <trkpt lat="53.00579" lon="5.84978">
        <ele>45.692644</ele>
        <time>2024-07-07T09:09:33.945Z</time>
      </trkpt>
      <trkpt lat="53.00586" lon="5.84963">
        <ele>45.682261</ele>
        <time>2024-07-07T09:09:36.944Z</time>
      </trkpt>
      <trkpt lat="53.00594" lon="5.8495">
        <ele>45.671853</ele>
        <time>2024-07-07T09:09:39.945Z</time>
      </trkpt>
      <trkpt lat="53.00603" lon="5.84938">
        <ele>45.661151</ele>
        <time>2024-07-07T09:09:42.936Z</time>
      </trkpt>
      <trkpt lat="53.00614" lon="5.8493">
        <ele>45.650311</ele>
        <time>2024-07-07T09:09:45.939Z</time>
      </trkpt>
      <trkpt lat="53.00625" lon="5.84921">
        <ele>45.638746</ele>
        <time>2024-07-07T09:09:48.925Z</time>
      </trkpt>
      <trkpt lat="53.00637" lon="5.84915">
        <ele>45.626883</ele>
        <time>2024-07-07T09:09:51.937Z</time>
      </trkpt>
      <trkpt lat="53.00646" lon="5.84913">
        <ele>45.618482</ele>
        <time>2024-07-07T09:09:53.941Z</time>
      </trkpt>
      <trkpt lat="53.0066" lon="5.84913">
        <ele>45.670564</ele>
        <time>2024-07-07T09:09:56.936Z</time>
      </trkpt>
      <trkpt lat="53.00672" lon="5.84915">
        <ele>45.745428</ele>
        <time>2024-07-07T09:09:59.935Z</time>
      </trkpt>
      <trkpt lat="53.00681" lon="5.84919">
        <ele>45.801308</ele>
        <time>2024-07-07T09:10:01.937Z</time>
      </trkpt>
      <trkpt lat="53.00694" lon="5.84928">
        <ele>45.88028</ele>
        <time>2024-07-07T09:10:04.933Z</time>
      </trkpt>
      <trkpt lat="53.00703" lon="5.84935">
        <ele>45.938331</ele>
        <time>2024-07-07T09:10:06.949Z</time>
      </trkpt>
      <trkpt lat="53.00711" lon="5.84943">
        <ele>45.992129</ele>
        <time>2024-07-07T09:10:08.922Z</time>
      </trkpt>
      <trkpt lat="53.00719" lon="5.84949">
        <ele>46.046854</ele>
        <time>2024-07-07T09:10:10.946Z</time>
      </trkpt>
      <trkpt lat="53.00728" lon="5.84956">
        <ele>46.101891</ele>
        <time>2024-07-07T09:10:12.929Z</time>
      </trkpt>
      <trkpt lat="53.00739" lon="5.84966">
        <ele>46.178107</ele>
        <time>2024-07-07T09:10:15.936Z</time>
      </trkpt>
      <trkpt lat="53.00751" lon="5.84974">
        <ele>46.251683</ele>
        <time>2024-07-07T09:10:18.945Z</time>
      </trkpt>
      <trkpt lat="53.00761" lon="5.84978">
        <ele>46.311925</ele>
        <time>2024-07-07T09:10:21.950Z</time>
      </trkpt>
      <trkpt lat="53.0077" lon="5.8498">
        <ele>46.364852</ele>
        <time>2024-07-07T09:10:24.941Z</time>
      </trkpt>
      <trkpt lat="53.00779" lon="5.8498">
        <ele>46.419912</ele>
        <time>2024-07-07T09:13:38.916Z</time>
      </trkpt>
      <trkpt lat="53.00789" lon="5.84981">
        <ele>46.475594</ele>
        <time>2024-07-07T09:13:44.925Z</time>
      </trkpt>
      <trkpt lat="53.008" lon="5.84978">
        <ele>46.539367</ele>
        <time>2024-07-07T09:13:48.951Z</time>
      </trkpt>
      <trkpt lat="53.00808" lon="5.84975">
        <ele>46.593187</ele>
        <time>2024-07-07T09:13:51.927Z</time>
      </trkpt>
      <trkpt lat="53.00818" lon="5.84968">
        <ele>46.653495</ele>
        <time>2024-07-07T09:13:54.941Z</time>
      </trkpt>
      <trkpt lat="53.00828" lon="5.8496">
        <ele>46.717254</ele>
        <time>2024-07-07T09:13:57.940Z</time>
      </trkpt>
      <trkpt lat="53.00838" lon="5.84949">
        <ele>46.786593</ele>
        <time>2024-07-07T09:14:00.935Z</time>
      </trkpt>
      <trkpt lat="53.00845" lon="5.84939">
        <ele>46.838971</ele>
        <time>2024-07-07T09:14:02.942Z</time>
      </trkpt>
      <trkpt lat="53.00854" lon="5.84924">
        <ele>46.912378</ele>
        <time>2024-07-07T09:14:05.928Z</time>
      </trkpt>
      <trkpt lat="53.00862" lon="5.84907">
        <ele>46.9874</ele>
        <time>2024-07-07T09:14:08.932Z</time>
      </trkpt>
      <trkpt lat="53.00867" lon="5.84894">
        <ele>47.040943</ele>
        <time>2024-07-07T09:14:10.943Z</time>
      </trkpt>
      <trkpt lat="53.00874" lon="5.84883">
        <ele>47.094973</ele>
        <time>2024-07-07T09:14:12.941Z</time>
      </trkpt>
      <trkpt lat="53.00882" lon="5.84864">
        <ele>47.173587</ele>
        <time>2024-07-07T09:14:15.940Z</time>
      </trkpt>
      <trkpt lat="53.00887" lon="5.84852">
        <ele>47.227355</ele>
        <time>2024-07-07T09:14:17.948Z</time>
      </trkpt>
      <trkpt lat="53.00893" lon="5.8484">
        <ele>47.28041</ele>
        <time>2024-07-07T09:14:19.946Z</time>
      </trkpt>
      <trkpt lat="53.00899" lon="5.84827">
        <ele>47.33417</ele>
        <time>2024-07-07T09:14:21.940Z</time>
      </trkpt>
      <trkpt lat="53.00905" lon="5.84816">
        <ele>47.386918</ele>
        <time>2024-07-07T09:14:23.946Z</time>
      </trkpt>
      <trkpt lat="53.00911" lon="5.84804">
        <ele>47.440334</ele>
        <time>2024-07-07T09:14:25.947Z</time>
      </trkpt>
      <trkpt lat="53.00919" lon="5.84786">
        <ele>47.517985</ele>
        <time>2024-07-07T09:14:28.924Z</time>
      </trkpt>
      <trkpt lat="53.00926" lon="5.84767">
        <ele>47.596617</ele>
        <time>2024-07-07T09:14:31.940Z</time>
      </trkpt>
      <trkpt lat="53.00931" lon="5.84754">
        <ele>47.649675</ele>
        <time>2024-07-07T09:14:33.938Z</time>
      </trkpt>
      <trkpt lat="53.00935" lon="5.84733">
        <ele>47.708346</ele>
        <time>2024-07-07T09:14:36.937Z</time>
      </trkpt>
      <trkpt lat="53.00937" lon="5.84719">
        <ele>47.723311</ele>
        <time>2024-07-07T09:14:38.951Z</time>
      </trkpt>
      <trkpt lat="53.00939" lon="5.84704">
        <ele>47.738762</ele>
        <time>2024-07-07T09:14:40.953Z</time>
      </trkpt>
      <trkpt lat="53.00941" lon="5.84688">
        <ele>47.754833</ele>
        <time>2024-07-07T09:14:42.939Z</time>
      </trkpt>
      <trkpt lat="53.00943" lon="5.84672">
        <ele>47.770539</ele>
        <time>2024-07-07T09:14:44.940Z</time>
      </trkpt>
      <trkpt lat="53.00946" lon="5.84651">
        <ele>47.792288</ele>
        <time>2024-07-07T09:14:47.945Z</time>
      </trkpt>
      <trkpt lat="53.00949" lon="5.84637">
        <ele>47.807803</ele>
        <time>2024-07-07T09:14:49.945Z</time>
      </trkpt>
      <trkpt lat="53.00957" lon="5.84618">
        <ele>47.830124</ele>
        <time>2024-07-07T09:14:52.935Z</time>
      </trkpt>
      <trkpt lat="53.00967" lon="5.84604">
        <ele>47.852679</ele>
        <time>2024-07-07T09:14:55.940Z</time>
      </trkpt>
      <trkpt lat="53.00976" lon="5.84597">
        <ele>47.868801</ele>
        <time>2024-07-07T09:14:57.943Z</time>
      </trkpt>
      <trkpt lat="53.00989" lon="5.84589">
        <ele>47.891979</ele>
        <time>2024-07-07T09:15:00.940Z</time>
      </trkpt>
      <trkpt lat="53.00998" lon="5.84583">
        <ele>47.908504</ele>
        <time>2024-07-07T09:15:02.938Z</time>
      </trkpt>
      <trkpt lat="53.01007" lon="5.84575">
        <ele>47.924651</ele>
        <time>2024-07-07T09:15:04.958Z</time>
      </trkpt>
      <trkpt lat="53.01016" lon="5.84567">
        <ele>47.940935</ele>
        <time>2024-07-07T09:15:06.959Z</time>
      </trkpt>
      <trkpt lat="53.01024" lon="5.84558">
        <ele>47.957033</ele>
        <time>2024-07-07T09:15:08.936Z</time>
      </trkpt>
      <trkpt lat="53.01031" lon="5.84546">
        <ele>47.974243</ele>
        <time>2024-07-07T09:15:10.936Z</time>
      </trkpt>
      <trkpt lat="53.01038" lon="5.84534">
        <ele>47.99156</ele>
        <time>2024-07-07T09:15:12.952Z</time>
      </trkpt>
      <trkpt lat="53.01045" lon="5.84521">
        <ele>47.991786</ele>
        <time>2024-07-07T09:15:14.954Z</time>
      </trkpt>
      <trkpt lat="53.01051" lon="5.84508">
        <ele>47.975868</ele>
        <time>2024-07-07T09:15:16.950Z</time>
      </trkpt>
      <trkpt lat="53.01057" lon="5.84495">
        <ele>47.959951</ele>
        <time>2024-07-07T09:15:18.941Z</time>
      </trkpt>
      <trkpt lat="53.01063" lon="5.84482">
        <ele>47.943681</ele>
        <time>2024-07-07T09:15:20.950Z</time>
      </trkpt>
      <trkpt lat="53.0107" lon="5.84469">
        <ele>47.927562</ele>
        <time>2024-07-07T09:15:22.955Z</time>
      </trkpt>
      <trkpt lat="53.01075" lon="5.84456">
        <ele>47.912396</ele>
        <time>2024-07-07T09:15:24.925Z</time>
      </trkpt>
      <trkpt lat="53.01081" lon="5.84444">
        <ele>47.897082</ele>
        <time>2024-07-07T09:15:26.944Z</time>
      </trkpt>
      <trkpt lat="53.01087" lon="5.84432">
        <ele>47.88187</ele>
        <time>2024-07-07T09:15:28.939Z</time>
      </trkpt>
      <trkpt lat="53.01093" lon="5.8442">
        <ele>47.866983</ele>
        <time>2024-07-07T09:15:30.940Z</time>
      </trkpt>
      <trkpt lat="53.01099" lon="5.84408">
        <ele>47.852248</ele>
        <time>2024-07-07T09:15:32.962Z</time>
      </trkpt>
      <trkpt lat="53.01105" lon="5.84397">
        <ele>47.837659</ele>
        <time>2024-07-07T09:15:34.946Z</time>
      </trkpt>
      <trkpt lat="53.0111" lon="5.84385">
        <ele>47.823027</ele>
        <time>2024-07-07T09:15:36.952Z</time>
      </trkpt>
      <trkpt lat="53.01118" lon="5.84368">
        <ele>47.802325</ele>
        <time>2024-07-07T09:15:39.937Z</time>
      </trkpt>
      <trkpt lat="53.01126" lon="5.8435">
        <ele>47.780615</ele>
        <time>2024-07-07T09:15:42.957Z</time>
      </trkpt>
      <trkpt lat="53.01134" lon="5.84333">
        <ele>47.759628</ele>
        <time>2024-07-07T09:15:45.940Z</time>
      </trkpt>
      <trkpt lat="53.0114" lon="5.84322">
        <ele>47.745113</ele>
        <time>2024-07-07T09:15:47.950Z</time>
      </trkpt>
      <trkpt lat="53.01148" lon="5.84305">
        <ele>47.723824</ele>
        <time>2024-07-07T09:15:50.958Z</time>
      </trkpt>
      <trkpt lat="53.01157" lon="5.84289">
        <ele>47.718552</ele>
        <time>2024-07-07T09:15:53.950Z</time>
      </trkpt>
      <trkpt lat="53.01164" lon="5.84272">
        <ele>47.743578</ele>
        <time>2024-07-07T09:15:56.920Z</time>
      </trkpt>
      <trkpt lat="53.01172" lon="5.84256">
        <ele>47.769087</ele>
        <time>2024-07-07T09:15:59.950Z</time>
      </trkpt>
      <trkpt lat="53.0118" lon="5.84239">
        <ele>47.79526</ele>
        <time>2024-07-07T09:16:02.941Z</time>
      </trkpt>
      <trkpt lat="53.01188" lon="5.84222">
        <ele>47.822037</ele>
        <time>2024-07-07T09:16:05.946Z</time>
      </trkpt>
      <trkpt lat="53.01194" lon="5.8421">
        <ele>47.840432</ele>
        <time>2024-07-07T09:16:07.956Z</time>
      </trkpt>
      <trkpt lat="53.012" lon="5.84199">
        <ele>47.858919</ele>
        <time>2024-07-07T09:16:09.941Z</time>
      </trkpt>
      <trkpt lat="53.01209" lon="5.84181">
        <ele>47.885977</ele>
        <time>2024-07-07T09:16:12.937Z</time>
      </trkpt>
      <trkpt lat="53.01216" lon="5.84164">
        <ele>47.912703</ele>
        <time>2024-07-07T09:16:15.960Z</time>
      </trkpt>
      <trkpt lat="53.01224" lon="5.84147">
        <ele>47.938383</ele>
        <time>2024-07-07T09:16:18.937Z</time>
      </trkpt>
      <trkpt lat="53.01232" lon="5.8413">
        <ele>47.964365</ele>
        <time>2024-07-07T09:16:21.943Z</time>
      </trkpt>
      <trkpt lat="53.0124" lon="5.84113">
        <ele>47.990361</ele>
        <time>2024-07-07T09:16:24.921Z</time>
      </trkpt>
      <trkpt lat="53.01248" lon="5.84096">
        <ele>48.017042</ele>
        <time>2024-07-07T09:16:27.936Z</time>
      </trkpt>
      <trkpt lat="53.01256" lon="5.84078">
        <ele>48.044012</ele>
        <time>2024-07-07T09:16:30.940Z</time>
      </trkpt>
      <trkpt lat="53.01265" lon="5.84061">
        <ele>48.071009</ele>
        <time>2024-07-07T09:16:33.950Z</time>
      </trkpt>
      <trkpt lat="53.0127" lon="5.84049">
        <ele>48.081281</ele>
        <time>2024-07-07T09:16:35.952Z</time>
      </trkpt>
      <trkpt lat="53.01279" lon="5.84032">
        <ele>48.094134</ele>
        <time>2024-07-07T09:16:38.944Z</time>
      </trkpt>
      <trkpt lat="53.01287" lon="5.84015">
        <ele>48.107019</ele>
        <time>2024-07-07T09:16:41.944Z</time>
      </trkpt>
      <trkpt lat="53.01293" lon="5.84003">
        <ele>48.115932</ele>
        <time>2024-07-07T09:16:43.956Z</time>
      </trkpt>
      <trkpt lat="53.01299" lon="5.83991">
        <ele>48.125102</ele>
        <time>2024-07-07T09:16:45.942Z</time>
      </trkpt>
      <trkpt lat="53.01306" lon="5.83973">
        <ele>48.137684</ele>
        <time>2024-07-07T09:16:48.946Z</time>
      </trkpt>
      <trkpt lat="53.01312" lon="5.83962">
        <ele>48.146556</ele>
        <time>2024-07-07T09:16:50.953Z</time>
      </trkpt>
      <trkpt lat="53.01318" lon="5.8395">
        <ele>48.155696</ele>
        <time>2024-07-07T09:16:52.939Z</time>
      </trkpt>
      <trkpt lat="53.01327" lon="5.83933">
        <ele>48.168921</ele>
        <time>2024-07-07T09:16:55.945Z</time>
      </trkpt>
      <trkpt lat="53.01333" lon="5.8392">
        <ele>48.178413</ele>
        <time>2024-07-07T09:16:57.945Z</time>
      </trkpt>
      <trkpt lat="53.01339" lon="5.83908">
        <ele>48.187477</ele>
        <time>2024-07-07T09:16:59.939Z</time>
      </trkpt>
      <trkpt lat="53.01345" lon="5.83896">
        <ele>48.196315</ele>
        <time>2024-07-07T09:17:01.957Z</time>
      </trkpt>
      <trkpt lat="53.01351" lon="5.83884">
        <ele>48.205607</ele>
        <time>2024-07-07T09:17:03.956Z</time>
      </trkpt>
      <trkpt lat="53.01356" lon="5.8387">
        <ele>48.214804</ele>
        <time>2024-07-07T09:17:05.943Z</time>
      </trkpt>
      <trkpt lat="53.01362" lon="5.83857">
        <ele>48.224068</ele>
        <time>2024-07-07T09:17:07.940Z</time>
      </trkpt>
      <trkpt lat="53.01365" lon="5.83844">
        <ele>48.232915</ele>
        <time>2024-07-07T09:17:09.940Z</time>
      </trkpt>
      <trkpt lat="53.01369" lon="5.8383">
        <ele>48.24175</ele>
        <time>2024-07-07T09:17:11.937Z</time>
      </trkpt>
      <trkpt lat="53.01373" lon="5.83815">
        <ele>48.249042</ele>
        <time>2024-07-07T09:17:13.948Z</time>
      </trkpt>
      <trkpt lat="53.01376" lon="5.838">
        <ele>48.25186</ele>
        <time>2024-07-07T09:17:15.939Z</time>
      </trkpt>
      <trkpt lat="53.01379" lon="5.8378">
        <ele>48.255779</ele>
        <time>2024-07-07T09:17:18.943Z</time>
      </trkpt>
      <trkpt lat="53.01382" lon="5.8376">
        <ele>48.25941</ele>
        <time>2024-07-07T09:17:21.961Z</time>
      </trkpt>
      <trkpt lat="53.01385" lon="5.83742">
        <ele>48.262905</ele>
        <time>2024-07-07T09:17:24.941Z</time>
      </trkpt>
      <trkpt lat="53.01391" lon="5.83724">
        <ele>48.266513</ele>
        <time>2024-07-07T09:17:27.933Z</time>
      </trkpt>
      <trkpt lat="53.014" lon="5.83713">
        <ele>48.270016</ele>
        <time>2024-07-07T09:17:30.943Z</time>
      </trkpt>
      <trkpt lat="53.01412" lon="5.83704">
        <ele>48.273842</ele>
        <time>2024-07-07T09:17:33.961Z</time>
      </trkpt>
      <trkpt lat="53.01423" lon="5.83695">
        <ele>48.277774</ele>
        <time>2024-07-07T09:17:36.934Z</time>
      </trkpt>
      <trkpt lat="53.01432" lon="5.83688">
        <ele>48.28053</ele>
        <time>2024-07-07T09:17:38.948Z</time>
      </trkpt>
      <trkpt lat="53.0144" lon="5.83681">
        <ele>48.283354</ele>
        <time>2024-07-07T09:17:40.938Z</time>
      </trkpt>
      <trkpt lat="53.01452" lon="5.83672">
        <ele>48.287458</ele>
        <time>2024-07-07T09:17:43.951Z</time>
      </trkpt>
      <trkpt lat="53.01464" lon="5.83661">
        <ele>48.291401</ele>
        <time>2024-07-07T09:17:46.957Z</time>
      </trkpt>
      <trkpt lat="53.01475" lon="5.83652">
        <ele>48.295224</ele>
        <time>2024-07-07T09:17:49.941Z</time>
      </trkpt>
      <trkpt lat="53.01486" lon="5.8364">
        <ele>48.299301</ele>
        <time>2024-07-07T09:17:52.938Z</time>
      </trkpt>
      <trkpt lat="53.01496" lon="5.83628">
        <ele>48.304021</ele>
        <time>2024-07-07T09:17:55.940Z</time>
      </trkpt>
      <trkpt lat="53.01504" lon="5.83618">
        <ele>48.315104</ele>
        <time>2024-07-07T09:17:58.939Z</time>
      </trkpt>
      <trkpt lat="53.01514" lon="5.83615">
        <ele>48.326243</ele>
        <time>2024-07-07T09:18:01.945Z</time>
      </trkpt>
      <trkpt lat="53.01521" lon="5.83627">
        <ele>48.337374</ele>
        <time>2024-07-07T09:18:04.935Z</time>
      </trkpt>
      <trkpt lat="53.01528" lon="5.83636">
        <ele>48.34776</ele>
        <time>2024-07-07T09:18:08.930Z</time>
      </trkpt>
      <trkpt lat="53.01539" lon="5.83637">
        <ele>48.359549</ele>
        <time>2024-07-07T09:18:12.955Z</time>
      </trkpt>
      <trkpt lat="53.01549" lon="5.83639">
        <ele>48.371434</ele>
        <time>2024-07-07T09:18:16.944Z</time>
      </trkpt>
      <trkpt lat="53.01559" lon="5.83641">
        <ele>48.382706</ele>
        <time>2024-07-07T09:18:19.938Z</time>
      </trkpt>
      <trkpt lat="53.01572" lon="5.83644">
        <ele>48.396832</ele>
        <time>2024-07-07T09:18:22.940Z</time>
      </trkpt>
      <trkpt lat="53.01581" lon="5.83645">
        <ele>48.40752</ele>
        <time>2024-07-07T09:18:24.936Z</time>
      </trkpt>
      <trkpt lat="53.01592" lon="5.83646">
        <ele>48.419215</ele>
        <time>2024-07-07T09:18:26.938Z</time>
      </trkpt>
      <trkpt lat="53.01602" lon="5.83647">
        <ele>48.43112</ele>
        <time>2024-07-07T09:18:28.947Z</time>
      </trkpt>
      <trkpt lat="53.01612" lon="5.83649">
        <ele>48.442431</ele>
        <time>2024-07-07T09:18:30.958Z</time>
      </trkpt>
      <trkpt lat="53.01623" lon="5.83651">
        <ele>48.454052</ele>
        <time>2024-07-07T09:18:32.938Z</time>
      </trkpt>
      <trkpt lat="53.01633" lon="5.83653">
        <ele>48.465442</ele>
        <time>2024-07-07T09:18:34.958Z</time>
      </trkpt>
      <trkpt lat="53.01643" lon="5.83655">
        <ele>48.476967</ele>
        <time>2024-07-07T09:18:36.934Z</time>
      </trkpt>
      <trkpt lat="53.01652" lon="5.83657">
        <ele>48.487681</ele>
        <time>2024-07-07T09:18:38.954Z</time>
      </trkpt>
      <trkpt lat="53.01662" lon="5.83659">
        <ele>48.498234</ele>
        <time>2024-07-07T09:18:40.945Z</time>
      </trkpt>
      <trkpt lat="53.01671" lon="5.83661">
        <ele>48.509562</ele>
        <time>2024-07-07T09:18:42.947Z</time>
      </trkpt>
      <trkpt lat="53.0168" lon="5.83663">
        <ele>48.522775</ele>
        <time>2024-07-07T09:18:44.959Z</time>
      </trkpt>
      <trkpt lat="53.01689" lon="5.83665">
        <ele>48.535859</ele>
        <time>2024-07-07T09:18:46.940Z</time>
      </trkpt>
      <trkpt lat="53.017" lon="5.83666">
        <ele>48.550035</ele>
        <time>2024-07-07T09:18:48.940Z</time>
      </trkpt>
      <trkpt lat="53.0171" lon="5.83669">
        <ele>48.564836</ele>
        <time>2024-07-07T09:18:50.950Z</time>
      </trkpt>
      <trkpt lat="53.0172" lon="5.83671">
        <ele>48.579178</ele>
        <time>2024-07-07T09:18:52.939Z</time>
      </trkpt>
      <trkpt lat="53.0173" lon="5.83672">
        <ele>48.593312</ele>
        <time>2024-07-07T09:18:54.940Z</time>
      </trkpt>
      <trkpt lat="53.0174" lon="5.83674">
        <ele>48.606951</ele>
        <time>2024-07-07T09:18:56.956Z</time>
      </trkpt>
      <trkpt lat="53.0175" lon="5.83676">
        <ele>48.621154</ele>
        <time>2024-07-07T09:18:58.931Z</time>
      </trkpt>
      <trkpt lat="53.0176" lon="5.83677">
        <ele>48.635168</ele>
        <time>2024-07-07T09:19:00.938Z</time>
      </trkpt>
      <trkpt lat="53.0177" lon="5.83679">
        <ele>48.649639</ele>
        <time>2024-07-07T09:19:02.953Z</time>
      </trkpt>
      <trkpt lat="53.01781" lon="5.83682">
        <ele>48.664878</ele>
        <time>2024-07-07T09:19:04.950Z</time>
      </trkpt>
      <trkpt lat="53.01792" lon="5.83684">
        <ele>48.680173</ele>
        <time>2024-07-07T09:19:06.940Z</time>
      </trkpt>
      <trkpt lat="53.01803" lon="5.83685">
        <ele>48.695478</ele>
        <time>2024-07-07T09:19:08.953Z</time>
      </trkpt>
      <trkpt lat="53.01814" lon="5.83688">
        <ele>48.710416</ele>
        <time>2024-07-07T09:19:10.937Z</time>
      </trkpt>
      <trkpt lat="53.01824" lon="5.83689">
        <ele>48.725279</ele>
        <time>2024-07-07T09:19:12.949Z</time>
      </trkpt>
      <trkpt lat="53.01835" lon="5.83691">
        <ele>48.740593</ele>
        <time>2024-07-07T09:19:14.937Z</time>
      </trkpt>
      <trkpt lat="53.01846" lon="5.83694">
        <ele>48.754351</ele>
        <time>2024-07-07T09:19:16.945Z</time>
      </trkpt>
      <trkpt lat="53.01857" lon="5.83695">
        <ele>48.725893</ele>
        <time>2024-07-07T09:19:18.936Z</time>
      </trkpt>
      <trkpt lat="53.01868" lon="5.83698">
        <ele>48.694956</ele>
        <time>2024-07-07T09:19:20.940Z</time>
      </trkpt>
      <trkpt lat="53.01879" lon="5.837">
        <ele>48.664745</ele>
        <time>2024-07-07T09:19:22.938Z</time>
      </trkpt>
      <trkpt lat="53.0189" lon="5.83701">
        <ele>48.635107</ele>
        <time>2024-07-07T09:19:24.923Z</time>
      </trkpt>
      <trkpt lat="53.01901" lon="5.83703">
        <ele>48.604676</ele>
        <time>2024-07-07T09:19:26.940Z</time>
      </trkpt>
      <trkpt lat="53.01912" lon="5.83705">
        <ele>48.575542</ele>
        <time>2024-07-07T09:19:28.934Z</time>
      </trkpt>
      <trkpt lat="53.01923" lon="5.83708">
        <ele>48.545455</ele>
        <time>2024-07-07T09:19:30.952Z</time>
      </trkpt>
      <trkpt lat="53.01934" lon="5.8371">
        <ele>48.516069</ele>
        <time>2024-07-07T09:19:32.939Z</time>
      </trkpt>
      <trkpt lat="53.01945" lon="5.83711">
        <ele>48.485936</ele>
        <time>2024-07-07T09:19:34.921Z</time>
      </trkpt>
      <trkpt lat="53.01956" lon="5.83713">
        <ele>48.45549</ele>
        <time>2024-07-07T09:19:36.938Z</time>
      </trkpt>
      <trkpt lat="53.01967" lon="5.83714">
        <ele>48.425952</ele>
        <time>2024-07-07T09:19:38.927Z</time>
      </trkpt>
      <trkpt lat="53.01977" lon="5.83714">
        <ele>48.396999</ele>
        <time>2024-07-07T09:19:40.940Z</time>
      </trkpt>
      <trkpt lat="53.01989" lon="5.83711">
        <ele>48.365551</ele>
        <time>2024-07-07T09:19:42.939Z</time>
      </trkpt>
      <trkpt lat="53.02001" lon="5.83707">
        <ele>48.333428</ele>
        <time>2024-07-07T09:19:44.944Z</time>
      </trkpt>
      <trkpt lat="53.02012" lon="5.83701">
        <ele>48.301686</ele>
        <time>2024-07-07T09:19:46.945Z</time>
      </trkpt>
      <trkpt lat="53.02022" lon="5.83697">
        <ele>48.272163</ele>
        <time>2024-07-07T09:19:48.932Z</time>
      </trkpt>
      <trkpt lat="53.02033" lon="5.83692">
        <ele>48.254588</ele>
        <time>2024-07-07T09:19:50.938Z</time>
      </trkpt>
      <trkpt lat="53.02043" lon="5.83687">
        <ele>48.238221</ele>
        <time>2024-07-07T09:19:52.938Z</time>
      </trkpt>
      <trkpt lat="53.02054" lon="5.83683">
        <ele>48.221297</ele>
        <time>2024-07-07T09:19:54.938Z</time>
      </trkpt>
      <trkpt lat="53.02065" lon="5.83678">
        <ele>48.204068</ele>
        <time>2024-07-07T09:19:56.944Z</time>
      </trkpt>
      <trkpt lat="53.02077" lon="5.83673">
        <ele>48.186643</ele>
        <time>2024-07-07T09:19:58.931Z</time>
      </trkpt>
      <trkpt lat="53.02088" lon="5.83668">
        <ele>48.169139</ele>
        <time>2024-07-07T09:20:00.940Z</time>
      </trkpt>
      <trkpt lat="53.02099" lon="5.83663">
        <ele>48.151525</ele>
        <time>2024-07-07T09:20:02.944Z</time>
      </trkpt>
      <trkpt lat="53.02111" lon="5.83659">
        <ele>48.134144</ele>
        <time>2024-07-07T09:20:04.937Z</time>
      </trkpt>
      <trkpt lat="53.02122" lon="5.83654">
        <ele>48.116986</ele>
        <time>2024-07-07T09:20:06.945Z</time>
      </trkpt>
      <trkpt lat="53.02133" lon="5.83649">
        <ele>48.10014</ele>
        <time>2024-07-07T09:20:08.946Z</time>
      </trkpt>
      <trkpt lat="53.02144" lon="5.83644">
        <ele>48.083317</ele>
        <time>2024-07-07T09:20:10.944Z</time>
      </trkpt>
      <trkpt lat="53.02155" lon="5.83639">
        <ele>48.065363</ele>
        <time>2024-07-07T09:20:12.955Z</time>
      </trkpt>
      <trkpt lat="53.02167" lon="5.83633">
        <ele>48.047581</ele>
        <time>2024-07-07T09:20:14.939Z</time>
      </trkpt>
      <trkpt lat="53.02178" lon="5.83628">
        <ele>48.030112</ele>
        <time>2024-07-07T09:20:16.944Z</time>
      </trkpt>
      <trkpt lat="53.02189" lon="5.83623">
        <ele>48.012451</ele>
        <time>2024-07-07T09:20:18.943Z</time>
      </trkpt>
      <trkpt lat="53.02201" lon="5.83618">
        <ele>48</ele>
        <time>2024-07-07T09:20:20.941Z</time>
      </trkpt>
      <trkpt lat="53.02212" lon="5.83613">
        <ele>48</ele>
        <time>2024-07-07T09:20:22.938Z</time>
      </trkpt>
      <trkpt lat="53.02224" lon="5.83609">
        <ele>48</ele>
        <time>2024-07-07T09:20:24.925Z</time>
      </trkpt>
      <trkpt lat="53.02235" lon="5.83605">
        <ele>48</ele>
        <time>2024-07-07T09:20:26.955Z</time>
      </trkpt>
      <trkpt lat="53.02247" lon="5.836">
        <ele>48</ele>
        <time>2024-07-07T09:20:28.950Z</time>
      </trkpt>
      <trkpt lat="53.02258" lon="5.83594">
        <ele>48</ele>
        <time>2024-07-07T09:20:30.942Z</time>
      </trkpt>
      <trkpt lat="53.02271" lon="5.83589">
        <ele>48</ele>
        <time>2024-07-07T09:20:32.952Z</time>
      </trkpt>
      <trkpt lat="53.02282" lon="5.83585">
        <ele>48</ele>
        <time>2024-07-07T09:20:34.952Z</time>
      </trkpt>
      <trkpt lat="53.02294" lon="5.8358">
        <ele>48</ele>
        <time>2024-07-07T09:20:36.918Z</time>
      </trkpt>
      <trkpt lat="53.02306" lon="5.83575">
        <ele>48</ele>
        <time>2024-07-07T09:20:38.941Z</time>
      </trkpt>
      <trkpt lat="53.02318" lon="5.83569">
        <ele>48</ele>
        <time>2024-07-07T09:20:40.920Z</time>
      </trkpt>
      <trkpt lat="53.0233" lon="5.83564">
        <ele>48</ele>
        <time>2024-07-07T09:20:42.939Z</time>
      </trkpt>
      <trkpt lat="53.02341" lon="5.83559">
        <ele>48</ele>
        <time>2024-07-07T09:20:44.932Z</time>
      </trkpt>
      <trkpt lat="53.02353" lon="5.83553">
        <ele>48</ele>
        <time>2024-07-07T09:20:46.938Z</time>
      </trkpt>
      <trkpt lat="53.02364" lon="5.83549">
        <ele>48</ele>
        <time>2024-07-07T09:20:48.943Z</time>
      </trkpt>
      <trkpt lat="53.02375" lon="5.83544">
        <ele>47.993354</ele>
        <time>2024-07-07T09:20:50.940Z</time>
      </trkpt>
      <trkpt lat="53.02387" lon="5.83539">
        <ele>47.971197</ele>
        <time>2024-07-07T09:20:52.942Z</time>
      </trkpt>
      <trkpt lat="53.024" lon="5.83534">
        <ele>47.948867</ele>
        <time>2024-07-07T09:20:54.943Z</time>
      </trkpt>
      <trkpt lat="53.02412" lon="5.83529">
        <ele>47.926658</ele>
        <time>2024-07-07T09:20:56.918Z</time>
      </trkpt>
      <trkpt lat="53.02424" lon="5.83524">
        <ele>47.904427</ele>
        <time>2024-07-07T09:20:58.928Z</time>
      </trkpt>
      <trkpt lat="53.02436" lon="5.83519">
        <ele>47.882148</ele>
        <time>2024-07-07T09:21:00.939Z</time>
      </trkpt>
      <trkpt lat="53.02448" lon="5.83514">
        <ele>47.860825</ele>
        <time>2024-07-07T09:21:02.945Z</time>
      </trkpt>
      <trkpt lat="53.02459" lon="5.83509">
        <ele>47.83967</ele>
        <time>2024-07-07T09:21:04.938Z</time>
      </trkpt>
      <trkpt lat="53.0247" lon="5.83504">
        <ele>47.818797</ele>
        <time>2024-07-07T09:21:06.947Z</time>
      </trkpt>
      <trkpt lat="53.02482" lon="5.83499">
        <ele>47.798097</ele>
        <time>2024-07-07T09:21:08.931Z</time>
      </trkpt>
      <trkpt lat="53.02493" lon="5.83495">
        <ele>47.777742</ele>
        <time>2024-07-07T09:21:10.947Z</time>
      </trkpt>
      <trkpt lat="53.02504" lon="5.8349">
        <ele>47.757015</ele>
        <time>2024-07-07T09:21:12.941Z</time>
      </trkpt>
      <trkpt lat="53.02516" lon="5.83485">
        <ele>47.73586</ele>
        <time>2024-07-07T09:21:14.956Z</time>
      </trkpt>
      <trkpt lat="53.02527" lon="5.83479">
        <ele>47.715477</ele>
        <time>2024-07-07T09:21:16.938Z</time>
      </trkpt>
      <trkpt lat="53.02538" lon="5.83476">
        <ele>47.695708</ele>
        <time>2024-07-07T09:21:18.948Z</time>
      </trkpt>
      <trkpt lat="53.02548" lon="5.83471">
        <ele>47.684932</ele>
        <time>2024-07-07T09:21:20.942Z</time>
      </trkpt>
      <trkpt lat="53.02559" lon="5.83466">
        <ele>47.704826</ele>
        <time>2024-07-07T09:21:22.945Z</time>
      </trkpt>
      <trkpt lat="53.02571" lon="5.83461">
        <ele>47.725662</ele>
        <time>2024-07-07T09:21:24.929Z</time>
      </trkpt>
      <trkpt lat="53.02582" lon="5.83457">
        <ele>47.745801</ele>
        <time>2024-07-07T09:21:26.956Z</time>
      </trkpt>
      <trkpt lat="53.02593" lon="5.83453">
        <ele>47.765867</ele>
        <time>2024-07-07T09:21:28.941Z</time>
      </trkpt>
      <trkpt lat="53.02603" lon="5.83448">
        <ele>47.785878</ele>
        <time>2024-07-07T09:21:30.938Z</time>
      </trkpt>
      <trkpt lat="53.02614" lon="5.83443">
        <ele>47.805889</ele>
        <time>2024-07-07T09:21:32.944Z</time>
      </trkpt>
      <trkpt lat="53.02625" lon="5.83439">
        <ele>47.825675</ele>
        <time>2024-07-07T09:21:34.939Z</time>
      </trkpt>
      <trkpt lat="53.02635" lon="5.83434">
        <ele>47.844601</ele>
        <time>2024-07-07T09:21:36.937Z</time>
      </trkpt>
      <trkpt lat="53.02646" lon="5.8343">
        <ele>47.863526</ele>
        <time>2024-07-07T09:21:38.936Z</time>
      </trkpt>
      <trkpt lat="53.02656" lon="5.83425">
        <ele>47.882136</ele>
        <time>2024-07-07T09:21:40.937Z</time>
      </trkpt>
      <trkpt lat="53.02666" lon="5.83423">
        <ele>47.900282</ele>
        <time>2024-07-07T09:21:42.932Z</time>
      </trkpt>
      <trkpt lat="53.02676" lon="5.83421">
        <ele>47.918135</ele>
        <time>2024-07-07T09:21:44.935Z</time>
      </trkpt>
      <trkpt lat="53.02686" lon="5.8342">
        <ele>47.936269</ele>
        <time>2024-07-07T09:21:46.943Z</time>
      </trkpt>
      <trkpt lat="53.02696" lon="5.83423">
        <ele>47.954195</ele>
        <time>2024-07-07T09:21:48.929Z</time>
      </trkpt>
      <trkpt lat="53.02706" lon="5.83425">
        <ele>47.972297</ele>
        <time>2024-07-07T09:21:50.944Z</time>
      </trkpt>
      <trkpt lat="53.02717" lon="5.83426">
        <ele>47.990858</ele>
        <time>2024-07-07T09:21:52.934Z</time>
      </trkpt>
      <trkpt lat="53.02727" lon="5.83428">
        <ele>48</ele>
        <time>2024-07-07T09:21:54.952Z</time>
      </trkpt>
      <trkpt lat="53.02737" lon="5.8343">
        <ele>48</ele>
        <time>2024-07-07T09:21:56.941Z</time>
      </trkpt>
      <trkpt lat="53.02747" lon="5.83433">
        <ele>48</ele>
        <time>2024-07-07T09:21:58.941Z</time>
      </trkpt>
      <trkpt lat="53.02759" lon="5.83434">
        <ele>48</ele>
        <time>2024-07-07T09:22:00.938Z</time>
      </trkpt>
      <trkpt lat="53.0277" lon="5.83437">
        <ele>48</ele>
        <time>2024-07-07T09:22:02.941Z</time>
      </trkpt>
      <trkpt lat="53.0278" lon="5.8344">
        <ele>48</ele>
        <time>2024-07-07T09:22:04.932Z</time>
      </trkpt>
      <trkpt lat="53.02791" lon="5.83443">
        <ele>48</ele>
        <time>2024-07-07T09:22:06.928Z</time>
      </trkpt>
      <trkpt lat="53.02802" lon="5.83444">
        <ele>48</ele>
        <time>2024-07-07T09:22:08.949Z</time>
      </trkpt>
      <trkpt lat="53.02812" lon="5.83447">
        <ele>48</ele>
        <time>2024-07-07T09:22:10.914Z</time>
      </trkpt>
      <trkpt lat="53.02821" lon="5.83449">
        <ele>48</ele>
        <time>2024-07-07T09:22:12.919Z</time>
      </trkpt>
      <trkpt lat="53.02831" lon="5.83451">
        <ele>48</ele>
        <time>2024-07-07T09:22:14.940Z</time>
      </trkpt>
      <trkpt lat="53.02841" lon="5.83453">
        <ele>48</ele>
        <time>2024-07-07T09:22:16.944Z</time>
      </trkpt>
      <trkpt lat="53.02851" lon="5.83456">
        <ele>48</ele>
        <time>2024-07-07T09:22:18.956Z</time>
      </trkpt>
      <trkpt lat="53.02861" lon="5.83458">
        <ele>48</ele>
        <time>2024-07-07T09:22:20.943Z</time>
      </trkpt>
      <trkpt lat="53.02872" lon="5.8346">
        <ele>48</ele>
        <time>2024-07-07T09:22:22.964Z</time>
      </trkpt>
      <trkpt lat="53.02882" lon="5.83462">
        <ele>48</ele>
        <time>2024-07-07T09:22:24.929Z</time>
      </trkpt>
      <trkpt lat="53.02892" lon="5.83464">
        <ele>48</ele>
        <time>2024-07-07T09:22:26.933Z</time>
      </trkpt>
      <trkpt lat="53.02903" lon="5.83467">
        <ele>47.974515</ele>
        <time>2024-07-07T09:22:28.936Z</time>
      </trkpt>
      <trkpt lat="53.02914" lon="5.83469">
        <ele>47.887929</ele>
        <time>2024-07-07T09:22:30.944Z</time>
      </trkpt>
      <trkpt lat="53.02925" lon="5.83471">
        <ele>47.80095</ele>
        <time>2024-07-07T09:22:32.938Z</time>
      </trkpt>
      <trkpt lat="53.02936" lon="5.83474">
        <ele>47.714159</ele>
        <time>2024-07-07T09:22:34.951Z</time>
      </trkpt>
      <trkpt lat="53.02947" lon="5.83476">
        <ele>47.627756</ele>
        <time>2024-07-07T09:22:36.947Z</time>
      </trkpt>
      <trkpt lat="53.02958" lon="5.83478">
        <ele>47.540823</ele>
        <time>2024-07-07T09:22:38.935Z</time>
      </trkpt>
      <trkpt lat="53.02969" lon="5.8348">
        <ele>47.454361</ele>
        <time>2024-07-07T09:22:40.938Z</time>
      </trkpt>
      <trkpt lat="53.0298" lon="5.83483">
        <ele>47.366216</ele>
        <time>2024-07-07T09:22:42.940Z</time>
      </trkpt>
      <trkpt lat="53.02991" lon="5.83486">
        <ele>47.279276</ele>
        <time>2024-07-07T09:22:44.939Z</time>
      </trkpt>
      <trkpt lat="53.03001" lon="5.83488">
        <ele>47.195807</ele>
        <time>2024-07-07T09:22:46.947Z</time>
      </trkpt>
      <trkpt lat="53.03012" lon="5.8349">
        <ele>47.112744</ele>
        <time>2024-07-07T09:22:48.931Z</time>
      </trkpt>
      <trkpt lat="53.03022" lon="5.83492">
        <ele>47.031679</ele>
        <time>2024-07-07T09:22:50.937Z</time>
      </trkpt>
      <trkpt lat="53.03031" lon="5.83494">
        <ele>46.957165</ele>
        <time>2024-07-07T09:22:52.937Z</time>
      </trkpt>
      <trkpt lat="53.03041" lon="5.83496">
        <ele>46.881194</ele>
        <time>2024-07-07T09:22:54.958Z</time>
      </trkpt>
      <trkpt lat="53.0305" lon="5.835">
        <ele>46.806119</ele>
        <time>2024-07-07T09:22:56.940Z</time>
      </trkpt>
      <trkpt lat="53.03059" lon="5.83506">
        <ele>46.73182</ele>
        <time>2024-07-07T09:22:58.946Z</time>
      </trkpt>
      <trkpt lat="53.0307" lon="5.83518">
        <ele>46.629403</ele>
        <time>2024-07-07T09:23:01.939Z</time>
      </trkpt>
      <trkpt lat="53.03077" lon="5.83531">
        <ele>46.58779</ele>
        <time>2024-07-07T09:23:05.940Z</time>
      </trkpt>
      <trkpt lat="53.03084" lon="5.83542">
        <ele>46.593913</ele>
        <time>2024-07-07T09:23:14.930Z</time>
      </trkpt>
      <trkpt lat="53.03084" lon="5.83555">
        <ele>46.599151</ele>
        <time>2024-07-07T09:30:55.532Z</time>
      </trkpt>
      <trkpt lat="53.03092" lon="5.83564">
        <ele>46.605754</ele>
        <time>2024-07-07T09:54:27.935Z</time>
      </trkpt>
      <trkpt lat="53.03093" lon="5.83559">
        <ele>46.60785</ele>
        <time>2024-07-07T09:54:43.711Z</time>
      </trkpt>
      <trkpt lat="53.03145" lon="5.83663">
        <ele>46.660131</ele>
        <time>2024-07-07T09:56:17.930Z</time>
      </trkpt>
      <trkpt lat="53.0315" lon="5.83674">
        <ele>46.666128</ele>
        <time>2024-07-07T09:56:27.940Z</time>
      </trkpt>
      <trkpt lat="53.03156" lon="5.8369">
        <ele>46.673093</ele>
        <time>2024-07-07T09:56:32.934Z</time>
      </trkpt>
      <trkpt lat="53.03163" lon="5.83703">
        <ele>46.68029</ele>
        <time>2024-07-07T09:56:36.934Z</time>
      </trkpt>
      <trkpt lat="53.0317" lon="5.83717">
        <ele>46.68713</ele>
        <time>2024-07-07T09:56:39.955Z</time>
      </trkpt>
      <trkpt lat="53.03177" lon="5.83732">
        <ele>46.694456</ele>
        <time>2024-07-07T09:56:42.933Z</time>
      </trkpt>
      <trkpt lat="53.03184" lon="5.83747">
        <ele>46.704273</ele>
        <time>2024-07-07T09:56:45.950Z</time>
      </trkpt>
      <trkpt lat="53.03192" lon="5.83762">
        <ele>46.738451</ele>
        <time>2024-07-07T09:56:48.944Z</time>
      </trkpt>
      <trkpt lat="53.032" lon="5.83778">
        <ele>46.774678</ele>
        <time>2024-07-07T09:56:51.933Z</time>
      </trkpt>
      <trkpt lat="53.03207" lon="5.83794">
        <ele>46.810858</ele>
        <time>2024-07-07T09:56:54.941Z</time>
      </trkpt>
      <trkpt lat="53.03213" lon="5.83806">
        <ele>46.837123</ele>
        <time>2024-07-07T09:56:56.932Z</time>
      </trkpt>
      <trkpt lat="53.03219" lon="5.83818">
        <ele>46.863609</ele>
        <time>2024-07-07T09:56:58.950Z</time>
      </trkpt>
      <trkpt lat="53.03227" lon="5.83835">
        <ele>46.901977</ele>
        <time>2024-07-07T09:57:01.948Z</time>
      </trkpt>
      <trkpt lat="53.03236" lon="5.83852">
        <ele>46.941479</ele>
        <time>2024-07-07T09:57:04.934Z</time>
      </trkpt>
      <trkpt lat="53.03241" lon="5.83864">
        <ele>46.967921</ele>
        <time>2024-07-07T09:57:06.911Z</time>
      </trkpt>
      <trkpt lat="53.03247" lon="5.83876">
        <ele>46.995233</ele>
        <time>2024-07-07T09:57:08.937Z</time>
      </trkpt>
      <trkpt lat="53.03253" lon="5.83888">
        <ele>47.021497</ele>
        <time>2024-07-07T09:57:10.942Z</time>
      </trkpt>
      <trkpt lat="53.03258" lon="5.839">
        <ele>47.048575</ele>
        <time>2024-07-07T09:57:12.935Z</time>
      </trkpt>
      <trkpt lat="53.03264" lon="5.83912">
        <ele>47.075699</ele>
        <time>2024-07-07T09:57:14.933Z</time>
      </trkpt>
      <trkpt lat="53.0327" lon="5.83925">
        <ele>47.10406</ele>
        <time>2024-07-07T09:57:16.944Z</time>
      </trkpt>
      <trkpt lat="53.03276" lon="5.83938">
        <ele>47.132561</ele>
        <time>2024-07-07T09:57:18.935Z</time>
      </trkpt>
      <trkpt lat="53.03282" lon="5.83951">
        <ele>47.160094</ele>
        <time>2024-07-07T09:57:20.951Z</time>
      </trkpt>
      <trkpt lat="53.03288" lon="5.83963">
        <ele>47.18759</ele>
        <time>2024-07-07T09:57:22.946Z</time>
      </trkpt>
      <trkpt lat="53.03294" lon="5.83976">
        <ele>47.215916</ele>
        <time>2024-07-07T09:57:24.924Z</time>
      </trkpt>
      <trkpt lat="53.03299" lon="5.83988">
        <ele>47.220383</ele>
        <time>2024-07-07T09:57:26.934Z</time>
      </trkpt>
      <trkpt lat="53.03305" lon="5.84001">
        <ele>47.21336</ele>
        <time>2024-07-07T09:57:28.939Z</time>
      </trkpt>
      <trkpt lat="53.03312" lon="5.84014">
        <ele>47.206428</ele>
        <time>2024-07-07T09:57:30.940Z</time>
      </trkpt>
      <trkpt lat="53.03317" lon="5.84026">
        <ele>47.199852</ele>
        <time>2024-07-07T09:57:32.937Z</time>
      </trkpt>
      <trkpt lat="53.03324" lon="5.84038">
        <ele>47.19292</ele>
        <time>2024-07-07T09:57:34.952Z</time>
      </trkpt>
      <trkpt lat="53.03329" lon="5.84051">
        <ele>47.186076</ele>
        <time>2024-07-07T09:57:36.914Z</time>
      </trkpt>
      <trkpt lat="53.03336" lon="5.84062">
        <ele>47.179362</ele>
        <time>2024-07-07T09:57:38.926Z</time>
      </trkpt>
      <trkpt lat="53.03342" lon="5.84075">
        <ele>47.17253</ele>
        <time>2024-07-07T09:57:40.938Z</time>
      </trkpt>
      <trkpt lat="53.03348" lon="5.84087">
        <ele>47.165656</ele>
        <time>2024-07-07T09:57:42.945Z</time>
      </trkpt>
      <trkpt lat="53.03354" lon="5.84099">
        <ele>47.158847</ele>
        <time>2024-07-07T09:57:44.946Z</time>
      </trkpt>
      <trkpt lat="53.03361" lon="5.84112">
        <ele>47.15189</ele>
        <time>2024-07-07T09:57:46.935Z</time>
      </trkpt>
      <trkpt lat="53.03367" lon="5.84124">
        <ele>47.144935</ele>
        <time>2024-07-07T09:57:48.933Z</time>
      </trkpt>
      <trkpt lat="53.03374" lon="5.84137">
        <ele>47.137457</ele>
        <time>2024-07-07T09:57:50.939Z</time>
      </trkpt>
      <trkpt lat="53.0338" lon="5.8415">
        <ele>47.130134</ele>
        <time>2024-07-07T09:57:52.947Z</time>
      </trkpt>
      <trkpt lat="53.03387" lon="5.84164">
        <ele>47.122678</ele>
        <time>2024-07-07T09:57:54.948Z</time>
      </trkpt>
      <trkpt lat="53.03394" lon="5.84177">
        <ele>47.115086</ele>
        <time>2024-07-07T09:57:56.932Z</time>
      </trkpt>
      <trkpt lat="53.034" lon="5.84191">
        <ele>47.107675</ele>
        <time>2024-07-07T09:57:58.937Z</time>
      </trkpt>
      <trkpt lat="53.03407" lon="5.84204">
        <ele>47.100207</ele>
        <time>2024-07-07T09:58:00.938Z</time>
      </trkpt>
      <trkpt lat="53.03414" lon="5.84218">
        <ele>47.077596</ele>
        <time>2024-07-07T09:58:02.956Z</time>
      </trkpt>
      <trkpt lat="53.03421" lon="5.84231">
        <ele>47.042253</ele>
        <time>2024-07-07T09:58:04.949Z</time>
      </trkpt>
      <trkpt lat="53.03428" lon="5.84246">
        <ele>47.004966</ele>
        <time>2024-07-07T09:58:06.933Z</time>
      </trkpt>
      <trkpt lat="53.03435" lon="5.8426">
        <ele>46.969455</ele>
        <time>2024-07-07T09:58:08.948Z</time>
      </trkpt>
      <trkpt lat="53.03443" lon="5.84274">
        <ele>46.933374</ele>
        <time>2024-07-07T09:58:10.931Z</time>
      </trkpt>
      <trkpt lat="53.03449" lon="5.84288">
        <ele>46.898429</ele>
        <time>2024-07-07T09:58:12.942Z</time>
      </trkpt>
      <trkpt lat="53.03456" lon="5.84301">
        <ele>46.863427</ele>
        <time>2024-07-07T09:58:14.928Z</time>
      </trkpt>
      <trkpt lat="53.03463" lon="5.84316">
        <ele>46.826547</ele>
        <time>2024-07-07T09:58:16.952Z</time>
      </trkpt>
      <trkpt lat="53.0347" lon="5.84331">
        <ele>46.79028</ele>
        <time>2024-07-07T09:58:18.917Z</time>
      </trkpt>
      <trkpt lat="53.03477" lon="5.84345">
        <ele>46.753554</ele>
        <time>2024-07-07T09:58:20.936Z</time>
      </trkpt>
      <trkpt lat="53.03485" lon="5.84359">
        <ele>46.717769</ele>
        <time>2024-07-07T09:58:22.936Z</time>
      </trkpt>
      <trkpt lat="53.03492" lon="5.84373">
        <ele>46.681985</ele>
        <time>2024-07-07T09:58:24.933Z</time>
      </trkpt>
      <trkpt lat="53.03499" lon="5.84387">
        <ele>46.645986</ele>
        <time>2024-07-07T09:58:26.936Z</time>
      </trkpt>
      <trkpt lat="53.03506" lon="5.84401">
        <ele>46.609307</ele>
        <time>2024-07-07T09:58:28.926Z</time>
      </trkpt>
      <trkpt lat="53.03513" lon="5.84416">
        <ele>46.573192</ele>
        <time>2024-07-07T09:58:30.950Z</time>
      </trkpt>
      <trkpt lat="53.0352" lon="5.8443">
        <ele>46.537681</ele>
        <time>2024-07-07T09:58:32.934Z</time>
      </trkpt>
      <trkpt lat="53.03527" lon="5.84444">
        <ele>46.511828</ele>
        <time>2024-07-07T09:58:34.932Z</time>
      </trkpt>
      <trkpt lat="53.03534" lon="5.84457">
        <ele>46.515591</ele>
        <time>2024-07-07T09:58:36.934Z</time>
      </trkpt>
      <trkpt lat="53.03542" lon="5.84471">
        <ele>46.519423</ele>
        <time>2024-07-07T09:58:38.934Z</time>
      </trkpt>
      <trkpt lat="53.03549" lon="5.84485">
        <ele>46.523234</ele>
        <time>2024-07-07T09:58:40.937Z</time>
      </trkpt>
      <trkpt lat="53.03556" lon="5.84499">
        <ele>46.527028</ele>
        <time>2024-07-07T09:58:42.948Z</time>
      </trkpt>
      <trkpt lat="53.03563" lon="5.84513">
        <ele>46.530822</ele>
        <time>2024-07-07T09:58:44.936Z</time>
      </trkpt>
      <trkpt lat="53.0357" lon="5.84527">
        <ele>46.534547</ele>
        <time>2024-07-07T09:58:46.936Z</time>
      </trkpt>
      <trkpt lat="53.03577" lon="5.84541">
        <ele>46.538214</ele>
        <time>2024-07-07T09:58:48.943Z</time>
      </trkpt>
      <trkpt lat="53.03584" lon="5.84555">
        <ele>46.541985</ele>
        <time>2024-07-07T09:58:50.933Z</time>
      </trkpt>
      <trkpt lat="53.03591" lon="5.84569">
        <ele>46.545689</ele>
        <time>2024-07-07T09:58:52.952Z</time>
      </trkpt>
      <trkpt lat="53.03597" lon="5.84583">
        <ele>46.54934</ele>
        <time>2024-07-07T09:58:54.948Z</time>
      </trkpt>
      <trkpt lat="53.03605" lon="5.84596">
        <ele>46.553102</ele>
        <time>2024-07-07T09:58:56.945Z</time>
      </trkpt>
      <trkpt lat="53.03612" lon="5.84611">
        <ele>46.557</ele>
        <time>2024-07-07T09:58:58.945Z</time>
      </trkpt>
      <trkpt lat="53.03619" lon="5.84624">
        <ele>46.560701</ele>
        <time>2024-07-07T09:59:00.935Z</time>
      </trkpt>
      <trkpt lat="53.03626" lon="5.84638">
        <ele>46.564497</ele>
        <time>2024-07-07T09:59:02.936Z</time>
      </trkpt>
      <trkpt lat="53.03633" lon="5.84653">
        <ele>46.56833</ele>
        <time>2024-07-07T09:59:04.939Z</time>
      </trkpt>
      <trkpt lat="53.0364" lon="5.84667">
        <ele>46.572066</ele>
        <time>2024-07-07T09:59:06.935Z</time>
      </trkpt>
      <trkpt lat="53.03647" lon="5.84681">
        <ele>46.568438</ele>
        <time>2024-07-07T09:59:08.927Z</time>
      </trkpt>
      <trkpt lat="53.03654" lon="5.84695">
        <ele>46.563401</ele>
        <time>2024-07-07T09:59:10.937Z</time>
      </trkpt>
      <trkpt lat="53.03661" lon="5.84708">
        <ele>46.558368</ele>
        <time>2024-07-07T09:59:12.922Z</time>
      </trkpt>
      <trkpt lat="53.03668" lon="5.84723">
        <ele>46.553238</ele>
        <time>2024-07-07T09:59:14.960Z</time>
      </trkpt>
      <trkpt lat="53.03675" lon="5.84737">
        <ele>46.548111</ele>
        <time>2024-07-07T09:59:16.932Z</time>
      </trkpt>
      <trkpt lat="53.03682" lon="5.84751">
        <ele>46.543018</ele>
        <time>2024-07-07T09:59:18.924Z</time>
      </trkpt>
      <trkpt lat="53.03689" lon="5.84765">
        <ele>46.537984</ele>
        <time>2024-07-07T09:59:20.934Z</time>
      </trkpt>
      <trkpt lat="53.03696" lon="5.84779">
        <ele>46.532876</ele>
        <time>2024-07-07T09:59:22.931Z</time>
      </trkpt>
      <trkpt lat="53.03704" lon="5.84788">
        <ele>46.528371</ele>
        <time>2024-07-07T09:59:24.932Z</time>
      </trkpt>
      <trkpt lat="53.03714" lon="5.84787">
        <ele>46.524177</ele>
        <time>2024-07-07T09:59:26.918Z</time>
      </trkpt>
      <trkpt lat="53.03722" lon="5.84781">
        <ele>46.519808</ele>
        <time>2024-07-07T09:59:28.913Z</time>
      </trkpt>
      <trkpt lat="53.03731" lon="5.84773">
        <ele>46.515354</ele>
        <time>2024-07-07T09:59:30.919Z</time>
      </trkpt>
      <trkpt lat="53.03739" lon="5.84765">
        <ele>46.510967</ele>
        <time>2024-07-07T09:59:32.933Z</time>
      </trkpt>
      <trkpt lat="53.03747" lon="5.84756">
        <ele>46.506468</ele>
        <time>2024-07-07T09:59:34.931Z</time>
      </trkpt>
      <trkpt lat="53.03755" lon="5.84748">
        <ele>46.501986</ele>
        <time>2024-07-07T09:59:36.933Z</time>
      </trkpt>
      <trkpt lat="53.03764" lon="5.84739">
        <ele>46.497398</ele>
        <time>2024-07-07T09:59:38.934Z</time>
      </trkpt>
      <trkpt lat="53.03773" lon="5.84731">
        <ele>46.492792</ele>
        <time>2024-07-07T09:59:40.953Z</time>
      </trkpt>
      <trkpt lat="53.03781" lon="5.84722">
        <ele>46.4949</ele>
        <time>2024-07-07T09:59:42.936Z</time>
      </trkpt>
      <trkpt lat="53.03789" lon="5.84715">
        <ele>46.507911</ele>
        <time>2024-07-07T09:59:44.938Z</time>
      </trkpt>
      <trkpt lat="53.03797" lon="5.84707">
        <ele>46.520766</ele>
        <time>2024-07-07T09:59:46.938Z</time>
      </trkpt>
      <trkpt lat="53.03805" lon="5.84698">
        <ele>46.533838</ele>
        <time>2024-07-07T09:59:48.933Z</time>
      </trkpt>
      <trkpt lat="53.03814" lon="5.84691">
        <ele>46.54701</ele>
        <time>2024-07-07T09:59:50.933Z</time>
      </trkpt>
      <trkpt lat="53.03822" lon="5.84682">
        <ele>46.560243</ele>
        <time>2024-07-07T09:59:52.940Z</time>
      </trkpt>
      <trkpt lat="53.0383" lon="5.84674">
        <ele>46.573374</ele>
        <time>2024-07-07T09:59:54.927Z</time>
      </trkpt>
      <trkpt lat="53.03838" lon="5.84666">
        <ele>46.586446</ele>
        <time>2024-07-07T09:59:56.939Z</time>
      </trkpt>
      <trkpt lat="53.03846" lon="5.84658">
        <ele>46.599618</ele>
        <time>2024-07-07T09:59:58.938Z</time>
      </trkpt>
      <trkpt lat="53.03854" lon="5.8465">
        <ele>46.612151</ele>
        <time>2024-07-07T10:00:00.931Z</time>
      </trkpt>
      <trkpt lat="53.03862" lon="5.84642">
        <ele>46.625209</ele>
        <time>2024-07-07T10:00:02.937Z</time>
      </trkpt>
      <trkpt lat="53.0387" lon="5.84635">
        <ele>46.638022</ele>
        <time>2024-07-07T10:00:04.947Z</time>
      </trkpt>
      <trkpt lat="53.03879" lon="5.84627">
        <ele>46.651157</ele>
        <time>2024-07-07T10:00:06.935Z</time>
      </trkpt>
      <trkpt lat="53.0389" lon="5.84615">
        <ele>46.669915</ele>
        <time>2024-07-07T10:00:09.951Z</time>
      </trkpt>
      <trkpt lat="53.03902" lon="5.84604">
        <ele>46.688363</ele>
        <time>2024-07-07T10:00:12.950Z</time>
      </trkpt>
      <trkpt lat="53.0391" lon="5.84596">
        <ele>46.701134</ele>
        <time>2024-07-07T10:00:14.941Z</time>
      </trkpt>
      <trkpt lat="53.03918" lon="5.84588">
        <ele>46.713947</ele>
        <time>2024-07-07T10:00:16.936Z</time>
      </trkpt>
      <trkpt lat="53.03926" lon="5.84581">
        <ele>46.72664</ele>
        <time>2024-07-07T10:00:18.919Z</time>
      </trkpt>
      <trkpt lat="53.03937" lon="5.8457">
        <ele>46.735339</ele>
        <time>2024-07-07T10:00:21.937Z</time>
      </trkpt>
      <trkpt lat="53.03945" lon="5.84563">
        <ele>46.729144</ele>
        <time>2024-07-07T10:00:23.934Z</time>
      </trkpt>
      <trkpt lat="53.03953" lon="5.84556">
        <ele>46.722805</ele>
        <time>2024-07-07T10:00:25.932Z</time>
      </trkpt>
      <trkpt lat="53.03962" lon="5.84549">
        <ele>46.716493</ele>
        <time>2024-07-07T10:00:27.929Z</time>
      </trkpt>
      <trkpt lat="53.0397" lon="5.84543">
        <ele>46.710264</ele>
        <time>2024-07-07T10:00:29.925Z</time>
      </trkpt>
      <trkpt lat="53.03979" lon="5.84539">
        <ele>46.704064</ele>
        <time>2024-07-07T10:00:31.943Z</time>
      </trkpt>
      <trkpt lat="53.03991" lon="5.84534">
        <ele>46.695175</ele>
        <time>2024-07-07T10:00:34.931Z</time>
      </trkpt>
      <trkpt lat="53.04004" lon="5.84531">
        <ele>46.686167</ele>
        <time>2024-07-07T10:00:37.924Z</time>
      </trkpt>
      <trkpt lat="53.04017" lon="5.84531">
        <ele>46.677491</ele>
        <time>2024-07-07T10:00:40.935Z</time>
      </trkpt>
      <trkpt lat="53.04026" lon="5.84533">
        <ele>46.671323</ele>
        <time>2024-07-07T10:00:42.949Z</time>
      </trkpt>
      <trkpt lat="53.04039" lon="5.84534">
        <ele>46.662285</ele>
        <time>2024-07-07T10:00:45.944Z</time>
      </trkpt>
      <trkpt lat="53.04052" lon="5.84536">
        <ele>46.653311</ele>
        <time>2024-07-07T10:00:48.920Z</time>
      </trkpt>
      <trkpt lat="53.04061" lon="5.84537">
        <ele>46.647086</ele>
        <time>2024-07-07T10:00:50.931Z</time>
      </trkpt>
      <trkpt lat="53.04075" lon="5.84538">
        <ele>46.63811</ele>
        <time>2024-07-07T10:00:53.938Z</time>
      </trkpt>
      <trkpt lat="53.04087" lon="5.84539">
        <ele>46.629283</ele>
        <time>2024-07-07T10:00:56.933Z</time>
      </trkpt>
      <trkpt lat="53.041" lon="5.84541">
        <ele>46.620583</ele>
        <time>2024-07-07T10:00:59.944Z</time>
      </trkpt>
      <trkpt lat="53.04111" lon="5.84542">
        <ele>46.614656</ele>
        <time>2024-07-07T10:01:02.934Z</time>
      </trkpt>
      <trkpt lat="53.04123" lon="5.84539">
        <ele>46.611474</ele>
        <time>2024-07-07T10:01:06.920Z</time>
      </trkpt>
      <trkpt lat="53.04133" lon="5.84534">
        <ele>46.608463</ele>
        <time>2024-07-07T10:01:10.930Z</time>
      </trkpt>
      <trkpt lat="53.04144" lon="5.84535">
        <ele>46.605568</ele>
        <time>2024-07-07T10:01:13.938Z</time>
      </trkpt>
      <trkpt lat="53.04155" lon="5.84536">
        <ele>46.602669</ele>
        <time>2024-07-07T10:01:16.936Z</time>
      </trkpt>
      <trkpt lat="53.04167" lon="5.84537">
        <ele>46.599452</ele>
        <time>2024-07-07T10:01:19.935Z</time>
      </trkpt>
      <trkpt lat="53.04179" lon="5.84539">
        <ele>46.596118</ele>
        <time>2024-07-07T10:01:22.931Z</time>
      </trkpt>
      <trkpt lat="53.04193" lon="5.84539">
        <ele>46.592502</ele>
        <time>2024-07-07T10:01:25.951Z</time>
      </trkpt>
      <trkpt lat="53.04202" lon="5.84538">
        <ele>46.590089</ele>
        <time>2024-07-07T10:01:27.941Z</time>
      </trkpt>
      <trkpt lat="53.04211" lon="5.84534">
        <ele>46.587606</ele>
        <time>2024-07-07T10:01:29.944Z</time>
      </trkpt>
      <trkpt lat="53.0422" lon="5.84528">
        <ele>46.585101</ele>
        <time>2024-07-07T10:01:31.935Z</time>
      </trkpt>
      <trkpt lat="53.04228" lon="5.8452">
        <ele>46.582584</ele>
        <time>2024-07-07T10:01:33.934Z</time>
      </trkpt>
      <trkpt lat="53.04235" lon="5.84511">
        <ele>46.580051</ele>
        <time>2024-07-07T10:01:35.941Z</time>
      </trkpt>
      <trkpt lat="53.04243" lon="5.84503">
        <ele>46.577527</ele>
        <time>2024-07-07T10:01:37.939Z</time>
      </trkpt>
      <trkpt lat="53.04251" lon="5.84494">
        <ele>46.57498</ele>
        <time>2024-07-07T10:01:39.921Z</time>
      </trkpt>
      <trkpt lat="53.04259" lon="5.84485">
        <ele>46.572549</ele>
        <time>2024-07-07T10:01:41.942Z</time>
      </trkpt>
      <trkpt lat="53.04269" lon="5.84472">
        <ele>46.569053</ele>
        <time>2024-07-07T10:01:44.940Z</time>
      </trkpt>
      <trkpt lat="53.0428" lon="5.84459">
        <ele>46.572177</ele>
        <time>2024-07-07T10:01:47.932Z</time>
      </trkpt>
      <trkpt lat="53.04287" lon="5.84449">
        <ele>46.579121</ele>
        <time>2024-07-07T10:01:49.953Z</time>
      </trkpt>
      <trkpt lat="53.04296" lon="5.8444">
        <ele>46.586136</ele>
        <time>2024-07-07T10:01:51.956Z</time>
      </trkpt>
      <trkpt lat="53.04304" lon="5.84431">
        <ele>46.59334</ele>
        <time>2024-07-07T10:01:53.940Z</time>
      </trkpt>
      <trkpt lat="53.04312" lon="5.84421">
        <ele>46.600197</ele>
        <time>2024-07-07T10:01:55.930Z</time>
      </trkpt>
      <trkpt lat="53.0432" lon="5.84412">
        <ele>46.607365</ele>
        <time>2024-07-07T10:01:57.940Z</time>
      </trkpt>
      <trkpt lat="53.04328" lon="5.84402">
        <ele>46.614315</ele>
        <time>2024-07-07T10:01:59.929Z</time>
      </trkpt>
      <trkpt lat="53.04336" lon="5.84393">
        <ele>46.621293</ele>
        <time>2024-07-07T10:02:01.948Z</time>
      </trkpt>
      <trkpt lat="53.04344" lon="5.84385">
        <ele>46.628107</ele>
        <time>2024-07-07T10:02:03.950Z</time>
      </trkpt>
      <trkpt lat="53.04352" lon="5.84375">
        <ele>46.634924</ele>
        <time>2024-07-07T10:02:05.934Z</time>
      </trkpt>
      <trkpt lat="53.0436" lon="5.84366">
        <ele>46.641512</ele>
        <time>2024-07-07T10:02:07.944Z</time>
      </trkpt>
      <trkpt lat="53.04368" lon="5.84357">
        <ele>46.648504</ele>
        <time>2024-07-07T10:02:09.939Z</time>
      </trkpt>
      <trkpt lat="53.04375" lon="5.84348">
        <ele>46.655247</ele>
        <time>2024-07-07T10:02:11.942Z</time>
      </trkpt>
      <trkpt lat="53.04383" lon="5.84338">
        <ele>46.662104</ele>
        <time>2024-07-07T10:02:13.937Z</time>
      </trkpt>
      <trkpt lat="53.04391" lon="5.84329">
        <ele>46.6686</ele>
        <time>2024-07-07T10:02:15.948Z</time>
      </trkpt>
      <trkpt lat="53.044" lon="5.84314">
        <ele>46.677883</ele>
        <time>2024-07-07T10:02:18.944Z</time>
      </trkpt>
      <trkpt lat="53.04407" lon="5.84298">
        <ele>46.686085</ele>
        <time>2024-07-07T10:02:21.922Z</time>
      </trkpt>
      <trkpt lat="53.04415" lon="5.84288">
        <ele>46.69353</ele>
        <time>2024-07-07T10:02:24.918Z</time>
      </trkpt>
      <trkpt lat="53.04425" lon="5.84288">
        <ele>46.708136</ele>
        <time>2024-07-07T10:02:27.920Z</time>
      </trkpt>
      <trkpt lat="53.04435" lon="5.84291">
        <ele>46.725828</ele>
        <time>2024-07-07T10:02:30.933Z</time>
      </trkpt>
      <trkpt lat="53.04445" lon="5.84279">
        <ele>46.746519</ele>
        <time>2024-07-07T10:02:33.930Z</time>
      </trkpt>
      <trkpt lat="53.04456" lon="5.84268">
        <ele>46.768057</ele>
        <time>2024-07-07T10:02:36.934Z</time>
      </trkpt>
      <trkpt lat="53.04463" lon="5.84259">
        <ele>46.783537</ele>
        <time>2024-07-07T10:02:38.923Z</time>
      </trkpt>
      <trkpt lat="53.04474" lon="5.84247">
        <ele>46.80561</ele>
        <time>2024-07-07T10:02:41.936Z</time>
      </trkpt>
      <trkpt lat="53.04485" lon="5.84235">
        <ele>46.827486</ele>
        <time>2024-07-07T10:02:44.948Z</time>
      </trkpt>
      <trkpt lat="53.04495" lon="5.84221">
        <ele>46.849859</ele>
        <time>2024-07-07T10:02:47.942Z</time>
      </trkpt>
      <trkpt lat="53.04506" lon="5.84208">
        <ele>46.872535</ele>
        <time>2024-07-07T10:02:50.922Z</time>
      </trkpt>
      <trkpt lat="53.04517" lon="5.84197">
        <ele>46.894724</ele>
        <time>2024-07-07T10:02:53.953Z</time>
      </trkpt>
      <trkpt lat="53.04527" lon="5.84185">
        <ele>46.915386</ele>
        <time>2024-07-07T10:02:56.958Z</time>
      </trkpt>
      <trkpt lat="53.04538" lon="5.84172">
        <ele>46.937427</ele>
        <time>2024-07-07T10:02:59.945Z</time>
      </trkpt>
      <trkpt lat="53.04548" lon="5.84159">
        <ele>46.959692</ele>
        <time>2024-07-07T10:03:02.953Z</time>
      </trkpt>
      <trkpt lat="53.04559" lon="5.84146">
        <ele>46.982231</ele>
        <time>2024-07-07T10:03:05.947Z</time>
      </trkpt>
      <trkpt lat="53.04569" lon="5.84135">
        <ele>47</ele>
        <time>2024-07-07T10:03:08.941Z</time>
      </trkpt>
      <trkpt lat="53.04579" lon="5.84122">
        <ele>47</ele>
        <time>2024-07-07T10:03:11.917Z</time>
      </trkpt>
      <trkpt lat="53.04589" lon="5.84111">
        <ele>47</ele>
        <time>2024-07-07T10:03:14.947Z</time>
      </trkpt>
      <trkpt lat="53.04599" lon="5.84099">
        <ele>47</ele>
        <time>2024-07-07T10:03:17.942Z</time>
      </trkpt>
      <trkpt lat="53.04609" lon="5.84087">
        <ele>47</ele>
        <time>2024-07-07T10:03:20.956Z</time>
      </trkpt>
      <trkpt lat="53.04618" lon="5.84075">
        <ele>47</ele>
        <time>2024-07-07T10:03:23.952Z</time>
      </trkpt>
      <trkpt lat="53.04627" lon="5.84066">
        <ele>47</ele>
        <time>2024-07-07T10:03:26.920Z</time>
      </trkpt>
      <trkpt lat="53.04636" lon="5.84055">
        <ele>47</ele>
        <time>2024-07-07T10:03:29.942Z</time>
      </trkpt>
      <trkpt lat="53.04646" lon="5.84045">
        <ele>47</ele>
        <time>2024-07-07T10:03:32.942Z</time>
      </trkpt>
      <trkpt lat="53.04654" lon="5.84034">
        <ele>47</ele>
        <time>2024-07-07T10:03:35.938Z</time>
      </trkpt>
      <trkpt lat="53.04664" lon="5.84023">
        <ele>47</ele>
        <time>2024-07-07T10:03:38.930Z</time>
      </trkpt>
      <trkpt lat="53.04673" lon="5.8401">
        <ele>47</ele>
        <time>2024-07-07T10:03:41.944Z</time>
      </trkpt>
      <trkpt lat="53.04683" lon="5.83999">
        <ele>47</ele>
        <time>2024-07-07T10:03:44.952Z</time>
      </trkpt>
      <trkpt lat="53.04693" lon="5.83988">
        <ele>47</ele>
        <time>2024-07-07T10:03:47.914Z</time>
      </trkpt>
      <trkpt lat="53.04703" lon="5.83978">
        <ele>47</ele>
        <time>2024-07-07T10:03:50.956Z</time>
      </trkpt>
      <trkpt lat="53.04712" lon="5.83966">
        <ele>47</ele>
        <time>2024-07-07T10:03:53.935Z</time>
      </trkpt>
      <trkpt lat="53.04721" lon="5.83955">
        <ele>46.931771</ele>
        <time>2024-07-07T10:03:56.939Z</time>
      </trkpt>
      <trkpt lat="53.04731" lon="5.83944">
        <ele>46.835659</ele>
        <time>2024-07-07T10:03:59.948Z</time>
      </trkpt>
      <trkpt lat="53.0474" lon="5.83933">
        <ele>46.742684</ele>
        <time>2024-07-07T10:04:02.941Z</time>
      </trkpt>
      <trkpt lat="53.0475" lon="5.83922">
        <ele>46.646464</ele>
        <time>2024-07-07T10:04:05.943Z</time>
      </trkpt>
      <trkpt lat="53.04759" lon="5.83911">
        <ele>46.554242</ele>
        <time>2024-07-07T10:04:08.937Z</time>
      </trkpt>
      <trkpt lat="53.04767" lon="5.83902">
        <ele>46.471505</ele>
        <time>2024-07-07T10:04:11.933Z</time>
      </trkpt>
      <trkpt lat="53.04775" lon="5.83892">
        <ele>46.392789</ele>
        <time>2024-07-07T10:04:14.937Z</time>
      </trkpt>
      <trkpt lat="53.04782" lon="5.8388">
        <ele>46.309576</ele>
        <time>2024-07-07T10:04:18.915Z</time>
      </trkpt>
      <trkpt lat="53.04782" lon="5.83864">
        <ele>46.230474</ele>
        <time>2024-07-07T10:04:22.944Z</time>
      </trkpt>
      <trkpt lat="53.04776" lon="5.8385">
        <ele>46.147749</ele>
        <time>2024-07-07T10:04:26.937Z</time>
      </trkpt>
      <trkpt lat="53.04771" lon="5.83837">
        <ele>46.067902</ele>
        <time>2024-07-07T10:04:29.940Z</time>
      </trkpt>
      <trkpt lat="53.04765" lon="5.83824">
        <ele>45.9894</ele>
        <time>2024-07-07T10:04:32.936Z</time>
      </trkpt>
      <trkpt lat="53.0476" lon="5.8381">
        <ele>45.911005</ele>
        <time>2024-07-07T10:04:35.953Z</time>
      </trkpt>
      <trkpt lat="53.04756" lon="5.83795">
        <ele>45.830285</ele>
        <time>2024-07-07T10:04:38.931Z</time>
      </trkpt>
      <trkpt lat="53.04753" lon="5.83779">
        <ele>45.74863</ele>
        <time>2024-07-07T10:04:41.940Z</time>
      </trkpt>
      <trkpt lat="53.0475" lon="5.83762">
        <ele>45.6585</ele>
        <time>2024-07-07T10:04:44.951Z</time>
      </trkpt>
      <trkpt lat="53.04749" lon="5.83744">
        <ele>45.572626</ele>
        <time>2024-07-07T10:04:47.938Z</time>
      </trkpt>
      <trkpt lat="53.04746" lon="5.83727">
        <ele>45.535079</ele>
        <time>2024-07-07T10:04:50.939Z</time>
      </trkpt>
      <trkpt lat="53.04746" lon="5.8371">
        <ele>45.544766</ele>
        <time>2024-07-07T10:04:53.935Z</time>
      </trkpt>
      <trkpt lat="53.04746" lon="5.8369">
        <ele>45.555569</ele>
        <time>2024-07-07T10:04:56.936Z</time>
      </trkpt>
      <trkpt lat="53.04745" lon="5.83673">
        <ele>45.565494</ele>
        <time>2024-07-07T10:04:59.936Z</time>
      </trkpt>
      <trkpt lat="53.04744" lon="5.83655">
        <ele>45.57516</ele>
        <time>2024-07-07T10:05:02.954Z</time>
      </trkpt>
      <trkpt lat="53.04743" lon="5.83637">
        <ele>45.58516</ele>
        <time>2024-07-07T10:05:05.929Z</time>
      </trkpt>
      <trkpt lat="53.04742" lon="5.83622">
        <ele>45.593848</ele>
        <time>2024-07-07T10:05:08.929Z</time>
      </trkpt>
      <trkpt lat="53.04742" lon="5.83604">
        <ele>45.603592</ele>
        <time>2024-07-07T10:05:12.937Z</time>
      </trkpt>
      <trkpt lat="53.04741" lon="5.83585">
        <ele>45.614359</ele>
        <time>2024-07-07T10:05:16.955Z</time>
      </trkpt>
      <trkpt lat="53.04739" lon="5.83565">
        <ele>45.625741</ele>
        <time>2024-07-07T10:05:19.940Z</time>
      </trkpt>
      <trkpt lat="53.04737" lon="5.83544">
        <ele>45.637382</ele>
        <time>2024-07-07T10:05:22.938Z</time>
      </trkpt>
      <trkpt lat="53.04737" lon="5.83521">
        <ele>45.650207</ele>
        <time>2024-07-07T10:05:25.947Z</time>
      </trkpt>
      <trkpt lat="53.04736" lon="5.83505">
        <ele>45.659005</ele>
        <time>2024-07-07T10:05:27.951Z</time>
      </trkpt>
      <trkpt lat="53.04734" lon="5.83483">
        <ele>45.671487</ele>
        <time>2024-07-07T10:05:30.937Z</time>
      </trkpt>
      <trkpt lat="53.04733" lon="5.83462">
        <ele>45.683584</ele>
        <time>2024-07-07T10:05:33.947Z</time>
      </trkpt>
      <trkpt lat="53.04732" lon="5.8344">
        <ele>45.69543</ele>
        <time>2024-07-07T10:05:36.944Z</time>
      </trkpt>
      <trkpt lat="53.0473" lon="5.83419">
        <ele>45.753631</ele>
        <time>2024-07-07T10:05:39.934Z</time>
      </trkpt>
      <trkpt lat="53.04729" lon="5.83399">
        <ele>45.812144</ele>
        <time>2024-07-07T10:05:42.953Z</time>
      </trkpt>
      <trkpt lat="53.04729" lon="5.83379">
        <ele>45.868072</ele>
        <time>2024-07-07T10:05:45.940Z</time>
      </trkpt>
      <trkpt lat="53.04729" lon="5.8336">
        <ele>45.92399</ele>
        <time>2024-07-07T10:05:48.927Z</time>
      </trkpt>
      <trkpt lat="53.04732" lon="5.8334">
        <ele>45.982786</ele>
        <time>2024-07-07T10:05:51.949Z</time>
      </trkpt>
      <trkpt lat="53.04734" lon="5.83321">
        <ele>46.040174</ele>
        <time>2024-07-07T10:05:54.916Z</time>
      </trkpt>
      <trkpt lat="53.04737" lon="5.833">
        <ele>46.101372</ele>
        <time>2024-07-07T10:05:57.936Z</time>
      </trkpt>
      <trkpt lat="53.04742" lon="5.83283">
        <ele>46.158287</ele>
        <time>2024-07-07T10:06:00.922Z</time>
      </trkpt>
      <trkpt lat="53.04748" lon="5.83266">
        <ele>46.215893</ele>
        <time>2024-07-07T10:06:03.932Z</time>
      </trkpt>
      <trkpt lat="53.04756" lon="5.83249">
        <ele>46.276177</ele>
        <time>2024-07-07T10:06:06.958Z</time>
      </trkpt>
      <trkpt lat="53.04763" lon="5.83232">
        <ele>46.33543</ele>
        <time>2024-07-07T10:06:09.937Z</time>
      </trkpt>
      <trkpt lat="53.0477" lon="5.83215">
        <ele>46.396146</ele>
        <time>2024-07-07T10:06:12.939Z</time>
      </trkpt>
      <trkpt lat="53.04777" lon="5.83198">
        <ele>46.456478</ele>
        <time>2024-07-07T10:06:15.937Z</time>
      </trkpt>
      <trkpt lat="53.04785" lon="5.83181">
        <ele>46.518549</ele>
        <time>2024-07-07T10:06:18.937Z</time>
      </trkpt>
      <trkpt lat="53.04792" lon="5.83163">
        <ele>46.55873</ele>
        <time>2024-07-07T10:06:21.952Z</time>
      </trkpt>
      <trkpt lat="53.048" lon="5.83146">
        <ele>46.540903</ele>
        <time>2024-07-07T10:06:24.936Z</time>
      </trkpt>
      <trkpt lat="53.04807" lon="5.83128">
        <ele>46.523074</ele>
        <time>2024-07-07T10:06:27.942Z</time>
      </trkpt>
      <trkpt lat="53.04815" lon="5.83111">
        <ele>46.504981</ele>
        <time>2024-07-07T10:06:30.933Z</time>
      </trkpt>
      <trkpt lat="53.04822" lon="5.83093">
        <ele>46.487809</ele>
        <time>2024-07-07T10:06:33.938Z</time>
      </trkpt>
      <trkpt lat="53.04829" lon="5.83077">
        <ele>46.471287</ele>
        <time>2024-07-07T10:06:36.941Z</time>
      </trkpt>
      <trkpt lat="53.04835" lon="5.8306">
        <ele>46.454901</ele>
        <time>2024-07-07T10:06:39.927Z</time>
      </trkpt>
      <trkpt lat="53.04842" lon="5.83044">
        <ele>46.438579</ele>
        <time>2024-07-07T10:06:42.934Z</time>
      </trkpt>
      <trkpt lat="53.04849" lon="5.83028">
        <ele>46.421665</ele>
        <time>2024-07-07T10:06:45.940Z</time>
      </trkpt>
      <trkpt lat="53.04856" lon="5.83011">
        <ele>46.404808</ele>
        <time>2024-07-07T10:06:48.926Z</time>
      </trkpt>
      <trkpt lat="53.04863" lon="5.82993">
        <ele>46.38727</ele>
        <time>2024-07-07T10:06:51.945Z</time>
      </trkpt>
      <trkpt lat="53.0487" lon="5.82976">
        <ele>46.369577</ele>
        <time>2024-07-07T10:06:54.945Z</time>
      </trkpt>
      <trkpt lat="53.04877" lon="5.8296">
        <ele>46.353189</ele>
        <time>2024-07-07T10:06:57.936Z</time>
      </trkpt>
      <trkpt lat="53.04882" lon="5.82947">
        <ele>46.340563</ele>
        <time>2024-07-07T10:06:59.934Z</time>
      </trkpt>
      <trkpt lat="53.04889" lon="5.82929">
        <ele>46.323328</ele>
        <time>2024-07-07T10:07:02.937Z</time>
      </trkpt>
      <trkpt lat="53.04898" lon="5.82915">
        <ele>46.296724</ele>
        <time>2024-07-07T10:07:05.933Z</time>
      </trkpt>
      <trkpt lat="53.04909" lon="5.82905">
        <ele>46.260135</ele>
        <time>2024-07-07T10:07:08.921Z</time>
      </trkpt>
      <trkpt lat="53.04921" lon="5.829">
        <ele>46.224729</ele>
        <time>2024-07-07T10:07:11.937Z</time>
      </trkpt>
      <trkpt lat="53.04933" lon="5.829">
        <ele>46.190496</ele>
        <time>2024-07-07T10:07:14.958Z</time>
      </trkpt>
      <trkpt lat="53.04945" lon="5.82901">
        <ele>46.156548</ele>
        <time>2024-07-07T10:07:17.957Z</time>
      </trkpt>
      <trkpt lat="53.04957" lon="5.82901">
        <ele>46.122283</ele>
        <time>2024-07-07T10:07:20.937Z</time>
      </trkpt>
      <trkpt lat="53.04969" lon="5.82902">
        <ele>46.087175</ele>
        <time>2024-07-07T10:07:23.938Z</time>
      </trkpt>
      <trkpt lat="53.04981" lon="5.82902">
        <ele>46.052655</ele>
        <time>2024-07-07T10:07:26.936Z</time>
      </trkpt>
      <trkpt lat="53.04993" lon="5.82902">
        <ele>46.020135</ele>
        <time>2024-07-07T10:07:29.942Z</time>
      </trkpt>
      <trkpt lat="53.05004" lon="5.82904">
        <ele>45.986981</ele>
        <time>2024-07-07T10:07:32.937Z</time>
      </trkpt>
      <trkpt lat="53.05016" lon="5.82904">
        <ele>45.95275</ele>
        <time>2024-07-07T10:07:35.933Z</time>
      </trkpt>
      <trkpt lat="53.05026" lon="5.82904">
        <ele>45.925356</ele>
        <time>2024-07-07T10:07:37.926Z</time>
      </trkpt>
      <trkpt lat="53.05035" lon="5.82903">
        <ele>45.898222</ele>
        <time>2024-07-07T10:07:39.942Z</time>
      </trkpt>
      <trkpt lat="53.05048" lon="5.82905">
        <ele>45.861593</ele>
        <time>2024-07-07T10:07:42.923Z</time>
      </trkpt>
      <trkpt lat="53.05061" lon="5.82906">
        <ele>45.825345</ele>
        <time>2024-07-07T10:07:45.935Z</time>
      </trkpt>
      <trkpt lat="53.05073" lon="5.82906">
        <ele>45.825924</ele>
        <time>2024-07-07T10:07:48.927Z</time>
      </trkpt>
      <trkpt lat="53.05084" lon="5.82901">
        <ele>45.886004</ele>
        <time>2024-07-07T10:07:51.930Z</time>
      </trkpt>
      <trkpt lat="53.0509" lon="5.82889">
        <ele>45.934674</ele>
        <time>2024-07-07T10:07:54.934Z</time>
      </trkpt>
      <trkpt lat="53.05091" lon="5.82871">
        <ele>45.99368</ele>
        <time>2024-07-07T10:07:58.929Z</time>
      </trkpt>
      <trkpt lat="53.05091" lon="5.82855">
        <ele>46.045827</ele>
        <time>2024-07-07T10:08:02.946Z</time>
      </trkpt>
      <trkpt lat="53.05091" lon="5.82839">
        <ele>46.097327</ele>
        <time>2024-07-07T10:08:08.939Z</time>
      </trkpt>
      <trkpt lat="53.05091" lon="5.82803">
        <ele>46.210237</ele>
        <time>2024-07-07T10:10:23.935Z</time>
      </trkpt>
      <trkpt lat="53.05092" lon="5.82786">
        <ele>46.266416</ele>
        <time>2024-07-07T10:10:26.932Z</time>
      </trkpt>
      <trkpt lat="53.05092" lon="5.82765">
        <ele>46.334548</ele>
        <time>2024-07-07T10:10:29.932Z</time>
      </trkpt>
      <trkpt lat="53.05092" lon="5.82746">
        <ele>46.395643</ele>
        <time>2024-07-07T10:10:32.925Z</time>
      </trkpt>
      <trkpt lat="53.05092" lon="5.82728">
        <ele>46.453217</ele>
        <time>2024-07-07T10:10:35.946Z</time>
      </trkpt>
      <trkpt lat="53.05092" lon="5.82707">
        <ele>46.519747</ele>
        <time>2024-07-07T10:10:38.941Z</time>
      </trkpt>
      <trkpt lat="53.05092" lon="5.82686">
        <ele>46.58695</ele>
        <time>2024-07-07T10:10:41.933Z</time>
      </trkpt>
      <trkpt lat="53.05092" lon="5.8267">
        <ele>46.636851</ele>
        <time>2024-07-07T10:10:43.949Z</time>
      </trkpt>
      <trkpt lat="53.05092" lon="5.82655">
        <ele>46.685792</ele>
        <time>2024-07-07T10:10:45.938Z</time>
      </trkpt>
      <trkpt lat="53.05093" lon="5.82633">
        <ele>46.755969</ele>
        <time>2024-07-07T10:10:48.936Z</time>
      </trkpt>
      <trkpt lat="53.05095" lon="5.82611">
        <ele>46.726769</ele>
        <time>2024-07-07T10:10:51.940Z</time>
      </trkpt>
      <trkpt lat="53.05099" lon="5.8259">
        <ele>46.691375</ele>
        <time>2024-07-07T10:10:54.932Z</time>
      </trkpt>
      <trkpt lat="53.05105" lon="5.8257">
        <ele>46.655862</ele>
        <time>2024-07-07T10:10:57.919Z</time>
      </trkpt>
      <trkpt lat="53.05111" lon="5.82551">
        <ele>46.620891</ele>
        <time>2024-07-07T10:11:00.933Z</time>
      </trkpt>
      <trkpt lat="53.05117" lon="5.82531">
        <ele>46.585314</ele>
        <time>2024-07-07T10:11:03.932Z</time>
      </trkpt>
      <trkpt lat="53.05126" lon="5.82513">
        <ele>46.549386</ele>
        <time>2024-07-07T10:11:06.946Z</time>
      </trkpt>
      <trkpt lat="53.05134" lon="5.82497">
        <ele>46.515585</ele>
        <time>2024-07-07T10:11:09.942Z</time>
      </trkpt>
      <trkpt lat="53.05142" lon="5.82481">
        <ele>46.482208</ele>
        <time>2024-07-07T10:11:12.927Z</time>
      </trkpt>
      <trkpt lat="53.0515" lon="5.82466">
        <ele>46.450691</ele>
        <time>2024-07-07T10:11:15.932Z</time>
      </trkpt>
      <trkpt lat="53.05149" lon="5.82446">
        <ele>46.418851</ele>
        <time>2024-07-07T10:11:18.952Z</time>
      </trkpt>
      <trkpt lat="53.05159" lon="5.82433">
        <ele>46.384855</ele>
        <time>2024-07-07T10:11:21.924Z</time>
      </trkpt>
      <trkpt lat="53.05167" lon="5.82423">
        <ele>46.35804</ele>
        <time>2024-07-07T10:11:23.940Z</time>
      </trkpt>
      <trkpt lat="53.05174" lon="5.82413">
        <ele>46.332206</ele>
        <time>2024-07-07T10:11:25.932Z</time>
      </trkpt>
      <trkpt lat="53.05183" lon="5.82402">
        <ele>46.304724</ele>
        <time>2024-07-07T10:11:27.941Z</time>
      </trkpt>
      <trkpt lat="53.0519" lon="5.82392">
        <ele>46.28597</ele>
        <time>2024-07-07T10:11:29.945Z</time>
      </trkpt>
      <trkpt lat="53.05197" lon="5.82382">
        <ele>46.324803</ele>
        <time>2024-07-07T10:11:31.939Z</time>
      </trkpt>
      <trkpt lat="53.05205" lon="5.82371">
        <ele>46.363313</ele>
        <time>2024-07-07T10:11:33.941Z</time>
      </trkpt>
      <trkpt lat="53.05212" lon="5.82361">
        <ele>46.400754</ele>
        <time>2024-07-07T10:11:35.953Z</time>
      </trkpt>
      <trkpt lat="53.05219" lon="5.82351">
        <ele>46.439268</ele>
        <time>2024-07-07T10:11:37.947Z</time>
      </trkpt>
      <trkpt lat="53.05227" lon="5.82341">
        <ele>46.478867</ele>
        <time>2024-07-07T10:11:39.947Z</time>
      </trkpt>
      <trkpt lat="53.05234" lon="5.82331">
        <ele>46.516151</ele>
        <time>2024-07-07T10:11:41.950Z</time>
      </trkpt>
      <trkpt lat="53.05242" lon="5.82322">
        <ele>46.552518</ele>
        <time>2024-07-07T10:11:43.937Z</time>
      </trkpt>
      <trkpt lat="53.05249" lon="5.82312">
        <ele>46.590317</ele>
        <time>2024-07-07T10:11:45.934Z</time>
      </trkpt>
      <trkpt lat="53.05256" lon="5.82302">
        <ele>46.627221</ele>
        <time>2024-07-07T10:11:47.936Z</time>
      </trkpt>
      <trkpt lat="53.05264" lon="5.82292">
        <ele>46.665628</ele>
        <time>2024-07-07T10:11:49.940Z</time>
      </trkpt>
      <trkpt lat="53.05275" lon="5.82281">
        <ele>46.718006</ele>
        <time>2024-07-07T10:11:52.947Z</time>
      </trkpt>
      <trkpt lat="53.05287" lon="5.8227">
        <ele>46.771884</ele>
        <time>2024-07-07T10:11:55.935Z</time>
      </trkpt>
      <trkpt lat="53.05296" lon="5.82264">
        <ele>46.811153</ele>
        <time>2024-07-07T10:11:57.931Z</time>
      </trkpt>
      <trkpt lat="53.05304" lon="5.82259">
        <ele>46.847384</ele>
        <time>2024-07-07T10:11:59.953Z</time>
      </trkpt>
      <trkpt lat="53.05318" lon="5.82252">
        <ele>46.90258</ele>
        <time>2024-07-07T10:12:02.903Z</time>
      </trkpt>
      <trkpt lat="53.05327" lon="5.82248">
        <ele>46.941043</ele>
        <time>2024-07-07T10:12:04.937Z</time>
      </trkpt>
      <trkpt lat="53.05336" lon="5.82244">
        <ele>46.980278</ele>
        <time>2024-07-07T10:12:06.934Z</time>
      </trkpt>
      <trkpt lat="53.05345" lon="5.8224">
        <ele>47.003019</ele>
        <time>2024-07-07T10:12:08.935Z</time>
      </trkpt>
      <trkpt lat="53.05354" lon="5.82236">
        <ele>47.009559</ele>
        <time>2024-07-07T10:12:10.949Z</time>
      </trkpt>
      <trkpt lat="53.05364" lon="5.82231">
        <ele>47.016724</ele>
        <time>2024-07-07T10:12:12.937Z</time>
      </trkpt>
      <trkpt lat="53.05374" lon="5.82226">
        <ele>47.023787</ele>
        <time>2024-07-07T10:12:14.933Z</time>
      </trkpt>
      <trkpt lat="53.05384" lon="5.82222">
        <ele>47.030689</ele>
        <time>2024-07-07T10:12:16.935Z</time>
      </trkpt>
      <trkpt lat="53.05393" lon="5.82218">
        <ele>47.037263</ele>
        <time>2024-07-07T10:12:18.929Z</time>
      </trkpt>
      <trkpt lat="53.05402" lon="5.82215">
        <ele>47.043722</ele>
        <time>2024-07-07T10:12:20.938Z</time>
      </trkpt>
      <trkpt lat="53.05411" lon="5.82211">
        <ele>47.050442</ele>
        <time>2024-07-07T10:12:22.933Z</time>
      </trkpt>
      <trkpt lat="53.05421" lon="5.82205">
        <ele>47.057223</ele>
        <time>2024-07-07T10:12:24.935Z</time>
      </trkpt>
      <trkpt lat="53.0543" lon="5.82201">
        <ele>47.064009</ele>
        <time>2024-07-07T10:12:26.948Z</time>
      </trkpt>
      <trkpt lat="53.0544" lon="5.82197">
        <ele>47.070951</ele>
        <time>2024-07-07T10:12:28.926Z</time>
      </trkpt>
      <trkpt lat="53.05449" lon="5.82193">
        <ele>47.077727</ele>
        <time>2024-07-07T10:12:30.939Z</time>
      </trkpt>
      <trkpt lat="53.05459" lon="5.82189">
        <ele>47.08449</ele>
        <time>2024-07-07T10:12:32.934Z</time>
      </trkpt>
      <trkpt lat="53.05469" lon="5.82185">
        <ele>47.091468</ele>
        <time>2024-07-07T10:12:34.942Z</time>
      </trkpt>
      <trkpt lat="53.05478" lon="5.82181">
        <ele>47.098379</ele>
        <time>2024-07-07T10:12:36.934Z</time>
      </trkpt>
      <trkpt lat="53.05488" lon="5.82176">
        <ele>47.105333</ele>
        <time>2024-07-07T10:12:38.919Z</time>
      </trkpt>
      <trkpt lat="53.05497" lon="5.82172">
        <ele>47.112063</ele>
        <time>2024-07-07T10:12:40.958Z</time>
      </trkpt>
      <trkpt lat="53.05507" lon="5.82167">
        <ele>47.11903</ele>
        <time>2024-07-07T10:12:42.938Z</time>
      </trkpt>
      <trkpt lat="53.05517" lon="5.82163">
        <ele>47.129959</ele>
        <time>2024-07-07T10:12:44.937Z</time>
      </trkpt>
      <trkpt lat="53.05527" lon="5.82158">
        <ele>47.156751</ele>
        <time>2024-07-07T10:12:46.941Z</time>
      </trkpt>
      <trkpt lat="53.05536" lon="5.82153">
        <ele>47.183339</ele>
        <time>2024-07-07T10:12:48.951Z</time>
      </trkpt>
      <trkpt lat="53.05546" lon="5.82147">
        <ele>47.210319</ele>
        <time>2024-07-07T10:12:50.938Z</time>
      </trkpt>
      <trkpt lat="53.05556" lon="5.82141">
        <ele>47.236664</ele>
        <time>2024-07-07T10:12:52.945Z</time>
      </trkpt>
      <trkpt lat="53.05565" lon="5.82134">
        <ele>47.263367</ele>
        <time>2024-07-07T10:12:54.933Z</time>
      </trkpt>
      <trkpt lat="53.05574" lon="5.82127">
        <ele>47.289654</ele>
        <time>2024-07-07T10:12:56.934Z</time>
      </trkpt>
      <trkpt lat="53.05584" lon="5.82122">
        <ele>47.315904</ele>
        <time>2024-07-07T10:12:58.940Z</time>
      </trkpt>
      <trkpt lat="53.05593" lon="5.82117">
        <ele>47.341353</ele>
        <time>2024-07-07T10:13:00.931Z</time>
      </trkpt>
      <trkpt lat="53.05602" lon="5.82111">
        <ele>47.36644</ele>
        <time>2024-07-07T10:13:02.935Z</time>
      </trkpt>
      <trkpt lat="53.05611" lon="5.82104">
        <ele>47.390603</ele>
        <time>2024-07-07T10:13:04.939Z</time>
      </trkpt>
      <trkpt lat="53.0562" lon="5.82098">
        <ele>47.416169</ele>
        <time>2024-07-07T10:13:06.930Z</time>
      </trkpt>
      <trkpt lat="53.05632" lon="5.82089">
        <ele>47.45066</ele>
        <time>2024-07-07T10:13:09.933Z</time>
      </trkpt>
      <trkpt lat="53.05644" lon="5.82079">
        <ele>47.485101</ele>
        <time>2024-07-07T10:13:12.946Z</time>
      </trkpt>
      <trkpt lat="53.05655" lon="5.82065">
        <ele>47.520312</ele>
        <time>2024-07-07T10:13:15.950Z</time>
      </trkpt>
      <trkpt lat="53.0566" lon="5.82053">
        <ele>47.54509</ele>
        <time>2024-07-07T10:13:17.924Z</time>
      </trkpt>
      <trkpt lat="53.05668" lon="5.82044">
        <ele>47.569145</ele>
        <time>2024-07-07T10:13:19.940Z</time>
      </trkpt>
      <trkpt lat="53.05677" lon="5.82036">
        <ele>47.587051</ele>
        <time>2024-07-07T10:13:21.931Z</time>
      </trkpt>
      <trkpt lat="53.05685" lon="5.82029">
        <ele>47.559558</ele>
        <time>2024-07-07T10:13:23.948Z</time>
      </trkpt>
      <trkpt lat="53.05695" lon="5.82026">
        <ele>47.529184</ele>
        <time>2024-07-07T10:13:25.931Z</time>
      </trkpt>
      <trkpt lat="53.05706" lon="5.82023">
        <ele>47.498125</ele>
        <time>2024-07-07T10:13:27.920Z</time>
      </trkpt>
      <trkpt lat="53.05716" lon="5.82018">
        <ele>47.466056</ele>
        <time>2024-07-07T10:13:29.931Z</time>
      </trkpt>
      <trkpt lat="53.05727" lon="5.82012">
        <ele>47.433425</ele>
        <time>2024-07-07T10:13:31.938Z</time>
      </trkpt>
      <trkpt lat="53.05736" lon="5.82004">
        <ele>47.402094</ele>
        <time>2024-07-07T10:13:33.916Z</time>
      </trkpt>
      <trkpt lat="53.05746" lon="5.81993">
        <ele>47.369397</ele>
        <time>2024-07-07T10:13:35.934Z</time>
      </trkpt>
      <trkpt lat="53.05753" lon="5.81981">
        <ele>47.338611</ele>
        <time>2024-07-07T10:13:37.917Z</time>
      </trkpt>
      <trkpt lat="53.05759" lon="5.81967">
        <ele>47.30879</ele>
        <time>2024-07-07T10:13:39.948Z</time>
      </trkpt>
      <trkpt lat="53.05763" lon="5.81952">
        <ele>47.279368</ele>
        <time>2024-07-07T10:13:41.932Z</time>
      </trkpt>
      <trkpt lat="53.05766" lon="5.81937">
        <ele>47.252176</ele>
        <time>2024-07-07T10:13:43.931Z</time>
      </trkpt>
      <trkpt lat="53.0577" lon="5.81922">
        <ele>47.223956</ele>
        <time>2024-07-07T10:13:45.936Z</time>
      </trkpt>
      <trkpt lat="53.05774" lon="5.81908">
        <ele>47.195844</ele>
        <time>2024-07-07T10:13:47.940Z</time>
      </trkpt>
      <trkpt lat="53.05778" lon="5.81894">
        <ele>47.168184</ele>
        <time>2024-07-07T10:13:49.936Z</time>
      </trkpt>
      <trkpt lat="53.05784" lon="5.81881">
        <ele>47.139438</ele>
        <time>2024-07-07T10:13:51.930Z</time>
      </trkpt>
      <trkpt lat="53.05791" lon="5.81869">
        <ele>47.111551</ele>
        <time>2024-07-07T10:13:53.937Z</time>
      </trkpt>
      <trkpt lat="53.05798" lon="5.81858">
        <ele>47.083091</ele>
        <time>2024-07-07T10:13:55.936Z</time>
      </trkpt>
      <trkpt lat="53.05805" lon="5.81847">
        <ele>47.09228</ele>
        <time>2024-07-07T10:13:57.924Z</time>
      </trkpt>
      <trkpt lat="53.05813" lon="5.81838">
        <ele>47.15441</ele>
        <time>2024-07-07T10:13:59.942Z</time>
      </trkpt>
      <trkpt lat="53.05822" lon="5.81832">
        <ele>47.218564</ele>
        <time>2024-07-07T10:14:01.936Z</time>
      </trkpt>
      <trkpt lat="53.05831" lon="5.81826">
        <ele>47.284752</ele>
        <time>2024-07-07T10:14:03.937Z</time>
      </trkpt>
      <trkpt lat="53.05842" lon="5.81821">
        <ele>47.353816</ele>
        <time>2024-07-07T10:14:05.931Z</time>
      </trkpt>
      <trkpt lat="53.05852" lon="5.81816">
        <ele>47.42508</ele>
        <time>2024-07-07T10:14:07.927Z</time>
      </trkpt>
      <trkpt lat="53.05862" lon="5.81812">
        <ele>47.492874</ele>
        <time>2024-07-07T10:14:09.924Z</time>
      </trkpt>
      <trkpt lat="53.05872" lon="5.81808">
        <ele>47.558566</ele>
        <time>2024-07-07T10:14:11.937Z</time>
      </trkpt>
      <trkpt lat="53.0588" lon="5.81802">
        <ele>47.618635</ele>
        <time>2024-07-07T10:14:13.936Z</time>
      </trkpt>
      <trkpt lat="53.05888" lon="5.81794">
        <ele>47.680217</ele>
        <time>2024-07-07T10:14:15.942Z</time>
      </trkpt>
      <trkpt lat="53.05897" lon="5.81785">
        <ele>47.745066</ele>
        <time>2024-07-07T10:14:17.938Z</time>
      </trkpt>
      <trkpt lat="53.05904" lon="5.81776">
        <ele>47.807816</ele>
        <time>2024-07-07T10:14:19.942Z</time>
      </trkpt>
      <trkpt lat="53.05913" lon="5.81767">
        <ele>47.872316</ele>
        <time>2024-07-07T10:14:21.929Z</time>
      </trkpt>
      <trkpt lat="53.05921" lon="5.81757">
        <ele>47.940987</ele>
        <time>2024-07-07T10:14:23.947Z</time>
      </trkpt>
      <trkpt lat="53.0593" lon="5.81748">
        <ele>48.008761</ele>
        <time>2024-07-07T10:14:25.937Z</time>
      </trkpt>
      <trkpt lat="53.05938" lon="5.8174">
        <ele>48.069106</ele>
        <time>2024-07-07T10:14:27.940Z</time>
      </trkpt>
      <trkpt lat="53.05946" lon="5.81731">
        <ele>48.132508</ele>
        <time>2024-07-07T10:14:29.936Z</time>
      </trkpt>
      <trkpt lat="53.05954" lon="5.81722">
        <ele>48.195696</ele>
        <time>2024-07-07T10:14:31.953Z</time>
      </trkpt>
      <trkpt lat="53.05962" lon="5.81712">
        <ele>48.222142</ele>
        <time>2024-07-07T10:14:33.937Z</time>
      </trkpt>
      <trkpt lat="53.0597" lon="5.81703">
        <ele>48.122335</ele>
        <time>2024-07-07T10:14:35.950Z</time>
      </trkpt>
      <trkpt lat="53.05979" lon="5.81694">
        <ele>48.025149</ele>
        <time>2024-07-07T10:14:37.944Z</time>
      </trkpt>
      <trkpt lat="53.05987" lon="5.81685">
        <ele>47.927963</ele>
        <time>2024-07-07T10:14:39.922Z</time>
      </trkpt>
      <trkpt lat="53.05995" lon="5.81676">
        <ele>47.830464</ele>
        <time>2024-07-07T10:14:41.947Z</time>
      </trkpt>
      <trkpt lat="53.06003" lon="5.81667">
        <ele>47.733142</ele>
        <time>2024-07-07T10:14:43.950Z</time>
      </trkpt>
      <trkpt lat="53.06011" lon="5.81658">
        <ele>47.636472</ele>
        <time>2024-07-07T10:14:45.928Z</time>
      </trkpt>
      <trkpt lat="53.06019" lon="5.81649">
        <ele>47.540306</ele>
        <time>2024-07-07T10:14:47.939Z</time>
      </trkpt>
      <trkpt lat="53.06028" lon="5.81641">
        <ele>47.441646</ele>
        <time>2024-07-07T10:14:49.926Z</time>
      </trkpt>
      <trkpt lat="53.06036" lon="5.81632">
        <ele>47.343933</ele>
        <time>2024-07-07T10:14:51.933Z</time>
      </trkpt>
      <trkpt lat="53.06045" lon="5.81623">
        <ele>47.244464</ele>
        <time>2024-07-07T10:14:53.925Z</time>
      </trkpt>
      <trkpt lat="53.06053" lon="5.81613">
        <ele>47.145988</ele>
        <time>2024-07-07T10:14:55.943Z</time>
      </trkpt>
      <trkpt lat="53.06061" lon="5.81605">
        <ele>47.050274</ele>
        <time>2024-07-07T10:14:57.934Z</time>
      </trkpt>
      <trkpt lat="53.06069" lon="5.81597">
        <ele>46.959055</ele>
        <time>2024-07-07T10:14:59.936Z</time>
      </trkpt>
      <trkpt lat="53.06077" lon="5.81588">
        <ele>46.863655</ele>
        <time>2024-07-07T10:15:01.951Z</time>
      </trkpt>
      <trkpt lat="53.06085" lon="5.81579">
        <ele>46.767781</ele>
        <time>2024-07-07T10:15:03.943Z</time>
      </trkpt>
      <trkpt lat="53.06093" lon="5.8157">
        <ele>46.673421</ele>
        <time>2024-07-07T10:15:05.939Z</time>
      </trkpt>
      <trkpt lat="53.06101" lon="5.81562">
        <ele>46.578332</ele>
        <time>2024-07-07T10:15:07.934Z</time>
      </trkpt>
      <trkpt lat="53.0611" lon="5.81554">
        <ele>46.480691</ele>
        <time>2024-07-07T10:15:09.934Z</time>
      </trkpt>
      <trkpt lat="53.06118" lon="5.81546">
        <ele>46.500651</ele>
        <time>2024-07-07T10:15:11.945Z</time>
      </trkpt>
      <trkpt lat="53.06126" lon="5.81537">
        <ele>46.545314</ele>
        <time>2024-07-07T10:15:13.932Z</time>
      </trkpt>
      <trkpt lat="53.06134" lon="5.81529">
        <ele>46.590286</ele>
        <time>2024-07-07T10:15:15.934Z</time>
      </trkpt>
      <trkpt lat="53.06142" lon="5.8152">
        <ele>46.638103</ele>
        <time>2024-07-07T10:15:17.945Z</time>
      </trkpt>
      <trkpt lat="53.06151" lon="5.81511">
        <ele>46.685708</ele>
        <time>2024-07-07T10:15:19.935Z</time>
      </trkpt>
      <trkpt lat="53.06159" lon="5.81502">
        <ele>46.733247</ele>
        <time>2024-07-07T10:15:21.946Z</time>
      </trkpt>
      <trkpt lat="53.06167" lon="5.81492">
        <ele>46.780292</ele>
        <time>2024-07-07T10:15:23.953Z</time>
      </trkpt>
      <trkpt lat="53.06175" lon="5.81484">
        <ele>46.827117</ele>
        <time>2024-07-07T10:15:25.935Z</time>
      </trkpt>
      <trkpt lat="53.06184" lon="5.81475">
        <ele>46.876241</ele>
        <time>2024-07-07T10:15:27.962Z</time>
      </trkpt>
      <trkpt lat="53.06192" lon="5.81466">
        <ele>46.925118</ele>
        <time>2024-07-07T10:15:29.943Z</time>
      </trkpt>
      <trkpt lat="53.062" lon="5.81456">
        <ele>46.970657</ele>
        <time>2024-07-07T10:15:31.934Z</time>
      </trkpt>
      <trkpt lat="53.06209" lon="5.81448">
        <ele>47.017704</ele>
        <time>2024-07-07T10:15:33.936Z</time>
      </trkpt>
      <trkpt lat="53.06217" lon="5.81439">
        <ele>47.063995</ele>
        <time>2024-07-07T10:15:35.938Z</time>
      </trkpt>
      <trkpt lat="53.06225" lon="5.8143">
        <ele>47.112872</ele>
        <time>2024-07-07T10:15:37.947Z</time>
      </trkpt>
      <trkpt lat="53.06234" lon="5.8142">
        <ele>47.161523</ele>
        <time>2024-07-07T10:15:39.939Z</time>
      </trkpt>
      <trkpt lat="53.06242" lon="5.8141">
        <ele>47.20834</ele>
        <time>2024-07-07T10:15:41.952Z</time>
      </trkpt>
      <trkpt lat="53.06249" lon="5.81401">
        <ele>47.254934</ele>
        <time>2024-07-07T10:15:43.936Z</time>
      </trkpt>
      <trkpt lat="53.06258" lon="5.81391">
        <ele>47.303752</ele>
        <time>2024-07-07T10:15:45.933Z</time>
      </trkpt>
      <trkpt lat="53.06266" lon="5.81382">
        <ele>47.385101</ele>
        <time>2024-07-07T10:15:47.948Z</time>
      </trkpt>
      <trkpt lat="53.06273" lon="5.81371">
        <ele>47.491446</ele>
        <time>2024-07-07T10:15:49.933Z</time>
      </trkpt>
      <trkpt lat="53.06281" lon="5.81362">
        <ele>47.596406</ele>
        <time>2024-07-07T10:15:51.952Z</time>
      </trkpt>
      <trkpt lat="53.06289" lon="5.81352">
        <ele>47.702715</ele>
        <time>2024-07-07T10:15:53.936Z</time>
      </trkpt>
      <trkpt lat="53.06296" lon="5.81342">
        <ele>47.801532</ele>
        <time>2024-07-07T10:15:55.941Z</time>
      </trkpt>
      <trkpt lat="53.06304" lon="5.81333">
        <ele>47.90523</ele>
        <time>2024-07-07T10:15:57.943Z</time>
      </trkpt>
      <trkpt lat="53.06311" lon="5.81324">
        <ele>48.008427</ele>
        <time>2024-07-07T10:15:59.935Z</time>
      </trkpt>
      <trkpt lat="53.06319" lon="5.81313">
        <ele>48.111817</ele>
        <time>2024-07-07T10:16:01.957Z</time>
      </trkpt>
      <trkpt lat="53.06326" lon="5.81303">
        <ele>48.217706</ele>
        <time>2024-07-07T10:16:03.947Z</time>
      </trkpt>
      <trkpt lat="53.06336" lon="5.81288">
        <ele>48.363013</ele>
        <time>2024-07-07T10:16:06.937Z</time>
      </trkpt>
      <trkpt lat="53.06343" lon="5.81273">
        <ele>48.491709</ele>
        <time>2024-07-07T10:16:09.941Z</time>
      </trkpt>
      <trkpt lat="53.0635" lon="5.81258">
        <ele>48.606882</ele>
        <time>2024-07-07T10:16:12.934Z</time>
      </trkpt>
      <trkpt lat="53.06357" lon="5.81244">
        <ele>48.732186</ele>
        <time>2024-07-07T10:16:15.919Z</time>
      </trkpt>
      <trkpt lat="53.06365" lon="5.81229">
        <ele>48.860771</ele>
        <time>2024-07-07T10:16:18.943Z</time>
      </trkpt>
      <trkpt lat="53.06372" lon="5.81213">
        <ele>48.983113</ele>
        <time>2024-07-07T10:16:21.947Z</time>
      </trkpt>
      <trkpt lat="53.06378" lon="5.81199">
        <ele>49.100903</ele>
        <time>2024-07-07T10:16:24.911Z</time>
      </trkpt>
      <trkpt lat="53.06383" lon="5.81184">
        <ele>49.21377</ele>
        <time>2024-07-07T10:16:27.937Z</time>
      </trkpt>
      <trkpt lat="53.06389" lon="5.81169">
        <ele>49.385414</ele>
        <time>2024-07-07T10:16:30.930Z</time>
      </trkpt>
      <trkpt lat="53.06395" lon="5.81154">
        <ele>49.619913</ele>
        <time>2024-07-07T10:16:33.940Z</time>
      </trkpt>
      <trkpt lat="53.06399" lon="5.81138">
        <ele>49.854857</ele>
        <time>2024-07-07T10:16:36.933Z</time>
      </trkpt>
      <trkpt lat="53.06404" lon="5.81121">
        <ele>50.110147</ele>
        <time>2024-07-07T10:16:39.952Z</time>
      </trkpt>
      <trkpt lat="53.06409" lon="5.81104">
        <ele>50.350615</ele>
        <time>2024-07-07T10:16:42.906Z</time>
      </trkpt>
      <trkpt lat="53.06413" lon="5.81088">
        <ele>50.578412</ele>
        <time>2024-07-07T10:16:45.955Z</time>
      </trkpt>
      <trkpt lat="53.06416" lon="5.81071">
        <ele>50.811434</ele>
        <time>2024-07-07T10:16:48.929Z</time>
      </trkpt>
      <trkpt lat="53.0642" lon="5.81054">
        <ele>51.048917</ele>
        <time>2024-07-07T10:16:51.929Z</time>
      </trkpt>
      <trkpt lat="53.06423" lon="5.81037">
        <ele>51.294615</ele>
        <time>2024-07-07T10:16:54.938Z</time>
      </trkpt>
      <trkpt lat="53.06427" lon="5.8102">
        <ele>51.526599</ele>
        <time>2024-07-07T10:16:57.935Z</time>
      </trkpt>
      <trkpt lat="53.0643" lon="5.81004">
        <ele>51.75784</ele>
        <time>2024-07-07T10:17:00.953Z</time>
      </trkpt>
      <trkpt lat="53.06434" lon="5.80986">
        <ele>52.001762</ele>
        <time>2024-07-07T10:17:03.939Z</time>
      </trkpt>
      <trkpt lat="53.06437" lon="5.8097">
        <ele>52.22515</ele>
        <time>2024-07-07T10:17:06.932Z</time>
      </trkpt>
      <trkpt lat="53.0644" lon="5.80955">
        <ele>52.44122</ele>
        <time>2024-07-07T10:17:09.946Z</time>
      </trkpt>
      <trkpt lat="53.06443" lon="5.8094">
        <ele>52.6486</ele>
        <time>2024-07-07T10:17:12.933Z</time>
      </trkpt>
      <trkpt lat="53.06447" lon="5.80926">
        <ele>52.848572</ele>
        <time>2024-07-07T10:17:15.939Z</time>
      </trkpt>
      <trkpt lat="53.0645" lon="5.80911">
        <ele>53.061632</ele>
        <time>2024-07-07T10:17:18.937Z</time>
      </trkpt>
      <trkpt lat="53.06455" lon="5.80896">
        <ele>53.259169</ele>
        <time>2024-07-07T10:17:21.934Z</time>
      </trkpt>
      <trkpt lat="53.06459" lon="5.80882">
        <ele>53.377768</ele>
        <time>2024-07-07T10:17:24.919Z</time>
      </trkpt>
      <trkpt lat="53.06463" lon="5.80869">
        <ele>53.494051</ele>
        <time>2024-07-07T10:17:27.955Z</time>
      </trkpt>
      <trkpt lat="53.06468" lon="5.80855">
        <ele>53.611613</ele>
        <time>2024-07-07T10:17:30.943Z</time>
      </trkpt>
      <trkpt lat="53.06473" lon="5.80841">
        <ele>53.740855</ele>
        <time>2024-07-07T10:17:33.945Z</time>
      </trkpt>
      <trkpt lat="53.06479" lon="5.80826">
        <ele>53.87153</ele>
        <time>2024-07-07T10:17:36.930Z</time>
      </trkpt>
      <trkpt lat="53.06484" lon="5.80812">
        <ele>53.999473</ele>
        <time>2024-07-07T10:17:39.934Z</time>
      </trkpt>
      <trkpt lat="53.06489" lon="5.80799">
        <ele>54.115873</ele>
        <time>2024-07-07T10:17:42.943Z</time>
      </trkpt>
      <trkpt lat="53.06495" lon="5.80787">
        <ele>54.234467</ele>
        <time>2024-07-07T10:17:45.956Z</time>
      </trkpt>
      <trkpt lat="53.06501" lon="5.80774">
        <ele>54.358089</ele>
        <time>2024-07-07T10:17:48.925Z</time>
      </trkpt>
      <trkpt lat="53.06507" lon="5.80761">
        <ele>54.486272</ele>
        <time>2024-07-07T10:17:51.945Z</time>
      </trkpt>
      <trkpt lat="53.06514" lon="5.80749">
        <ele>54.61146</ele>
        <time>2024-07-07T10:17:54.921Z</time>
      </trkpt>
      <trkpt lat="53.06521" lon="5.80735">
        <ele>54.751739</ele>
        <time>2024-07-07T10:17:58.919Z</time>
      </trkpt>
      <trkpt lat="53.06527" lon="5.80723">
        <ele>54.876935</ele>
        <time>2024-07-07T10:18:03.939Z</time>
      </trkpt>
      <trkpt lat="53.06534" lon="5.80712">
        <ele>54.995937</ele>
        <time>2024-07-07T10:18:08.931Z</time>
      </trkpt>
      <trkpt lat="53.06541" lon="5.80699">
        <ele>55.124631</ele>
        <time>2024-07-07T10:18:16.923Z</time>
      </trkpt>
      <trkpt lat="53.06549" lon="5.80682">
        <ele>55.29103</ele>
        <time>2024-07-07T10:20:47.936Z</time>
      </trkpt>
      <trkpt lat="53.06555" lon="5.8067">
        <ele>55.408412</ele>
        <time>2024-07-07T10:20:50.930Z</time>
      </trkpt>
      <trkpt lat="53.06561" lon="5.80657">
        <ele>55.490609</ele>
        <time>2024-07-07T10:20:53.953Z</time>
      </trkpt>
      <trkpt lat="53.06567" lon="5.80644">
        <ele>55.412298</ele>
        <time>2024-07-07T10:20:56.943Z</time>
      </trkpt>
      <trkpt lat="53.06573" lon="5.8063">
        <ele>55.330492</ele>
        <time>2024-07-07T10:20:59.938Z</time>
      </trkpt>
      <trkpt lat="53.06579" lon="5.80618">
        <ele>55.250986</ele>
        <time>2024-07-07T10:21:02.927Z</time>
      </trkpt>
      <trkpt lat="53.06585" lon="5.80606">
        <ele>55.17395</ele>
        <time>2024-07-07T10:21:05.937Z</time>
      </trkpt>
      <trkpt lat="53.06591" lon="5.80592">
        <ele>55.086593</ele>
        <time>2024-07-07T10:21:08.931Z</time>
      </trkpt>
      <trkpt lat="53.06598" lon="5.80576">
        <ele>54.990705</ele>
        <time>2024-07-07T10:21:11.946Z</time>
      </trkpt>
      <trkpt lat="53.06606" lon="5.80559">
        <ele>54.886853</ele>
        <time>2024-07-07T10:21:14.934Z</time>
      </trkpt>
      <trkpt lat="53.06613" lon="5.8054">
        <ele>54.776888</ele>
        <time>2024-07-07T10:21:17.940Z</time>
      </trkpt>
      <trkpt lat="53.06621" lon="5.80523">
        <ele>54.668549</ele>
        <time>2024-07-07T10:21:20.935Z</time>
      </trkpt>
      <trkpt lat="53.0663" lon="5.80508">
        <ele>54.568396</ele>
        <time>2024-07-07T10:21:23.939Z</time>
      </trkpt>
      <trkpt lat="53.06639" lon="5.80492">
        <ele>54.460285</ele>
        <time>2024-07-07T10:21:26.935Z</time>
      </trkpt>
      <trkpt lat="53.06649" lon="5.80478">
        <ele>54.351602</ele>
        <time>2024-07-07T10:21:29.953Z</time>
      </trkpt>
      <trkpt lat="53.06656" lon="5.80468">
        <ele>54.278116</ele>
        <time>2024-07-07T10:21:31.941Z</time>
      </trkpt>
      <trkpt lat="53.06666" lon="5.80454">
        <ele>54.17104</ele>
        <time>2024-07-07T10:21:34.936Z</time>
      </trkpt>
      <trkpt lat="53.06674" lon="5.80444">
        <ele>54.093161</ele>
        <time>2024-07-07T10:21:36.936Z</time>
      </trkpt>
      <trkpt lat="53.06685" lon="5.8043">
        <ele>53.91411</ele>
        <time>2024-07-07T10:21:39.937Z</time>
      </trkpt>
      <trkpt lat="53.06692" lon="5.80421">
        <ele>53.761588</ele>
        <time>2024-07-07T10:21:41.946Z</time>
      </trkpt>
      <trkpt lat="53.06704" lon="5.8041">
        <ele>53.538156</ele>
        <time>2024-07-07T10:21:44.934Z</time>
      </trkpt>
      <trkpt lat="53.06712" lon="5.80401">
        <ele>53.385077</ele>
        <time>2024-07-07T10:21:46.920Z</time>
      </trkpt>
      <trkpt lat="53.0672" lon="5.80393">
        <ele>53.230215</ele>
        <time>2024-07-07T10:21:48.932Z</time>
      </trkpt>
      <trkpt lat="53.06729" lon="5.80386">
        <ele>53.067597</ele>
        <time>2024-07-07T10:21:50.946Z</time>
      </trkpt>
      <trkpt lat="53.06737" lon="5.80378">
        <ele>52.909738</ele>
        <time>2024-07-07T10:21:52.932Z</time>
      </trkpt>
      <trkpt lat="53.0675" lon="5.80368">
        <ele>52.684529</ele>
        <time>2024-07-07T10:21:55.916Z</time>
      </trkpt>
      <trkpt lat="53.06762" lon="5.8036">
        <ele>52.466606</ele>
        <time>2024-07-07T10:21:58.932Z</time>
      </trkpt>
      <trkpt lat="53.06771" lon="5.80354">
        <ele>52.314223</ele>
        <time>2024-07-07T10:22:00.924Z</time>
      </trkpt>
      <trkpt lat="53.0678" lon="5.80349">
        <ele>52.148456</ele>
        <time>2024-07-07T10:22:02.937Z</time>
      </trkpt>
      <trkpt lat="53.06789" lon="5.80344">
        <ele>51.99114</ele>
        <time>2024-07-07T10:22:04.926Z</time>
      </trkpt>
      <trkpt lat="53.06799" lon="5.80339">
        <ele>51.826022</ele>
        <time>2024-07-07T10:22:06.929Z</time>
      </trkpt>
      <trkpt lat="53.06808" lon="5.80334">
        <ele>51.661412</ele>
        <time>2024-07-07T10:22:08.915Z</time>
      </trkpt>
      <trkpt lat="53.06817" lon="5.8033">
        <ele>51.505965</ele>
        <time>2024-07-07T10:22:10.940Z</time>
      </trkpt>
      <trkpt lat="53.06826" lon="5.80326">
        <ele>51.353245</ele>
        <time>2024-07-07T10:22:12.939Z</time>
      </trkpt>
      <trkpt lat="53.06835" lon="5.80322">
        <ele>51.201353</ele>
        <time>2024-07-07T10:22:14.922Z</time>
      </trkpt>
      <trkpt lat="53.06844" lon="5.80318">
        <ele>51.068665</ele>
        <time>2024-07-07T10:22:16.914Z</time>
      </trkpt>
      <trkpt lat="53.06853" lon="5.80314">
        <ele>51.008712</ele>
        <time>2024-07-07T10:22:18.927Z</time>
      </trkpt>
      <trkpt lat="53.06865" lon="5.80309">
        <ele>50.924347</ele>
        <time>2024-07-07T10:22:21.927Z</time>
      </trkpt>
      <trkpt lat="53.06878" lon="5.80304">
        <ele>50.838366</ele>
        <time>2024-07-07T10:22:24.915Z</time>
      </trkpt>
      <trkpt lat="53.06889" lon="5.80298">
        <ele>50.760881</ele>
        <time>2024-07-07T10:22:27.953Z</time>
      </trkpt>
      <trkpt lat="53.06884" lon="5.80286">
        <ele>50.701358</ele>
        <time>2024-07-07T10:22:33.918Z</time>
      </trkpt>
      <trkpt lat="53.06872" lon="5.80291">
        <ele>50.621668</ele>
        <time>2024-07-07T10:22:36.923Z</time>
      </trkpt>
      <trkpt lat="53.06863" lon="5.80295">
        <ele>50.562452</ele>
        <time>2024-07-07T10:22:38.967Z</time>
      </trkpt>
      <trkpt lat="53.0685" lon="5.803">
        <ele>50.471511</ele>
        <time>2024-07-07T10:22:41.948Z</time>
      </trkpt>
      <trkpt lat="53.0684" lon="5.80302">
        <ele>50.406446</ele>
        <time>2024-07-07T10:22:43.951Z</time>
      </trkpt>
      <trkpt lat="53.06831" lon="5.80306">
        <ele>50.341805</ele>
        <time>2024-07-07T10:22:45.951Z</time>
      </trkpt>
      <trkpt lat="53.06821" lon="5.80309">
        <ele>50.276805</ele>
        <time>2024-07-07T10:22:47.937Z</time>
      </trkpt>
      <trkpt lat="53.06812" lon="5.80312">
        <ele>50.214781</ele>
        <time>2024-07-07T10:22:49.939Z</time>
      </trkpt>
      <trkpt lat="53.06802" lon="5.80317">
        <ele>50.148349</ele>
        <time>2024-07-07T10:22:51.935Z</time>
      </trkpt>
      <trkpt lat="53.06793" lon="5.80321">
        <ele>50.083709</ele>
        <time>2024-07-07T10:22:53.947Z</time>
      </trkpt>
      <trkpt lat="53.06783" lon="5.80325">
        <ele>50.019107</ele>
        <time>2024-07-07T10:22:55.938Z</time>
      </trkpt>
      <trkpt lat="53.06774" lon="5.80329">
        <ele>49.951515</ele>
        <time>2024-07-07T10:22:57.937Z</time>
      </trkpt>
      <trkpt lat="53.06764" lon="5.80334">
        <ele>49.891878</ele>
        <time>2024-07-07T10:22:59.944Z</time>
      </trkpt>
      <trkpt lat="53.06755" lon="5.8034">
        <ele>49.902425</ele>
        <time>2024-07-07T10:23:01.938Z</time>
      </trkpt>
      <trkpt lat="53.06746" lon="5.80346">
        <ele>49.912727</ele>
        <time>2024-07-07T10:23:03.937Z</time>
      </trkpt>
      <trkpt lat="53.06737" lon="5.80353">
        <ele>49.923031</ele>
        <time>2024-07-07T10:23:05.935Z</time>
      </trkpt>
      <trkpt lat="53.06729" lon="5.80361">
        <ele>49.933657</ele>
        <time>2024-07-07T10:23:07.935Z</time>
      </trkpt>
      <trkpt lat="53.0672" lon="5.80369">
        <ele>49.944033</ele>
        <time>2024-07-07T10:23:09.933Z</time>
      </trkpt>
      <trkpt lat="53.06711" lon="5.80376">
        <ele>49.954932</ele>
        <time>2024-07-07T10:23:11.944Z</time>
      </trkpt>
      <trkpt lat="53.06701" lon="5.80382">
        <ele>49.965944</ele>
        <time>2024-07-07T10:23:13.934Z</time>
      </trkpt>
      <trkpt lat="53.06692" lon="5.8039">
        <ele>49.976871</ele>
        <time>2024-07-07T10:23:15.938Z</time>
      </trkpt>
      <trkpt lat="53.06683" lon="5.80398">
        <ele>49.988095</ele>
        <time>2024-07-07T10:23:17.952Z</time>
      </trkpt>
      <trkpt lat="53.06674" lon="5.80407">
        <ele>49.999612</ele>
        <time>2024-07-07T10:23:19.918Z</time>
      </trkpt>
      <trkpt lat="53.06665" lon="5.80417">
        <ele>50.010947</ele>
        <time>2024-07-07T10:23:21.937Z</time>
      </trkpt>
      <trkpt lat="53.06656" lon="5.80427">
        <ele>50.022482</ele>
        <time>2024-07-07T10:23:23.956Z</time>
      </trkpt>
      <trkpt lat="53.06648" lon="5.80438">
        <ele>50.033773</ele>
        <time>2024-07-07T10:23:25.929Z</time>
      </trkpt>
      <trkpt lat="53.06639" lon="5.8045">
        <ele>50.04552</ele>
        <time>2024-07-07T10:23:27.931Z</time>
      </trkpt>
      <trkpt lat="53.06631" lon="5.80462">
        <ele>50.05719</ele>
        <time>2024-07-07T10:23:29.934Z</time>
      </trkpt>
      <trkpt lat="53.06623" lon="5.80474">
        <ele>50.068876</ele>
        <time>2024-07-07T10:23:31.960Z</time>
      </trkpt>
      <trkpt lat="53.06616" lon="5.80487">
        <ele>50.079837</ele>
        <time>2024-07-07T10:23:33.927Z</time>
      </trkpt>
      <trkpt lat="53.06609" lon="5.80499">
        <ele>49.860743</ele>
        <time>2024-07-07T10:23:35.940Z</time>
      </trkpt>
      <trkpt lat="53.06602" lon="5.80513">
        <ele>49.509007</ele>
        <time>2024-07-07T10:23:37.941Z</time>
      </trkpt>
      <trkpt lat="53.06596" lon="5.80526">
        <ele>49.180108</ele>
        <time>2024-07-07T10:23:39.936Z</time>
      </trkpt>
      <trkpt lat="53.06589" lon="5.80538">
        <ele>48.862925</ele>
        <time>2024-07-07T10:23:41.925Z</time>
      </trkpt>
      <trkpt lat="53.06583" lon="5.80549">
        <ele>48.550147</ele>
        <time>2024-07-07T10:23:43.940Z</time>
      </trkpt>
      <trkpt lat="53.06571" lon="5.80558">
        <ele>48.118528</ele>
        <time>2024-07-07T10:23:46.911Z</time>
      </trkpt>
      <trkpt lat="53.06566" lon="5.80572">
        <ele>47.803126</ele>
        <time>2024-07-07T10:23:49.930Z</time>
      </trkpt>
      <trkpt lat="53.06567" lon="5.80589">
        <ele>47.471778</ele>
        <time>2024-07-07T10:23:52.922Z</time>
      </trkpt>
      <trkpt lat="53.06568" lon="5.80606">
        <ele>47.136489</ele>
        <time>2024-07-07T10:23:55.929Z</time>
      </trkpt>
      <trkpt lat="53.06571" lon="5.8062">
        <ele>46.838746</ele>
        <time>2024-07-07T10:23:58.921Z</time>
      </trkpt>
      <trkpt lat="53.06578" lon="5.80632">
        <ele>46.514701</ele>
        <time>2024-07-07T10:24:02.941Z</time>
      </trkpt>
      <trkpt lat="53.0658" lon="5.80642">
        <ele>46.319156</ele>
        <time>2024-07-07T10:24:19.540Z</time>
      </trkpt>
      <trkpt lat="53.0658" lon="5.80625">
        <ele>46.000125</ele>
        <time>2024-07-07T11:03:34.932Z</time>
      </trkpt>
      <trkpt lat="53.06575" lon="5.80612">
        <ele>45.696417</ele>
        <time>2024-07-07T11:03:39.913Z</time>
      </trkpt>
      <trkpt lat="53.06571" lon="5.80596">
        <ele>45.350592</ele>
        <time>2024-07-07T11:03:43.908Z</time>
      </trkpt>
      <trkpt lat="53.06569" lon="5.8058">
        <ele>45.02062</ele>
        <time>2024-07-07T11:03:46.924Z</time>
      </trkpt>
      <trkpt lat="53.06566" lon="5.80563">
        <ele>44.684131</ele>
        <time>2024-07-07T11:03:50.936Z</time>
      </trkpt>
      <trkpt lat="53.06574" lon="5.80554">
        <ele>44.368091</ele>
        <time>2024-07-07T11:03:54.938Z</time>
      </trkpt>
      <trkpt lat="53.06584" lon="5.80546">
        <ele>44.273304</ele>
        <time>2024-07-07T11:03:57.945Z</time>
      </trkpt>
      <trkpt lat="53.06592" lon="5.80533">
        <ele>44.434541</ele>
        <time>2024-07-07T11:04:00.921Z</time>
      </trkpt>
      <trkpt lat="53.06601" lon="5.80519">
        <ele>44.598524</ele>
        <time>2024-07-07T11:04:03.923Z</time>
      </trkpt>
      <trkpt lat="53.06608" lon="5.80504">
        <ele>44.757826</ele>
        <time>2024-07-07T11:04:06.942Z</time>
      </trkpt>
      <trkpt lat="53.06617" lon="5.8049">
        <ele>44.929424</ele>
        <time>2024-07-07T11:04:09.941Z</time>
      </trkpt>
      <trkpt lat="53.06626" lon="5.80475">
        <ele>45.104355</ele>
        <time>2024-07-07T11:04:12.935Z</time>
      </trkpt>
      <trkpt lat="53.06636" lon="5.8046">
        <ele>45.286145</ele>
        <time>2024-07-07T11:04:15.930Z</time>
      </trkpt>
      <trkpt lat="53.06642" lon="5.8045">
        <ele>45.414585</ele>
        <time>2024-07-07T11:04:17.915Z</time>
      </trkpt>
      <trkpt lat="53.0665" lon="5.8044">
        <ele>45.543473</ele>
        <time>2024-07-07T11:04:19.925Z</time>
      </trkpt>
      <trkpt lat="53.06657" lon="5.80431">
        <ele>45.66825</ele>
        <time>2024-07-07T11:04:21.928Z</time>
      </trkpt>
      <trkpt lat="53.06668" lon="5.80418">
        <ele>45.854904</ele>
        <time>2024-07-07T11:04:24.922Z</time>
      </trkpt>
      <trkpt lat="53.06676" lon="5.80409">
        <ele>45.984555</ele>
        <time>2024-07-07T11:04:26.947Z</time>
      </trkpt>
      <trkpt lat="53.06683" lon="5.804">
        <ele>46.113169</ele>
        <time>2024-07-07T11:04:28.925Z</time>
      </trkpt>
      <trkpt lat="53.06691" lon="5.80393">
        <ele>46.241639</ele>
        <time>2024-07-07T11:04:30.925Z</time>
      </trkpt>
      <trkpt lat="53.067" lon="5.80386">
        <ele>46.373574</ele>
        <time>2024-07-07T11:04:32.931Z</time>
      </trkpt>
      <trkpt lat="53.06709" lon="5.8038">
        <ele>46.510146</ele>
        <time>2024-07-07T11:04:34.925Z</time>
      </trkpt>
      <trkpt lat="53.06718" lon="5.80373">
        <ele>46.644241</ele>
        <time>2024-07-07T11:04:36.926Z</time>
      </trkpt>
      <trkpt lat="53.06726" lon="5.80366">
        <ele>46.718474</ele>
        <time>2024-07-07T11:04:38.920Z</time>
      </trkpt>
      <trkpt lat="53.06735" lon="5.80358">
        <ele>46.766127</ele>
        <time>2024-07-07T11:04:40.930Z</time>
      </trkpt>
      <trkpt lat="53.06744" lon="5.80351">
        <ele>46.815669</ele>
        <time>2024-07-07T11:04:42.929Z</time>
      </trkpt>
      <trkpt lat="53.06753" lon="5.80344">
        <ele>46.866428</ele>
        <time>2024-07-07T11:04:44.927Z</time>
      </trkpt>
      <trkpt lat="53.06762" lon="5.80338">
        <ele>46.913207</ele>
        <time>2024-07-07T11:04:46.909Z</time>
      </trkpt>
      <trkpt lat="53.06771" lon="5.80332">
        <ele>46.963121</ele>
        <time>2024-07-07T11:04:48.935Z</time>
      </trkpt>
      <trkpt lat="53.06781" lon="5.80328">
        <ele>47.014058</ele>
        <time>2024-07-07T11:04:50.921Z</time>
      </trkpt>
      <trkpt lat="53.06791" lon="5.80324">
        <ele>47.062668</ele>
        <time>2024-07-07T11:04:52.931Z</time>
      </trkpt>
      <trkpt lat="53.06799" lon="5.80319">
        <ele>47.107532</ele>
        <time>2024-07-07T11:04:54.937Z</time>
      </trkpt>
      <trkpt lat="53.06808" lon="5.80316">
        <ele>47.152565</ele>
        <time>2024-07-07T11:04:56.930Z</time>
      </trkpt>
      <trkpt lat="53.06818" lon="5.80313">
        <ele>47.200404</ele>
        <time>2024-07-07T11:04:58.928Z</time>
      </trkpt>
      <trkpt lat="53.06827" lon="5.8031">
        <ele>47.247647</ele>
        <time>2024-07-07T11:05:00.933Z</time>
      </trkpt>
      <trkpt lat="53.06836" lon="5.80306">
        <ele>47.293008</ele>
        <time>2024-07-07T11:05:02.935Z</time>
      </trkpt>
      <trkpt lat="53.06845" lon="5.80302">
        <ele>47.340581</ele>
        <time>2024-07-07T11:05:04.931Z</time>
      </trkpt>
      <trkpt lat="53.06854" lon="5.80299">
        <ele>47.386584</ele>
        <time>2024-07-07T11:05:06.933Z</time>
      </trkpt>
      <trkpt lat="53.06863" lon="5.80295">
        <ele>47.432978</ele>
        <time>2024-07-07T11:05:08.933Z</time>
      </trkpt>
      <trkpt lat="53.06876" lon="5.80291">
        <ele>47.498993</ele>
        <time>2024-07-07T11:05:11.934Z</time>
      </trkpt>
      <trkpt lat="53.06888" lon="5.80286">
        <ele>47.555868</ele>
        <time>2024-07-07T11:05:14.929Z</time>
      </trkpt>
      <trkpt lat="53.06897" lon="5.80288">
        <ele>47.556525</ele>
        <time>2024-07-07T11:05:17.921Z</time>
      </trkpt>
      <trkpt lat="53.06906" lon="5.80287">
        <ele>47.520645</ele>
        <time>2024-07-07T11:05:20.934Z</time>
      </trkpt>
      <trkpt lat="53.06917" lon="5.80281">
        <ele>47.477248</ele>
        <time>2024-07-07T11:05:23.925Z</time>
      </trkpt>
      <trkpt lat="53.06929" lon="5.80274">
        <ele>47.430708</ele>
        <time>2024-07-07T11:05:26.947Z</time>
      </trkpt>
      <trkpt lat="53.0694" lon="5.80264">
        <ele>47.381555</ele>
        <time>2024-07-07T11:05:29.921Z</time>
      </trkpt>
      <trkpt lat="53.0695" lon="5.80253">
        <ele>47.333215</ele>
        <time>2024-07-07T11:05:32.928Z</time>
      </trkpt>
      <trkpt lat="53.06961" lon="5.8024">
        <ele>47.282437</ele>
        <time>2024-07-07T11:05:35.937Z</time>
      </trkpt>
      <trkpt lat="53.06972" lon="5.80227">
        <ele>47.230496</ele>
        <time>2024-07-07T11:05:38.937Z</time>
      </trkpt>
      <trkpt lat="53.06983" lon="5.80215">
        <ele>47.17985</ele>
        <time>2024-07-07T11:05:41.934Z</time>
      </trkpt>
      <trkpt lat="53.06993" lon="5.802">
        <ele>47.128746</ele>
        <time>2024-07-07T11:05:44.932Z</time>
      </trkpt>
      <trkpt lat="53.07" lon="5.8019">
        <ele>47.092494</ele>
        <time>2024-07-07T11:05:46.944Z</time>
      </trkpt>
      <trkpt lat="53.07007" lon="5.8018">
        <ele>47.056384</ele>
        <time>2024-07-07T11:05:48.935Z</time>
      </trkpt>
      <trkpt lat="53.07015" lon="5.8017">
        <ele>47.01953</ele>
        <time>2024-07-07T11:05:50.942Z</time>
      </trkpt>
      <trkpt lat="53.07022" lon="5.80159">
        <ele>46.981798</ele>
        <time>2024-07-07T11:05:52.936Z</time>
      </trkpt>
      <trkpt lat="53.07029" lon="5.80149">
        <ele>46.945544</ele>
        <time>2024-07-07T11:05:54.943Z</time>
      </trkpt>
      <trkpt lat="53.07037" lon="5.80139">
        <ele>46.908823</ele>
        <time>2024-07-07T11:05:56.932Z</time>
      </trkpt>
      <trkpt lat="53.07043" lon="5.80128">
        <ele>46.88296</ele>
        <time>2024-07-07T11:05:58.946Z</time>
      </trkpt>
      <trkpt lat="53.0705" lon="5.80117">
        <ele>46.877728</ele>
        <time>2024-07-07T11:06:00.941Z</time>
      </trkpt>
      <trkpt lat="53.07057" lon="5.80107">
        <ele>46.872294</ele>
        <time>2024-07-07T11:06:02.934Z</time>
      </trkpt>
      <trkpt lat="53.07065" lon="5.80095">
        <ele>46.866597</ele>
        <time>2024-07-07T11:06:04.931Z</time>
      </trkpt>
      <trkpt lat="53.07072" lon="5.80084">
        <ele>46.861127</ele>
        <time>2024-07-07T11:06:06.934Z</time>
      </trkpt>
      <trkpt lat="53.07079" lon="5.80074">
        <ele>46.855824</ele>
        <time>2024-07-07T11:06:08.952Z</time>
      </trkpt>
      <trkpt lat="53.07086" lon="5.80063">
        <ele>46.850364</ele>
        <time>2024-07-07T11:06:10.931Z</time>
      </trkpt>
      <trkpt lat="53.07094" lon="5.80053">
        <ele>46.844996</ele>
        <time>2024-07-07T11:06:12.935Z</time>
      </trkpt>
      <trkpt lat="53.07101" lon="5.80041">
        <ele>46.839463</ele>
        <time>2024-07-07T11:06:14.936Z</time>
      </trkpt>
      <trkpt lat="53.07107" lon="5.80031">
        <ele>46.834347</ele>
        <time>2024-07-07T11:06:16.952Z</time>
      </trkpt>
      <trkpt lat="53.07117" lon="5.80016">
        <ele>46.826943</ele>
        <time>2024-07-07T11:06:19.935Z</time>
      </trkpt>
      <trkpt lat="53.07127" lon="5.80001">
        <ele>46.819383</ele>
        <time>2024-07-07T11:06:22.945Z</time>
      </trkpt>
      <trkpt lat="53.07137" lon="5.79985">
        <ele>46.811759</ele>
        <time>2024-07-07T11:06:25.933Z</time>
      </trkpt>
      <trkpt lat="53.07147" lon="5.79971">
        <ele>46.804386</ele>
        <time>2024-07-07T11:06:28.948Z</time>
      </trkpt>
      <trkpt lat="53.07156" lon="5.79957">
        <ele>46.797366</ele>
        <time>2024-07-07T11:06:31.941Z</time>
      </trkpt>
      <trkpt lat="53.07165" lon="5.79941">
        <ele>46.790106</ele>
        <time>2024-07-07T11:06:34.920Z</time>
      </trkpt>
      <trkpt lat="53.07173" lon="5.79927">
        <ele>46.782858</ele>
        <time>2024-07-07T11:06:37.941Z</time>
      </trkpt>
      <trkpt lat="53.07182" lon="5.79913">
        <ele>46.767932</ele>
        <time>2024-07-07T11:06:40.948Z</time>
      </trkpt>
      <trkpt lat="53.07191" lon="5.79899">
        <ele>46.752698</ele>
        <time>2024-07-07T11:06:43.931Z</time>
      </trkpt>
      <trkpt lat="53.072" lon="5.79884">
        <ele>46.736887</ele>
        <time>2024-07-07T11:06:46.933Z</time>
      </trkpt>
      <trkpt lat="53.0721" lon="5.7987">
        <ele>46.720577</ele>
        <time>2024-07-07T11:06:49.937Z</time>
      </trkpt>
      <trkpt lat="53.0722" lon="5.79855">
        <ele>46.704047</ele>
        <time>2024-07-07T11:06:52.949Z</time>
      </trkpt>
      <trkpt lat="53.0723" lon="5.79841">
        <ele>46.687595</ele>
        <time>2024-07-07T11:06:55.955Z</time>
      </trkpt>
      <trkpt lat="53.07237" lon="5.79832">
        <ele>46.676135</ele>
        <time>2024-07-07T11:06:57.933Z</time>
      </trkpt>
      <trkpt lat="53.07244" lon="5.79822">
        <ele>46.66469</ele>
        <time>2024-07-07T11:06:59.931Z</time>
      </trkpt>
      <trkpt lat="53.07251" lon="5.79811">
        <ele>46.65304</ele>
        <time>2024-07-07T11:07:01.935Z</time>
      </trkpt>
      <trkpt lat="53.07259" lon="5.79801">
        <ele>46.641063</ele>
        <time>2024-07-07T11:07:03.949Z</time>
      </trkpt>
      <trkpt lat="53.07266" lon="5.79791">
        <ele>46.629853</ele>
        <time>2024-07-07T11:07:05.933Z</time>
      </trkpt>
      <trkpt lat="53.07273" lon="5.79781">
        <ele>46.618353</ele>
        <time>2024-07-07T11:07:07.937Z</time>
      </trkpt>
      <trkpt lat="53.07283" lon="5.79766">
        <ele>46.601657</ele>
        <time>2024-07-07T11:07:10.941Z</time>
      </trkpt>
      <trkpt lat="53.07292" lon="5.79751">
        <ele>46.585188</ele>
        <time>2024-07-07T11:07:13.944Z</time>
      </trkpt>
      <trkpt lat="53.07299" lon="5.79741">
        <ele>46.57388</ele>
        <time>2024-07-07T11:07:15.935Z</time>
      </trkpt>
      <trkpt lat="53.07306" lon="5.79731">
        <ele>46.562714</ele>
        <time>2024-07-07T11:07:17.941Z</time>
      </trkpt>
      <trkpt lat="53.07313" lon="5.79721">
        <ele>46.622705</ele>
        <time>2024-07-07T11:07:19.945Z</time>
      </trkpt>
      <trkpt lat="53.07319" lon="5.7971">
        <ele>46.700112</ele>
        <time>2024-07-07T11:07:21.949Z</time>
      </trkpt>
      <trkpt lat="53.07326" lon="5.797">
        <ele>46.777866</ele>
        <time>2024-07-07T11:07:23.939Z</time>
      </trkpt>
      <trkpt lat="53.07333" lon="5.7969">
        <ele>46.853159</ele>
        <time>2024-07-07T11:07:25.942Z</time>
      </trkpt>
      <trkpt lat="53.0734" lon="5.7968">
        <ele>46.92824</ele>
        <time>2024-07-07T11:07:27.937Z</time>
      </trkpt>
      <trkpt lat="53.0735" lon="5.79665">
        <ele>47.039131</ele>
        <time>2024-07-07T11:07:30.940Z</time>
      </trkpt>
      <trkpt lat="53.07356" lon="5.79655">
        <ele>47.115107</ele>
        <time>2024-07-07T11:07:32.946Z</time>
      </trkpt>
      <trkpt lat="53.07363" lon="5.79644">
        <ele>47.192383</ele>
        <time>2024-07-07T11:07:34.956Z</time>
      </trkpt>
      <trkpt lat="53.07372" lon="5.79629">
        <ele>47.300447</ele>
        <time>2024-07-07T11:07:37.933Z</time>
      </trkpt>
      <trkpt lat="53.07382" lon="5.79616">
        <ele>47.407809</ele>
        <time>2024-07-07T11:07:40.948Z</time>
      </trkpt>
      <trkpt lat="53.07391" lon="5.79602">
        <ele>47.507576</ele>
        <time>2024-07-07T11:07:43.941Z</time>
      </trkpt>
      <trkpt lat="53.07401" lon="5.79589">
        <ele>47.61074</ele>
        <time>2024-07-07T11:07:46.936Z</time>
      </trkpt>
      <trkpt lat="53.0741" lon="5.79575">
        <ele>47.715826</ele>
        <time>2024-07-07T11:07:49.939Z</time>
      </trkpt>
      <trkpt lat="53.07419" lon="5.79562">
        <ele>47.813914</ele>
        <time>2024-07-07T11:07:52.930Z</time>
      </trkpt>
      <trkpt lat="53.07428" lon="5.79547">
        <ele>47.92166</ele>
        <time>2024-07-07T11:07:55.948Z</time>
      </trkpt>
      <trkpt lat="53.07437" lon="5.79531">
        <ele>48.031021</ele>
        <time>2024-07-07T11:07:58.926Z</time>
      </trkpt>
      <trkpt lat="53.07447" lon="5.79518">
        <ele>48.152103</ele>
        <time>2024-07-07T11:08:01.939Z</time>
      </trkpt>
      <trkpt lat="53.07455" lon="5.79506">
        <ele>48.262987</ele>
        <time>2024-07-07T11:08:04.952Z</time>
      </trkpt>
      <trkpt lat="53.07462" lon="5.79496">
        <ele>48.362754</ele>
        <time>2024-07-07T11:08:09.950Z</time>
      </trkpt>
      <trkpt lat="53.0747" lon="5.79483">
        <ele>48.471837</ele>
        <time>2024-07-07T11:10:07.926Z</time>
      </trkpt>
      <trkpt lat="53.0748" lon="5.79475">
        <ele>48.58999</ele>
        <time>2024-07-07T11:10:11.941Z</time>
      </trkpt>
      <trkpt lat="53.0749" lon="5.79469">
        <ele>48.697026</ele>
        <time>2024-07-07T11:10:15.941Z</time>
      </trkpt>
      <trkpt lat="53.07501" lon="5.79465">
        <ele>48.81263</ele>
        <time>2024-07-07T11:10:20.934Z</time>
      </trkpt>
      <trkpt lat="53.0751" lon="5.79457">
        <ele>48.921627</ele>
        <time>2024-07-07T11:10:24.916Z</time>
      </trkpt>
      <trkpt lat="53.07518" lon="5.79447">
        <ele>49.020825</ele>
        <time>2024-07-07T11:10:27.957Z</time>
      </trkpt>
      <trkpt lat="53.07526" lon="5.79436">
        <ele>49.129712</ele>
        <time>2024-07-07T11:10:30.920Z</time>
      </trkpt>
      <trkpt lat="53.07534" lon="5.79425">
        <ele>49.238582</ele>
        <time>2024-07-07T11:10:33.938Z</time>
      </trkpt>
      <trkpt lat="53.07542" lon="5.79411">
        <ele>49.355786</ele>
        <time>2024-07-07T11:10:36.932Z</time>
      </trkpt>
      <trkpt lat="53.07551" lon="5.79398">
        <ele>49.475808</ele>
        <time>2024-07-07T11:10:39.942Z</time>
      </trkpt>
      <trkpt lat="53.0756" lon="5.79386">
        <ele>49.59735</ele>
        <time>2024-07-07T11:10:42.939Z</time>
      </trkpt>
      <trkpt lat="53.07569" lon="5.79373">
        <ele>49.718888</ele>
        <time>2024-07-07T11:10:45.939Z</time>
      </trkpt>
      <trkpt lat="53.07578" lon="5.7936">
        <ele>49.843604</ele>
        <time>2024-07-07T11:10:48.943Z</time>
      </trkpt>
      <trkpt lat="53.07588" lon="5.79348">
        <ele>49.903171</ele>
        <time>2024-07-07T11:10:51.943Z</time>
      </trkpt>
      <trkpt lat="53.07599" lon="5.79339">
        <ele>49.881743</ele>
        <time>2024-07-07T11:10:54.954Z</time>
      </trkpt>
      <trkpt lat="53.0761" lon="5.79332">
        <ele>49.859715</ele>
        <time>2024-07-07T11:10:57.936Z</time>
      </trkpt>
      <trkpt lat="53.07621" lon="5.79328">
        <ele>49.839388</ele>
        <time>2024-07-07T11:11:00.919Z</time>
      </trkpt>
      <trkpt lat="53.07633" lon="5.79323">
        <ele>49.817367</ele>
        <time>2024-07-07T11:11:03.949Z</time>
      </trkpt>
      <trkpt lat="53.07645" lon="5.79316">
        <ele>49.794374</ele>
        <time>2024-07-07T11:11:06.932Z</time>
      </trkpt>
      <trkpt lat="53.07657" lon="5.79311">
        <ele>49.77362</ele>
        <time>2024-07-07T11:11:09.950Z</time>
      </trkpt>
      <trkpt lat="53.07669" lon="5.79306">
        <ele>49.75108</ele>
        <time>2024-07-07T11:11:12.950Z</time>
      </trkpt>
      <trkpt lat="53.0768" lon="5.793">
        <ele>49.729339</ele>
        <time>2024-07-07T11:11:15.927Z</time>
      </trkpt>
      <trkpt lat="53.07692" lon="5.79294">
        <ele>49.706989</ele>
        <time>2024-07-07T11:11:18.932Z</time>
      </trkpt>
      <trkpt lat="53.07704" lon="5.79289">
        <ele>49.685049</ele>
        <time>2024-07-07T11:11:21.932Z</time>
      </trkpt>
      <trkpt lat="53.07717" lon="5.79285">
        <ele>49.662362</ele>
        <time>2024-07-07T11:11:24.931Z</time>
      </trkpt>
      <trkpt lat="53.07729" lon="5.79284">
        <ele>49.639611</ele>
        <time>2024-07-07T11:11:27.933Z</time>
      </trkpt>
      <trkpt lat="53.07741" lon="5.79285">
        <ele>49.618133</ele>
        <time>2024-07-07T11:11:30.932Z</time>
      </trkpt>
      <trkpt lat="53.07754" lon="5.79285">
        <ele>49.595759</ele>
        <time>2024-07-07T11:11:33.931Z</time>
      </trkpt>
      <trkpt lat="53.07766" lon="5.79289">
        <ele>49.563839</ele>
        <time>2024-07-07T11:11:36.949Z</time>
      </trkpt>
      <trkpt lat="53.07778" lon="5.79291">
        <ele>49.528065</ele>
        <time>2024-07-07T11:11:39.926Z</time>
      </trkpt>
      <trkpt lat="53.0779" lon="5.79294">
        <ele>49.494165</ele>
        <time>2024-07-07T11:11:42.932Z</time>
      </trkpt>
      <trkpt lat="53.07802" lon="5.79298">
        <ele>49.459443</ele>
        <time>2024-07-07T11:11:45.937Z</time>
      </trkpt>
      <trkpt lat="53.07816" lon="5.793">
        <ele>49.420905</ele>
        <time>2024-07-07T11:11:48.937Z</time>
      </trkpt>
      <trkpt lat="53.07829" lon="5.79304">
        <ele>49.38384</ele>
        <time>2024-07-07T11:11:51.939Z</time>
      </trkpt>
      <trkpt lat="53.07842" lon="5.79308">
        <ele>49.345427</ele>
        <time>2024-07-07T11:11:54.923Z</time>
      </trkpt>
      <trkpt lat="53.07854" lon="5.79311">
        <ele>49.309231</ele>
        <time>2024-07-07T11:11:57.957Z</time>
      </trkpt>
      <trkpt lat="53.07867" lon="5.7932">
        <ele>49.271278</ele>
        <time>2024-07-07T11:12:00.929Z</time>
      </trkpt>
      <trkpt lat="53.07875" lon="5.79327">
        <ele>49.24424</ele>
        <time>2024-07-07T11:12:02.935Z</time>
      </trkpt>
      <trkpt lat="53.07884" lon="5.79333">
        <ele>49.21852</ele>
        <time>2024-07-07T11:12:04.928Z</time>
      </trkpt>
      <trkpt lat="53.07895" lon="5.79343">
        <ele>49.180816</ele>
        <time>2024-07-07T11:12:07.933Z</time>
      </trkpt>
      <trkpt lat="53.07904" lon="5.79349">
        <ele>49.155205</ele>
        <time>2024-07-07T11:12:09.926Z</time>
      </trkpt>
      <trkpt lat="53.07916" lon="5.79357">
        <ele>49.117029</ele>
        <time>2024-07-07T11:12:12.932Z</time>
      </trkpt>
      <trkpt lat="53.07929" lon="5.79362">
        <ele>49.080258</ele>
        <time>2024-07-07T11:12:15.925Z</time>
      </trkpt>
      <trkpt lat="53.0794" lon="5.79372">
        <ele>49.083173</ele>
        <time>2024-07-07T11:12:18.929Z</time>
      </trkpt>
      <trkpt lat="53.07952" lon="5.79382">
        <ele>49.086199</ele>
        <time>2024-07-07T11:12:21.926Z</time>
      </trkpt>
      <trkpt lat="53.07964" lon="5.79392">
        <ele>49.089231</ele>
        <time>2024-07-07T11:12:24.920Z</time>
      </trkpt>
      <trkpt lat="53.07972" lon="5.79399">
        <ele>49.091306</ele>
        <time>2024-07-07T11:12:26.932Z</time>
      </trkpt>
      <trkpt lat="53.07983" lon="5.79409">
        <ele>49.094269</ele>
        <time>2024-07-07T11:12:29.932Z</time>
      </trkpt>
      <trkpt lat="53.07996" lon="5.79417">
        <ele>49.097339</ele>
        <time>2024-07-07T11:12:32.928Z</time>
      </trkpt>
      <trkpt lat="53.08005" lon="5.79421">
        <ele>49.099412</ele>
        <time>2024-07-07T11:12:34.936Z</time>
      </trkpt>
      <trkpt lat="53.08014" lon="5.79424">
        <ele>49.101558</ele>
        <time>2024-07-07T11:12:36.940Z</time>
      </trkpt>
      <trkpt lat="53.08024" lon="5.79427">
        <ele>49.103823</ele>
        <time>2024-07-07T11:12:38.911Z</time>
      </trkpt>
      <trkpt lat="53.08033" lon="5.79432">
        <ele>49.10601</ele>
        <time>2024-07-07T11:12:40.928Z</time>
      </trkpt>
      <trkpt lat="53.08042" lon="5.79435">
        <ele>49.108131</ele>
        <time>2024-07-07T11:12:42.932Z</time>
      </trkpt>
      <trkpt lat="53.08051" lon="5.79439">
        <ele>49.110253</ele>
        <time>2024-07-07T11:12:44.928Z</time>
      </trkpt>
      <trkpt lat="53.08063" lon="5.79444">
        <ele>49.113252</ele>
        <time>2024-07-07T11:12:47.913Z</time>
      </trkpt>
      <trkpt lat="53.08072" lon="5.79448">
        <ele>49.115374</ele>
        <time>2024-07-07T11:12:49.973Z</time>
      </trkpt>
      <trkpt lat="53.08081" lon="5.79451">
        <ele>49.117457</ele>
        <time>2024-07-07T11:12:51.945Z</time>
      </trkpt>
      <trkpt lat="53.0809" lon="5.79456">
        <ele>49.11953</ele>
        <time>2024-07-07T11:12:53.933Z</time>
      </trkpt>
      <trkpt lat="53.081" lon="5.79459">
        <ele>49.118053</ele>
        <time>2024-07-07T11:12:55.935Z</time>
      </trkpt>
      <trkpt lat="53.08109" lon="5.79463">
        <ele>49.100447</ele>
        <time>2024-07-07T11:12:57.923Z</time>
      </trkpt>
      <trkpt lat="53.08117" lon="5.79466">
        <ele>49.083624</ele>
        <time>2024-07-07T11:12:59.911Z</time>
      </trkpt>
      <trkpt lat="53.0813" lon="5.7947">
        <ele>49.05863</ele>
        <time>2024-07-07T11:13:02.947Z</time>
      </trkpt>
      <trkpt lat="53.08143" lon="5.7947">
        <ele>49.035541</ele>
        <time>2024-07-07T11:13:05.918Z</time>
      </trkpt>
      <trkpt lat="53.08156" lon="5.79468">
        <ele>49.011461</ele>
        <time>2024-07-07T11:13:08.919Z</time>
      </trkpt>
      <trkpt lat="53.08169" lon="5.79465">
        <ele>48.986429</ele>
        <time>2024-07-07T11:13:11.949Z</time>
      </trkpt>
      <trkpt lat="53.08182" lon="5.79462">
        <ele>48.961954</ele>
        <time>2024-07-07T11:13:14.936Z</time>
      </trkpt>
      <trkpt lat="53.08194" lon="5.79457">
        <ele>48.939078</ele>
        <time>2024-07-07T11:13:17.938Z</time>
      </trkpt>
      <trkpt lat="53.08207" lon="5.79453">
        <ele>48.914205</ele>
        <time>2024-07-07T11:13:20.931Z</time>
      </trkpt>
      <trkpt lat="53.08219" lon="5.79448">
        <ele>48.88955</ele>
        <time>2024-07-07T11:13:23.949Z</time>
      </trkpt>
      <trkpt lat="53.08231" lon="5.79443">
        <ele>48.866025</ele>
        <time>2024-07-07T11:13:26.933Z</time>
      </trkpt>
      <trkpt lat="53.08241" lon="5.79431">
        <ele>48.84359</ele>
        <time>2024-07-07T11:13:29.925Z</time>
      </trkpt>
      <trkpt lat="53.0825" lon="5.79418">
        <ele>48.821699</ele>
        <time>2024-07-07T11:13:32.942Z</time>
      </trkpt>
      <trkpt lat="53.0826" lon="5.79418">
        <ele>48.801992</ele>
        <time>2024-07-07T11:13:35.943Z</time>
      </trkpt>
      <trkpt lat="53.08271" lon="5.7941">
        <ele>48.775175</ele>
        <time>2024-07-07T11:13:38.920Z</time>
      </trkpt>
      <trkpt lat="53.0828" lon="5.79403">
        <ele>48.729787</ele>
        <time>2024-07-07T11:13:41.936Z</time>
      </trkpt>
      <trkpt lat="53.08285" lon="5.79389">
        <ele>48.686117</ele>
        <time>2024-07-07T11:13:45.916Z</time>
      </trkpt>
      <trkpt lat="53.08288" lon="5.79374">
        <ele>48.645894</ele>
        <time>2024-07-07T11:13:49.931Z</time>
      </trkpt>
      <trkpt lat="53.08297" lon="5.79368">
        <ele>48.604317</ele>
        <time>2024-07-07T11:13:52.922Z</time>
      </trkpt>
      <trkpt lat="53.08306" lon="5.7936">
        <ele>48.557404</ele>
        <time>2024-07-07T11:13:55.936Z</time>
      </trkpt>
      <trkpt lat="53.08316" lon="5.79351">
        <ele>48.507716</ele>
        <time>2024-07-07T11:13:58.928Z</time>
      </trkpt>
      <trkpt lat="53.08322" lon="5.79335">
        <ele>48.46091</ele>
        <time>2024-07-07T11:14:01.924Z</time>
      </trkpt>
      <trkpt lat="53.08328" lon="5.79319">
        <ele>48.409773</ele>
        <time>2024-07-07T11:14:04.933Z</time>
      </trkpt>
      <trkpt lat="53.08338" lon="5.79309">
        <ele>48.359129</ele>
        <time>2024-07-07T11:14:07.937Z</time>
      </trkpt>
      <trkpt lat="53.08349" lon="5.793">
        <ele>48.306305</ele>
        <time>2024-07-07T11:14:10.949Z</time>
      </trkpt>
      <trkpt lat="53.08358" lon="5.7929">
        <ele>48.257563</ele>
        <time>2024-07-07T11:14:13.944Z</time>
      </trkpt>
      <trkpt lat="53.08368" lon="5.79282">
        <ele>48.208909</ele>
        <time>2024-07-07T11:14:16.946Z</time>
      </trkpt>
      <trkpt lat="53.08379" lon="5.79272">
        <ele>48.156427</ele>
        <time>2024-07-07T11:14:19.924Z</time>
      </trkpt>
      <trkpt lat="53.08389" lon="5.79262">
        <ele>48.10419</ele>
        <time>2024-07-07T11:14:22.942Z</time>
      </trkpt>
      <trkpt lat="53.084" lon="5.7925">
        <ele>48.046315</ele>
        <time>2024-07-07T11:14:25.945Z</time>
      </trkpt>
      <trkpt lat="53.08411" lon="5.79241">
        <ele>47.996407</ele>
        <time>2024-07-07T11:14:28.936Z</time>
      </trkpt>
      <trkpt lat="53.08422" lon="5.79232">
        <ele>47.974408</ele>
        <time>2024-07-07T11:14:31.928Z</time>
      </trkpt>
      <trkpt lat="53.08433" lon="5.79224">
        <ele>47.953518</ele>
        <time>2024-07-07T11:14:34.917Z</time>
      </trkpt>
      <trkpt lat="53.08444" lon="5.79216">
        <ele>47.930818</ele>
        <time>2024-07-07T11:14:37.939Z</time>
      </trkpt>
      <trkpt lat="53.08456" lon="5.79208">
        <ele>47.907915</ele>
        <time>2024-07-07T11:14:40.934Z</time>
      </trkpt>
      <trkpt lat="53.08468" lon="5.79198">
        <ele>47.884244</ele>
        <time>2024-07-07T11:14:43.926Z</time>
      </trkpt>
      <trkpt lat="53.08477" lon="5.79194">
        <ele>47.868045</ele>
        <time>2024-07-07T11:14:45.923Z</time>
      </trkpt>
      <trkpt lat="53.08489" lon="5.79186">
        <ele>47.844828</ele>
        <time>2024-07-07T11:14:48.938Z</time>
      </trkpt>
      <trkpt lat="53.08501" lon="5.7918">
        <ele>47.822084</ele>
        <time>2024-07-07T11:14:51.932Z</time>
      </trkpt>
      <trkpt lat="53.08514" lon="5.79174">
        <ele>47.799325</ele>
        <time>2024-07-07T11:14:54.926Z</time>
      </trkpt>
      <trkpt lat="53.08522" lon="5.7917">
        <ele>47.783219</ele>
        <time>2024-07-07T11:14:56.927Z</time>
      </trkpt>
      <trkpt lat="53.08535" lon="5.79167">
        <ele>47.761276</ele>
        <time>2024-07-07T11:14:59.949Z</time>
      </trkpt>
      <trkpt lat="53.08547" lon="5.79162">
        <ele>47.738189</ele>
        <time>2024-07-07T11:15:02.944Z</time>
      </trkpt>
      <trkpt lat="53.08559" lon="5.79158">
        <ele>47.717649</ele>
        <time>2024-07-07T11:15:05.942Z</time>
      </trkpt>
      <trkpt lat="53.08571" lon="5.79157">
        <ele>47.695215</ele>
        <time>2024-07-07T11:15:08.943Z</time>
      </trkpt>
      <trkpt lat="53.08584" lon="5.79157">
        <ele>47.689219</ele>
        <time>2024-07-07T11:15:11.928Z</time>
      </trkpt>
      <trkpt lat="53.08596" lon="5.79156">
        <ele>47.73706</ele>
        <time>2024-07-07T11:15:14.929Z</time>
      </trkpt>
      <trkpt lat="53.08609" lon="5.79153">
        <ele>47.787026</ele>
        <time>2024-07-07T11:15:17.929Z</time>
      </trkpt>
      <trkpt lat="53.08622" lon="5.79149">
        <ele>47.838277</ele>
        <time>2024-07-07T11:15:20.943Z</time>
      </trkpt>
      <trkpt lat="53.08635" lon="5.79146">
        <ele>47.887003</ele>
        <time>2024-07-07T11:15:23.928Z</time>
      </trkpt>
      <trkpt lat="53.08644" lon="5.79144">
        <ele>47.92201</ele>
        <time>2024-07-07T11:15:25.949Z</time>
      </trkpt>
      <trkpt lat="53.08653" lon="5.79142">
        <ele>47.957802</ele>
        <time>2024-07-07T11:15:27.933Z</time>
      </trkpt>
      <trkpt lat="53.08663" lon="5.79139">
        <ele>47.995143</ele>
        <time>2024-07-07T11:15:29.922Z</time>
      </trkpt>
      <trkpt lat="53.08676" lon="5.79137">
        <ele>48.046518</ele>
        <time>2024-07-07T11:15:32.936Z</time>
      </trkpt>
      <trkpt lat="53.08689" lon="5.79137">
        <ele>48.095877</ele>
        <time>2024-07-07T11:15:35.933Z</time>
      </trkpt>
      <trkpt lat="53.08703" lon="5.79134">
        <ele>48.147126</ele>
        <time>2024-07-07T11:15:38.929Z</time>
      </trkpt>
      <trkpt lat="53.08712" lon="5.79132">
        <ele>48.182108</ele>
        <time>2024-07-07T11:15:40.926Z</time>
      </trkpt>
      <trkpt lat="53.08721" lon="5.7913">
        <ele>48.217957</ele>
        <time>2024-07-07T11:15:42.924Z</time>
      </trkpt>
      <trkpt lat="53.08734" lon="5.79128">
        <ele>48.268391</ele>
        <time>2024-07-07T11:15:45.928Z</time>
      </trkpt>
      <trkpt lat="53.08747" lon="5.79126">
        <ele>48.316257</ele>
        <time>2024-07-07T11:15:48.919Z</time>
      </trkpt>
      <trkpt lat="53.08759" lon="5.79124">
        <ele>48.363481</ele>
        <time>2024-07-07T11:15:51.943Z</time>
      </trkpt>
      <trkpt lat="53.08772" lon="5.79121">
        <ele>48.33776</ele>
        <time>2024-07-07T11:15:54.926Z</time>
      </trkpt>
      <trkpt lat="53.08781" lon="5.79117">
        <ele>48.316356</ele>
        <time>2024-07-07T11:15:56.943Z</time>
      </trkpt>
      <trkpt lat="53.08791" lon="5.79114">
        <ele>48.294753</ele>
        <time>2024-07-07T11:15:58.933Z</time>
      </trkpt>
      <trkpt lat="53.088" lon="5.79111">
        <ele>48.273904</ele>
        <time>2024-07-07T11:16:00.935Z</time>
      </trkpt>
      <trkpt lat="53.08809" lon="5.79108">
        <ele>48.252531</ele>
        <time>2024-07-07T11:16:02.933Z</time>
      </trkpt>
      <trkpt lat="53.08818" lon="5.79105">
        <ele>48.231762</ele>
        <time>2024-07-07T11:16:04.943Z</time>
      </trkpt>
      <trkpt lat="53.08827" lon="5.79104">
        <ele>48.210863</ele>
        <time>2024-07-07T11:16:06.923Z</time>
      </trkpt>
      <trkpt lat="53.0884" lon="5.79103">
        <ele>48.182374</ele>
        <time>2024-07-07T11:16:09.944Z</time>
      </trkpt>
      <trkpt lat="53.08852" lon="5.79102">
        <ele>48.155895</ele>
        <time>2024-07-07T11:16:12.949Z</time>
      </trkpt>
      <trkpt lat="53.08865" lon="5.79101">
        <ele>48.125394</ele>
        <time>2024-07-07T11:16:15.950Z</time>
      </trkpt>
      <trkpt lat="53.08875" lon="5.79101">
        <ele>48.103411</ele>
        <time>2024-07-07T11:16:17.944Z</time>
      </trkpt>
      <trkpt lat="53.08885" lon="5.791">
        <ele>48.080757</ele>
        <time>2024-07-07T11:16:19.943Z</time>
      </trkpt>
      <trkpt lat="53.08895" lon="5.79099">
        <ele>48.059434</ele>
        <time>2024-07-07T11:16:21.941Z</time>
      </trkpt>
      <trkpt lat="53.08905" lon="5.79098">
        <ele>48.036939</ele>
        <time>2024-07-07T11:16:23.940Z</time>
      </trkpt>
      <trkpt lat="53.08915" lon="5.79097">
        <ele>48.014017</ele>
        <time>2024-07-07T11:16:25.943Z</time>
      </trkpt>
      <trkpt lat="53.08925" lon="5.79096">
        <ele>47.992043</ele>
        <time>2024-07-07T11:16:27.946Z</time>
      </trkpt>
      <trkpt lat="53.08935" lon="5.79096">
        <ele>47.970295</ele>
        <time>2024-07-07T11:16:29.939Z</time>
      </trkpt>
      <trkpt lat="53.08944" lon="5.79095">
        <ele>47.993859</ele>
        <time>2024-07-07T11:16:31.937Z</time>
      </trkpt>
      <trkpt lat="53.08953" lon="5.79095">
        <ele>48.04473</ele>
        <time>2024-07-07T11:16:33.931Z</time>
      </trkpt>
      <trkpt lat="53.08963" lon="5.79095">
        <ele>48.096175</ele>
        <time>2024-07-07T11:16:35.937Z</time>
      </trkpt>
      <trkpt lat="53.08973" lon="5.79094">
        <ele>48.149784</ele>
        <time>2024-07-07T11:16:37.932Z</time>
      </trkpt>
      <trkpt lat="53.08982" lon="5.79094">
        <ele>48.202276</ele>
        <time>2024-07-07T11:16:39.931Z</time>
      </trkpt>
      <trkpt lat="53.08992" lon="5.79094">
        <ele>48.254251</ele>
        <time>2024-07-07T11:16:41.947Z</time>
      </trkpt>
      <trkpt lat="53.09001" lon="5.79093">
        <ele>48.303602</ele>
        <time>2024-07-07T11:16:43.944Z</time>
      </trkpt>
      <trkpt lat="53.09011" lon="5.79092">
        <ele>48.358353</ele>
        <time>2024-07-07T11:16:45.940Z</time>
      </trkpt>
      <trkpt lat="53.09021" lon="5.79091">
        <ele>48.410966</ele>
        <time>2024-07-07T11:16:47.951Z</time>
      </trkpt>
      <trkpt lat="53.0903" lon="5.79089">
        <ele>48.462783</ele>
        <time>2024-07-07T11:16:49.949Z</time>
      </trkpt>
      <trkpt lat="53.09044" lon="5.79088">
        <ele>48.535343</ele>
        <time>2024-07-07T11:16:52.924Z</time>
      </trkpt>
      <trkpt lat="53.09053" lon="5.79087">
        <ele>48.587842</ele>
        <time>2024-07-07T11:16:54.948Z</time>
      </trkpt>
      <trkpt lat="53.09063" lon="5.79087">
        <ele>48.640337</ele>
        <time>2024-07-07T11:16:56.938Z</time>
      </trkpt>
      <trkpt lat="53.09073" lon="5.79087">
        <ele>48.69337</ele>
        <time>2024-07-07T11:16:58.929Z</time>
      </trkpt>
      <trkpt lat="53.09083" lon="5.79086">
        <ele>48.746058</ele>
        <time>2024-07-07T11:17:00.947Z</time>
      </trkpt>
      <trkpt lat="53.09093" lon="5.79086">
        <ele>48.800717</ele>
        <time>2024-07-07T11:17:02.948Z</time>
      </trkpt>
      <trkpt lat="53.09102" lon="5.79085">
        <ele>48.85267</ele>
        <time>2024-07-07T11:17:04.954Z</time>
      </trkpt>
      <trkpt lat="53.09112" lon="5.79084">
        <ele>48.902561</ele>
        <time>2024-07-07T11:17:06.934Z</time>
      </trkpt>
      <trkpt lat="53.09121" lon="5.79084">
        <ele>48.922084</ele>
        <time>2024-07-07T11:17:08.924Z</time>
      </trkpt>
      <trkpt lat="53.09131" lon="5.79082">
        <ele>48.887069</ele>
        <time>2024-07-07T11:17:10.941Z</time>
      </trkpt>
      <trkpt lat="53.0914" lon="5.79081">
        <ele>48.853585</ele>
        <time>2024-07-07T11:17:12.933Z</time>
      </trkpt>
      <trkpt lat="53.0915" lon="5.79078">
        <ele>48.81826</ele>
        <time>2024-07-07T11:17:14.931Z</time>
      </trkpt>
      <trkpt lat="53.09159" lon="5.79075">
        <ele>48.78313</ele>
        <time>2024-07-07T11:17:16.929Z</time>
      </trkpt>
      <trkpt lat="53.09168" lon="5.79071">
        <ele>48.750128</ele>
        <time>2024-07-07T11:17:18.930Z</time>
      </trkpt>
      <trkpt lat="53.09178" lon="5.79067">
        <ele>48.715259</ele>
        <time>2024-07-07T11:17:20.927Z</time>
      </trkpt>
      <trkpt lat="53.09187" lon="5.79063">
        <ele>48.678821</ele>
        <time>2024-07-07T11:17:22.928Z</time>
      </trkpt>
      <trkpt lat="53.09197" lon="5.79058">
        <ele>48.643081</ele>
        <time>2024-07-07T11:17:24.941Z</time>
      </trkpt>
      <trkpt lat="53.09206" lon="5.79054">
        <ele>48.606934</ele>
        <time>2024-07-07T11:17:26.945Z</time>
      </trkpt>
      <trkpt lat="53.09216" lon="5.7905">
        <ele>48.570661</ele>
        <time>2024-07-07T11:17:28.929Z</time>
      </trkpt>
      <trkpt lat="53.09225" lon="5.79045">
        <ele>48.535498</ele>
        <time>2024-07-07T11:17:30.939Z</time>
      </trkpt>
      <trkpt lat="53.09235" lon="5.79041">
        <ele>48.501035</ele>
        <time>2024-07-07T11:17:32.931Z</time>
      </trkpt>
      <trkpt lat="53.09243" lon="5.79037">
        <ele>48.467794</ele>
        <time>2024-07-07T11:17:34.952Z</time>
      </trkpt>
      <trkpt lat="53.09253" lon="5.79033">
        <ele>48.431763</ele>
        <time>2024-07-07T11:17:36.934Z</time>
      </trkpt>
      <trkpt lat="53.09262" lon="5.79029">
        <ele>48.398757</ele>
        <time>2024-07-07T11:17:38.932Z</time>
      </trkpt>
      <trkpt lat="53.09271" lon="5.79025">
        <ele>48.365455</ele>
        <time>2024-07-07T11:17:40.927Z</time>
      </trkpt>
      <trkpt lat="53.0928" lon="5.79022">
        <ele>48.332348</ele>
        <time>2024-07-07T11:17:42.948Z</time>
      </trkpt>
      <trkpt lat="53.09292" lon="5.79018">
        <ele>48.287716</ele>
        <time>2024-07-07T11:17:45.950Z</time>
      </trkpt>
      <trkpt lat="53.09301" lon="5.79013">
        <ele>48.285688</ele>
        <time>2024-07-07T11:17:47.940Z</time>
      </trkpt>
      <trkpt lat="53.09315" lon="5.79007">
        <ele>48.288631</ele>
        <time>2024-07-07T11:17:50.938Z</time>
      </trkpt>
      <trkpt lat="53.09324" lon="5.79003">
        <ele>48.290677</ele>
        <time>2024-07-07T11:17:52.944Z</time>
      </trkpt>
      <trkpt lat="53.09333" lon="5.78998">
        <ele>48.292707</ele>
        <time>2024-07-07T11:17:54.947Z</time>
      </trkpt>
      <trkpt lat="53.09342" lon="5.78994">
        <ele>48.294652</ele>
        <time>2024-07-07T11:17:56.935Z</time>
      </trkpt>
      <trkpt lat="53.09355" lon="5.78988">
        <ele>48.297459</ele>
        <time>2024-07-07T11:17:59.932Z</time>
      </trkpt>
      <trkpt lat="53.09364" lon="5.78983">
        <ele>48.29962</ele>
        <time>2024-07-07T11:18:01.934Z</time>
      </trkpt>
      <trkpt lat="53.09374" lon="5.7898">
        <ele>48.301676</ele>
        <time>2024-07-07T11:18:03.937Z</time>
      </trkpt>
      <trkpt lat="53.09383" lon="5.78975">
        <ele>48.303625</ele>
        <time>2024-07-07T11:18:05.933Z</time>
      </trkpt>
      <trkpt lat="53.09391" lon="5.78971">
        <ele>48.305522</ele>
        <time>2024-07-07T11:18:07.933Z</time>
      </trkpt>
      <trkpt lat="53.09401" lon="5.78966">
        <ele>48.307708</ele>
        <time>2024-07-07T11:18:09.947Z</time>
      </trkpt>
      <trkpt lat="53.09411" lon="5.78962">
        <ele>48.309778</ele>
        <time>2024-07-07T11:18:11.927Z</time>
      </trkpt>
      <trkpt lat="53.0942" lon="5.78958">
        <ele>48.311818</ele>
        <time>2024-07-07T11:18:13.934Z</time>
      </trkpt>
      <trkpt lat="53.09429" lon="5.78954">
        <ele>48.313796</ele>
        <time>2024-07-07T11:18:15.929Z</time>
      </trkpt>
      <trkpt lat="53.09439" lon="5.78949">
        <ele>48.315863</ele>
        <time>2024-07-07T11:18:17.951Z</time>
      </trkpt>
      <trkpt lat="53.09452" lon="5.78944">
        <ele>48.31869</ele>
        <time>2024-07-07T11:18:20.926Z</time>
      </trkpt>
      <trkpt lat="53.09461" lon="5.78939">
        <ele>48.320737</ele>
        <time>2024-07-07T11:18:22.941Z</time>
      </trkpt>
      <trkpt lat="53.0947" lon="5.78936">
        <ele>48.331691</ele>
        <time>2024-07-07T11:18:24.914Z</time>
      </trkpt>
      <trkpt lat="53.09479" lon="5.78932">
        <ele>48.353322</ele>
        <time>2024-07-07T11:18:26.949Z</time>
      </trkpt>
      <trkpt lat="53.09492" lon="5.78928">
        <ele>48.383935</ele>
        <time>2024-07-07T11:18:29.945Z</time>
      </trkpt>
      <trkpt lat="53.09501" lon="5.78922">
        <ele>48.406954</ele>
        <time>2024-07-07T11:18:31.928Z</time>
      </trkpt>
      <trkpt lat="53.09511" lon="5.78919">
        <ele>48.430598</ele>
        <time>2024-07-07T11:18:33.934Z</time>
      </trkpt>
      <trkpt lat="53.0952" lon="5.78914">
        <ele>48.453263</ele>
        <time>2024-07-07T11:18:35.935Z</time>
      </trkpt>
      <trkpt lat="53.09529" lon="5.7891">
        <ele>48.475574</ele>
        <time>2024-07-07T11:18:37.932Z</time>
      </trkpt>
      <trkpt lat="53.09539" lon="5.78905">
        <ele>48.498339</ele>
        <time>2024-07-07T11:18:39.947Z</time>
      </trkpt>
      <trkpt lat="53.09547" lon="5.78901">
        <ele>48.519634</ele>
        <time>2024-07-07T11:18:41.954Z</time>
      </trkpt>
      <trkpt lat="53.09561" lon="5.78896">
        <ele>48.55194</ele>
        <time>2024-07-07T11:18:44.925Z</time>
      </trkpt>
      <trkpt lat="53.0957" lon="5.78893">
        <ele>48.574313</ele>
        <time>2024-07-07T11:18:46.939Z</time>
      </trkpt>
      <trkpt lat="53.09583" lon="5.78888">
        <ele>48.605818</ele>
        <time>2024-07-07T11:18:49.953Z</time>
      </trkpt>
      <trkpt lat="53.09592" lon="5.78884">
        <ele>48.628321</ele>
        <time>2024-07-07T11:18:51.929Z</time>
      </trkpt>
      <trkpt lat="53.09602" lon="5.7888">
        <ele>48.650517</ele>
        <time>2024-07-07T11:18:53.928Z</time>
      </trkpt>
      <trkpt lat="53.0961" lon="5.78876">
        <ele>48.672186</ele>
        <time>2024-07-07T11:18:55.916Z</time>
      </trkpt>
      <trkpt lat="53.09624" lon="5.7887">
        <ele>48.704798</ele>
        <time>2024-07-07T11:18:58.935Z</time>
      </trkpt>
      <trkpt lat="53.09633" lon="5.78866">
        <ele>48.727267</ele>
        <time>2024-07-07T11:19:00.925Z</time>
      </trkpt>
      <trkpt lat="53.09646" lon="5.78859">
        <ele>48.722641</ele>
        <time>2024-07-07T11:19:03.930Z</time>
      </trkpt>
      <trkpt lat="53.09656" lon="5.78856">
        <ele>48.689931</ele>
        <time>2024-07-07T11:19:05.938Z</time>
      </trkpt>
      <trkpt lat="53.09669" lon="5.7885">
        <ele>48.644099</ele>
        <time>2024-07-07T11:19:08.951Z</time>
      </trkpt>
      <trkpt lat="53.09682" lon="5.78843">
        <ele>48.598479</ele>
        <time>2024-07-07T11:19:11.929Z</time>
      </trkpt>
      <trkpt lat="53.0969" lon="5.78837">
        <ele>48.567772</ele>
        <time>2024-07-07T11:19:13.946Z</time>
      </trkpt>
      <trkpt lat="53.09698" lon="5.7883">
        <ele>48.536347</ele>
        <time>2024-07-07T11:19:15.932Z</time>
      </trkpt>
      <trkpt lat="53.09707" lon="5.78825">
        <ele>48.505088</ele>
        <time>2024-07-07T11:19:17.941Z</time>
      </trkpt>
      <trkpt lat="53.09717" lon="5.7882">
        <ele>48.470714</ele>
        <time>2024-07-07T11:19:19.907Z</time>
      </trkpt>
      <trkpt lat="53.09727" lon="5.78817">
        <ele>48.43867</ele>
        <time>2024-07-07T11:19:21.946Z</time>
      </trkpt>
      <trkpt lat="53.09736" lon="5.78813">
        <ele>48.406052</ele>
        <time>2024-07-07T11:19:23.936Z</time>
      </trkpt>
      <trkpt lat="53.09746" lon="5.7881">
        <ele>48.373641</ele>
        <time>2024-07-07T11:19:25.947Z</time>
      </trkpt>
      <trkpt lat="53.09755" lon="5.78806">
        <ele>48.340185</ele>
        <time>2024-07-07T11:19:27.944Z</time>
      </trkpt>
      <trkpt lat="53.09765" lon="5.78802">
        <ele>48.308173</ele>
        <time>2024-07-07T11:19:29.928Z</time>
      </trkpt>
      <trkpt lat="53.09774" lon="5.78799">
        <ele>48.275183</ele>
        <time>2024-07-07T11:19:31.932Z</time>
      </trkpt>
      <trkpt lat="53.09784" lon="5.78795">
        <ele>48.24252</ele>
        <time>2024-07-07T11:19:33.931Z</time>
      </trkpt>
      <trkpt lat="53.09793" lon="5.78789">
        <ele>48.209656</ele>
        <time>2024-07-07T11:19:35.927Z</time>
      </trkpt>
      <trkpt lat="53.09802" lon="5.78784">
        <ele>48.176862</ele>
        <time>2024-07-07T11:19:37.932Z</time>
      </trkpt>
      <trkpt lat="53.09812" lon="5.78777">
        <ele>48.141781</ele>
        <time>2024-07-07T11:19:39.929Z</time>
      </trkpt>
      <trkpt lat="53.09821" lon="5.78771">
        <ele>48.142903</ele>
        <time>2024-07-07T11:19:41.931Z</time>
      </trkpt>
      <trkpt lat="53.0983" lon="5.78766">
        <ele>48.144031</ele>
        <time>2024-07-07T11:19:43.925Z</time>
      </trkpt>
      <trkpt lat="53.09839" lon="5.78762">
        <ele>48.145172</ele>
        <time>2024-07-07T11:19:45.929Z</time>
      </trkpt>
      <trkpt lat="53.09853" lon="5.78754">
        <ele>48.146815</ele>
        <time>2024-07-07T11:19:48.936Z</time>
      </trkpt>
      <trkpt lat="53.09862" lon="5.78751">
        <ele>48.147946</ele>
        <time>2024-07-07T11:19:50.949Z</time>
      </trkpt>
      <trkpt lat="53.09871" lon="5.78747">
        <ele>48.149062</ele>
        <time>2024-07-07T11:19:52.934Z</time>
      </trkpt>
      <trkpt lat="53.0988" lon="5.78743">
        <ele>48.150177</ele>
        <time>2024-07-07T11:19:54.927Z</time>
      </trkpt>
      <trkpt lat="53.09889" lon="5.7874">
        <ele>48.151277</ele>
        <time>2024-07-07T11:19:56.928Z</time>
      </trkpt>
      <trkpt lat="53.09898" lon="5.78736">
        <ele>48.152352</ele>
        <time>2024-07-07T11:19:58.923Z</time>
      </trkpt>
      <trkpt lat="53.09911" lon="5.78731">
        <ele>48.153973</ele>
        <time>2024-07-07T11:20:01.946Z</time>
      </trkpt>
      <trkpt lat="53.0992" lon="5.78727">
        <ele>48.155068</ele>
        <time>2024-07-07T11:20:03.938Z</time>
      </trkpt>
      <trkpt lat="53.09929" lon="5.78723">
        <ele>48.156165</ele>
        <time>2024-07-07T11:20:05.950Z</time>
      </trkpt>
      <trkpt lat="53.09938" lon="5.78719">
        <ele>48.157257</ele>
        <time>2024-07-07T11:20:07.927Z</time>
      </trkpt>
      <trkpt lat="53.09947" lon="5.78714">
        <ele>48.158329</ele>
        <time>2024-07-07T11:20:09.932Z</time>
      </trkpt>
      <trkpt lat="53.09956" lon="5.78709">
        <ele>48.159459</ele>
        <time>2024-07-07T11:20:11.937Z</time>
      </trkpt>
      <trkpt lat="53.09969" lon="5.78705">
        <ele>48.161007</ele>
        <time>2024-07-07T11:20:14.943Z</time>
      </trkpt>
      <trkpt lat="53.09978" lon="5.78701">
        <ele>48.162125</ele>
        <time>2024-07-07T11:20:16.927Z</time>
      </trkpt>
      <trkpt lat="53.09991" lon="5.78695">
        <ele>48.135899</ele>
        <time>2024-07-07T11:20:19.914Z</time>
      </trkpt>
      <trkpt lat="53.10004" lon="5.7869">
        <ele>48.073624</ele>
        <time>2024-07-07T11:20:22.952Z</time>
      </trkpt>
      <trkpt lat="53.10017" lon="5.78683">
        <ele>48.01007</ele>
        <time>2024-07-07T11:20:25.927Z</time>
      </trkpt>
      <trkpt lat="53.10025" lon="5.7868">
        <ele>47.967881</ele>
        <time>2024-07-07T11:20:27.934Z</time>
      </trkpt>
      <trkpt lat="53.10039" lon="5.78674">
        <ele>47.90422</ele>
        <time>2024-07-07T11:20:30.934Z</time>
      </trkpt>
      <trkpt lat="53.10047" lon="5.7867">
        <ele>47.861949</ele>
        <time>2024-07-07T11:20:32.936Z</time>
      </trkpt>
      <trkpt lat="53.10057" lon="5.78666">
        <ele>47.817476</ele>
        <time>2024-07-07T11:20:34.927Z</time>
      </trkpt>
      <trkpt lat="53.10066" lon="5.78662">
        <ele>47.773491</ele>
        <time>2024-07-07T11:20:36.930Z</time>
      </trkpt>
      <trkpt lat="53.10075" lon="5.78657">
        <ele>47.72964</ele>
        <time>2024-07-07T11:20:38.933Z</time>
      </trkpt>
      <trkpt lat="53.10084" lon="5.78654">
        <ele>47.685871</ele>
        <time>2024-07-07T11:20:40.941Z</time>
      </trkpt>
      <trkpt lat="53.10093" lon="5.7865">
        <ele>47.643075</ele>
        <time>2024-07-07T11:20:42.944Z</time>
      </trkpt>
      <trkpt lat="53.10102" lon="5.78645">
        <ele>47.599463</ele>
        <time>2024-07-07T11:20:44.927Z</time>
      </trkpt>
      <trkpt lat="53.10111" lon="5.78641">
        <ele>47.554201</ele>
        <time>2024-07-07T11:20:46.948Z</time>
      </trkpt>
      <trkpt lat="53.10121" lon="5.78637">
        <ele>47.507587</ele>
        <time>2024-07-07T11:20:48.932Z</time>
      </trkpt>
      <trkpt lat="53.10134" lon="5.78631">
        <ele>47.445942</ele>
        <time>2024-07-07T11:20:51.947Z</time>
      </trkpt>
      <trkpt lat="53.10143" lon="5.78628">
        <ele>47.401985</ele>
        <time>2024-07-07T11:20:53.934Z</time>
      </trkpt>
      <trkpt lat="53.10153" lon="5.78623">
        <ele>47.35485</ele>
        <time>2024-07-07T11:20:55.934Z</time>
      </trkpt>
      <trkpt lat="53.10162" lon="5.78619">
        <ele>47.324808</ele>
        <time>2024-07-07T11:20:57.944Z</time>
      </trkpt>
      <trkpt lat="53.10171" lon="5.78614">
        <ele>47.323736</ele>
        <time>2024-07-07T11:20:59.954Z</time>
      </trkpt>
      <trkpt lat="53.1018" lon="5.7861">
        <ele>47.322661</ele>
        <time>2024-07-07T11:21:01.942Z</time>
      </trkpt>
      <trkpt lat="53.1019" lon="5.78606">
        <ele>47.321564</ele>
        <time>2024-07-07T11:21:03.926Z</time>
      </trkpt>
      <trkpt lat="53.10199" lon="5.78601">
        <ele>47.320458</ele>
        <time>2024-07-07T11:21:05.930Z</time>
      </trkpt>
      <trkpt lat="53.10208" lon="5.78597">
        <ele>47.319359</ele>
        <time>2024-07-07T11:21:07.946Z</time>
      </trkpt>
      <trkpt lat="53.10217" lon="5.78594">
        <ele>47.318292</ele>
        <time>2024-07-07T11:21:09.933Z</time>
      </trkpt>
      <trkpt lat="53.10226" lon="5.7859">
        <ele>47.317224</ele>
        <time>2024-07-07T11:21:11.939Z</time>
      </trkpt>
      <trkpt lat="53.10239" lon="5.78585">
        <ele>47.315717</ele>
        <time>2024-07-07T11:21:14.927Z</time>
      </trkpt>
      <trkpt lat="53.10248" lon="5.78581">
        <ele>47.31466</ele>
        <time>2024-07-07T11:21:16.941Z</time>
      </trkpt>
      <trkpt lat="53.10258" lon="5.78577">
        <ele>47.313576</ele>
        <time>2024-07-07T11:21:18.941Z</time>
      </trkpt>
      <trkpt lat="53.1027" lon="5.78571">
        <ele>47.312062</ele>
        <time>2024-07-07T11:21:21.943Z</time>
      </trkpt>
      <trkpt lat="53.1028" lon="5.78566">
        <ele>47.310917</ele>
        <time>2024-07-07T11:21:23.937Z</time>
      </trkpt>
      <trkpt lat="53.10289" lon="5.78563">
        <ele>47.30989</ele>
        <time>2024-07-07T11:21:25.929Z</time>
      </trkpt>
      <trkpt lat="53.10297" lon="5.78558">
        <ele>47.308851</ele>
        <time>2024-07-07T11:21:27.937Z</time>
      </trkpt>
      <trkpt lat="53.10307" lon="5.78554">
        <ele>47.307756</ele>
        <time>2024-07-07T11:21:29.931Z</time>
      </trkpt>
      <trkpt lat="53.10316" lon="5.7855">
        <ele>47.306655</ele>
        <time>2024-07-07T11:21:31.947Z</time>
      </trkpt>
      <trkpt lat="53.10325" lon="5.78546">
        <ele>47.305587</ele>
        <time>2024-07-07T11:21:33.950Z</time>
      </trkpt>
      <trkpt lat="53.10338" lon="5.78542">
        <ele>47.249598</ele>
        <time>2024-07-07T11:21:36.940Z</time>
      </trkpt>
      <trkpt lat="53.10351" lon="5.78537">
        <ele>47.13432</ele>
        <time>2024-07-07T11:21:39.930Z</time>
      </trkpt>
      <trkpt lat="53.1036" lon="5.78533">
        <ele>47.053232</ele>
        <time>2024-07-07T11:21:41.951Z</time>
      </trkpt>
      <trkpt lat="53.10369" lon="5.78529">
        <ele>46.967669</ele>
        <time>2024-07-07T11:21:43.914Z</time>
      </trkpt>
      <trkpt lat="53.10378" lon="5.78526">
        <ele>46.881476</ele>
        <time>2024-07-07T11:21:45.934Z</time>
      </trkpt>
      <trkpt lat="53.10387" lon="5.78522">
        <ele>46.79632</ele>
        <time>2024-07-07T11:21:47.928Z</time>
      </trkpt>
      <trkpt lat="53.10396" lon="5.78518">
        <ele>46.710174</ele>
        <time>2024-07-07T11:21:49.933Z</time>
      </trkpt>
      <trkpt lat="53.10406" lon="5.78513">
        <ele>46.621265</ele>
        <time>2024-07-07T11:21:51.909Z</time>
      </trkpt>
      <trkpt lat="53.10414" lon="5.78508">
        <ele>46.539356</ele>
        <time>2024-07-07T11:21:53.910Z</time>
      </trkpt>
      <trkpt lat="53.10424" lon="5.78504">
        <ele>46.452196</ele>
        <time>2024-07-07T11:21:55.924Z</time>
      </trkpt>
      <trkpt lat="53.10433" lon="5.78501">
        <ele>46.362642</ele>
        <time>2024-07-07T11:21:57.926Z</time>
      </trkpt>
      <trkpt lat="53.10443" lon="5.78497">
        <ele>46.274633</ele>
        <time>2024-07-07T11:21:59.936Z</time>
      </trkpt>
      <trkpt lat="53.10456" lon="5.7849">
        <ele>46.153103</ele>
        <time>2024-07-07T11:22:02.943Z</time>
      </trkpt>
      <trkpt lat="53.10464" lon="5.78487">
        <ele>46.070733</ele>
        <time>2024-07-07T11:22:04.929Z</time>
      </trkpt>
      <trkpt lat="53.10473" lon="5.78482">
        <ele>45.986909</ele>
        <time>2024-07-07T11:22:06.947Z</time>
      </trkpt>
      <trkpt lat="53.10482" lon="5.78477">
        <ele>45.902628</ele>
        <time>2024-07-07T11:22:08.926Z</time>
      </trkpt>
      <trkpt lat="53.10491" lon="5.78474">
        <ele>45.816617</ele>
        <time>2024-07-07T11:22:10.935Z</time>
      </trkpt>
      <trkpt lat="53.105" lon="5.7847">
        <ele>45.732943</ele>
        <time>2024-07-07T11:22:12.947Z</time>
      </trkpt>
      <trkpt lat="53.10513" lon="5.78464">
        <ele>45.719813</ele>
        <time>2024-07-07T11:22:15.921Z</time>
      </trkpt>
      <trkpt lat="53.10523" lon="5.7846">
        <ele>45.77337</ele>
        <time>2024-07-07T11:22:17.932Z</time>
      </trkpt>
      <trkpt lat="53.10532" lon="5.78455">
        <ele>45.827843</ele>
        <time>2024-07-07T11:22:19.937Z</time>
      </trkpt>
      <trkpt lat="53.10541" lon="5.78451">
        <ele>45.883558</ele>
        <time>2024-07-07T11:22:21.945Z</time>
      </trkpt>
      <trkpt lat="53.1055" lon="5.78446">
        <ele>45.937808</ele>
        <time>2024-07-07T11:22:23.928Z</time>
      </trkpt>
      <trkpt lat="53.1056" lon="5.78442">
        <ele>45.991619</ele>
        <time>2024-07-07T11:22:25.938Z</time>
      </trkpt>
      <trkpt lat="53.10569" lon="5.78438">
        <ele>46.046064</ele>
        <time>2024-07-07T11:22:27.949Z</time>
      </trkpt>
      <trkpt lat="53.10578" lon="5.78434">
        <ele>46.10009</ele>
        <time>2024-07-07T11:22:29.930Z</time>
      </trkpt>
      <trkpt lat="53.10587" lon="5.78435">
        <ele>46.152143</ele>
        <time>2024-07-07T11:22:31.915Z</time>
      </trkpt>
      <trkpt lat="53.10596" lon="5.78434">
        <ele>46.203133</ele>
        <time>2024-07-07T11:22:33.928Z</time>
      </trkpt>
      <trkpt lat="53.10607" lon="5.78422">
        <ele>46.276993</ele>
        <time>2024-07-07T11:22:36.921Z</time>
      </trkpt>
      <trkpt lat="53.10617" lon="5.78409">
        <ele>46.347126</ele>
        <time>2024-07-07T11:22:39.917Z</time>
      </trkpt>
      <trkpt lat="53.10626" lon="5.78393">
        <ele>46.422368</ele>
        <time>2024-07-07T11:22:42.941Z</time>
      </trkpt>
      <trkpt lat="53.10634" lon="5.78376">
        <ele>46.493385</ele>
        <time>2024-07-07T11:22:45.922Z</time>
      </trkpt>
      <trkpt lat="53.1064" lon="5.78357">
        <ele>46.567552</ele>
        <time>2024-07-07T11:22:48.933Z</time>
      </trkpt>
      <trkpt lat="53.10651" lon="5.78344">
        <ele>46.642445</ele>
        <time>2024-07-07T11:22:51.919Z</time>
      </trkpt>
      <trkpt lat="53.10662" lon="5.78339">
        <ele>46.709115</ele>
        <time>2024-07-07T11:22:53.924Z</time>
      </trkpt>
      <trkpt lat="53.10675" lon="5.78334">
        <ele>46.792583</ele>
        <time>2024-07-07T11:22:55.920Z</time>
      </trkpt>
      <trkpt lat="53.1069" lon="5.78329">
        <ele>46.883806</ele>
        <time>2024-07-07T11:22:57.926Z</time>
      </trkpt>
      <trkpt lat="53.10705" lon="5.78325">
        <ele>46.975552</ele>
        <time>2024-07-07T11:22:59.911Z</time>
      </trkpt>
      <trkpt lat="53.10719" lon="5.7832">
        <ele>47.068894</ele>
        <time>2024-07-07T11:23:01.932Z</time>
      </trkpt>
      <trkpt lat="53.10731" lon="5.78317">
        <ele>47.138969</ele>
        <time>2024-07-07T11:23:03.935Z</time>
      </trkpt>
      <trkpt lat="53.10741" lon="5.78314">
        <ele>47.203464</ele>
        <time>2024-07-07T11:23:05.938Z</time>
      </trkpt>
      <trkpt lat="53.1075" lon="5.78311">
        <ele>47.259149</ele>
        <time>2024-07-07T11:23:07.947Z</time>
      </trkpt>
      <trkpt lat="53.10761" lon="5.78309">
        <ele>47.330491</ele>
        <time>2024-07-07T11:23:10.941Z</time>
      </trkpt>
      <trkpt lat="53.10773" lon="5.78309">
        <ele>47.401281</ele>
        <time>2024-07-07T11:23:13.948Z</time>
      </trkpt>
      <trkpt lat="53.10784" lon="5.78315">
        <ele>47.472781</ele>
        <time>2024-07-07T11:23:16.921Z</time>
      </trkpt>
      <trkpt lat="53.10794" lon="5.78324">
        <ele>47.547049</ele>
        <time>2024-07-07T11:23:19.912Z</time>
      </trkpt>
      <trkpt lat="53.10805" lon="5.78332">
        <ele>47.618506</ele>
        <time>2024-07-07T11:23:22.927Z</time>
      </trkpt>
      <trkpt lat="53.10816" lon="5.7834">
        <ele>47.690447</ele>
        <time>2024-07-07T11:23:25.939Z</time>
      </trkpt>
      <trkpt lat="53.10828" lon="5.78341">
        <ele>47.763159</ele>
        <time>2024-07-07T11:23:28.916Z</time>
      </trkpt>
      <trkpt lat="53.10839" lon="5.78337">
        <ele>47.814829</ele>
        <time>2024-07-07T11:23:31.937Z</time>
      </trkpt>
      <trkpt lat="53.10851" lon="5.78332">
        <ele>47.842982</ele>
        <time>2024-07-07T11:23:34.931Z</time>
      </trkpt>
      <trkpt lat="53.10863" lon="5.78326">
        <ele>47.873513</ele>
        <time>2024-07-07T11:23:37.936Z</time>
      </trkpt>
      <trkpt lat="53.10873" lon="5.78322">
        <ele>47.895563</ele>
        <time>2024-07-07T11:23:39.925Z</time>
      </trkpt>
      <trkpt lat="53.10882" lon="5.78318">
        <ele>47.917458</ele>
        <time>2024-07-07T11:23:41.938Z</time>
      </trkpt>
      <trkpt lat="53.10891" lon="5.78314">
        <ele>47.939999</ele>
        <time>2024-07-07T11:23:43.928Z</time>
      </trkpt>
      <trkpt lat="53.109" lon="5.78309">
        <ele>47.96254</ele>
        <time>2024-07-07T11:23:45.941Z</time>
      </trkpt>
      <trkpt lat="53.10909" lon="5.78305">
        <ele>47.985342</ele>
        <time>2024-07-07T11:23:47.934Z</time>
      </trkpt>
      <trkpt lat="53.10919" lon="5.78301">
        <ele>48.007976</ele>
        <time>2024-07-07T11:23:49.945Z</time>
      </trkpt>
      <trkpt lat="53.10928" lon="5.78298">
        <ele>48.030185</ele>
        <time>2024-07-07T11:23:51.952Z</time>
      </trkpt>
      <trkpt lat="53.10938" lon="5.78293">
        <ele>48.053777</ele>
        <time>2024-07-07T11:23:53.947Z</time>
      </trkpt>
      <trkpt lat="53.10947" lon="5.78289">
        <ele>48.077595</ele>
        <time>2024-07-07T11:23:55.928Z</time>
      </trkpt>
      <trkpt lat="53.10957" lon="5.78285">
        <ele>48.101762</ele>
        <time>2024-07-07T11:23:57.946Z</time>
      </trkpt>
      <trkpt lat="53.10967" lon="5.7828">
        <ele>48.125732</ele>
        <time>2024-07-07T11:23:59.947Z</time>
      </trkpt>
      <trkpt lat="53.10978" lon="5.78276">
        <ele>48.150878</ele>
        <time>2024-07-07T11:24:01.941Z</time>
      </trkpt>
      <trkpt lat="53.10988" lon="5.78271">
        <ele>48.175639</ele>
        <time>2024-07-07T11:24:03.945Z</time>
      </trkpt>
      <trkpt lat="53.10998" lon="5.78267">
        <ele>48.200437</ele>
        <time>2024-07-07T11:24:05.934Z</time>
      </trkpt>
      <trkpt lat="53.11008" lon="5.78262">
        <ele>48.22175</ele>
        <time>2024-07-07T11:24:07.932Z</time>
      </trkpt>
      <trkpt lat="53.11018" lon="5.78258">
        <ele>48.19709</ele>
        <time>2024-07-07T11:24:09.939Z</time>
      </trkpt>
      <trkpt lat="53.11029" lon="5.78254">
        <ele>48.171637</ele>
        <time>2024-07-07T11:24:11.925Z</time>
      </trkpt>
      <trkpt lat="53.11039" lon="5.7825">
        <ele>48.146138</ele>
        <time>2024-07-07T11:24:13.938Z</time>
      </trkpt>
      <trkpt lat="53.1105" lon="5.78245">
        <ele>48.119822</ele>
        <time>2024-07-07T11:24:15.950Z</time>
      </trkpt>
      <trkpt lat="53.1106" lon="5.78241">
        <ele>48.093437</ele>
        <time>2024-07-07T11:24:17.931Z</time>
      </trkpt>
      <trkpt lat="53.11071" lon="5.78235">
        <ele>48.066429</ele>
        <time>2024-07-07T11:24:19.925Z</time>
      </trkpt>
      <trkpt lat="53.11082" lon="5.7823">
        <ele>48.039152</ele>
        <time>2024-07-07T11:24:21.945Z</time>
      </trkpt>
      <trkpt lat="53.11094" lon="5.78226">
        <ele>48.010647</ele>
        <time>2024-07-07T11:24:23.929Z</time>
      </trkpt>
      <trkpt lat="53.11105" lon="5.7822">
        <ele>47.982456</ele>
        <time>2024-07-07T11:24:25.931Z</time>
      </trkpt>
      <trkpt lat="53.11116" lon="5.78214">
        <ele>47.954078</ele>
        <time>2024-07-07T11:24:27.931Z</time>
      </trkpt>
      <trkpt lat="53.11128" lon="5.78209">
        <ele>47.925201</ele>
        <time>2024-07-07T11:24:29.942Z</time>
      </trkpt>
      <trkpt lat="53.1114" lon="5.78205">
        <ele>47.896662</ele>
        <time>2024-07-07T11:24:31.949Z</time>
      </trkpt>
      <trkpt lat="53.11151" lon="5.78199">
        <ele>47.86867</ele>
        <time>2024-07-07T11:24:33.932Z</time>
      </trkpt>
      <trkpt lat="53.11163" lon="5.78194">
        <ele>47.840096</ele>
        <time>2024-07-07T11:24:35.924Z</time>
      </trkpt>
      <trkpt lat="53.11174" lon="5.78189">
        <ele>47.811644</ele>
        <time>2024-07-07T11:24:37.926Z</time>
      </trkpt>
      <trkpt lat="53.11186" lon="5.78186">
        <ele>47.813022</ele>
        <time>2024-07-07T11:24:39.927Z</time>
      </trkpt>
      <trkpt lat="53.11198" lon="5.78181">
        <ele>47.865532</ele>
        <time>2024-07-07T11:24:41.951Z</time>
      </trkpt>
      <trkpt lat="53.1121" lon="5.78175">
        <ele>47.918119</ele>
        <time>2024-07-07T11:24:43.932Z</time>
      </trkpt>
      <trkpt lat="53.11222" lon="5.78171">
        <ele>47.969154</ele>
        <time>2024-07-07T11:24:45.928Z</time>
      </trkpt>
      <trkpt lat="53.11234" lon="5.78165">
        <ele>48.021197</ele>
        <time>2024-07-07T11:24:47.929Z</time>
      </trkpt>
      <trkpt lat="53.11246" lon="5.7816">
        <ele>48.074187</ele>
        <time>2024-07-07T11:24:49.942Z</time>
      </trkpt>
      <trkpt lat="53.11257" lon="5.78153">
        <ele>48.127193</ele>
        <time>2024-07-07T11:24:51.945Z</time>
      </trkpt>
      <trkpt lat="53.1127" lon="5.78147">
        <ele>48.182084</ele>
        <time>2024-07-07T11:24:53.932Z</time>
      </trkpt>
      <trkpt lat="53.11282" lon="5.78142">
        <ele>48.236433</ele>
        <time>2024-07-07T11:24:55.930Z</time>
      </trkpt>
      <trkpt lat="53.11295" lon="5.78135">
        <ele>48.292891</ele>
        <time>2024-07-07T11:24:57.936Z</time>
      </trkpt>
      <trkpt lat="53.11308" lon="5.7813">
        <ele>48.348754</ele>
        <time>2024-07-07T11:24:59.936Z</time>
      </trkpt>
      <trkpt lat="53.11321" lon="5.78126">
        <ele>48.403778</ele>
        <time>2024-07-07T11:25:01.928Z</time>
      </trkpt>
      <trkpt lat="53.11332" lon="5.78123">
        <ele>48.451447</ele>
        <time>2024-07-07T11:25:03.929Z</time>
      </trkpt>
      <trkpt lat="53.11341" lon="5.78119">
        <ele>48.492828</ele>
        <time>2024-07-07T11:25:05.930Z</time>
      </trkpt>
      <trkpt lat="53.11351" lon="5.78115">
        <ele>48.53399</ele>
        <time>2024-07-07T11:25:07.907Z</time>
      </trkpt>
      <trkpt lat="53.11361" lon="5.7811">
        <ele>48.481263</ele>
        <time>2024-07-07T11:25:09.943Z</time>
      </trkpt>
      <trkpt lat="53.11373" lon="5.78103">
        <ele>48.31248</ele>
        <time>2024-07-07T11:25:11.933Z</time>
      </trkpt>
      <trkpt lat="53.11386" lon="5.78096">
        <ele>48.136729</ele>
        <time>2024-07-07T11:25:13.926Z</time>
      </trkpt>
      <trkpt lat="53.114" lon="5.78091">
        <ele>47.956417</ele>
        <time>2024-07-07T11:25:15.928Z</time>
      </trkpt>
      <trkpt lat="53.11412" lon="5.78085">
        <ele>47.783239</ele>
        <time>2024-07-07T11:25:17.941Z</time>
      </trkpt>
      <trkpt lat="53.11425" lon="5.78079">
        <ele>47.610384</ele>
        <time>2024-07-07T11:25:19.958Z</time>
      </trkpt>
      <trkpt lat="53.11438" lon="5.78074">
        <ele>47.440244</ele>
        <time>2024-07-07T11:25:21.935Z</time>
      </trkpt>
      <trkpt lat="53.1145" lon="5.78069">
        <ele>47.273519</ele>
        <time>2024-07-07T11:25:23.942Z</time>
      </trkpt>
      <trkpt lat="53.11463" lon="5.78064">
        <ele>47.108249</ele>
        <time>2024-07-07T11:25:25.932Z</time>
      </trkpt>
      <trkpt lat="53.11475" lon="5.78058">
        <ele>46.9428</ele>
        <time>2024-07-07T11:25:27.958Z</time>
      </trkpt>
      <trkpt lat="53.11487" lon="5.78052">
        <ele>46.781658</ele>
        <time>2024-07-07T11:25:29.939Z</time>
      </trkpt>
      <trkpt lat="53.11498" lon="5.78046">
        <ele>46.628337</ele>
        <time>2024-07-07T11:25:31.941Z</time>
      </trkpt>
      <trkpt lat="53.11509" lon="5.7804">
        <ele>46.474342</ele>
        <time>2024-07-07T11:25:33.922Z</time>
      </trkpt>
      <trkpt lat="53.11521" lon="5.78035">
        <ele>46.316609</ele>
        <time>2024-07-07T11:25:35.931Z</time>
      </trkpt>
      <trkpt lat="53.11531" lon="5.78029">
        <ele>46.205336</ele>
        <time>2024-07-07T11:25:37.934Z</time>
      </trkpt>
      <trkpt lat="53.11542" lon="5.78025">
        <ele>46.175401</ele>
        <time>2024-07-07T11:25:39.937Z</time>
      </trkpt>
      <trkpt lat="53.11551" lon="5.78022">
        <ele>46.149016</ele>
        <time>2024-07-07T11:25:41.933Z</time>
      </trkpt>
      <trkpt lat="53.1156" lon="5.78018">
        <ele>46.123371</ele>
        <time>2024-07-07T11:25:43.947Z</time>
      </trkpt>
      <trkpt lat="53.11572" lon="5.78014">
        <ele>46.08735</ele>
        <time>2024-07-07T11:25:46.926Z</time>
      </trkpt>
      <trkpt lat="53.11583" lon="5.78014">
        <ele>46.056741</ele>
        <time>2024-07-07T11:25:50.917Z</time>
      </trkpt>
      <trkpt lat="53.11586" lon="5.7803">
        <ele>46.028433</ele>
        <time>2024-07-07T11:25:55.916Z</time>
      </trkpt>
      <trkpt lat="53.1158" lon="5.78029">
        <ele>46.009179</ele>
        <time>2024-07-07T11:26:14.721Z</time>
      </trkpt>
      <trkpt lat="53.11588" lon="5.78016">
        <ele>45.977079</ele>
        <time>2024-07-07T11:42:39.929Z</time>
      </trkpt>
      <trkpt lat="53.11599" lon="5.78013">
        <ele>45.946619</ele>
        <time>2024-07-07T11:42:45.937Z</time>
      </trkpt>
      <trkpt lat="53.11609" lon="5.78014">
        <ele>45.919069</ele>
        <time>2024-07-07T11:42:49.945Z</time>
      </trkpt>
      <trkpt lat="53.11618" lon="5.78013">
        <ele>45.892876</ele>
        <time>2024-07-07T11:42:53.917Z</time>
      </trkpt>
      <trkpt lat="53.11627" lon="5.78011">
        <ele>45.867713</ele>
        <time>2024-07-07T11:42:57.931Z</time>
      </trkpt>
      <trkpt lat="53.11637" lon="5.7801">
        <ele>45.840098</ele>
        <time>2024-07-07T11:43:01.940Z</time>
      </trkpt>
      <trkpt lat="53.11648" lon="5.78008">
        <ele>45.809072</ele>
        <time>2024-07-07T11:43:06.925Z</time>
      </trkpt>
      <trkpt lat="53.11657" lon="5.78005">
        <ele>45.783978</ele>
        <time>2024-07-07T11:43:10.920Z</time>
      </trkpt>
      <trkpt lat="53.11667" lon="5.78005">
        <ele>45.756156</ele>
        <time>2024-07-07T11:43:15.938Z</time>
      </trkpt>
      <trkpt lat="53.11675" lon="5.77998">
        <ele>45.73046</ele>
        <time>2024-07-07T11:43:20.919Z</time>
      </trkpt>
      <trkpt lat="53.11685" lon="5.77995">
        <ele>45.767089</ele>
        <time>2024-07-07T11:43:26.914Z</time>
      </trkpt>
      <trkpt lat="53.11694" lon="5.77992">
        <ele>45.913985</ele>
        <time>2024-07-07T11:43:31.921Z</time>
      </trkpt>
      <trkpt lat="53.11705" lon="5.77989">
        <ele>46.085492</ele>
        <time>2024-07-07T11:43:36.921Z</time>
      </trkpt>
      <trkpt lat="53.11717" lon="5.77984">
        <ele>46.270524</ele>
        <time>2024-07-07T11:43:40.937Z</time>
      </trkpt>
      <trkpt lat="53.11726" lon="5.77979">
        <ele>46.425243</ele>
        <time>2024-07-07T11:43:43.938Z</time>
      </trkpt>
      <trkpt lat="53.11737" lon="5.77975">
        <ele>46.596183</ele>
        <time>2024-07-07T11:43:46.922Z</time>
      </trkpt>
      <trkpt lat="53.11748" lon="5.77972">
        <ele>46.771491</ele>
        <time>2024-07-07T11:43:49.935Z</time>
      </trkpt>
      <trkpt lat="53.11759" lon="5.77967">
        <ele>46.950243</ele>
        <time>2024-07-07T11:43:52.928Z</time>
      </trkpt>
      <trkpt lat="53.11771" lon="5.77963">
        <ele>47.136785</ele>
        <time>2024-07-07T11:43:55.936Z</time>
      </trkpt>
      <trkpt lat="53.11783" lon="5.77959">
        <ele>47.325839</ele>
        <time>2024-07-07T11:43:58.918Z</time>
      </trkpt>
      <trkpt lat="53.11794" lon="5.77953">
        <ele>47.517615</ele>
        <time>2024-07-07T11:44:01.910Z</time>
      </trkpt>
      <trkpt lat="53.11807" lon="5.77948">
        <ele>47.720409</ele>
        <time>2024-07-07T11:44:04.925Z</time>
      </trkpt>
      <trkpt lat="53.1182" lon="5.77942">
        <ele>47.928934</ele>
        <time>2024-07-07T11:44:07.933Z</time>
      </trkpt>
      <trkpt lat="53.11829" lon="5.77939">
        <ele>48.07041</ele>
        <time>2024-07-07T11:44:09.931Z</time>
      </trkpt>
      <trkpt lat="53.11842" lon="5.77934">
        <ele>48.279718</ele>
        <time>2024-07-07T11:44:12.933Z</time>
      </trkpt>
      <trkpt lat="53.11854" lon="5.77929">
        <ele>48.48055</ele>
        <time>2024-07-07T11:44:15.933Z</time>
      </trkpt>
      <trkpt lat="53.11867" lon="5.77926">
        <ele>48.502672</ele>
        <time>2024-07-07T11:44:18.931Z</time>
      </trkpt>
      <trkpt lat="53.11878" lon="5.77922">
        <ele>48.487107</ele>
        <time>2024-07-07T11:44:21.945Z</time>
      </trkpt>
      <trkpt lat="53.11892" lon="5.77917">
        <ele>48.468971</ele>
        <time>2024-07-07T11:44:24.917Z</time>
      </trkpt>
      <trkpt lat="53.119" lon="5.77912">
        <ele>48.456755</ele>
        <time>2024-07-07T11:44:26.934Z</time>
      </trkpt>
      <trkpt lat="53.11909" lon="5.77908">
        <ele>48.444451</ele>
        <time>2024-07-07T11:44:28.920Z</time>
      </trkpt>
      <trkpt lat="53.11919" lon="5.77904">
        <ele>48.431741</ele>
        <time>2024-07-07T11:44:30.978Z</time>
      </trkpt>
      <trkpt lat="53.11928" lon="5.77898">
        <ele>48.418793</ele>
        <time>2024-07-07T11:44:32.933Z</time>
      </trkpt>
      <trkpt lat="53.11937" lon="5.77893">
        <ele>48.40597</ele>
        <time>2024-07-07T11:44:34.931Z</time>
      </trkpt>
      <trkpt lat="53.11946" lon="5.77888">
        <ele>48.393098</ele>
        <time>2024-07-07T11:44:36.931Z</time>
      </trkpt>
      <trkpt lat="53.11955" lon="5.77883">
        <ele>48.380471</ele>
        <time>2024-07-07T11:44:38.910Z</time>
      </trkpt>
      <trkpt lat="53.11964" lon="5.77878">
        <ele>48.367695</ele>
        <time>2024-07-07T11:44:40.942Z</time>
      </trkpt>
      <trkpt lat="53.11973" lon="5.77873">
        <ele>48.354847</ele>
        <time>2024-07-07T11:44:42.924Z</time>
      </trkpt>
      <trkpt lat="53.11983" lon="5.77868">
        <ele>48.341541</ele>
        <time>2024-07-07T11:44:44.952Z</time>
      </trkpt>
      <trkpt lat="53.11992" lon="5.77862">
        <ele>48.328593</ele>
        <time>2024-07-07T11:44:46.921Z</time>
      </trkpt>
      <trkpt lat="53.12001" lon="5.77858">
        <ele>48.316023</ele>
        <time>2024-07-07T11:44:48.931Z</time>
      </trkpt>
      <trkpt lat="53.1201" lon="5.77853">
        <ele>48.303525</ele>
        <time>2024-07-07T11:44:50.927Z</time>
      </trkpt>
      <trkpt lat="53.12023" lon="5.77847">
        <ele>48.285453</ele>
        <time>2024-07-07T11:44:53.940Z</time>
      </trkpt>
      <trkpt lat="53.12032" lon="5.77841">
        <ele>48.264488</ele>
        <time>2024-07-07T11:44:55.923Z</time>
      </trkpt>
      <trkpt lat="53.12041" lon="5.77836">
        <ele>48.2328</ele>
        <time>2024-07-07T11:44:57.929Z</time>
      </trkpt>
      <trkpt lat="53.1205" lon="5.77829">
        <ele>48.199912</ele>
        <time>2024-07-07T11:44:59.919Z</time>
      </trkpt>
      <trkpt lat="53.12058" lon="5.77823">
        <ele>48.1683</ele>
        <time>2024-07-07T11:45:01.925Z</time>
      </trkpt>
      <trkpt lat="53.12067" lon="5.77816">
        <ele>48.1349</ele>
        <time>2024-07-07T11:45:03.926Z</time>
      </trkpt>
      <trkpt lat="53.12077" lon="5.7781">
        <ele>48.100711</ele>
        <time>2024-07-07T11:45:05.962Z</time>
      </trkpt>
      <trkpt lat="53.12086" lon="5.77804">
        <ele>48.066603</ele>
        <time>2024-07-07T11:45:07.936Z</time>
      </trkpt>
      <trkpt lat="53.12095" lon="5.77797">
        <ele>48.033579</ele>
        <time>2024-07-07T11:45:09.932Z</time>
      </trkpt>
      <trkpt lat="53.12103" lon="5.7779">
        <ele>48.000806</ele>
        <time>2024-07-07T11:45:11.937Z</time>
      </trkpt>
      <trkpt lat="53.12112" lon="5.77784">
        <ele>47.968428</ele>
        <time>2024-07-07T11:45:13.931Z</time>
      </trkpt>
      <trkpt lat="53.12121" lon="5.77779">
        <ele>47.93688</ele>
        <time>2024-07-07T11:45:15.935Z</time>
      </trkpt>
      <trkpt lat="53.12129" lon="5.77773">
        <ele>47.905922</ele>
        <time>2024-07-07T11:45:17.936Z</time>
      </trkpt>
      <trkpt lat="53.12141" lon="5.77764">
        <ele>47.859904</ele>
        <time>2024-07-07T11:45:20.928Z</time>
      </trkpt>
      <trkpt lat="53.1215" lon="5.77757">
        <ele>47.827586</ele>
        <time>2024-07-07T11:45:22.910Z</time>
      </trkpt>
      <trkpt lat="53.12159" lon="5.77753">
        <ele>47.795899</ele>
        <time>2024-07-07T11:45:24.911Z</time>
      </trkpt>
      <trkpt lat="53.12168" lon="5.77747">
        <ele>47.763997</ele>
        <time>2024-07-07T11:45:26.936Z</time>
      </trkpt>
      <trkpt lat="53.12176" lon="5.7774">
        <ele>47.732642</ele>
        <time>2024-07-07T11:45:28.916Z</time>
      </trkpt>
      <trkpt lat="53.12188" lon="5.77731">
        <ele>47.687383</ele>
        <time>2024-07-07T11:45:31.950Z</time>
      </trkpt>
      <trkpt lat="53.12196" lon="5.77725">
        <ele>47.650742</ele>
        <time>2024-07-07T11:45:33.928Z</time>
      </trkpt>
      <trkpt lat="53.12209" lon="5.77716">
        <ele>47.576143</ele>
        <time>2024-07-07T11:45:36.921Z</time>
      </trkpt>
      <trkpt lat="53.12217" lon="5.77709">
        <ele>47.524122</ele>
        <time>2024-07-07T11:45:38.931Z</time>
      </trkpt>
      <trkpt lat="53.12226" lon="5.77704">
        <ele>47.471846</ele>
        <time>2024-07-07T11:45:40.929Z</time>
      </trkpt>
      <trkpt lat="53.12235" lon="5.777">
        <ele>47.419876</ele>
        <time>2024-07-07T11:45:42.926Z</time>
      </trkpt>
      <trkpt lat="53.12244" lon="5.77695">
        <ele>47.368764</ele>
        <time>2024-07-07T11:45:44.922Z</time>
      </trkpt>
      <trkpt lat="53.12253" lon="5.77691">
        <ele>47.316547</ele>
        <time>2024-07-07T11:45:46.928Z</time>
      </trkpt>
      <trkpt lat="53.12262" lon="5.77687">
        <ele>47.264061</ele>
        <time>2024-07-07T11:45:48.914Z</time>
      </trkpt>
      <trkpt lat="53.12271" lon="5.77685">
        <ele>47.211469</ele>
        <time>2024-07-07T11:45:50.922Z</time>
      </trkpt>
      <trkpt lat="53.12281" lon="5.77682">
        <ele>47.156675</ele>
        <time>2024-07-07T11:45:52.940Z</time>
      </trkpt>
      <trkpt lat="53.1229" lon="5.7768">
        <ele>47.103734</ele>
        <time>2024-07-07T11:45:54.926Z</time>
      </trkpt>
      <trkpt lat="53.123" lon="5.77679">
        <ele>47.047341</ele>
        <time>2024-07-07T11:45:56.943Z</time>
      </trkpt>
      <trkpt lat="53.1231" lon="5.77679">
        <ele>46.990454</ele>
        <time>2024-07-07T11:45:58.919Z</time>
      </trkpt>
      <trkpt lat="53.1232" lon="5.77679">
        <ele>46.934673</ele>
        <time>2024-07-07T11:46:00.926Z</time>
      </trkpt>
      <trkpt lat="53.12331" lon="5.7768">
        <ele>46.877224</ele>
        <time>2024-07-07T11:46:02.931Z</time>
      </trkpt>
      <trkpt lat="53.12341" lon="5.77682">
        <ele>46.82122</ele>
        <time>2024-07-07T11:46:04.934Z</time>
      </trkpt>
      <trkpt lat="53.12351" lon="5.77687">
        <ele>46.763785</ele>
        <time>2024-07-07T11:46:06.918Z</time>
      </trkpt>
      <trkpt lat="53.12361" lon="5.7769">
        <ele>46.705419</ele>
        <time>2024-07-07T11:46:08.941Z</time>
      </trkpt>
      <trkpt lat="53.12371" lon="5.77695">
        <ele>46.652829</ele>
        <time>2024-07-07T11:46:10.942Z</time>
      </trkpt>
      <trkpt lat="53.12382" lon="5.77702">
        <ele>46.62336</ele>
        <time>2024-07-07T11:46:12.947Z</time>
      </trkpt>
      <trkpt lat="53.12392" lon="5.77708">
        <ele>46.594747</ele>
        <time>2024-07-07T11:46:14.930Z</time>
      </trkpt>
      <trkpt lat="53.12401" lon="5.77716">
        <ele>46.567149</ele>
        <time>2024-07-07T11:46:16.947Z</time>
      </trkpt>
      <trkpt lat="53.1241" lon="5.77723">
        <ele>46.540713</ele>
        <time>2024-07-07T11:46:18.931Z</time>
      </trkpt>
      <trkpt lat="53.12419" lon="5.77732">
        <ele>46.512932</ele>
        <time>2024-07-07T11:46:20.940Z</time>
      </trkpt>
      <trkpt lat="53.12428" lon="5.77739">
        <ele>46.485834</ele>
        <time>2024-07-07T11:46:22.933Z</time>
      </trkpt>
      <trkpt lat="53.12437" lon="5.77748">
        <ele>46.45882</ele>
        <time>2024-07-07T11:46:24.912Z</time>
      </trkpt>
      <trkpt lat="53.12446" lon="5.77759">
        <ele>46.430375</ele>
        <time>2024-07-07T11:46:26.939Z</time>
      </trkpt>
      <trkpt lat="53.12455" lon="5.77769">
        <ele>46.401862</ele>
        <time>2024-07-07T11:46:28.934Z</time>
      </trkpt>
      <trkpt lat="53.12463" lon="5.77781">
        <ele>46.373069</ele>
        <time>2024-07-07T11:46:30.934Z</time>
      </trkpt>
      <trkpt lat="53.12472" lon="5.77792">
        <ele>46.344069</ele>
        <time>2024-07-07T11:46:32.926Z</time>
      </trkpt>
      <trkpt lat="53.1248" lon="5.77803">
        <ele>46.315975</ele>
        <time>2024-07-07T11:46:34.927Z</time>
      </trkpt>
      <trkpt lat="53.12489" lon="5.77813">
        <ele>46.286317</ele>
        <time>2024-07-07T11:46:36.932Z</time>
      </trkpt>
      <trkpt lat="53.12499" lon="5.77824">
        <ele>46.256301</ele>
        <time>2024-07-07T11:46:38.941Z</time>
      </trkpt>
      <trkpt lat="53.12508" lon="5.77835">
        <ele>46.226809</ele>
        <time>2024-07-07T11:46:40.925Z</time>
      </trkpt>
      <trkpt lat="53.12517" lon="5.77845">
        <ele>46.197226</ele>
        <time>2024-07-07T11:46:42.922Z</time>
      </trkpt>
      <trkpt lat="53.12526" lon="5.77856">
        <ele>46.191096</ele>
        <time>2024-07-07T11:46:44.928Z</time>
      </trkpt>
      <trkpt lat="53.12534" lon="5.77867">
        <ele>46.203813</ele>
        <time>2024-07-07T11:46:46.915Z</time>
      </trkpt>
      <trkpt lat="53.12543" lon="5.77878">
        <ele>46.216865</ele>
        <time>2024-07-07T11:46:48.934Z</time>
      </trkpt>
      <trkpt lat="53.12551" lon="5.77888">
        <ele>46.229587</ele>
        <time>2024-07-07T11:46:50.919Z</time>
      </trkpt>
      <trkpt lat="53.1256" lon="5.77899">
        <ele>46.24265</ele>
        <time>2024-07-07T11:46:52.930Z</time>
      </trkpt>
      <trkpt lat="53.12569" lon="5.77909">
        <ele>46.256041</ele>
        <time>2024-07-07T11:46:54.940Z</time>
      </trkpt>
      <trkpt lat="53.12579" lon="5.7792">
        <ele>46.269571</ele>
        <time>2024-07-07T11:46:56.930Z</time>
      </trkpt>
      <trkpt lat="53.12588" lon="5.77929">
        <ele>46.282577</ele>
        <time>2024-07-07T11:46:58.931Z</time>
      </trkpt>
      <trkpt lat="53.12597" lon="5.77938">
        <ele>46.295474</ele>
        <time>2024-07-07T11:47:00.924Z</time>
      </trkpt>
      <trkpt lat="53.12608" lon="5.77948">
        <ele>46.309451</ele>
        <time>2024-07-07T11:47:02.937Z</time>
      </trkpt>
      <trkpt lat="53.12617" lon="5.77957">
        <ele>46.322764</ele>
        <time>2024-07-07T11:47:04.932Z</time>
      </trkpt>
      <trkpt lat="53.12627" lon="5.77965">
        <ele>46.336097</ele>
        <time>2024-07-07T11:47:06.941Z</time>
      </trkpt>
      <trkpt lat="53.12638" lon="5.77972">
        <ele>46.349715</ele>
        <time>2024-07-07T11:47:08.937Z</time>
      </trkpt>
      <trkpt lat="53.12648" lon="5.77979">
        <ele>46.36306</ele>
        <time>2024-07-07T11:47:10.941Z</time>
      </trkpt>
      <trkpt lat="53.12658" lon="5.77986">
        <ele>46.376399</ele>
        <time>2024-07-07T11:47:12.935Z</time>
      </trkpt>
      <trkpt lat="53.12669" lon="5.77992">
        <ele>46.389719</ele>
        <time>2024-07-07T11:47:14.924Z</time>
      </trkpt>
      <trkpt lat="53.1268" lon="5.77998">
        <ele>46.423035</ele>
        <time>2024-07-07T11:47:16.924Z</time>
      </trkpt>
      <trkpt lat="53.1269" lon="5.78004">
        <ele>46.495646</ele>
        <time>2024-07-07T11:47:18.929Z</time>
      </trkpt>
      <trkpt lat="53.12701" lon="5.78009">
        <ele>46.571796</ele>
        <time>2024-07-07T11:47:20.916Z</time>
      </trkpt>
      <trkpt lat="53.12712" lon="5.78016">
        <ele>46.647308</ele>
        <time>2024-07-07T11:47:22.930Z</time>
      </trkpt>
      <trkpt lat="53.12723" lon="5.78021">
        <ele>46.721078</ele>
        <time>2024-07-07T11:47:24.924Z</time>
      </trkpt>
      <trkpt lat="53.12733" lon="5.78026">
        <ele>46.796012</ele>
        <time>2024-07-07T11:47:26.933Z</time>
      </trkpt>
      <trkpt lat="53.12744" lon="5.78029">
        <ele>46.86775</ele>
        <time>2024-07-07T11:47:28.925Z</time>
      </trkpt>
      <trkpt lat="53.12755" lon="5.78032">
        <ele>46.940869</ele>
        <time>2024-07-07T11:47:30.933Z</time>
      </trkpt>
      <trkpt lat="53.12765" lon="5.78036">
        <ele>47.012246</ele>
        <time>2024-07-07T11:47:32.937Z</time>
      </trkpt>
      <trkpt lat="53.12776" lon="5.7804">
        <ele>47.084416</ele>
        <time>2024-07-07T11:47:34.927Z</time>
      </trkpt>
      <trkpt lat="53.12786" lon="5.78044">
        <ele>47.156607</ele>
        <time>2024-07-07T11:47:36.925Z</time>
      </trkpt>
      <trkpt lat="53.12797" lon="5.78047">
        <ele>47.231109</ele>
        <time>2024-07-07T11:47:38.916Z</time>
      </trkpt>
      <trkpt lat="53.12808" lon="5.78051">
        <ele>47.305179</ele>
        <time>2024-07-07T11:47:40.929Z</time>
      </trkpt>
      <trkpt lat="53.12819" lon="5.78054">
        <ele>47.376848</ele>
        <time>2024-07-07T11:47:42.943Z</time>
      </trkpt>
      <trkpt lat="53.12829" lon="5.78057">
        <ele>47.446763</ele>
        <time>2024-07-07T11:47:44.935Z</time>
      </trkpt>
      <trkpt lat="53.1284" lon="5.78062">
        <ele>47.521068</ele>
        <time>2024-07-07T11:47:46.915Z</time>
      </trkpt>
      <trkpt lat="53.12851" lon="5.78065">
        <ele>47.592219</ele>
        <time>2024-07-07T11:47:48.943Z</time>
      </trkpt>
      <trkpt lat="53.12861" lon="5.78068">
        <ele>47.570153</ele>
        <time>2024-07-07T11:47:50.939Z</time>
      </trkpt>
      <trkpt lat="53.12871" lon="5.78072">
        <ele>47.539356</ele>
        <time>2024-07-07T11:47:52.928Z</time>
      </trkpt>
      <trkpt lat="53.12882" lon="5.78076">
        <ele>47.507986</ele>
        <time>2024-07-07T11:47:54.920Z</time>
      </trkpt>
      <trkpt lat="53.12892" lon="5.7808">
        <ele>47.47869</ele>
        <time>2024-07-07T11:47:56.935Z</time>
      </trkpt>
      <trkpt lat="53.12902" lon="5.78083">
        <ele>47.447839</ele>
        <time>2024-07-07T11:47:58.918Z</time>
      </trkpt>
      <trkpt lat="53.12912" lon="5.78086">
        <ele>47.417326</ele>
        <time>2024-07-07T11:48:00.933Z</time>
      </trkpt>
      <trkpt lat="53.12923" lon="5.7809">
        <ele>47.38567</ele>
        <time>2024-07-07T11:48:02.929Z</time>
      </trkpt>
      <trkpt lat="53.12933" lon="5.78094">
        <ele>47.353692</ele>
        <time>2024-07-07T11:48:04.929Z</time>
      </trkpt>
      <trkpt lat="53.12944" lon="5.78098">
        <ele>47.322778</ele>
        <time>2024-07-07T11:48:06.931Z</time>
      </trkpt>
      <trkpt lat="53.12954" lon="5.78101">
        <ele>47.290906</ele>
        <time>2024-07-07T11:48:08.936Z</time>
      </trkpt>
      <trkpt lat="53.12965" lon="5.78105">
        <ele>47.260107</ele>
        <time>2024-07-07T11:48:10.924Z</time>
      </trkpt>
      <trkpt lat="53.12975" lon="5.78109">
        <ele>47.230331</ele>
        <time>2024-07-07T11:48:12.929Z</time>
      </trkpt>
      <trkpt lat="53.12985" lon="5.78113">
        <ele>47.200636</ele>
        <time>2024-07-07T11:48:14.934Z</time>
      </trkpt>
      <trkpt lat="53.12994" lon="5.78116">
        <ele>47.171265</ele>
        <time>2024-07-07T11:48:16.924Z</time>
      </trkpt>
      <trkpt lat="53.13004" lon="5.78119">
        <ele>47.142459</ele>
        <time>2024-07-07T11:48:18.943Z</time>
      </trkpt>
      <trkpt lat="53.13014" lon="5.78122">
        <ele>47.113335</ele>
        <time>2024-07-07T11:48:20.933Z</time>
      </trkpt>
      <trkpt lat="53.13023" lon="5.78125">
        <ele>47.085392</ele>
        <time>2024-07-07T11:48:22.929Z</time>
      </trkpt>
      <trkpt lat="53.13034" lon="5.78129">
        <ele>47.05473</ele>
        <time>2024-07-07T11:48:24.933Z</time>
      </trkpt>
      <trkpt lat="53.13044" lon="5.78131">
        <ele>47.024474</ele>
        <time>2024-07-07T11:48:26.943Z</time>
      </trkpt>
      <trkpt lat="53.13054" lon="5.78134">
        <ele>46.993822</ele>
        <time>2024-07-07T11:48:28.913Z</time>
      </trkpt>
      <trkpt lat="53.13065" lon="5.78137">
        <ele>46.962794</ele>
        <time>2024-07-07T11:48:30.925Z</time>
      </trkpt>
      <trkpt lat="53.13075" lon="5.7814">
        <ele>46.931937</ele>
        <time>2024-07-07T11:48:32.937Z</time>
      </trkpt>
      <trkpt lat="53.13086" lon="5.78143">
        <ele>46.900909</ele>
        <time>2024-07-07T11:48:34.938Z</time>
      </trkpt>
      <trkpt lat="53.13096" lon="5.78147">
        <ele>46.871416</ele>
        <time>2024-07-07T11:48:36.929Z</time>
      </trkpt>
      <trkpt lat="53.13105" lon="5.78151">
        <ele>46.842451</ele>
        <time>2024-07-07T11:48:38.923Z</time>
      </trkpt>
      <trkpt lat="53.13115" lon="5.78155">
        <ele>46.813319</ele>
        <time>2024-07-07T11:48:40.934Z</time>
      </trkpt>
      <trkpt lat="53.13125" lon="5.7816">
        <ele>46.784003</ele>
        <time>2024-07-07T11:48:42.928Z</time>
      </trkpt>
      <trkpt lat="53.13134" lon="5.78164">
        <ele>46.755152</ele>
        <time>2024-07-07T11:48:44.931Z</time>
      </trkpt>
      <trkpt lat="53.13143" lon="5.78167">
        <ele>46.728326</ele>
        <time>2024-07-07T11:48:46.942Z</time>
      </trkpt>
      <trkpt lat="53.13153" lon="5.78172">
        <ele>46.69929</ele>
        <time>2024-07-07T11:48:48.927Z</time>
      </trkpt>
      <trkpt lat="53.13163" lon="5.78176">
        <ele>46.669551</ele>
        <time>2024-07-07T11:48:50.934Z</time>
      </trkpt>
      <trkpt lat="53.13173" lon="5.7818">
        <ele>46.638643</ele>
        <time>2024-07-07T11:48:52.933Z</time>
      </trkpt>
      <trkpt lat="53.13183" lon="5.78184">
        <ele>46.609614</ele>
        <time>2024-07-07T11:48:54.934Z</time>
      </trkpt>
      <trkpt lat="53.13192" lon="5.78187">
        <ele>46.582259</ele>
        <time>2024-07-07T11:48:56.932Z</time>
      </trkpt>
      <trkpt lat="53.13201" lon="5.78189">
        <ele>46.555216</ele>
        <time>2024-07-07T11:48:58.928Z</time>
      </trkpt>
      <trkpt lat="53.13211" lon="5.78191">
        <ele>46.590412</ele>
        <time>2024-07-07T11:49:00.941Z</time>
      </trkpt>
      <trkpt lat="53.13221" lon="5.78194">
        <ele>46.639576</ele>
        <time>2024-07-07T11:49:02.906Z</time>
      </trkpt>
      <trkpt lat="53.1323" lon="5.78198">
        <ele>46.688309</ele>
        <time>2024-07-07T11:49:04.946Z</time>
      </trkpt>
      <trkpt lat="53.1324" lon="5.782">
        <ele>46.73616</ele>
        <time>2024-07-07T11:49:06.929Z</time>
      </trkpt>
      <trkpt lat="53.13249" lon="5.78204">
        <ele>46.785509</ele>
        <time>2024-07-07T11:49:08.924Z</time>
      </trkpt>
      <trkpt lat="53.13259" lon="5.78208">
        <ele>46.83446</ele>
        <time>2024-07-07T11:49:10.931Z</time>
      </trkpt>
      <trkpt lat="53.13268" lon="5.78212">
        <ele>46.88381</ele>
        <time>2024-07-07T11:49:12.925Z</time>
      </trkpt>
      <trkpt lat="53.13277" lon="5.78215">
        <ele>46.931267</ele>
        <time>2024-07-07T11:49:14.915Z</time>
      </trkpt>
      <trkpt lat="53.13287" lon="5.78219">
        <ele>46.980329</ele>
        <time>2024-07-07T11:49:16.930Z</time>
      </trkpt>
      <trkpt lat="53.13297" lon="5.78222">
        <ele>47.029715</ele>
        <time>2024-07-07T11:49:18.926Z</time>
      </trkpt>
      <trkpt lat="53.13306" lon="5.78226">
        <ele>47.080762</ele>
        <time>2024-07-07T11:49:20.952Z</time>
      </trkpt>
      <trkpt lat="53.1332" lon="5.78232">
        <ele>47.149632</ele>
        <time>2024-07-07T11:49:23.929Z</time>
      </trkpt>
      <trkpt lat="53.13329" lon="5.78237">
        <ele>47.196649</ele>
        <time>2024-07-07T11:49:25.929Z</time>
      </trkpt>
      <trkpt lat="53.13338" lon="5.7824">
        <ele>47.246554</ele>
        <time>2024-07-07T11:49:27.932Z</time>
      </trkpt>
      <trkpt lat="53.13348" lon="5.78244">
        <ele>47.297806</ele>
        <time>2024-07-07T11:49:29.933Z</time>
      </trkpt>
      <trkpt lat="53.13358" lon="5.78248">
        <ele>47.349034</ele>
        <time>2024-07-07T11:49:31.928Z</time>
      </trkpt>
      <trkpt lat="53.13368" lon="5.78252">
        <ele>47.398549</ele>
        <time>2024-07-07T11:49:33.948Z</time>
      </trkpt>
      <trkpt lat="53.13378" lon="5.78256">
        <ele>47.449705</ele>
        <time>2024-07-07T11:49:35.950Z</time>
      </trkpt>
      <trkpt lat="53.13387" lon="5.78262">
        <ele>47.40151</ele>
        <time>2024-07-07T11:49:37.949Z</time>
      </trkpt>
      <trkpt lat="53.13396" lon="5.78268">
        <ele>47.343772</ele>
        <time>2024-07-07T11:49:39.932Z</time>
      </trkpt>
      <trkpt lat="53.13406" lon="5.78273">
        <ele>47.285805</ele>
        <time>2024-07-07T11:49:41.931Z</time>
      </trkpt>
      <trkpt lat="53.13415" lon="5.78278">
        <ele>47.227838</ele>
        <time>2024-07-07T11:49:43.948Z</time>
      </trkpt>
      <trkpt lat="53.13424" lon="5.78284">
        <ele>47.173147</ele>
        <time>2024-07-07T11:49:45.942Z</time>
      </trkpt>
      <trkpt lat="53.13433" lon="5.78289">
        <ele>47.1176</ele>
        <time>2024-07-07T11:49:47.943Z</time>
      </trkpt>
      <trkpt lat="53.13443" lon="5.78295">
        <ele>47.060656</ele>
        <time>2024-07-07T11:49:49.928Z</time>
      </trkpt>
      <trkpt lat="53.13452" lon="5.783">
        <ele>47.005159</ele>
        <time>2024-07-07T11:49:51.935Z</time>
      </trkpt>
      <trkpt lat="53.13461" lon="5.78306">
        <ele>46.948056</ele>
        <time>2024-07-07T11:49:53.948Z</time>
      </trkpt>
      <trkpt lat="53.1347" lon="5.78312">
        <ele>46.891613</ele>
        <time>2024-07-07T11:49:55.935Z</time>
      </trkpt>
      <trkpt lat="53.1348" lon="5.78318">
        <ele>46.834444</ele>
        <time>2024-07-07T11:49:57.931Z</time>
      </trkpt>
      <trkpt lat="53.13489" lon="5.78323">
        <ele>46.776926</ele>
        <time>2024-07-07T11:49:59.943Z</time>
      </trkpt>
      <trkpt lat="53.13499" lon="5.78329">
        <ele>46.717043</ele>
        <time>2024-07-07T11:50:01.932Z</time>
      </trkpt>
      <trkpt lat="53.13508" lon="5.78335">
        <ele>46.660757</ele>
        <time>2024-07-07T11:50:03.932Z</time>
      </trkpt>
      <trkpt lat="53.13517" lon="5.78342">
        <ele>46.60367</ele>
        <time>2024-07-07T11:50:05.931Z</time>
      </trkpt>
      <trkpt lat="53.13527" lon="5.78348">
        <ele>46.54322</ele>
        <time>2024-07-07T11:50:07.935Z</time>
      </trkpt>
      <trkpt lat="53.13537" lon="5.78353">
        <ele>46.484749</ele>
        <time>2024-07-07T11:50:09.945Z</time>
      </trkpt>
      <trkpt lat="53.13546" lon="5.7836">
        <ele>46.424224</ele>
        <time>2024-07-07T11:50:11.935Z</time>
      </trkpt>
      <trkpt lat="53.13556" lon="5.78367">
        <ele>46.343506</ele>
        <time>2024-07-07T11:50:13.931Z</time>
      </trkpt>
      <trkpt lat="53.13565" lon="5.78373">
        <ele>46.263219</ele>
        <time>2024-07-07T11:50:15.936Z</time>
      </trkpt>
      <trkpt lat="53.13575" lon="5.78379">
        <ele>46.182806</ele>
        <time>2024-07-07T11:50:17.944Z</time>
      </trkpt>
      <trkpt lat="53.13584" lon="5.78386">
        <ele>46.102394</ele>
        <time>2024-07-07T11:50:19.944Z</time>
      </trkpt>
      <trkpt lat="53.13593" lon="5.78392">
        <ele>46.023589</ele>
        <time>2024-07-07T11:50:21.964Z</time>
      </trkpt>
      <trkpt lat="53.13603" lon="5.78397">
        <ele>45.945281</ele>
        <time>2024-07-07T11:50:23.942Z</time>
      </trkpt>
      <trkpt lat="53.13611" lon="5.78404">
        <ele>45.869971</ele>
        <time>2024-07-07T11:50:25.942Z</time>
      </trkpt>
      <trkpt lat="53.1362" lon="5.78409">
        <ele>45.795204</ele>
        <time>2024-07-07T11:50:27.954Z</time>
      </trkpt>
      <trkpt lat="53.1363" lon="5.78415">
        <ele>45.716057</ele>
        <time>2024-07-07T11:50:29.938Z</time>
      </trkpt>
      <trkpt lat="53.13639" lon="5.78421">
        <ele>45.63551</ele>
        <time>2024-07-07T11:50:31.939Z</time>
      </trkpt>
      <trkpt lat="53.13649" lon="5.78427">
        <ele>45.555451</ele>
        <time>2024-07-07T11:50:33.933Z</time>
      </trkpt>
      <trkpt lat="53.13658" lon="5.78432">
        <ele>45.476079</ele>
        <time>2024-07-07T11:50:35.932Z</time>
      </trkpt>
      <trkpt lat="53.13668" lon="5.78437">
        <ele>45.395578</ele>
        <time>2024-07-07T11:50:37.935Z</time>
      </trkpt>
      <trkpt lat="53.13678" lon="5.78443">
        <ele>45.312734</ele>
        <time>2024-07-07T11:50:39.951Z</time>
      </trkpt>
      <trkpt lat="53.13688" lon="5.78449">
        <ele>45.226914</ele>
        <time>2024-07-07T11:50:41.943Z</time>
      </trkpt>
      <trkpt lat="53.13698" lon="5.78454">
        <ele>45.143521</ele>
        <time>2024-07-07T11:50:43.935Z</time>
      </trkpt>
      <trkpt lat="53.13708" lon="5.78459">
        <ele>45.059196</ele>
        <time>2024-07-07T11:50:45.948Z</time>
      </trkpt>
      <trkpt lat="53.13719" lon="5.78461">
        <ele>45.043426</ele>
        <time>2024-07-07T11:50:47.940Z</time>
      </trkpt>
      <trkpt lat="53.1373" lon="5.78463">
        <ele>45.224564</ele>
        <time>2024-07-07T11:50:49.952Z</time>
      </trkpt>
      <trkpt lat="53.1374" lon="5.78466">
        <ele>45.398339</ele>
        <time>2024-07-07T11:50:51.933Z</time>
      </trkpt>
      <trkpt lat="53.13749" lon="5.78474">
        <ele>45.569956</ele>
        <time>2024-07-07T11:50:53.926Z</time>
      </trkpt>
      <trkpt lat="53.13758" lon="5.7848">
        <ele>45.741478</ele>
        <time>2024-07-07T11:50:55.925Z</time>
      </trkpt>
      <trkpt lat="53.13768" lon="5.78484">
        <ele>45.910063</ele>
        <time>2024-07-07T11:50:57.935Z</time>
      </trkpt>
      <trkpt lat="53.13778" lon="5.78488">
        <ele>46.081922</ele>
        <time>2024-07-07T11:50:59.933Z</time>
      </trkpt>
      <trkpt lat="53.13788" lon="5.78492">
        <ele>46.251199</ele>
        <time>2024-07-07T11:51:01.933Z</time>
      </trkpt>
      <trkpt lat="53.13798" lon="5.78495">
        <ele>46.416906</ele>
        <time>2024-07-07T11:51:03.933Z</time>
      </trkpt>
      <trkpt lat="53.13808" lon="5.78498">
        <ele>46.585378</ele>
        <time>2024-07-07T11:51:05.943Z</time>
      </trkpt>
      <trkpt lat="53.13817" lon="5.78502">
        <ele>46.748654</ele>
        <time>2024-07-07T11:51:07.955Z</time>
      </trkpt>
      <trkpt lat="53.1383" lon="5.78505">
        <ele>46.963135</ele>
        <time>2024-07-07T11:51:10.938Z</time>
      </trkpt>
      <trkpt lat="53.13832" lon="5.78521">
        <ele>47.129127</ele>
        <time>2024-07-07T11:51:24.923Z</time>
      </trkpt>
      <trkpt lat="53.13844" lon="5.78523">
        <ele>47.33082</ele>
        <time>2024-07-07T11:51:29.940Z</time>
      </trkpt>
      <trkpt lat="53.13855" lon="5.78523">
        <ele>47.513765</ele>
        <time>2024-07-07T11:51:32.936Z</time>
      </trkpt>
      <trkpt lat="53.13866" lon="5.78522">
        <ele>47.700268</ele>
        <time>2024-07-07T11:51:35.947Z</time>
      </trkpt>
      <trkpt lat="53.13877" lon="5.78521">
        <ele>47.883686</ele>
        <time>2024-07-07T11:51:38.932Z</time>
      </trkpt>
      <trkpt lat="53.13889" lon="5.78516">
        <ele>48.054682</ele>
        <time>2024-07-07T11:51:41.936Z</time>
      </trkpt>
      <trkpt lat="53.13898" lon="5.78512">
        <ele>48.131822</ele>
        <time>2024-07-07T11:51:43.944Z</time>
      </trkpt>
      <trkpt lat="53.13907" lon="5.78508">
        <ele>48.211179</ele>
        <time>2024-07-07T11:51:45.932Z</time>
      </trkpt>
      <trkpt lat="53.13916" lon="5.78503">
        <ele>48.292134</ele>
        <time>2024-07-07T11:51:47.913Z</time>
      </trkpt>
      <trkpt lat="53.13925" lon="5.78498">
        <ele>48.376551</ele>
        <time>2024-07-07T11:51:49.924Z</time>
      </trkpt>
      <trkpt lat="53.13934" lon="5.78493">
        <ele>48.459027</ele>
        <time>2024-07-07T11:51:51.934Z</time>
      </trkpt>
      <trkpt lat="53.13944" lon="5.78487">
        <ele>48.544986</ele>
        <time>2024-07-07T11:51:53.944Z</time>
      </trkpt>
      <trkpt lat="53.13953" lon="5.78482">
        <ele>48.628051</ele>
        <time>2024-07-07T11:51:55.942Z</time>
      </trkpt>
      <trkpt lat="53.13962" lon="5.78478">
        <ele>48.708759</ele>
        <time>2024-07-07T11:51:57.944Z</time>
      </trkpt>
      <trkpt lat="53.13972" lon="5.78473">
        <ele>48.797481</ele>
        <time>2024-07-07T11:51:59.945Z</time>
      </trkpt>
      <trkpt lat="53.13982" lon="5.78469">
        <ele>48.884432</ele>
        <time>2024-07-07T11:52:01.931Z</time>
      </trkpt>
      <trkpt lat="53.13992" lon="5.78466">
        <ele>48.969334</ele>
        <time>2024-07-07T11:52:03.928Z</time>
      </trkpt>
      <trkpt lat="53.14001" lon="5.78463">
        <ele>49.050205</ele>
        <time>2024-07-07T11:52:05.930Z</time>
      </trkpt>
      <trkpt lat="53.1401" lon="5.7846">
        <ele>49.130536</ele>
        <time>2024-07-07T11:52:07.931Z</time>
      </trkpt>
      <trkpt lat="53.1402" lon="5.78457">
        <ele>49.218317</ele>
        <time>2024-07-07T11:52:09.934Z</time>
      </trkpt>
      <trkpt lat="53.1403" lon="5.78455">
        <ele>49.305381</ele>
        <time>2024-07-07T11:52:11.934Z</time>
      </trkpt>
      <trkpt lat="53.1404" lon="5.78453">
        <ele>49.387049</ele>
        <time>2024-07-07T11:52:13.921Z</time>
      </trkpt>
      <trkpt lat="53.1405" lon="5.7845">
        <ele>49.470631</ele>
        <time>2024-07-07T11:52:15.924Z</time>
      </trkpt>
      <trkpt lat="53.14059" lon="5.78448">
        <ele>49.550147</ele>
        <time>2024-07-07T11:52:17.931Z</time>
      </trkpt>
      <trkpt lat="53.14068" lon="5.78446">
        <ele>49.604601</ele>
        <time>2024-07-07T11:52:19.926Z</time>
      </trkpt>
      <trkpt lat="53.14077" lon="5.78443">
        <ele>49.658118</ele>
        <time>2024-07-07T11:52:21.932Z</time>
      </trkpt>
      <trkpt lat="53.14087" lon="5.7844">
        <ele>49.712358</ele>
        <time>2024-07-07T11:52:23.946Z</time>
      </trkpt>
      <trkpt lat="53.14096" lon="5.78435">
        <ele>49.764815</ele>
        <time>2024-07-07T11:52:25.939Z</time>
      </trkpt>
      <trkpt lat="53.14105" lon="5.78431">
        <ele>49.822298</ele>
        <time>2024-07-07T11:52:27.940Z</time>
      </trkpt>
      <trkpt lat="53.14118" lon="5.78425">
        <ele>49.899022</ele>
        <time>2024-07-07T11:52:30.937Z</time>
      </trkpt>
      <trkpt lat="53.14127" lon="5.78421">
        <ele>49.950581</ele>
        <time>2024-07-07T11:52:32.929Z</time>
      </trkpt>
      <trkpt lat="53.14139" lon="5.78413">
        <ele>50.024786</ele>
        <time>2024-07-07T11:52:35.932Z</time>
      </trkpt>
      <trkpt lat="53.14148" lon="5.78407">
        <ele>50.077942</ele>
        <time>2024-07-07T11:52:37.932Z</time>
      </trkpt>
      <trkpt lat="53.14157" lon="5.78402">
        <ele>50.13119</ele>
        <time>2024-07-07T11:52:39.936Z</time>
      </trkpt>
      <trkpt lat="53.14167" lon="5.78398">
        <ele>50.187937</ele>
        <time>2024-07-07T11:52:41.931Z</time>
      </trkpt>
      <trkpt lat="53.14176" lon="5.78394">
        <ele>50.245808</ele>
        <time>2024-07-07T11:52:43.940Z</time>
      </trkpt>
      <trkpt lat="53.14186" lon="5.78389">
        <ele>50.30265</ele>
        <time>2024-07-07T11:52:45.952Z</time>
      </trkpt>
      <trkpt lat="53.14195" lon="5.78385">
        <ele>50.355479</ele>
        <time>2024-07-07T11:52:47.939Z</time>
      </trkpt>
      <trkpt lat="53.14204" lon="5.78381">
        <ele>50.407481</ele>
        <time>2024-07-07T11:52:49.937Z</time>
      </trkpt>
      <trkpt lat="53.14213" lon="5.78378">
        <ele>50.461361</ele>
        <time>2024-07-07T11:52:51.949Z</time>
      </trkpt>
      <trkpt lat="53.14222" lon="5.78375">
        <ele>50.515175</ele>
        <time>2024-07-07T11:52:53.950Z</time>
      </trkpt>
      <trkpt lat="53.14231" lon="5.7837">
        <ele>50.56907</ele>
        <time>2024-07-07T11:52:55.960Z</time>
      </trkpt>
      <trkpt lat="53.14243" lon="5.78363">
        <ele>50.542269</ele>
        <time>2024-07-07T11:52:58.923Z</time>
      </trkpt>
      <trkpt lat="53.14251" lon="5.78355">
        <ele>50.51841</ele>
        <time>2024-07-07T11:53:00.945Z</time>
      </trkpt>
      <trkpt lat="53.14259" lon="5.78345">
        <ele>50.493324</ele>
        <time>2024-07-07T11:53:02.936Z</time>
      </trkpt>
      <trkpt lat="53.14266" lon="5.78334">
        <ele>50.467385</ele>
        <time>2024-07-07T11:53:04.919Z</time>
      </trkpt>
      <trkpt lat="53.14274" lon="5.78326">
        <ele>50.441694</ele>
        <time>2024-07-07T11:53:06.929Z</time>
      </trkpt>
      <trkpt lat="53.14284" lon="5.78323">
        <ele>50.416527</ele>
        <time>2024-07-07T11:53:08.920Z</time>
      </trkpt>
      <trkpt lat="53.14294" lon="5.78319">
        <ele>50.390527</ele>
        <time>2024-07-07T11:53:10.923Z</time>
      </trkpt>
      <trkpt lat="53.14303" lon="5.78317">
        <ele>50.365995</ele>
        <time>2024-07-07T11:53:12.931Z</time>
      </trkpt>
      <trkpt lat="53.14312" lon="5.78314">
        <ele>50.341356</ele>
        <time>2024-07-07T11:53:14.928Z</time>
      </trkpt>
      <trkpt lat="53.14321" lon="5.78312">
        <ele>50.31667</ele>
        <time>2024-07-07T11:53:16.945Z</time>
      </trkpt>
      <trkpt lat="53.14331" lon="5.78309">
        <ele>50.291158</ele>
        <time>2024-07-07T11:53:18.930Z</time>
      </trkpt>
      <trkpt lat="53.14341" lon="5.78307">
        <ele>50.264609</ele>
        <time>2024-07-07T11:53:20.931Z</time>
      </trkpt>
      <trkpt lat="53.14351" lon="5.78304">
        <ele>50.238579</ele>
        <time>2024-07-07T11:53:22.923Z</time>
      </trkpt>
      <trkpt lat="53.14361" lon="5.78302">
        <ele>50.212681</ele>
        <time>2024-07-07T11:53:24.916Z</time>
      </trkpt>
      <trkpt lat="53.1437" lon="5.78299">
        <ele>50.187576</ele>
        <time>2024-07-07T11:53:26.926Z</time>
      </trkpt>
      <trkpt lat="53.1438" lon="5.78296">
        <ele>50.161508</ele>
        <time>2024-07-07T11:53:28.921Z</time>
      </trkpt>
      <trkpt lat="53.14389" lon="5.78292">
        <ele>50.135767</ele>
        <time>2024-07-07T11:53:30.935Z</time>
      </trkpt>
      <trkpt lat="53.14399" lon="5.78287">
        <ele>50.109818</ele>
        <time>2024-07-07T11:53:32.940Z</time>
      </trkpt>
      <trkpt lat="53.14408" lon="5.78282">
        <ele>50.046539</ele>
        <time>2024-07-07T11:53:34.923Z</time>
      </trkpt>
      <trkpt lat="53.14418" lon="5.78278">
        <ele>49.960398</ele>
        <time>2024-07-07T11:53:36.939Z</time>
      </trkpt>
      <trkpt lat="53.14428" lon="5.78275">
        <ele>49.882472</ele>
        <time>2024-07-07T11:53:38.939Z</time>
      </trkpt>
      <trkpt lat="53.14441" lon="5.78268">
        <ele>49.770543</ele>
        <time>2024-07-07T11:53:41.943Z</time>
      </trkpt>
      <trkpt lat="53.1445" lon="5.78264">
        <ele>49.691701</ele>
        <time>2024-07-07T11:53:43.946Z</time>
      </trkpt>
      <trkpt lat="53.1446" lon="5.78259">
        <ele>49.613641</ele>
        <time>2024-07-07T11:53:45.952Z</time>
      </trkpt>
      <trkpt lat="53.14469" lon="5.78255">
        <ele>49.534924</ele>
        <time>2024-07-07T11:53:47.920Z</time>
      </trkpt>
      <trkpt lat="53.14478" lon="5.78251">
        <ele>49.456471</ele>
        <time>2024-07-07T11:53:49.934Z</time>
      </trkpt>
      <trkpt lat="53.14488" lon="5.78247">
        <ele>49.378779</ele>
        <time>2024-07-07T11:53:51.939Z</time>
      </trkpt>
      <trkpt lat="53.14497" lon="5.78242">
        <ele>49.299311</ele>
        <time>2024-07-07T11:53:53.946Z</time>
      </trkpt>
      <trkpt lat="53.14506" lon="5.78237">
        <ele>49.221356</ele>
        <time>2024-07-07T11:53:55.937Z</time>
      </trkpt>
      <trkpt lat="53.14515" lon="5.78232">
        <ele>49.14281</ele>
        <time>2024-07-07T11:53:57.927Z</time>
      </trkpt>
      <trkpt lat="53.14524" lon="5.78228">
        <ele>49.06735</ele>
        <time>2024-07-07T11:53:59.939Z</time>
      </trkpt>
      <trkpt lat="53.14533" lon="5.78224">
        <ele>48.992414</ele>
        <time>2024-07-07T11:54:01.932Z</time>
      </trkpt>
      <trkpt lat="53.14542" lon="5.7822">
        <ele>48.916171</ele>
        <time>2024-07-07T11:54:03.932Z</time>
      </trkpt>
      <trkpt lat="53.14552" lon="5.78216">
        <ele>48.836669</ele>
        <time>2024-07-07T11:54:05.934Z</time>
      </trkpt>
      <trkpt lat="53.14561" lon="5.78211">
        <ele>48.757168</ele>
        <time>2024-07-07T11:54:07.947Z</time>
      </trkpt>
      <trkpt lat="53.14571" lon="5.78207">
        <ele>48.677801</ele>
        <time>2024-07-07T11:54:09.935Z</time>
      </trkpt>
      <trkpt lat="53.1458" lon="5.78203">
        <ele>48.685507</ele>
        <time>2024-07-07T11:54:11.945Z</time>
      </trkpt>
      <trkpt lat="53.1459" lon="5.78198">
        <ele>48.762166</ele>
        <time>2024-07-07T11:54:13.929Z</time>
      </trkpt>
      <trkpt lat="53.146" lon="5.78194">
        <ele>48.838592</ele>
        <time>2024-07-07T11:54:15.939Z</time>
      </trkpt>
      <trkpt lat="53.14609" lon="5.78189">
        <ele>48.911612</ele>
        <time>2024-07-07T11:54:17.932Z</time>
      </trkpt>
      <trkpt lat="53.14618" lon="5.78184">
        <ele>48.988139</ele>
        <time>2024-07-07T11:54:19.932Z</time>
      </trkpt>
      <trkpt lat="53.14627" lon="5.7818">
        <ele>49.057533</ele>
        <time>2024-07-07T11:54:21.933Z</time>
      </trkpt>
      <trkpt lat="53.14637" lon="5.78175">
        <ele>49.129952</ele>
        <time>2024-07-07T11:54:23.939Z</time>
      </trkpt>
      <trkpt lat="53.14645" lon="5.78172">
        <ele>49.199346</ele>
        <time>2024-07-07T11:54:25.945Z</time>
      </trkpt>
      <trkpt lat="53.14654" lon="5.78168">
        <ele>49.268853</ele>
        <time>2024-07-07T11:54:27.930Z</time>
      </trkpt>
      <trkpt lat="53.14663" lon="5.78163">
        <ele>49.337648</ele>
        <time>2024-07-07T11:54:29.939Z</time>
      </trkpt>
      <trkpt lat="53.14672" lon="5.78159">
        <ele>49.407351</ele>
        <time>2024-07-07T11:54:31.933Z</time>
      </trkpt>
      <trkpt lat="53.14685" lon="5.78154">
        <ele>49.507596</ele>
        <time>2024-07-07T11:54:34.930Z</time>
      </trkpt>
      <trkpt lat="53.14698" lon="5.78149">
        <ele>49.607551</ele>
        <time>2024-07-07T11:54:37.923Z</time>
      </trkpt>
      <trkpt lat="53.1471" lon="5.78144">
        <ele>49.704606</ele>
        <time>2024-07-07T11:54:40.939Z</time>
      </trkpt>
      <trkpt lat="53.14719" lon="5.78141">
        <ele>49.77421</ele>
        <time>2024-07-07T11:54:42.935Z</time>
      </trkpt>
      <trkpt lat="53.14732" lon="5.78137">
        <ele>49.874724</ele>
        <time>2024-07-07T11:54:45.930Z</time>
      </trkpt>
      <trkpt lat="53.14741" lon="5.78135">
        <ele>49.944244</ele>
        <time>2024-07-07T11:54:47.932Z</time>
      </trkpt>
      <trkpt lat="53.14751" lon="5.78133">
        <ele>49.98429</ele>
        <time>2024-07-07T11:54:49.932Z</time>
      </trkpt>
      <trkpt lat="53.14764" lon="5.78131">
        <ele>49.82146</ele>
        <time>2024-07-07T11:54:52.936Z</time>
      </trkpt>
      <trkpt lat="53.14773" lon="5.78129">
        <ele>49.712081</ele>
        <time>2024-07-07T11:54:54.943Z</time>
      </trkpt>
      <trkpt lat="53.14782" lon="5.78127">
        <ele>49.604878</ele>
        <time>2024-07-07T11:54:56.930Z</time>
      </trkpt>
      <trkpt lat="53.14792" lon="5.78125">
        <ele>49.494483</ele>
        <time>2024-07-07T11:54:58.940Z</time>
      </trkpt>
      <trkpt lat="53.14801" lon="5.78124">
        <ele>49.378617</ele>
        <time>2024-07-07T11:55:00.931Z</time>
      </trkpt>
      <trkpt lat="53.14811" lon="5.78124">
        <ele>49.261659</ele>
        <time>2024-07-07T11:55:02.944Z</time>
      </trkpt>
      <trkpt lat="53.14821" lon="5.78126">
        <ele>49.145091</ele>
        <time>2024-07-07T11:55:04.933Z</time>
      </trkpt>
      <trkpt lat="53.1483" lon="5.78129">
        <ele>49.031061</ele>
        <time>2024-07-07T11:55:06.929Z</time>
      </trkpt>
      <trkpt lat="53.14839" lon="5.78132">
        <ele>48.919119</ele>
        <time>2024-07-07T11:55:08.929Z</time>
      </trkpt>
      <trkpt lat="53.14849" lon="5.78136">
        <ele>48.805719</ele>
        <time>2024-07-07T11:55:10.920Z</time>
      </trkpt>
      <trkpt lat="53.14858" lon="5.78137">
        <ele>48.68847</ele>
        <time>2024-07-07T11:55:12.933Z</time>
      </trkpt>
      <trkpt lat="53.14868" lon="5.7814">
        <ele>48.567764</ele>
        <time>2024-07-07T11:55:14.933Z</time>
      </trkpt>
      <trkpt lat="53.14878" lon="5.78142">
        <ele>48.448912</ele>
        <time>2024-07-07T11:55:16.938Z</time>
      </trkpt>
      <trkpt lat="53.14888" lon="5.78144">
        <ele>48.328315</ele>
        <time>2024-07-07T11:55:18.922Z</time>
      </trkpt>
      <trkpt lat="53.14898" lon="5.78147">
        <ele>48.210075</ele>
        <time>2024-07-07T11:55:20.927Z</time>
      </trkpt>
      <trkpt lat="53.14908" lon="5.78149">
        <ele>48.089681</ele>
        <time>2024-07-07T11:55:22.924Z</time>
      </trkpt>
      <trkpt lat="53.14918" lon="5.78151">
        <ele>47.966165</ele>
        <time>2024-07-07T11:55:24.927Z</time>
      </trkpt>
      <trkpt lat="53.14928" lon="5.78154">
        <ele>47.861064</ele>
        <time>2024-07-07T11:55:26.927Z</time>
      </trkpt>
      <trkpt lat="53.14938" lon="5.78157">
        <ele>47.88954</ele>
        <time>2024-07-07T11:55:28.935Z</time>
      </trkpt>
      <trkpt lat="53.14948" lon="5.7816">
        <ele>47.918525</ele>
        <time>2024-07-07T11:55:30.927Z</time>
      </trkpt>
      <trkpt lat="53.14958" lon="5.78164">
        <ele>47.947699</ele>
        <time>2024-07-07T11:55:32.932Z</time>
      </trkpt>
      <trkpt lat="53.14967" lon="5.78169">
        <ele>47.976949</ele>
        <time>2024-07-07T11:55:34.925Z</time>
      </trkpt>
      <trkpt lat="53.14977" lon="5.78174">
        <ele>48.006707</ele>
        <time>2024-07-07T11:55:36.949Z</time>
      </trkpt>
      <trkpt lat="53.14987" lon="5.7818">
        <ele>48.036665</ele>
        <time>2024-07-07T11:55:38.938Z</time>
      </trkpt>
      <trkpt lat="53.14997" lon="5.78183">
        <ele>48.066572</ele>
        <time>2024-07-07T11:55:40.920Z</time>
      </trkpt>
      <trkpt lat="53.15007" lon="5.78188">
        <ele>48.095726</ele>
        <time>2024-07-07T11:55:42.931Z</time>
      </trkpt>
      <trkpt lat="53.15016" lon="5.78193">
        <ele>48.123691</ele>
        <time>2024-07-07T11:55:44.925Z</time>
      </trkpt>
      <trkpt lat="53.15025" lon="5.78197">
        <ele>48.152475</ele>
        <time>2024-07-07T11:55:46.940Z</time>
      </trkpt>
      <trkpt lat="53.15035" lon="5.78201">
        <ele>48.182098</ele>
        <time>2024-07-07T11:55:48.940Z</time>
      </trkpt>
      <trkpt lat="53.15045" lon="5.78206">
        <ele>48.212758</ele>
        <time>2024-07-07T11:55:50.925Z</time>
      </trkpt>
      <trkpt lat="53.15055" lon="5.78212">
        <ele>48.241448</ele>
        <time>2024-07-07T11:55:52.943Z</time>
      </trkpt>
      <trkpt lat="53.15064" lon="5.78219">
        <ele>48.27105</ele>
        <time>2024-07-07T11:55:54.931Z</time>
      </trkpt>
      <trkpt lat="53.15074" lon="5.78225">
        <ele>48.30113</ele>
        <time>2024-07-07T11:55:56.944Z</time>
      </trkpt>
      <trkpt lat="53.15084" lon="5.78232">
        <ele>48.331599</ele>
        <time>2024-07-07T11:55:58.930Z</time>
      </trkpt>
      <trkpt lat="53.15093" lon="5.7824">
        <ele>48.36198</ele>
        <time>2024-07-07T11:56:00.940Z</time>
      </trkpt>
      <trkpt lat="53.15102" lon="5.78249">
        <ele>48.403388</ele>
        <time>2024-07-07T11:56:02.946Z</time>
      </trkpt>
      <trkpt lat="53.15112" lon="5.78257">
        <ele>48.455398</ele>
        <time>2024-07-07T11:56:04.929Z</time>
      </trkpt>
      <trkpt lat="53.15121" lon="5.78265">
        <ele>48.506836</ele>
        <time>2024-07-07T11:56:06.937Z</time>
      </trkpt>
      <trkpt lat="53.1513" lon="5.78274">
        <ele>48.560285</ele>
        <time>2024-07-07T11:56:08.924Z</time>
      </trkpt>
      <trkpt lat="53.1514" lon="5.78283">
        <ele>48.614882</ele>
        <time>2024-07-07T11:56:10.935Z</time>
      </trkpt>
      <trkpt lat="53.15149" lon="5.78292">
        <ele>48.668095</ele>
        <time>2024-07-07T11:56:12.938Z</time>
      </trkpt>
      <trkpt lat="53.15159" lon="5.78301">
        <ele>48.720835</ele>
        <time>2024-07-07T11:56:14.924Z</time>
      </trkpt>
      <trkpt lat="53.15168" lon="5.78309">
        <ele>48.774133</ele>
        <time>2024-07-07T11:56:16.935Z</time>
      </trkpt>
      <trkpt lat="53.15177" lon="5.78318">
        <ele>48.82557</ele>
        <time>2024-07-07T11:56:18.924Z</time>
      </trkpt>
      <trkpt lat="53.15187" lon="5.78326">
        <ele>48.879928</ele>
        <time>2024-07-07T11:56:20.930Z</time>
      </trkpt>
      <trkpt lat="53.15197" lon="5.78335">
        <ele>48.934524</ele>
        <time>2024-07-07T11:56:22.952Z</time>
      </trkpt>
      <trkpt lat="53.15208" lon="5.78343">
        <ele>48.99117</ele>
        <time>2024-07-07T11:56:24.934Z</time>
      </trkpt>
      <trkpt lat="53.15217" lon="5.78351">
        <ele>49.042318</ele>
        <time>2024-07-07T11:56:26.926Z</time>
      </trkpt>
      <trkpt lat="53.15226" lon="5.78359">
        <ele>49.093755</ele>
        <time>2024-07-07T11:56:28.933Z</time>
      </trkpt>
      <trkpt lat="53.15235" lon="5.78367">
        <ele>49.143061</ele>
        <time>2024-07-07T11:56:30.927Z</time>
      </trkpt>
      <trkpt lat="53.15245" lon="5.78372">
        <ele>49.192901</ele>
        <time>2024-07-07T11:56:32.920Z</time>
      </trkpt>
      <trkpt lat="53.15254" lon="5.78377">
        <ele>49.241987</ele>
        <time>2024-07-07T11:56:34.944Z</time>
      </trkpt>
      <trkpt lat="53.15263" lon="5.78383">
        <ele>49.25439</ele>
        <time>2024-07-07T11:56:36.924Z</time>
      </trkpt>
      <trkpt lat="53.15272" lon="5.78391">
        <ele>49.237575</ele>
        <time>2024-07-07T11:56:38.915Z</time>
      </trkpt>
      <trkpt lat="53.15282" lon="5.78398">
        <ele>49.220683</ele>
        <time>2024-07-07T11:56:40.921Z</time>
      </trkpt>
      <trkpt lat="53.15292" lon="5.78404">
        <ele>49.203482</ele>
        <time>2024-07-07T11:56:42.918Z</time>
      </trkpt>
      <trkpt lat="53.15301" lon="5.7841">
        <ele>49.186811</ele>
        <time>2024-07-07T11:56:44.930Z</time>
      </trkpt>
      <trkpt lat="53.15311" lon="5.78416">
        <ele>49.170342</ele>
        <time>2024-07-07T11:56:46.927Z</time>
      </trkpt>
      <trkpt lat="53.1532" lon="5.78422">
        <ele>49.153858</ele>
        <time>2024-07-07T11:56:48.914Z</time>
      </trkpt>
      <trkpt lat="53.1533" lon="5.78428">
        <ele>49.136299</ele>
        <time>2024-07-07T11:56:50.930Z</time>
      </trkpt>
      <trkpt lat="53.1534" lon="5.78433">
        <ele>49.119241</ele>
        <time>2024-07-07T11:56:52.919Z</time>
      </trkpt>
      <trkpt lat="53.1535" lon="5.78439">
        <ele>49.10181</ele>
        <time>2024-07-07T11:56:54.929Z</time>
      </trkpt>
      <trkpt lat="53.1536" lon="5.78445">
        <ele>49.08502</ele>
        <time>2024-07-07T11:56:56.926Z</time>
      </trkpt>
      <trkpt lat="53.1537" lon="5.7845">
        <ele>49.067152</ele>
        <time>2024-07-07T11:56:58.936Z</time>
      </trkpt>
      <trkpt lat="53.1538" lon="5.78454">
        <ele>49.049897</ele>
        <time>2024-07-07T11:57:00.929Z</time>
      </trkpt>
      <trkpt lat="53.15391" lon="5.78459">
        <ele>49.032383</ele>
        <time>2024-07-07T11:57:02.930Z</time>
      </trkpt>
      <trkpt lat="53.15401" lon="5.78464">
        <ele>49.015394</ele>
        <time>2024-07-07T11:57:04.930Z</time>
      </trkpt>
      <trkpt lat="53.1541" lon="5.78468">
        <ele>48.999036</ele>
        <time>2024-07-07T11:57:06.937Z</time>
      </trkpt>
      <trkpt lat="53.1542" lon="5.78473">
        <ele>48.981806</ele>
        <time>2024-07-07T11:57:08.929Z</time>
      </trkpt>
      <trkpt lat="53.15431" lon="5.78477">
        <ele>48.95481</ele>
        <time>2024-07-07T11:57:10.938Z</time>
      </trkpt>
      <trkpt lat="53.15441" lon="5.78481">
        <ele>48.901395</ele>
        <time>2024-07-07T11:57:12.932Z</time>
      </trkpt>
      <trkpt lat="53.15451" lon="5.78485">
        <ele>48.849438</ele>
        <time>2024-07-07T11:57:14.942Z</time>
      </trkpt>
      <trkpt lat="53.15461" lon="5.7849">
        <ele>48.793531</ele>
        <time>2024-07-07T11:57:16.934Z</time>
      </trkpt>
      <trkpt lat="53.15471" lon="5.78495">
        <ele>48.740363</ele>
        <time>2024-07-07T11:57:18.925Z</time>
      </trkpt>
      <trkpt lat="53.15481" lon="5.78498">
        <ele>48.685962</ele>
        <time>2024-07-07T11:57:20.926Z</time>
      </trkpt>
      <trkpt lat="53.15491" lon="5.78502">
        <ele>48.633357</ele>
        <time>2024-07-07T11:57:22.940Z</time>
      </trkpt>
      <trkpt lat="53.15502" lon="5.78507">
        <ele>48.577541</ele>
        <time>2024-07-07T11:57:24.932Z</time>
      </trkpt>
      <trkpt lat="53.15512" lon="5.78511">
        <ele>48.520862</ele>
        <time>2024-07-07T11:57:26.924Z</time>
      </trkpt>
      <trkpt lat="53.15523" lon="5.78515">
        <ele>48.462165</ele>
        <time>2024-07-07T11:57:28.920Z</time>
      </trkpt>
      <trkpt lat="53.15534" lon="5.78519">
        <ele>48.407326</ele>
        <time>2024-07-07T11:57:30.941Z</time>
      </trkpt>
      <trkpt lat="53.15544" lon="5.78523">
        <ele>48.352857</ele>
        <time>2024-07-07T11:57:32.933Z</time>
      </trkpt>
      <trkpt lat="53.15555" lon="5.78526">
        <ele>48.297514</ele>
        <time>2024-07-07T11:57:34.926Z</time>
      </trkpt>
      <trkpt lat="53.15564" lon="5.78531">
        <ele>48.245012</ele>
        <time>2024-07-07T11:57:36.932Z</time>
      </trkpt>
      <trkpt lat="53.15575" lon="5.78535">
        <ele>48.191046</ele>
        <time>2024-07-07T11:57:38.932Z</time>
      </trkpt>
      <trkpt lat="53.15585" lon="5.78539">
        <ele>48.136556</ele>
        <time>2024-07-07T11:57:40.933Z</time>
      </trkpt>
      <trkpt lat="53.15595" lon="5.78543">
        <ele>48.08051</ele>
        <time>2024-07-07T11:57:42.927Z</time>
      </trkpt>
      <trkpt lat="53.15606" lon="5.78547">
        <ele>48.053813</ele>
        <time>2024-07-07T11:57:44.932Z</time>
      </trkpt>
      <trkpt lat="53.15616" lon="5.7855">
        <ele>48.095255</ele>
        <time>2024-07-07T11:57:46.928Z</time>
      </trkpt>
      <trkpt lat="53.15627" lon="5.78554">
        <ele>48.136967</ele>
        <time>2024-07-07T11:57:48.924Z</time>
      </trkpt>
      <trkpt lat="53.15637" lon="5.78558">
        <ele>48.18059</ele>
        <time>2024-07-07T11:57:50.927Z</time>
      </trkpt>
      <trkpt lat="53.15648" lon="5.78562">
        <ele>48.224776</ele>
        <time>2024-07-07T11:57:52.938Z</time>
      </trkpt>
      <trkpt lat="53.15659" lon="5.78566">
        <ele>48.266639</ele>
        <time>2024-07-07T11:57:54.928Z</time>
      </trkpt>
      <trkpt lat="53.15669" lon="5.7857">
        <ele>48.309612</ele>
        <time>2024-07-07T11:57:56.937Z</time>
      </trkpt>
      <trkpt lat="53.1568" lon="5.78573">
        <ele>48.353312</ele>
        <time>2024-07-07T11:57:58.934Z</time>
      </trkpt>
      <trkpt lat="53.1569" lon="5.78577">
        <ele>48.394975</ele>
        <time>2024-07-07T11:58:00.928Z</time>
      </trkpt>
      <trkpt lat="53.15701" lon="5.7858">
        <ele>48.436767</ele>
        <time>2024-07-07T11:58:02.919Z</time>
      </trkpt>
      <trkpt lat="53.15711" lon="5.78582">
        <ele>48.479811</ele>
        <time>2024-07-07T11:58:04.934Z</time>
      </trkpt>
      <trkpt lat="53.15722" lon="5.78584">
        <ele>48.522739</ele>
        <time>2024-07-07T11:58:06.933Z</time>
      </trkpt>
      <trkpt lat="53.15732" lon="5.78586">
        <ele>48.563418</ele>
        <time>2024-07-07T11:58:08.936Z</time>
      </trkpt>
      <trkpt lat="53.15743" lon="5.78588">
        <ele>48.606121</ele>
        <time>2024-07-07T11:58:10.933Z</time>
      </trkpt>
      <trkpt lat="53.15754" lon="5.78591">
        <ele>48.648385</ele>
        <time>2024-07-07T11:58:12.923Z</time>
      </trkpt>
      <trkpt lat="53.15764" lon="5.78593">
        <ele>48.68818</ele>
        <time>2024-07-07T11:58:14.932Z</time>
      </trkpt>
      <trkpt lat="53.15774" lon="5.78595">
        <ele>48.728099</ele>
        <time>2024-07-07T11:58:16.935Z</time>
      </trkpt>
      <trkpt lat="53.15783" lon="5.78596">
        <ele>48.740311</ele>
        <time>2024-07-07T11:58:18.934Z</time>
      </trkpt>
      <trkpt lat="53.15794" lon="5.78598">
        <ele>48.696906</ele>
        <time>2024-07-07T11:58:20.926Z</time>
      </trkpt>
      <trkpt lat="53.15803" lon="5.786">
        <ele>48.656443</ele>
        <time>2024-07-07T11:58:22.928Z</time>
      </trkpt>
      <trkpt lat="53.15813" lon="5.78604">
        <ele>48.616454</ele>
        <time>2024-07-07T11:58:24.906Z</time>
      </trkpt>
      <trkpt lat="53.15821" lon="5.78607">
        <ele>48.578154</ele>
        <time>2024-07-07T11:58:26.916Z</time>
      </trkpt>
      <trkpt lat="53.15833" lon="5.78611">
        <ele>48.52791</ele>
        <time>2024-07-07T11:58:29.935Z</time>
      </trkpt>
      <trkpt lat="53.15845" lon="5.78614">
        <ele>48.476596</ele>
        <time>2024-07-07T11:58:32.936Z</time>
      </trkpt>
      <trkpt lat="53.15858" lon="5.78617">
        <ele>48.424454</ele>
        <time>2024-07-07T11:58:35.943Z</time>
      </trkpt>
      <trkpt lat="53.15872" lon="5.78619">
        <ele>48.365621</ele>
        <time>2024-07-07T11:58:38.931Z</time>
      </trkpt>
      <trkpt lat="53.15884" lon="5.78619">
        <ele>48.314521</ele>
        <time>2024-07-07T11:58:41.922Z</time>
      </trkpt>
      <trkpt lat="53.15896" lon="5.7862">
        <ele>48.265086</ele>
        <time>2024-07-07T11:58:44.936Z</time>
      </trkpt>
      <trkpt lat="53.15904" lon="5.7863">
        <ele>48.221147</ele>
        <time>2024-07-07T11:58:47.926Z</time>
      </trkpt>
      <trkpt lat="53.15906" lon="5.78646">
        <ele>48.179379</ele>
        <time>2024-07-07T11:58:50.932Z</time>
      </trkpt>
      <trkpt lat="53.1591" lon="5.78666">
        <ele>48.127171</ele>
        <time>2024-07-07T11:58:53.932Z</time>
      </trkpt>
      <trkpt lat="53.15915" lon="5.78683">
        <ele>48.080157</ele>
        <time>2024-07-07T11:58:56.935Z</time>
      </trkpt>
      <trkpt lat="53.15924" lon="5.78695">
        <ele>48.029085</ele>
        <time>2024-07-07T11:58:59.928Z</time>
      </trkpt>
      <trkpt lat="53.15935" lon="5.78698">
        <ele>48.030156</ele>
        <time>2024-07-07T11:59:02.920Z</time>
      </trkpt>
      <trkpt lat="53.15948" lon="5.78694">
        <ele>48.119531</ele>
        <time>2024-07-07T11:59:05.926Z</time>
      </trkpt>
      <trkpt lat="53.1596" lon="5.78689">
        <ele>48.201947</ele>
        <time>2024-07-07T11:59:08.937Z</time>
      </trkpt>
      <trkpt lat="53.15973" lon="5.78686">
        <ele>48.29041</ele>
        <time>2024-07-07T11:59:11.936Z</time>
      </trkpt>
      <trkpt lat="53.15986" lon="5.78681">
        <ele>48.380197</ele>
        <time>2024-07-07T11:59:14.930Z</time>
      </trkpt>
      <trkpt lat="53.15999" lon="5.7868">
        <ele>48.471027</ele>
        <time>2024-07-07T11:59:17.929Z</time>
      </trkpt>
      <trkpt lat="53.16009" lon="5.78681">
        <ele>48.537405</ele>
        <time>2024-07-07T11:59:19.934Z</time>
      </trkpt>
      <trkpt lat="53.16019" lon="5.78682">
        <ele>48.601811</ele>
        <time>2024-07-07T11:59:21.935Z</time>
      </trkpt>
      <trkpt lat="53.16028" lon="5.78683">
        <ele>48.667568</ele>
        <time>2024-07-07T11:59:23.937Z</time>
      </trkpt>
      <trkpt lat="53.16038" lon="5.78684">
        <ele>48.733585</ele>
        <time>2024-07-07T11:59:25.949Z</time>
      </trkpt>
      <trkpt lat="53.16048" lon="5.78684">
        <ele>48.797889</ele>
        <time>2024-07-07T11:59:27.939Z</time>
      </trkpt>
      <trkpt lat="53.16057" lon="5.78684">
        <ele>48.862196</ele>
        <time>2024-07-07T11:59:29.938Z</time>
      </trkpt>
      <trkpt lat="53.16067" lon="5.78683">
        <ele>48.926194</ele>
        <time>2024-07-07T11:59:31.935Z</time>
      </trkpt>
      <trkpt lat="53.16076" lon="5.78682">
        <ele>48.987951</ele>
        <time>2024-07-07T11:59:33.936Z</time>
      </trkpt>
      <trkpt lat="53.16085" lon="5.78679">
        <ele>49.050249</ele>
        <time>2024-07-07T11:59:35.955Z</time>
      </trkpt>
      <trkpt lat="53.16094" lon="5.78676">
        <ele>49.112958</ele>
        <time>2024-07-07T11:59:37.933Z</time>
      </trkpt>
      <trkpt lat="53.16106" lon="5.78671">
        <ele>49.198845</ele>
        <time>2024-07-07T11:59:40.929Z</time>
      </trkpt>
      <trkpt lat="53.16118" lon="5.78666">
        <ele>49.094115</ele>
        <time>2024-07-07T11:59:43.948Z</time>
      </trkpt>
      <trkpt lat="53.16128" lon="5.7866">
        <ele>48.933197</ele>
        <time>2024-07-07T11:59:46.928Z</time>
      </trkpt>
      <trkpt lat="53.16139" lon="5.78656">
        <ele>48.787838</ele>
        <time>2024-07-07T11:59:50.939Z</time>
      </trkpt>
      <trkpt lat="53.16155" lon="5.78649">
        <ele>48.557511</ele>
        <time>2024-07-07T12:03:29.921Z</time>
      </trkpt>
      <trkpt lat="53.16164" lon="5.78644">
        <ele>48.415051</ele>
        <time>2024-07-07T12:03:34.916Z</time>
      </trkpt>
      <trkpt lat="53.16175" lon="5.78641">
        <ele>48.268153</ele>
        <time>2024-07-07T12:03:38.914Z</time>
      </trkpt>
      <trkpt lat="53.16186" lon="5.78636">
        <ele>48.109387</ele>
        <time>2024-07-07T12:03:42.944Z</time>
      </trkpt>
      <trkpt lat="53.16195" lon="5.7863">
        <ele>47.97602</ele>
        <time>2024-07-07T12:03:45.914Z</time>
      </trkpt>
      <trkpt lat="53.16204" lon="5.78625">
        <ele>47.837814</ele>
        <time>2024-07-07T12:03:48.902Z</time>
      </trkpt>
      <trkpt lat="53.16215" lon="5.7862">
        <ele>47.681649</ele>
        <time>2024-07-07T12:03:51.938Z</time>
      </trkpt>
      <trkpt lat="53.16226" lon="5.78613">
        <ele>47.513608</ele>
        <time>2024-07-07T12:03:54.923Z</time>
      </trkpt>
      <trkpt lat="53.16238" lon="5.78608">
        <ele>47.345209</ele>
        <time>2024-07-07T12:03:57.925Z</time>
      </trkpt>
      <trkpt lat="53.1625" lon="5.78601">
        <ele>47.173481</ele>
        <time>2024-07-07T12:04:00.910Z</time>
      </trkpt>
      <trkpt lat="53.16261" lon="5.78594">
        <ele>47.000168</ele>
        <time>2024-07-07T12:04:03.925Z</time>
      </trkpt>
      <trkpt lat="53.16274" lon="5.78589">
        <ele>46.819931</ele>
        <time>2024-07-07T12:04:06.918Z</time>
      </trkpt>
      <trkpt lat="53.16287" lon="5.78583">
        <ele>46.682426</ele>
        <time>2024-07-07T12:04:09.920Z</time>
      </trkpt>
      <trkpt lat="53.16298" lon="5.78577">
        <ele>46.615582</ele>
        <time>2024-07-07T12:04:12.943Z</time>
      </trkpt>
      <trkpt lat="53.16311" lon="5.78571">
        <ele>46.54245</ele>
        <time>2024-07-07T12:04:15.947Z</time>
      </trkpt>
      <trkpt lat="53.1632" lon="5.78565">
        <ele>46.489813</ele>
        <time>2024-07-07T12:04:17.950Z</time>
      </trkpt>
      <trkpt lat="53.16331" lon="5.78561">
        <ele>46.432464</ele>
        <time>2024-07-07T12:04:19.933Z</time>
      </trkpt>
      <trkpt lat="53.16342" lon="5.78556">
        <ele>46.368866</ele>
        <time>2024-07-07T12:04:21.934Z</time>
      </trkpt>
      <trkpt lat="53.16353" lon="5.78551">
        <ele>46.305993</ele>
        <time>2024-07-07T12:04:23.932Z</time>
      </trkpt>
      <trkpt lat="53.16365" lon="5.78545">
        <ele>46.23687</ele>
        <time>2024-07-07T12:04:25.931Z</time>
      </trkpt>
      <trkpt lat="53.16377" lon="5.7854">
        <ele>46.172117</ele>
        <time>2024-07-07T12:04:27.930Z</time>
      </trkpt>
      <trkpt lat="53.16388" lon="5.78545">
        <ele>46.110108</ele>
        <time>2024-07-07T12:04:29.919Z</time>
      </trkpt>
      <trkpt lat="53.16397" lon="5.78559">
        <ele>46.042102</ele>
        <time>2024-07-07T12:04:31.920Z</time>
      </trkpt>
      <trkpt lat="53.16403" lon="5.78578">
        <ele>45.972006</ele>
        <time>2024-07-07T12:04:33.936Z</time>
      </trkpt>
      <trkpt lat="53.16408" lon="5.78596">
        <ele>45.905904</ele>
        <time>2024-07-07T12:04:35.924Z</time>
      </trkpt>
      <trkpt lat="53.16414" lon="5.78614">
        <ele>45.840884</ele>
        <time>2024-07-07T12:04:37.903Z</time>
      </trkpt>
      <trkpt lat="53.16421" lon="5.78628">
        <ele>45.779779</ele>
        <time>2024-07-07T12:04:39.920Z</time>
      </trkpt>
      <trkpt lat="53.1643" lon="5.78634">
        <ele>45.741968</ele>
        <time>2024-07-07T12:04:41.912Z</time>
      </trkpt>
      <trkpt lat="53.16441" lon="5.78633">
        <ele>45.833993</ele>
        <time>2024-07-07T12:04:43.919Z</time>
      </trkpt>
      <trkpt lat="53.1645" lon="5.78628">
        <ele>45.924677</ele>
        <time>2024-07-07T12:04:45.918Z</time>
      </trkpt>
      <trkpt lat="53.16461" lon="5.78617">
        <ele>46.042448</ele>
        <time>2024-07-07T12:04:48.917Z</time>
      </trkpt>
      <trkpt lat="53.16472" lon="5.78606">
        <ele>46.157554</ele>
        <time>2024-07-07T12:04:51.944Z</time>
      </trkpt>
      <trkpt lat="53.16482" lon="5.78595">
        <ele>46.265699</ele>
        <time>2024-07-07T12:04:54.902Z</time>
      </trkpt>
      <trkpt lat="53.16491" lon="5.78585">
        <ele>46.366428</ele>
        <time>2024-07-07T12:04:57.943Z</time>
      </trkpt>
      <trkpt lat="53.16502" lon="5.78578">
        <ele>46.475452</ele>
        <time>2024-07-07T12:05:00.920Z</time>
      </trkpt>
      <trkpt lat="53.16514" lon="5.78577">
        <ele>46.581088</ele>
        <time>2024-07-07T12:05:03.921Z</time>
      </trkpt>
      <trkpt lat="53.16525" lon="5.78576">
        <ele>46.68424</ele>
        <time>2024-07-07T12:05:06.928Z</time>
      </trkpt>
      <trkpt lat="53.16537" lon="5.78575">
        <ele>46.78991</ele>
        <time>2024-07-07T12:05:09.924Z</time>
      </trkpt>
      <trkpt lat="53.16548" lon="5.78574">
        <ele>46.889233</ele>
        <time>2024-07-07T12:05:12.944Z</time>
      </trkpt>
      <trkpt lat="53.16559" lon="5.78572">
        <ele>46.990813</ele>
        <time>2024-07-07T12:05:15.946Z</time>
      </trkpt>
      <trkpt lat="53.1657" lon="5.7857">
        <ele>47.096189</ele>
        <time>2024-07-07T12:05:18.910Z</time>
      </trkpt>
      <trkpt lat="53.16582" lon="5.78569">
        <ele>47.204718</ele>
        <time>2024-07-07T12:05:21.929Z</time>
      </trkpt>
      <trkpt lat="53.16594" lon="5.78572">
        <ele>47.311752</ele>
        <time>2024-07-07T12:05:24.903Z</time>
      </trkpt>
      <trkpt lat="53.16605" lon="5.78572">
        <ele>47.40723</ele>
        <time>2024-07-07T12:05:27.937Z</time>
      </trkpt>
      <trkpt lat="53.16618" lon="5.78571">
        <ele>47.509799</ele>
        <time>2024-07-07T12:05:30.935Z</time>
      </trkpt>
      <trkpt lat="53.16631" lon="5.78569">
        <ele>47.610961</ele>
        <time>2024-07-07T12:05:33.942Z</time>
      </trkpt>
      <trkpt lat="53.16643" lon="5.78566">
        <ele>47.708304</ele>
        <time>2024-07-07T12:05:36.932Z</time>
      </trkpt>
      <trkpt lat="53.16655" lon="5.78562">
        <ele>47.806224</ele>
        <time>2024-07-07T12:05:39.934Z</time>
      </trkpt>
      <trkpt lat="53.16668" lon="5.78559">
        <ele>47.908861</ele>
        <time>2024-07-07T12:05:42.923Z</time>
      </trkpt>
      <trkpt lat="53.1668" lon="5.78556">
        <ele>48.012631</ele>
        <time>2024-07-07T12:05:45.921Z</time>
      </trkpt>
      <trkpt lat="53.16693" lon="5.78553">
        <ele>48.114047</ele>
        <time>2024-07-07T12:05:48.935Z</time>
      </trkpt>
      <trkpt lat="53.16706" lon="5.78551">
        <ele>48.213823</ele>
        <time>2024-07-07T12:05:51.930Z</time>
      </trkpt>
      <trkpt lat="53.16719" lon="5.78549">
        <ele>48.320567</ele>
        <time>2024-07-07T12:05:54.954Z</time>
      </trkpt>
      <trkpt lat="53.16732" lon="5.78549">
        <ele>48.42387</ele>
        <time>2024-07-07T12:05:57.945Z</time>
      </trkpt>
      <trkpt lat="53.16744" lon="5.7855">
        <ele>48.521004</ele>
        <time>2024-07-07T12:06:00.925Z</time>
      </trkpt>
      <trkpt lat="53.16756" lon="5.7855">
        <ele>48.614762</ele>
        <time>2024-07-07T12:06:03.927Z</time>
      </trkpt>
      <trkpt lat="53.16768" lon="5.78548">
        <ele>48.714339</ele>
        <time>2024-07-07T12:06:06.928Z</time>
      </trkpt>
      <trkpt lat="53.16782" lon="5.78548">
        <ele>48.80515</ele>
        <time>2024-07-07T12:06:09.928Z</time>
      </trkpt>
      <trkpt lat="53.16794" lon="5.78551">
        <ele>48.835422</ele>
        <time>2024-07-07T12:06:12.925Z</time>
      </trkpt>
      <trkpt lat="53.16806" lon="5.78553">
        <ele>48.866366</ele>
        <time>2024-07-07T12:06:15.939Z</time>
      </trkpt>
      <trkpt lat="53.16818" lon="5.78557">
        <ele>48.898613</ele>
        <time>2024-07-07T12:06:18.933Z</time>
      </trkpt>
      <trkpt lat="53.1683" lon="5.78563">
        <ele>48.929305</ele>
        <time>2024-07-07T12:06:21.930Z</time>
      </trkpt>
      <trkpt lat="53.16843" lon="5.78566">
        <ele>48.962079</ele>
        <time>2024-07-07T12:06:24.929Z</time>
      </trkpt>
      <trkpt lat="53.16855" lon="5.7857">
        <ele>48.994176</ele>
        <time>2024-07-07T12:06:27.940Z</time>
      </trkpt>
      <trkpt lat="53.16864" lon="5.78574">
        <ele>49.01704</ele>
        <time>2024-07-07T12:06:29.937Z</time>
      </trkpt>
      <trkpt lat="53.16876" lon="5.78578">
        <ele>49.049495</ele>
        <time>2024-07-07T12:06:32.930Z</time>
      </trkpt>
      <trkpt lat="53.16889" lon="5.78582">
        <ele>49.081422</ele>
        <time>2024-07-07T12:06:35.926Z</time>
      </trkpt>
      <trkpt lat="53.16901" lon="5.78586">
        <ele>49.11309</ele>
        <time>2024-07-07T12:06:38.931Z</time>
      </trkpt>
      <trkpt lat="53.16913" lon="5.78591">
        <ele>49.144635</ele>
        <time>2024-07-07T12:06:41.936Z</time>
      </trkpt>
      <trkpt lat="53.16925" lon="5.78595">
        <ele>49.175252</ele>
        <time>2024-07-07T12:06:44.919Z</time>
      </trkpt>
      <trkpt lat="53.16936" lon="5.78599">
        <ele>49.205444</ele>
        <time>2024-07-07T12:06:47.936Z</time>
      </trkpt>
      <trkpt lat="53.16946" lon="5.78602">
        <ele>49.231067</ele>
        <time>2024-07-07T12:06:50.928Z</time>
      </trkpt>
      <trkpt lat="53.16956" lon="5.78606">
        <ele>49.255832</ele>
        <time>2024-07-07T12:06:53.915Z</time>
      </trkpt>
      <trkpt lat="53.16968" lon="5.78612">
        <ele>49.274393</ele>
        <time>2024-07-07T12:06:56.932Z</time>
      </trkpt>
      <trkpt lat="53.16977" lon="5.78616">
        <ele>49.28856</ele>
        <time>2024-07-07T12:06:58.923Z</time>
      </trkpt>
      <trkpt lat="53.16986" lon="5.78619">
        <ele>49.302081</ele>
        <time>2024-07-07T12:07:00.934Z</time>
      </trkpt>
      <trkpt lat="53.16995" lon="5.78624">
        <ele>49.315857</ele>
        <time>2024-07-07T12:07:02.931Z</time>
      </trkpt>
      <trkpt lat="53.17004" lon="5.78631">
        <ele>49.330458</ele>
        <time>2024-07-07T12:07:04.942Z</time>
      </trkpt>
      <trkpt lat="53.17012" lon="5.78638">
        <ele>49.34496</ele>
        <time>2024-07-07T12:07:06.924Z</time>
      </trkpt>
      <trkpt lat="53.1702" lon="5.78646">
        <ele>49.358896</ele>
        <time>2024-07-07T12:07:08.931Z</time>
      </trkpt>
      <trkpt lat="53.17028" lon="5.78655">
        <ele>49.372974</ele>
        <time>2024-07-07T12:07:10.924Z</time>
      </trkpt>
      <trkpt lat="53.17035" lon="5.78665">
        <ele>49.386803</ele>
        <time>2024-07-07T12:07:12.923Z</time>
      </trkpt>
      <trkpt lat="53.17041" lon="5.78676">
        <ele>49.400523</ele>
        <time>2024-07-07T12:07:14.933Z</time>
      </trkpt>
      <trkpt lat="53.17048" lon="5.78686">
        <ele>49.414304</ele>
        <time>2024-07-07T12:07:16.925Z</time>
      </trkpt>
      <trkpt lat="53.17056" lon="5.78702">
        <ele>49.433251</ele>
        <time>2024-07-07T12:07:19.932Z</time>
      </trkpt>
      <trkpt lat="53.17065" lon="5.78718">
        <ele>49.452471</ele>
        <time>2024-07-07T12:07:22.920Z</time>
      </trkpt>
      <trkpt lat="53.17074" lon="5.78734">
        <ele>49.471967</ele>
        <time>2024-07-07T12:07:25.930Z</time>
      </trkpt>
      <trkpt lat="53.17083" lon="5.78749">
        <ele>49.491505</ele>
        <time>2024-07-07T12:07:28.915Z</time>
      </trkpt>
      <trkpt lat="53.17089" lon="5.7876">
        <ele>49.505089</ele>
        <time>2024-07-07T12:07:30.931Z</time>
      </trkpt>
      <trkpt lat="53.17097" lon="5.78775">
        <ele>49.523334</ele>
        <time>2024-07-07T12:07:33.906Z</time>
      </trkpt>
      <trkpt lat="53.17106" lon="5.7879">
        <ele>49.454946</ele>
        <time>2024-07-07T12:07:36.932Z</time>
      </trkpt>
      <trkpt lat="53.17114" lon="5.78805">
        <ele>49.385609</ele>
        <time>2024-07-07T12:07:39.929Z</time>
      </trkpt>
      <trkpt lat="53.17123" lon="5.78819">
        <ele>49.31618</ele>
        <time>2024-07-07T12:07:42.938Z</time>
      </trkpt>
      <trkpt lat="53.17131" lon="5.78833">
        <ele>49.247463</ele>
        <time>2024-07-07T12:07:45.933Z</time>
      </trkpt>
      <trkpt lat="53.17139" lon="5.78849">
        <ele>49.175002</ele>
        <time>2024-07-07T12:07:48.919Z</time>
      </trkpt>
      <trkpt lat="53.17148" lon="5.78863">
        <ele>49.104338</ele>
        <time>2024-07-07T12:07:51.932Z</time>
      </trkpt>
      <trkpt lat="53.17156" lon="5.78877">
        <ele>49.036865</ele>
        <time>2024-07-07T12:07:54.925Z</time>
      </trkpt>
      <trkpt lat="53.17164" lon="5.78892">
        <ele>48.967523</ele>
        <time>2024-07-07T12:07:57.938Z</time>
      </trkpt>
      <trkpt lat="53.17173" lon="5.78907">
        <ele>48.896619</ele>
        <time>2024-07-07T12:08:00.926Z</time>
      </trkpt>
      <trkpt lat="53.17181" lon="5.78922">
        <ele>48.823553</ele>
        <time>2024-07-07T12:08:03.911Z</time>
      </trkpt>
      <trkpt lat="53.1719" lon="5.78937">
        <ele>48.752535</ele>
        <time>2024-07-07T12:08:06.948Z</time>
      </trkpt>
      <trkpt lat="53.17199" lon="5.78953">
        <ele>48.677558</ele>
        <time>2024-07-07T12:08:09.932Z</time>
      </trkpt>
      <trkpt lat="53.17207" lon="5.78968">
        <ele>48.603721</ele>
        <time>2024-07-07T12:08:12.935Z</time>
      </trkpt>
      <trkpt lat="53.17217" lon="5.78983">
        <ele>48.531381</ele>
        <time>2024-07-07T12:08:15.931Z</time>
      </trkpt>
      <trkpt lat="53.17225" lon="5.78998">
        <ele>48.479104</ele>
        <time>2024-07-07T12:08:18.924Z</time>
      </trkpt>
      <trkpt lat="53.17233" lon="5.79013">
        <ele>48.459734</ele>
        <time>2024-07-07T12:08:21.925Z</time>
      </trkpt>
      <trkpt lat="53.17242" lon="5.79028">
        <ele>48.440422</ele>
        <time>2024-07-07T12:08:24.944Z</time>
      </trkpt>
      <trkpt lat="53.1725" lon="5.79044">
        <ele>48.420283</ele>
        <time>2024-07-07T12:08:27.935Z</time>
      </trkpt>
      <trkpt lat="53.17259" lon="5.79059">
        <ele>48.401157</ele>
        <time>2024-07-07T12:08:30.945Z</time>
      </trkpt>
      <trkpt lat="53.17267" lon="5.79073">
        <ele>48.382548</ele>
        <time>2024-07-07T12:08:33.933Z</time>
      </trkpt>
      <trkpt lat="53.17277" lon="5.79085">
        <ele>48.363176</ele>
        <time>2024-07-07T12:08:36.921Z</time>
      </trkpt>
      <trkpt lat="53.17289" lon="5.79094">
        <ele>48.343312</ele>
        <time>2024-07-07T12:08:39.929Z</time>
      </trkpt>
      <trkpt lat="53.17299" lon="5.79104">
        <ele>48.324003</ele>
        <time>2024-07-07T12:08:42.927Z</time>
      </trkpt>
      <trkpt lat="53.17311" lon="5.79114">
        <ele>48.304182</ele>
        <time>2024-07-07T12:08:45.942Z</time>
      </trkpt>
      <trkpt lat="53.17322" lon="5.79124">
        <ele>48.284145</ele>
        <time>2024-07-07T12:08:48.912Z</time>
      </trkpt>
      <trkpt lat="53.17333" lon="5.79134">
        <ele>48.264195</ele>
        <time>2024-07-07T12:08:51.938Z</time>
      </trkpt>
      <trkpt lat="53.17341" lon="5.7914">
        <ele>48.249912</ele>
        <time>2024-07-07T12:08:53.929Z</time>
      </trkpt>
      <trkpt lat="53.17353" lon="5.7915">
        <ele>48.228988</ele>
        <time>2024-07-07T12:08:56.939Z</time>
      </trkpt>
      <trkpt lat="53.17365" lon="5.7916">
        <ele>48.209293</ele>
        <time>2024-07-07T12:08:59.921Z</time>
      </trkpt>
      <trkpt lat="53.17372" lon="5.79176">
        <ele>48.189029</ele>
        <time>2024-07-07T12:09:02.914Z</time>
      </trkpt>
      <trkpt lat="53.17372" lon="5.79197">
        <ele>48.167733</ele>
        <time>2024-07-07T12:09:05.944Z</time>
      </trkpt>
      <trkpt lat="53.1737" lon="5.79217">
        <ele>48.146703</ele>
        <time>2024-07-07T12:09:08.922Z</time>
      </trkpt>
      <trkpt lat="53.17374" lon="5.79236">
        <ele>48.126215</ele>
        <time>2024-07-07T12:09:11.929Z</time>
      </trkpt>
      <trkpt lat="53.17383" lon="5.79251">
        <ele>48.104029</ele>
        <time>2024-07-07T12:09:14.921Z</time>
      </trkpt>
      <trkpt lat="53.17394" lon="5.79262">
        <ele>48.082173</ele>
        <time>2024-07-07T12:09:17.920Z</time>
      </trkpt>
      <trkpt lat="53.17405" lon="5.79275">
        <ele>48.059468</ele>
        <time>2024-07-07T12:09:20.938Z</time>
      </trkpt>
      <trkpt lat="53.17412" lon="5.79284">
        <ele>48.044135</ele>
        <time>2024-07-07T12:09:22.928Z</time>
      </trkpt>
      <trkpt lat="53.1742" lon="5.79293">
        <ele>48.028532</ele>
        <time>2024-07-07T12:09:24.902Z</time>
      </trkpt>
      <trkpt lat="53.17428" lon="5.79301">
        <ele>48.01274</ele>
        <time>2024-07-07T12:09:26.912Z</time>
      </trkpt>
      <trkpt lat="53.17435" lon="5.7931">
        <ele>47.997</ele>
        <time>2024-07-07T12:09:28.919Z</time>
      </trkpt>
      <trkpt lat="53.17444" lon="5.79318">
        <ele>47.980435</ele>
        <time>2024-07-07T12:09:30.940Z</time>
      </trkpt>
      <trkpt lat="53.17452" lon="5.79325">
        <ele>47.965196</ele>
        <time>2024-07-07T12:09:32.945Z</time>
      </trkpt>
      <trkpt lat="53.1746" lon="5.7933">
        <ele>47.949722</ele>
        <time>2024-07-07T12:09:34.925Z</time>
      </trkpt>
      <trkpt lat="53.17471" lon="5.79341">
        <ele>47.928013</ele>
        <time>2024-07-07T12:09:37.949Z</time>
      </trkpt>
      <trkpt lat="53.17482" lon="5.79352">
        <ele>47.907454</ele>
        <time>2024-07-07T12:09:40.929Z</time>
      </trkpt>
      <trkpt lat="53.17492" lon="5.79361">
        <ele>47.869218</ele>
        <time>2024-07-07T12:09:43.923Z</time>
      </trkpt>
      <trkpt lat="53.17502" lon="5.79369">
        <ele>47.821638</ele>
        <time>2024-07-07T12:09:46.926Z</time>
      </trkpt>
      <trkpt lat="53.17513" lon="5.79378">
        <ele>47.771657</ele>
        <time>2024-07-07T12:09:49.944Z</time>
      </trkpt>
      <trkpt lat="53.17523" lon="5.79387">
        <ele>47.722451</ele>
        <time>2024-07-07T12:09:52.926Z</time>
      </trkpt>
      <trkpt lat="53.17534" lon="5.79394">
        <ele>47.675891</ele>
        <time>2024-07-07T12:09:55.919Z</time>
      </trkpt>
      <trkpt lat="53.17543" lon="5.79401">
        <ele>47.631183</ele>
        <time>2024-07-07T12:09:58.914Z</time>
      </trkpt>
      <trkpt lat="53.17553" lon="5.79408">
        <ele>47.586287</ele>
        <time>2024-07-07T12:10:01.942Z</time>
      </trkpt>
      <trkpt lat="53.17562" lon="5.79418">
        <ele>47.540335</ele>
        <time>2024-07-07T12:10:04.930Z</time>
      </trkpt>
      <trkpt lat="53.17574" lon="5.79425">
        <ele>47.48923</ele>
        <time>2024-07-07T12:10:07.913Z</time>
      </trkpt>
      <trkpt lat="53.17585" lon="5.79433">
        <ele>47.439003</ele>
        <time>2024-07-07T12:10:10.924Z</time>
      </trkpt>
      <trkpt lat="53.17596" lon="5.79439">
        <ele>47.388211</ele>
        <time>2024-07-07T12:10:13.944Z</time>
      </trkpt>
      <trkpt lat="53.17605" lon="5.79445">
        <ele>47.347934</ele>
        <time>2024-07-07T12:10:16.924Z</time>
      </trkpt>
      <trkpt lat="53.17606" lon="5.79445">
        <ele>47.344424</ele>
        <time>2024-07-07T12:10:21.102Z</time>
      </trkpt>
      <trkpt lat="53.17615" lon="5.79449">
        <ele>47.304127</ele>
        <time>2024-07-07T12:11:39.921Z</time>
      </trkpt>
      <trkpt lat="53.17627" lon="5.79455">
        <ele>47.25345</ele>
        <time>2024-07-07T12:11:43.918Z</time>
      </trkpt>
      <trkpt lat="53.17636" lon="5.7946">
        <ele>47.211728</ele>
        <time>2024-07-07T12:11:46.929Z</time>
      </trkpt>
      <trkpt lat="53.17646" lon="5.79467">
        <ele>47.169252</ele>
        <time>2024-07-07T12:11:49.930Z</time>
      </trkpt>
      <trkpt lat="53.17657" lon="5.79471">
        <ele>47.175577</ele>
        <time>2024-07-07T12:11:52.945Z</time>
      </trkpt>
      <trkpt lat="53.17669" lon="5.79474">
        <ele>47.247489</ele>
        <time>2024-07-07T12:11:55.944Z</time>
      </trkpt>
      <trkpt lat="53.17681" lon="5.79478">
        <ele>47.325104</ele>
        <time>2024-07-07T12:11:58.932Z</time>
      </trkpt>
      <trkpt lat="53.17694" lon="5.79483">
        <ele>47.401217</ele>
        <time>2024-07-07T12:12:01.932Z</time>
      </trkpt>
      <trkpt lat="53.17706" lon="5.79487">
        <ele>47.479293</ele>
        <time>2024-07-07T12:12:04.935Z</time>
      </trkpt>
      <trkpt lat="53.17719" lon="5.79488">
        <ele>47.558029</ele>
        <time>2024-07-07T12:12:07.947Z</time>
      </trkpt>
      <trkpt lat="53.17729" lon="5.79486">
        <ele>47.6137</ele>
        <time>2024-07-07T12:12:09.927Z</time>
      </trkpt>
      <trkpt lat="53.17738" lon="5.79485">
        <ele>47.671442</ele>
        <time>2024-07-07T12:12:11.937Z</time>
      </trkpt>
      <trkpt lat="53.17748" lon="5.79486">
        <ele>47.732904</ele>
        <time>2024-07-07T12:12:13.928Z</time>
      </trkpt>
      <trkpt lat="53.17758" lon="5.79488">
        <ele>47.790918</ele>
        <time>2024-07-07T12:12:15.942Z</time>
      </trkpt>
      <trkpt lat="53.17768" lon="5.79492">
        <ele>47.84978</ele>
        <time>2024-07-07T12:12:17.937Z</time>
      </trkpt>
      <trkpt lat="53.17777" lon="5.79499">
        <ele>47.909658</ele>
        <time>2024-07-07T12:12:19.931Z</time>
      </trkpt>
      <trkpt lat="53.17785" lon="5.79509">
        <ele>47.971005</ele>
        <time>2024-07-07T12:12:21.920Z</time>
      </trkpt>
      <trkpt lat="53.17794" lon="5.79517">
        <ele>48.032609</ele>
        <time>2024-07-07T12:12:23.940Z</time>
      </trkpt>
      <trkpt lat="53.17803" lon="5.79523">
        <ele>48.089159</ele>
        <time>2024-07-07T12:12:25.944Z</time>
      </trkpt>
      <trkpt lat="53.17813" lon="5.79529">
        <ele>48.151821</ele>
        <time>2024-07-07T12:12:27.926Z</time>
      </trkpt>
      <trkpt lat="53.17822" lon="5.79532">
        <ele>48.210832</ele>
        <time>2024-07-07T12:12:29.933Z</time>
      </trkpt>
      <trkpt lat="53.17832" lon="5.79535">
        <ele>48.227728</ele>
        <time>2024-07-07T12:12:31.936Z</time>
      </trkpt>
      <trkpt lat="53.17841" lon="5.79538">
        <ele>48.23288</ele>
        <time>2024-07-07T12:12:33.927Z</time>
      </trkpt>
      <trkpt lat="53.17851" lon="5.79541">
        <ele>48.238339</ele>
        <time>2024-07-07T12:12:35.937Z</time>
      </trkpt>
      <trkpt lat="53.17861" lon="5.79544">
        <ele>48.243771</ele>
        <time>2024-07-07T12:12:37.938Z</time>
      </trkpt>
      <trkpt lat="53.1787" lon="5.79546">
        <ele>48.248762</ele>
        <time>2024-07-07T12:12:39.928Z</time>
      </trkpt>
      <trkpt lat="53.17882" lon="5.79551">
        <ele>48.255709</ele>
        <time>2024-07-07T12:12:42.928Z</time>
      </trkpt>
      <trkpt lat="53.17894" lon="5.79556">
        <ele>48.262554</ele>
        <time>2024-07-07T12:12:45.930Z</time>
      </trkpt>
      <trkpt lat="53.17906" lon="5.7956">
        <ele>48.268963</ele>
        <time>2024-07-07T12:12:48.928Z</time>
      </trkpt>
      <trkpt lat="53.17917" lon="5.7956">
        <ele>48.274906</ele>
        <time>2024-07-07T12:12:51.924Z</time>
      </trkpt>
      <trkpt lat="53.17925" lon="5.79549">
        <ele>48.280852</ele>
        <time>2024-07-07T12:12:54.930Z</time>
      </trkpt>
      <trkpt lat="53.17928" lon="5.79531">
        <ele>48.286814</ele>
        <time>2024-07-07T12:12:57.925Z</time>
      </trkpt>
      <trkpt lat="53.1793" lon="5.79513">
        <ele>48.292994</ele>
        <time>2024-07-07T12:13:00.930Z</time>
      </trkpt>
      <trkpt lat="53.17932" lon="5.79495">
        <ele>48.299031</ele>
        <time>2024-07-07T12:13:03.911Z</time>
      </trkpt>
      <trkpt lat="53.17934" lon="5.79475">
        <ele>48.305408</ele>
        <time>2024-07-07T12:13:06.931Z</time>
      </trkpt>
      <trkpt lat="53.17937" lon="5.79457">
        <ele>48.311572</ele>
        <time>2024-07-07T12:13:09.934Z</time>
      </trkpt>
      <trkpt lat="53.17939" lon="5.79439">
        <ele>48.317453</ele>
        <time>2024-07-07T12:13:12.930Z</time>
      </trkpt>
      <trkpt lat="53.1794" lon="5.79423">
        <ele>48.310141</ele>
        <time>2024-07-07T12:13:15.934Z</time>
      </trkpt>
      <trkpt lat="53.17942" lon="5.79407">
        <ele>48.248294</ele>
        <time>2024-07-07T12:13:20.920Z</time>
      </trkpt>
      <trkpt lat="53.17946" lon="5.79392">
        <ele>48.187357</ele>
        <time>2024-07-07T12:13:24.929Z</time>
      </trkpt>
      <trkpt lat="53.17955" lon="5.79384">
        <ele>48.123347</ele>
        <time>2024-07-07T12:13:28.923Z</time>
      </trkpt>
      <trkpt lat="53.17966" lon="5.79387">
        <ele>48.051814</ele>
        <time>2024-07-07T12:13:31.920Z</time>
      </trkpt>
      <trkpt lat="53.17979" lon="5.79391">
        <ele>47.972793</ele>
        <time>2024-07-07T12:13:34.944Z</time>
      </trkpt>
      <trkpt lat="53.17988" lon="5.79395">
        <ele>47.911907</ele>
        <time>2024-07-07T12:13:36.924Z</time>
      </trkpt>
      <trkpt lat="53.17998" lon="5.79399">
        <ele>47.846355</ele>
        <time>2024-07-07T12:13:38.941Z</time>
      </trkpt>
      <trkpt lat="53.18009" lon="5.79402">
        <ele>47.776904</ele>
        <time>2024-07-07T12:13:40.942Z</time>
      </trkpt>
      <trkpt lat="53.18021" lon="5.79405">
        <ele>47.700193</ele>
        <time>2024-07-07T12:13:42.931Z</time>
      </trkpt>
      <trkpt lat="53.18034" lon="5.7941">
        <ele>47.617958</ele>
        <time>2024-07-07T12:13:44.927Z</time>
      </trkpt>
      <trkpt lat="53.18048" lon="5.79414">
        <ele>47.529681</ele>
        <time>2024-07-07T12:13:46.919Z</time>
      </trkpt>
      <trkpt lat="53.18061" lon="5.79419">
        <ele>47.443158</ele>
        <time>2024-07-07T12:13:48.930Z</time>
      </trkpt>
      <trkpt lat="53.18074" lon="5.79424">
        <ele>47.361609</ele>
        <time>2024-07-07T12:13:50.915Z</time>
      </trkpt>
      <trkpt lat="53.18086" lon="5.79426">
        <ele>47.286777</ele>
        <time>2024-07-07T12:13:52.933Z</time>
      </trkpt>
      <trkpt lat="53.18097" lon="5.79429">
        <ele>47.218211</ele>
        <time>2024-07-07T12:13:54.921Z</time>
      </trkpt>
      <trkpt lat="53.18107" lon="5.79432">
        <ele>47.270506</ele>
        <time>2024-07-07T12:13:56.944Z</time>
      </trkpt>
      <trkpt lat="53.18116" lon="5.79435">
        <ele>47.373094</ele>
        <time>2024-07-07T12:13:58.942Z</time>
      </trkpt>
      <trkpt lat="53.18125" lon="5.79438">
        <ele>47.472854</ele>
        <time>2024-07-07T12:14:00.928Z</time>
      </trkpt>
      <trkpt lat="53.18138" lon="5.79443">
        <ele>47.610759</ele>
        <time>2024-07-07T12:14:03.942Z</time>
      </trkpt>
      <trkpt lat="53.18145" lon="5.79456">
        <ele>47.726474</ele>
        <time>2024-07-07T12:14:06.920Z</time>
      </trkpt>
      <trkpt lat="53.18145" lon="5.79476">
        <ele>47.86142</ele>
        <time>2024-07-07T12:14:09.923Z</time>
      </trkpt>
      <trkpt lat="53.18146" lon="5.79498">
        <ele>48.001248</ele>
        <time>2024-07-07T12:14:12.922Z</time>
      </trkpt>
      <trkpt lat="53.18143" lon="5.79519">
        <ele>48.140322</ele>
        <time>2024-07-07T12:14:15.927Z</time>
      </trkpt>
      <trkpt lat="53.1814" lon="5.79539">
        <ele>48.273937</ele>
        <time>2024-07-07T12:14:18.922Z</time>
      </trkpt>
      <trkpt lat="53.18137" lon="5.79557">
        <ele>48.396443</ele>
        <time>2024-07-07T12:14:21.949Z</time>
      </trkpt>
      <trkpt lat="53.18135" lon="5.79575">
        <ele>48.517042</ele>
        <time>2024-07-07T12:14:24.948Z</time>
      </trkpt>
      <trkpt lat="53.18132" lon="5.79592">
        <ele>48.630919</ele>
        <time>2024-07-07T12:14:27.927Z</time>
      </trkpt>
      <trkpt lat="53.1813" lon="5.7961">
        <ele>48.754159</ele>
        <time>2024-07-07T12:14:30.948Z</time>
      </trkpt>
      <trkpt lat="53.18133" lon="5.79627">
        <ele>48.870484</ele>
        <time>2024-07-07T12:14:33.929Z</time>
      </trkpt>
      <trkpt lat="53.18141" lon="5.79637">
        <ele>48.978482</ele>
        <time>2024-07-07T12:14:36.931Z</time>
      </trkpt>
      <trkpt lat="53.18151" lon="5.7964">
        <ele>49.086497</ele>
        <time>2024-07-07T12:14:39.912Z</time>
      </trkpt>
      <trkpt lat="53.18163" lon="5.79641">
        <ele>49.251217</ele>
        <time>2024-07-07T12:14:43.931Z</time>
      </trkpt>
      <trkpt lat="53.18173" lon="5.79642">
        <ele>49.408214</ele>
        <time>2024-07-07T12:14:46.937Z</time>
      </trkpt>
      <trkpt lat="53.18183" lon="5.79643">
        <ele>49.581525</ele>
        <time>2024-07-07T12:14:49.934Z</time>
      </trkpt>
      <trkpt lat="53.18193" lon="5.79644">
        <ele>49.743416</ele>
        <time>2024-07-07T12:14:52.913Z</time>
      </trkpt>
      <trkpt lat="53.18203" lon="5.79645">
        <ele>49.898892</ele>
        <time>2024-07-07T12:14:55.949Z</time>
      </trkpt>
      <trkpt lat="53.18213" lon="5.79645">
        <ele>50.068771</ele>
        <time>2024-07-07T12:14:58.930Z</time>
      </trkpt>
      <trkpt lat="53.18223" lon="5.79646">
        <ele>50.230712</ele>
        <time>2024-07-07T12:15:01.928Z</time>
      </trkpt>
      <trkpt lat="53.18233" lon="5.79647">
        <ele>50.3864</ele>
        <time>2024-07-07T12:15:04.931Z</time>
      </trkpt>
      <trkpt lat="53.18243" lon="5.79649">
        <ele>50.560242</ele>
        <time>2024-07-07T12:15:08.922Z</time>
      </trkpt>
      <trkpt lat="53.18253" lon="5.79649">
        <ele>50.713888</ele>
        <time>2024-07-07T12:15:12.920Z</time>
      </trkpt>
      <trkpt lat="53.18263" lon="5.7965">
        <ele>50.88549</ele>
        <time>2024-07-07T12:15:17.933Z</time>
      </trkpt>
      <trkpt lat="53.18273" lon="5.79651">
        <ele>51.054134</ele>
        <time>2024-07-07T12:15:22.937Z</time>
      </trkpt>
      <trkpt lat="53.18284" lon="5.79653">
        <ele>51.223504</ele>
        <time>2024-07-07T12:15:27.947Z</time>
      </trkpt>
      <trkpt lat="53.18293" lon="5.79655">
        <ele>51.36982</ele>
        <time>2024-07-07T12:15:31.939Z</time>
      </trkpt>
      <trkpt lat="53.18302" lon="5.79655">
        <ele>51.531524</ele>
        <time>2024-07-07T12:15:36.932Z</time>
      </trkpt>
      <trkpt lat="53.18323" lon="5.79654">
        <ele>51.868165</ele>
        <time>2024-07-07T12:16:47.930Z</time>
      </trkpt>
      <trkpt lat="53.18334" lon="5.79658">
        <ele>52.049518</ele>
        <time>2024-07-07T12:16:50.923Z</time>
      </trkpt>
      <trkpt lat="53.18345" lon="5.79659">
        <ele>52.002024</ele>
        <time>2024-07-07T12:16:53.926Z</time>
      </trkpt>
      <trkpt lat="53.18357" lon="5.7966">
        <ele>51.894887</ele>
        <time>2024-07-07T12:16:56.929Z</time>
      </trkpt>
      <trkpt lat="53.1837" lon="5.7966">
        <ele>51.779669</ele>
        <time>2024-07-07T12:16:59.937Z</time>
      </trkpt>
      <trkpt lat="53.18383" lon="5.79659">
        <ele>51.662596</ele>
        <time>2024-07-07T12:17:02.929Z</time>
      </trkpt>
      <trkpt lat="53.18396" lon="5.79659">
        <ele>51.544656</ele>
        <time>2024-07-07T12:17:05.929Z</time>
      </trkpt>
      <trkpt lat="53.18409" lon="5.79659">
        <ele>51.423969</ele>
        <time>2024-07-07T12:17:08.933Z</time>
      </trkpt>
      <trkpt lat="53.18419" lon="5.79659">
        <ele>51.338678</ele>
        <time>2024-07-07T12:17:10.920Z</time>
      </trkpt>
      <trkpt lat="53.18428" lon="5.79659">
        <ele>51.250679</ele>
        <time>2024-07-07T12:17:12.941Z</time>
      </trkpt>
      <trkpt lat="53.18438" lon="5.7966">
        <ele>51.161668</ele>
        <time>2024-07-07T12:17:14.934Z</time>
      </trkpt>
      <trkpt lat="53.18448" lon="5.79661">
        <ele>51.072682</ele>
        <time>2024-07-07T12:17:16.912Z</time>
      </trkpt>
      <trkpt lat="53.18458" lon="5.79662">
        <ele>50.978234</ele>
        <time>2024-07-07T12:17:18.931Z</time>
      </trkpt>
      <trkpt lat="53.18469" lon="5.79663">
        <ele>50.880135</ele>
        <time>2024-07-07T12:17:20.925Z</time>
      </trkpt>
      <trkpt lat="53.1848" lon="5.79663">
        <ele>50.782062</ele>
        <time>2024-07-07T12:17:22.931Z</time>
      </trkpt>
      <trkpt lat="53.18491" lon="5.79664">
        <ele>50.68127</ele>
        <time>2024-07-07T12:17:24.917Z</time>
      </trkpt>
      <trkpt lat="53.18502" lon="5.79665">
        <ele>50.583111</ele>
        <time>2024-07-07T12:17:26.928Z</time>
      </trkpt>
      <trkpt lat="53.18513" lon="5.79666">
        <ele>50.479669</ele>
        <time>2024-07-07T12:17:28.937Z</time>
      </trkpt>
      <trkpt lat="53.18525" lon="5.79666">
        <ele>50.399841</ele>
        <time>2024-07-07T12:17:30.908Z</time>
      </trkpt>
      <trkpt lat="53.18537" lon="5.79668">
        <ele>50.331594</ele>
        <time>2024-07-07T12:17:32.928Z</time>
      </trkpt>
      <trkpt lat="53.18548" lon="5.79668">
        <ele>50.266447</ele>
        <time>2024-07-07T12:17:34.924Z</time>
      </trkpt>
      <trkpt lat="53.18558" lon="5.79668">
        <ele>50.20831</ele>
        <time>2024-07-07T12:17:36.928Z</time>
      </trkpt>
      <trkpt lat="53.18567" lon="5.79661">
        <ele>50.154087</ele>
        <time>2024-07-07T12:17:38.915Z</time>
      </trkpt>
      <trkpt lat="53.18572" lon="5.7965">
        <ele>50.101188</ele>
        <time>2024-07-07T12:17:40.925Z</time>
      </trkpt>
      <trkpt lat="53.18578" lon="5.79637">
        <ele>50.045632</ele>
        <time>2024-07-07T12:17:42.916Z</time>
      </trkpt>
      <trkpt lat="53.18583" lon="5.79624">
        <ele>49.993565</ele>
        <time>2024-07-07T12:17:44.937Z</time>
      </trkpt>
      <trkpt lat="53.18586" lon="5.79604">
        <ele>49.919423</ele>
        <time>2024-07-07T12:17:47.910Z</time>
      </trkpt>
      <trkpt lat="53.18588" lon="5.79588">
        <ele>49.863848</ele>
        <time>2024-07-07T12:17:51.941Z</time>
      </trkpt>
      <trkpt lat="53.18597" lon="5.7958">
        <ele>49.803221</ele>
        <time>2024-07-07T12:17:56.913Z</time>
      </trkpt>
      <trkpt lat="53.18609" lon="5.79584">
        <ele>49.730582</ele>
        <time>2024-07-07T12:18:00.914Z</time>
      </trkpt>
      <trkpt lat="53.18619" lon="5.7959">
        <ele>49.67153</ele>
        <time>2024-07-07T12:18:03.929Z</time>
      </trkpt>
      <trkpt lat="53.18629" lon="5.79595">
        <ele>49.610572</ele>
        <time>2024-07-07T12:18:06.921Z</time>
      </trkpt>
      <trkpt lat="53.18639" lon="5.79598">
        <ele>49.550168</ele>
        <time>2024-07-07T12:18:09.935Z</time>
      </trkpt>
      <trkpt lat="53.18648" lon="5.79604">
        <ele>49.492869</ele>
        <time>2024-07-07T12:18:12.934Z</time>
      </trkpt>
      <trkpt lat="53.18648" lon="5.7962">
        <ele>49.436423</ele>
        <time>2024-07-07T12:18:15.924Z</time>
      </trkpt>
      <trkpt lat="53.18646" lon="5.79636">
        <ele>49.415941</ele>
        <time>2024-07-07T12:18:18.916Z</time>
      </trkpt>
      <trkpt lat="53.18652" lon="5.79648">
        <ele>49.429912</ele>
        <time>2024-07-07T12:18:23.913Z</time>
      </trkpt>
      <trkpt lat="53.18663" lon="5.79652">
        <ele>49.445593</ele>
        <time>2024-07-07T12:20:15.941Z</time>
      </trkpt>
      <trkpt lat="53.18676" lon="5.79656">
        <ele>49.462766</ele>
        <time>2024-07-07T12:20:19.932Z</time>
      </trkpt>
      <trkpt lat="53.18685" lon="5.7966">
        <ele>49.477112</ele>
        <time>2024-07-07T12:20:22.923Z</time>
      </trkpt>
      <trkpt lat="53.18697" lon="5.79664">
        <ele>49.493391</ele>
        <time>2024-07-07T12:20:25.950Z</time>
      </trkpt>
      <trkpt lat="53.18709" lon="5.79669">
        <ele>49.511311</ele>
        <time>2024-07-07T12:20:28.917Z</time>
      </trkpt>
      <trkpt lat="53.18722" lon="5.79674">
        <ele>49.529066</ele>
        <time>2024-07-07T12:20:31.937Z</time>
      </trkpt>
      <trkpt lat="53.18731" lon="5.79678">
        <ele>49.541734</ele>
        <time>2024-07-07T12:20:33.927Z</time>
      </trkpt>
      <trkpt lat="53.18743" lon="5.79683">
        <ele>49.55942</ele>
        <time>2024-07-07T12:20:36.938Z</time>
      </trkpt>
      <trkpt lat="53.18751" lon="5.79696">
        <ele>49.574833</ele>
        <time>2024-07-07T12:20:39.920Z</time>
      </trkpt>
      <trkpt lat="53.18759" lon="5.79708">
        <ele>49.589893</ele>
        <time>2024-07-07T12:20:42.941Z</time>
      </trkpt>
      <trkpt lat="53.18771" lon="5.79713">
        <ele>49.606861</ele>
        <time>2024-07-07T12:20:45.933Z</time>
      </trkpt>
      <trkpt lat="53.18783" lon="5.79713">
        <ele>49.623613</ele>
        <time>2024-07-07T12:20:48.914Z</time>
      </trkpt>
      <trkpt lat="53.18796" lon="5.79715">
        <ele>49.641715</ele>
        <time>2024-07-07T12:20:51.929Z</time>
      </trkpt>
      <trkpt lat="53.18808" lon="5.79718">
        <ele>49.659598</ele>
        <time>2024-07-07T12:20:54.925Z</time>
      </trkpt>
      <trkpt lat="53.18822" lon="5.79718">
        <ele>49.542766</ele>
        <time>2024-07-07T12:20:57.948Z</time>
      </trkpt>
      <trkpt lat="53.18835" lon="5.7972">
        <ele>49.419667</ele>
        <time>2024-07-07T12:21:00.941Z</time>
      </trkpt>
      <trkpt lat="53.18848" lon="5.79722">
        <ele>49.300236</ele>
        <time>2024-07-07T12:21:03.933Z</time>
      </trkpt>
      <trkpt lat="53.18857" lon="5.79723">
        <ele>49.217378</ele>
        <time>2024-07-07T12:21:05.928Z</time>
      </trkpt>
      <trkpt lat="53.18866" lon="5.79724">
        <ele>49.135023</ele>
        <time>2024-07-07T12:21:07.929Z</time>
      </trkpt>
      <trkpt lat="53.1888" lon="5.79726">
        <ele>49.014507</ele>
        <time>2024-07-07T12:21:10.920Z</time>
      </trkpt>
      <trkpt lat="53.18893" lon="5.79727">
        <ele>48.894474</ele>
        <time>2024-07-07T12:21:13.930Z</time>
      </trkpt>
      <trkpt lat="53.18902" lon="5.79729">
        <ele>48.811329</ele>
        <time>2024-07-07T12:21:15.928Z</time>
      </trkpt>
      <trkpt lat="53.18915" lon="5.79731">
        <ele>48.695233</ele>
        <time>2024-07-07T12:21:18.932Z</time>
      </trkpt>
      <trkpt lat="53.18928" lon="5.79734">
        <ele>48.571471</ele>
        <time>2024-07-07T12:21:21.935Z</time>
      </trkpt>
      <trkpt lat="53.18937" lon="5.79737">
        <ele>48.488684</ele>
        <time>2024-07-07T12:21:23.930Z</time>
      </trkpt>
      <trkpt lat="53.1895" lon="5.79743">
        <ele>48.367188</ele>
        <time>2024-07-07T12:21:26.919Z</time>
      </trkpt>
      <trkpt lat="53.18959" lon="5.79746">
        <ele>48.283518</ele>
        <time>2024-07-07T12:21:28.913Z</time>
      </trkpt>
      <trkpt lat="53.18972" lon="5.7975">
        <ele>48.163421</ele>
        <time>2024-07-07T12:21:31.935Z</time>
      </trkpt>
      <trkpt lat="53.18981" lon="5.79753">
        <ele>48.079971</ele>
        <time>2024-07-07T12:21:33.936Z</time>
      </trkpt>
      <trkpt lat="53.1899" lon="5.79756">
        <ele>48.025671</ele>
        <time>2024-07-07T12:21:35.944Z</time>
      </trkpt>
      <trkpt lat="53.18999" lon="5.79759">
        <ele>48.027587</ele>
        <time>2024-07-07T12:21:37.930Z</time>
      </trkpt>
      <trkpt lat="53.19009" lon="5.79761">
        <ele>48.02952</ele>
        <time>2024-07-07T12:21:39.933Z</time>
      </trkpt>
      <trkpt lat="53.19021" lon="5.79765">
        <ele>48.032182</ele>
        <time>2024-07-07T12:21:42.931Z</time>
      </trkpt>
      <trkpt lat="53.19034" lon="5.7977">
        <ele>48.034912</ele>
        <time>2024-07-07T12:21:45.940Z</time>
      </trkpt>
      <trkpt lat="53.19047" lon="5.79774">
        <ele>48.037612</ele>
        <time>2024-07-07T12:21:48.932Z</time>
      </trkpt>
      <trkpt lat="53.19059" lon="5.79778">
        <ele>48.040193</ele>
        <time>2024-07-07T12:21:51.936Z</time>
      </trkpt>
      <trkpt lat="53.19072" lon="5.79781">
        <ele>48.042872</ele>
        <time>2024-07-07T12:21:54.927Z</time>
      </trkpt>
      <trkpt lat="53.19081" lon="5.79784">
        <ele>48.044803</ele>
        <time>2024-07-07T12:21:56.927Z</time>
      </trkpt>
      <trkpt lat="53.1909" lon="5.79787">
        <ele>48.046768</ele>
        <time>2024-07-07T12:21:58.904Z</time>
      </trkpt>
      <trkpt lat="53.19104" lon="5.7979">
        <ele>48.049551</ele>
        <time>2024-07-07T12:22:01.951Z</time>
      </trkpt>
      <trkpt lat="53.19117" lon="5.79793">
        <ele>48.05231</ele>
        <time>2024-07-07T12:22:04.940Z</time>
      </trkpt>
      <trkpt lat="53.1913" lon="5.79796">
        <ele>48.05508</ele>
        <time>2024-07-07T12:22:07.930Z</time>
      </trkpt>
      <trkpt lat="53.19143" lon="5.79801">
        <ele>48.05778</ele>
        <time>2024-07-07T12:22:10.938Z</time>
      </trkpt>
      <trkpt lat="53.19156" lon="5.79804">
        <ele>48.06048</ele>
        <time>2024-07-07T12:22:13.932Z</time>
      </trkpt>
      <trkpt lat="53.19168" lon="5.79809">
        <ele>48.11912</ele>
        <time>2024-07-07T12:22:16.927Z</time>
      </trkpt>
      <trkpt lat="53.19178" lon="5.79811">
        <ele>48.238052</ele>
        <time>2024-07-07T12:22:18.934Z</time>
      </trkpt>
      <trkpt lat="53.19187" lon="5.79814">
        <ele>48.351316</ele>
        <time>2024-07-07T12:22:20.931Z</time>
      </trkpt>
      <trkpt lat="53.19199" lon="5.79818">
        <ele>48.510225</ele>
        <time>2024-07-07T12:22:23.931Z</time>
      </trkpt>
      <trkpt lat="53.19212" lon="5.7982">
        <ele>48.672768</ele>
        <time>2024-07-07T12:22:26.933Z</time>
      </trkpt>
      <trkpt lat="53.19225" lon="5.79825">
        <ele>48.837557</ele>
        <time>2024-07-07T12:22:29.932Z</time>
      </trkpt>
      <trkpt lat="53.19238" lon="5.7983">
        <ele>49.003558</ele>
        <time>2024-07-07T12:22:32.931Z</time>
      </trkpt>
      <trkpt lat="53.1925" lon="5.79833">
        <ele>49.151685</ele>
        <time>2024-07-07T12:22:35.928Z</time>
      </trkpt>
      <trkpt lat="53.19263" lon="5.79837">
        <ele>49.316962</ele>
        <time>2024-07-07T12:22:38.916Z</time>
      </trkpt>
      <trkpt lat="53.19276" lon="5.79841">
        <ele>49.481021</ele>
        <time>2024-07-07T12:22:41.925Z</time>
      </trkpt>
      <trkpt lat="53.19288" lon="5.79845">
        <ele>49.632004</ele>
        <time>2024-07-07T12:22:44.927Z</time>
      </trkpt>
      <trkpt lat="53.19301" lon="5.79847">
        <ele>49.794037</ele>
        <time>2024-07-07T12:22:47.930Z</time>
      </trkpt>
      <trkpt lat="53.19314" lon="5.79851">
        <ele>49.949629</ele>
        <time>2024-07-07T12:22:50.925Z</time>
      </trkpt>
      <trkpt lat="53.19326" lon="5.79854">
        <ele>50.106101</ele>
        <time>2024-07-07T12:22:53.940Z</time>
      </trkpt>
      <trkpt lat="53.19338" lon="5.79854">
        <ele>50.258691</ele>
        <time>2024-07-07T12:22:56.931Z</time>
      </trkpt>
      <trkpt lat="53.1935" lon="5.7985">
        <ele>50.411708</ele>
        <time>2024-07-07T12:22:59.933Z</time>
      </trkpt>
      <trkpt lat="53.19362" lon="5.7985">
        <ele>50.576061</ele>
        <time>2024-07-07T12:23:02.916Z</time>
      </trkpt>
      <trkpt lat="53.19375" lon="5.79854">
        <ele>50.747422</ele>
        <time>2024-07-07T12:23:05.943Z</time>
      </trkpt>
      <trkpt lat="53.19387" lon="5.79857">
        <ele>50.91123</ele>
        <time>2024-07-07T12:23:08.926Z</time>
      </trkpt>
      <trkpt lat="53.19399" lon="5.7986">
        <ele>51.073116</ele>
        <time>2024-07-07T12:23:11.931Z</time>
      </trkpt>
      <trkpt lat="53.19411" lon="5.79863">
        <ele>51.236553</ele>
        <time>2024-07-07T12:23:14.923Z</time>
      </trkpt>
      <trkpt lat="53.19424" lon="5.79863">
        <ele>51.406301</ele>
        <time>2024-07-07T12:23:17.925Z</time>
      </trkpt>
      <trkpt lat="53.19437" lon="5.79866">
        <ele>51.582466</ele>
        <time>2024-07-07T12:23:20.934Z</time>
      </trkpt>
      <trkpt lat="53.1945" lon="5.79867">
        <ele>51.761848</ele>
        <time>2024-07-07T12:23:23.928Z</time>
      </trkpt>
      <trkpt lat="53.19459" lon="5.79868">
        <ele>51.88219</ele>
        <time>2024-07-07T12:23:25.926Z</time>
      </trkpt>
      <trkpt lat="53.19472" lon="5.79869">
        <ele>52.055078</ele>
        <time>2024-07-07T12:23:28.910Z</time>
      </trkpt>
      <trkpt lat="53.19485" lon="5.79869">
        <ele>52.226094</ele>
        <time>2024-07-07T12:23:31.940Z</time>
      </trkpt>
      <trkpt lat="53.19497" lon="5.79869">
        <ele>52.3905</ele>
        <time>2024-07-07T12:23:34.923Z</time>
      </trkpt>
      <trkpt lat="53.19509" lon="5.79867">
        <ele>52.556606</ele>
        <time>2024-07-07T12:23:37.928Z</time>
      </trkpt>
      <trkpt lat="53.19522" lon="5.79867">
        <ele>52.694749</ele>
        <time>2024-07-07T12:23:40.928Z</time>
      </trkpt>
      <trkpt lat="53.19536" lon="5.79867">
        <ele>52.689581</ele>
        <time>2024-07-07T12:23:43.936Z</time>
      </trkpt>
      <trkpt lat="53.19545" lon="5.79866">
        <ele>52.685923</ele>
        <time>2024-07-07T12:23:45.929Z</time>
      </trkpt>
      <trkpt lat="53.19554" lon="5.79862">
        <ele>52.682235</ele>
        <time>2024-07-07T12:23:47.931Z</time>
      </trkpt>
      <trkpt lat="53.19563" lon="5.79858">
        <ele>52.678703</ele>
        <time>2024-07-07T12:23:49.927Z</time>
      </trkpt>
      <trkpt lat="53.19574" lon="5.79848">
        <ele>52.673652</ele>
        <time>2024-07-07T12:23:52.914Z</time>
      </trkpt>
      <trkpt lat="53.19586" lon="5.79836">
        <ele>52.668337</ele>
        <time>2024-07-07T12:23:55.937Z</time>
      </trkpt>
      <trkpt lat="53.19592" lon="5.79824">
        <ele>52.664832</ele>
        <time>2024-07-07T12:23:57.913Z</time>
      </trkpt>
      <trkpt lat="53.19598" lon="5.79806">
        <ele>52.65978</ele>
        <time>2024-07-07T12:24:00.918Z</time>
      </trkpt>
      <trkpt lat="53.19604" lon="5.79787">
        <ele>52.654944</ele>
        <time>2024-07-07T12:24:03.922Z</time>
      </trkpt>
      <trkpt lat="53.1961" lon="5.79768">
        <ele>52.649849</ele>
        <time>2024-07-07T12:24:06.936Z</time>
      </trkpt>
      <trkpt lat="53.19618" lon="5.7975">
        <ele>52.644787</ele>
        <time>2024-07-07T12:24:09.943Z</time>
      </trkpt>
      <trkpt lat="53.19626" lon="5.79734">
        <ele>52.639704</ele>
        <time>2024-07-07T12:24:12.925Z</time>
      </trkpt>
      <trkpt lat="53.19632" lon="5.79722">
        <ele>52.63618</ele>
        <time>2024-07-07T12:24:14.923Z</time>
      </trkpt>
      <trkpt lat="53.19642" lon="5.79709">
        <ele>52.631362</ele>
        <time>2024-07-07T12:24:17.924Z</time>
      </trkpt>
      <trkpt lat="53.19652" lon="5.79702">
        <ele>52.626871</ele>
        <time>2024-07-07T12:24:20.933Z</time>
      </trkpt>
      <trkpt lat="53.19662" lon="5.79697">
        <ele>52.569451</ele>
        <time>2024-07-07T12:24:23.934Z</time>
      </trkpt>
      <trkpt lat="53.19672" lon="5.79697">
        <ele>52.500288</ele>
        <time>2024-07-07T12:24:26.925Z</time>
      </trkpt>
      <trkpt lat="53.19682" lon="5.79694">
        <ele>52.424192</ele>
        <time>2024-07-07T12:24:31.926Z</time>
      </trkpt>
      <trkpt lat="53.19692" lon="5.79695">
        <ele>52.356438</ele>
        <time>2024-07-07T12:24:36.929Z</time>
      </trkpt>
      <trkpt lat="53.19702" lon="5.79688">
        <ele>52.274547</ele>
        <time>2024-07-07T12:24:53.930Z</time>
      </trkpt>
      <trkpt lat="53.19712" lon="5.79682">
        <ele>52.196285</ele>
        <time>2024-07-07T12:24:57.923Z</time>
      </trkpt>
      <trkpt lat="53.19722" lon="5.79671">
        <ele>52.109296</ele>
        <time>2024-07-07T12:25:01.926Z</time>
      </trkpt>
      <trkpt lat="53.19732" lon="5.79671">
        <ele>52.04015</ele>
        <time>2024-07-07T12:25:04.910Z</time>
      </trkpt>
      <trkpt lat="53.19742" lon="5.79673">
        <ele>51.968395</ele>
        <time>2024-07-07T12:25:07.927Z</time>
      </trkpt>
      <trkpt lat="53.19754" lon="5.79678">
        <ele>51.874237</ele>
        <time>2024-07-07T12:25:10.933Z</time>
      </trkpt>
      <trkpt lat="53.19766" lon="5.79681">
        <ele>51.787721</ele>
        <time>2024-07-07T12:25:13.941Z</time>
      </trkpt>
      <trkpt lat="53.19776" lon="5.79681">
        <ele>51.712029</ele>
        <time>2024-07-07T12:25:16.925Z</time>
      </trkpt>
      <trkpt lat="53.19788" lon="5.79686">
        <ele>51.625542</ele>
        <time>2024-07-07T12:25:19.931Z</time>
      </trkpt>
      <trkpt lat="53.19797" lon="5.79695">
        <ele>51.547527</ele>
        <time>2024-07-07T12:25:22.924Z</time>
      </trkpt>
      <trkpt lat="53.19805" lon="5.79707">
        <ele>51.469135</ele>
        <time>2024-07-07T12:25:25.922Z</time>
      </trkpt>
      <trkpt lat="53.19812" lon="5.79696">
        <ele>51.400823</ele>
        <time>2024-07-07T12:25:34.915Z</time>
      </trkpt>
      <trkpt lat="53.19816" lon="5.79682">
        <ele>51.328397</ele>
        <time>2024-07-07T12:25:39.920Z</time>
      </trkpt>
      <trkpt lat="53.19826" lon="5.79671">
        <ele>51.703051</ele>
        <time>2024-07-07T12:25:44.918Z</time>
      </trkpt>
      <trkpt lat="53.19836" lon="5.79669">
        <ele>52.076723</ele>
        <time>2024-07-07T12:25:47.913Z</time>
      </trkpt>
      <trkpt lat="53.19845" lon="5.79667">
        <ele>52.442679</ele>
        <time>2024-07-07T12:25:50.927Z</time>
      </trkpt>
      <trkpt lat="53.19854" lon="5.79665">
        <ele>52.803058</ele>
        <time>2024-07-07T12:25:53.927Z</time>
      </trkpt>
      <trkpt lat="53.19864" lon="5.79673">
        <ele>53.239025</ele>
        <time>2024-07-07T12:25:57.921Z</time>
      </trkpt>
      <trkpt lat="53.19874" lon="5.79674">
        <ele>53.610804</ele>
        <time>2024-07-07T12:26:01.912Z</time>
      </trkpt>
      <trkpt lat="53.19884" lon="5.79672">
        <ele>54.012811</ele>
        <time>2024-07-07T12:26:06.931Z</time>
      </trkpt>
      <trkpt lat="53.19893" lon="5.79674">
        <ele>54.379814</ele>
        <time>2024-07-07T12:26:10.922Z</time>
      </trkpt>
      <trkpt lat="53.19903" lon="5.79682">
        <ele>54.790895</ele>
        <time>2024-07-07T12:26:15.918Z</time>
      </trkpt>
      <trkpt lat="53.19912" lon="5.7969">
        <ele>55.184719</ele>
        <time>2024-07-07T12:26:23.932Z</time>
      </trkpt>
      <trkpt lat="53.19921" lon="5.79687">
        <ele>55.563754</ele>
        <time>2024-07-07T12:26:28.920Z</time>
      </trkpt>
      <trkpt lat="53.19933" lon="5.79682">
        <ele>56.023579</ele>
        <time>2024-07-07T12:26:33.931Z</time>
      </trkpt>
      <trkpt lat="53.19942" lon="5.79681">
        <ele>56.378399</ele>
        <time>2024-07-07T12:26:36.918Z</time>
      </trkpt>
      <trkpt lat="53.19951" lon="5.79681">
        <ele>56.756319</ele>
        <time>2024-07-07T12:26:39.926Z</time>
      </trkpt>
      <trkpt lat="53.19961" lon="5.79684">
        <ele>57.123701</ele>
        <time>2024-07-07T12:26:42.946Z</time>
      </trkpt>
      <trkpt lat="53.1997" lon="5.79686">
        <ele>57.49676</ele>
        <time>2024-07-07T12:26:45.931Z</time>
      </trkpt>
      <trkpt lat="53.1998" lon="5.79688">
        <ele>57.875307</ele>
        <time>2024-07-07T12:26:48.923Z</time>
      </trkpt>
      <trkpt lat="53.19989" lon="5.79689">
        <ele>58.246324</ele>
        <time>2024-07-07T12:26:51.927Z</time>
      </trkpt>
      <trkpt lat="53.20001" lon="5.79692">
        <ele>58.26693</ele>
        <time>2024-07-07T12:26:55.937Z</time>
      </trkpt>
      <trkpt lat="53.2001" lon="5.79692">
        <ele>58.210673</ele>
        <time>2024-07-07T12:26:58.923Z</time>
      </trkpt>
      <trkpt lat="53.2002" lon="5.79693">
        <ele>58.151413</ele>
        <time>2024-07-07T12:27:02.921Z</time>
      </trkpt>
      <trkpt lat="53.20032" lon="5.79693">
        <ele>58.080839</ele>
        <time>2024-07-07T12:27:06.913Z</time>
      </trkpt>
      <trkpt lat="53.20043" lon="5.79694">
        <ele>58.013213</ele>
        <time>2024-07-07T12:27:10.919Z</time>
      </trkpt>
      <trkpt lat="53.20054" lon="5.79692">
        <ele>57.948822</ele>
        <time>2024-07-07T12:27:14.943Z</time>
      </trkpt>
      <trkpt lat="53.20063" lon="5.79689">
        <ele>57.893636</ele>
        <time>2024-07-07T12:27:17.932Z</time>
      </trkpt>
      <trkpt lat="53.20073" lon="5.79687">
        <ele>57.835307</ele>
        <time>2024-07-07T12:27:20.916Z</time>
      </trkpt>
      <trkpt lat="53.20082" lon="5.79687">
        <ele>57.780865</ele>
        <time>2024-07-07T12:27:23.916Z</time>
      </trkpt>
      <trkpt lat="53.20091" lon="5.79681">
        <ele>57.718619</ele>
        <time>2024-07-07T12:27:28.919Z</time>
      </trkpt>
      <trkpt lat="53.20101" lon="5.79678">
        <ele>57.657329</ele>
        <time>2024-07-07T12:27:32.948Z</time>
      </trkpt>
      <trkpt lat="53.20112" lon="5.7968">
        <ele>57.595464</ele>
        <time>2024-07-07T12:27:36.926Z</time>
      </trkpt>
      <trkpt lat="53.20123" lon="5.79674">
        <ele>57.527364</ele>
        <time>2024-07-07T12:27:41.927Z</time>
      </trkpt>
      <trkpt lat="53.20134" lon="5.79672">
        <ele>57.458732</ele>
        <time>2024-07-07T12:27:45.924Z</time>
      </trkpt>
      <trkpt lat="53.20144" lon="5.79669">
        <ele>57.397442</ele>
        <time>2024-07-07T12:27:49.929Z</time>
      </trkpt>
      <trkpt lat="53.20154" lon="5.79665">
        <ele>57.338848</ele>
        <time>2024-07-07T12:27:53.943Z</time>
      </trkpt>
      <trkpt lat="53.20163" lon="5.79664">
        <ele>57.284791</ele>
        <time>2024-07-07T12:27:56.922Z</time>
      </trkpt>
      <trkpt lat="53.20174" lon="5.79661">
        <ele>57.24872</ele>
        <time>2024-07-07T12:28:00.922Z</time>
      </trkpt>
      <trkpt lat="53.20185" lon="5.79656">
        <ele>57.24872</ele>
        <time>2024-07-07T12:28:04.919Z</time>
      </trkpt>
      <trkpt lat="53.20196" lon="5.79651">
        <ele>57.24872</ele>
        <time>2024-07-07T12:28:08.914Z</time>
      </trkpt>
      <trkpt lat="53.20207" lon="5.79648">
        <ele>57.24872</ele>
        <time>2024-07-07T12:28:12.926Z</time>
      </trkpt>
      <trkpt lat="53.20217" lon="5.79646">
        <ele>57.24872</ele>
        <time>2024-07-07T12:28:16.940Z</time>
      </trkpt>
      <trkpt lat="53.20227" lon="5.79641">
        <ele>57.24872</ele>
        <time>2024-07-07T12:28:19.945Z</time>
      </trkpt>
      <trkpt lat="53.20236" lon="5.79636">
        <ele>57.24872</ele>
        <time>2024-07-07T12:28:22.928Z</time>
      </trkpt>
      <trkpt lat="53.20245" lon="5.79632">
        <ele>57.24872</ele>
        <time>2024-07-07T12:28:25.927Z</time>
      </trkpt>
      <trkpt lat="53.20252" lon="5.79621">
        <ele>57.24872</ele>
        <time>2024-07-07T12:28:29.921Z</time>
      </trkpt>
      <trkpt lat="53.20249" lon="5.79606">
        <ele>57.24872</ele>
        <time>2024-07-07T12:28:33.912Z</time>
      </trkpt>
    </trkseg>
  </trk>
</gpx>